<?xml version='1.0' encoding='UTF-8'?><gpx version="1.1" creator="JPX - https://github.com/jenetics/jpx" xmlns="http://www.topografix.com/GPX/1/1"><trk><trkseg><trkpt lat="43.533890487688936" lon="11.896728219583208"><ele>271.0</ele><time>2026-04-25T07:42:23.998Z</time></trkpt><trkpt lat="43.533932255787455" lon="11.896549435819257"><ele>271.0</ele><time>2026-04-25T07:42:25.998Z</time></trkpt><trkpt lat="43.53401430121198" lon="11.896443955374426"><ele>271.0</ele><time>2026-04-25T07:42:26.998Z</time></trkpt><trkpt lat="43.534087661903406" lon="11.896340010678784"><ele>271.0</ele><time>2026-04-25T07:42:27.998Z</time></trkpt><trkpt lat="43.534180447704586" lon="11.896252339157552"><ele>271.0</ele><time>2026-04-25T07:42:29Z</time></trkpt><trkpt lat="43.53426019753838" lon="11.896138896117485"><ele>271.0</ele><time>2026-04-25T07:42:30Z</time></trkpt><trkpt lat="43.534324434508925" lon="11.89604751990921"><ele>271.0</ele><time>2026-04-25T07:42:31Z</time></trkpt><trkpt lat="43.534380080806834" lon="11.895968363811384"><ele>271.0</ele><time>2026-04-25T07:42:32Z</time></trkpt><trkpt lat="43.53442873399687" lon="11.895899155316323"><ele>271.0</ele><time>2026-04-25T07:42:33Z</time></trkpt><trkpt lat="43.53451610681024" lon="11.895778788252235"><ele>271.16666666666663</ele><time>2026-04-25T07:42:35Z</time></trkpt><trkpt lat="43.534576530767794" lon="11.895697231222872"><ele>271.3333333333333</ele><time>2026-04-25T07:42:36Z</time></trkpt><trkpt lat="43.53463606513412" lon="11.895616874846535"><ele>271.5</ele><time>2026-04-25T07:42:37Z</time></trkpt><trkpt lat="43.534694793174616" lon="11.895522559559968"><ele>271.6666666666667</ele><time>2026-04-25T07:42:38Z</time></trkpt><trkpt lat="43.534751580555145" lon="11.89542610904102"><ele>271.83333333333337</ele><time>2026-04-25T07:42:39Z</time></trkpt><trkpt lat="43.53481128997117" lon="11.895322560021675"><ele>272.0</ele><time>2026-04-25T07:42:40Z</time></trkpt><trkpt lat="43.53486076724602" lon="11.895238494687888"><ele>272.0</ele><time>2026-04-25T07:42:41Z</time></trkpt><trkpt lat="43.53490911429633" lon="11.895156625317155"><ele>272.0</ele><time>2026-04-25T07:42:42Z</time></trkpt><trkpt lat="43.53495146421207" lon="11.895079577127989"><ele>272.0</ele><time>2026-04-25T07:42:43Z</time></trkpt><trkpt lat="43.535016247833894" lon="11.894945098187632"><ele>272.0</ele><time>2026-04-25T07:42:45Z</time></trkpt><trkpt lat="43.53504585122165" lon="11.894864588222356"><ele>272.0</ele><time>2026-04-25T07:42:47Z</time></trkpt><trkpt lat="43.53503114620317" lon="11.894712501971087"><ele>272.0</ele><time>2026-04-25T07:42:50Z</time></trkpt><trkpt lat="43.5348865026087" lon="11.894610332079454"><ele>273.2</ele><time>2026-04-25T07:42:52Z</time></trkpt><trkpt lat="43.53496329005441" lon="11.894469483431175"><ele>274.4</ele><time>2026-04-25T07:42:54Z</time></trkpt><trkpt lat="43.53500885361975" lon="11.894347286232131"><ele>275.6</ele><time>2026-04-25T07:42:55Z</time></trkpt><trkpt lat="43.53502900659127" lon="11.894209610403449"><ele>276.8</ele><time>2026-04-25T07:42:56Z</time></trkpt><trkpt lat="43.535045129081304" lon="11.894071873696685"><ele>278.0</ele><time>2026-04-25T07:42:57Z</time></trkpt><trkpt lat="43.53505991027431" lon="11.893935385368096"><ele>279.4</ele><time>2026-04-25T07:42:58Z</time></trkpt><trkpt lat="43.53502418889708" lon="11.893838531249992"><ele>280.8</ele><time>2026-04-25T07:42:59Z</time></trkpt><trkpt lat="43.53499061332381" lon="11.893680722334468"><ele>282.2</ele><time>2026-04-25T07:43:01Z</time></trkpt><trkpt lat="43.535070058755096" lon="11.89363411747078"><ele>283.6</ele><time>2026-04-25T07:43:02Z</time></trkpt><trkpt lat="43.535114959084964" lon="11.893531343859868"><ele>285.0</ele><time>2026-04-25T07:43:03Z</time></trkpt><trkpt lat="43.53516946452759" lon="11.893448775080449"><ele>285.0</ele><time>2026-04-25T07:43:04Z</time></trkpt><trkpt lat="43.53523661944158" lon="11.893427454373697"><ele>285.0</ele><time>2026-04-25T07:43:05Z</time></trkpt><trkpt lat="43.53531233485072" lon="11.893462663002605"><ele>285.0</ele><time>2026-04-25T07:43:06Z</time></trkpt><trkpt lat="43.53541013681771" lon="11.893467553099411"><ele>285.0</ele><time>2026-04-25T07:43:07Z</time></trkpt><trkpt lat="43.53552040004831" lon="11.89347223738814"><ele>285.0</ele><time>2026-04-25T07:43:08Z</time></trkpt><trkpt lat="43.53560675094229" lon="11.893471652980502"><ele>285.0</ele><time>2026-04-25T07:43:09Z</time></trkpt><trkpt lat="43.5356737564027" lon="11.893457088059433"><ele>287.6</ele><time>2026-04-25T07:43:10Z</time></trkpt><trkpt lat="43.53566134933772" lon="11.893286307812177"><ele>290.2</ele><time>2026-04-25T07:43:12.999Z</time></trkpt><trkpt lat="43.53551002481532" lon="11.893253794763762"><ele>292.8</ele><time>2026-04-25T07:43:14.999Z</time></trkpt><trkpt lat="43.53543509869354" lon="11.893215846645445"><ele>295.4</ele><time>2026-04-25T07:43:15.999Z</time></trkpt><trkpt lat="43.53537423049372" lon="11.893165382320355"><ele>298.0</ele><time>2026-04-25T07:43:16.999Z</time></trkpt><trkpt lat="43.535320907386875" lon="11.893114825975669"><ele>298.0</ele><time>2026-04-25T07:43:17.999Z</time></trkpt><trkpt lat="43.53530856908435" lon="11.892992905246514"><ele>298.0</ele><time>2026-04-25T07:43:19.999Z</time></trkpt><trkpt lat="43.535440557780916" lon="11.892919588405857"><ele>298.0</ele><time>2026-04-25T07:43:21.999Z</time></trkpt><trkpt lat="43.5355169362309" lon="11.89285127337015"><ele>298.0</ele><time>2026-04-25T07:43:22.999Z</time></trkpt><trkpt lat="43.53561203861204" lon="11.892799441803882"><ele>298.0</ele><time>2026-04-25T07:43:23.999Z</time></trkpt><trkpt lat="43.53570321408838" lon="11.89271312536865"><ele>298.2</ele><time>2026-04-25T07:43:24.999Z</time></trkpt><trkpt lat="43.535792694506945" lon="11.892615410237385"><ele>298.4</ele><time>2026-04-25T07:43:25.999Z</time></trkpt><trkpt lat="43.535887712991354" lon="11.892571676091894"><ele>298.59999999999997</ele><time>2026-04-25T07:43:26.999Z</time></trkpt><trkpt lat="43.53595632508642" lon="11.892572216227967"><ele>298.8</ele><time>2026-04-25T07:43:27.999Z</time></trkpt><trkpt lat="43.53602225374392" lon="11.892532598165236"><ele>299.0</ele><time>2026-04-25T07:43:55.999Z</time></trkpt><trkpt lat="43.536102872571576" lon="11.892443015855976"><ele>301.1666666666667</ele><time>2026-04-25T07:43:57.999Z</time></trkpt><trkpt lat="43.53615994255731" lon="11.892381659506498"><ele>303.33333333333337</ele><time>2026-04-25T07:43:58.999Z</time></trkpt><trkpt lat="43.53621451660014" lon="11.892299543406455"><ele>305.5</ele><time>2026-04-25T07:43:59.999Z</time></trkpt><trkpt lat="43.536278729132945" lon="11.892218767555963"><ele>307.6666666666667</ele><time>2026-04-25T07:44:00.999Z</time></trkpt><trkpt lat="43.53635537397133" lon="11.892126556186678"><ele>309.8333333333333</ele><time>2026-04-25T07:44:01.998Z</time></trkpt><trkpt lat="43.536420567841326" lon="11.892016365280064"><ele>312.0</ele><time>2026-04-25T07:44:02.998Z</time></trkpt><trkpt lat="43.536491420182045" lon="11.891915593670278"><ele>312.0</ele><time>2026-04-25T07:44:03.998Z</time></trkpt><trkpt lat="43.536572461220366" lon="11.891847228034397"><ele>312.0</ele><time>2026-04-25T07:44:04.998Z</time></trkpt><trkpt lat="43.536654413342795" lon="11.891779569164768"><ele>312.0</ele><time>2026-04-25T07:44:05.998Z</time></trkpt><trkpt lat="43.53675497767415" lon="11.89169344327255"><ele>312.0</ele><time>2026-04-25T07:44:06.998Z</time></trkpt><trkpt lat="43.53683948453455" lon="11.891581432612776"><ele>312.0</ele><time>2026-04-25T07:44:07.998Z</time></trkpt><trkpt lat="43.53692368674606" lon="11.891463151300282"><ele>315.5</ele><time>2026-04-25T07:44:08.998Z</time></trkpt><trkpt lat="43.53701699129165" lon="11.891306124630443"><ele>319.0</ele><time>2026-04-25T07:44:09.998Z</time></trkpt><trkpt lat="43.53711740989178" lon="11.891189765939972"><ele>322.5</ele><time>2026-04-25T07:44:10.998Z</time></trkpt><trkpt lat="43.537219655378514" lon="11.891124874874196"><ele>326.0</ele><time>2026-04-25T07:44:11.998Z</time></trkpt><trkpt lat="43.53733985377947" lon="11.891064998227757"><ele>326.0</ele><time>2026-04-25T07:44:12.998Z</time></trkpt><trkpt lat="43.537433512492534" lon="11.890993699172725"><ele>326.0</ele><time>2026-04-25T07:44:13.998Z</time></trkpt><trkpt lat="43.53751472718143" lon="11.890941486248563"><ele>326.0</ele><time>2026-04-25T07:44:14.998Z</time></trkpt><trkpt lat="43.53760597172793" lon="11.890873608390935"><ele>326.0</ele><time>2026-04-25T07:44:15.998Z</time></trkpt><trkpt lat="43.53770507798247" lon="11.890787987896028"><ele>326.0</ele><time>2026-04-25T07:44:16.998Z</time></trkpt><trkpt lat="43.5377990847113" lon="11.890673732494104"><ele>328.6666666666667</ele><time>2026-04-25T07:44:17.998Z</time></trkpt><trkpt lat="43.53791253005181" lon="11.890564578450174"><ele>331.3333333333333</ele><time>2026-04-25T07:44:18.998Z</time></trkpt><trkpt lat="43.53803104165234" lon="11.890453576188683"><ele>334.0</ele><time>2026-04-25T07:44:19.998Z</time></trkpt><trkpt lat="43.538169631780704" lon="11.89030609837476"><ele>334.0</ele><time>2026-04-25T07:44:20.998Z</time></trkpt><trkpt lat="43.53831606022262" lon="11.890159417507416"><ele>334.0</ele><time>2026-04-25T07:44:21.998Z</time></trkpt><trkpt lat="43.53846804090478" lon="11.890010349412004"><ele>334.0</ele><time>2026-04-25T07:44:22.998Z</time></trkpt><trkpt lat="43.53860830829683" lon="11.889870515509726"><ele>335.66666666666663</ele><time>2026-04-25T07:44:23.998Z</time></trkpt><trkpt lat="43.53873452779799" lon="11.889748919317388"><ele>337.3333333333333</ele><time>2026-04-25T07:44:24.998Z</time></trkpt><trkpt lat="43.538852237368744" lon="11.889629380096375"><ele>339.0</ele><time>2026-04-25T07:44:25.998Z</time></trkpt><trkpt lat="43.53898503989171" lon="11.889492790020508"><ele>339.0</ele><time>2026-04-25T07:44:26.998Z</time></trkpt><trkpt lat="43.539098731139454" lon="11.88937723218074"><ele>339.0</ele><time>2026-04-25T07:44:27.998Z</time></trkpt><trkpt lat="43.539197037466536" lon="11.88928139137439"><ele>339.0</ele><time>2026-04-25T07:44:28.998Z</time></trkpt><trkpt lat="43.539295987873736" lon="11.88918597993519"><ele>339.0</ele><time>2026-04-25T07:44:29.998Z</time></trkpt><trkpt lat="43.53939745813562" lon="11.889155014637959"><ele>340.75</ele><time>2026-04-25T07:44:30.998Z</time></trkpt><trkpt lat="43.53949929137822" lon="11.88915836135341"><ele>342.5</ele><time>2026-04-25T07:44:31.998Z</time></trkpt><trkpt lat="43.53962922033193" lon="11.889160512562128"><ele>344.25</ele><time>2026-04-25T07:44:32.998Z</time></trkpt><trkpt lat="43.5397718491615" lon="11.889167130380484"><ele>346.0</ele><time>2026-04-25T07:44:33.998Z</time></trkpt><trkpt lat="43.53992213974219" lon="11.88917344968044"><ele>347.0</ele><time>2026-04-25T07:44:35Z</time></trkpt><trkpt lat="43.5400711929297" lon="11.889179045529398"><ele>348.0</ele><time>2026-04-25T07:44:36Z</time></trkpt><trkpt lat="43.540216025534924" lon="11.889184482925952"><ele>349.0</ele><time>2026-04-25T07:44:37Z</time></trkpt><trkpt lat="43.54035373812103" lon="11.889167423022887"><ele>350.0</ele><time>2026-04-25T07:44:38Z</time></trkpt><trkpt lat="43.54049079697049" lon="11.889194798564775"><ele>351.75</ele><time>2026-04-25T07:44:39Z</time></trkpt><trkpt lat="43.54061966270943" lon="11.889199684559536"><ele>353.5</ele><time>2026-04-25T07:44:40Z</time></trkpt><trkpt lat="43.54071371106088" lon="11.889201265353499"><ele>355.25</ele><time>2026-04-25T07:44:41Z</time></trkpt><trkpt lat="43.54085076046075" lon="11.88918798007452"><ele>357.0</ele><time>2026-04-25T07:44:43Z</time></trkpt><trkpt lat="43.540958421241015" lon="11.889152992745748"><ele>357.0</ele><time>2026-04-25T07:44:44Z</time></trkpt><trkpt lat="43.54107536805495" lon="11.889138993770406"><ele>357.0</ele><time>2026-04-25T07:44:45Z</time></trkpt><trkpt lat="43.541201422928616" lon="11.889151714312943"><ele>357.0</ele><time>2026-04-25T07:44:46Z</time></trkpt><trkpt lat="43.54132480938147" lon="11.889143162933932"><ele>357.0</ele><time>2026-04-25T07:44:47Z</time></trkpt><trkpt lat="43.54143676669346" lon="11.889145475771906"><ele>357.75</ele><time>2026-04-25T07:44:48Z</time></trkpt><trkpt lat="43.541545911708205" lon="11.889177205936207"><ele>358.5</ele><time>2026-04-25T07:44:49Z</time></trkpt><trkpt lat="43.54166915660205" lon="11.889221063771554"><ele>359.25</ele><time>2026-04-25T07:44:50Z</time></trkpt><trkpt lat="43.54179354439217" lon="11.889263019383153"><ele>360.0</ele><time>2026-04-25T07:44:51Z</time></trkpt><trkpt lat="43.541909970599605" lon="11.889274436035958"><ele>360.0</ele><time>2026-04-25T07:44:52Z</time></trkpt><trkpt lat="43.542021133300516" lon="11.88929537003235"><ele>360.0</ele><time>2026-04-25T07:44:53Z</time></trkpt><trkpt lat="43.54214900432344" lon="11.889284190269109"><ele>360.0</ele><time>2026-04-25T07:44:54Z</time></trkpt><trkpt lat="43.54228114853538" lon="11.889250049690705"><ele>360.0</ele><time>2026-04-25T07:44:55Z</time></trkpt><trkpt lat="43.54241629508425" lon="11.889241611132473"><ele>360.75</ele><time>2026-04-25T07:44:56Z</time></trkpt><trkpt lat="43.54255034232862" lon="11.889221393425979"><ele>361.5</ele><time>2026-04-25T07:44:57Z</time></trkpt><trkpt lat="43.542660424388345" lon="11.889190621727112"><ele>362.25</ele><time>2026-04-25T07:44:58Z</time></trkpt><trkpt lat="43.54277167424849" lon="11.889197265623062"><ele>363.0</ele><time>2026-04-25T07:44:59Z</time></trkpt><trkpt lat="43.542884163550276" lon="11.889222322393152"><ele>363.0</ele><time>2026-04-25T07:45:00Z</time></trkpt><trkpt lat="43.54299042148864" lon="11.889292347824393"><ele>363.0</ele><time>2026-04-25T07:45:01Z</time></trkpt><trkpt lat="43.54308191047701" lon="11.889301682992219"><ele>363.0</ele><time>2026-04-25T07:45:02Z</time></trkpt><trkpt lat="43.54317533873361" lon="11.889294084530404"><ele>363.0</ele><time>2026-04-25T07:45:03Z</time></trkpt><trkpt lat="43.543268529060036" lon="11.889236772790898"><ele>363.0</ele><time>2026-04-25T07:45:04Z</time></trkpt><trkpt lat="43.54336776983252" lon="11.889148528503119"><ele>363.0</ele><time>2026-04-25T07:45:05Z</time></trkpt><trkpt lat="43.54347822966919" lon="11.88907039471619"><ele>363.0</ele><time>2026-04-25T07:45:06Z</time></trkpt><trkpt lat="43.543592959641096" lon="11.888984558888616"><ele>363.0</ele><time>2026-04-25T07:45:07Z</time></trkpt><trkpt lat="43.543706410941276" lon="11.88889021809733"><ele>363.0</ele><time>2026-04-25T07:45:08Z</time></trkpt><trkpt lat="43.54380610404002" lon="11.888773154439606"><ele>363.75</ele><time>2026-04-25T07:45:09Z</time></trkpt><trkpt lat="43.543912615348674" lon="11.888643103005311"><ele>364.5</ele><time>2026-04-25T07:45:10Z</time></trkpt><trkpt lat="43.54402336910752" lon="11.888513017516104"><ele>365.25</ele><time>2026-04-25T07:45:11Z</time></trkpt><trkpt lat="43.54413626299564" lon="11.88838773280098"><ele>366.0</ele><time>2026-04-25T07:45:12Z</time></trkpt><trkpt lat="43.544252285614014" lon="11.888264009719387"><ele>366.0</ele><time>2026-04-25T07:45:13Z</time></trkpt><trkpt lat="43.54436787429425" lon="11.888151676472953"><ele>366.0</ele><time>2026-04-25T07:45:13.999Z</time></trkpt><trkpt lat="43.54448517428261" lon="11.888033352341877"><ele>366.0</ele><time>2026-04-25T07:45:14.999Z</time></trkpt><trkpt lat="43.544612172912615" lon="11.887947536491383"><ele>366.0</ele><time>2026-04-25T07:45:15.999Z</time></trkpt><trkpt lat="43.54474155506453" lon="11.887852146397645"><ele>366.5</ele><time>2026-04-25T07:45:16.999Z</time></trkpt><trkpt lat="43.54485524435569" lon="11.887757923569355"><ele>367.0</ele><time>2026-04-25T07:45:17.999Z</time></trkpt><trkpt lat="43.544971355613185" lon="11.887682365209816"><ele>367.5</ele><time>2026-04-25T07:45:18.999Z</time></trkpt><trkpt lat="43.54505856256488" lon="11.887622135588456"><ele>368.0</ele><time>2026-04-25T07:45:19.999Z</time></trkpt><trkpt lat="43.54514867367376" lon="11.887563867540372"><ele>369.0</ele><time>2026-04-25T07:45:20.999Z</time></trkpt><trkpt lat="43.545245076231474" lon="11.887512036085313"><ele>370.0</ele><time>2026-04-25T07:45:21.999Z</time></trkpt><trkpt lat="43.54535492583046" lon="11.887458566572176"><ele>371.0</ele><time>2026-04-25T07:45:22.999Z</time></trkpt><trkpt lat="43.545473147274485" lon="11.887406199465099"><ele>372.0</ele><time>2026-04-25T07:45:23.999Z</time></trkpt><trkpt lat="43.54559664434566" lon="11.887366019902737"><ele>373.25</ele><time>2026-04-25T07:45:24.999Z</time></trkpt><trkpt lat="43.54572105170226" lon="11.887315410270638"><ele>374.5</ele><time>2026-04-25T07:45:25.999Z</time></trkpt><trkpt lat="43.54584532067025" lon="11.887267893717242"><ele>375.75</ele><time>2026-04-25T07:45:26.999Z</time></trkpt><trkpt lat="43.54596907708126" lon="11.887188130768745"><ele>377.0</ele><time>2026-04-25T07:45:27.999Z</time></trkpt><trkpt lat="43.546084216495984" lon="11.887112606521317"><ele>377.0</ele><time>2026-04-25T07:45:28.999Z</time></trkpt><trkpt lat="43.54620368762915" lon="11.887034121891379"><ele>377.0</ele><time>2026-04-25T07:45:29.999Z</time></trkpt><trkpt lat="43.54631435270247" lon="11.886995793498745"><ele>377.0</ele><time>2026-04-25T07:45:30.999Z</time></trkpt><trkpt lat="43.5464282314981" lon="11.886957574692865"><ele>377.0</ele><time>2026-04-25T07:45:31.999Z</time></trkpt><trkpt lat="43.546555803634824" lon="11.886904783189788"><ele>377.0</ele><time>2026-04-25T07:45:32.999Z</time></trkpt><trkpt lat="43.54668524406737" lon="11.88683613406756"><ele>377.0</ele><time>2026-04-25T07:45:33.999Z</time></trkpt><trkpt lat="43.54681983570229" lon="11.886749690016671"><ele>377.0</ele><time>2026-04-25T07:45:34.999Z</time></trkpt><trkpt lat="43.54695238531553" lon="11.886681618674414"><ele>377.0</ele><time>2026-04-25T07:45:35.999Z</time></trkpt><trkpt lat="43.54707460235927" lon="11.886569374157078"><ele>377.0</ele><time>2026-04-25T07:45:36.999Z</time></trkpt><trkpt lat="43.547195176787895" lon="11.886468021774432"><ele>377.0</ele><time>2026-04-25T07:45:37.999Z</time></trkpt><trkpt lat="43.5473137044713" lon="11.886371950856212"><ele>377.0</ele><time>2026-04-25T07:45:38.999Z</time></trkpt><trkpt lat="43.54742362386152" lon="11.886295556343716"><ele>377.0</ele><time>2026-04-25T07:45:39.999Z</time></trkpt><trkpt lat="43.547533401690565" lon="11.886206276895633"><ele>377.0</ele><time>2026-04-25T07:45:40.999Z</time></trkpt><trkpt lat="43.54764217055626" lon="11.886114638535581"><ele>377.0</ele><time>2026-04-25T07:45:41.999Z</time></trkpt><trkpt lat="43.54773309057712" lon="11.886030103491468"><ele>377.0</ele><time>2026-04-25T07:45:42.999Z</time></trkpt><trkpt lat="43.54784897377099" lon="11.885915471251787"><ele>377.0</ele><time>2026-04-25T07:45:43.999Z</time></trkpt><trkpt lat="43.54797285499711" lon="11.885803355199744"><ele>381.33333333333337</ele><time>2026-04-25T07:45:44.999Z</time></trkpt><trkpt lat="43.548090833278444" lon="11.885663389104815"><ele>385.6666666666667</ele><time>2026-04-25T07:45:45.999Z</time></trkpt><trkpt lat="43.548195872283586" lon="11.885524442233402"><ele>390.0</ele><time>2026-04-25T07:45:46.999Z</time></trkpt><trkpt lat="43.548301516390424" lon="11.885371492640587"><ele>390.0</ele><time>2026-04-25T07:45:47.999Z</time></trkpt><trkpt lat="43.54839685090432" lon="11.885227111068708"><ele>390.0</ele><time>2026-04-25T07:45:48.999Z</time></trkpt><trkpt lat="43.54849505867986" lon="11.885071900608887"><ele>390.0</ele><time>2026-04-25T07:45:49.999Z</time></trkpt><trkpt lat="43.54859576386849" lon="11.884897119949967"><ele>391.0</ele><time>2026-04-25T07:45:50.999Z</time></trkpt><trkpt lat="43.548676474455746" lon="11.884722695622576"><ele>392.0</ele><time>2026-04-25T07:45:51.999Z</time></trkpt><trkpt lat="43.54877007043622" lon="11.884573482049204"><ele>393.0</ele><time>2026-04-25T07:45:52.999Z</time></trkpt><trkpt lat="43.54885261891269" lon="11.884422694268308"><ele>394.0</ele><time>2026-04-25T07:45:53.999Z</time></trkpt><trkpt lat="43.54894549065291" lon="11.884274631614703"><ele>396.0</ele><time>2026-04-25T07:45:54.999Z</time></trkpt><trkpt lat="43.54904461243169" lon="11.884129699762173"><ele>398.0</ele><time>2026-04-25T07:45:55.999Z</time></trkpt><trkpt lat="43.54913827407743" lon="11.883989345662949"><ele>400.0</ele><time>2026-04-25T07:45:56.999Z</time></trkpt><trkpt lat="43.54921828312012" lon="11.883854927371523"><ele>402.0</ele><time>2026-04-25T07:45:57.999Z</time></trkpt><trkpt lat="43.54927120765279" lon="11.883711328608833"><ele>402.0</ele><time>2026-04-25T07:45:58.999Z</time></trkpt><trkpt lat="43.549332278470544" lon="11.883533717289401"><ele>402.0</ele><time>2026-04-25T07:45:59.999Z</time></trkpt><trkpt lat="43.54939184632418" lon="11.88335424665412"><ele>402.0</ele><time>2026-04-25T07:46:00.999Z</time></trkpt><trkpt lat="43.549465299081405" lon="11.883204386923978"><ele>402.0</ele><time>2026-04-25T07:46:01.999Z</time></trkpt><trkpt lat="43.54953326337326" lon="11.883029651424335"><ele>402.25</ele><time>2026-04-25T07:46:02.999Z</time></trkpt><trkpt lat="43.549593880539156" lon="11.882871517573532"><ele>402.5</ele><time>2026-04-25T07:46:03.999Z</time></trkpt><trkpt lat="43.549666442883286" lon="11.882725070368261"><ele>402.75</ele><time>2026-04-25T07:46:04.999Z</time></trkpt><trkpt lat="43.54972231440156" lon="11.88258881436189"><ele>403.0</ele><time>2026-04-25T07:46:05.998Z</time></trkpt><trkpt lat="43.54978001647471" lon="11.882434065797531"><ele>405.0</ele><time>2026-04-25T07:46:06.998Z</time></trkpt><trkpt lat="43.54982890770347" lon="11.882301493538803"><ele>407.0</ele><time>2026-04-25T07:46:07.998Z</time></trkpt><trkpt lat="43.549927891404565" lon="11.882234743196669"><ele>409.0</ele><time>2026-04-25T07:46:08.998Z</time></trkpt><trkpt lat="43.550005304717814" lon="11.882130034252803"><ele>411.0</ele><time>2026-04-25T07:46:09.998Z</time></trkpt><trkpt lat="43.550086908416766" lon="11.882016990113687"><ele>413.0</ele><time>2026-04-25T07:46:10.998Z</time></trkpt><trkpt lat="43.55017526271656" lon="11.88190343873563"><ele>413.0</ele><time>2026-04-25T07:46:11.998Z</time></trkpt><trkpt lat="43.55024043140706" lon="11.881826029379239"><ele>413.0</ele><time>2026-04-25T07:46:12.998Z</time></trkpt><trkpt lat="43.550295200031044" lon="11.881766096732733"><ele>413.0</ele><time>2026-04-25T07:46:13.998Z</time></trkpt><trkpt lat="43.55038862476965" lon="11.88174550228276"><ele>413.0</ele><time>2026-04-25T07:46:15.998Z</time></trkpt><trkpt lat="43.55054752291943" lon="11.881756183036705"><ele>413.0</ele><time>2026-04-25T07:46:17.998Z</time></trkpt><trkpt lat="43.550615705120435" lon="11.881742851344974"><ele>416.0</ele><time>2026-04-25T07:46:18.998Z</time></trkpt><trkpt lat="43.55065917304463" lon="11.88155487928458"><ele>419.0</ele><time>2026-04-25T07:46:20.998Z</time></trkpt><trkpt lat="43.55068118120733" lon="11.881447058053968"><ele>421.99999999999994</ele><time>2026-04-25T07:46:21.998Z</time></trkpt><trkpt lat="43.55071353792413" lon="11.881318945935023"><ele>425.0</ele><time>2026-04-25T07:46:22.998Z</time></trkpt><trkpt lat="43.55076029550175" lon="11.881222269660777"><ele>428.0</ele><time>2026-04-25T07:46:23.998Z</time></trkpt><trkpt lat="43.550822365452575" lon="11.881124226771423"><ele>427.99999999999994</ele><time>2026-04-25T07:46:25.998Z</time></trkpt><trkpt lat="43.55088857471711" lon="11.881009306441351"><ele>428.0</ele><time>2026-04-25T07:46:27.998Z</time></trkpt><trkpt lat="43.550930932946414" lon="11.88093172590586"><ele>428.0</ele><time>2026-04-25T07:46:28.998Z</time></trkpt><trkpt lat="43.55090959808946" lon="11.880823691902842"><ele>428.0</ele><time>2026-04-25T07:46:29.998Z</time></trkpt><trkpt lat="43.55096676685307" lon="11.880774869659687"><ele>427.99999999999994</ele><time>2026-04-25T07:46:31.998Z</time></trkpt><trkpt lat="43.55107362673467" lon="11.880735681836944"><ele>428.0</ele><time>2026-04-25T07:46:33.998Z</time></trkpt><trkpt lat="43.55112114788246" lon="11.880670721280936"><ele>430.49999999999994</ele><time>2026-04-25T07:46:34.998Z</time></trkpt><trkpt lat="43.551158090014916" lon="11.880584210806056"><ele>433.0</ele><time>2026-04-25T07:46:35.998Z</time></trkpt><trkpt lat="43.551187489010886" lon="11.880489068479223"><ele>435.5</ele><time>2026-04-25T07:46:36.998Z</time></trkpt><trkpt lat="43.5512320961627" lon="11.880393888880583"><ele>438.0</ele><time>2026-04-25T07:46:37.998Z</time></trkpt><trkpt lat="43.55127822691301" lon="11.880314472887006"><ele>440.49999999999994</ele><time>2026-04-25T07:46:38.998Z</time></trkpt><trkpt lat="43.55132421122386" lon="11.880234246628126"><ele>443.0</ele><time>2026-04-25T07:46:39.998Z</time></trkpt><trkpt lat="43.55138194568577" lon="11.880132316417544"><ele>445.49999999999994</ele><time>2026-04-25T07:46:41Z</time></trkpt><trkpt lat="43.551424058041384" lon="11.880041649929794"><ele>448.0</ele><time>2026-04-25T07:46:42Z</time></trkpt><trkpt lat="43.5514605971867" lon="11.879931743864043"><ele>450.5</ele><time>2026-04-25T07:46:43Z</time></trkpt><trkpt lat="43.55145754823693" lon="11.879836936733762"><ele>453.0</ele><time>2026-04-25T07:46:44Z</time></trkpt><trkpt lat="43.551532622129294" lon="11.87972410968999"><ele>455.49999999999994</ele><time>2026-04-25T07:46:46Z</time></trkpt><trkpt lat="43.551578293993686" lon="11.879658072952802"><ele>458.0</ele><time>2026-04-25T07:46:47Z</time></trkpt><trkpt lat="43.551606645815376" lon="11.879574385664778"><ele>457.99999999999994</ele><time>2026-04-25T07:46:48Z</time></trkpt><trkpt lat="43.551647502666015" lon="11.87950279141476"><ele>458.0</ele><time>2026-04-25T07:46:49Z</time></trkpt><trkpt lat="43.551701616994" lon="11.879454146509532"><ele>458.0</ele><time>2026-04-25T07:46:50Z</time></trkpt><trkpt lat="43.55176947610589" lon="11.87940553036705"><ele>458.0</ele><time>2026-04-25T07:46:51Z</time></trkpt><trkpt lat="43.55184783654855" lon="11.879361145837352"><ele>457.99999999999994</ele><time>2026-04-25T07:46:52Z</time></trkpt><trkpt lat="43.55193120593428" lon="11.879294648743064"><ele>458.0</ele><time>2026-04-25T07:46:53Z</time></trkpt><trkpt lat="43.55199103725434" lon="11.87922812521804"><ele>457.2</ele><time>2026-04-25T07:46:54Z</time></trkpt><trkpt lat="43.5521149308327" lon="11.87915160789665"><ele>456.4</ele><time>2026-04-25T07:46:56Z</time></trkpt><trkpt lat="43.55221172300779" lon="11.879100831849808"><ele>455.59999999999997</ele><time>2026-04-25T07:46:57Z</time></trkpt><trkpt lat="43.55227058304684" lon="11.879060804467606"><ele>454.79999999999995</ele><time>2026-04-25T07:46:58Z</time></trkpt><trkpt lat="43.5523531495782" lon="11.879003654524913"><ele>454.0</ele><time>2026-04-25T07:46:59Z</time></trkpt><trkpt lat="43.552428701427715" lon="11.878931060846229"><ele>454.00000000000006</ele><time>2026-04-25T07:47:00Z</time></trkpt><trkpt lat="43.55249995378518" lon="11.878858363772684"><ele>454.0</ele><time>2026-04-25T07:47:01Z</time></trkpt><trkpt lat="43.55258463497989" lon="11.8787758862911"><ele>454.0</ele><time>2026-04-25T07:47:02Z</time></trkpt><trkpt lat="43.552650944310145" lon="11.878735523950759"><ele>454.0</ele><time>2026-04-25T07:47:03Z</time></trkpt><trkpt lat="43.55271576433673" lon="11.878705127271015"><ele>454.00000000000006</ele><time>2026-04-25T07:47:04Z</time></trkpt><trkpt lat="43.552802036733574" lon="11.878662158919955"><ele>454.0</ele><time>2026-04-25T07:47:05Z</time></trkpt><trkpt lat="43.552884791081055" lon="11.87864537716681"><ele>454.6666666666667</ele><time>2026-04-25T07:47:06Z</time></trkpt><trkpt lat="43.552950016598224" lon="11.878609128321886"><ele>455.33333333333337</ele><time>2026-04-25T07:47:07Z</time></trkpt><trkpt lat="43.553028157360544" lon="11.8785251809558"><ele>456.0</ele><time>2026-04-25T07:47:08Z</time></trkpt><trkpt lat="43.55309603910359" lon="11.878440516839191"><ele>456.66666666666663</ele><time>2026-04-25T07:47:09Z</time></trkpt><trkpt lat="43.553166451882234" lon="11.878351515955455"><ele>457.3333333333333</ele><time>2026-04-25T07:47:09.999Z</time></trkpt><trkpt lat="43.55323497511154" lon="11.87828041792206"><ele>458.0</ele><time>2026-04-25T07:47:10.999Z</time></trkpt><trkpt lat="43.553317257198024" lon="11.878216456660128"><ele>459.2</ele><time>2026-04-25T07:47:11.999Z</time></trkpt><trkpt lat="43.553376447720886" lon="11.87817140135487"><ele>460.4</ele><time>2026-04-25T07:47:12.999Z</time></trkpt><trkpt lat="43.55350814812028" lon="11.87809916604883"><ele>461.59999999999997</ele><time>2026-04-25T07:47:14.999Z</time></trkpt><trkpt lat="43.55359662880534" lon="11.878068392437775"><ele>462.79999999999995</ele><time>2026-04-25T07:47:15.999Z</time></trkpt><trkpt lat="43.55368873787352" lon="11.877988268469508"><ele>464.0</ele><time>2026-04-25T07:47:16.999Z</time></trkpt><trkpt lat="43.55376506207318" lon="11.877910499509822"><ele>464.8333333333333</ele><time>2026-04-25T07:47:17.999Z</time></trkpt><trkpt lat="43.55382827110282" lon="11.877861226749314"><ele>465.66666666666663</ele><time>2026-04-25T07:47:18.999Z</time></trkpt><trkpt lat="43.55391444606083" lon="11.877810161862563"><ele>466.5</ele><time>2026-04-25T07:47:19.999Z</time></trkpt><trkpt lat="43.55399124083695" lon="11.877768635090753"><ele>467.33333333333337</ele><time>2026-04-25T07:47:20.999Z</time></trkpt><trkpt lat="43.554089465319905" lon="11.877710658302034"><ele>468.1666666666667</ele><time>2026-04-25T07:47:22.999Z</time></trkpt><trkpt lat="43.55415939130328" lon="11.877680354966351"><ele>469.0</ele><time>2026-04-25T07:47:23.999Z</time></trkpt><trkpt lat="43.554219594528256" lon="11.877610571259178"><ele>470.0</ele><time>2026-04-25T07:47:24.999Z</time></trkpt><trkpt lat="43.5542825215496" lon="11.877526527137935"><ele>471.0</ele><time>2026-04-25T07:47:25.999Z</time></trkpt><trkpt lat="43.554360362669065" lon="11.877453172892576"><ele>472.0</ele><time>2026-04-25T07:47:26.999Z</time></trkpt><trkpt lat="43.554497627402206" lon="11.87738955742226"><ele>473.0</ele><time>2026-04-25T07:47:28.999Z</time></trkpt><trkpt lat="43.55458812996052" lon="11.877365510022843"><ele>474.0</ele><time>2026-04-25T07:47:29.999Z</time></trkpt><trkpt lat="43.554670997150744" lon="11.877329483160677"><ele>475.8333333333333</ele><time>2026-04-25T07:47:30.999Z</time></trkpt><trkpt lat="43.55475424439228" lon="11.877282047636099"><ele>477.66666666666663</ele><time>2026-04-25T07:47:31.999Z</time></trkpt><trkpt lat="43.554827069150406" lon="11.877230996497955"><ele>479.5</ele><time>2026-04-25T07:47:32.999Z</time></trkpt><trkpt lat="43.55491206965676" lon="11.877194956105232"><ele>481.3333333333333</ele><time>2026-04-25T07:47:33.999Z</time></trkpt><trkpt lat="43.55497606264241" lon="11.8771726996768"><ele>483.16666666666663</ele><time>2026-04-25T07:47:34.999Z</time></trkpt><trkpt lat="43.55505245499012" lon="11.877176993811768"><ele>485.0</ele><time>2026-04-25T07:47:36.999Z</time></trkpt><trkpt lat="43.55509768045589" lon="11.877058112569484"><ele>484.99999999999994</ele><time>2026-04-25T07:47:38.999Z</time></trkpt><trkpt lat="43.555127796358235" lon="11.876976563792219"><ele>485.0</ele><time>2026-04-25T07:47:39.999Z</time></trkpt><trkpt lat="43.555145239688706" lon="11.876889776106111"><ele>485.0</ele><time>2026-04-25T07:47:40.999Z</time></trkpt><trkpt lat="43.55521844830344" lon="11.876761847311068"><ele>485.0</ele><time>2026-04-25T07:47:42.999Z</time></trkpt><trkpt lat="43.55527412525594" lon="11.876721136450426"><ele>484.99999999999994</ele><time>2026-04-25T07:47:43.999Z</time></trkpt><trkpt lat="43.55538189557455" lon="11.876628346393629"><ele>485.0</ele><time>2026-04-25T07:47:45.999Z</time></trkpt><trkpt lat="43.55548345673913" lon="11.876506885721046"><ele>486.66666666666663</ele><time>2026-04-25T07:47:47.999Z</time></trkpt><trkpt lat="43.55553548638592" lon="11.87645502933762"><ele>488.3333333333333</ele><time>2026-04-25T07:47:52.999Z</time></trkpt><trkpt lat="43.55561820177216" lon="11.87640551736614"><ele>490.0</ele><time>2026-04-25T07:47:55.999Z</time></trkpt><trkpt lat="43.555702536393405" lon="11.876311458706162"><ele>491.66666666666663</ele><time>2026-04-25T07:47:57.999Z</time></trkpt><trkpt lat="43.555724339938095" lon="11.876223361222557"><ele>493.3333333333333</ele><time>2026-04-25T07:47:58.999Z</time></trkpt><trkpt lat="43.555726149646844" lon="11.876120574343538"><ele>495.0</ele><time>2026-04-25T07:47:59.999Z</time></trkpt><trkpt lat="43.5557148011606" lon="11.876003203915147"><ele>494.0</ele><time>2026-04-25T07:48:00.999Z</time></trkpt><trkpt lat="43.55573178871984" lon="11.875902284335803"><ele>493.0</ele><time>2026-04-25T07:48:01.999Z</time></trkpt><trkpt lat="43.555769721443085" lon="11.87582853580526"><ele>492.0</ele><time>2026-04-25T07:48:02.998Z</time></trkpt><trkpt lat="43.5558226465277" lon="11.875741953911582"><ele>491.0</ele><time>2026-04-25T07:48:03.998Z</time></trkpt><trkpt lat="43.55586953643488" lon="11.87563542482201"><ele>490.0</ele><time>2026-04-25T07:48:04.998Z</time></trkpt><trkpt lat="43.55588317923645" lon="11.875530948624377"><ele>489.0</ele><time>2026-04-25T07:48:05.998Z</time></trkpt><trkpt lat="43.555890747247965" lon="11.875401536742956"><ele>489.0</ele><time>2026-04-25T07:48:06.998Z</time></trkpt><trkpt lat="43.555879329223416" lon="11.87528940984853"><ele>489.0</ele><time>2026-04-25T07:48:07.998Z</time></trkpt><trkpt lat="43.55587218948748" lon="11.875173685060867"><ele>489.0</ele><time>2026-04-25T07:48:08.998Z</time></trkpt><trkpt lat="43.555897630246186" lon="11.875061589944366"><ele>489.0</ele><time>2026-04-25T07:48:09.998Z</time></trkpt><trkpt lat="43.555915575534705" lon="11.874973610646805"><ele>489.0</ele><time>2026-04-25T07:48:10.998Z</time></trkpt><trkpt lat="43.55602122710248" lon="11.874859208646635"><ele>489.4</ele><time>2026-04-25T07:48:12.998Z</time></trkpt><trkpt lat="43.55612648411151" lon="11.874831530929857"><ele>489.79999999999995</ele><time>2026-04-25T07:48:13.998Z</time></trkpt><trkpt lat="43.55621631276675" lon="11.874800610424066"><ele>490.20000000000005</ele><time>2026-04-25T07:48:14.998Z</time></trkpt><trkpt lat="43.55632670309845" lon="11.874803746690455"><ele>490.6</ele><time>2026-04-25T07:48:16.998Z</time></trkpt><trkpt lat="43.55633229783112" lon="11.8747060064863"><ele>491.0</ele><time>2026-04-25T07:48:20.998Z</time></trkpt><trkpt lat="43.55626097763122" lon="11.87455766428992"><ele>490.99999999999994</ele><time>2026-04-25T07:48:22.998Z</time></trkpt><trkpt lat="43.556218592395616" lon="11.874489017345015"><ele>491.0</ele><time>2026-04-25T07:48:23.998Z</time></trkpt><trkpt lat="43.5561662013241" lon="11.874413041624102"><ele>491.0</ele><time>2026-04-25T07:48:24.998Z</time></trkpt><trkpt lat="43.556124328396564" lon="11.874344253438265"><ele>491.0</ele><time>2026-04-25T07:48:25.998Z</time></trkpt><trkpt lat="43.556106777320686" lon="11.874185284969125"><ele>490.99999999999994</ele><time>2026-04-25T07:48:27.998Z</time></trkpt><trkpt lat="43.55614300825018" lon="11.874097282922992"><ele>491.0</ele><time>2026-04-25T07:48:28.998Z</time></trkpt><trkpt lat="43.55619718161512" lon="11.874005302088928"><ele>487.20000000000005</ele><time>2026-04-25T07:48:29.998Z</time></trkpt><trkpt lat="43.556262601354604" lon="11.873915885378766"><ele>483.40000000000003</ele><time>2026-04-25T07:48:30.998Z</time></trkpt><trkpt lat="43.556332480406084" lon="11.873822868683387"><ele>479.6</ele><time>2026-04-25T07:48:31.998Z</time></trkpt><trkpt lat="43.55639430025523" lon="11.873739324317466"><ele>475.8</ele><time>2026-04-25T07:48:32.998Z</time></trkpt><trkpt lat="43.556450554933015" lon="11.873663167582931"><ele>472.0</ele><time>2026-04-25T07:48:33.998Z</time></trkpt><trkpt lat="43.556525392120626" lon="11.873501945232844"><ele>470.6666666666667</ele><time>2026-04-25T07:48:35.998Z</time></trkpt><trkpt lat="43.5565591951408" lon="11.873420095577687"><ele>469.33333333333337</ele><time>2026-04-25T07:48:36.998Z</time></trkpt><trkpt lat="43.55655209903523" lon="11.873328090380765"><ele>468.0</ele><time>2026-04-25T07:48:37.998Z</time></trkpt><trkpt lat="43.55651683569865" lon="11.873238909318248"><ele>466.66666666666663</ele><time>2026-04-25T07:48:38.998Z</time></trkpt><trkpt lat="43.556446218339154" lon="11.87317107071601"><ele>465.3333333333333</ele><time>2026-04-25T07:48:39.998Z</time></trkpt><trkpt lat="43.556356373846725" lon="11.873125540559974"><ele>464.0</ele><time>2026-04-25T07:48:40.998Z</time></trkpt><trkpt lat="43.556285067823104" lon="11.87306167749561"><ele>464.0</ele><time>2026-04-25T07:48:41.998Z</time></trkpt><trkpt lat="43.55623307229237" lon="11.873000738870749"><ele>464.0</ele><time>2026-04-25T07:48:42.998Z</time></trkpt><trkpt lat="43.55621632972174" lon="11.872909822611756"><ele>464.0</ele><time>2026-04-25T07:48:43.998Z</time></trkpt><trkpt lat="43.55620240616667" lon="11.87277657501888"><ele>464.0</ele><time>2026-04-25T07:48:44.998Z</time></trkpt><trkpt lat="43.55616235033594" lon="11.872629017421747"><ele>464.0</ele><time>2026-04-25T07:48:46Z</time></trkpt><trkpt lat="43.55613040569359" lon="11.87248435690193"><ele>463.2</ele><time>2026-04-25T07:48:47Z</time></trkpt><trkpt lat="43.55610759168494" lon="11.87234419995646"><ele>462.4</ele><time>2026-04-25T07:48:48Z</time></trkpt><trkpt lat="43.556069658516954" lon="11.872225203904888"><ele>461.6</ele><time>2026-04-25T07:48:49Z</time></trkpt><trkpt lat="43.55601704831225" lon="11.872104811676849"><ele>460.8</ele><time>2026-04-25T07:48:50Z</time></trkpt><trkpt lat="43.55595891421713" lon="11.871996802361686"><ele>460.0</ele><time>2026-04-25T07:48:51Z</time></trkpt><trkpt lat="43.555896793486184" lon="11.8718995549972"><ele>460.0</ele><time>2026-04-25T07:48:52Z</time></trkpt><trkpt lat="43.555825476660765" lon="11.871790740911806"><ele>460.0</ele><time>2026-04-25T07:48:53Z</time></trkpt><trkpt lat="43.55576477243337" lon="11.871696399965465"><ele>460.0</ele><time>2026-04-25T07:48:54Z</time></trkpt><trkpt lat="43.55570247474717" lon="11.871598495621091"><ele>460.0</ele><time>2026-04-25T07:48:55Z</time></trkpt><trkpt lat="43.555643111944164" lon="11.871507004553076"><ele>460.0</ele><time>2026-04-25T07:48:56Z</time></trkpt><trkpt lat="43.55558489005216" lon="11.871417539251615"><ele>459.6</ele><time>2026-04-25T07:48:57Z</time></trkpt><trkpt lat="43.555531033181154" lon="11.871334781233253"><ele>459.2</ele><time>2026-04-25T07:48:58Z</time></trkpt><trkpt lat="43.55548367441962" lon="11.871223998267741"><ele>458.79999999999995</ele><time>2026-04-25T07:48:59Z</time></trkpt><trkpt lat="43.55543773478516" lon="11.871086717248282"><ele>458.4</ele><time>2026-04-25T07:49:00Z</time></trkpt><trkpt lat="43.55541633143573" lon="11.870971413898099"><ele>458.0</ele><time>2026-04-25T07:49:01Z</time></trkpt><trkpt lat="43.55541952596889" lon="11.870810417690556"><ele>458.0</ele><time>2026-04-25T07:49:03Z</time></trkpt><trkpt lat="43.55545191495546" lon="11.870731908043016"><ele>457.99999999999994</ele><time>2026-04-25T07:49:04Z</time></trkpt><trkpt lat="43.55550039342141" lon="11.870629655964981"><ele>457.99999999999994</ele><time>2026-04-25T07:49:05Z</time></trkpt><trkpt lat="43.5555407672387" lon="11.870488767895544"><ele>458.0</ele><time>2026-04-25T07:49:06Z</time></trkpt><trkpt lat="43.55558568545407" lon="11.870360493242051"><ele>458.0</ele><time>2026-04-25T07:49:07Z</time></trkpt><trkpt lat="43.55563813963679" lon="11.87024884428844"><ele>457.99999999999994</ele><time>2026-04-25T07:49:08Z</time></trkpt><trkpt lat="43.555678217328" lon="11.870130114830546"><ele>458.0</ele><time>2026-04-25T07:49:09Z</time></trkpt><trkpt lat="43.55569583924087" lon="11.870005652072534"><ele>458.0</ele><time>2026-04-25T07:49:10Z</time></trkpt><trkpt lat="43.5557142547106" lon="11.869891498010896"><ele>458.0</ele><time>2026-04-25T07:49:11Z</time></trkpt><trkpt lat="43.55569792799958" lon="11.869787898281873"><ele>457.99999999999994</ele><time>2026-04-25T07:49:12Z</time></trkpt><trkpt lat="43.55567164348737" lon="11.869684309567377"><ele>458.0</ele><time>2026-04-25T07:49:12.999Z</time></trkpt><trkpt lat="43.55566324686611" lon="11.869581084678892"><ele>456.85714285714283</ele><time>2026-04-25T07:49:13.999Z</time></trkpt><trkpt lat="43.55563475445581" lon="11.869483774530616"><ele>455.7142857142858</ele><time>2026-04-25T07:49:14.999Z</time></trkpt><trkpt lat="43.555621749482945" lon="11.869386266273677"><ele>454.5714285714286</ele><time>2026-04-25T07:49:15.999Z</time></trkpt><trkpt lat="43.5556085148652" lon="11.869286229970506"><ele>453.42857142857144</ele><time>2026-04-25T07:49:16.999Z</time></trkpt><trkpt lat="43.55560996316561" lon="11.869195831206504"><ele>452.28571428571433</ele><time>2026-04-25T07:49:17.999Z</time></trkpt><trkpt lat="43.55562435356043" lon="11.869088344907858"><ele>451.1428571428572</ele><time>2026-04-25T07:49:18.999Z</time></trkpt><trkpt lat="43.555679198243546" lon="11.869019433301085"><ele>450.00000000000006</ele><time>2026-04-25T07:49:19.999Z</time></trkpt><trkpt lat="43.55573621346734" lon="11.8689676510776"><ele>448.6666666666667</ele><time>2026-04-25T07:49:20.999Z</time></trkpt><trkpt lat="43.55579590441249" lon="11.868908357109476"><ele>447.33333333333337</ele><time>2026-04-25T07:49:21.999Z</time></trkpt><trkpt lat="43.55585243382319" lon="11.868836909367506"><ele>446.0</ele><time>2026-04-25T07:49:22.999Z</time></trkpt><trkpt lat="43.55592174627645" lon="11.86878329442159"><ele>444.6666666666667</ele><time>2026-04-25T07:49:23.999Z</time></trkpt><trkpt lat="43.55600699505001" lon="11.868762142125309"><ele>443.33333333333337</ele><time>2026-04-25T07:49:24.999Z</time></trkpt><trkpt lat="43.556081229497025" lon="11.868763964515757"><ele>442.0</ele><time>2026-04-25T07:49:25.999Z</time></trkpt><trkpt lat="43.55616503123453" lon="11.86875000405013"><ele>440.40000000000003</ele><time>2026-04-25T07:49:26.999Z</time></trkpt><trkpt lat="43.55624507493022" lon="11.868758281981432"><ele>438.80000000000007</ele><time>2026-04-25T07:49:27.999Z</time></trkpt><trkpt lat="43.55633419227743" lon="11.86876895641088"><ele>437.2</ele><time>2026-04-25T07:49:28.999Z</time></trkpt><trkpt lat="43.55642376762394" lon="11.868774388492517"><ele>435.6</ele><time>2026-04-25T07:49:29.999Z</time></trkpt><trkpt lat="43.55651408988475" lon="11.868775505933533"><ele>434.0</ele><time>2026-04-25T07:49:30.999Z</time></trkpt><trkpt lat="43.55661580749313" lon="11.868770475730285"><ele>433.99999999999994</ele><time>2026-04-25T07:49:31.999Z</time></trkpt><trkpt lat="43.55670808711664" lon="11.868761877616322"><ele>434.0</ele><time>2026-04-25T07:49:32.999Z</time></trkpt><trkpt lat="43.55680121139528" lon="11.868756428414573"><ele>434.0</ele><time>2026-04-25T07:49:33.999Z</time></trkpt><trkpt lat="43.55688804899163" lon="11.86874694041221"><ele>434.0</ele><time>2026-04-25T07:49:34.999Z</time></trkpt><trkpt lat="43.55697716269026" lon="11.868733140745862"><ele>433.99999999999994</ele><time>2026-04-25T07:49:35.999Z</time></trkpt><trkpt lat="43.557060077759864" lon="11.868736346768603"><ele>434.0</ele><time>2026-04-25T07:49:36.999Z</time></trkpt><trkpt lat="43.557144968849386" lon="11.868735479239072"><ele>432.16666666666663</ele><time>2026-04-25T07:49:37.999Z</time></trkpt><trkpt lat="43.55723543442207" lon="11.868736649692039"><ele>430.3333333333333</ele><time>2026-04-25T07:49:38.999Z</time></trkpt><trkpt lat="43.557319805526184" lon="11.868757555097284"><ele>428.5</ele><time>2026-04-25T07:49:39.999Z</time></trkpt><trkpt lat="43.557395776694904" lon="11.868767598547565"><ele>426.66666666666663</ele><time>2026-04-25T07:49:40.999Z</time></trkpt><trkpt lat="43.55747880374447" lon="11.868776703977783"><ele>424.8333333333333</ele><time>2026-04-25T07:49:41.999Z</time></trkpt><trkpt lat="43.55755744178469" lon="11.868795522461555"><ele>423.0</ele><time>2026-04-25T07:49:42.999Z</time></trkpt><trkpt lat="43.55762254540968" lon="11.868814760726497"><ele>423.0</ele><time>2026-04-25T07:49:43.999Z</time></trkpt><trkpt lat="43.557697261466934" lon="11.868816888996022"><ele>423.0</ele><time>2026-04-25T07:49:44.999Z</time></trkpt><trkpt lat="43.55776334392092" lon="11.868778155926833"><ele>423.0</ele><time>2026-04-25T07:49:45.999Z</time></trkpt><trkpt lat="43.55784028148912" lon="11.868727754355042"><ele>423.0</ele><time>2026-04-25T07:49:46.999Z</time></trkpt><trkpt lat="43.55793201962977" lon="11.868686431450907"><ele>423.0</ele><time>2026-04-25T07:49:47.999Z</time></trkpt><trkpt lat="43.55802753898707" lon="11.868672018425878"><ele>423.0</ele><time>2026-04-25T07:49:48.999Z</time></trkpt><trkpt lat="43.55812270735547" lon="11.868672481042308"><ele>420.3333333333333</ele><time>2026-04-25T07:49:49.999Z</time></trkpt><trkpt lat="43.55821725001645" lon="11.868693775519647"><ele>417.66666666666663</ele><time>2026-04-25T07:49:50.999Z</time></trkpt><trkpt lat="43.55831341297201" lon="11.868712507197044"><ele>415.0</ele><time>2026-04-25T07:49:51.999Z</time></trkpt><trkpt lat="43.55839363675873" lon="11.868743816296385"><ele>412.3333333333333</ele><time>2026-04-25T07:49:52.999Z</time></trkpt><trkpt lat="43.55847292266496" lon="11.868748032408137"><ele>409.66666666666663</ele><time>2026-04-25T07:49:53.999Z</time></trkpt><trkpt lat="43.558541139687875" lon="11.868693740325485"><ele>407.0</ele><time>2026-04-25T07:49:54.999Z</time></trkpt><trkpt lat="43.55859997227825" lon="11.868577128877849"><ele>407.0</ele><time>2026-04-25T07:49:55.999Z</time></trkpt><trkpt lat="43.55863782343175" lon="11.868445228195474"><ele>407.0</ele><time>2026-04-25T07:49:56.999Z</time></trkpt><trkpt lat="43.558669259893065" lon="11.868306538114853"><ele>407.0</ele><time>2026-04-25T07:49:57.999Z</time></trkpt><trkpt lat="43.55872265736819" lon="11.868172963522433"><ele>407.0</ele><time>2026-04-25T07:49:58.999Z</time></trkpt><trkpt lat="43.558779657418796" lon="11.868078826005043"><ele>407.0</ele><time>2026-04-25T07:49:59.999Z</time></trkpt><trkpt lat="43.55883379468958" lon="11.867996316664065"><ele>404.8333333333333</ele><time>2026-04-25T07:50:00.999Z</time></trkpt><trkpt lat="43.55889904859926" lon="11.867926905923023"><ele>402.66666666666663</ele><time>2026-04-25T07:50:01.999Z</time></trkpt><trkpt lat="43.55897075511746" lon="11.867889721486208"><ele>400.5</ele><time>2026-04-25T07:50:02.999Z</time></trkpt><trkpt lat="43.55903616092608" lon="11.867882026914224"><ele>398.33333333333337</ele><time>2026-04-25T07:50:03.999Z</time></trkpt><trkpt lat="43.55909838725877" lon="11.867858781789584"><ele>396.1666666666667</ele><time>2026-04-25T07:50:04.999Z</time></trkpt><trkpt lat="43.55921248286405" lon="11.867832482255908"><ele>394.0</ele><time>2026-04-25T07:50:06.999Z</time></trkpt><trkpt lat="43.559291223436794" lon="11.867838340988373"><ele>394.00000000000006</ele><time>2026-04-25T07:50:07.999Z</time></trkpt><trkpt lat="43.55936345020683" lon="11.867851533825268"><ele>394.0</ele><time>2026-04-25T07:50:08.999Z</time></trkpt><trkpt lat="43.55945196550163" lon="11.867854827415588"><ele>394.0</ele><time>2026-04-25T07:50:09.999Z</time></trkpt><trkpt lat="43.55951695757522" lon="11.867863127324332"><ele>394.0</ele><time>2026-04-25T07:50:10.998Z</time></trkpt><trkpt lat="43.559585253294564" lon="11.867885434009654"><ele>394.00000000000006</ele><time>2026-04-25T07:50:11.998Z</time></trkpt><trkpt lat="43.55968607651943" lon="11.867917758987575"><ele>394.0</ele><time>2026-04-25T07:50:13.998Z</time></trkpt><trkpt lat="43.559787644583366" lon="11.867935832813858"><ele>390.1666666666667</ele><time>2026-04-25T07:50:15.998Z</time></trkpt><trkpt lat="43.559857311379" lon="11.867944582393829"><ele>386.33333333333337</ele><time>2026-04-25T07:50:17.998Z</time></trkpt><trkpt lat="43.55995913633297" lon="11.867989519107176"><ele>382.5</ele><time>2026-04-25T07:50:19.998Z</time></trkpt><trkpt lat="43.56003103528566" lon="11.868020219717842"><ele>378.6666666666667</ele><time>2026-04-25T07:50:20.998Z</time></trkpt><trkpt lat="43.56010081084676" lon="11.868084152278213"><ele>374.83333333333337</ele><time>2026-04-25T07:50:21.998Z</time></trkpt><trkpt lat="43.56018693134028" lon="11.868125955748777"><ele>371.0</ele><time>2026-04-25T07:50:22.998Z</time></trkpt><trkpt lat="43.56028131752467" lon="11.868178901479943"><ele>368.1666666666667</ele><time>2026-04-25T07:50:23.998Z</time></trkpt><trkpt lat="43.56037316848496" lon="11.868242540532354"><ele>365.33333333333337</ele><time>2026-04-25T07:50:24.998Z</time></trkpt><trkpt lat="43.56044324254953" lon="11.86830306186015"><ele>362.5</ele><time>2026-04-25T07:50:25.998Z</time></trkpt><trkpt lat="43.56050667091044" lon="11.868357586581359"><ele>359.6666666666667</ele><time>2026-04-25T07:50:26.998Z</time></trkpt><trkpt lat="43.56056076585497" lon="11.868405300760811"><ele>356.8333333333333</ele><time>2026-04-25T07:50:27.998Z</time></trkpt><trkpt lat="43.56066506116717" lon="11.868476611751769"><ele>354.0</ele><time>2026-04-25T07:50:29.998Z</time></trkpt><trkpt lat="43.56070532843339" lon="11.868622100434166"><ele>353.6</ele><time>2026-04-25T07:50:31.998Z</time></trkpt><trkpt lat="43.560679379952965" lon="11.868720326534108"><ele>353.2</ele><time>2026-04-25T07:50:32.998Z</time></trkpt><trkpt lat="43.560635985373466" lon="11.868834168425533"><ele>352.8</ele><time>2026-04-25T07:50:33.998Z</time></trkpt><trkpt lat="43.56061244601061" lon="11.86898754045077"><ele>352.40000000000003</ele><time>2026-04-25T07:50:34.998Z</time></trkpt><trkpt lat="43.56059770347009" lon="11.869130391957631"><ele>352.0</ele><time>2026-04-25T07:50:35.998Z</time></trkpt><trkpt lat="43.56057705244104" lon="11.869215397621634"><ele>352.0</ele><time>2026-04-25T07:50:36.998Z</time></trkpt><trkpt lat="43.560568228652635" lon="11.869390525188317"><ele>352.0</ele><time>2026-04-25T07:50:38.998Z</time></trkpt><trkpt lat="43.56061533625317" lon="11.86947279573803"><ele>352.0</ele><time>2026-04-25T07:50:39.998Z</time></trkpt><trkpt lat="43.560706232042534" lon="11.869538281612819"><ele>352.0</ele><time>2026-04-25T07:50:40.998Z</time></trkpt><trkpt lat="43.56081547654023" lon="11.86960756527878"><ele>352.0</ele><time>2026-04-25T07:50:41.998Z</time></trkpt><trkpt lat="43.560901332703125" lon="11.869673658108882"><ele>352.0</ele><time>2026-04-25T07:50:42.998Z</time></trkpt><trkpt lat="43.560971299627234" lon="11.86972524120085"><ele>352.0</ele><time>2026-04-25T07:50:43.998Z</time></trkpt><trkpt lat="43.56104551196417" lon="11.869789054591157"><ele>352.0</ele><time>2026-04-25T07:50:44.998Z</time></trkpt><trkpt lat="43.561114036134015" lon="11.869849059120844"><ele>352.0</ele><time>2026-04-25T07:50:45.998Z</time></trkpt><trkpt lat="43.561193894571915" lon="11.869911796765072"><ele>352.0</ele><time>2026-04-25T07:50:46.998Z</time></trkpt><trkpt lat="43.561290309608346" lon="11.869989234987118"><ele>350.0</ele><time>2026-04-25T07:50:47.998Z</time></trkpt><trkpt lat="43.561380553681204" lon="11.870071618041132"><ele>348.0</ele><time>2026-04-25T07:50:48.998Z</time></trkpt><trkpt lat="43.56146760987712" lon="11.87015143885292"><ele>346.0</ele><time>2026-04-25T07:50:49.998Z</time></trkpt><trkpt lat="43.56156258890818" lon="11.870228598548495"><ele>344.0</ele><time>2026-04-25T07:50:50.998Z</time></trkpt><trkpt lat="43.56165178093461" lon="11.870313822002247"><ele>342.0</ele><time>2026-04-25T07:50:52Z</time></trkpt><trkpt lat="43.56174310209954" lon="11.87040242909303"><ele>342.0</ele><time>2026-04-25T07:50:53Z</time></trkpt><trkpt lat="43.56183185985886" lon="11.870478625629726"><ele>342.0</ele><time>2026-04-25T07:50:54Z</time></trkpt><trkpt lat="43.56191687463012" lon="11.87056128104044"><ele>342.0</ele><time>2026-04-25T07:50:55Z</time></trkpt><trkpt lat="43.56199612471708" lon="11.870638187789238"><ele>342.0</ele><time>2026-04-25T07:50:56Z</time></trkpt><trkpt lat="43.562071991296364" lon="11.870700546028052"><ele>342.0</ele><time>2026-04-25T07:50:57Z</time></trkpt><trkpt lat="43.56214330468122" lon="11.87075337329916"><ele>339.8333333333333</ele><time>2026-04-25T07:50:58Z</time></trkpt><trkpt lat="43.56221588026585" lon="11.870817958850575"><ele>337.6666666666667</ele><time>2026-04-25T07:50:59Z</time></trkpt><trkpt lat="43.56228108118481" lon="11.8708755613645"><ele>335.5</ele><time>2026-04-25T07:51:00Z</time></trkpt><trkpt lat="43.56234137252951" lon="11.8709217638017"><ele>333.33333333333337</ele><time>2026-04-25T07:51:01Z</time></trkpt><trkpt lat="43.56240470150749" lon="11.870943732239757"><ele>331.1666666666667</ele><time>2026-04-25T07:51:02Z</time></trkpt><trkpt lat="43.56252442077049" lon="11.870880658059352"><ele>329.0</ele><time>2026-04-25T07:51:04Z</time></trkpt><trkpt lat="43.562579996809205" lon="11.870822249210478"><ele>329.0</ele><time>2026-04-25T07:51:05Z</time></trkpt><trkpt lat="43.562690800306605" lon="11.870742242842894"><ele>329.0</ele><time>2026-04-25T07:51:07Z</time></trkpt><trkpt lat="43.56275983814762" lon="11.87074000106514"><ele>329.0</ele><time>2026-04-25T07:51:08Z</time></trkpt><trkpt lat="43.562839365706324" lon="11.870750004448338"><ele>329.0</ele><time>2026-04-25T07:51:09Z</time></trkpt><trkpt lat="43.56294521144827" lon="11.870773473286125"><ele>329.0</ele><time>2026-04-25T07:51:10Z</time></trkpt><trkpt lat="43.563050524747666" lon="11.870809119482004"><ele>326.4</ele><time>2026-04-25T07:51:11Z</time></trkpt><trkpt lat="43.5631433767473" lon="11.87083208493412"><ele>323.79999999999995</ele><time>2026-04-25T07:51:12Z</time></trkpt><trkpt lat="43.56323364781368" lon="11.870844303781"><ele>321.20000000000005</ele><time>2026-04-25T07:51:13Z</time></trkpt><trkpt lat="43.5633236928452" lon="11.870863854536944"><ele>318.6</ele><time>2026-04-25T07:51:14Z</time></trkpt><trkpt lat="43.56341242919208" lon="11.870857197804579"><ele>316.0</ele><time>2026-04-25T07:51:15Z</time></trkpt><trkpt lat="43.563495863686335" lon="11.870818034217034"><ele>316.0</ele><time>2026-04-25T07:51:16Z</time></trkpt><trkpt lat="43.563582916099705" lon="11.870796765694887"><ele>316.0</ele><time>2026-04-25T07:51:17Z</time></trkpt><trkpt lat="43.56366182668869" lon="11.870796749870436"><ele>316.0</ele><time>2026-04-25T07:51:18Z</time></trkpt><trkpt lat="43.563739916764746" lon="11.870775701466801"><ele>316.0</ele><time>2026-04-25T07:51:18.999Z</time></trkpt><trkpt lat="43.563825723324456" lon="11.870758865576072"><ele>316.0</ele><time>2026-04-25T07:51:19.999Z</time></trkpt><trkpt lat="43.56391454974171" lon="11.87075820951174"><ele>316.0</ele><time>2026-04-25T07:51:20.999Z</time></trkpt><trkpt lat="43.56399256159617" lon="11.870763197281391"><ele>313.16666666666663</ele><time>2026-04-25T07:51:21.999Z</time></trkpt><trkpt lat="43.56407085491324" lon="11.870739218496547"><ele>310.3333333333333</ele><time>2026-04-25T07:51:22.999Z</time></trkpt><trkpt lat="43.564148978744704" lon="11.870731007111669"><ele>307.5</ele><time>2026-04-25T07:51:23.999Z</time></trkpt><trkpt lat="43.56421708638754" lon="11.870711522543676"><ele>304.6666666666667</ele><time>2026-04-25T07:51:24.999Z</time></trkpt><trkpt lat="43.56427330159016" lon="11.870589863094272"><ele>301.83333333333337</ele><time>2026-04-25T07:51:25.999Z</time></trkpt><trkpt lat="43.56432551486475" lon="11.870507682591724"><ele>299.0</ele><time>2026-04-25T07:51:26.999Z</time></trkpt><trkpt lat="43.56438161046336" lon="11.870408870954742"><ele>299.0</ele><time>2026-04-25T07:51:27.999Z</time></trkpt><trkpt lat="43.564446644385235" lon="11.870281545376228"><ele>299.0</ele><time>2026-04-25T07:51:28.999Z</time></trkpt><trkpt lat="43.56451246931752" lon="11.870156512045668"><ele>299.0</ele><time>2026-04-25T07:51:29.999Z</time></trkpt><trkpt lat="43.5645668340106" lon="11.870049862897517"><ele>299.0</ele><time>2026-04-25T07:51:30.999Z</time></trkpt><trkpt lat="43.56461854266091" lon="11.869939709630055"><ele>299.0</ele><time>2026-04-25T07:51:31.999Z</time></trkpt><trkpt lat="43.56468692665695" lon="11.86982421935303"><ele>297.2</ele><time>2026-04-25T07:51:32.999Z</time></trkpt><trkpt lat="43.56474103322482" lon="11.869713149137178"><ele>295.4</ele><time>2026-04-25T07:51:33.999Z</time></trkpt><trkpt lat="43.56479763084692" lon="11.869600802245223"><ele>293.6</ele><time>2026-04-25T07:51:34.999Z</time></trkpt><trkpt lat="43.56484486430428" lon="11.869496716818784"><ele>291.8</ele><time>2026-04-25T07:51:35.999Z</time></trkpt><trkpt lat="43.56490691270015" lon="11.869405058612859"><ele>290.0</ele><time>2026-04-25T07:51:36.999Z</time></trkpt><trkpt lat="43.56494896244723" lon="11.869300868923515"><ele>289.83333333333337</ele><time>2026-04-25T07:51:37.999Z</time></trkpt><trkpt lat="43.56499935412384" lon="11.869224900816366"><ele>289.6666666666667</ele><time>2026-04-25T07:51:38.999Z</time></trkpt><trkpt lat="43.56505912641978" lon="11.869150988774773"><ele>289.5</ele><time>2026-04-25T07:51:39.999Z</time></trkpt><trkpt lat="43.565097778369264" lon="11.869069015833231"><ele>289.3333333333333</ele><time>2026-04-25T07:51:40.999Z</time></trkpt><trkpt lat="43.565211380289284" lon="11.868956896847262"><ele>289.16666666666663</ele><time>2026-04-25T07:51:42.999Z</time></trkpt><trkpt lat="43.5652646942526" lon="11.868875473475137"><ele>289.0</ele><time>2026-04-25T07:51:43.999Z</time></trkpt><trkpt lat="43.565335088203575" lon="11.868830204182643"><ele>287.59999999999997</ele><time>2026-04-25T07:51:44.999Z</time></trkpt><trkpt lat="43.565404416041815" lon="11.868787318606556"><ele>286.2</ele><time>2026-04-25T07:51:45.999Z</time></trkpt><trkpt lat="43.565513456443256" lon="11.868797036616362"><ele>284.79999999999995</ele><time>2026-04-25T07:51:47.999Z</time></trkpt><trkpt lat="43.565540361864606" lon="11.868882506229205"><ele>283.4</ele><time>2026-04-25T07:51:48.999Z</time></trkpt><trkpt lat="43.56560259874522" lon="11.869010394344674"><ele>282.0</ele><time>2026-04-25T07:51:50.999Z</time></trkpt><trkpt lat="43.56570241556642" lon="11.869079842661172"><ele>282.0</ele><time>2026-04-25T07:51:52.999Z</time></trkpt><trkpt lat="43.56582246460665" lon="11.8690947040825"><ele>282.0</ele><time>2026-04-25T07:51:54.999Z</time></trkpt><trkpt lat="43.56589494512064" lon="11.869065473362378"><ele>282.0</ele><time>2026-04-25T07:51:55.999Z</time></trkpt><trkpt lat="43.56596677917211" lon="11.869029897954217"><ele>282.0</ele><time>2026-04-25T07:51:56.999Z</time></trkpt><trkpt lat="43.56604123249184" lon="11.868982740034065"><ele>282.0</ele><time>2026-04-25T07:51:57.999Z</time></trkpt><trkpt lat="43.56612372567618" lon="11.868939540501954"><ele>282.0</ele><time>2026-04-25T07:51:58.999Z</time></trkpt><trkpt lat="43.56619712375403" lon="11.8688791272969"><ele>280.2</ele><time>2026-04-25T07:51:59.999Z</time></trkpt><trkpt lat="43.56627093963597" lon="11.86881182154677"><ele>278.4</ele><time>2026-04-25T07:52:00.999Z</time></trkpt><trkpt lat="43.566328213147585" lon="11.868709173979756"><ele>276.6</ele><time>2026-04-25T07:52:01.999Z</time></trkpt><trkpt lat="43.56638188705574" lon="11.868593006798967"><ele>274.8</ele><time>2026-04-25T07:52:02.999Z</time></trkpt><trkpt lat="43.56643513069098" lon="11.868475786380786"><ele>273.0</ele><time>2026-04-25T07:52:03.999Z</time></trkpt><trkpt lat="43.56649239842504" lon="11.868366910307225"><ele>271.6666666666667</ele><time>2026-04-25T07:52:04.999Z</time></trkpt><trkpt lat="43.56655114923872" lon="11.868282127713885"><ele>270.3333333333333</ele><time>2026-04-25T07:52:05.999Z</time></trkpt><trkpt lat="43.5666083118918" lon="11.868224334928117"><ele>269.0</ele><time>2026-04-25T07:52:06.999Z</time></trkpt><trkpt lat="43.566679004094716" lon="11.868166564809398"><ele>267.66666666666663</ele><time>2026-04-25T07:52:07.999Z</time></trkpt><trkpt lat="43.56674278743446" lon="11.868105115620141"><ele>266.3333333333333</ele><time>2026-04-25T07:52:08.999Z</time></trkpt><trkpt lat="43.566795981006685" lon="11.868057721653324"><ele>265.0</ele><time>2026-04-25T07:52:09.999Z</time></trkpt><trkpt lat="43.56687083817414" lon="11.868034219036623"><ele>265.0</ele><time>2026-04-25T07:52:11.999Z</time></trkpt><trkpt lat="43.56698415507506" lon="11.868146009380064"><ele>265.0</ele><time>2026-04-25T07:52:13.999Z</time></trkpt><trkpt lat="43.56708008563097" lon="11.868237999748578"><ele>265.0</ele><time>2026-04-25T07:52:14.999Z</time></trkpt><trkpt lat="43.56719429608045" lon="11.86833668292152"><ele>265.0</ele><time>2026-04-25T07:52:15.999Z</time></trkpt><trkpt lat="43.567329363350446" lon="11.86842511644996"><ele>266.0</ele><time>2026-04-25T07:52:16.999Z</time></trkpt><trkpt lat="43.56747083530913" lon="11.868505511169326"><ele>267.0</ele><time>2026-04-25T07:52:17.999Z</time></trkpt><trkpt lat="43.56761552310406" lon="11.86857650777768"><ele>268.0</ele><time>2026-04-25T07:52:18.999Z</time></trkpt><trkpt lat="43.5677695263588" lon="11.868646937211826"><ele>266.3333333333333</ele><time>2026-04-25T07:52:19.999Z</time></trkpt><trkpt lat="43.56792073148133" lon="11.868707770771822"><ele>264.6666666666667</ele><time>2026-04-25T07:52:20.998Z</time></trkpt><trkpt lat="43.568083244856204" lon="11.868768047061883"><ele>263.0</ele><time>2026-04-25T07:52:21.998Z</time></trkpt><trkpt lat="43.56824449321184" lon="11.86881993736079"><ele>263.0</ele><time>2026-04-25T07:52:22.998Z</time></trkpt><trkpt lat="43.56841249091716" lon="11.868884643154686"><ele>263.0</ele><time>2026-04-25T07:52:23.998Z</time></trkpt><trkpt lat="43.568579190182824" lon="11.868892775865028"><ele>263.0</ele><time>2026-04-25T07:52:24.998Z</time></trkpt><trkpt lat="43.56873664673971" lon="11.8689092363466"><ele>263.0</ele><time>2026-04-25T07:52:25.998Z</time></trkpt><trkpt lat="43.56890099447075" lon="11.86892819213365"><ele>263.0</ele><time>2026-04-25T07:52:26.998Z</time></trkpt><trkpt lat="43.569052454766464" lon="11.86894590820389"><ele>263.0</ele><time>2026-04-25T07:52:27.998Z</time></trkpt><trkpt lat="43.56920445288171" lon="11.868964857240822"><ele>263.0</ele><time>2026-04-25T07:52:28.998Z</time></trkpt><trkpt lat="43.56933110552565" lon="11.868976297998886"><ele>263.0</ele><time>2026-04-25T07:52:29.998Z</time></trkpt><trkpt lat="43.56946031306771" lon="11.868989317634558"><ele>263.0</ele><time>2026-04-25T07:52:30.998Z</time></trkpt><trkpt lat="43.56957540310006" lon="11.869004760251254"><ele>263.0</ele><time>2026-04-25T07:52:31.998Z</time></trkpt><trkpt lat="43.56968374165947" lon="11.869025406230675"><ele>263.33333333333337</ele><time>2026-04-25T07:52:32.998Z</time></trkpt><trkpt lat="43.5697719195447" lon="11.869063861503996"><ele>263.6666666666667</ele><time>2026-04-25T07:52:33.998Z</time></trkpt><trkpt lat="43.569847471132654" lon="11.869118213491602"><ele>264.0</ele><time>2026-04-25T07:52:34.998Z</time></trkpt><trkpt lat="43.569914170488836" lon="11.869197425567915"><ele>264.3333333333333</ele><time>2026-04-25T07:52:35.998Z</time></trkpt><trkpt lat="43.56998625194862" lon="11.869242843386422"><ele>264.66666666666663</ele><time>2026-04-25T07:52:36.998Z</time></trkpt><trkpt lat="43.57007968505982" lon="11.869247640939646"><ele>265.0</ele><time>2026-04-25T07:52:37.998Z</time></trkpt><trkpt lat="43.570177774783005" lon="11.869248173233377"><ele>265.0</ele><time>2026-04-25T07:52:38.998Z</time></trkpt><trkpt lat="43.57028584270286" lon="11.869271340166854"><ele>265.0</ele><time>2026-04-25T07:52:39.998Z</time></trkpt><trkpt lat="43.57039737045149" lon="11.86931315491404"><ele>265.0</ele><time>2026-04-25T07:52:40.998Z</time></trkpt><trkpt lat="43.570508682413966" lon="11.869371721474348"><ele>265.0</ele><time>2026-04-25T07:52:41.998Z</time></trkpt><trkpt lat="43.570620756670735" lon="11.869437330802613"><ele>265.5</ele><time>2026-04-25T07:52:42.998Z</time></trkpt><trkpt lat="43.570732215093315" lon="11.869513886314227"><ele>266.0</ele><time>2026-04-25T07:52:43.998Z</time></trkpt><trkpt lat="43.5708455607965" lon="11.869596280756591"><ele>266.5</ele><time>2026-04-25T07:52:44.998Z</time></trkpt><trkpt lat="43.57095621321154" lon="11.869693094137396"><ele>267.0</ele><time>2026-04-25T07:52:45.998Z</time></trkpt><trkpt lat="43.57106384943207" lon="11.869793478551243"><ele>267.0</ele><time>2026-04-25T07:52:46.998Z</time></trkpt><trkpt lat="43.57117431913494" lon="11.869901392397491"><ele>267.0</ele><time>2026-04-25T07:52:47.998Z</time></trkpt><trkpt lat="43.571282469172075" lon="11.870007199429137"><ele>267.0</ele><time>2026-04-25T07:52:48.998Z</time></trkpt><trkpt lat="43.5713900994494" lon="11.87010544239422"><ele>267.0</ele><time>2026-04-25T07:52:49.998Z</time></trkpt><trkpt lat="43.57150257416386" lon="11.870205246466158"><ele>267.25</ele><time>2026-04-25T07:52:50.998Z</time></trkpt><trkpt lat="43.57161702680556" lon="11.870304181612665"><ele>267.5</ele><time>2026-04-25T07:52:51.998Z</time></trkpt><trkpt lat="43.57173003247173" lon="11.870403816795323"><ele>267.75</ele><time>2026-04-25T07:52:52.998Z</time></trkpt><trkpt lat="43.571845634142306" lon="11.870505659280996"><ele>268.0</ele><time>2026-04-25T07:52:53.998Z</time></trkpt><trkpt lat="43.57194378206403" lon="11.87059487057443"><ele>268.16666666666663</ele><time>2026-04-25T07:52:54.998Z</time></trkpt><trkpt lat="43.5720239411876" lon="11.87067167070977"><ele>268.3333333333333</ele><time>2026-04-25T07:52:55.998Z</time></trkpt><trkpt lat="43.572094084680934" lon="11.87073421560158"><ele>268.5</ele><time>2026-04-25T07:52:56.998Z</time></trkpt><trkpt lat="43.57215245799092" lon="11.870791689663017"><ele>268.6666666666667</ele><time>2026-04-25T07:52:58Z</time></trkpt><trkpt lat="43.57220066245204" lon="11.870869105859061"><ele>268.83333333333337</ele><time>2026-04-25T07:52:59Z</time></trkpt><trkpt lat="43.572232401703126" lon="11.870964777170126"><ele>269.0</ele><time>2026-04-25T07:53:00Z</time></trkpt><trkpt lat="43.572246942871374" lon="11.871111845165878"><ele>269.2</ele><time>2026-04-25T07:53:02Z</time></trkpt><trkpt lat="43.57224883706106" lon="11.871232015842388"><ele>269.4</ele><time>2026-04-25T07:53:04Z</time></trkpt><trkpt lat="43.57230098024302" lon="11.871169687407729"><ele>269.6</ele><time>2026-04-25T07:53:05Z</time></trkpt><trkpt lat="43.57236539787924" lon="11.871160981811808"><ele>269.8</ele><time>2026-04-25T07:53:29Z</time></trkpt><trkpt lat="43.572509075274894" lon="11.871275028452791"><ele>270.0</ele><time>2026-04-25T07:57:18Z</time></trkpt><trkpt lat="43.57253812309035" lon="11.871191417008644"><ele>270.0</ele><time>2026-04-25T07:57:36Z</time></trkpt><trkpt lat="43.57252793367938" lon="11.871079454727207"><ele>270.0</ele><time>2026-04-25T07:58:25.999Z</time></trkpt><trkpt lat="43.57248121983432" lon="11.870989376778544"><ele>270.0</ele><time>2026-04-25T07:58:26.999Z</time></trkpt><trkpt lat="43.57237499289432" lon="11.870908046465436"><ele>270.0</ele><time>2026-04-25T07:58:27.999Z</time></trkpt><trkpt lat="43.57223642521241" lon="11.870797636987986"><ele>270.0</ele><time>2026-04-25T07:58:28.999Z</time></trkpt><trkpt lat="43.57211531542607" lon="11.870689389389886"><ele>269.5</ele><time>2026-04-25T07:58:29.999Z</time></trkpt><trkpt lat="43.57200484993604" lon="11.87059216838905"><ele>269.0</ele><time>2026-04-25T07:58:30.999Z</time></trkpt><trkpt lat="43.57189120176724" lon="11.870490392796045"><ele>268.5</ele><time>2026-04-25T07:58:31.999Z</time></trkpt><trkpt lat="43.571782572693" lon="11.870392431912917"><ele>268.0</ele><time>2026-04-25T07:58:32.999Z</time></trkpt><trkpt lat="43.5716714122739" lon="11.870290384162773"><ele>268.0</ele><time>2026-04-25T07:58:33.999Z</time></trkpt><trkpt lat="43.57155815599405" lon="11.870186658735314"><ele>268.0</ele><time>2026-04-25T07:58:34.999Z</time></trkpt><trkpt lat="43.571441809856275" lon="11.870082696058729"><ele>268.0</ele><time>2026-04-25T07:58:35.999Z</time></trkpt><trkpt lat="43.5713220442341" lon="11.869974213148877"><ele>268.0</ele><time>2026-04-25T07:58:36.999Z</time></trkpt><trkpt lat="43.57120351891671" lon="11.869868306269465"><ele>267.75</ele><time>2026-04-25T07:58:37.999Z</time></trkpt><trkpt lat="43.57108554372529" lon="11.86976397716357"><ele>267.5</ele><time>2026-04-25T07:58:38.999Z</time></trkpt><trkpt lat="43.57097058464235" lon="11.869664004036908"><ele>267.25</ele><time>2026-04-25T07:58:39.999Z</time></trkpt><trkpt lat="43.57085834865897" lon="11.869563839974735"><ele>267.0</ele><time>2026-04-25T07:58:40.999Z</time></trkpt><trkpt lat="43.57075849685476" lon="11.869477610776112"><ele>267.0</ele><time>2026-04-25T07:58:41.999Z</time></trkpt><trkpt lat="43.57065813462538" lon="11.869400549678412"><ele>267.0</ele><time>2026-04-25T07:58:42.999Z</time></trkpt><trkpt lat="43.57054271085706" lon="11.869334770405256"><ele>267.0</ele><time>2026-04-25T07:58:43.999Z</time></trkpt><trkpt lat="43.570430978138084" lon="11.869278973505665"><ele>267.0</ele><time>2026-04-25T07:58:44.999Z</time></trkpt><trkpt lat="43.57034344704402" lon="11.869238822451376"><ele>266.5</ele><time>2026-04-25T07:58:45.999Z</time></trkpt><trkpt lat="43.57027199589623" lon="11.869196037579938"><ele>266.0</ele><time>2026-04-25T07:58:46.999Z</time></trkpt><trkpt lat="43.570213053015124" lon="11.869126710406475"><ele>265.5</ele><time>2026-04-25T07:58:47.999Z</time></trkpt><trkpt lat="43.570111281874105" lon="11.868853690866645"><ele>265.0</ele><time>2026-04-25T07:58:49.999Z</time></trkpt><trkpt lat="43.57004364551606" lon="11.86868647220448"><ele>265.0</ele><time>2026-04-25T07:58:50.999Z</time></trkpt><trkpt lat="43.569960404435285" lon="11.868519406057754"><ele>265.0</ele><time>2026-04-25T07:58:51.999Z</time></trkpt><trkpt lat="43.56987334825279" lon="11.86835340244753"><ele>265.0</ele><time>2026-04-25T07:58:52.999Z</time></trkpt><trkpt lat="43.56978425993138" lon="11.868175706314867"><ele>264.3333333333333</ele><time>2026-04-25T07:58:53.999Z</time></trkpt><trkpt lat="43.56970495104977" lon="11.867990266557056"><ele>263.6666666666667</ele><time>2026-04-25T07:58:54.999Z</time></trkpt><trkpt lat="43.56962515581676" lon="11.867792094219375"><ele>263.0</ele><time>2026-04-25T07:58:55.998Z</time></trkpt><trkpt lat="43.56954768765969" lon="11.867604627332181"><ele>262.25</ele><time>2026-04-25T07:58:56.998Z</time></trkpt><trkpt lat="43.569464129206565" lon="11.867410853189494"><ele>261.5</ele><time>2026-04-25T07:58:57.998Z</time></trkpt><trkpt lat="43.56939229298302" lon="11.867232716645129"><ele>260.75</ele><time>2026-04-25T07:58:58.998Z</time></trkpt><trkpt lat="43.569325493966225" lon="11.867067657928146"><ele>260.0</ele><time>2026-04-25T07:58:59.998Z</time></trkpt><trkpt lat="43.56926660043582" lon="11.866919373094198"><ele>260.5</ele><time>2026-04-25T07:59:00.998Z</time></trkpt><trkpt lat="43.56922266574828" lon="11.866773733600924"><ele>261.0</ele><time>2026-04-25T07:59:01.998Z</time></trkpt><trkpt lat="43.56920421469928" lon="11.866603863687295"><ele>261.5</ele><time>2026-04-25T07:59:02.998Z</time></trkpt><trkpt lat="43.56921590252585" lon="11.866429304454078"><ele>262.0</ele><time>2026-04-25T07:59:03.998Z</time></trkpt><trkpt lat="43.56924335563625" lon="11.866278843547635"><ele>262.0</ele><time>2026-04-25T07:59:04.998Z</time></trkpt><trkpt lat="43.569306290108706" lon="11.866149380737536"><ele>262.0</ele><time>2026-04-25T07:59:05.998Z</time></trkpt><trkpt lat="43.5693763344279" lon="11.866037884492876"><ele>262.0</ele><time>2026-04-25T07:59:06.998Z</time></trkpt><trkpt lat="43.569445653069415" lon="11.865955909096336"><ele>262.0</ele><time>2026-04-25T07:59:07.998Z</time></trkpt><trkpt lat="43.56951669643883" lon="11.865872679031222"><ele>262.0</ele><time>2026-04-25T07:59:08.998Z</time></trkpt><trkpt lat="43.56958262727675" lon="11.865805182211474"><ele>262.2</ele><time>2026-04-25T07:59:09.998Z</time></trkpt><trkpt lat="43.569640683116596" lon="11.865755583969976"><ele>262.4</ele><time>2026-04-25T07:59:10.998Z</time></trkpt><trkpt lat="43.569705430698356" lon="11.86572252057954"><ele>262.6</ele><time>2026-04-25T07:59:11.998Z</time></trkpt><trkpt lat="43.56979386137184" lon="11.865679445650281"><ele>262.8</ele><time>2026-04-25T07:59:12.998Z</time></trkpt><trkpt lat="43.56992672964676" lon="11.865748395209835"><ele>263.0</ele><time>2026-04-25T07:59:13.998Z</time></trkpt><trkpt lat="43.57004117118019" lon="11.86577656159477"><ele>263.0</ele><time>2026-04-25T07:59:14.998Z</time></trkpt><trkpt lat="43.57015757961055" lon="11.865807724838914"><ele>263.0</ele><time>2026-04-25T07:59:16Z</time></trkpt><trkpt lat="43.570275935567246" lon="11.865834205481573"><ele>263.0</ele><time>2026-04-25T07:59:17Z</time></trkpt><trkpt lat="43.57039280037805" lon="11.865856276680901"><ele>263.0</ele><time>2026-04-25T07:59:18Z</time></trkpt><trkpt lat="43.57050214757285" lon="11.865880910528018"><ele>263.0</ele><time>2026-04-25T07:59:19Z</time></trkpt><trkpt lat="43.57060498044418" lon="11.865905164879237"><ele>263.0</ele><time>2026-04-25T07:59:20Z</time></trkpt><trkpt lat="43.570713045457154" lon="11.865927798065131"><ele>263.0</ele><time>2026-04-25T07:59:21Z</time></trkpt><trkpt lat="43.57081530514998" lon="11.865951342616507"><ele>263.0</ele><time>2026-04-25T07:59:22Z</time></trkpt><trkpt lat="43.5709230438903" lon="11.865978034506869"><ele>263.0</ele><time>2026-04-25T07:59:23Z</time></trkpt><trkpt lat="43.57105257390526" lon="11.866011655254525"><ele>263.0</ele><time>2026-04-25T07:59:24Z</time></trkpt><trkpt lat="43.57116743086517" lon="11.866037121821533"><ele>263.0</ele><time>2026-04-25T07:59:25Z</time></trkpt><trkpt lat="43.571276960174764" lon="11.86605973449664"><ele>263.0</ele><time>2026-04-25T07:59:26Z</time></trkpt><trkpt lat="43.571379323107415" lon="11.866079605145881"><ele>263.0</ele><time>2026-04-25T07:59:27Z</time></trkpt><trkpt lat="43.57149090859531" lon="11.866100645541009"><ele>263.0</ele><time>2026-04-25T07:59:28Z</time></trkpt><trkpt lat="43.57160791270468" lon="11.866120242526437"><ele>263.0</ele><time>2026-04-25T07:59:29Z</time></trkpt><trkpt lat="43.57172938660479" lon="11.866143299847161"><ele>263.0</ele><time>2026-04-25T07:59:30Z</time></trkpt><trkpt lat="43.57185425963656" lon="11.86616608663514"><ele>263.0</ele><time>2026-04-25T07:59:31Z</time></trkpt><trkpt lat="43.571978949952104" lon="11.866194126769917"><ele>263.0</ele><time>2026-04-25T07:59:32Z</time></trkpt><trkpt lat="43.57210166725851" lon="11.866227222846712"><ele>263.25</ele><time>2026-04-25T07:59:33Z</time></trkpt><trkpt lat="43.57222041857866" lon="11.866260796485788"><ele>263.5</ele><time>2026-04-25T07:59:34Z</time></trkpt><trkpt lat="43.57233755436618" lon="11.866289187610706"><ele>263.75</ele><time>2026-04-25T07:59:35Z</time></trkpt><trkpt lat="43.57245557818728" lon="11.866318934802958"><ele>264.0</ele><time>2026-04-25T07:59:36Z</time></trkpt><trkpt lat="43.57257414675803" lon="11.866347850839606"><ele>264.0</ele><time>2026-04-25T07:59:37Z</time></trkpt><trkpt lat="43.57269672968501" lon="11.866376952844066"><ele>264.0</ele><time>2026-04-25T07:59:38Z</time></trkpt><trkpt lat="43.57281690747732" lon="11.86640650050616"><ele>264.0</ele><time>2026-04-25T07:59:39Z</time></trkpt><trkpt lat="43.57293828480984" lon="11.86643228684558"><ele>264.0</ele><time>2026-04-25T07:59:40Z</time></trkpt><trkpt lat="43.57304652914541" lon="11.866455449922068"><ele>264.5</ele><time>2026-04-25T07:59:41Z</time></trkpt><trkpt lat="43.57313846336033" lon="11.86648299645338"><ele>265.0</ele><time>2026-04-25T07:59:42Z</time></trkpt><trkpt lat="43.57321850079315" lon="11.86649480900594"><ele>265.5</ele><time>2026-04-25T07:59:43Z</time></trkpt><trkpt lat="43.57328639043912" lon="11.866507920994506"><ele>266.0</ele><time>2026-04-25T07:59:44Z</time></trkpt><trkpt lat="43.57337789060649" lon="11.866525448118395"><ele>266.5</ele><time>2026-04-25T07:59:46Z</time></trkpt><trkpt lat="43.57344342822389" lon="11.866542401702944"><ele>267.0</ele><time>2026-04-25T07:59:52Z</time></trkpt><trkpt lat="43.57356363656223" lon="11.866587272292803"><ele>267.0</ele><time>2026-04-25T07:59:54Z</time></trkpt><trkpt lat="43.57364961431722" lon="11.866585299019075"><ele>267.0</ele><time>2026-04-25T07:59:55Z</time></trkpt><trkpt lat="43.57373746105109" lon="11.866615461180967"><ele>267.0</ele><time>2026-04-25T07:59:56Z</time></trkpt><trkpt lat="43.57383675359383" lon="11.86664051202016"><ele>267.0</ele><time>2026-04-25T07:59:57Z</time></trkpt><trkpt lat="43.573943152876154" lon="11.866658151459147"><ele>267.0</ele><time>2026-04-25T07:59:58Z</time></trkpt><trkpt lat="43.57405731425265" lon="11.86667674204019"><ele>267.0</ele><time>2026-04-25T07:59:59Z</time></trkpt><trkpt lat="43.57417691821459" lon="11.866698294379674"><ele>267.0</ele><time>2026-04-25T08:00:00Z</time></trkpt><trkpt lat="43.5743054849094" lon="11.866723975074366"><ele>267.0</ele><time>2026-04-25T08:00:01Z</time></trkpt><trkpt lat="43.574431136472185" lon="11.866759604624342"><ele>267.0</ele><time>2026-04-25T08:00:01.999Z</time></trkpt><trkpt lat="43.574565688277275" lon="11.866799998229896"><ele>266.25</ele><time>2026-04-25T08:00:02.999Z</time></trkpt><trkpt lat="43.574692504476396" lon="11.866832362042189"><ele>265.5</ele><time>2026-04-25T08:00:03.999Z</time></trkpt><trkpt lat="43.57480084214844" lon="11.866860343909936"><ele>264.75</ele><time>2026-04-25T08:00:04.999Z</time></trkpt><trkpt lat="43.574918895781586" lon="11.866885840912797"><ele>264.0</ele><time>2026-04-25T08:00:05.999Z</time></trkpt><trkpt lat="43.575040320539394" lon="11.86690921150079"><ele>264.0</ele><time>2026-04-25T08:00:06.999Z</time></trkpt><trkpt lat="43.575139950621" lon="11.866944335320511"><ele>264.0</ele><time>2026-04-25T08:00:07.999Z</time></trkpt><trkpt lat="43.57521871712421" lon="11.866973472864181"><ele>264.0</ele><time>2026-04-25T08:00:08.999Z</time></trkpt><trkpt lat="43.575340975898214" lon="11.86699014864614"><ele>264.0</ele><time>2026-04-25T08:00:10.999Z</time></trkpt><trkpt lat="43.575398460789835" lon="11.866742130235677"><ele>264.25</ele><time>2026-04-25T08:00:12.999Z</time></trkpt><trkpt lat="43.57543479954043" lon="11.866595685173438"><ele>264.5</ele><time>2026-04-25T08:00:13.999Z</time></trkpt><trkpt lat="43.57546022959489" lon="11.866429708085894"><ele>264.75</ele><time>2026-04-25T08:00:14.999Z</time></trkpt><trkpt lat="43.57548246672788" lon="11.866275456263573"><ele>265.0</ele><time>2026-04-25T08:00:15.999Z</time></trkpt><trkpt lat="43.57550703810685" lon="11.866097816960702"><ele>265.0</ele><time>2026-04-25T08:00:16.999Z</time></trkpt><trkpt lat="43.57552494788458" lon="11.865957545230334"><ele>265.0</ele><time>2026-04-25T08:00:17.999Z</time></trkpt><trkpt lat="43.57552269243869" lon="11.865836527963278"><ele>265.0</ele><time>2026-04-25T08:00:18.999Z</time></trkpt><trkpt lat="43.575537140468654" lon="11.865745537308618"><ele>265.0</ele><time>2026-04-25T08:00:19.999Z</time></trkpt><trkpt lat="43.575576897432796" lon="11.865628478124652"><ele>265.0</ele><time>2026-04-25T08:00:21.999Z</time></trkpt><trkpt lat="43.57570788583388" lon="11.865594060342888"><ele>265.0</ele><time>2026-04-25T08:00:23.999Z</time></trkpt><trkpt lat="43.575825634424184" lon="11.865619120703634"><ele>265.0</ele><time>2026-04-25T08:00:24.999Z</time></trkpt><trkpt lat="43.57596192337394" lon="11.865663380509945"><ele>265.0</ele><time>2026-04-25T08:00:25.999Z</time></trkpt><trkpt lat="43.57611931908113" lon="11.865701483026072"><ele>265.0</ele><time>2026-04-25T08:00:26.999Z</time></trkpt><trkpt lat="43.57630877582955" lon="11.86574080620518"><ele>265.3333333333333</ele><time>2026-04-25T08:00:27.999Z</time></trkpt><trkpt lat="43.57648166035961" lon="11.865775244739295"><ele>265.6666666666667</ele><time>2026-04-25T08:00:28.999Z</time></trkpt><trkpt lat="43.576644573650455" lon="11.865810445307366"><ele>266.0</ele><time>2026-04-25T08:00:29.999Z</time></trkpt><trkpt lat="43.576792105282294" lon="11.865840369848375"><ele>266.0</ele><time>2026-04-25T08:00:30.999Z</time></trkpt><trkpt lat="43.57692658551099" lon="11.86586423688882"><ele>266.0</ele><time>2026-04-25T08:00:31.999Z</time></trkpt><trkpt lat="43.57707233289854" lon="11.865892343782095"><ele>266.0</ele><time>2026-04-25T08:00:32.999Z</time></trkpt><trkpt lat="43.57720438371756" lon="11.865917501689816"><ele>266.0</ele><time>2026-04-25T08:00:33.999Z</time></trkpt><trkpt lat="43.57733943038893" lon="11.865939115186748"><ele>266.0</ele><time>2026-04-25T08:00:34.999Z</time></trkpt><trkpt lat="43.57748160586495" lon="11.865957752715282"><ele>266.0</ele><time>2026-04-25T08:00:35.999Z</time></trkpt><trkpt lat="43.577631468104926" lon="11.865980354354416"><ele>266.0</ele><time>2026-04-25T08:00:36.999Z</time></trkpt><trkpt lat="43.577776952651064" lon="11.86600613486542"><ele>266.0</ele><time>2026-04-25T08:00:37.999Z</time></trkpt><trkpt lat="43.57792627719073" lon="11.866032100813149"><ele>266.0</ele><time>2026-04-25T08:00:38.999Z</time></trkpt><trkpt lat="43.578075583896805" lon="11.866056797696068"><ele>266.0</ele><time>2026-04-25T08:00:39.999Z</time></trkpt><trkpt lat="43.578212763317985" lon="11.866082828450198"><ele>266.0</ele><time>2026-04-25T08:00:40.999Z</time></trkpt><trkpt lat="43.578356043336505" lon="11.866102420431659"><ele>266.0</ele><time>2026-04-25T08:00:41.999Z</time></trkpt><trkpt lat="43.57849592977324" lon="11.866132519440663"><ele>266.0</ele><time>2026-04-25T08:00:42.999Z</time></trkpt><trkpt lat="43.57864761650511" lon="11.86616115268264"><ele>266.0</ele><time>2026-04-25T08:00:43.999Z</time></trkpt><trkpt lat="43.578801630589375" lon="11.866188660912004"><ele>266.0</ele><time>2026-04-25T08:00:44.999Z</time></trkpt><trkpt lat="43.57894668674804" lon="11.86621680629433"><ele>266.25</ele><time>2026-04-25T08:00:45.999Z</time></trkpt><trkpt lat="43.579103406746135" lon="11.866242679238031"><ele>266.5</ele><time>2026-04-25T08:00:46.999Z</time></trkpt><trkpt lat="43.5792348168439" lon="11.866259982884534"><ele>266.75</ele><time>2026-04-25T08:00:47.999Z</time></trkpt><trkpt lat="43.579366123844444" lon="11.866274626481607"><ele>267.0</ele><time>2026-04-25T08:00:48.999Z</time></trkpt><trkpt lat="43.57948433729835" lon="11.866292303731257"><ele>267.4</ele><time>2026-04-25T08:00:49.999Z</time></trkpt><trkpt lat="43.57958805274077" lon="11.866308960056381"><ele>267.79999999999995</ele><time>2026-04-25T08:00:50.999Z</time></trkpt><trkpt lat="43.57967647558841" lon="11.866329016420147"><ele>268.2</ele><time>2026-04-25T08:00:51.999Z</time></trkpt><trkpt lat="43.57976141112083" lon="11.866345816317105"><ele>268.59999999999997</ele><time>2026-04-25T08:00:52.999Z</time></trkpt><trkpt lat="43.579863282737875" lon="11.866349628496113"><ele>269.0</ele><time>2026-04-25T08:00:53.999Z</time></trkpt><trkpt lat="43.57997633350617" lon="11.866322807666903"><ele>269.0</ele><time>2026-04-25T08:00:54.999Z</time></trkpt><trkpt lat="43.5800996769815" lon="11.866284992579187"><ele>269.0</ele><time>2026-04-25T08:00:55.999Z</time></trkpt><trkpt lat="43.5802333063956" lon="11.86625682215035"><ele>269.0</ele><time>2026-04-25T08:00:56.999Z</time></trkpt><trkpt lat="43.58036758575422" lon="11.866242404006845"><ele>269.0</ele><time>2026-04-25T08:00:57.999Z</time></trkpt><trkpt lat="43.580499417208465" lon="11.866232437863454"><ele>268.25</ele><time>2026-04-25T08:00:58.999Z</time></trkpt><trkpt lat="43.580634822136155" lon="11.866202264538627"><ele>267.5</ele><time>2026-04-25T08:00:59.998Z</time></trkpt><trkpt lat="43.580766902578716" lon="11.866151946642713"><ele>266.75</ele><time>2026-04-25T08:01:00.998Z</time></trkpt><trkpt lat="43.58090659589447" lon="11.86610592049849"><ele>266.0</ele><time>2026-04-25T08:01:01.998Z</time></trkpt><trkpt lat="43.581047494246775" lon="11.866054889468096"><ele>266.0</ele><time>2026-04-25T08:01:02.998Z</time></trkpt><trkpt lat="43.58117524733793" lon="11.866029799009207"><ele>266.0</ele><time>2026-04-25T08:01:03.998Z</time></trkpt><trkpt lat="43.581284688274664" lon="11.866048409159337"><ele>266.0</ele><time>2026-04-25T08:01:04.998Z</time></trkpt><trkpt lat="43.58137623357614" lon="11.866101671354166"><ele>266.0</ele><time>2026-04-25T08:01:05.998Z</time></trkpt><trkpt lat="43.58146895056302" lon="11.866183948220579"><ele>266.0</ele><time>2026-04-25T08:01:06.998Z</time></trkpt><trkpt lat="43.58156155428432" lon="11.866287240188521"><ele>266.5</ele><time>2026-04-25T08:01:07.998Z</time></trkpt><trkpt lat="43.58167312478451" lon="11.866387098288442"><ele>267.0</ele><time>2026-04-25T08:01:08.998Z</time></trkpt><trkpt lat="43.58177894816603" lon="11.866504528742096"><ele>267.5</ele><time>2026-04-25T08:01:09.998Z</time></trkpt><trkpt lat="43.58186934539639" lon="11.866603297908556"><ele>268.0</ele><time>2026-04-25T08:01:10.998Z</time></trkpt><trkpt lat="43.58193429291565" lon="11.86668464853325"><ele>268.0</ele><time>2026-04-25T08:01:11.998Z</time></trkpt><trkpt lat="43.581976502600305" lon="11.866757210478497"><ele>268.0</ele><time>2026-04-25T08:01:12.998Z</time></trkpt><trkpt lat="43.582038947218386" lon="11.86679776407744"><ele>268.0</ele><time>2026-04-25T08:01:14.998Z</time></trkpt><trkpt lat="43.582106853495674" lon="11.86673506697625"><ele>268.0</ele><time>2026-04-25T08:05:18.998Z</time></trkpt><trkpt lat="43.58217214464357" lon="11.866657347598352"><ele>268.0</ele><time>2026-04-25T08:05:19.998Z</time></trkpt><trkpt lat="43.582219791992024" lon="11.866568818465971"><ele>268.0</ele><time>2026-04-25T08:05:20.998Z</time></trkpt><trkpt lat="43.582262951314995" lon="11.866458886857826"><ele>269.8333333333333</ele><time>2026-04-25T08:05:21.998Z</time></trkpt><trkpt lat="43.582323016548315" lon="11.866369739760861"><ele>271.66666666666663</ele><time>2026-04-25T08:05:22.998Z</time></trkpt><trkpt lat="43.5823826009132" lon="11.866279225387164"><ele>273.5</ele><time>2026-04-25T08:05:23.998Z</time></trkpt><trkpt lat="43.58243418824265" lon="11.866193029401352"><ele>275.3333333333333</ele><time>2026-04-25T08:05:24.998Z</time></trkpt><trkpt lat="43.58249052755807" lon="11.866124666790746"><ele>277.1666666666667</ele><time>2026-04-25T08:05:25.998Z</time></trkpt><trkpt lat="43.58255371163863" lon="11.866075192729918"><ele>279.0</ele><time>2026-04-25T08:05:26.998Z</time></trkpt><trkpt lat="43.58261540172248" lon="11.866102824542905"><ele>279.0</ele><time>2026-04-25T08:05:28.998Z</time></trkpt><trkpt lat="43.58271317545121" lon="11.866152665568748"><ele>279.0</ele><time>2026-04-25T08:05:30.998Z</time></trkpt><trkpt lat="43.582794050560594" lon="11.866183501471937"><ele>279.0</ele><time>2026-04-25T08:05:31.998Z</time></trkpt><trkpt lat="43.58288431034311" lon="11.866239089931582"><ele>279.0</ele><time>2026-04-25T08:05:32.998Z</time></trkpt><trkpt lat="43.58297654238208" lon="11.866289935356068"><ele>279.0</ele><time>2026-04-25T08:05:34Z</time></trkpt><trkpt lat="43.58307418649164" lon="11.866336816079048"><ele>282.0</ele><time>2026-04-25T08:05:35Z</time></trkpt><trkpt lat="43.583194404230234" lon="11.8663763755479"><ele>285.0</ele><time>2026-04-25T08:05:36Z</time></trkpt><trkpt lat="43.58332127193221" lon="11.8664116029424"><ele>288.0</ele><time>2026-04-25T08:05:37Z</time></trkpt><trkpt lat="43.58345686081975" lon="11.86642524666026"><ele>291.0</ele><time>2026-04-25T08:05:38Z</time></trkpt><trkpt lat="43.583593399457435" lon="11.86642203765315"><ele>294.75</ele><time>2026-04-25T08:05:39Z</time></trkpt><trkpt lat="43.58373408101055" lon="11.86641622213615"><ele>298.5</ele><time>2026-04-25T08:05:40Z</time></trkpt><trkpt lat="43.58387874960764" lon="11.866426290364886"><ele>302.25</ele><time>2026-04-25T08:05:41Z</time></trkpt><trkpt lat="43.58402359716874" lon="11.86642601046893"><ele>306.0</ele><time>2026-04-25T08:05:42Z</time></trkpt><trkpt lat="43.58415585443536" lon="11.866434182797876"><ele>306.0</ele><time>2026-04-25T08:05:43Z</time></trkpt><trkpt lat="43.58428045780251" lon="11.866440329428231"><ele>306.0</ele><time>2026-04-25T08:05:44Z</time></trkpt><trkpt lat="43.58441766984029" lon="11.866442261476033"><ele>306.0</ele><time>2026-04-25T08:05:45Z</time></trkpt><trkpt lat="43.584546469908034" lon="11.866433804904773"><ele>306.0</ele><time>2026-04-25T08:05:46Z</time></trkpt><trkpt lat="43.58467698761956" lon="11.866413532342442"><ele>310.25</ele><time>2026-04-25T08:05:47Z</time></trkpt><trkpt lat="43.58479487718202" lon="11.866373759346514"><ele>314.5</ele><time>2026-04-25T08:05:48Z</time></trkpt><trkpt lat="43.58490413175859" lon="11.866318728387"><ele>318.75</ele><time>2026-04-25T08:05:49Z</time></trkpt><trkpt lat="43.58503368187386" lon="11.866241314458186"><ele>323.0</ele><time>2026-04-25T08:05:50Z</time></trkpt><trkpt lat="43.58516216904411" lon="11.866203314697222"><ele>323.0</ele><time>2026-04-25T08:05:51Z</time></trkpt><trkpt lat="43.58529877426627" lon="11.866177616701469"><ele>323.0</ele><time>2026-04-25T08:05:52Z</time></trkpt><trkpt lat="43.585430821491435" lon="11.86614683879972"><ele>323.0</ele><time>2026-04-25T08:05:53Z</time></trkpt><trkpt lat="43.58555519355173" lon="11.866126355567546"><ele>323.0</ele><time>2026-04-25T08:05:54Z</time></trkpt><trkpt lat="43.58567741662961" lon="11.866098249686473"><ele>325.79999999999995</ele><time>2026-04-25T08:05:55Z</time></trkpt><trkpt lat="43.585797211644724" lon="11.866102511259273"><ele>328.6</ele><time>2026-04-25T08:05:56Z</time></trkpt><trkpt lat="43.5859024634109" lon="11.866139987139592"><ele>331.4</ele><time>2026-04-25T08:05:57Z</time></trkpt><trkpt lat="43.58600844523207" lon="11.866182327844491"><ele>334.20000000000005</ele><time>2026-04-25T08:05:58Z</time></trkpt><trkpt lat="43.58608314991944" lon="11.866217393110396"><ele>337.0</ele><time>2026-04-25T08:05:59Z</time></trkpt><trkpt lat="43.58616991783178" lon="11.866263003017071"><ele>339.0</ele><time>2026-04-25T08:06:00Z</time></trkpt><trkpt lat="43.58626111653784" lon="11.86631113672944"><ele>341.0</ele><time>2026-04-25T08:06:02Z</time></trkpt><trkpt lat="43.586352597972194" lon="11.866150011860258"><ele>343.0</ele><time>2026-04-25T08:06:04Z</time></trkpt><trkpt lat="43.58634184482588" lon="11.86606158748137"><ele>345.0</ele><time>2026-04-25T08:06:06Z</time></trkpt><trkpt lat="43.586296206561045" lon="11.86598910901653"><ele>347.0</ele><time>2026-04-25T08:06:07Z</time></trkpt><trkpt lat="43.586234645276555" lon="11.865921356877775"><ele>348.25</ele><time>2026-04-25T08:06:08Z</time></trkpt><trkpt lat="43.58614477622716" lon="11.86587417497853"><ele>349.5</ele><time>2026-04-25T08:06:09Z</time></trkpt><trkpt lat="43.586041583812445" lon="11.865827363991869"><ele>350.75</ele><time>2026-04-25T08:06:10Z</time></trkpt><trkpt lat="43.58590674462561" lon="11.865760895996662"><ele>352.0</ele><time>2026-04-25T08:06:11Z</time></trkpt><trkpt lat="43.58577321030285" lon="11.865702110423332"><ele>352.0</ele><time>2026-04-25T08:06:12Z</time></trkpt><trkpt lat="43.58562986962711" lon="11.865656176426533"><ele>352.0</ele><time>2026-04-25T08:06:13Z</time></trkpt><trkpt lat="43.58550223487004" lon="11.865586569106835"><ele>352.0</ele><time>2026-04-25T08:06:14Z</time></trkpt><trkpt lat="43.585409597516595" lon="11.86551685608222"><ele>352.0</ele><time>2026-04-25T08:06:15Z</time></trkpt><trkpt lat="43.58530291138985" lon="11.8654716379022"><ele>352.0</ele><time>2026-04-25T08:06:15.999Z</time></trkpt><trkpt lat="43.58519793777146" lon="11.865444977475228"><ele>352.0</ele><time>2026-04-25T08:06:16.999Z</time></trkpt><trkpt lat="43.585110969583994" lon="11.86540577562423"><ele>352.0</ele><time>2026-04-25T08:06:17.999Z</time></trkpt><trkpt lat="43.58504493800903" lon="11.86532880363812"><ele>352.0</ele><time>2026-04-25T08:06:18.999Z</time></trkpt><trkpt lat="43.58500150427301" lon="11.865220739073987"><ele>352.0</ele><time>2026-04-25T08:06:19.999Z</time></trkpt><trkpt lat="43.58499500410275" lon="11.865103626177506"><ele>352.0</ele><time>2026-04-25T08:06:20.999Z</time></trkpt><trkpt lat="43.58503218576671" lon="11.865013920444055"><ele>352.0</ele><time>2026-04-25T08:06:21.999Z</time></trkpt><trkpt lat="43.585086341598505" lon="11.864957138966622"><ele>352.0</ele><time>2026-04-25T08:06:23.999Z</time></trkpt><trkpt lat="43.58501531206456" lon="11.86487566211267"><ele>352.0</ele><time>2026-04-25T08:06:59.999Z</time></trkpt><trkpt lat="43.585041670534764" lon="11.864753734847445"><ele>352.0</ele><time>2026-04-25T08:07:01.999Z</time></trkpt><trkpt lat="43.58507582904125" lon="11.864643895746228"><ele>352.0</ele><time>2026-04-25T08:07:02.999Z</time></trkpt><trkpt lat="43.58511473851217" lon="11.86451120264122"><ele>352.0</ele><time>2026-04-25T08:07:03.999Z</time></trkpt><trkpt lat="43.58514882736673" lon="11.864385985927344"><ele>352.0</ele><time>2026-04-25T08:07:04.999Z</time></trkpt><trkpt lat="43.585153402767546" lon="11.864292978740224"><ele>352.0</ele><time>2026-04-25T08:07:05.999Z</time></trkpt><trkpt lat="43.585147922806755" lon="11.864184256185014"><ele>352.0</ele><time>2026-04-25T08:07:08.999Z</time></trkpt><trkpt lat="43.58514922495906" lon="11.864310165058193"><ele>352.0</ele><time>2026-04-25T08:07:51Z</time></trkpt><trkpt lat="43.58515581099145" lon="11.864397633724757"><ele>352.0</ele><time>2026-04-25T08:07:52Z</time></trkpt><trkpt lat="43.58512110380826" lon="11.864585018938504"><ele>352.0</ele><time>2026-04-25T08:07:53Z</time></trkpt><trkpt lat="43.5850835788562" lon="11.864736993429245"><ele>352.0</ele><time>2026-04-25T08:07:54Z</time></trkpt><trkpt lat="43.5850535610136" lon="11.864856817501057"><ele>352.0</ele><time>2026-04-25T08:07:55Z</time></trkpt><trkpt lat="43.585053525162635" lon="11.864959515831776"><ele>352.0</ele><time>2026-04-25T08:07:56Z</time></trkpt><trkpt lat="43.585106442744824" lon="11.864893407415238"><ele>352.0</ele><time>2026-04-25T08:08:00Z</time></trkpt><trkpt lat="43.58515920861444" lon="11.86494378867912"><ele>352.0</ele><time>2026-04-25T08:08:05Z</time></trkpt><trkpt lat="43.585218639197954" lon="11.86499654340055"><ele>352.0</ele><time>2026-04-25T08:08:07Z</time></trkpt><trkpt lat="43.58528018401103" lon="11.864965640730516"><ele>352.0</ele><time>2026-04-25T08:08:38.999Z</time></trkpt><trkpt lat="43.585362596625096" lon="11.86497489789562"><ele>352.0</ele><time>2026-04-25T08:09:05.999Z</time></trkpt><trkpt lat="43.585428416313114" lon="11.864970650270337"><ele>352.0</ele><time>2026-04-25T08:09:06.999Z</time></trkpt><trkpt lat="43.58549697463961" lon="11.864970118438094"><ele>352.0</ele><time>2026-04-25T08:09:07.999Z</time></trkpt><trkpt lat="43.58557627719939" lon="11.86498833088878"><ele>352.0</ele><time>2026-04-25T08:09:08.999Z</time></trkpt><trkpt lat="43.585658924929234" lon="11.8649823044557"><ele>352.0</ele><time>2026-04-25T08:09:09.999Z</time></trkpt><trkpt lat="43.58572183136426" lon="11.864988398684122"><ele>356.20000000000005</ele><time>2026-04-25T08:09:10.999Z</time></trkpt><trkpt lat="43.58577543948376" lon="11.865049624886296"><ele>360.4</ele><time>2026-04-25T08:09:11.999Z</time></trkpt><trkpt lat="43.585842324015104" lon="11.865071382943096"><ele>364.6</ele><time>2026-04-25T08:09:12.999Z</time></trkpt><trkpt lat="43.585940092062465" lon="11.864994745970009"><ele>368.79999999999995</ele><time>2026-04-25T08:09:13.999Z</time></trkpt><trkpt lat="43.58604854554901" lon="11.86495712370021"><ele>373.0</ele><time>2026-04-25T08:09:14.999Z</time></trkpt><trkpt lat="43.58616124397596" lon="11.864930028738703"><ele>376.0</ele><time>2026-04-25T08:09:15.999Z</time></trkpt><trkpt lat="43.58627676989797" lon="11.864898301801706"><ele>379.0</ele><time>2026-04-25T08:09:16.999Z</time></trkpt><trkpt lat="43.586390500073996" lon="11.864846757712638"><ele>382.0</ele><time>2026-04-25T08:09:17.999Z</time></trkpt><trkpt lat="43.586497810002236" lon="11.864798782173464"><ele>385.0</ele><time>2026-04-25T08:09:18.999Z</time></trkpt><trkpt lat="43.58659420913461" lon="11.864771132562494"><ele>388.0</ele><time>2026-04-25T08:09:19.998Z</time></trkpt><trkpt lat="43.58667613749243" lon="11.864720962752276"><ele>388.0</ele><time>2026-04-25T08:09:20.998Z</time></trkpt><trkpt lat="43.58676835218159" lon="11.864684615145904"><ele>388.0</ele><time>2026-04-25T08:09:21.998Z</time></trkpt><trkpt lat="43.586854745708706" lon="11.864684156004808"><ele>388.0</ele><time>2026-04-25T08:09:22.998Z</time></trkpt><trkpt lat="43.58694643720013" lon="11.864705606196946"><ele>388.0</ele><time>2026-04-25T08:09:23.998Z</time></trkpt><trkpt lat="43.58704987129369" lon="11.864739724723167"><ele>388.0</ele><time>2026-04-25T08:09:24.998Z</time></trkpt><trkpt lat="43.587149521754114" lon="11.864781377657076"><ele>391.4</ele><time>2026-04-25T08:09:25.998Z</time></trkpt><trkpt lat="43.58725502357326" lon="11.864805920817846"><ele>394.79999999999995</ele><time>2026-04-25T08:09:26.998Z</time></trkpt><trkpt lat="43.58735103561717" lon="11.864791463145183"><ele>398.2</ele><time>2026-04-25T08:09:27.998Z</time></trkpt><trkpt lat="43.58745253576554" lon="11.864750094634882"><ele>401.6</ele><time>2026-04-25T08:09:28.998Z</time></trkpt><trkpt lat="43.58754626943488" lon="11.864700511007369"><ele>405.0</ele><time>2026-04-25T08:09:29.998Z</time></trkpt><trkpt lat="43.58763838747917" lon="11.864657691642414"><ele>405.0</ele><time>2026-04-25T08:09:30.998Z</time></trkpt><trkpt lat="43.5877267857875" lon="11.864661680645712"><ele>405.0</ele><time>2026-04-25T08:09:31.998Z</time></trkpt><trkpt lat="43.587819361902234" lon="11.864690072241972"><ele>405.0</ele><time>2026-04-25T08:09:32.998Z</time></trkpt><trkpt lat="43.58789106754083" lon="11.864746646771515"><ele>405.0</ele><time>2026-04-25T08:09:33.998Z</time></trkpt><trkpt lat="43.58795955265694" lon="11.864838072761353"><ele>405.0</ele><time>2026-04-25T08:09:34.998Z</time></trkpt><trkpt lat="43.5880362657551" lon="11.864926110662434"><ele>408.2</ele><time>2026-04-25T08:09:35.998Z</time></trkpt><trkpt lat="43.58810695500779" lon="11.86493838251392"><ele>411.4</ele><time>2026-04-25T08:09:36.998Z</time></trkpt><trkpt lat="43.58815496054872" lon="11.86481040711092"><ele>414.6</ele><time>2026-04-25T08:09:38.998Z</time></trkpt><trkpt lat="43.588182921390974" lon="11.86470005232115"><ele>417.8</ele><time>2026-04-25T08:09:39.998Z</time></trkpt><trkpt lat="43.588237187631826" lon="11.864559270465788"><ele>421.0</ele><time>2026-04-25T08:09:40.998Z</time></trkpt><trkpt lat="43.58830873721868" lon="11.864427177525666"><ele>421.0</ele><time>2026-04-25T08:09:41.998Z</time></trkpt><trkpt lat="43.588379175610285" lon="11.864357282494034"><ele>421.0</ele><time>2026-04-25T08:09:42.998Z</time></trkpt><trkpt lat="43.58846560329712" lon="11.864349411739836"><ele>421.0</ele><time>2026-04-25T08:09:43.998Z</time></trkpt><trkpt lat="43.58858130528014" lon="11.864342943948811"><ele>421.0</ele><time>2026-04-25T08:09:44.998Z</time></trkpt><trkpt lat="43.58869642469777" lon="11.864334405681355"><ele>421.0</ele><time>2026-04-25T08:09:46Z</time></trkpt><trkpt lat="43.58883297060875" lon="11.864337383388802"><ele>422.8</ele><time>2026-04-25T08:09:47Z</time></trkpt><trkpt lat="43.58893758089943" lon="11.864327706417905"><ele>424.6</ele><time>2026-04-25T08:09:48Z</time></trkpt><trkpt lat="43.589006419785186" lon="11.864344487533678"><ele>426.4</ele><time>2026-04-25T08:09:49Z</time></trkpt><trkpt lat="43.58908097294999" lon="11.864389788090643"><ele>428.2</ele><time>2026-04-25T08:09:50Z</time></trkpt><trkpt lat="43.58918543776232" lon="11.86444092139819"><ele>430.0</ele><time>2026-04-25T08:09:51Z</time></trkpt><trkpt lat="43.58927097425963" lon="11.86444956440341"><ele>430.00000000000006</ele><time>2026-04-25T08:09:52Z</time></trkpt><trkpt lat="43.589359393028005" lon="11.864446962271078"><ele>430.0</ele><time>2026-04-25T08:09:53Z</time></trkpt><trkpt lat="43.589443351679726" lon="11.864438258398135"><ele>430.0</ele><time>2026-04-25T08:09:54Z</time></trkpt><trkpt lat="43.58953195493159" lon="11.864405041596559"><ele>430.0</ele><time>2026-04-25T08:09:55Z</time></trkpt><trkpt lat="43.58961217889772" lon="11.864353716014591"><ele>430.00000000000006</ele><time>2026-04-25T08:09:56Z</time></trkpt><trkpt lat="43.58968125693801" lon="11.864338731070156"><ele>430.0</ele><time>2026-04-25T08:09:57Z</time></trkpt><trkpt lat="43.58976221052972" lon="11.864369175699375"><ele>431.75</ele><time>2026-04-25T08:09:58Z</time></trkpt><trkpt lat="43.58985120918017" lon="11.864427518371736"><ele>433.5</ele><time>2026-04-25T08:09:59Z</time></trkpt><trkpt lat="43.58994508913429" lon="11.864457980967076"><ele>435.25</ele><time>2026-04-25T08:10:00Z</time></trkpt><trkpt lat="43.5900580461611" lon="11.864435430128458"><ele>437.0</ele><time>2026-04-25T08:10:01Z</time></trkpt><trkpt lat="43.5901938194434" lon="11.864369873468828"><ele>437.0</ele><time>2026-04-25T08:10:02Z</time></trkpt><trkpt lat="43.59032970844268" lon="11.8643122408863"><ele>437.00000000000006</ele><time>2026-04-25T08:10:03Z</time></trkpt><trkpt lat="43.59042656902545" lon="11.864312409941613"><ele>437.00000000000006</ele><time>2026-04-25T08:10:04Z</time></trkpt><trkpt lat="43.59052746545091" lon="11.864320138985015"><ele>437.0</ele><time>2026-04-25T08:10:05Z</time></trkpt><trkpt lat="43.59062119657473" lon="11.864276448817076"><ele>437.0</ele><time>2026-04-25T08:10:06Z</time></trkpt><trkpt lat="43.59071936616773" lon="11.864202541784884"><ele>442.6</ele><time>2026-04-25T08:10:07Z</time></trkpt><trkpt lat="43.59079367916399" lon="11.864147289798323"><ele>448.20000000000005</ele><time>2026-04-25T08:10:08Z</time></trkpt><trkpt lat="43.59087186003801" lon="11.86404226711683"><ele>453.8</ele><time>2026-04-25T08:10:10Z</time></trkpt><trkpt lat="43.59090174791106" lon="11.863924382016224"><ele>459.4</ele><time>2026-04-25T08:10:11Z</time></trkpt><trkpt lat="43.59093403570844" lon="11.863791082181855"><ele>465.0</ele><time>2026-04-25T08:10:12Z</time></trkpt><trkpt lat="43.59097541845231" lon="11.863636996758462"><ele>465.0</ele><time>2026-04-25T08:10:13Z</time></trkpt><trkpt lat="43.59102324126646" lon="11.863484130474719"><ele>465.0</ele><time>2026-04-25T08:10:14Z</time></trkpt><trkpt lat="43.59105506949142" lon="11.863327686241412"><ele>465.0</ele><time>2026-04-25T08:10:15Z</time></trkpt><trkpt lat="43.591093286451255" lon="11.863167057195461"><ele>465.0</ele><time>2026-04-25T08:10:16Z</time></trkpt><trkpt lat="43.59114859155971" lon="11.863001980681293"><ele>466.6</ele><time>2026-04-25T08:10:17Z</time></trkpt><trkpt lat="43.591214698541016" lon="11.86288561154874"><ele>468.2</ele><time>2026-04-25T08:10:18Z</time></trkpt><trkpt lat="43.591282686377376" lon="11.862765835100259"><ele>469.79999999999995</ele><time>2026-04-25T08:10:19Z</time></trkpt><trkpt lat="43.591361728317175" lon="11.86264267752673"><ele>471.4</ele><time>2026-04-25T08:10:20Z</time></trkpt><trkpt lat="43.5914392849483" lon="11.86254181390484"><ele>473.0</ele><time>2026-04-25T08:10:21Z</time></trkpt><trkpt lat="43.591493418359455" lon="11.862456684767494"><ele>473.49999999999994</ele><time>2026-04-25T08:10:21.999Z</time></trkpt><trkpt lat="43.59154212099359" lon="11.862376270948094"><ele>474.0</ele><time>2026-04-25T08:10:22.999Z</time></trkpt><trkpt lat="43.59158872061673" lon="11.862292786797985"><ele>474.5</ele><time>2026-04-25T08:10:23.999Z</time></trkpt><trkpt lat="43.591633611012966" lon="11.862229585644823"><ele>475.0</ele><time>2026-04-25T08:10:24.999Z</time></trkpt><trkpt lat="43.59167751212734" lon="11.862121224893356"><ele>475.49999999999994</ele><time>2026-04-25T08:10:25.999Z</time></trkpt><trkpt lat="43.5917091434836" lon="11.861989024535717"><ele>476.0</ele><time>2026-04-25T08:10:26.999Z</time></trkpt><trkpt lat="43.59174377148767" lon="11.861868795358381"><ele>475.20000000000005</ele><time>2026-04-25T08:10:27.999Z</time></trkpt><trkpt lat="43.591789781116766" lon="11.861716395837357"><ele>474.40000000000003</ele><time>2026-04-25T08:10:28.999Z</time></trkpt><trkpt lat="43.591829346897136" lon="11.861578382996003"><ele>473.6</ele><time>2026-04-25T08:10:29.999Z</time></trkpt><trkpt lat="43.59186995893502" lon="11.861457985252256"><ele>472.8</ele><time>2026-04-25T08:10:30.999Z</time></trkpt><trkpt lat="43.59191478798323" lon="11.861341791529702"><ele>472.0</ele><time>2026-04-25T08:10:31.999Z</time></trkpt><trkpt lat="43.591947295591666" lon="11.861220118869394"><ele>472.0</ele><time>2026-04-25T08:10:32.999Z</time></trkpt><trkpt lat="43.59198398747105" lon="11.861119964656023"><ele>472.00000000000006</ele><time>2026-04-25T08:10:33.999Z</time></trkpt><trkpt lat="43.592037298698244" lon="11.860989724420586"><ele>472.00000000000006</ele><time>2026-04-25T08:10:34.999Z</time></trkpt><trkpt lat="43.59211058253298" lon="11.860881751642374"><ele>472.0</ele><time>2026-04-25T08:10:35.999Z</time></trkpt><trkpt lat="43.592196321392635" lon="11.860800664953274"><ele>472.0</ele><time>2026-04-25T08:10:36.999Z</time></trkpt><trkpt lat="43.59227228761229" lon="11.86071238241307"><ele>474.40000000000003</ele><time>2026-04-25T08:10:37.999Z</time></trkpt><trkpt lat="43.59233497594582" lon="11.860582073438886"><ele>476.80000000000007</ele><time>2026-04-25T08:10:38.999Z</time></trkpt><trkpt lat="43.592384816424804" lon="11.860455961205547"><ele>479.2</ele><time>2026-04-25T08:10:39.999Z</time></trkpt><trkpt lat="43.59242002758059" lon="11.860344482907633"><ele>481.6</ele><time>2026-04-25T08:10:40.999Z</time></trkpt><trkpt lat="43.59244352424122" lon="11.86021141341912"><ele>484.0</ele><time>2026-04-25T08:10:41.999Z</time></trkpt><trkpt lat="43.592482653829414" lon="11.86004697860811"><ele>486.6666666666667</ele><time>2026-04-25T08:10:42.999Z</time></trkpt><trkpt lat="43.59253024103216" lon="11.859856718197666"><ele>489.33333333333337</ele><time>2026-04-25T08:10:43.999Z</time></trkpt><trkpt lat="43.592583223882265" lon="11.859655805791604"><ele>492.0</ele><time>2026-04-25T08:10:44.999Z</time></trkpt><trkpt lat="43.5926405875947" lon="11.85944153316409"><ele>492.75</ele><time>2026-04-25T08:10:45.999Z</time></trkpt><trkpt lat="43.59269567041006" lon="11.859233732197454"><ele>493.5</ele><time>2026-04-25T08:10:46.999Z</time></trkpt><trkpt lat="43.59274676737928" lon="11.859061856541585"><ele>494.25</ele><time>2026-04-25T08:10:47.999Z</time></trkpt><trkpt lat="43.592791720476924" lon="11.85888915466239"><ele>495.0</ele><time>2026-04-25T08:10:48.999Z</time></trkpt><trkpt lat="43.59282248808331" lon="11.858729487723455"><ele>496.4</ele><time>2026-04-25T08:10:49.999Z</time></trkpt><trkpt lat="43.59285612132928" lon="11.85861313401132"><ele>497.8</ele><time>2026-04-25T08:10:50.999Z</time></trkpt><trkpt lat="43.59290250222033" lon="11.858510965707241"><ele>499.20000000000005</ele><time>2026-04-25T08:10:51.999Z</time></trkpt><trkpt lat="43.59295301509903" lon="11.858401252352749"><ele>500.6</ele><time>2026-04-25T08:10:52.999Z</time></trkpt><trkpt lat="43.593040135334014" lon="11.858305869659377"><ele>502.0</ele><time>2026-04-25T08:10:53.999Z</time></trkpt><trkpt lat="43.59314817657005" lon="11.858221580215082"><ele>502.20000000000005</ele><time>2026-04-25T08:10:54.999Z</time></trkpt><trkpt lat="43.593263435893824" lon="11.858136527435382"><ele>502.40000000000003</ele><time>2026-04-25T08:10:55.999Z</time></trkpt><trkpt lat="43.59335235526434" lon="11.85805143508481"><ele>502.59999999999997</ele><time>2026-04-25T08:10:56.999Z</time></trkpt><trkpt lat="43.593439789212525" lon="11.857953295326752"><ele>502.79999999999995</ele><time>2026-04-25T08:10:57.999Z</time></trkpt><trkpt lat="43.59351987628029" lon="11.85789274115617"><ele>503.0</ele><time>2026-04-25T08:10:58.999Z</time></trkpt><trkpt lat="43.59362137554693" lon="11.857845026592335"><ele>503.59999999999997</ele><time>2026-04-25T08:10:59.999Z</time></trkpt><trkpt lat="43.59372043417438" lon="11.857810007418907"><ele>504.19999999999993</ele><time>2026-04-25T08:11:00.999Z</time></trkpt><trkpt lat="43.59381430294083" lon="11.857718710329857"><ele>504.8</ele><time>2026-04-25T08:11:01.999Z</time></trkpt><trkpt lat="43.59386318743798" lon="11.857652376746339"><ele>505.4</ele><time>2026-04-25T08:11:02.999Z</time></trkpt><trkpt lat="43.59397495017387" lon="11.857647755004528"><ele>506.0</ele><time>2026-04-25T08:12:41.999Z</time></trkpt><trkpt lat="43.594039082668246" lon="11.857613416212937"><ele>507.49999999999994</ele><time>2026-04-25T08:12:42.999Z</time></trkpt><trkpt lat="43.594122629234995" lon="11.857553896221317"><ele>509.0</ele><time>2026-04-25T08:12:43.999Z</time></trkpt><trkpt lat="43.59418692991327" lon="11.857526444053322"><ele>510.5</ele><time>2026-04-25T08:12:45.999Z</time></trkpt><trkpt lat="43.594289219281436" lon="11.857548885908212"><ele>512.0</ele><time>2026-04-25T08:12:47.999Z</time></trkpt><trkpt lat="43.594362008049686" lon="11.857577247874067"><ele>513.5</ele><time>2026-04-25T08:12:48.999Z</time></trkpt><trkpt lat="43.594296323079064" lon="11.85755253947462"><ele>515.0</ele><time>2026-04-25T08:13:09.999Z</time></trkpt><trkpt lat="43.59423312026496" lon="11.857558647573798"><ele>515.0</ele><time>2026-04-25T08:13:10.999Z</time></trkpt><trkpt lat="43.594108625546056" lon="11.85757455641431"><ele>515.0</ele><time>2026-04-25T08:13:11.999Z</time></trkpt><trkpt lat="43.594023171662464" lon="11.857623043629399"><ele>515.0</ele><time>2026-04-25T08:13:12.999Z</time></trkpt><trkpt lat="43.593950246697034" lon="11.857686369794417"><ele>515.0</ele><time>2026-04-25T08:13:13.999Z</time></trkpt><trkpt lat="43.593878964333" lon="11.857699110003697"><ele>515.0</ele><time>2026-04-25T08:13:14.999Z</time></trkpt><trkpt lat="43.59381531644894" lon="11.857600599118392"><ele>515.0</ele><time>2026-04-25T08:13:16.999Z</time></trkpt><trkpt lat="43.5938122899783" lon="11.857434600428885"><ele>515.0</ele><time>2026-04-25T08:13:18.999Z</time></trkpt><trkpt lat="43.59387992094462" lon="11.857293317034697"><ele>515.0</ele><time>2026-04-25T08:13:20.999Z</time></trkpt><trkpt lat="43.5939130341246" lon="11.857209728790416"><ele>515.0</ele><time>2026-04-25T08:13:21.999Z</time></trkpt><trkpt lat="43.59387337972095" lon="11.857076933912921"><ele>515.0</ele><time>2026-04-25T08:13:23.999Z</time></trkpt><trkpt lat="43.59380145146181" lon="11.857050810295378"><ele>515.0</ele><time>2026-04-25T08:13:24.999Z</time></trkpt><trkpt lat="43.59371460067541" lon="11.857020305532837"><ele>515.0</ele><time>2026-04-25T08:13:25.999Z</time></trkpt><trkpt lat="43.59361269262112" lon="11.856999135272924"><ele>515.0</ele><time>2026-04-25T08:13:26.999Z</time></trkpt><trkpt lat="43.593500614985366" lon="11.856949204356185"><ele>515.0</ele><time>2026-04-25T08:13:27.999Z</time></trkpt><trkpt lat="43.59338437345609" lon="11.856874202843802"><ele>515.0</ele><time>2026-04-25T08:13:28.999Z</time></trkpt><trkpt lat="43.59327600276949" lon="11.856801975809933"><ele>515.0</ele><time>2026-04-25T08:13:29.999Z</time></trkpt><trkpt lat="43.59318168003228" lon="11.856754290654798"><ele>515.0</ele><time>2026-04-25T08:13:30.999Z</time></trkpt><trkpt lat="43.59307950395724" lon="11.856711677392566"><ele>515.0</ele><time>2026-04-25T08:13:31.999Z</time></trkpt><trkpt lat="43.592991228378736" lon="11.856649106043728"><ele>515.0</ele><time>2026-04-25T08:13:32.999Z</time></trkpt><trkpt lat="43.59287882322603" lon="11.85653370694302"><ele>515.0</ele><time>2026-04-25T08:13:34.999Z</time></trkpt><trkpt lat="43.59279940427101" lon="11.856475028096582"><ele>512.5</ele><time>2026-04-25T08:13:49.998Z</time></trkpt><trkpt lat="43.59274003683566" lon="11.856408921321103"><ele>510.0</ele><time>2026-04-25T08:13:51.998Z</time></trkpt><trkpt lat="43.59267989991244" lon="11.856340666170512"><ele>507.5</ele><time>2026-04-25T08:13:54.998Z</time></trkpt><trkpt lat="43.59261291244676" lon="11.856314605289509"><ele>505.0</ele><time>2026-04-25T08:13:56.998Z</time></trkpt><trkpt lat="43.59254145549536" lon="11.856256538202821"><ele>502.49999999999994</ele><time>2026-04-25T08:13:59Z</time></trkpt><trkpt lat="43.59247971705411" lon="11.856288242884304"><ele>500.0</ele><time>2026-04-25T08:14:01Z</time></trkpt><trkpt lat="43.59237178939906" lon="11.856324500410375"><ele>500.0</ele><time>2026-04-25T08:14:03Z</time></trkpt><trkpt lat="43.59226577239555" lon="11.856306058011592"><ele>500.0</ele><time>2026-04-25T08:14:05Z</time></trkpt><trkpt lat="43.592244068677175" lon="11.856455813874375"><ele>500.0</ele><time>2026-04-25T08:14:08Z</time></trkpt><trkpt lat="43.59219474493921" lon="11.8565288776317"><ele>500.0</ele><time>2026-04-25T08:14:09Z</time></trkpt><trkpt lat="43.59208641783804" lon="11.85660432459384"><ele>500.0</ele><time>2026-04-25T08:14:11Z</time></trkpt><trkpt lat="43.59197479682563" lon="11.856598291946655"><ele>494.75</ele><time>2026-04-25T08:14:13Z</time></trkpt><trkpt lat="43.591899926783526" lon="11.856665733109828"><ele>489.5</ele><time>2026-04-25T08:14:15Z</time></trkpt><trkpt lat="43.59184549461796" lon="11.8567971926776"><ele>484.25</ele><time>2026-04-25T08:14:17Z</time></trkpt><trkpt lat="43.591711124668024" lon="11.856796502532383"><ele>479.0</ele><time>2026-04-25T08:14:19Z</time></trkpt><trkpt lat="43.591601040975014" lon="11.856857293425355"><ele>476.66666666666663</ele><time>2026-04-25T08:14:21Z</time></trkpt><trkpt lat="43.591538155416025" lon="11.856902817191305"><ele>474.3333333333333</ele><time>2026-04-25T08:14:22Z</time></trkpt><trkpt lat="43.591437931335214" lon="11.856959288761711"><ele>472.0</ele><time>2026-04-25T08:14:24Z</time></trkpt><trkpt lat="43.591380700432694" lon="11.857001782503277"><ele>469.66666666666663</ele><time>2026-04-25T08:14:26Z</time></trkpt><trkpt lat="43.59132273238708" lon="11.856945822063441"><ele>467.3333333333333</ele><time>2026-04-25T08:14:40Z</time></trkpt><trkpt lat="43.591396522446495" lon="11.856974577573236"><ele>465.0</ele><time>2026-04-25T08:15:02.999Z</time></trkpt><trkpt lat="43.591476998124804" lon="11.85693897910156"><ele>465.0</ele><time>2026-04-25T08:15:05.999Z</time></trkpt><trkpt lat="43.5915647673886" lon="11.856869164704271"><ele>465.0</ele><time>2026-04-25T08:15:07.999Z</time></trkpt><trkpt lat="43.59166149372363" lon="11.856799934591484"><ele>465.0</ele><time>2026-04-25T08:15:09.999Z</time></trkpt><trkpt lat="43.59173735466561" lon="11.85677732424572"><ele>465.0</ele><time>2026-04-25T08:15:10.999Z</time></trkpt><trkpt lat="43.591864058632964" lon="11.85675711140606"><ele>465.0</ele><time>2026-04-25T08:15:12.999Z</time></trkpt><trkpt lat="43.59194432668265" lon="11.856675324444447"><ele>467.0</ele><time>2026-04-25T08:15:14.999Z</time></trkpt><trkpt lat="43.59198616557027" lon="11.85657384790274"><ele>469.0</ele><time>2026-04-25T08:15:16.999Z</time></trkpt><trkpt lat="43.5920495561069" lon="11.85656197126595"><ele>471.0</ele><time>2026-04-25T08:15:17.999Z</time></trkpt><trkpt lat="43.59212543855185" lon="11.856562867151908"><ele>473.0</ele><time>2026-04-25T08:15:18.999Z</time></trkpt><trkpt lat="43.59220006001439" lon="11.856534685840193"><ele>475.0</ele><time>2026-04-25T08:15:19.999Z</time></trkpt><trkpt lat="43.59224075322177" lon="11.856458677074194"><ele>477.0</ele><time>2026-04-25T08:15:20.999Z</time></trkpt><trkpt lat="43.592282835854874" lon="11.856387327745038"><ele>479.0</ele><time>2026-04-25T08:15:21.999Z</time></trkpt><trkpt lat="43.59231796256561" lon="11.85627411909243"><ele>482.49999999999994</ele><time>2026-04-25T08:15:23.999Z</time></trkpt><trkpt lat="43.5923896033085" lon="11.856301062975353"><ele>486.0</ele><time>2026-04-25T08:15:25.999Z</time></trkpt><trkpt lat="43.592499100942845" lon="11.856287035009952"><ele>489.5</ele><time>2026-04-25T08:15:27.999Z</time></trkpt><trkpt lat="43.59256286641266" lon="11.856252369470798"><ele>493.0</ele><time>2026-04-25T08:15:28.999Z</time></trkpt><trkpt lat="43.592660506701584" lon="11.856309169898351"><ele>496.49999999999994</ele><time>2026-04-25T08:15:30.999Z</time></trkpt><trkpt lat="43.592710688580475" lon="11.856378459639759"><ele>500.0</ele><time>2026-04-25T08:15:32.999Z</time></trkpt><trkpt lat="43.59279738975982" lon="11.856474090415508"><ele>499.99999999999994</ele><time>2026-04-25T08:15:34.999Z</time></trkpt><trkpt lat="43.59288072162561" lon="11.856520537250152"><ele>500.0</ele><time>2026-04-25T08:15:36.999Z</time></trkpt><trkpt lat="43.59286536425237" lon="11.856429626263624"><ele>500.0</ele><time>2026-04-25T08:15:50.999Z</time></trkpt><trkpt lat="43.59283222538207" lon="11.8562800105633"><ele>500.0</ele><time>2026-04-25T08:15:52.999Z</time></trkpt><trkpt lat="43.59279803707374" lon="11.856206901951731"><ele>499.99999999999994</ele><time>2026-04-25T08:15:53.999Z</time></trkpt><trkpt lat="43.59278195380854" lon="11.856069452234069"><ele>500.0</ele><time>2026-04-25T08:15:55.999Z</time></trkpt><trkpt lat="43.592881263627646" lon="11.8559725361033"><ele>504.66666666666663</ele><time>2026-04-25T08:15:57.999Z</time></trkpt><trkpt lat="43.592933342328735" lon="11.85592297394563"><ele>509.3333333333333</ele><time>2026-04-25T08:15:58.999Z</time></trkpt><trkpt lat="43.59299130926333" lon="11.855877659825113"><ele>514.0</ele><time>2026-04-25T08:15:59.998Z</time></trkpt><trkpt lat="43.593057867361935" lon="11.855879558350175"><ele>518.6666666666666</ele><time>2026-04-25T08:16:00.998Z</time></trkpt><trkpt lat="43.59314310524857" lon="11.855885152533366"><ele>523.3333333333334</ele><time>2026-04-25T08:16:01.998Z</time></trkpt><trkpt lat="43.593233377173846" lon="11.855876363145626"><ele>528.0</ele><time>2026-04-25T08:16:02.998Z</time></trkpt><trkpt lat="43.593318393056826" lon="11.85583753173186"><ele>528.0</ele><time>2026-04-25T08:16:04Z</time></trkpt><trkpt lat="43.59336688406226" lon="11.85576093465846"><ele>528.0</ele><time>2026-04-25T08:16:05Z</time></trkpt><trkpt lat="43.59342509157017" lon="11.855718541363776"><ele>528.0</ele><time>2026-04-25T08:16:06Z</time></trkpt><trkpt lat="43.59351798949803" lon="11.855720754049827"><ele>528.0</ele><time>2026-04-25T08:16:07Z</time></trkpt><trkpt lat="43.59359521845778" lon="11.855696675483403"><ele>528.0</ele><time>2026-04-25T08:16:08Z</time></trkpt><trkpt lat="43.593682972531745" lon="11.855646127357273"><ele>528.0</ele><time>2026-04-25T08:16:09Z</time></trkpt><trkpt lat="43.59376391535504" lon="11.85564570594992"><ele>531.1666666666666</ele><time>2026-04-25T08:16:10Z</time></trkpt><trkpt lat="43.59382777791202" lon="11.855625335189217"><ele>534.3333333333334</ele><time>2026-04-25T08:16:11Z</time></trkpt><trkpt lat="43.5939306907031" lon="11.855576188620912"><ele>537.5</ele><time>2026-04-25T08:16:12Z</time></trkpt><trkpt lat="43.59397952502771" lon="11.855510072507847"><ele>540.6666666666667</ele><time>2026-04-25T08:16:13Z</time></trkpt><trkpt lat="43.59402654405006" lon="11.85544003887813"><ele>543.8333333333334</ele><time>2026-04-25T08:16:14Z</time></trkpt><trkpt lat="43.5941450382057" lon="11.85538175664858"><ele>547.0</ele><time>2026-04-25T08:16:16Z</time></trkpt><trkpt lat="43.59420116276752" lon="11.85533238874478"><ele>547.0</ele><time>2026-04-25T08:16:17Z</time></trkpt><trkpt lat="43.594307024255265" lon="11.855297925343027"><ele>547.0</ele><time>2026-04-25T08:16:19Z</time></trkpt><trkpt lat="43.594393680337205" lon="11.855323081024936"><ele>547.0</ele><time>2026-04-25T08:16:20Z</time></trkpt><trkpt lat="43.594485113880246" lon="11.855314166605472"><ele>547.0</ele><time>2026-04-25T08:16:21Z</time></trkpt><trkpt lat="43.59458054471952" lon="11.85528895259373"><ele>547.0</ele><time>2026-04-25T08:16:22Z</time></trkpt><trkpt lat="43.594590959146615" lon="11.855148411995236"><ele>554.75</ele><time>2026-04-25T08:16:31Z</time></trkpt><trkpt lat="43.59467486681552" lon="11.855037059096157"><ele>562.5</ele><time>2026-04-25T08:16:33Z</time></trkpt><trkpt lat="43.594770336896886" lon="11.854973614570866"><ele>570.25</ele><time>2026-04-25T08:16:35Z</time></trkpt><trkpt lat="43.594799487669206" lon="11.854805991513164"><ele>578.0</ele><time>2026-04-25T08:16:37Z</time></trkpt><trkpt lat="43.594858403126565" lon="11.854675352388245"><ele>578.0</ele><time>2026-04-25T08:16:39Z</time></trkpt><trkpt lat="43.594917988859805" lon="11.85459650856774"><ele>578.0</ele><time>2026-04-25T08:16:40Z</time></trkpt><trkpt lat="43.59497435867008" lon="11.854526985461236"><ele>578.0</ele><time>2026-04-25T08:16:41Z</time></trkpt><trkpt lat="43.59503973241607" lon="11.854466940191141"><ele>578.0</ele><time>2026-04-25T08:16:42Z</time></trkpt><trkpt lat="43.59510508396303" lon="11.854415500723924"><ele>578.0</ele><time>2026-04-25T08:16:43Z</time></trkpt><trkpt lat="43.59517713024909" lon="11.854391552431329"><ele>578.0</ele><time>2026-04-25T08:16:44Z</time></trkpt><trkpt lat="43.595257365777556" lon="11.854359765918836"><ele>580.8333333333333</ele><time>2026-04-25T08:16:45Z</time></trkpt><trkpt lat="43.59533880102107" lon="11.854295733677022"><ele>583.6666666666666</ele><time>2026-04-25T08:16:46Z</time></trkpt><trkpt lat="43.595404414823015" lon="11.854253293165035"><ele>586.5</ele><time>2026-04-25T08:16:46.999Z</time></trkpt><trkpt lat="43.5954848505777" lon="11.854229574596218"><ele>589.3333333333334</ele><time>2026-04-25T08:16:47.999Z</time></trkpt><trkpt lat="43.59556979894432" lon="11.854220480418874"><ele>592.1666666666667</ele><time>2026-04-25T08:16:48.999Z</time></trkpt><trkpt lat="43.59566432022762" lon="11.854188671074432"><ele>595.0</ele><time>2026-04-25T08:16:49.999Z</time></trkpt><trkpt lat="43.59572769680496" lon="11.854149569716402"><ele>596.8333333333334</ele><time>2026-04-25T08:16:50.999Z</time></trkpt><trkpt lat="43.59577533918898" lon="11.854076464250843"><ele>598.6666666666667</ele><time>2026-04-25T08:16:51.999Z</time></trkpt><trkpt lat="43.59584184021593" lon="11.854028488718303"><ele>600.5</ele><time>2026-04-25T08:16:52.999Z</time></trkpt><trkpt lat="43.595953037982866" lon="11.853975932900177"><ele>602.3333333333334</ele><time>2026-04-25T08:16:53.999Z</time></trkpt><trkpt lat="43.596043569614004" lon="11.853949271206044"><ele>604.1666666666666</ele><time>2026-04-25T08:16:54.999Z</time></trkpt><trkpt lat="43.59610223834431" lon="11.853872825612875"><ele>606.0</ele><time>2026-04-25T08:16:56.999Z</time></trkpt><trkpt lat="43.596099111133704" lon="11.853780101648821"><ele>606.0</ele><time>2026-04-25T08:16:57.999Z</time></trkpt><trkpt lat="43.5960971543452" lon="11.853659630243392"><ele>606.0</ele><time>2026-04-25T08:16:58.999Z</time></trkpt><trkpt lat="43.59609935650432" lon="11.853559708620441"><ele>606.0</ele><time>2026-04-25T08:16:59.999Z</time></trkpt><trkpt lat="43.5961158691761" lon="11.853472552559065"><ele>606.0</ele><time>2026-04-25T08:17:00.999Z</time></trkpt><trkpt lat="43.596166434451334" lon="11.853391769666704"><ele>606.0</ele><time>2026-04-25T08:17:02.999Z</time></trkpt><trkpt lat="43.59605978499507" lon="11.85314187695391"><ele>606.4</ele><time>2026-04-25T08:17:29.999Z</time></trkpt><trkpt lat="43.5960261941428" lon="11.853010654106837"><ele>606.8</ele><time>2026-04-25T08:17:30.999Z</time></trkpt><trkpt lat="43.59598432291816" lon="11.852880772942452"><ele>607.1999999999999</ele><time>2026-04-25T08:17:31.999Z</time></trkpt><trkpt lat="43.595931502785035" lon="11.852769703433298"><ele>607.6</ele><time>2026-04-25T08:17:32.999Z</time></trkpt><trkpt lat="43.59590446226522" lon="11.852667840238956"><ele>608.0</ele><time>2026-04-25T08:17:33.999Z</time></trkpt><trkpt lat="43.59589754673271" lon="11.85255923787807"><ele>606.3333333333333</ele><time>2026-04-25T08:17:34.999Z</time></trkpt><trkpt lat="43.595898929344735" lon="11.852442338120227"><ele>604.6666666666666</ele><time>2026-04-25T08:17:35.999Z</time></trkpt><trkpt lat="43.59591604364467" lon="11.852349682931766"><ele>603.0</ele><time>2026-04-25T08:17:36.999Z</time></trkpt><trkpt lat="43.59596150566155" lon="11.852258863481923"><ele>601.3333333333334</ele><time>2026-04-25T08:17:37.999Z</time></trkpt><trkpt lat="43.5960190600947" lon="11.852162537710127"><ele>599.6666666666667</ele><time>2026-04-25T08:17:38.999Z</time></trkpt><trkpt lat="43.59607604785445" lon="11.852041414389882"><ele>598.0</ele><time>2026-04-25T08:17:39.999Z</time></trkpt><trkpt lat="43.59609660232805" lon="11.851939282697854"><ele>598.0</ele><time>2026-04-25T08:17:40.999Z</time></trkpt><trkpt lat="43.596113303771496" lon="11.851791971988762"><ele>598.0</ele><time>2026-04-25T08:17:41.999Z</time></trkpt><trkpt lat="43.59611867865302" lon="11.851656227855328"><ele>598.0</ele><time>2026-04-25T08:17:42.999Z</time></trkpt><trkpt lat="43.596121550531" lon="11.851545624525272"><ele>598.0</ele><time>2026-04-25T08:17:43.999Z</time></trkpt><trkpt lat="43.59610462206024" lon="11.851438790319717"><ele>598.0</ele><time>2026-04-25T08:17:44.999Z</time></trkpt><trkpt lat="43.59605720788581" lon="11.851329403766037"><ele>597.6</ele><time>2026-04-25T08:17:45.999Z</time></trkpt><trkpt lat="43.595985803740426" lon="11.85121369585062"><ele>597.1999999999999</ele><time>2026-04-25T08:17:46.999Z</time></trkpt><trkpt lat="43.59591630270908" lon="11.85108809510854"><ele>596.8</ele><time>2026-04-25T08:17:47.999Z</time></trkpt><trkpt lat="43.595871000744175" lon="11.850978501668026"><ele>596.4</ele><time>2026-04-25T08:17:48.999Z</time></trkpt><trkpt lat="43.5958161389769" lon="11.850886703542352"><ele>596.0</ele><time>2026-04-25T08:17:49.999Z</time></trkpt><trkpt lat="43.595751470061835" lon="11.850789290958176"><ele>596.0</ele><time>2026-04-25T08:17:50.999Z</time></trkpt><trkpt lat="43.59570551233474" lon="11.850672508435899"><ele>596.0</ele><time>2026-04-25T08:17:51.999Z</time></trkpt><trkpt lat="43.59567432533476" lon="11.850580314448239"><ele>596.0</ele><time>2026-04-25T08:17:52.999Z</time></trkpt><trkpt lat="43.595629367397315" lon="11.850486080083826"><ele>596.0</ele><time>2026-04-25T08:17:53.999Z</time></trkpt><trkpt lat="43.59556467339074" lon="11.850424507282332"><ele>596.0</ele><time>2026-04-25T08:17:54.999Z</time></trkpt><trkpt lat="43.59546208749779" lon="11.850364188177492"><ele>596.0</ele><time>2026-04-25T08:17:55.999Z</time></trkpt><trkpt lat="43.595375265688084" lon="11.850334416092958"><ele>596.0</ele><time>2026-04-25T08:17:56.999Z</time></trkpt><trkpt lat="43.59530352980798" lon="11.850322632355489"><ele>596.0</ele><time>2026-04-25T08:17:57.999Z</time></trkpt><trkpt lat="43.59523887313707" lon="11.850303391961884"><ele>596.0</ele><time>2026-04-25T08:17:58.999Z</time></trkpt><trkpt lat="43.595176794546546" lon="11.850226057856505"><ele>596.0</ele><time>2026-04-25T08:17:59.999Z</time></trkpt><trkpt lat="43.595122579863585" lon="11.85011665730062"><ele>596.0</ele><time>2026-04-25T08:18:00.999Z</time></trkpt><trkpt lat="43.59503946191603" lon="11.850040534373262"><ele>596.0</ele><time>2026-04-25T08:18:01.998Z</time></trkpt><trkpt lat="43.59495162700232" lon="11.849951016408248"><ele>596.0</ele><time>2026-04-25T08:18:02.998Z</time></trkpt><trkpt lat="43.59489569469496" lon="11.849860356978057"><ele>596.0</ele><time>2026-04-25T08:18:03.998Z</time></trkpt><trkpt lat="43.594824059654584" lon="11.849768623789572"><ele>596.0</ele><time>2026-04-25T08:18:04.998Z</time></trkpt><trkpt lat="43.59474882067883" lon="11.849670580124396"><ele>596.0</ele><time>2026-04-25T08:18:05.998Z</time></trkpt><trkpt lat="43.59470137066183" lon="11.84955995946687"><ele>596.0</ele><time>2026-04-25T08:18:06.998Z</time></trkpt><trkpt lat="43.59468634550901" lon="11.849460530245517"><ele>596.0</ele><time>2026-04-25T08:18:07.998Z</time></trkpt><trkpt lat="43.594685983857644" lon="11.849363331520278"><ele>596.0</ele><time>2026-04-25T08:18:09Z</time></trkpt><trkpt lat="43.594775200837354" lon="11.849229171198715"><ele>596.0</ele><time>2026-04-25T08:18:11Z</time></trkpt><trkpt lat="43.59482709525279" lon="11.849162742526396"><ele>596.0</ele><time>2026-04-25T08:18:14Z</time></trkpt><trkpt lat="43.59472004353413" lon="11.849055540832481"><ele>596.0</ele><time>2026-04-25T08:18:16Z</time></trkpt><trkpt lat="43.59461589441641" lon="11.849027633945989"><ele>594.8</ele><time>2026-04-25T08:18:17Z</time></trkpt><trkpt lat="43.59449417092564" lon="11.848998407899524"><ele>593.6</ele><time>2026-04-25T08:18:18Z</time></trkpt><trkpt lat="43.594389493738205" lon="11.848950903341084"><ele>592.4</ele><time>2026-04-25T08:18:19Z</time></trkpt><trkpt lat="43.59431660100548" lon="11.848887813845492"><ele>591.2</ele><time>2026-04-25T08:18:20Z</time></trkpt><trkpt lat="43.59423970328545" lon="11.848801941541348"><ele>590.0</ele><time>2026-04-25T08:18:21Z</time></trkpt><trkpt lat="43.59416000635878" lon="11.848722134189133"><ele>590.0</ele><time>2026-04-25T08:18:22Z</time></trkpt><trkpt lat="43.59409679673092" lon="11.8486730023087"><ele>590.0</ele><time>2026-04-25T08:18:23Z</time></trkpt><trkpt lat="43.59412984535102" lon="11.84853331986021"><ele>590.0</ele><time>2026-04-25T08:18:25Z</time></trkpt><trkpt lat="43.59401615500839" lon="11.84843022400525"><ele>590.0</ele><time>2026-04-25T08:18:27Z</time></trkpt><trkpt lat="43.593945906087114" lon="11.848330604768966"><ele>590.0</ele><time>2026-04-25T08:18:28Z</time></trkpt><trkpt lat="43.59389195373029" lon="11.848244964661484"><ele>587.6</ele><time>2026-04-25T08:18:29Z</time></trkpt><trkpt lat="43.593820472485" lon="11.848185167924246"><ele>585.2</ele><time>2026-04-25T08:18:30Z</time></trkpt><trkpt lat="43.59374631504675" lon="11.848079917366196"><ele>582.8</ele><time>2026-04-25T08:18:31Z</time></trkpt><trkpt lat="43.59368361097624" lon="11.8479904146887"><ele>580.4</ele><time>2026-04-25T08:18:32Z</time></trkpt><trkpt lat="43.59360281894113" lon="11.847944835472706"><ele>578.0</ele><time>2026-04-25T08:18:33Z</time></trkpt><trkpt lat="43.593527093862974" lon="11.847876551969104"><ele>578.0</ele><time>2026-04-25T08:18:34Z</time></trkpt><trkpt lat="43.59346050731318" lon="11.847767262361616"><ele>578.0</ele><time>2026-04-25T08:18:35Z</time></trkpt><trkpt lat="43.593423787333066" lon="11.847631538427244"><ele>578.0</ele><time>2026-04-25T08:18:36Z</time></trkpt><trkpt lat="43.59336866018067" lon="11.847515802188182"><ele>578.0</ele><time>2026-04-25T08:18:37Z</time></trkpt><trkpt lat="43.59331186140897" lon="11.847427286874757"><ele>578.0</ele><time>2026-04-25T08:18:38Z</time></trkpt><trkpt lat="43.593246682494055" lon="11.847389151424625"><ele>575.3333333333333</ele><time>2026-04-25T08:18:39Z</time></trkpt><trkpt lat="43.59316897887689" lon="11.84737914643464"><ele>572.6666666666666</ele><time>2026-04-25T08:18:40Z</time></trkpt><trkpt lat="43.59310480675143" lon="11.847383803110333"><ele>570.0</ele><time>2026-04-25T08:18:41Z</time></trkpt><trkpt lat="43.59303072631547" lon="11.847363270903877"><ele>567.3333333333334</ele><time>2026-04-25T08:18:43Z</time></trkpt><trkpt lat="43.59294464531565" lon="11.847394480367797"><ele>564.6666666666667</ele><time>2026-04-25T08:18:45Z</time></trkpt><trkpt lat="43.59286555275931" lon="11.847409637739625"><ele>562.0</ele><time>2026-04-25T08:18:47Z</time></trkpt><trkpt lat="43.592800073641016" lon="11.84743641902691"><ele>559.8000000000001</ele><time>2026-04-25T08:18:48.999Z</time></trkpt><trkpt lat="43.59272502212232" lon="11.847445227342465"><ele>557.6</ele><time>2026-04-25T08:18:51.999Z</time></trkpt><trkpt lat="43.59262405477637" lon="11.847391552014907"><ele>555.4000000000001</ele><time>2026-04-25T08:18:53.999Z</time></trkpt><trkpt lat="43.59254037030189" lon="11.847275171835827"><ele>553.2</ele><time>2026-04-25T08:18:55.999Z</time></trkpt><trkpt lat="43.59253564199929" lon="11.847184810975712"><ele>551.0</ele><time>2026-04-25T08:18:56.999Z</time></trkpt><trkpt lat="43.592550320403426" lon="11.847026564050577"><ele>551.0</ele><time>2026-04-25T08:18:58.999Z</time></trkpt><trkpt lat="43.592528443879665" lon="11.846878358675834"><ele>551.0</ele><time>2026-04-25T08:19:00.999Z</time></trkpt><trkpt lat="43.59244085590923" lon="11.846770071692948"><ele>551.0</ele><time>2026-04-25T08:19:02.999Z</time></trkpt><trkpt lat="43.59234840828854" lon="11.846710764072789"><ele>551.0</ele><time>2026-04-25T08:19:04.999Z</time></trkpt><trkpt lat="43.592292206355594" lon="11.846626274479801"><ele>551.0</ele><time>2026-04-25T08:19:06.999Z</time></trkpt><trkpt lat="43.592244261985286" lon="11.846562710295279"><ele>549.4</ele><time>2026-04-25T08:20:03.999Z</time></trkpt><trkpt lat="43.59222136049199" lon="11.846380318633134"><ele>547.8</ele><time>2026-04-25T08:20:06.999Z</time></trkpt><trkpt lat="43.592235668391076" lon="11.846237733440542"><ele>546.1999999999999</ele><time>2026-04-25T08:20:07.999Z</time></trkpt><trkpt lat="43.592233159693464" lon="11.84610659087616"><ele>544.6</ele><time>2026-04-25T08:20:08.998Z</time></trkpt><trkpt lat="43.59220173330407" lon="11.845972813009286"><ele>543.0</ele><time>2026-04-25T08:20:09.998Z</time></trkpt><trkpt lat="43.59214662191067" lon="11.845871085436704"><ele>540.25</ele><time>2026-04-25T08:20:10.998Z</time></trkpt><trkpt lat="43.592066212445566" lon="11.845769705472907"><ele>537.5</ele><time>2026-04-25T08:20:11.998Z</time></trkpt><trkpt lat="43.59197315883255" lon="11.845673740855304"><ele>534.75</ele><time>2026-04-25T08:20:12.998Z</time></trkpt><trkpt lat="43.59186740951361" lon="11.845577143090788"><ele>532.0</ele><time>2026-04-25T08:20:13.998Z</time></trkpt><trkpt lat="43.59177873147802" lon="11.845459500371119"><ele>531.6</ele><time>2026-04-25T08:20:15Z</time></trkpt><trkpt lat="43.59168354282275" lon="11.845364286871218"><ele>531.2</ele><time>2026-04-25T08:20:16Z</time></trkpt><trkpt lat="43.59159790020354" lon="11.845278621812147"><ele>530.8</ele><time>2026-04-25T08:20:17Z</time></trkpt><trkpt lat="43.59151071528644" lon="11.845191413922606"><ele>530.4</ele><time>2026-04-25T08:20:18Z</time></trkpt><trkpt lat="43.59142584519484" lon="11.845104656129836"><ele>530.0</ele><time>2026-04-25T08:20:19Z</time></trkpt><trkpt lat="43.59134506875459" lon="11.845013096688438"><ele>527.8</ele><time>2026-04-25T08:20:20Z</time></trkpt><trkpt lat="43.591272818051145" lon="11.844904121517205"><ele>525.6</ele><time>2026-04-25T08:20:21Z</time></trkpt><trkpt lat="43.591204200556184" lon="11.84476798101057"><ele>523.4</ele><time>2026-04-25T08:20:22Z</time></trkpt><trkpt lat="43.591137150826796" lon="11.844639399028953"><ele>521.2</ele><time>2026-04-25T08:20:23Z</time></trkpt><trkpt lat="43.591072111927446" lon="11.844535095751775"><ele>519.0</ele><time>2026-04-25T08:20:24Z</time></trkpt><trkpt lat="43.59101245679587" lon="11.844428637089232"><ele>518.2</ele><time>2026-04-25T08:20:25Z</time></trkpt><trkpt lat="43.590932209665176" lon="11.844350255881713"><ele>517.4</ele><time>2026-04-25T08:20:26Z</time></trkpt><trkpt lat="43.59083985576219" lon="11.844293648695135"><ele>516.6</ele><time>2026-04-25T08:20:27Z</time></trkpt><trkpt lat="43.59073350989903" lon="11.84423164879221"><ele>515.8</ele><time>2026-04-25T08:20:28Z</time></trkpt><trkpt lat="43.59062740915629" lon="11.844161446578603"><ele>515.0</ele><time>2026-04-25T08:20:29Z</time></trkpt><trkpt lat="43.59052461168355" lon="11.844069070233036"><ele>515.0</ele><time>2026-04-25T08:20:30Z</time></trkpt><trkpt lat="43.590451282492914" lon="11.84393548856645"><ele>515.0</ele><time>2026-04-25T08:20:31Z</time></trkpt><trkpt lat="43.59037544614725" lon="11.843805680080322"><ele>515.0</ele><time>2026-04-25T08:20:32Z</time></trkpt><trkpt lat="43.59030061959185" lon="11.843670283227853"><ele>515.0</ele><time>2026-04-25T08:20:33Z</time></trkpt><trkpt lat="43.59022172242008" lon="11.843524384227809"><ele>516.0</ele><time>2026-04-25T08:20:34Z</time></trkpt><trkpt lat="43.59014385459856" lon="11.843382989776824"><ele>517.0</ele><time>2026-04-25T08:20:35Z</time></trkpt><trkpt lat="43.590065258217344" lon="11.84324289693125"><ele>518.0</ele><time>2026-04-25T08:20:36Z</time></trkpt><trkpt lat="43.58998295729673" lon="11.84309757237717"><ele>519.0</ele><time>2026-04-25T08:20:37Z</time></trkpt><trkpt lat="43.589901915706186" lon="11.842954471229472"><ele>519.0</ele><time>2026-04-25T08:20:38Z</time></trkpt><trkpt lat="43.58981372252769" lon="11.842832540945194"><ele>519.0</ele><time>2026-04-25T08:20:39Z</time></trkpt><trkpt lat="43.58973791486293" lon="11.842693773285868"><ele>519.0</ele><time>2026-04-25T08:20:40Z</time></trkpt><trkpt lat="43.58965715538251" lon="11.842549769781"><ele>519.0</ele><time>2026-04-25T08:20:41Z</time></trkpt><trkpt lat="43.589581350233274" lon="11.842408820399925"><ele>519.2</ele><time>2026-04-25T08:20:42Z</time></trkpt><trkpt lat="43.589506575635085" lon="11.842265854313224"><ele>519.4</ele><time>2026-04-25T08:20:43Z</time></trkpt><trkpt lat="43.58943875115307" lon="11.842145378642199"><ele>519.6</ele><time>2026-04-25T08:20:44Z</time></trkpt><trkpt lat="43.589392747769516" lon="11.842032151766134"><ele>519.8</ele><time>2026-04-25T08:20:45Z</time></trkpt><trkpt lat="43.58933404249778" lon="11.841961982500623"><ele>520.0</ele><time>2026-04-25T08:20:46Z</time></trkpt><trkpt lat="43.58925194366966" lon="11.841941961225903"><ele>520.0000000000001</ele><time>2026-04-25T08:20:47Z</time></trkpt><trkpt lat="43.58918572864242" lon="11.84191419010617"><ele>520.0</ele><time>2026-04-25T08:20:48Z</time></trkpt><trkpt lat="43.58911875436813" lon="11.84188610123953"><ele>520.0</ele><time>2026-04-25T08:20:49Z</time></trkpt><trkpt lat="43.589057787991386" lon="11.841860532990218"><ele>520.0</ele><time>2026-04-25T08:20:51Z</time></trkpt><trkpt lat="43.58904874762849" lon="11.84177366244345"><ele>520.0</ele><time>2026-04-25T08:21:29.999Z</time></trkpt><trkpt lat="43.58900900209435" lon="11.84168067519182"><ele>520.0000000000001</ele><time>2026-04-25T08:21:30.999Z</time></trkpt><trkpt lat="43.58894635594708" lon="11.84160709815306"><ele>520.0</ele><time>2026-04-25T08:21:31.999Z</time></trkpt><trkpt lat="43.5888681556649" lon="11.841523460692388"><ele>520.2</ele><time>2026-04-25T08:21:32.999Z</time></trkpt><trkpt lat="43.58878389467081" lon="11.841438449818723"><ele>520.4</ele><time>2026-04-25T08:21:33.999Z</time></trkpt><trkpt lat="43.58868663763967" lon="11.841364349862282"><ele>520.6</ele><time>2026-04-25T08:21:34.999Z</time></trkpt><trkpt lat="43.58860313757706" lon="11.841271605073644"><ele>520.8</ele><time>2026-04-25T08:21:35.999Z</time></trkpt><trkpt lat="43.58852532455956" lon="11.841188884729956"><ele>521.0</ele><time>2026-04-25T08:21:36.999Z</time></trkpt><trkpt lat="43.588447528336616" lon="11.841106332537382"><ele>521.0</ele><time>2026-04-25T08:21:37.999Z</time></trkpt><trkpt lat="43.58837024819983" lon="11.841027083482164"><ele>521.0</ele><time>2026-04-25T08:21:38.999Z</time></trkpt><trkpt lat="43.58831719099079" lon="11.84093347371016"><ele>521.0</ele><time>2026-04-25T08:21:39.999Z</time></trkpt><trkpt lat="43.58826503632746" lon="11.840855822180128"><ele>521.0</ele><time>2026-04-25T08:21:40.999Z</time></trkpt><trkpt lat="43.588248425618865" lon="11.840713555791536"><ele>521.0</ele><time>2026-04-25T08:21:42.999Z</time></trkpt><trkpt lat="43.58836365264349" lon="11.840598100127607"><ele>523.4</ele><time>2026-04-25T08:21:44.999Z</time></trkpt><trkpt lat="43.58841271573256" lon="11.840539294640509"><ele>525.8</ele><time>2026-04-25T08:21:45.999Z</time></trkpt><trkpt lat="43.58843596495161" lon="11.840410592005519"><ele>528.1999999999999</ele><time>2026-04-25T08:21:47.999Z</time></trkpt><trkpt lat="43.5883196401262" lon="11.84028298936525"><ele>530.6</ele><time>2026-04-25T08:21:48.999Z</time></trkpt><trkpt lat="43.588269560660095" lon="11.840190382251343"><ele>533.0</ele><time>2026-04-25T08:21:49.999Z</time></trkpt><trkpt lat="43.58820547750849" lon="11.840103359853455"><ele>535.6</ele><time>2026-04-25T08:21:50.999Z</time></trkpt><trkpt lat="43.58816499966865" lon="11.839990861315302"><ele>538.1999999999999</ele><time>2026-04-25T08:21:51.999Z</time></trkpt><trkpt lat="43.58811298880033" lon="11.839873484533369"><ele>540.8</ele><time>2026-04-25T08:21:52.999Z</time></trkpt><trkpt lat="43.5880642155752" lon="11.839752645107811"><ele>543.4</ele><time>2026-04-25T08:21:53.999Z</time></trkpt><trkpt lat="43.58802648574197" lon="11.839641829390088"><ele>546.0</ele><time>2026-04-25T08:21:54.999Z</time></trkpt><trkpt lat="43.58801072524871" lon="11.839534130765855"><ele>546.0</ele><time>2026-04-25T08:21:55.999Z</time></trkpt><trkpt lat="43.58800743163814" lon="11.83941347560219"><ele>546.0</ele><time>2026-04-25T08:21:56.999Z</time></trkpt><trkpt lat="43.58801318913312" lon="11.839310648836888"><ele>546.0</ele><time>2026-04-25T08:21:57.999Z</time></trkpt><trkpt lat="43.58802418752351" lon="11.83921726090179"><ele>546.0</ele><time>2026-04-25T08:21:58.999Z</time></trkpt><trkpt lat="43.588021950495374" lon="11.839029806129744"><ele>546.0</ele><time>2026-04-25T08:22:00.999Z</time></trkpt><trkpt lat="43.58796416286315" lon="11.838909893418425"><ele>546.3333333333334</ele><time>2026-04-25T08:22:01.999Z</time></trkpt><trkpt lat="43.58789621880567" lon="11.838803038000993"><ele>546.6666666666666</ele><time>2026-04-25T08:22:02.999Z</time></trkpt><trkpt lat="43.58783916848671" lon="11.838683874833142"><ele>547.0</ele><time>2026-04-25T08:22:03.999Z</time></trkpt><trkpt lat="43.58780873897446" lon="11.838575070636137"><ele>547.3333333333333</ele><time>2026-04-25T08:22:04.999Z</time></trkpt><trkpt lat="43.58777560528719" lon="11.838499297161908"><ele>547.6666666666666</ele><time>2026-04-25T08:22:05.999Z</time></trkpt><trkpt lat="43.58771920932382" lon="11.8384508014103"><ele>548.0</ele><time>2026-04-25T08:22:06.999Z</time></trkpt><trkpt lat="43.587654888073075" lon="11.838295632612164"><ele>548.6666666666666</ele><time>2026-04-25T08:22:08.999Z</time></trkpt><trkpt lat="43.587626066220935" lon="11.83820080478789"><ele>549.3333333333333</ele><time>2026-04-25T08:22:09.999Z</time></trkpt><trkpt lat="43.587627944391315" lon="11.838097086645154"><ele>550.0</ele><time>2026-04-25T08:22:18.999Z</time></trkpt><trkpt lat="43.58760801980292" lon="11.838004244785786"><ele>550.6666666666666</ele><time>2026-04-25T08:22:19.999Z</time></trkpt><trkpt lat="43.58758964432777" lon="11.83791862145614"><ele>551.3333333333334</ele><time>2026-04-25T08:22:21Z</time></trkpt><trkpt lat="43.587577201537364" lon="11.83782825918106"><ele>552.0</ele><time>2026-04-25T08:22:23Z</time></trkpt><trkpt lat="43.587903664510094" lon="11.837691637504758"><ele>550.25</ele><time>2026-04-25T08:22:24Z</time></trkpt><trkpt lat="43.587992814784485" lon="11.837488748540887"><ele>548.5</ele><time>2026-04-25T08:22:26Z</time></trkpt><trkpt lat="43.58802737311822" lon="11.837325359570999"><ele>546.75</ele><time>2026-04-25T08:22:27Z</time></trkpt><trkpt lat="43.58805413166436" lon="11.83722054589965"><ele>545.0</ele><time>2026-04-25T08:22:28Z</time></trkpt><trkpt lat="43.58802017785596" lon="11.837083582844357"><ele>545.0</ele><time>2026-04-25T08:22:30Z</time></trkpt><trkpt lat="43.587977007625895" lon="11.83696726900391"><ele>545.0</ele><time>2026-04-25T08:22:31Z</time></trkpt><trkpt lat="43.58794745341189" lon="11.836844495134597"><ele>545.0</ele><time>2026-04-25T08:22:32Z</time></trkpt><trkpt lat="43.587959422837145" lon="11.83672932675125"><ele>545.0</ele><time>2026-04-25T08:22:33Z</time></trkpt><trkpt lat="43.58800417459309" lon="11.836597170439301"><ele>545.0</ele><time>2026-04-25T08:22:34Z</time></trkpt><trkpt lat="43.58805540402642" lon="11.836472334999312"><ele>545.1666666666666</ele><time>2026-04-25T08:22:35Z</time></trkpt><trkpt lat="43.58812680493509" lon="11.836408667329954"><ele>545.3333333333333</ele><time>2026-04-25T08:22:36Z</time></trkpt><trkpt lat="43.58818398150833" lon="11.836334394536186"><ele>545.5</ele><time>2026-04-25T08:22:37Z</time></trkpt><trkpt lat="43.58822622041286" lon="11.836250800137075"><ele>545.6666666666666</ele><time>2026-04-25T08:22:38Z</time></trkpt><trkpt lat="43.58827897364207" lon="11.836141096588369"><ele>545.8333333333334</ele><time>2026-04-25T08:22:39Z</time></trkpt><trkpt lat="43.58833746952808" lon="11.836024337484345"><ele>546.0</ele><time>2026-04-25T08:22:40Z</time></trkpt><trkpt lat="43.588385098626794" lon="11.835957322580471"><ele>547.5</ele><time>2026-04-25T08:22:41Z</time></trkpt><trkpt lat="43.58844636007299" lon="11.835915950741875"><ele>549.0</ele><time>2026-04-25T08:22:43Z</time></trkpt><trkpt lat="43.5885024350627" lon="11.835828439061393"><ele>550.5</ele><time>2026-04-25T08:22:47Z</time></trkpt><trkpt lat="43.588548988728114" lon="11.835674742583167"><ele>552.0</ele><time>2026-04-25T08:22:49Z</time></trkpt><trkpt lat="43.588581199985484" lon="11.835564517159954"><ele>553.5</ele><time>2026-04-25T08:22:51Z</time></trkpt><trkpt lat="43.58861950295199" lon="11.835477797148139"><ele>555.0</ele><time>2026-04-25T08:23:16.999Z</time></trkpt><trkpt lat="43.588677983676035" lon="11.835548039395478"><ele>555.0</ele><time>2026-04-25T08:23:21.999Z</time></trkpt><trkpt lat="43.588614661650276" lon="11.835546719938367"><ele>555.0</ele><time>2026-04-25T08:23:27.999Z</time></trkpt><trkpt lat="43.58855168659578" lon="11.835657289627877"><ele>555.0</ele><time>2026-04-25T08:23:29.999Z</time></trkpt><trkpt lat="43.58853128752195" lon="11.835785960602534"><ele>555.0</ele><time>2026-04-25T08:23:31.999Z</time></trkpt><trkpt lat="43.58848374924344" lon="11.835898332729126"><ele>555.0</ele><time>2026-04-25T08:23:33.999Z</time></trkpt><trkpt lat="43.58841250280067" lon="11.835971865611398"><ele>555.0</ele><time>2026-04-25T08:23:35.999Z</time></trkpt><trkpt lat="43.588351787264806" lon="11.836021681761798"><ele>553.5</ele><time>2026-04-25T08:23:36.999Z</time></trkpt><trkpt lat="43.588301002686634" lon="11.836097683655412"><ele>552.0</ele><time>2026-04-25T08:23:37.999Z</time></trkpt><trkpt lat="43.58825522707948" lon="11.836191212884096"><ele>550.5</ele><time>2026-04-25T08:23:38.999Z</time></trkpt><trkpt lat="43.588210151555316" lon="11.836287354922314"><ele>549.0</ele><time>2026-04-25T08:23:39.999Z</time></trkpt><trkpt lat="43.588164983332874" lon="11.836369687411965"><ele>547.5</ele><time>2026-04-25T08:23:40.999Z</time></trkpt><trkpt lat="43.58809760906905" lon="11.836484990724973"><ele>546.0</ele><time>2026-04-25T08:23:42.999Z</time></trkpt><trkpt lat="43.58805340570171" lon="11.836554794160133"><ele>546.0</ele><time>2026-04-25T08:23:43.999Z</time></trkpt><trkpt lat="43.58801380485072" lon="11.83665269628075"><ele>546.0</ele><time>2026-04-25T08:23:44.999Z</time></trkpt><trkpt lat="43.58798730334836" lon="11.836795209229406"><ele>546.0</ele><time>2026-04-25T08:23:45.999Z</time></trkpt><trkpt lat="43.587978411010575" lon="11.836894717631735"><ele>546.0</ele><time>2026-04-25T08:23:46.999Z</time></trkpt><trkpt lat="43.588022313924576" lon="11.837056922758187"><ele>546.0</ele><time>2026-04-25T08:23:48.999Z</time></trkpt><trkpt lat="43.588056674837134" lon="11.837159869368374"><ele>545.8</ele><time>2026-04-25T08:23:49.999Z</time></trkpt><trkpt lat="43.588067986333115" lon="11.837309452104153"><ele>545.6</ele><time>2026-04-25T08:23:51.999Z</time></trkpt><trkpt lat="43.58801027781016" lon="11.837480815516503"><ele>545.4</ele><time>2026-04-25T08:23:53.999Z</time></trkpt><trkpt lat="43.58796820016443" lon="11.837614178581813"><ele>545.2</ele><time>2026-04-25T08:23:54.999Z</time></trkpt><trkpt lat="43.58791377824021" lon="11.837726942427285"><ele>545.0</ele><time>2026-04-25T08:23:55.999Z</time></trkpt><trkpt lat="43.587857702232895" lon="11.837803111099708"><ele>546.1666666666666</ele><time>2026-04-25T08:23:56.999Z</time></trkpt><trkpt lat="43.58773836129094" lon="11.837865028091407"><ele>547.3333333333333</ele><time>2026-04-25T08:23:58.999Z</time></trkpt><trkpt lat="43.58767989628131" lon="11.837957421009357"><ele>548.5</ele><time>2026-04-25T08:24:00.999Z</time></trkpt><trkpt lat="43.5876049271771" lon="11.837896442284297"><ele>549.6666666666666</ele><time>2026-04-25T08:24:04.999Z</time></trkpt><trkpt lat="43.58758350572775" lon="11.83780320924847"><ele>550.8333333333334</ele><time>2026-04-25T08:24:05.999Z</time></trkpt><trkpt lat="43.58758069374846" lon="11.83769962426512"><ele>552.0</ele><time>2026-04-25T08:24:06.999Z</time></trkpt><trkpt lat="43.587585356470434" lon="11.837605327932964"><ele>553.5</ele><time>2026-04-25T08:24:07.999Z</time></trkpt><trkpt lat="43.587613783773335" lon="11.837520615651647"><ele>555.0</ele><time>2026-04-25T08:24:08.999Z</time></trkpt><trkpt lat="43.58763511639536" lon="11.837405974239406"><ele>556.5</ele><time>2026-04-25T08:24:09.999Z</time></trkpt><trkpt lat="43.587666096342915" lon="11.83726854320287"><ele>558.0</ele><time>2026-04-25T08:24:10.999Z</time></trkpt><trkpt lat="43.587700396113256" lon="11.837141398519629"><ele>559.5</ele><time>2026-04-25T08:24:11.999Z</time></trkpt><trkpt lat="43.58770201956864" lon="11.837034348800696"><ele>561.0</ele><time>2026-04-25T08:24:12.999Z</time></trkpt><trkpt lat="43.58766151180732" lon="11.836904401637016"><ele>561.8</ele><time>2026-04-25T08:24:13.999Z</time></trkpt><trkpt lat="43.58762704125115" lon="11.836757199665644"><ele>562.6</ele><time>2026-04-25T08:24:14.999Z</time></trkpt><trkpt lat="43.58762707027216" lon="11.83666730265735"><ele>563.4</ele><time>2026-04-25T08:24:15.999Z</time></trkpt><trkpt lat="43.58771102029737" lon="11.836532521215041"><ele>564.2</ele><time>2026-04-25T08:24:17.999Z</time></trkpt><trkpt lat="43.587776104137774" lon="11.836415589922918"><ele>565.0</ele><time>2026-04-25T08:24:18.999Z</time></trkpt><trkpt lat="43.58783474708148" lon="11.836305312997865"><ele>563.3333333333334</ele><time>2026-04-25T08:24:19.999Z</time></trkpt><trkpt lat="43.58788492836131" lon="11.836213080309516"><ele>561.6666666666667</ele><time>2026-04-25T08:24:20.999Z</time></trkpt><trkpt lat="43.587895054755535" lon="11.836102600681597"><ele>560.0</ele><time>2026-04-25T08:24:21.999Z</time></trkpt><trkpt lat="43.58791274338658" lon="11.835983628371395"><ele>558.3333333333334</ele><time>2026-04-25T08:24:22.999Z</time></trkpt><trkpt lat="43.587961018287444" lon="11.835869509856355"><ele>556.6666666666666</ele><time>2026-04-25T08:24:23.999Z</time></trkpt><trkpt lat="43.58800765822843" lon="11.835781311063055"><ele>555.0</ele><time>2026-04-25T08:24:24.999Z</time></trkpt><trkpt lat="43.588027838096615" lon="11.835667319580399"><ele>555.0</ele><time>2026-04-25T08:24:25.999Z</time></trkpt><trkpt lat="43.58799571670136" lon="11.835499035507382"><ele>555.0</ele><time>2026-04-25T08:24:28Z</time></trkpt><trkpt lat="43.587983308997394" lon="11.835378908395738"><ele>555.0</ele><time>2026-04-25T08:24:29Z</time></trkpt><trkpt lat="43.587951915078676" lon="11.835292351941291"><ele>555.0</ele><time>2026-04-25T08:24:30Z</time></trkpt><trkpt lat="43.58788999109929" lon="11.835198989167656"><ele>555.0</ele><time>2026-04-25T08:24:31Z</time></trkpt><trkpt lat="43.58784334134455" lon="11.835120248836704"><ele>555.0</ele><time>2026-04-25T08:24:32Z</time></trkpt><trkpt lat="43.587739618820386" lon="11.835075312556924"><ele>556.8</ele><time>2026-04-25T08:24:34Z</time></trkpt><trkpt lat="43.587673553170625" lon="11.83501102927231"><ele>558.6</ele><time>2026-04-25T08:24:35Z</time></trkpt><trkpt lat="43.58760631981807" lon="11.834925648295009"><ele>560.4</ele><time>2026-04-25T08:24:36Z</time></trkpt><trkpt lat="43.587672586931205" lon="11.83481457278558"><ele>562.2</ele><time>2026-04-25T08:24:47Z</time></trkpt><trkpt lat="43.58773084831228" lon="11.834670516862152"><ele>564.0</ele><time>2026-04-25T08:24:49Z</time></trkpt><trkpt lat="43.58781867101053" lon="11.834578182846597"><ele>564.0</ele><time>2026-04-25T08:24:51Z</time></trkpt><trkpt lat="43.587847532451775" lon="11.834446030885996"><ele>564.0</ele><time>2026-04-25T08:24:53Z</time></trkpt><trkpt lat="43.587800342846116" lon="11.834343972954729"><ele>564.0</ele><time>2026-04-25T08:24:54Z</time></trkpt><trkpt lat="43.58773760257926" lon="11.834232458784921"><ele>564.0</ele><time>2026-04-25T08:24:55Z</time></trkpt><trkpt lat="43.58771988072145" lon="11.834147494452758"><ele>564.0</ele><time>2026-04-25T08:24:56Z</time></trkpt><trkpt lat="43.5877253630372" lon="11.83404962055319"><ele>564.0</ele><time>2026-04-25T08:24:57Z</time></trkpt><trkpt lat="43.58772083911565" lon="11.833879039056862"><ele>565.1666666666666</ele><time>2026-04-25T08:24:59Z</time></trkpt><trkpt lat="43.58765089231039" lon="11.833793989336476"><ele>566.3333333333334</ele><time>2026-04-25T08:25:01Z</time></trkpt><trkpt lat="43.587590790328136" lon="11.83374232043582"><ele>567.5</ele><time>2026-04-25T08:25:02Z</time></trkpt><trkpt lat="43.58752245216961" lon="11.833674336847588"><ele>568.6666666666667</ele><time>2026-04-25T08:25:03Z</time></trkpt><trkpt lat="43.58747902376104" lon="11.833573750540804"><ele>569.8333333333334</ele><time>2026-04-25T08:25:04Z</time></trkpt><trkpt lat="43.58744385485215" lon="11.833482622064261"><ele>571.0</ele><time>2026-04-25T08:25:05Z</time></trkpt><trkpt lat="43.58740297711015" lon="11.83334980322723"><ele>571.3333333333334</ele><time>2026-04-25T08:25:07Z</time></trkpt><trkpt lat="43.58735608264004" lon="11.833251340465972"><ele>571.6666666666667</ele><time>2026-04-25T08:25:08Z</time></trkpt><trkpt lat="43.587328387512514" lon="11.833127865085022"><ele>572.0</ele><time>2026-04-25T08:25:09Z</time></trkpt><trkpt lat="43.58730486875408" lon="11.833046689788361"><ele>572.3333333333334</ele><time>2026-04-25T08:25:10Z</time></trkpt><trkpt lat="43.58725831843036" lon="11.83293845220705"><ele>572.6666666666666</ele><time>2026-04-25T08:25:11Z</time></trkpt><trkpt lat="43.587238024637934" lon="11.83282984375716"><ele>573.0</ele><time>2026-04-25T08:25:12Z</time></trkpt><trkpt lat="43.58720506633862" lon="11.83271981291639"><ele>573.1999999999999</ele><time>2026-04-25T08:25:13Z</time></trkpt><trkpt lat="43.58716112176827" lon="11.832598429886671"><ele>573.4</ele><time>2026-04-25T08:25:14Z</time></trkpt><trkpt lat="43.58712396674279" lon="11.832492260763821"><ele>573.5999999999999</ele><time>2026-04-25T08:25:15Z</time></trkpt><trkpt lat="43.58713512696012" lon="11.832317709342787"><ele>573.8</ele><time>2026-04-25T08:25:17Z</time></trkpt><trkpt lat="43.58711539983823" lon="11.832175508795936"><ele>574.0</ele><time>2026-04-25T08:25:18Z</time></trkpt><trkpt lat="43.5870515969714" lon="11.832057845366483"><ele>574.0</ele><time>2026-04-25T08:25:20Z</time></trkpt><trkpt lat="43.58702514951163" lon="11.831943963135478"><ele>574.0</ele><time>2026-04-25T08:25:21Z</time></trkpt><trkpt lat="43.5869825017751" lon="11.831815308873388"><ele>574.0</ele><time>2026-04-25T08:25:22Z</time></trkpt><trkpt lat="43.58699124062454" lon="11.831726603208706"><ele>574.0</ele><time>2026-04-25T08:25:23Z</time></trkpt><trkpt lat="43.58703386245548" lon="11.831547120451956"><ele>574.0</ele><time>2026-04-25T08:25:25Z</time></trkpt><trkpt lat="43.587028154309486" lon="11.831404015746548"><ele>572.6</ele><time>2026-04-25T08:25:25.999Z</time></trkpt><trkpt lat="43.58704981474752" lon="11.831309858718969"><ele>571.2</ele><time>2026-04-25T08:25:26.999Z</time></trkpt><trkpt lat="43.58710951452914" lon="11.831231837270053"><ele>569.8000000000001</ele><time>2026-04-25T08:25:27.999Z</time></trkpt><trkpt lat="43.58718900706037" lon="11.831125517177872"><ele>568.4</ele><time>2026-04-25T08:25:28.999Z</time></trkpt><trkpt lat="43.587271173989485" lon="11.831008191581628"><ele>567.0</ele><time>2026-04-25T08:25:29.999Z</time></trkpt><trkpt lat="43.587300660912334" lon="11.830907669585878"><ele>566.6</ele><time>2026-04-25T08:25:30.999Z</time></trkpt><trkpt lat="43.587295591720796" lon="11.830812248637569"><ele>566.2</ele><time>2026-04-25T08:25:31.999Z</time></trkpt><trkpt lat="43.58730653608828" lon="11.830708460644553"><ele>565.8</ele><time>2026-04-25T08:25:32.999Z</time></trkpt><trkpt lat="43.5873226199388" lon="11.830596214264883"><ele>565.4</ele><time>2026-04-25T08:25:33.999Z</time></trkpt><trkpt lat="43.58738285834739" lon="11.830442122932654"><ele>565.0</ele><time>2026-04-25T08:25:35.999Z</time></trkpt><trkpt lat="43.587377558830525" lon="11.830275309056203"><ele>565.0</ele><time>2026-04-25T08:25:37.999Z</time></trkpt><trkpt lat="43.5872734530611" lon="11.830302897503065"><ele>565.0</ele><time>2026-04-25T08:26:01.999Z</time></trkpt><trkpt lat="43.5871756851069" lon="11.830419107955656"><ele>565.0</ele><time>2026-04-25T08:26:03.999Z</time></trkpt><trkpt lat="43.587121255989246" lon="11.830483019796684"><ele>565.0</ele><time>2026-04-25T08:26:04.999Z</time></trkpt><trkpt lat="43.5870061100611" lon="11.830534954218379"><ele>565.0</ele><time>2026-04-25T08:26:06.999Z</time></trkpt><trkpt lat="43.586945885726045" lon="11.830601540526283"><ele>564.1666666666667</ele><time>2026-04-25T08:26:07.999Z</time></trkpt><trkpt lat="43.586856726420855" lon="11.830621655145087"><ele>563.3333333333334</ele><time>2026-04-25T08:26:09.999Z</time></trkpt><trkpt lat="43.58681835682574" lon="11.830523039460111"><ele>562.5</ele><time>2026-04-25T08:26:11.999Z</time></trkpt><trkpt lat="43.58674679248697" lon="11.830447282144656"><ele>561.6666666666666</ele><time>2026-04-25T08:26:12.999Z</time></trkpt><trkpt lat="43.586673115510465" lon="11.830403352878605"><ele>560.8333333333333</ele><time>2026-04-25T08:26:13.999Z</time></trkpt><trkpt lat="43.586612483804515" lon="11.830351915697168"><ele>560.0</ele><time>2026-04-25T08:26:14.999Z</time></trkpt><trkpt lat="43.58650475251072" lon="11.830366994135582"><ele>560.0</ele><time>2026-04-25T08:26:16.999Z</time></trkpt><trkpt lat="43.58640039393804" lon="11.83036526656172"><ele>560.0</ele><time>2026-04-25T08:26:17.999Z</time></trkpt><trkpt lat="43.586296191413815" lon="11.830359848975574"><ele>560.0</ele><time>2026-04-25T08:26:18.999Z</time></trkpt><trkpt lat="43.58620484248033" lon="11.830347249898384"><ele>560.0</ele><time>2026-04-25T08:26:19.999Z</time></trkpt><trkpt lat="43.586105730151985" lon="11.83034465446698"><ele>560.0</ele><time>2026-04-25T08:26:20.999Z</time></trkpt><trkpt lat="43.58600289833255" lon="11.83029644051339"><ele>555.8</ele><time>2026-04-25T08:26:21.999Z</time></trkpt><trkpt lat="43.58591491808004" lon="11.830256917534257"><ele>551.6</ele><time>2026-04-25T08:26:22.999Z</time></trkpt><trkpt lat="43.58583229594858" lon="11.830200452804059"><ele>547.4</ele><time>2026-04-25T08:26:23.999Z</time></trkpt><trkpt lat="43.58571657317502" lon="11.830153644573343"><ele>543.2</ele><time>2026-04-25T08:26:25.999Z</time></trkpt><trkpt lat="43.58562675065781" lon="11.830179634474362"><ele>539.0</ele><time>2026-04-25T08:26:26.999Z</time></trkpt><trkpt lat="43.58554885255278" lon="11.830173105106258"><ele>539.8</ele><time>2026-04-25T08:26:27.999Z</time></trkpt><trkpt lat="43.58549854474289" lon="11.830120736105927"><ele>540.5999999999999</ele><time>2026-04-25T08:26:28.999Z</time></trkpt><trkpt lat="43.58546466712723" lon="11.830011945242934"><ele>541.4</ele><time>2026-04-25T08:26:29.999Z</time></trkpt><trkpt lat="43.58542876112544" lon="11.829883165821787"><ele>542.1999999999999</ele><time>2026-04-25T08:26:30.999Z</time></trkpt><trkpt lat="43.58533771898547" lon="11.829750772723425"><ele>543.0</ele><time>2026-04-25T08:26:31.999Z</time></trkpt><trkpt lat="43.585275116045665" lon="11.829654144448234"><ele>541.4</ele><time>2026-04-25T08:26:33Z</time></trkpt><trkpt lat="43.58521021638108" lon="11.829588148460832"><ele>539.8</ele><time>2026-04-25T08:26:34Z</time></trkpt><trkpt lat="43.58513271567389" lon="11.82953387173802"><ele>538.2</ele><time>2026-04-25T08:26:37Z</time></trkpt><trkpt lat="43.585045066222605" lon="11.82945286758548"><ele>536.6</ele><time>2026-04-25T08:26:39Z</time></trkpt><trkpt lat="43.58500559165144" lon="11.829302561560935"><ele>535.0</ele><time>2026-04-25T08:26:41Z</time></trkpt><trkpt lat="43.58497811779473" lon="11.829210044499634"><ele>535.0</ele><time>2026-04-25T08:26:42Z</time></trkpt><trkpt lat="43.58494927336199" lon="11.829103950514858"><ele>535.0</ele><time>2026-04-25T08:26:43Z</time></trkpt><trkpt lat="43.5849194476863" lon="11.829003737507104"><ele>535.0</ele><time>2026-04-25T08:26:44Z</time></trkpt><trkpt lat="43.58489796733687" lon="11.82888428756311"><ele>535.0</ele><time>2026-04-25T08:26:45Z</time></trkpt><trkpt lat="43.584893421815266" lon="11.82874784359152"><ele>535.0</ele><time>2026-04-25T08:26:46Z</time></trkpt><trkpt lat="43.58488653626442" lon="11.828622886580009"><ele>535.0</ele><time>2026-04-25T08:26:47Z</time></trkpt><trkpt lat="43.58485239749322" lon="11.828482843055523"><ele>535.0</ele><time>2026-04-25T08:26:49Z</time></trkpt><trkpt lat="43.58481228963161" lon="11.828341354483063"><ele>535.0</ele><time>2026-04-25T08:26:51Z</time></trkpt><trkpt lat="43.58479139034544" lon="11.828217000844585"><ele>535.0</ele><time>2026-04-25T08:26:53Z</time></trkpt><trkpt lat="43.58478562826488" lon="11.828125203998209"><ele>535.0</ele><time>2026-04-25T08:26:55Z</time></trkpt><trkpt lat="43.58470331852908" lon="11.828092919049785"><ele>535.0</ele><time>2026-04-25T08:26:58Z</time></trkpt><trkpt lat="43.58461122509295" lon="11.828115812313369"><ele>535.0</ele><time>2026-04-25T08:27:00Z</time></trkpt><trkpt lat="43.58456379106279" lon="11.828055114233315"><ele>533.0</ele><time>2026-04-25T08:27:02Z</time></trkpt><trkpt lat="43.584488238565356" lon="11.827951475748254"><ele>531.0</ele><time>2026-04-25T08:27:04Z</time></trkpt><trkpt lat="43.5844171124548" lon="11.827837024044374"><ele>529.0</ele><time>2026-04-25T08:27:06Z</time></trkpt><trkpt lat="43.584377992824365" lon="11.827765222394264"><ele>527.0</ele><time>2026-04-25T08:27:07Z</time></trkpt><trkpt lat="43.58432613152381" lon="11.827696243297535"><ele>525.0</ele><time>2026-04-25T08:27:08Z</time></trkpt><trkpt lat="43.58428003586286" lon="11.827626736768567"><ele>523.0</ele><time>2026-04-25T08:27:09Z</time></trkpt><trkpt lat="43.58422805125765" lon="11.827557737444245"><ele>523.0</ele><time>2026-04-25T08:27:11Z</time></trkpt><trkpt lat="43.58416679948708" lon="11.827410682983102"><ele>523.0</ele><time>2026-04-25T08:27:13Z</time></trkpt><trkpt lat="43.58412095106351" lon="11.827280488471162"><ele>523.0</ele><time>2026-04-25T08:27:14Z</time></trkpt><trkpt lat="43.584096699613106" lon="11.827137967661729"><ele>523.0</ele><time>2026-04-25T08:27:15Z</time></trkpt><trkpt lat="43.584048777631764" lon="11.827001192157383"><ele>523.0</ele><time>2026-04-25T08:27:16Z</time></trkpt><trkpt lat="43.583985199531284" lon="11.826870440093499"><ele>524.8</ele><time>2026-04-25T08:27:17Z</time></trkpt><trkpt lat="43.58392465302519" lon="11.826743359162926"><ele>526.5999999999999</ele><time>2026-04-25T08:27:18Z</time></trkpt><trkpt lat="43.583851325518886" lon="11.826659403335025"><ele>528.4000000000001</ele><time>2026-04-25T08:27:19Z</time></trkpt><trkpt lat="43.58378373533678" lon="11.826600582335727"><ele>530.2</ele><time>2026-04-25T08:27:20Z</time></trkpt><trkpt lat="43.583729392609754" lon="11.826519138270852"><ele>532.0</ele><time>2026-04-25T08:27:22Z</time></trkpt><trkpt lat="43.58386796533965" lon="11.826469491100625"><ele>532.0</ele><time>2026-04-25T08:27:25Z</time></trkpt><trkpt lat="43.583960630111086" lon="11.826443129870322"><ele>532.0</ele><time>2026-04-25T08:27:26Z</time></trkpt><trkpt lat="43.58404961731123" lon="11.826406927497894"><ele>532.0</ele><time>2026-04-25T08:27:27Z</time></trkpt><trkpt lat="43.5841340645978" lon="11.82635314022897"><ele>532.0</ele><time>2026-04-25T08:27:27.999Z</time></trkpt><trkpt lat="43.584220083457126" lon="11.826293056176132"><ele>532.0</ele><time>2026-04-25T08:27:28.999Z</time></trkpt><trkpt lat="43.584308010518846" lon="11.826214337191606"><ele>532.0</ele><time>2026-04-25T08:27:29.999Z</time></trkpt><trkpt lat="43.584390241692" lon="11.826131099913063"><ele>532.0</ele><time>2026-04-25T08:27:30.999Z</time></trkpt><trkpt lat="43.58447502186477" lon="11.826066326904083"><ele>532.0</ele><time>2026-04-25T08:27:31.999Z</time></trkpt><trkpt lat="43.584558056130405" lon="11.826045143425732"><ele>532.0</ele><time>2026-04-25T08:27:32.999Z</time></trkpt><trkpt lat="43.58462725345347" lon="11.826016578009463"><ele>532.0</ele><time>2026-04-25T08:27:33.999Z</time></trkpt><trkpt lat="43.5846848784183" lon="11.825970924441124"><ele>532.0</ele><time>2026-04-25T08:27:34.999Z</time></trkpt><trkpt lat="43.5847401489262" lon="11.825899101791016"><ele>534.0</ele><time>2026-04-25T08:27:35.999Z</time></trkpt><trkpt lat="43.5848106161665" lon="11.825828671630148"><ele>536.0</ele><time>2026-04-25T08:27:36.999Z</time></trkpt><trkpt lat="43.58487469753659" lon="11.82573944444069"><ele>538.0</ele><time>2026-04-25T08:27:37.999Z</time></trkpt><trkpt lat="43.58494495978537" lon="11.82566036902621"><ele>540.0</ele><time>2026-04-25T08:27:38.999Z</time></trkpt><trkpt lat="43.584990643774184" lon="11.82557413626155"><ele>542.0</ele><time>2026-04-25T08:27:39.999Z</time></trkpt><trkpt lat="43.585054324030345" lon="11.82549807679338"><ele>544.0</ele><time>2026-04-25T08:27:40.999Z</time></trkpt><trkpt lat="43.58509881973953" lon="11.8254334066217"><ele>544.0</ele><time>2026-04-25T08:27:41.999Z</time></trkpt><trkpt lat="43.58514730085936" lon="11.82537561106495"><ele>544.0</ele><time>2026-04-25T08:27:42.999Z</time></trkpt><trkpt lat="43.58521075522065" lon="11.825319185095127"><ele>544.0</ele><time>2026-04-25T08:27:45.999Z</time></trkpt><trkpt lat="43.58514736704582" lon="11.825198477058985"><ele>544.0</ele><time>2026-04-25T08:27:46.999Z</time></trkpt><trkpt lat="43.58506031922806" lon="11.825129903311286"><ele>544.0</ele><time>2026-04-25T08:27:48.999Z</time></trkpt><trkpt lat="43.58505930482793" lon="11.824950930635207"><ele>545.6</ele><time>2026-04-25T08:27:52.999Z</time></trkpt><trkpt lat="43.5850517300562" lon="11.824837188505398"><ele>547.2</ele><time>2026-04-25T08:27:53.999Z</time></trkpt><trkpt lat="43.58495225630889" lon="11.824727831642571"><ele>548.8000000000001</ele><time>2026-04-25T08:27:55.999Z</time></trkpt><trkpt lat="43.58484893474553" lon="11.824753056498844"><ele>550.4</ele><time>2026-04-25T08:27:57.999Z</time></trkpt><trkpt lat="43.584761952792476" lon="11.824850270244243"><ele>552.0</ele><time>2026-04-25T08:27:59.999Z</time></trkpt><trkpt lat="43.584716250642856" lon="11.82478348978455"><ele>552.0</ele><time>2026-04-25T08:28:00.999Z</time></trkpt><trkpt lat="43.58465162365368" lon="11.824688969140126"><ele>552.0</ele><time>2026-04-25T08:28:01.999Z</time></trkpt><trkpt lat="43.58457229183175" lon="11.824636447464156"><ele>552.0</ele><time>2026-04-25T08:28:02.999Z</time></trkpt><trkpt lat="43.584487232320846" lon="11.82462820234709"><ele>552.0</ele><time>2026-04-25T08:28:03.999Z</time></trkpt><trkpt lat="43.584381415324344" lon="11.824671504329833"><ele>552.0</ele><time>2026-04-25T08:28:05.999Z</time></trkpt><trkpt lat="43.58427390943404" lon="11.824563012371442"><ele>553.0</ele><time>2026-04-25T08:28:07.999Z</time></trkpt><trkpt lat="43.58423554941575" lon="11.824488520287133"><ele>554.0</ele><time>2026-04-25T08:28:08.999Z</time></trkpt><trkpt lat="43.584218995575995" lon="11.824323702423678"><ele>555.0</ele><time>2026-04-25T08:28:10.999Z</time></trkpt><trkpt lat="43.584226170281056" lon="11.824219899746785"><ele>556.0</ele><time>2026-04-25T08:28:11.999Z</time></trkpt><trkpt lat="43.5842214987787" lon="11.8241322567995"><ele>557.0</ele><time>2026-04-25T08:28:12.999Z</time></trkpt><trkpt lat="43.58420306424527" lon="11.824042552646329"><ele>558.0</ele><time>2026-04-25T08:28:13.999Z</time></trkpt><trkpt lat="43.58417484923947" lon="11.823942845661891"><ele>559.1666666666666</ele><time>2026-04-25T08:28:14.999Z</time></trkpt><trkpt lat="43.58413596347172" lon="11.823844108689258"><ele>560.3333333333334</ele><time>2026-04-25T08:28:15.999Z</time></trkpt><trkpt lat="43.584082545882865" lon="11.823729271517326"><ele>561.5</ele><time>2026-04-25T08:28:16.999Z</time></trkpt><trkpt lat="43.58403182487841" lon="11.823626602879234"><ele>562.6666666666667</ele><time>2026-04-25T08:28:17.999Z</time></trkpt><trkpt lat="43.58399914401413" lon="11.823543635251763"><ele>563.8333333333334</ele><time>2026-04-25T08:28:18.999Z</time></trkpt><trkpt lat="43.58405143636606" lon="11.823417896801946"><ele>565.0</ele><time>2026-04-25T08:28:20.999Z</time></trkpt><trkpt lat="43.58409109924167" lon="11.823295017286176"><ele>566.6</ele><time>2026-04-25T08:28:21.999Z</time></trkpt><trkpt lat="43.58412834183604" lon="11.82313292336066"><ele>568.2</ele><time>2026-04-25T08:28:22.999Z</time></trkpt><trkpt lat="43.584133842104876" lon="11.823026104983027"><ele>569.8</ele><time>2026-04-25T08:28:23.999Z</time></trkpt><trkpt lat="43.58413468042962" lon="11.82292433508823"><ele>571.4</ele><time>2026-04-25T08:28:24.999Z</time></trkpt><trkpt lat="43.58412422682946" lon="11.822779872901586"><ele>573.0</ele><time>2026-04-25T08:28:25.999Z</time></trkpt><trkpt lat="43.58410381364572" lon="11.822623488695708"><ele>574.6</ele><time>2026-04-25T08:28:26.999Z</time></trkpt><trkpt lat="43.5840920889858" lon="11.822484089747514"><ele>576.1999999999999</ele><time>2026-04-25T08:28:27.999Z</time></trkpt><trkpt lat="43.58403781182416" lon="11.822434764733108"><ele>577.8</ele><time>2026-04-25T08:28:29.999Z</time></trkpt><trkpt lat="43.58397152485051" lon="11.822386004905965"><ele>579.4</ele><time>2026-04-25T08:28:30.999Z</time></trkpt><trkpt lat="43.583915077247504" lon="11.822271428869106"><ele>581.0</ele><time>2026-04-25T08:28:31.999Z</time></trkpt><trkpt lat="43.58388359512685" lon="11.82210833130161"><ele>581.0</ele><time>2026-04-25T08:28:32.999Z</time></trkpt><trkpt lat="43.58385489294282" lon="11.821982414245593"><ele>581.0</ele><time>2026-04-25T08:28:33.999Z</time></trkpt><trkpt lat="43.58384481676713" lon="11.82187955057072"><ele>581.0</ele><time>2026-04-25T08:28:34.999Z</time></trkpt><trkpt lat="43.58385438227998" lon="11.821766159044646"><ele>581.0</ele><time>2026-04-25T08:28:35.999Z</time></trkpt><trkpt lat="43.583839002517934" lon="11.821661676646016"><ele>581.0</ele><time>2026-04-25T08:28:36.999Z</time></trkpt><trkpt lat="43.58382717019794" lon="11.82153528932608"><ele>581.0</ele><time>2026-04-25T08:28:37.999Z</time></trkpt><trkpt lat="43.583806096855675" lon="11.82144106292002"><ele>581.6666666666666</ele><time>2026-04-25T08:28:39Z</time></trkpt><trkpt lat="43.5837606862595" lon="11.821332641861954"><ele>582.3333333333333</ele><time>2026-04-25T08:28:40Z</time></trkpt><trkpt lat="43.58370035412994" lon="11.821268415819059"><ele>583.0</ele><time>2026-04-25T08:28:41Z</time></trkpt><trkpt lat="43.5836295791172" lon="11.821250303251016"><ele>583.6666666666666</ele><time>2026-04-25T08:28:42Z</time></trkpt><trkpt lat="43.58354666958836" lon="11.821234196381386"><ele>584.3333333333334</ele><time>2026-04-25T08:28:43Z</time></trkpt><trkpt lat="43.58349460025796" lon="11.821173155453911"><ele>585.0</ele><time>2026-04-25T08:28:44Z</time></trkpt><trkpt lat="43.583458547343305" lon="11.821056826416722"><ele>587.4</ele><time>2026-04-25T08:28:45Z</time></trkpt><trkpt lat="43.58344502724518" lon="11.820950038178323"><ele>589.8</ele><time>2026-04-25T08:28:46Z</time></trkpt><trkpt lat="43.583425229316006" lon="11.820827563093536"><ele>592.2</ele><time>2026-04-25T08:28:47Z</time></trkpt><trkpt lat="43.583394559504605" lon="11.820675948717016"><ele>594.6</ele><time>2026-04-25T08:28:48Z</time></trkpt><trkpt lat="43.58336315062613" lon="11.820559662213105"><ele>597.0</ele><time>2026-04-25T08:28:49Z</time></trkpt><trkpt lat="43.58335133164152" lon="11.82044667163608"><ele>597.0</ele><time>2026-04-25T08:28:50Z</time></trkpt><trkpt lat="43.58332266984815" lon="11.820334969152452"><ele>597.0</ele><time>2026-04-25T08:28:51Z</time></trkpt><trkpt lat="43.583322930043" lon="11.820238621314754"><ele>597.0</ele><time>2026-04-25T08:28:52Z</time></trkpt><trkpt lat="43.58330990029647" lon="11.82013890083974"><ele>597.0</ele><time>2026-04-25T08:28:53Z</time></trkpt><trkpt lat="43.58330170726519" lon="11.820027924589452"><ele>597.0</ele><time>2026-04-25T08:28:54Z</time></trkpt><trkpt lat="43.583275134700905" lon="11.81991708365375"><ele>597.0</ele><time>2026-04-25T08:28:55Z</time></trkpt><trkpt lat="43.583246197104344" lon="11.819828695479252"><ele>597.8000000000001</ele><time>2026-04-25T08:28:56Z</time></trkpt><trkpt lat="43.583262720162125" lon="11.81973586499146"><ele>598.6</ele><time>2026-04-25T08:28:57Z</time></trkpt><trkpt lat="43.5832760734139" lon="11.819577045207161"><ele>599.4000000000001</ele><time>2026-04-25T08:28:58Z</time></trkpt><trkpt lat="43.583274594591984" lon="11.819399798148446"><ele>600.2</ele><time>2026-04-25T08:28:59Z</time></trkpt><trkpt lat="43.58326469176142" lon="11.819234440771273"><ele>601.0</ele><time>2026-04-25T08:29:00Z</time></trkpt><trkpt lat="43.583253262621355" lon="11.819091097068943"><ele>602.3333333333334</ele><time>2026-04-25T08:29:01Z</time></trkpt><trkpt lat="43.58324629891517" lon="11.81896152472532"><ele>603.6666666666667</ele><time>2026-04-25T08:29:02Z</time></trkpt><trkpt lat="43.58325156953518" lon="11.818869332208518"><ele>605.0</ele><time>2026-04-25T08:29:03Z</time></trkpt><trkpt lat="43.58325653017945" lon="11.818744518096024"><ele>606.3333333333334</ele><time>2026-04-25T08:29:57.999Z</time></trkpt><trkpt lat="43.583222254910865" lon="11.81863832699255"><ele>607.6666666666666</ele><time>2026-04-25T08:29:59.999Z</time></trkpt><trkpt lat="43.583192567683774" lon="11.818532809394632"><ele>609.0</ele><time>2026-04-25T08:30:01.999Z</time></trkpt><trkpt lat="43.583152583834604" lon="11.818388949473832"><ele>609.0</ele><time>2026-04-25T08:30:03.999Z</time></trkpt><trkpt lat="43.583127639252034" lon="11.818303168627555"><ele>609.0</ele><time>2026-04-25T08:30:05.999Z</time></trkpt><trkpt lat="43.58315601076202" lon="11.81842251434695"><ele>609.0</ele><time>2026-04-25T08:31:20Z</time></trkpt><trkpt lat="43.58318773781087" lon="11.818559351431709"><ele>609.0</ele><time>2026-04-25T08:31:21Z</time></trkpt><trkpt lat="43.583208437627036" lon="11.818657416094323"><ele>609.0</ele><time>2026-04-25T08:31:22Z</time></trkpt><trkpt lat="43.58323312701567" lon="11.818767658216226"><ele>609.0</ele><time>2026-04-25T08:31:24Z</time></trkpt><trkpt lat="43.58326233842596" lon="11.818896081426853"><ele>609.0</ele><time>2026-04-25T08:31:26Z</time></trkpt><trkpt lat="43.58330475478124" lon="11.818817921975938"><ele>609.0</ele><time>2026-04-25T08:31:35Z</time></trkpt><trkpt lat="43.58337123658111" lon="11.818745819515998"><ele>609.0</ele><time>2026-04-25T08:31:37Z</time></trkpt><trkpt lat="43.58342067913806" lon="11.818655400910536"><ele>609.0</ele><time>2026-04-25T08:31:38Z</time></trkpt><trkpt lat="43.58346692439999" lon="11.818590890211492"><ele>609.0</ele><time>2026-04-25T08:31:39Z</time></trkpt><trkpt lat="43.58351325544815" lon="11.818506190573805"><ele>609.0</ele><time>2026-04-25T08:31:40.999Z</time></trkpt><trkpt lat="43.583599737518504" lon="11.818393586236441"><ele>611.8</ele><time>2026-04-25T08:31:42.999Z</time></trkpt><trkpt lat="43.583705416025786" lon="11.818338815950032"><ele>614.5999999999999</ele><time>2026-04-25T08:31:44.999Z</time></trkpt><trkpt lat="43.58381359037119" lon="11.818345333806452"><ele>617.4</ele><time>2026-04-25T08:31:46.999Z</time></trkpt><trkpt lat="43.58388286956569" lon="11.818278179105272"><ele>620.1999999999999</ele><time>2026-04-25T08:31:49.999Z</time></trkpt><trkpt lat="43.5838411777563" lon="11.818180928404608"><ele>623.0</ele><time>2026-04-25T08:31:51.999Z</time></trkpt><trkpt lat="43.58385784971802" lon="11.818049175107488"><ele>623.0</ele><time>2026-04-25T08:31:53.999Z</time></trkpt><trkpt lat="43.583880991066216" lon="11.81795587560944"><ele>623.0</ele><time>2026-04-25T08:31:54.999Z</time></trkpt><trkpt lat="43.58391907824037" lon="11.817878099501398"><ele>623.0</ele><time>2026-04-25T08:31:55.999Z</time></trkpt><trkpt lat="43.58395892813814" lon="11.817759397887981"><ele>623.0</ele><time>2026-04-25T08:31:57.999Z</time></trkpt><trkpt lat="43.58396255418815" lon="11.817636857688555"><ele>623.0</ele><time>2026-04-25T08:31:58.999Z</time></trkpt><trkpt lat="43.583978475810284" lon="11.817525647601979"><ele>623.0</ele><time>2026-04-25T08:31:59.999Z</time></trkpt><trkpt lat="43.58398965645914" lon="11.817372549764093"><ele>625.4</ele><time>2026-04-25T08:32:01.999Z</time></trkpt><trkpt lat="43.58410459388563" lon="11.817350526591715"><ele>627.8</ele><time>2026-04-25T08:32:03.999Z</time></trkpt><trkpt lat="43.58414714684516" lon="11.817202825220638"><ele>630.2</ele><time>2026-04-25T08:32:05.999Z</time></trkpt><trkpt lat="43.584143679004704" lon="11.81710247540113"><ele>632.6</ele><time>2026-04-25T08:32:06.999Z</time></trkpt><trkpt lat="43.584114793656184" lon="11.816999816004836"><ele>635.0</ele><time>2026-04-25T08:32:08.999Z</time></trkpt><trkpt lat="43.58412567324952" lon="11.816847108441708"><ele>637.0</ele><time>2026-04-25T08:32:10.999Z</time></trkpt><trkpt lat="43.58419932063576" lon="11.816724964743848"><ele>639.0</ele><time>2026-04-25T08:32:12.999Z</time></trkpt><trkpt lat="43.584229249281265" lon="11.816595482160055"><ele>641.0</ele><time>2026-04-25T08:32:14.999Z</time></trkpt><trkpt lat="43.58424386744279" lon="11.816493591259631"><ele>643.0</ele><time>2026-04-25T08:32:16.999Z</time></trkpt><trkpt lat="43.58422751369075" lon="11.8163751401143"><ele>645.0</ele><time>2026-04-25T08:32:18.999Z</time></trkpt><trkpt lat="43.58427618999506" lon="11.816270280114201"><ele>645.0</ele><time>2026-04-25T08:32:20.999Z</time></trkpt><trkpt lat="43.58432363981225" lon="11.816181832941961"><ele>645.0</ele><time>2026-04-25T08:32:22.999Z</time></trkpt><trkpt lat="43.584386967396306" lon="11.816141394107463"><ele>645.0</ele><time>2026-04-25T08:32:24.999Z</time></trkpt><trkpt lat="43.58442861334562" lon="11.816060134501033"><ele>645.0</ele><time>2026-04-25T08:32:26.999Z</time></trkpt><trkpt lat="43.584418863065856" lon="11.815946165647182"><ele>645.0</ele><time>2026-04-25T08:32:28.999Z</time></trkpt><trkpt lat="43.58447655139697" lon="11.815985260129946"><ele>645.0</ele><time>2026-04-25T08:32:32.999Z</time></trkpt><trkpt lat="43.58454033748749" lon="11.815928187954023"><ele>645.0</ele><time>2026-04-25T08:32:34.999Z</time></trkpt><trkpt lat="43.58455954724216" lon="11.815827028150615"><ele>650.0</ele><time>2026-04-25T08:32:36.999Z</time></trkpt><trkpt lat="43.58460618677562" lon="11.815709217191916"><ele>655.0</ele><time>2026-04-25T08:32:38.999Z</time></trkpt><trkpt lat="43.58467762424949" lon="11.815722370870876"><ele>660.0</ele><time>2026-04-25T08:32:40.999Z</time></trkpt><trkpt lat="43.58476581217677" lon="11.815717927253692"><ele>665.0</ele><time>2026-04-25T08:32:42.999Z</time></trkpt><trkpt lat="43.5848568926759" lon="11.815704539393838"><ele>670.0</ele><time>2026-04-25T08:32:44.999Z</time></trkpt><trkpt lat="43.584898534415125" lon="11.81563104400801"><ele>675.0</ele><time>2026-04-25T08:32:46.999Z</time></trkpt><trkpt lat="43.58499364860244" lon="11.815629739947346"><ele>675.0</ele><time>2026-04-25T08:32:48.999Z</time></trkpt><trkpt lat="43.58502765233796" lon="11.815554701008182"><ele>675.0</ele><time>2026-04-25T08:32:51Z</time></trkpt><trkpt lat="43.58506057955762" lon="11.815439831116466"><ele>675.0</ele><time>2026-04-25T08:32:53Z</time></trkpt><trkpt lat="43.585010666887754" lon="11.81537856272951"><ele>675.0</ele><time>2026-04-25T08:33:32Z</time></trkpt><trkpt lat="43.58494239539452" lon="11.815328637383983"><ele>675.0</ele><time>2026-04-25T08:33:34Z</time></trkpt><trkpt lat="43.58491554804852" lon="11.815231431765056"><ele>675.0</ele><time>2026-04-25T08:33:37Z</time></trkpt><trkpt lat="43.584904609181585" lon="11.81513599101514"><ele>675.0</ele><time>2026-04-25T08:33:40Z</time></trkpt><trkpt lat="43.584924500342765" lon="11.815036386806332"><ele>675.2</ele><time>2026-04-25T08:33:43Z</time></trkpt><trkpt lat="43.58496479041398" lon="11.814936382885564"><ele>675.4</ele><time>2026-04-25T08:33:45Z</time></trkpt><trkpt lat="43.58500363630419" lon="11.814823344689163"><ele>675.5999999999999</ele><time>2026-04-25T08:33:48Z</time></trkpt><trkpt lat="43.58506832745192" lon="11.814714473651376"><ele>675.8</ele><time>2026-04-25T08:33:50Z</time></trkpt><trkpt lat="43.58514730976417" lon="11.814676027608751"><ele>676.0</ele><time>2026-04-25T08:33:51.999Z</time></trkpt><trkpt lat="43.58522988572103" lon="11.814589101483389"><ele>676.0</ele><time>2026-04-25T08:33:53.999Z</time></trkpt><trkpt lat="43.585264948609236" lon="11.814452757565231"><ele>676.0</ele><time>2026-04-25T08:33:55.999Z</time></trkpt><trkpt lat="43.58526041959839" lon="11.814303910627169"><ele>676.0</ele><time>2026-04-25T08:33:57.999Z</time></trkpt><trkpt lat="43.58524724155674" lon="11.814128737755315"><ele>676.0</ele><time>2026-04-25T08:33:59.999Z</time></trkpt><trkpt lat="43.58525782249473" lon="11.814032064971066"><ele>676.0</ele><time>2026-04-25T08:34:00.999Z</time></trkpt><trkpt lat="43.585268612013294" lon="11.813917617040909"><ele>674.5999999999999</ele><time>2026-04-25T08:34:01.999Z</time></trkpt><trkpt lat="43.58524770142139" lon="11.813760068488271"><ele>673.2</ele><time>2026-04-25T08:34:03.999Z</time></trkpt><trkpt lat="43.585238191382444" lon="11.813672745002723"><ele>671.8</ele><time>2026-04-25T08:34:05.999Z</time></trkpt><trkpt lat="43.585216287857264" lon="11.813473709882883"><ele>670.4000000000001</ele><time>2026-04-25T08:34:07.999Z</time></trkpt><trkpt lat="43.585204196235246" lon="11.813348748697567"><ele>669.0</ele><time>2026-04-25T08:34:08.999Z</time></trkpt><trkpt lat="43.58519263287318" lon="11.813263012609418"><ele>669.0</ele><time>2026-04-25T08:34:09.999Z</time></trkpt><trkpt lat="43.58518963451399" lon="11.813168040713219"><ele>669.0</ele><time>2026-04-25T08:34:10.999Z</time></trkpt><trkpt lat="43.58521376241817" lon="11.81308772258444"><ele>669.0</ele><time>2026-04-25T08:34:11.999Z</time></trkpt><trkpt lat="43.58522924641099" lon="11.812996540801283"><ele>669.0</ele><time>2026-04-25T08:34:12.999Z</time></trkpt><trkpt lat="43.585192378668424" lon="11.812847129505013"><ele>669.0</ele><time>2026-04-25T08:34:14.999Z</time></trkpt><trkpt lat="43.58524432868951" lon="11.812686267302716"><ele>669.0</ele><time>2026-04-25T08:34:16.999Z</time></trkpt><trkpt lat="43.585267690367786" lon="11.812597946629854"><ele>670.0</ele><time>2026-04-25T08:34:17.999Z</time></trkpt><trkpt lat="43.58526009963743" lon="11.81245312661774"><ele>671.0</ele><time>2026-04-25T08:34:19.999Z</time></trkpt><trkpt lat="43.58524534233595" lon="11.812347460072651"><ele>672.0</ele><time>2026-04-25T08:34:21.999Z</time></trkpt><trkpt lat="43.585227204278006" lon="11.81221430045988"><ele>673.0</ele><time>2026-04-25T08:34:23.999Z</time></trkpt><trkpt lat="43.58520537116188" lon="11.812116444234698"><ele>674.0</ele><time>2026-04-25T08:34:25.999Z</time></trkpt><trkpt lat="43.58516511827066" lon="11.812027957621831"><ele>675.0</ele><time>2026-04-25T08:34:27.999Z</time></trkpt><trkpt lat="43.585150028070046" lon="11.811942265158168"><ele>675.0</ele><time>2026-04-25T08:34:29.999Z</time></trkpt><trkpt lat="43.58512260539276" lon="11.811857452623633"><ele>675.0</ele><time>2026-04-25T08:34:31.999Z</time></trkpt><trkpt lat="43.58509536676783" lon="11.811765319679022"><ele>675.0</ele><time>2026-04-25T08:34:33.999Z</time></trkpt><trkpt lat="43.58506107066224" lon="11.811638181413876"><ele>675.0</ele><time>2026-04-25T08:34:35.999Z</time></trkpt><trkpt lat="43.58498946918792" lon="11.81158471510277"><ele>675.0</ele><time>2026-04-25T08:34:37.999Z</time></trkpt><trkpt lat="43.58488191282587" lon="11.811568152685057"><ele>675.0</ele><time>2026-04-25T08:34:39.999Z</time></trkpt><trkpt lat="43.58483049741975" lon="11.811481826860966"><ele>677.1666666666666</ele><time>2026-04-25T08:34:41.999Z</time></trkpt><trkpt lat="43.58484092631388" lon="11.81138335220695"><ele>679.3333333333334</ele><time>2026-04-25T08:34:43.999Z</time></trkpt><trkpt lat="43.58487549951374" lon="11.811272602132185"><ele>681.5</ele><time>2026-04-25T08:34:46.999Z</time></trkpt><trkpt lat="43.58490910614615" lon="11.811164138439429"><ele>683.6666666666667</ele><time>2026-04-25T08:34:49.999Z</time></trkpt><trkpt lat="43.58495897517761" lon="11.81108112146108"><ele>685.8333333333334</ele><time>2026-04-25T08:34:52.999Z</time></trkpt><trkpt lat="43.58501538901406" lon="11.811014701621101"><ele>688.0</ele><time>2026-04-25T08:34:54.999Z</time></trkpt><trkpt lat="43.58504742890266" lon="11.81089124026937"><ele>688.8333333333334</ele><time>2026-04-25T08:34:57Z</time></trkpt><trkpt lat="43.58508418977562" lon="11.810807105396561"><ele>689.6666666666667</ele><time>2026-04-25T08:34:58Z</time></trkpt><trkpt lat="43.585131963250845" lon="11.81073228448748"><ele>690.5</ele><time>2026-04-25T08:34:59Z</time></trkpt><trkpt lat="43.585159696823865" lon="11.810567041687426"><ele>691.3333333333334</ele><time>2026-04-25T08:35:01Z</time></trkpt><trkpt lat="43.58513427035008" lon="11.810469812102705"><ele>692.1666666666666</ele><time>2026-04-25T08:35:03Z</time></trkpt><trkpt lat="43.585150721392615" lon="11.810338365201721"><ele>693.0</ele><time>2026-04-25T08:35:06Z</time></trkpt><trkpt lat="43.58515755847486" lon="11.81021852071701"><ele>693.0</ele><time>2026-04-25T08:35:08Z</time></trkpt><trkpt lat="43.58518373644055" lon="11.81010395912207"><ele>693.0</ele><time>2026-04-25T08:35:10Z</time></trkpt><trkpt lat="43.58525587289034" lon="11.809976556578626"><ele>693.0</ele><time>2026-04-25T08:35:12Z</time></trkpt><trkpt lat="43.58532464368094" lon="11.80982989590885"><ele>693.0</ele><time>2026-04-25T08:35:14Z</time></trkpt><trkpt lat="43.58538577559595" lon="11.809733367385947"><ele>693.0</ele><time>2026-04-25T08:35:15Z</time></trkpt><trkpt lat="43.58543953934267" lon="11.809630398276513"><ele>692.5714285714286</ele><time>2026-04-25T08:35:16Z</time></trkpt><trkpt lat="43.585473751927644" lon="11.809529087596276"><ele>692.1428571428571</ele><time>2026-04-25T08:35:17Z</time></trkpt><trkpt lat="43.585503921698084" lon="11.809423468917688"><ele>691.7142857142858</ele><time>2026-04-25T08:35:18Z</time></trkpt><trkpt lat="43.58554186494209" lon="11.809346837397692"><ele>691.2857142857142</ele><time>2026-04-25T08:35:19Z</time></trkpt><trkpt lat="43.58561328945766" lon="11.809286446054431"><ele>690.8571428571429</ele><time>2026-04-25T08:35:20Z</time></trkpt><trkpt lat="43.585680043743345" lon="11.809260821135139"><ele>690.4285714285714</ele><time>2026-04-25T08:35:21Z</time></trkpt><trkpt lat="43.585744220296405" lon="11.809243015882231"><ele>690.0</ele><time>2026-04-25T08:35:22Z</time></trkpt><trkpt lat="43.58581747705374" lon="11.809221193544778"><ele>691.0</ele><time>2026-04-25T08:35:23Z</time></trkpt><trkpt lat="43.58588969643908" lon="11.809216315701521"><ele>692.0</ele><time>2026-04-25T08:35:24Z</time></trkpt><trkpt lat="43.58595094258674" lon="11.809191266559303"><ele>693.0</ele><time>2026-04-25T08:35:25Z</time></trkpt><trkpt lat="43.586003063100904" lon="11.809121821967095"><ele>694.0</ele><time>2026-04-25T08:35:26Z</time></trkpt><trkpt lat="43.586073115981506" lon="11.809032017050917"><ele>695.0</ele><time>2026-04-25T08:35:27Z</time></trkpt><trkpt lat="43.58614248049178" lon="11.809006165052415"><ele>696.0</ele><time>2026-04-25T08:35:28Z</time></trkpt><trkpt lat="43.58620702859308" lon="11.808955187647342"><ele>693.0</ele><time>2026-04-25T08:35:29Z</time></trkpt><trkpt lat="43.58626280021557" lon="11.808871798709724"><ele>690.0</ele><time>2026-04-25T08:35:30Z</time></trkpt><trkpt lat="43.58631460791811" lon="11.808786812943945"><ele>687.0</ele><time>2026-04-25T08:35:31Z</time></trkpt><trkpt lat="43.586351915422235" lon="11.808693903791148"><ele>684.0</ele><time>2026-04-25T08:35:32Z</time></trkpt><trkpt lat="43.58636920561678" lon="11.808581252078126"><ele>681.0</ele><time>2026-04-25T08:35:33Z</time></trkpt><trkpt lat="43.586398434605805" lon="11.808470761079647"><ele>678.0</ele><time>2026-04-25T08:35:34Z</time></trkpt><trkpt lat="43.58645961705165" lon="11.808374969155572"><ele>677.8333333333334</ele><time>2026-04-25T08:35:35Z</time></trkpt><trkpt lat="43.58652099561794" lon="11.80825925406192"><ele>677.6666666666666</ele><time>2026-04-25T08:35:36Z</time></trkpt><trkpt lat="43.58656969778233" lon="11.808175214039842"><ele>677.5</ele><time>2026-04-25T08:35:37Z</time></trkpt><trkpt lat="43.586647373914474" lon="11.808106946374808"><ele>677.3333333333333</ele><time>2026-04-25T08:35:38Z</time></trkpt><trkpt lat="43.586718440859755" lon="11.808060731431596"><ele>677.1666666666666</ele><time>2026-04-25T08:35:39Z</time></trkpt><trkpt lat="43.586777968893294" lon="11.80798877092792"><ele>677.0</ele><time>2026-04-25T08:35:40Z</time></trkpt><trkpt lat="43.58683866444357" lon="11.807900299612237"><ele>677.0</ele><time>2026-04-25T08:35:41Z</time></trkpt><trkpt lat="43.586884530758155" lon="11.807814076884775"><ele>677.0</ele><time>2026-04-25T08:35:42Z</time></trkpt><trkpt lat="43.58687187430661" lon="11.807604925156724"><ele>677.0</ele><time>2026-04-25T08:35:44Z</time></trkpt><trkpt lat="43.586907081854136" lon="11.80742206549347"><ele>677.0</ele><time>2026-04-25T08:35:46Z</time></trkpt><trkpt lat="43.5869783922939" lon="11.807351341295238"><ele>674.2</ele><time>2026-04-25T08:35:47Z</time></trkpt><trkpt lat="43.58705291562674" lon="11.80727093407652"><ele>671.4000000000001</ele><time>2026-04-25T08:35:48Z</time></trkpt><trkpt lat="43.587139679328935" lon="11.80713477078076"><ele>668.5999999999999</ele><time>2026-04-25T08:35:49Z</time></trkpt><trkpt lat="43.58721369788892" lon="11.807011277874189"><ele>665.8</ele><time>2026-04-25T08:35:50Z</time></trkpt><trkpt lat="43.58727943497335" lon="11.80690460600479"><ele>663.0</ele><time>2026-04-25T08:35:51Z</time></trkpt><trkpt lat="43.58734653544629" lon="11.806800989183289"><ele>662.2</ele><time>2026-04-25T08:35:52Z</time></trkpt><trkpt lat="43.58739420951692" lon="11.806710429333945"><ele>661.4</ele><time>2026-04-25T08:35:53Z</time></trkpt><trkpt lat="43.58740652997251" lon="11.80660124323304"><ele>660.6</ele><time>2026-04-25T08:35:53.999Z</time></trkpt><trkpt lat="43.587412831181275" lon="11.806453022597818"><ele>659.8000000000001</ele><time>2026-04-25T08:35:54.999Z</time></trkpt><trkpt lat="43.587415072085676" lon="11.80629615716225"><ele>659.0</ele><time>2026-04-25T08:35:55.999Z</time></trkpt><trkpt lat="43.587441627513755" lon="11.806172879344441"><ele>659.0</ele><time>2026-04-25T08:35:56.999Z</time></trkpt><trkpt lat="43.5874909006378" lon="11.806078268149388"><ele>659.0</ele><time>2026-04-25T08:35:57.999Z</time></trkpt><trkpt lat="43.58754545600409" lon="11.806017075627851"><ele>659.0</ele><time>2026-04-25T08:35:58.999Z</time></trkpt><trkpt lat="43.587564028681236" lon="11.805855114879485"><ele>659.0</ele><time>2026-04-25T08:36:00.999Z</time></trkpt><trkpt lat="43.58764347974994" lon="11.805801821310506"><ele>659.0</ele><time>2026-04-25T08:36:02.999Z</time></trkpt><trkpt lat="43.587799264482356" lon="11.80579309254523"><ele>657.4000000000001</ele><time>2026-04-25T08:36:04.999Z</time></trkpt><trkpt lat="43.58790575957621" lon="11.805739386774102"><ele>655.8</ele><time>2026-04-25T08:36:05.999Z</time></trkpt><trkpt lat="43.58798995551686" lon="11.805658515917548"><ele>654.2</ele><time>2026-04-25T08:36:06.999Z</time></trkpt><trkpt lat="43.58806434527701" lon="11.805626266201559"><ele>652.5999999999999</ele><time>2026-04-25T08:36:07.999Z</time></trkpt><trkpt lat="43.588163521905486" lon="11.805605414182395"><ele>651.0</ele><time>2026-04-25T08:36:08.999Z</time></trkpt><trkpt lat="43.58826813993183" lon="11.805561239262378"><ele>651.0</ele><time>2026-04-25T08:36:09.999Z</time></trkpt><trkpt lat="43.588363202449074" lon="11.805519906796853"><ele>651.0</ele><time>2026-04-25T08:36:10.999Z</time></trkpt><trkpt lat="43.588449108121495" lon="11.805515531250773"><ele>651.0</ele><time>2026-04-25T08:36:11.999Z</time></trkpt><trkpt lat="43.588563608821495" lon="11.805518722024686"><ele>651.0</ele><time>2026-04-25T08:36:12.999Z</time></trkpt><trkpt lat="43.58867630889016" lon="11.805519525772688"><ele>651.0</ele><time>2026-04-25T08:36:13.999Z</time></trkpt><trkpt lat="43.5887750844134" lon="11.805510046568957"><ele>649.8333333333334</ele><time>2026-04-25T08:36:14.999Z</time></trkpt><trkpt lat="43.58886208658951" lon="11.805489259124885"><ele>648.6666666666666</ele><time>2026-04-25T08:36:15.999Z</time></trkpt><trkpt lat="43.588963831988416" lon="11.805453117676176"><ele>647.5</ele><time>2026-04-25T08:36:16.999Z</time></trkpt><trkpt lat="43.589058233588254" lon="11.80544329476693"><ele>646.3333333333333</ele><time>2026-04-25T08:36:17.999Z</time></trkpt><trkpt lat="43.589128131596915" lon="11.80543808472848"><ele>645.1666666666666</ele><time>2026-04-25T08:36:18.999Z</time></trkpt><trkpt lat="43.5891989325752" lon="11.805403043887305"><ele>644.0</ele><time>2026-04-25T08:36:19.999Z</time></trkpt><trkpt lat="43.58925621905851" lon="11.805305963487113"><ele>644.0</ele><time>2026-04-25T08:36:20.999Z</time></trkpt><trkpt lat="43.58932323633835" lon="11.805256639339595"><ele>644.0</ele><time>2026-04-25T08:36:21.999Z</time></trkpt><trkpt lat="43.58940734057121" lon="11.805247120194952"><ele>644.0</ele><time>2026-04-25T08:36:22.999Z</time></trkpt><trkpt lat="43.589505213763" lon="11.805250366036365"><ele>644.0</ele><time>2026-04-25T08:36:23.999Z</time></trkpt><trkpt lat="43.58960526798835" lon="11.805232483231581"><ele>644.0</ele><time>2026-04-25T08:36:24.999Z</time></trkpt><trkpt lat="43.589677259407566" lon="11.805196186716802"><ele>644.0</ele><time>2026-04-25T08:36:25.999Z</time></trkpt><trkpt lat="43.589767212459854" lon="11.805201531472223"><ele>641.4000000000001</ele><time>2026-04-25T08:36:26.999Z</time></trkpt><trkpt lat="43.58986959124276" lon="11.805232993690115"><ele>638.8000000000001</ele><time>2026-04-25T08:36:27.999Z</time></trkpt><trkpt lat="43.589957641796246" lon="11.805269866272326"><ele>636.2</ele><time>2026-04-25T08:36:28.999Z</time></trkpt><trkpt lat="43.59004309398926" lon="11.80524725462295"><ele>633.6</ele><time>2026-04-25T08:36:29.999Z</time></trkpt><trkpt lat="43.590129522889804" lon="11.805195983068185"><ele>631.0</ele><time>2026-04-25T08:36:30.999Z</time></trkpt><trkpt lat="43.590214322282904" lon="11.805187921160751"><ele>631.0</ele><time>2026-04-25T08:36:31.999Z</time></trkpt><trkpt lat="43.590301269951055" lon="11.805199501565015"><ele>631.0</ele><time>2026-04-25T08:36:32.999Z</time></trkpt><trkpt lat="43.59036496252053" lon="11.805229135699792"><ele>631.0</ele><time>2026-04-25T08:36:33.999Z</time></trkpt><trkpt lat="43.590433890992735" lon="11.80530818521051"><ele>631.0</ele><time>2026-04-25T08:36:34.999Z</time></trkpt><trkpt lat="43.590505454976764" lon="11.805391007349737"><ele>631.0</ele><time>2026-04-25T08:36:35.999Z</time></trkpt><trkpt lat="43.590566923422806" lon="11.805449924465691"><ele>631.0</ele><time>2026-04-25T08:36:36.999Z</time></trkpt><trkpt lat="43.59065441058022" lon="11.805473855686152"><ele>628.4</ele><time>2026-04-25T08:36:37.999Z</time></trkpt><trkpt lat="43.5907533625877" lon="11.805498895647698"><ele>625.8</ele><time>2026-04-25T08:36:38.999Z</time></trkpt><trkpt lat="43.59083873592764" lon="11.80552033090722"><ele>623.1999999999999</ele><time>2026-04-25T08:36:39.999Z</time></trkpt><trkpt lat="43.59092495468057" lon="11.805534568008126"><ele>620.6</ele><time>2026-04-25T08:36:40.999Z</time></trkpt><trkpt lat="43.591013638625796" lon="11.805575506940498"><ele>618.0</ele><time>2026-04-25T08:36:41.999Z</time></trkpt><trkpt lat="43.591092515507874" lon="11.805641471952894"><ele>618.0</ele><time>2026-04-25T08:36:42.999Z</time></trkpt><trkpt lat="43.59114577012491" lon="11.80570585780832"><ele>618.0</ele><time>2026-04-25T08:36:43.999Z</time></trkpt><trkpt lat="43.59126248466843" lon="11.805700978735915"><ele>618.0</ele><time>2026-04-25T08:36:45.999Z</time></trkpt><trkpt lat="43.59137042215333" lon="11.805627633080757"><ele>618.0</ele><time>2026-04-25T08:36:46.999Z</time></trkpt><trkpt lat="43.59146032229076" lon="11.805662666782174"><ele>618.0</ele><time>2026-04-25T08:36:47.999Z</time></trkpt><trkpt lat="43.59157239273174" lon="11.80569567964655"><ele>615.1999999999999</ele><time>2026-04-25T08:36:48.999Z</time></trkpt><trkpt lat="43.59167398730102" lon="11.80567549636915"><ele>612.4</ele><time>2026-04-25T08:36:49.999Z</time></trkpt><trkpt lat="43.591776029382785" lon="11.805665122999137"><ele>609.5999999999999</ele><time>2026-04-25T08:36:50.999Z</time></trkpt><trkpt lat="43.59188124024493" lon="11.80567183902832"><ele>606.8</ele><time>2026-04-25T08:36:51.999Z</time></trkpt><trkpt lat="43.5919535190806" lon="11.805694122368521"><ele>604.0</ele><time>2026-04-25T08:36:52.999Z</time></trkpt><trkpt lat="43.592027957003594" lon="11.80571163740424"><ele>599.6</ele><time>2026-04-25T08:36:53.999Z</time></trkpt><trkpt lat="43.5921448788307" lon="11.805804240237867"><ele>595.2</ele><time>2026-04-25T08:36:55.999Z</time></trkpt><trkpt lat="43.59221079930521" lon="11.805915723210857"><ele>590.8000000000001</ele><time>2026-04-25T08:36:56.999Z</time></trkpt><trkpt lat="43.59227411777184" lon="11.806021531404204"><ele>586.4</ele><time>2026-04-25T08:36:57.999Z</time></trkpt><trkpt lat="43.59233833420466" lon="11.806133138927756"><ele>582.0</ele><time>2026-04-25T08:36:58.999Z</time></trkpt><trkpt lat="43.59240945744702" lon="11.806222119515622"><ele>581.6</ele><time>2026-04-25T08:36:59.999Z</time></trkpt><trkpt lat="43.59249331451992" lon="11.806315915966264"><ele>581.2</ele><time>2026-04-25T08:37:00.999Z</time></trkpt><trkpt lat="43.592579595885866" lon="11.806422906829026"><ele>580.8</ele><time>2026-04-25T08:37:01.999Z</time></trkpt><trkpt lat="43.592663350840986" lon="11.806514346628985"><ele>580.4</ele><time>2026-04-25T08:37:03Z</time></trkpt><trkpt lat="43.592738066501305" lon="11.80657206345456"><ele>580.0</ele><time>2026-04-25T08:37:04Z</time></trkpt><trkpt lat="43.592801600787794" lon="11.806594215534318"><ele>579.8</ele><time>2026-04-25T08:37:06Z</time></trkpt><trkpt lat="43.592880764120025" lon="11.806593728694093"><ele>579.6</ele><time>2026-04-25T08:39:30Z</time></trkpt><trkpt lat="43.59295370873265" lon="11.806693569477634"><ele>579.4</ele><time>2026-04-25T08:39:32Z</time></trkpt><trkpt lat="43.59301828976399" lon="11.806746229347333"><ele>579.2</ele><time>2026-04-25T08:39:35Z</time></trkpt><trkpt lat="43.59304134116654" lon="11.806837782348506"><ele>579.0</ele><time>2026-04-25T08:39:39Z</time></trkpt><trkpt lat="43.59311282902412" lon="11.806978631295737"><ele>579.0</ele><time>2026-04-25T08:39:41Z</time></trkpt><trkpt lat="43.593168708026276" lon="11.80705565990198"><ele>579.0</ele><time>2026-04-25T08:39:42Z</time></trkpt><trkpt lat="43.5932279509968" lon="11.807161513791513"><ele>579.0</ele><time>2026-04-25T08:39:43Z</time></trkpt><trkpt lat="43.59326123375151" lon="11.807284679936549"><ele>579.0</ele><time>2026-04-25T08:39:44Z</time></trkpt><trkpt lat="43.59328608744238" lon="11.807416473735035"><ele>579.0</ele><time>2026-04-25T08:39:45Z</time></trkpt><trkpt lat="43.59330728113752" lon="11.80752664921566"><ele>579.0</ele><time>2026-04-25T08:39:46Z</time></trkpt><trkpt lat="43.593321914442924" lon="11.807624508344512"><ele>579.0</ele><time>2026-04-25T08:39:47Z</time></trkpt><trkpt lat="43.59338324343893" lon="11.807715639965677"><ele>579.0</ele><time>2026-04-25T08:39:48Z</time></trkpt><trkpt lat="43.59344827709651" lon="11.8077724855636"><ele>579.0</ele><time>2026-04-25T08:39:49Z</time></trkpt><trkpt lat="43.59351979576756" lon="11.807814227842199"><ele>579.0</ele><time>2026-04-25T08:39:51Z</time></trkpt><trkpt lat="43.59361441006639" lon="11.807891486177645"><ele>579.0</ele><time>2026-04-25T08:39:53Z</time></trkpt><trkpt lat="43.59367275897247" lon="11.80796039252533"><ele>579.0</ele><time>2026-04-25T08:39:54Z</time></trkpt><trkpt lat="43.59369200905466" lon="11.808043581684355"><ele>579.0</ele><time>2026-04-25T08:39:55Z</time></trkpt><trkpt lat="43.593733802003726" lon="11.808115206867068"><ele>579.0</ele><time>2026-04-25T08:39:56Z</time></trkpt><trkpt lat="43.593768313611434" lon="11.8082066185735"><ele>579.0</ele><time>2026-04-25T08:39:57Z</time></trkpt><trkpt lat="43.59379305291264" lon="11.808307764481018"><ele>579.0</ele><time>2026-04-25T08:39:58Z</time></trkpt><trkpt lat="43.59389428193124" lon="11.80843582264017"><ele>579.0</ele><time>2026-04-25T08:39:59.999Z</time></trkpt><trkpt lat="43.59396286496766" lon="11.80849242238883"><ele>577.5</ele><time>2026-04-25T08:40:00.999Z</time></trkpt><trkpt lat="43.59405095652866" lon="11.80854698901905"><ele>576.0</ele><time>2026-04-25T08:40:01.999Z</time></trkpt><trkpt lat="43.594127602866166" lon="11.808610992532818"><ele>574.5</ele><time>2026-04-25T08:40:03.999Z</time></trkpt><trkpt lat="43.594206633359875" lon="11.808688057636203"><ele>573.0</ele><time>2026-04-25T08:40:05.999Z</time></trkpt><trkpt lat="43.594264629898205" lon="11.808733970418873"><ele>571.5</ele><time>2026-04-25T08:40:06.999Z</time></trkpt><trkpt lat="43.59433540809311" lon="11.808803103156281"><ele>570.0</ele><time>2026-04-25T08:40:07.999Z</time></trkpt><trkpt lat="43.594378327394516" lon="11.80886918163395"><ele>570.0</ele><time>2026-04-25T08:40:08.999Z</time></trkpt><trkpt lat="43.59442143347921" lon="11.808942968214959"><ele>570.0</ele><time>2026-04-25T08:40:09.999Z</time></trkpt><trkpt lat="43.594468174215464" lon="11.80905068980421"><ele>570.0</ele><time>2026-04-25T08:40:11.999Z</time></trkpt><trkpt lat="43.59449548575318" lon="11.809176461098293"><ele>570.0</ele><time>2026-04-25T08:40:13.999Z</time></trkpt><trkpt lat="43.594542581283065" lon="11.809300701952218"><ele>570.0</ele><time>2026-04-25T08:40:15.999Z</time></trkpt><trkpt lat="43.59455882379937" lon="11.809402131877134"><ele>570.0</ele><time>2026-04-25T08:40:18.999Z</time></trkpt><trkpt lat="43.59456541400571" lon="11.80950078544482"><ele>570.1666666666666</ele><time>2026-04-25T08:40:20.999Z</time></trkpt><trkpt lat="43.594596856024" lon="11.809600031262711"><ele>570.3333333333334</ele><time>2026-04-25T08:40:22.999Z</time></trkpt><trkpt lat="43.59463932516995" lon="11.809698923957766"><ele>570.5</ele><time>2026-04-25T08:40:24.999Z</time></trkpt><trkpt lat="43.59470939634675" lon="11.809772585149398"><ele>570.6666666666667</ele><time>2026-04-25T08:40:26.999Z</time></trkpt><trkpt lat="43.59479116797462" lon="11.809791960349662"><ele>570.8333333333334</ele><time>2026-04-25T08:40:28.999Z</time></trkpt><trkpt lat="43.5948510358824" lon="11.809720924526445"><ele>571.0</ele><time>2026-04-25T08:40:30.999Z</time></trkpt><trkpt lat="43.59488595406021" lon="11.8096469944492"><ele>571.0</ele><time>2026-04-25T08:40:32.999Z</time></trkpt><trkpt lat="43.59496213311715" lon="11.809624412289894"><ele>571.0</ele><time>2026-04-25T08:40:34.999Z</time></trkpt><trkpt lat="43.595030284494165" lon="11.809695636248348"><ele>571.0</ele><time>2026-04-25T08:40:36.999Z</time></trkpt><trkpt lat="43.59506113961016" lon="11.809818765081157"><ele>571.0</ele><time>2026-04-25T08:40:38.999Z</time></trkpt><trkpt lat="43.595086222304666" lon="11.809937094167562"><ele>571.0</ele><time>2026-04-25T08:40:39.999Z</time></trkpt><trkpt lat="43.595124314444504" lon="11.810038865892622"><ele>571.0</ele><time>2026-04-25T08:40:40.999Z</time></trkpt><trkpt lat="43.595182018281804" lon="11.810137679727527"><ele>571.6</ele><time>2026-04-25T08:40:42.999Z</time></trkpt><trkpt lat="43.5952915388181" lon="11.810174036898172"><ele>572.2</ele><time>2026-04-25T08:40:44.999Z</time></trkpt><trkpt lat="43.59537322028316" lon="11.81027711043797"><ele>572.8</ele><time>2026-04-25T08:40:46.999Z</time></trkpt><trkpt lat="43.59544119654511" lon="11.81034766625287"><ele>573.4</ele><time>2026-04-25T08:40:48.999Z</time></trkpt><trkpt lat="43.59554160028223" lon="11.810391251623642"><ele>574.0</ele><time>2026-04-25T08:40:50.999Z</time></trkpt><trkpt lat="43.59560890658934" lon="11.810282842726304"><ele>574.0</ele><time>2026-04-25T08:40:53.999Z</time></trkpt><trkpt lat="43.59565684062277" lon="11.810350837062689"><ele>574.0</ele><time>2026-04-25T08:40:55.999Z</time></trkpt><trkpt lat="43.595717760291656" lon="11.810467593095634"><ele>574.0</ele><time>2026-04-25T08:40:58.999Z</time></trkpt><trkpt lat="43.595760883523376" lon="11.810534057496836"><ele>574.0</ele><time>2026-04-25T08:40:59.999Z</time></trkpt><trkpt lat="43.595837049796415" lon="11.810619047571913"><ele>574.0</ele><time>2026-04-25T08:41:01.999Z</time></trkpt><trkpt lat="43.59588831860474" lon="11.810697959432822"><ele>574.0</ele><time>2026-04-25T08:41:03.999Z</time></trkpt><trkpt lat="43.59594091633096" lon="11.810772969985509"><ele>574.0</ele><time>2026-04-25T08:41:05.999Z</time></trkpt><trkpt lat="43.59598977287101" lon="11.810869510557334"><ele>574.0</ele><time>2026-04-25T08:41:07.999Z</time></trkpt><trkpt lat="43.596075760357635" lon="11.810971345093039"><ele>574.0</ele><time>2026-04-25T08:41:09.999Z</time></trkpt><trkpt lat="43.5961380357158" lon="11.811060769606065"><ele>574.0</ele><time>2026-04-25T08:41:11.999Z</time></trkpt><trkpt lat="43.59614126922715" lon="11.810960266781217"><ele>574.0</ele><time>2026-04-25T08:41:16Z</time></trkpt><trkpt lat="43.59612286644335" lon="11.810805580214106"><ele>574.0</ele><time>2026-04-25T08:41:24Z</time></trkpt><trkpt lat="43.59613071002124" lon="11.810671034117846"><ele>574.0</ele><time>2026-04-25T08:41:25Z</time></trkpt><trkpt lat="43.5961416165667" lon="11.810550629785784"><ele>574.0</ele><time>2026-04-25T08:41:26Z</time></trkpt><trkpt lat="43.59612213984947" lon="11.810455363991199"><ele>574.0</ele><time>2026-04-25T08:41:27Z</time></trkpt><trkpt lat="43.59607251244173" lon="11.810375381176536"><ele>574.0</ele><time>2026-04-25T08:41:28Z</time></trkpt><trkpt lat="43.596035102849584" lon="11.810288924624775"><ele>574.0</ele><time>2026-04-25T08:41:29Z</time></trkpt><trkpt lat="43.59604357687725" lon="11.81017248346197"><ele>575.6</ele><time>2026-04-25T08:41:30Z</time></trkpt><trkpt lat="43.59603467471991" lon="11.810070382872288"><ele>577.2</ele><time>2026-04-25T08:41:31Z</time></trkpt><trkpt lat="43.595920879484304" lon="11.809970421418823"><ele>578.8000000000001</ele><time>2026-04-25T08:41:33Z</time></trkpt><trkpt lat="43.59584748439027" lon="11.809909840402563"><ele>580.4</ele><time>2026-04-25T08:41:34Z</time></trkpt><trkpt lat="43.59576545735759" lon="11.809763871952564"><ele>582.0</ele><time>2026-04-25T08:41:36Z</time></trkpt><trkpt lat="43.595721012895" lon="11.809694281061795"><ele>582.0</ele><time>2026-04-25T08:41:37Z</time></trkpt><trkpt lat="43.59575688046208" lon="11.809595318795907"><ele>582.0</ele><time>2026-04-25T08:41:39Z</time></trkpt><trkpt lat="43.595757769520326" lon="11.809503177589871"><ele>582.0</ele><time>2026-04-25T08:41:40Z</time></trkpt><trkpt lat="43.59574490269141" lon="11.809373304373253"><ele>582.0</ele><time>2026-04-25T08:41:41Z</time></trkpt><trkpt lat="43.59572636716543" lon="11.809241048189568"><ele>582.0</ele><time>2026-04-25T08:41:42Z</time></trkpt><trkpt lat="43.59571215162653" lon="11.809118036510892"><ele>582.0</ele><time>2026-04-25T08:41:43Z</time></trkpt><trkpt lat="43.595696583350474" lon="11.80899860785712"><ele>583.8000000000001</ele><time>2026-04-25T08:41:44Z</time></trkpt><trkpt lat="43.595680197630536" lon="11.808895368349484"><ele>585.6</ele><time>2026-04-25T08:41:45Z</time></trkpt><trkpt lat="43.59570080328284" lon="11.808736665727224"><ele>587.4000000000001</ele><time>2026-04-25T08:41:47Z</time></trkpt><trkpt lat="43.5957240971428" lon="11.80861231942454"><ele>589.2</ele><time>2026-04-25T08:41:48Z</time></trkpt><trkpt lat="43.59573436263065" lon="11.80844917234426"><ele>591.0</ele><time>2026-04-25T08:41:49Z</time></trkpt><trkpt lat="43.595757894635604" lon="11.808326245493225"><ele>592.4</ele><time>2026-04-25T08:41:50Z</time></trkpt><trkpt lat="43.59579081439421" lon="11.808185113014693"><ele>593.8</ele><time>2026-04-25T08:41:51Z</time></trkpt><trkpt lat="43.59582862050962" lon="11.808058139618787"><ele>595.1999999999999</ele><time>2026-04-25T08:41:52Z</time></trkpt><trkpt lat="43.59586364852868" lon="11.807963484401611"><ele>596.6</ele><time>2026-04-25T08:41:53Z</time></trkpt><trkpt lat="43.595886946802345" lon="11.807775653466894"><ele>598.0</ele><time>2026-04-25T08:41:55Z</time></trkpt><trkpt lat="43.595945809068304" lon="11.807654720421736"><ele>599.0</ele><time>2026-04-25T08:41:56Z</time></trkpt><trkpt lat="43.596012186806206" lon="11.80756223752994"><ele>600.0</ele><time>2026-04-25T08:41:57Z</time></trkpt><trkpt lat="43.59598606930137" lon="11.807474380345017"><ele>601.0</ele><time>2026-04-25T08:42:00Z</time></trkpt><trkpt lat="43.595964103702194" lon="11.807388191100136"><ele>602.0</ele><time>2026-04-25T08:42:01Z</time></trkpt><trkpt lat="43.595963543206736" lon="11.807292721091185"><ele>603.0</ele><time>2026-04-25T08:42:02Z</time></trkpt><trkpt lat="43.595971168917515" lon="11.807140011222932"><ele>604.0</ele><time>2026-04-25T08:42:04Z</time></trkpt><trkpt lat="43.59599223008553" lon="11.80705426700898"><ele>604.0</ele><time>2026-04-25T08:42:06Z</time></trkpt><trkpt lat="43.59600450567189" lon="11.80695851977464"><ele>604.0</ele><time>2026-04-25T08:42:09.999Z</time></trkpt><trkpt lat="43.59601992434731" lon="11.806831617151428"><ele>604.0</ele><time>2026-04-25T08:42:10.999Z</time></trkpt><trkpt lat="43.596021071187" lon="11.806678711601384"><ele>604.0</ele><time>2026-04-25T08:42:11.999Z</time></trkpt><trkpt lat="43.59600864666339" lon="11.80656073523632"><ele>604.0</ele><time>2026-04-25T08:42:12.999Z</time></trkpt><trkpt lat="43.59597413415165" lon="11.8064559418228"><ele>604.0</ele><time>2026-04-25T08:42:13.999Z</time></trkpt><trkpt lat="43.595920512645556" lon="11.806334905079861"><ele>604.4</ele><time>2026-04-25T08:42:14.999Z</time></trkpt><trkpt lat="43.59589539645116" lon="11.80619763403809"><ele>604.8</ele><time>2026-04-25T08:42:15.999Z</time></trkpt><trkpt lat="43.59590959160288" lon="11.806069947963389"><ele>605.2</ele><time>2026-04-25T08:42:16.999Z</time></trkpt><trkpt lat="43.595912831881314" lon="11.805902022855664"><ele>605.6</ele><time>2026-04-25T08:42:18.999Z</time></trkpt><trkpt lat="43.59591812616061" lon="11.805814255218543"><ele>606.0</ele><time>2026-04-25T08:42:19.999Z</time></trkpt><trkpt lat="43.595955329668186" lon="11.805661565991139"><ele>606.0</ele><time>2026-04-25T08:42:20.999Z</time></trkpt><trkpt lat="43.59598255867101" lon="11.805556724781969"><ele>606.0</ele><time>2026-04-25T08:42:21.999Z</time></trkpt><trkpt lat="43.59606512025952" lon="11.805366146054409"><ele>606.0</ele><time>2026-04-25T08:42:23.999Z</time></trkpt><trkpt lat="43.59613283493082" lon="11.805304781092442"><ele>606.0</ele><time>2026-04-25T08:42:24.999Z</time></trkpt><trkpt lat="43.59621711338279" lon="11.805238848007763"><ele>606.0</ele><time>2026-04-25T08:42:25.999Z</time></trkpt><trkpt lat="43.59630697876053" lon="11.805153289648413"><ele>607.5</ele><time>2026-04-25T08:42:26.999Z</time></trkpt><trkpt lat="43.59640327000664" lon="11.805054494275872"><ele>609.0</ele><time>2026-04-25T08:42:27.999Z</time></trkpt><trkpt lat="43.59651668584898" lon="11.804978256663258"><ele>610.5</ele><time>2026-04-25T08:42:28.999Z</time></trkpt><trkpt lat="43.596615166608956" lon="11.804915729718713"><ele>612.0</ele><time>2026-04-25T08:42:29.999Z</time></trkpt><trkpt lat="43.59670839313469" lon="11.804858597241841"><ele>612.0</ele><time>2026-04-25T08:42:30.999Z</time></trkpt><trkpt lat="43.596798010282484" lon="11.804805656480438"><ele>612.0</ele><time>2026-04-25T08:42:31.999Z</time></trkpt><trkpt lat="43.596890874191075" lon="11.804720913072002"><ele>612.0</ele><time>2026-04-25T08:42:32.999Z</time></trkpt><trkpt lat="43.59697942652303" lon="11.804642197454465"><ele>612.0</ele><time>2026-04-25T08:42:33.999Z</time></trkpt><trkpt lat="43.597059535512486" lon="11.80458064875522"><ele>612.0</ele><time>2026-04-25T08:42:34.999Z</time></trkpt><trkpt lat="43.59714198838891" lon="11.804483645787936"><ele>612.2</ele><time>2026-04-25T08:42:35.999Z</time></trkpt><trkpt lat="43.59723364936453" lon="11.804396143656183"><ele>612.4000000000001</ele><time>2026-04-25T08:42:36.999Z</time></trkpt><trkpt lat="43.597307570951855" lon="11.804304879182203"><ele>612.5999999999999</ele><time>2026-04-25T08:42:37.999Z</time></trkpt><trkpt lat="43.597366205594234" lon="11.804206941802741"><ele>612.8</ele><time>2026-04-25T08:42:38.999Z</time></trkpt><trkpt lat="43.59740571695254" lon="11.804129039235525"><ele>613.0</ele><time>2026-04-25T08:42:39.999Z</time></trkpt><trkpt lat="43.597460015356475" lon="11.804037001243854"><ele>613.0</ele><time>2026-04-25T08:42:41.999Z</time></trkpt><trkpt lat="43.59753397842128" lon="11.803953307860215"><ele>613.0</ele><time>2026-04-25T08:43:00.999Z</time></trkpt><trkpt lat="43.59759954013421" lon="11.803895564122216"><ele>613.0</ele><time>2026-04-25T08:43:02.999Z</time></trkpt><trkpt lat="43.59769934989064" lon="11.803845353651004"><ele>613.0</ele><time>2026-04-25T08:43:04.999Z</time></trkpt><trkpt lat="43.59776696090526" lon="11.803833572892202"><ele>613.0</ele><time>2026-04-25T08:43:05.999Z</time></trkpt><trkpt lat="43.5978780950362" lon="11.803798402582306"><ele>611.8</ele><time>2026-04-25T08:43:07.999Z</time></trkpt><trkpt lat="43.59797893182303" lon="11.803815182217274"><ele>610.5999999999999</ele><time>2026-04-25T08:43:09.999Z</time></trkpt><trkpt lat="43.59807690400353" lon="11.803902247883347"><ele>609.4000000000001</ele><time>2026-04-25T08:43:11.999Z</time></trkpt><trkpt lat="43.59818244871112" lon="11.803957404461064"><ele>608.2</ele><time>2026-04-25T08:43:13.999Z</time></trkpt><trkpt lat="43.59827918271809" lon="11.804020695169719"><ele>607.0</ele><time>2026-04-25T08:43:15.999Z</time></trkpt><trkpt lat="43.59834862405899" lon="11.80405662644099"><ele>607.0</ele><time>2026-04-25T08:43:17.999Z</time></trkpt><trkpt lat="43.59841444131519" lon="11.80411423126311"><ele>607.0</ele><time>2026-04-25T08:43:20Z</time></trkpt><trkpt lat="43.59848098299819" lon="11.804264506435947"><ele>607.0</ele><time>2026-04-25T08:43:22Z</time></trkpt><trkpt lat="43.59858237036288" lon="11.804331111606443"><ele>607.0</ele><time>2026-04-25T08:43:24Z</time></trkpt><trkpt lat="43.59866284219018" lon="11.804335185860726"><ele>607.0</ele><time>2026-04-25T08:43:26Z</time></trkpt><trkpt lat="43.59873882809476" lon="11.804403712048579"><ele>605.5</ele><time>2026-04-25T08:45:26Z</time></trkpt><trkpt lat="43.59878297610602" lon="11.804468707826718"><ele>604.0</ele><time>2026-04-25T08:45:27Z</time></trkpt><trkpt lat="43.598857771123015" lon="11.804521112904341"><ele>602.5</ele><time>2026-04-25T08:45:28Z</time></trkpt><trkpt lat="43.59894938367077" lon="11.804555957301467"><ele>601.0</ele><time>2026-04-25T08:45:29Z</time></trkpt><trkpt lat="43.59903861351265" lon="11.804590813311007"><ele>599.5</ele><time>2026-04-25T08:45:30Z</time></trkpt><trkpt lat="43.59911420718702" lon="11.804624104128568"><ele>598.0</ele><time>2026-04-25T08:45:31Z</time></trkpt><trkpt lat="43.59917907807509" lon="11.804660460738544"><ele>598.0</ele><time>2026-04-25T08:45:32Z</time></trkpt><trkpt lat="43.59924187874675" lon="11.80471670910278"><ele>598.0</ele><time>2026-04-25T08:45:33Z</time></trkpt><trkpt lat="43.599307489919184" lon="11.80476041263225"><ele>598.0</ele><time>2026-04-25T08:45:34Z</time></trkpt><trkpt lat="43.59938513262774" lon="11.804793960602712"><ele>598.0</ele><time>2026-04-25T08:45:35Z</time></trkpt><trkpt lat="43.59947602140657" lon="11.80487884184384"><ele>598.0</ele><time>2026-04-25T08:45:36Z</time></trkpt><trkpt lat="43.59954401864138" lon="11.804959923956769"><ele>598.0</ele><time>2026-04-25T08:45:37Z</time></trkpt><trkpt lat="43.59961736915598" lon="11.805039790526328"><ele>598.6</ele><time>2026-04-25T08:45:38Z</time></trkpt><trkpt lat="43.59968855124645" lon="11.80510685147135"><ele>599.1999999999999</ele><time>2026-04-25T08:45:39Z</time></trkpt><trkpt lat="43.59975790883194" lon="11.805189246400833"><ele>599.8</ele><time>2026-04-25T08:45:40Z</time></trkpt><trkpt lat="43.59983046167459" lon="11.805279150349413"><ele>600.4</ele><time>2026-04-25T08:45:41Z</time></trkpt><trkpt lat="43.599906329427235" lon="11.805346477175998"><ele>601.0</ele><time>2026-04-25T08:45:42Z</time></trkpt><trkpt lat="43.599985285597874" lon="11.805406918399674"><ele>597.6</ele><time>2026-04-25T08:45:43Z</time></trkpt><trkpt lat="43.60005143459173" lon="11.805452322407024"><ele>594.2</ele><time>2026-04-25T08:45:44Z</time></trkpt><trkpt lat="43.600112310864624" lon="11.805475004795133"><ele>590.8</ele><time>2026-04-25T08:45:45Z</time></trkpt><trkpt lat="43.600241781649956" lon="11.805383557489515"><ele>587.4</ele><time>2026-04-25T08:45:47Z</time></trkpt><trkpt lat="43.600330142971956" lon="11.805331768625818"><ele>584.0</ele><time>2026-04-25T08:45:48Z</time></trkpt><trkpt lat="43.6004385429038" lon="11.805372546614182"><ele>582.5</ele><time>2026-04-25T08:45:49Z</time></trkpt><trkpt lat="43.60055150586773" lon="11.80538753920422"><ele>581.0</ele><time>2026-04-25T08:45:50Z</time></trkpt><trkpt lat="43.60064708370598" lon="11.805410329294382"><ele>579.5</ele><time>2026-04-25T08:45:51Z</time></trkpt><trkpt lat="43.60076082901718" lon="11.805425003576538"><ele>578.0</ele><time>2026-04-25T08:45:52Z</time></trkpt><trkpt lat="43.60089155743386" lon="11.80542837010993"><ele>578.0</ele><time>2026-04-25T08:45:53Z</time></trkpt><trkpt lat="43.601009324590564" lon="11.805439888285692"><ele>578.0</ele><time>2026-04-25T08:45:54Z</time></trkpt><trkpt lat="43.60112219414925" lon="11.805451244601109"><ele>578.0</ele><time>2026-04-25T08:45:55Z</time></trkpt><trkpt lat="43.60122031544456" lon="11.805461101925044"><ele>578.0</ele><time>2026-04-25T08:45:56Z</time></trkpt><trkpt lat="43.60131496036059" lon="11.805515145174189"><ele>578.0</ele><time>2026-04-25T08:45:57Z</time></trkpt><trkpt lat="43.60140841369073" lon="11.805547398853822"><ele>579.0</ele><time>2026-04-25T08:45:58Z</time></trkpt><trkpt lat="43.601469318332086" lon="11.805669478525854"><ele>580.0</ele><time>2026-04-25T08:45:59Z</time></trkpt><trkpt lat="43.601557614573544" lon="11.80578129604924"><ele>581.0</ele><time>2026-04-25T08:46:00Z</time></trkpt><trkpt lat="43.601659522754375" lon="11.805893810144036"><ele>582.0</ele><time>2026-04-25T08:46:01Z</time></trkpt><trkpt lat="43.60174377498898" lon="11.805983818258428"><ele>582.6</ele><time>2026-04-25T08:46:02Z</time></trkpt><trkpt lat="43.60182672056901" lon="11.806064286571118"><ele>583.2</ele><time>2026-04-25T08:46:03Z</time></trkpt><trkpt lat="43.60185728820557" lon="11.806174902579928"><ele>583.8</ele><time>2026-04-25T08:46:04Z</time></trkpt><trkpt lat="43.60194417331022" lon="11.806298203448074"><ele>584.4</ele><time>2026-04-25T08:46:05Z</time></trkpt><trkpt lat="43.60202105330905" lon="11.806419597626332"><ele>585.0</ele><time>2026-04-25T08:46:06Z</time></trkpt><trkpt lat="43.60210039646747" lon="11.806537078487482"><ele>585.0</ele><time>2026-04-25T08:46:07Z</time></trkpt><trkpt lat="43.6021942139423" lon="11.80662882089706"><ele>585.0</ele><time>2026-04-25T08:46:08Z</time></trkpt><trkpt lat="43.602292492497575" lon="11.806699196849877"><ele>585.0</ele><time>2026-04-25T08:46:09Z</time></trkpt><trkpt lat="43.60240026570919" lon="11.80678722879859"><ele>585.0</ele><time>2026-04-25T08:46:10Z</time></trkpt><trkpt lat="43.60248468540311" lon="11.806888939659789"><ele>583.8333333333334</ele><time>2026-04-25T08:46:11Z</time></trkpt><trkpt lat="43.60256657791951" lon="11.80698002722776"><ele>582.6666666666666</ele><time>2026-04-25T08:46:12Z</time></trkpt><trkpt lat="43.60261022817155" lon="11.807058068870566"><ele>581.5</ele><time>2026-04-25T08:46:12.999Z</time></trkpt><trkpt lat="43.60263666722987" lon="11.807137396446866"><ele>580.3333333333333</ele><time>2026-04-25T08:46:13.999Z</time></trkpt><trkpt lat="43.602727562000396" lon="11.80725432100179"><ele>579.1666666666666</ele><time>2026-04-25T08:46:15.999Z</time></trkpt><trkpt lat="43.60277812398784" lon="11.807338890783946"><ele>578.0</ele><time>2026-04-25T08:46:16.999Z</time></trkpt><trkpt lat="43.602870467347415" lon="11.807409016897012"><ele>578.0</ele><time>2026-04-25T08:46:17.999Z</time></trkpt><trkpt lat="43.60297977716884" lon="11.80747445497576"><ele>578.0</ele><time>2026-04-25T08:46:18.999Z</time></trkpt><trkpt lat="43.60307011410333" lon="11.807569037900315"><ele>578.0</ele><time>2026-04-25T08:46:19.999Z</time></trkpt><trkpt lat="43.60315256050924" lon="11.80764319496027"><ele>578.0</ele><time>2026-04-25T08:46:20.999Z</time></trkpt><trkpt lat="43.6032175031098" lon="11.807719156692297"><ele>578.0</ele><time>2026-04-25T08:46:21.999Z</time></trkpt><trkpt lat="43.60330761042311" lon="11.807742272767152"><ele>578.0</ele><time>2026-04-25T08:46:22.999Z</time></trkpt><trkpt lat="43.60339666789664" lon="11.807751017618976"><ele>578.0</ele><time>2026-04-25T08:46:23.999Z</time></trkpt><trkpt lat="43.6034741254218" lon="11.807744511955752"><ele>578.0</ele><time>2026-04-25T08:46:24.999Z</time></trkpt><trkpt lat="43.603546049190776" lon="11.807685653397685"><ele>578.0</ele><time>2026-04-25T08:46:25.999Z</time></trkpt><trkpt lat="43.6035884457187" lon="11.807597553741386"><ele>578.0</ele><time>2026-04-25T08:46:26.999Z</time></trkpt><trkpt lat="43.60363424187556" lon="11.807488762551108"><ele>578.0</ele><time>2026-04-25T08:46:27.999Z</time></trkpt><trkpt lat="43.603734089656896" lon="11.807516576224053"><ele>577.0</ele><time>2026-04-25T08:46:29.999Z</time></trkpt><trkpt lat="43.60378243557071" lon="11.807573765185738"><ele>576.0</ele><time>2026-04-25T08:46:31.999Z</time></trkpt><trkpt lat="43.603871324168765" lon="11.807621728389895"><ele>575.0</ele><time>2026-04-25T08:46:33.999Z</time></trkpt><trkpt lat="43.60394345241076" lon="11.80769601813465"><ele>574.0</ele><time>2026-04-25T08:46:34.999Z</time></trkpt><trkpt lat="43.604046943500386" lon="11.807727516181549"><ele>573.0</ele><time>2026-04-25T08:46:35.999Z</time></trkpt><trkpt lat="43.60414487002869" lon="11.807732890608543"><ele>573.0</ele><time>2026-04-25T08:46:36.999Z</time></trkpt><trkpt lat="43.60426946200053" lon="11.807719156697841"><ele>573.0</ele><time>2026-04-25T08:46:37.999Z</time></trkpt><trkpt lat="43.60435153927322" lon="11.807699215541353"><ele>573.0</ele><time>2026-04-25T08:46:38.999Z</time></trkpt><trkpt lat="43.60441492138021" lon="11.807655952314624"><ele>573.0</ele><time>2026-04-25T08:46:39.999Z</time></trkpt><trkpt lat="43.60447008397899" lon="11.807592294889087"><ele>573.0</ele><time>2026-04-25T08:46:40.999Z</time></trkpt><trkpt lat="43.604529747024436" lon="11.807500900575693"><ele>573.0</ele><time>2026-04-25T08:46:41.999Z</time></trkpt><trkpt lat="43.60454636436064" lon="11.807307359061038"><ele>567.8</ele><time>2026-04-25T08:46:42.999Z</time></trkpt><trkpt lat="43.60457127299141" lon="11.807187613957645"><ele>562.5999999999999</ele><time>2026-04-25T08:46:43.999Z</time></trkpt><trkpt lat="43.60458899268066" lon="11.807038575092438"><ele>557.4000000000001</ele><time>2026-04-25T08:46:44.999Z</time></trkpt><trkpt lat="43.604623383863355" lon="11.806881935757584"><ele>552.2</ele><time>2026-04-25T08:46:45.999Z</time></trkpt><trkpt lat="43.60462786579583" lon="11.806789874292578"><ele>547.0</ele><time>2026-04-25T08:46:46.999Z</time></trkpt><trkpt lat="43.60455195031787" lon="11.806654838126196"><ele>546.6666666666667</ele><time>2026-04-25T08:46:48.999Z</time></trkpt><trkpt lat="43.60448733687736" lon="11.806533777871156"><ele>546.3333333333334</ele><time>2026-04-25T08:46:49.999Z</time></trkpt><trkpt lat="43.604455212838275" lon="11.806425463747269"><ele>546.0</ele><time>2026-04-25T08:46:50.999Z</time></trkpt><trkpt lat="43.60447894557618" lon="11.806324830349654"><ele>545.6666666666666</ele><time>2026-04-25T08:46:51.999Z</time></trkpt><trkpt lat="43.60451230914827" lon="11.80623552803001"><ele>545.3333333333333</ele><time>2026-04-25T08:46:52.999Z</time></trkpt><trkpt lat="43.60459901394847" lon="11.806159716552958"><ele>545.0</ele><time>2026-04-25T08:46:53.999Z</time></trkpt><trkpt lat="43.60468925019352" lon="11.80610610850325"><ele>545.75</ele><time>2026-04-25T08:46:54.999Z</time></trkpt><trkpt lat="43.60477347415619" lon="11.80587408303867"><ele>546.5</ele><time>2026-04-25T08:46:56.999Z</time></trkpt><trkpt lat="43.60485166491014" lon="11.805798910258597"><ele>547.25</ele><time>2026-04-25T08:46:57.999Z</time></trkpt><trkpt lat="43.604948039076895" lon="11.80574573204707"><ele>548.0</ele><time>2026-04-25T08:46:58.999Z</time></trkpt><trkpt lat="43.6050086903578" lon="11.805684689179115"><ele>548.0</ele><time>2026-04-25T08:46:59.999Z</time></trkpt><trkpt lat="43.60506066126754" lon="11.805581596259303"><ele>548.0</ele><time>2026-04-25T08:47:00.999Z</time></trkpt><trkpt lat="43.6051071070758" lon="11.805476485216523"><ele>548.0</ele><time>2026-04-25T08:47:01.999Z</time></trkpt><trkpt lat="43.6051391625705" lon="11.805365188909326"><ele>548.0</ele><time>2026-04-25T08:47:02.999Z</time></trkpt><trkpt lat="43.60518320450508" lon="11.805289515354442"><ele>548.0</ele><time>2026-04-25T08:47:03.999Z</time></trkpt><trkpt lat="43.60535814373004" lon="11.805268713393701"><ele>546.8</ele><time>2026-04-25T08:47:05.999Z</time></trkpt><trkpt lat="43.60543549725199" lon="11.805180753790435"><ele>545.5999999999999</ele><time>2026-04-25T08:47:06.999Z</time></trkpt><trkpt lat="43.60550881913923" lon="11.805068307399354"><ele>544.4000000000001</ele><time>2026-04-25T08:47:07.999Z</time></trkpt><trkpt lat="43.60556706835684" lon="11.80498887384489"><ele>543.2</ele><time>2026-04-25T08:47:08.999Z</time></trkpt><trkpt lat="43.60564761647328" lon="11.804965156688576"><ele>542.0</ele><time>2026-04-25T08:47:09.999Z</time></trkpt><trkpt lat="43.60574904271997" lon="11.804969710757796"><ele>542.0</ele><time>2026-04-25T08:47:10.999Z</time></trkpt><trkpt lat="43.605881316204396" lon="11.805095700423914"><ele>542.0</ele><time>2026-04-25T08:47:11.999Z</time></trkpt><trkpt lat="43.605967513165375" lon="11.805163811749809"><ele>542.0</ele><time>2026-04-25T08:47:12.999Z</time></trkpt><trkpt lat="43.60603082763766" lon="11.805188559591292"><ele>542.0</ele><time>2026-04-25T08:47:13.999Z</time></trkpt><trkpt lat="43.606091516913374" lon="11.80516323483604"><ele>542.0</ele><time>2026-04-25T08:47:14.999Z</time></trkpt><trkpt lat="43.606168156166774" lon="11.805082442850008"><ele>535.8000000000001</ele><time>2026-04-25T08:47:15.999Z</time></trkpt><trkpt lat="43.60621982373671" lon="11.80495716997819"><ele>529.6</ele><time>2026-04-25T08:47:16.999Z</time></trkpt><trkpt lat="43.60621828943161" lon="11.804822998597556"><ele>523.4000000000001</ele><time>2026-04-25T08:47:17.999Z</time></trkpt><trkpt lat="43.606222281434334" lon="11.804683236504136"><ele>517.2</ele><time>2026-04-25T08:47:18.999Z</time></trkpt><trkpt lat="43.60628980031106" lon="11.804680428855148"><ele>511.0</ele><time>2026-04-25T08:47:24.999Z</time></trkpt><trkpt lat="43.60634446758219" lon="11.804783318547909"><ele>511.0</ele><time>2026-04-25T08:47:40Z</time></trkpt><trkpt lat="43.60632349960604" lon="11.804928873376012"><ele>511.0</ele><time>2026-04-25T08:47:42Z</time></trkpt><trkpt lat="43.60629452848185" lon="11.805033901989537"><ele>511.0</ele><time>2026-04-25T08:47:43Z</time></trkpt><trkpt lat="43.60624990351914" lon="11.805157415860545"><ele>511.0</ele><time>2026-04-25T08:47:44Z</time></trkpt><trkpt lat="43.60621808519564" lon="11.805285258555486"><ele>511.0</ele><time>2026-04-25T08:47:45Z</time></trkpt><trkpt lat="43.60622582315587" lon="11.805382874360081"><ele>512.3333333333334</ele><time>2026-04-25T08:47:46Z</time></trkpt><trkpt lat="43.606259484594574" lon="11.805494397975359"><ele>513.6666666666667</ele><time>2026-04-25T08:47:47Z</time></trkpt><trkpt lat="43.60629594478718" lon="11.80562507263447"><ele>515.0</ele><time>2026-04-25T08:47:48Z</time></trkpt><trkpt lat="43.60627559265181" lon="11.805737602743918"><ele>516.3333333333334</ele><time>2026-04-25T08:47:49Z</time></trkpt><trkpt lat="43.60621811494994" lon="11.80581016259872"><ele>517.6666666666666</ele><time>2026-04-25T08:47:50Z</time></trkpt><trkpt lat="43.606135026303605" lon="11.80582748758001"><ele>519.0</ele><time>2026-04-25T08:47:51Z</time></trkpt><trkpt lat="43.60603660302298" lon="11.80582918018148"><ele>519.0</ele><time>2026-04-25T08:47:52Z</time></trkpt><trkpt lat="43.60591104321817" lon="11.80588015578917"><ele>519.0</ele><time>2026-04-25T08:47:53Z</time></trkpt><trkpt lat="43.60580493333895" lon="11.805892120660024"><ele>519.0</ele><time>2026-04-25T08:47:54Z</time></trkpt><trkpt lat="43.60572861344007" lon="11.805896626874869"><ele>519.0</ele><time>2026-04-25T08:47:55Z</time></trkpt><trkpt lat="43.60566036588604" lon="11.8059161887019"><ele>519.0</ele><time>2026-04-25T08:47:56Z</time></trkpt><trkpt lat="43.605596002068815" lon="11.80597037560285"><ele>516.8571428571429</ele><time>2026-04-25T08:47:57Z</time></trkpt><trkpt lat="43.60553181447286" lon="11.80605612708511"><ele>514.7142857142857</ele><time>2026-04-25T08:47:58Z</time></trkpt><trkpt lat="43.605479165992264" lon="11.806150722401844"><ele>512.5714285714286</ele><time>2026-04-25T08:47:59Z</time></trkpt><trkpt lat="43.605443069099515" lon="11.80622316726698"><ele>510.42857142857144</ele><time>2026-04-25T08:48:00Z</time></trkpt><trkpt lat="43.60542456701695" lon="11.806307332574068"><ele>508.2857142857143</ele><time>2026-04-25T08:48:01Z</time></trkpt><trkpt lat="43.60544167487997" lon="11.80639345234989"><ele>506.1428571428571</ele><time>2026-04-25T08:48:02Z</time></trkpt><trkpt lat="43.60550530216877" lon="11.806441755838978"><ele>504.0</ele><time>2026-04-25T08:48:03Z</time></trkpt><trkpt lat="43.60562166704673" lon="11.80634019839015"><ele>504.0</ele><time>2026-04-25T08:48:05Z</time></trkpt><trkpt lat="43.60570082862601" lon="11.80628512891861"><ele>504.0</ele><time>2026-04-25T08:48:06Z</time></trkpt><trkpt lat="43.60576535250924" lon="11.806262945438554"><ele>504.0</ele><time>2026-04-25T08:48:07Z</time></trkpt><trkpt lat="43.60581145031774" lon="11.806334686038989"><ele>504.0</ele><time>2026-04-25T08:48:08Z</time></trkpt><trkpt lat="43.60591354385925" lon="11.806399975979685"><ele>504.0</ele><time>2026-04-25T08:48:09Z</time></trkpt><trkpt lat="43.60603406537176" lon="11.806455776708733"><ele>504.0</ele><time>2026-04-25T08:48:10Z</time></trkpt><trkpt lat="43.60615749280974" lon="11.806490407989129"><ele>504.0</ele><time>2026-04-25T08:48:11Z</time></trkpt><trkpt lat="43.60623005664445" lon="11.806540687888976"><ele>504.0</ele><time>2026-04-25T08:48:12Z</time></trkpt><trkpt lat="43.606303011674754" lon="11.806542815020995"><ele>504.0</ele><time>2026-04-25T08:48:13Z</time></trkpt><trkpt lat="43.60638217868272" lon="11.80652014235871"><ele>504.0</ele><time>2026-04-25T08:48:14Z</time></trkpt><trkpt lat="43.606478535053505" lon="11.806490236127143"><ele>499.0</ele><time>2026-04-25T08:48:15Z</time></trkpt><trkpt lat="43.60657845444945" lon="11.80642987229638"><ele>494.0</ele><time>2026-04-25T08:48:16Z</time></trkpt><trkpt lat="43.60667753095688" lon="11.806413943968755"><ele>489.0</ele><time>2026-04-25T08:48:17Z</time></trkpt><trkpt lat="43.60674262699646" lon="11.806406011004949"><ele>484.0</ele><time>2026-04-25T08:48:18Z</time></trkpt><trkpt lat="43.60681310328523" lon="11.80627309222773"><ele>479.0</ele><time>2026-04-25T08:48:20Z</time></trkpt><trkpt lat="43.60686577658068" lon="11.806136238492313"><ele>475.0</ele><time>2026-04-25T08:48:21Z</time></trkpt><trkpt lat="43.60692381546742" lon="11.805963206085751"><ele>471.0</ele><time>2026-04-25T08:48:22Z</time></trkpt><trkpt lat="43.606987229151564" lon="11.805806915324371"><ele>467.0</ele><time>2026-04-25T08:48:23Z</time></trkpt><trkpt lat="43.60704667282822" lon="11.805687198982984"><ele>463.0</ele><time>2026-04-25T08:48:24Z</time></trkpt><trkpt lat="43.60709876853473" lon="11.805541798836265"><ele>463.0</ele><time>2026-04-25T08:48:25Z</time></trkpt><trkpt lat="43.60714622251666" lon="11.805424121181135"><ele>462.99999999999994</ele><time>2026-04-25T08:48:25.999Z</time></trkpt><trkpt lat="43.607192218516026" lon="11.805295582582218"><ele>462.99999999999994</ele><time>2026-04-25T08:48:26.999Z</time></trkpt><trkpt lat="43.6072593756038" lon="11.80520165750244"><ele>463.0</ele><time>2026-04-25T08:48:27.999Z</time></trkpt><trkpt lat="43.6073531312682" lon="11.805115025756773"><ele>463.0</ele><time>2026-04-25T08:48:28.999Z</time></trkpt><trkpt lat="43.607434710702854" lon="11.80501406012482"><ele>464.6666666666667</ele><time>2026-04-25T08:48:29.999Z</time></trkpt><trkpt lat="43.60749895172723" lon="11.804929431401828"><ele>466.33333333333337</ele><time>2026-04-25T08:48:30.999Z</time></trkpt><trkpt lat="43.60755510644137" lon="11.804880755101912"><ele>468.0</ele><time>2026-04-25T08:48:31.999Z</time></trkpt><trkpt lat="43.607688755790264" lon="11.804861887603051"><ele>469.66666666666663</ele><time>2026-04-25T08:48:33.999Z</time></trkpt><trkpt lat="43.60772076947762" lon="11.804960230008957"><ele>471.3333333333333</ele><time>2026-04-25T08:48:35.999Z</time></trkpt><trkpt lat="43.60772813251542" lon="11.805049926645115"><ele>473.0</ele><time>2026-04-25T08:48:36.999Z</time></trkpt><trkpt lat="43.607752093890376" lon="11.805143311560677"><ele>471.0</ele><time>2026-04-25T08:48:37.999Z</time></trkpt><trkpt lat="43.607811019719094" lon="11.805227877468939"><ele>468.99999999999994</ele><time>2026-04-25T08:48:38.999Z</time></trkpt><trkpt lat="43.60790254796193" lon="11.80531723034999"><ele>466.99999999999994</ele><time>2026-04-25T08:48:39.999Z</time></trkpt><trkpt lat="43.60801252430281" lon="11.805393273680071"><ele>465.0</ele><time>2026-04-25T08:48:40.999Z</time></trkpt><trkpt lat="43.60810518717256" lon="11.80545504609015"><ele>463.0</ele><time>2026-04-25T08:48:41.999Z</time></trkpt><trkpt lat="43.60811388064977" lon="11.805611918333161"><ele>463.0</ele><time>2026-04-25T08:48:43.999Z</time></trkpt><trkpt lat="43.60804536971062" lon="11.805673420522252"><ele>462.99999999999994</ele><time>2026-04-25T08:48:44.999Z</time></trkpt><trkpt lat="43.60794272712489" lon="11.80571972970742"><ele>462.99999999999994</ele><time>2026-04-25T08:48:45.999Z</time></trkpt><trkpt lat="43.60782619203332" lon="11.805816434456927"><ele>463.0</ele><time>2026-04-25T08:48:46.999Z</time></trkpt><trkpt lat="43.607733864607155" lon="11.805805720771046"><ele>463.0</ele><time>2026-04-25T08:48:47.999Z</time></trkpt><trkpt lat="43.607669242869086" lon="11.805763870590331"><ele>463.00000000000006</ele><time>2026-04-25T08:48:48.999Z</time></trkpt><trkpt lat="43.607582531970394" lon="11.80576721140042"><ele>463.0</ele><time>2026-04-25T08:48:50.999Z</time></trkpt><trkpt lat="43.60757466911734" lon="11.805859147521327"><ele>463.0</ele><time>2026-04-25T08:48:51.999Z</time></trkpt><trkpt lat="43.607617894690634" lon="11.805996979565533"><ele>463.0</ele><time>2026-04-25T08:48:53.999Z</time></trkpt><trkpt lat="43.60768812273225" lon="11.806032283415716"><ele>463.00000000000006</ele><time>2026-04-25T08:48:54.999Z</time></trkpt><trkpt lat="43.60778943894563" lon="11.806078347275458"><ele>463.0</ele><time>2026-04-25T08:48:55.999Z</time></trkpt><trkpt lat="43.60790803600614" lon="11.806095628548235"><ele>459.00000000000006</ele><time>2026-04-25T08:48:56.999Z</time></trkpt><trkpt lat="43.60799718084834" lon="11.806122904815759"><ele>455.0</ele><time>2026-04-25T08:48:57.999Z</time></trkpt><trkpt lat="43.60806400177045" lon="11.806181037021132"><ele>451.0</ele><time>2026-04-25T08:48:58.999Z</time></trkpt><trkpt lat="43.60810785349819" lon="11.806257294848919"><ele>447.0</ele><time>2026-04-25T08:48:59.999Z</time></trkpt><trkpt lat="43.60816019526805" lon="11.806373050090714"><ele>443.00000000000006</ele><time>2026-04-25T08:49:00.999Z</time></trkpt><trkpt lat="43.608190754883395" lon="11.806479618377091"><ele>439.0</ele><time>2026-04-25T08:49:01.999Z</time></trkpt><trkpt lat="43.60821328906902" lon="11.806581603093052"><ele>439.00000000000006</ele><time>2026-04-25T08:49:02.999Z</time></trkpt><trkpt lat="43.608217351486324" lon="11.806675358855161"><ele>439.0</ele><time>2026-04-25T08:49:03.999Z</time></trkpt><trkpt lat="43.60820920671393" lon="11.806786211425361"><ele>439.0</ele><time>2026-04-25T08:49:04.999Z</time></trkpt><trkpt lat="43.6081976771016" lon="11.806887018135596"><ele>439.0</ele><time>2026-04-25T08:49:05.999Z</time></trkpt><trkpt lat="43.608156759298176" lon="11.8069629092703"><ele>439.00000000000006</ele><time>2026-04-25T08:49:06.999Z</time></trkpt><trkpt lat="43.6080819574755" lon="11.807047665870122"><ele>439.0</ele><time>2026-04-25T08:49:07.999Z</time></trkpt><trkpt lat="43.60798644840682" lon="11.80713562517845"><ele>436.33333333333337</ele><time>2026-04-25T08:49:08.999Z</time></trkpt><trkpt lat="43.607926282178155" lon="11.807220615927662"><ele>433.6666666666667</ele><time>2026-04-25T08:49:09.999Z</time></trkpt><trkpt lat="43.60790355061292" lon="11.80730639843555"><ele>431.0</ele><time>2026-04-25T08:49:10.999Z</time></trkpt><trkpt lat="43.607925236814125" lon="11.80739404693364"><ele>428.33333333333337</ele><time>2026-04-25T08:49:11.999Z</time></trkpt><trkpt lat="43.60796978849236" lon="11.807501586209202"><ele>425.6666666666667</ele><time>2026-04-25T08:49:12.999Z</time></trkpt><trkpt lat="43.60802994945765" lon="11.80762533936415"><ele>423.0</ele><time>2026-04-25T08:49:13.999Z</time></trkpt><trkpt lat="43.6081040675441" lon="11.807723505537592"><ele>420.4</ele><time>2026-04-25T08:49:14.999Z</time></trkpt><trkpt lat="43.6081733988036" lon="11.807827421492226"><ele>417.79999999999995</ele><time>2026-04-25T08:49:15.999Z</time></trkpt><trkpt lat="43.608235347006435" lon="11.807938803061976"><ele>415.2</ele><time>2026-04-25T08:49:16.999Z</time></trkpt><trkpt lat="43.60831161202363" lon="11.80804829289197"><ele>412.6</ele><time>2026-04-25T08:49:17.999Z</time></trkpt><trkpt lat="43.60837613019046" lon="11.808168564258478"><ele>410.0</ele><time>2026-04-25T08:49:18.999Z</time></trkpt><trkpt lat="43.608435669274" lon="11.80828438052393"><ele>410.0</ele><time>2026-04-25T08:49:19.999Z</time></trkpt><trkpt lat="43.60849781471574" lon="11.808391672678466"><ele>410.0</ele><time>2026-04-25T08:49:20.999Z</time></trkpt><trkpt lat="43.608556219898" lon="11.808493934984625"><ele>410.0</ele><time>2026-04-25T08:49:21.999Z</time></trkpt><trkpt lat="43.60860043325996" lon="11.808605415310035"><ele>410.0</ele><time>2026-04-25T08:49:22.999Z</time></trkpt><trkpt lat="43.60862766941147" lon="11.808710244414716"><ele>410.0</ele><time>2026-04-25T08:49:23.999Z</time></trkpt><trkpt lat="43.60865442297281" lon="11.808838604420727"><ele>409.3333333333333</ele><time>2026-04-25T08:49:24.999Z</time></trkpt><trkpt lat="43.60866900646514" lon="11.808971272144698"><ele>408.66666666666663</ele><time>2026-04-25T08:49:25.999Z</time></trkpt><trkpt lat="43.6086688337508" lon="11.809064195150244"><ele>408.0</ele><time>2026-04-25T08:49:26.999Z</time></trkpt><trkpt lat="43.60864669723708" lon="11.809174687332904"><ele>407.33333333333337</ele><time>2026-04-25T08:49:28.999Z</time></trkpt><trkpt lat="43.60870618234827" lon="11.809211699516764"><ele>406.6666666666667</ele><time>2026-04-25T08:49:32.999Z</time></trkpt><trkpt lat="43.60877181867625" lon="11.809245488196177"><ele>406.0</ele><time>2026-04-25T08:49:35.999Z</time></trkpt><trkpt lat="43.608818787225495" lon="11.809323218189752"><ele>405.00000000000006</ele><time>2026-04-25T08:49:39Z</time></trkpt><trkpt lat="43.60886887468617" lon="11.809387950058454"><ele>404.0</ele><time>2026-04-25T08:49:41Z</time></trkpt><trkpt lat="43.608926817152415" lon="11.809490386911408"><ele>403.0</ele><time>2026-04-25T08:49:44Z</time></trkpt><trkpt lat="43.60898087497465" lon="11.809571077475882"><ele>402.0</ele><time>2026-04-25T08:49:46Z</time></trkpt><trkpt lat="43.6090179705453" lon="11.809652885252964"><ele>401.00000000000006</ele><time>2026-04-25T08:49:48Z</time></trkpt><trkpt lat="43.60906644976639" lon="11.809735650656474"><ele>400.0</ele><time>2026-04-25T08:50:01Z</time></trkpt><trkpt lat="43.60909989868653" lon="11.80981574481938"><ele>400.00000000000006</ele><time>2026-04-25T08:50:03Z</time></trkpt><trkpt lat="43.60913544038013" lon="11.809891957909082"><ele>400.0</ele><time>2026-04-25T08:50:04Z</time></trkpt><trkpt lat="43.60918002977017" lon="11.809981589287384"><ele>400.0</ele><time>2026-04-25T08:50:05Z</time></trkpt><trkpt lat="43.60923493717231" lon="11.81007526487421"><ele>400.0</ele><time>2026-04-25T08:50:06Z</time></trkpt><trkpt lat="43.609290175301815" lon="11.810185552232493"><ele>400.00000000000006</ele><time>2026-04-25T08:50:07Z</time></trkpt><trkpt lat="43.60934439886426" lon="11.810298344625803"><ele>400.0</ele><time>2026-04-25T08:50:08Z</time></trkpt><trkpt lat="43.609394058942094" lon="11.810414103676"><ele>399.4</ele><time>2026-04-25T08:50:09Z</time></trkpt><trkpt lat="43.60945234672745" lon="11.810530337013596"><ele>398.8</ele><time>2026-04-25T08:50:10Z</time></trkpt><trkpt lat="43.60950396972406" lon="11.810649008052417"><ele>398.20000000000005</ele><time>2026-04-25T08:50:11Z</time></trkpt><trkpt lat="43.60953234705533" lon="11.810766978802581"><ele>397.6</ele><time>2026-04-25T08:50:12Z</time></trkpt><trkpt lat="43.60963835349863" lon="11.810871167822132"><ele>397.0</ele><time>2026-04-25T08:50:13Z</time></trkpt><trkpt lat="43.60970387889064" lon="11.810993024839455"><ele>395.5</ele><time>2026-04-25T08:50:14Z</time></trkpt><trkpt lat="43.60977279955707" lon="11.81112385616955"><ele>394.0</ele><time>2026-04-25T08:50:15Z</time></trkpt><trkpt lat="43.609838993975835" lon="11.811259728455811"><ele>392.5</ele><time>2026-04-25T08:50:16Z</time></trkpt><trkpt lat="43.609899269741305" lon="11.811394629859699"><ele>391.0</ele><time>2026-04-25T08:50:17Z</time></trkpt><trkpt lat="43.609948516760774" lon="11.811514995600257"><ele>391.0</ele><time>2026-04-25T08:50:18Z</time></trkpt><trkpt lat="43.60998282413912" lon="11.811621626453471"><ele>391.0</ele><time>2026-04-25T08:50:19Z</time></trkpt><trkpt lat="43.60997484169436" lon="11.811762367447557"><ele>391.0</ele><time>2026-04-25T08:50:20Z</time></trkpt><trkpt lat="43.60994904951415" lon="11.811906472661182"><ele>391.0</ele><time>2026-04-25T08:50:21Z</time></trkpt><trkpt lat="43.60994843002951" lon="11.812067190466738"><ele>391.0</ele><time>2026-04-25T08:50:22Z</time></trkpt><trkpt lat="43.609927124862175" lon="11.812242324213132"><ele>390.0</ele><time>2026-04-25T08:50:23Z</time></trkpt><trkpt lat="43.60992304312106" lon="11.812392735812034"><ele>389.0</ele><time>2026-04-25T08:50:24Z</time></trkpt><trkpt lat="43.609904962518954" lon="11.812530361651158"><ele>388.0</ele><time>2026-04-25T08:50:25Z</time></trkpt><trkpt lat="43.60989543321499" lon="11.812691752183278"><ele>387.0</ele><time>2026-04-25T08:50:26Z</time></trkpt><trkpt lat="43.60988647258821" lon="11.812840002860698"><ele>386.0</ele><time>2026-04-25T08:50:27Z</time></trkpt><trkpt lat="43.609922311917074" lon="11.812938657263638"><ele>384.8</ele><time>2026-04-25T08:50:28Z</time></trkpt><trkpt lat="43.60999549251514" lon="11.813007382401873"><ele>383.6</ele><time>2026-04-25T08:50:29Z</time></trkpt><trkpt lat="43.610098283552325" lon="11.813061937281397"><ele>382.4</ele><time>2026-04-25T08:50:30Z</time></trkpt><trkpt lat="43.610213184147405" lon="11.813124754281208"><ele>381.2</ele><time>2026-04-25T08:50:31Z</time></trkpt><trkpt lat="43.61032523011619" lon="11.813207391550282"><ele>380.0</ele><time>2026-04-25T08:50:32Z</time></trkpt><trkpt lat="43.610429051416865" lon="11.813292988638409"><ele>378.8</ele><time>2026-04-25T08:50:33Z</time></trkpt><trkpt lat="43.610516285126444" lon="11.813367277703076"><ele>377.6</ele><time>2026-04-25T08:50:34Z</time></trkpt><trkpt lat="43.61059862394816" lon="11.81344394081241"><ele>376.4</ele><time>2026-04-25T08:50:35Z</time></trkpt><trkpt lat="43.61067710267998" lon="11.813500849673444"><ele>375.2</ele><time>2026-04-25T08:50:36Z</time></trkpt><trkpt lat="43.610764884916584" lon="11.813513466191827"><ele>374.0</ele><time>2026-04-25T08:50:37Z</time></trkpt><trkpt lat="43.61085425518675" lon="11.813464750631653"><ele>374.0</ele><time>2026-04-25T08:50:37.999Z</time></trkpt><trkpt lat="43.61094532542841" lon="11.813371012903334"><ele>374.0</ele><time>2026-04-25T08:50:38.999Z</time></trkpt><trkpt lat="43.610995629765924" lon="11.813268087656082"><ele>374.0</ele><time>2026-04-25T08:50:39.999Z</time></trkpt><trkpt lat="43.611033880982276" lon="11.813144627617536"><ele>374.0</ele><time>2026-04-25T08:50:40.999Z</time></trkpt><trkpt lat="43.61103418620111" lon="11.812998438810215"><ele>374.0</ele><time>2026-04-25T08:50:41.999Z</time></trkpt><trkpt lat="43.611036236245205" lon="11.81285452961618"><ele>374.0</ele><time>2026-04-25T08:50:42.999Z</time></trkpt><trkpt lat="43.61103852806637" lon="11.812726378002505"><ele>374.0</ele><time>2026-04-25T08:50:43.999Z</time></trkpt><trkpt lat="43.61104183336708" lon="11.812604420278191"><ele>374.0</ele><time>2026-04-25T08:50:44.999Z</time></trkpt><trkpt lat="43.61105846138405" lon="11.812499472555801"><ele>374.0</ele><time>2026-04-25T08:50:45.999Z</time></trkpt><trkpt lat="43.61110392205494" lon="11.81240604291342"><ele>374.0</ele><time>2026-04-25T08:50:46.999Z</time></trkpt><trkpt lat="43.611201579632514" lon="11.812406914223649"><ele>374.0</ele><time>2026-04-25T08:50:47.999Z</time></trkpt><trkpt lat="43.6112951992583" lon="11.812420714321902"><ele>371.75</ele><time>2026-04-25T08:50:48.999Z</time></trkpt><trkpt lat="43.611375834831385" lon="11.812527716254342"><ele>369.5</ele><time>2026-04-25T08:50:49.999Z</time></trkpt><trkpt lat="43.61148976560346" lon="11.812582083359946"><ele>367.25</ele><time>2026-04-25T08:50:50.999Z</time></trkpt><trkpt lat="43.611589533241336" lon="11.812673778479907"><ele>365.0</ele><time>2026-04-25T08:50:51.999Z</time></trkpt><trkpt lat="43.611695736716705" lon="11.812735289242552"><ele>364.4</ele><time>2026-04-25T08:50:52.999Z</time></trkpt><trkpt lat="43.611775986389844" lon="11.81283005672899"><ele>363.8</ele><time>2026-04-25T08:50:53.999Z</time></trkpt><trkpt lat="43.61186478263491" lon="11.81292247711835"><ele>363.20000000000005</ele><time>2026-04-25T08:50:54.999Z</time></trkpt><trkpt lat="43.61194027295852" lon="11.813000409470698"><ele>362.6</ele><time>2026-04-25T08:50:55.999Z</time></trkpt><trkpt lat="43.612000944292326" lon="11.813111184831097"><ele>362.0</ele><time>2026-04-25T08:50:56.999Z</time></trkpt><trkpt lat="43.61201904608043" lon="11.813213218192997"><ele>358.5</ele><time>2026-04-25T08:50:57.999Z</time></trkpt><trkpt lat="43.61200370025041" lon="11.813361102848457"><ele>355.0</ele><time>2026-04-25T08:50:58.999Z</time></trkpt><trkpt lat="43.61200974106419" lon="11.813513939002556"><ele>351.5</ele><time>2026-04-25T08:50:59.999Z</time></trkpt><trkpt lat="43.61203079129692" lon="11.813687768559445"><ele>348.0</ele><time>2026-04-25T08:51:00.999Z</time></trkpt><trkpt lat="43.61203592073533" lon="11.81383500655606"><ele>347.3333333333333</ele><time>2026-04-25T08:51:01.999Z</time></trkpt><trkpt lat="43.612045776041796" lon="11.813971203198435"><ele>346.6666666666667</ele><time>2026-04-25T08:51:02.999Z</time></trkpt><trkpt lat="43.612042461583115" lon="11.814100592457738"><ele>346.0</ele><time>2026-04-25T08:51:03.999Z</time></trkpt><trkpt lat="43.612058207439155" lon="11.814222184792634"><ele>345.33333333333337</ele><time>2026-04-25T08:51:04.999Z</time></trkpt><trkpt lat="43.61209767260439" lon="11.814322828704984"><ele>344.6666666666667</ele><time>2026-04-25T08:51:05.999Z</time></trkpt><trkpt lat="43.61214500729965" lon="11.814417005750045"><ele>344.0</ele><time>2026-04-25T08:51:06.999Z</time></trkpt><trkpt lat="43.61228386673153" lon="11.814418561163258"><ele>343.2</ele><time>2026-04-25T08:51:07.999Z</time></trkpt><trkpt lat="43.612398922893554" lon="11.814446996455047"><ele>342.4</ele><time>2026-04-25T08:51:08.999Z</time></trkpt><trkpt lat="43.61250012695903" lon="11.814497128997637"><ele>341.6</ele><time>2026-04-25T08:51:09.999Z</time></trkpt><trkpt lat="43.612593875907024" lon="11.814548506393821"><ele>340.8</ele><time>2026-04-25T08:51:10.999Z</time></trkpt><trkpt lat="43.612684048645875" lon="11.81461400689421"><ele>340.0</ele><time>2026-04-25T08:51:11.999Z</time></trkpt><trkpt lat="43.61277365944243" lon="11.8146634974364"><ele>338.5</ele><time>2026-04-25T08:51:12.999Z</time></trkpt><trkpt lat="43.61286116164936" lon="11.814711854547943"><ele>337.0</ele><time>2026-04-25T08:51:13.999Z</time></trkpt><trkpt lat="43.61293380444866" lon="11.814753485136771"><ele>335.5</ele><time>2026-04-25T08:51:14.999Z</time></trkpt><trkpt lat="43.61300049500706" lon="11.814802092932132"><ele>334.0</ele><time>2026-04-25T08:51:15.999Z</time></trkpt><trkpt lat="43.61304849704095" lon="11.81485907901536"><ele>332.5</ele><time>2026-04-25T08:51:16.999Z</time></trkpt><trkpt lat="43.613029019531595" lon="11.815019746158718"><ele>331.0</ele><time>2026-04-25T08:51:18.999Z</time></trkpt><trkpt lat="43.61295494869412" lon="11.815077086737963"><ele>328.8333333333333</ele><time>2026-04-25T08:51:19.999Z</time></trkpt><trkpt lat="43.6129097992918" lon="11.81515514859477"><ele>326.66666666666663</ele><time>2026-04-25T08:51:20.999Z</time></trkpt><trkpt lat="43.61288177415466" lon="11.815326710540536"><ele>324.5</ele><time>2026-04-25T08:51:22.999Z</time></trkpt><trkpt lat="43.61291924095813" lon="11.815403993249738"><ele>322.3333333333333</ele><time>2026-04-25T08:51:23.999Z</time></trkpt><trkpt lat="43.612980695875365" lon="11.815454050040314"><ele>320.1666666666667</ele><time>2026-04-25T08:51:24.999Z</time></trkpt><trkpt lat="43.61305109869031" lon="11.815495794556139"><ele>318.0</ele><time>2026-04-25T08:51:25.999Z</time></trkpt><trkpt lat="43.613126616972124" lon="11.815457204812798"><ele>318.0</ele><time>2026-04-25T08:51:26.999Z</time></trkpt><trkpt lat="43.613196813139105" lon="11.81542092313037"><ele>318.0</ele><time>2026-04-25T08:51:27.999Z</time></trkpt><trkpt lat="43.61326628028452" lon="11.815405563999315"><ele>318.0</ele><time>2026-04-25T08:51:28.999Z</time></trkpt><trkpt lat="43.6133555481393" lon="11.81536341586225"><ele>318.0</ele><time>2026-04-25T08:51:29.999Z</time></trkpt><trkpt lat="43.61342639494301" lon="11.815322767159971"><ele>318.0</ele><time>2026-04-25T08:51:30.999Z</time></trkpt><trkpt lat="43.613499435141094" lon="11.815271164035828"><ele>318.0</ele><time>2026-04-25T08:51:31.999Z</time></trkpt><trkpt lat="43.61356958368865" lon="11.81523935116415"><ele>318.0</ele><time>2026-04-25T08:51:32.999Z</time></trkpt><trkpt lat="43.61362864358783" lon="11.815206138382026"><ele>318.0</ele><time>2026-04-25T08:51:33.999Z</time></trkpt><trkpt lat="43.61368660150265" lon="11.815113924455927"><ele>318.0</ele><time>2026-04-25T08:51:34.999Z</time></trkpt><trkpt lat="43.61370290673033" lon="11.81499489719543"><ele>318.0</ele><time>2026-04-25T08:51:35.999Z</time></trkpt><trkpt lat="43.61371060957063" lon="11.814879636311074"><ele>318.0</ele><time>2026-04-25T08:51:36.999Z</time></trkpt><trkpt lat="43.61370477217275" lon="11.814752591919524"><ele>318.0</ele><time>2026-04-25T08:51:37.999Z</time></trkpt><trkpt lat="43.61370528869218" lon="11.814660962394994"><ele>317.8333333333333</ele><time>2026-04-25T08:51:38.999Z</time></trkpt><trkpt lat="43.61372798865337" lon="11.814572926515035"><ele>317.6666666666667</ele><time>2026-04-25T08:51:39.999Z</time></trkpt><trkpt lat="43.61376530346635" lon="11.814482338535763"><ele>317.5</ele><time>2026-04-25T08:51:40.999Z</time></trkpt><trkpt lat="43.61384053915375" lon="11.81442289940567"><ele>317.33333333333337</ele><time>2026-04-25T08:51:41.999Z</time></trkpt><trkpt lat="43.61391811827164" lon="11.814343848352518"><ele>317.1666666666667</ele><time>2026-04-25T08:51:42.999Z</time></trkpt><trkpt lat="43.61399768363812" lon="11.814263993775503"><ele>317.0</ele><time>2026-04-25T08:51:44Z</time></trkpt><trkpt lat="43.61406740929687" lon="11.81421875125964"><ele>317.0</ele><time>2026-04-25T08:51:45Z</time></trkpt><trkpt lat="43.61415600120406" lon="11.81419991508227"><ele>317.0</ele><time>2026-04-25T08:51:46Z</time></trkpt><trkpt lat="43.61424422467567" lon="11.81430174403361"><ele>317.0</ele><time>2026-04-25T08:51:47Z</time></trkpt><trkpt lat="43.61435163806508" lon="11.814344177583507"><ele>317.0</ele><time>2026-04-25T08:51:48Z</time></trkpt><trkpt lat="43.61444909419863" lon="11.814417729735721"><ele>317.0</ele><time>2026-04-25T08:51:49Z</time></trkpt><trkpt lat="43.61454189481428" lon="11.814482917565028"><ele>316.6</ele><time>2026-04-25T08:51:50Z</time></trkpt><trkpt lat="43.614618399695196" lon="11.814553843466221"><ele>316.2</ele><time>2026-04-25T08:51:51Z</time></trkpt><trkpt lat="43.61468333105974" lon="11.814669004649529"><ele>315.8</ele><time>2026-04-25T08:51:52Z</time></trkpt><trkpt lat="43.61477175951565" lon="11.814759800644252"><ele>315.4</ele><time>2026-04-25T08:51:53Z</time></trkpt><trkpt lat="43.614858065077144" lon="11.814857242701125"><ele>315.0</ele><time>2026-04-25T08:51:54Z</time></trkpt><trkpt lat="43.61494370654568" lon="11.81492944791844"><ele>315.0</ele><time>2026-04-25T08:51:55Z</time></trkpt><trkpt lat="43.61503009454713" lon="11.814997940425085"><ele>315.0</ele><time>2026-04-25T08:51:56Z</time></trkpt><trkpt lat="43.61510526238814" lon="11.815051478757947"><ele>315.0</ele><time>2026-04-25T08:51:57Z</time></trkpt><trkpt lat="43.6151690519865" lon="11.815090325599831"><ele>315.0</ele><time>2026-04-25T08:51:58Z</time></trkpt><trkpt lat="43.61525141144587" lon="11.815030761256676"><ele>315.0</ele><time>2026-04-25T08:51:59Z</time></trkpt><trkpt lat="43.615352642762126" lon="11.814972889402258"><ele>313.5</ele><time>2026-04-25T08:52:00Z</time></trkpt><trkpt lat="43.61546093521497" lon="11.814930256442617"><ele>312.0</ele><time>2026-04-25T08:52:01Z</time></trkpt><trkpt lat="43.61557002193013" lon="11.814888687356708"><ele>310.5</ele><time>2026-04-25T08:52:02Z</time></trkpt><trkpt lat="43.61567771554896" lon="11.814849324371728"><ele>309.0</ele><time>2026-04-25T08:52:03Z</time></trkpt><trkpt lat="43.61578810770943" lon="11.814806920907149"><ele>309.0</ele><time>2026-04-25T08:52:04Z</time></trkpt><trkpt lat="43.61590022381161" lon="11.814769240204393"><ele>309.0</ele><time>2026-04-25T08:52:05Z</time></trkpt><trkpt lat="43.6160122277112" lon="11.814723524269928"><ele>309.0</ele><time>2026-04-25T08:52:06Z</time></trkpt><trkpt lat="43.616124619473325" lon="11.8146751103298"><ele>309.0</ele><time>2026-04-25T08:52:07Z</time></trkpt><trkpt lat="43.61623339590439" lon="11.81462394934755"><ele>309.25</ele><time>2026-04-25T08:52:08Z</time></trkpt><trkpt lat="43.61634467680019" lon="11.814553790206629"><ele>309.5</ele><time>2026-04-25T08:52:09Z</time></trkpt><trkpt lat="43.6164536067725" lon="11.8144838656341"><ele>309.75</ele><time>2026-04-25T08:52:10Z</time></trkpt><trkpt lat="43.616559311625466" lon="11.81440879936821"><ele>310.0</ele><time>2026-04-25T08:52:11Z</time></trkpt><trkpt lat="43.6166669716676" lon="11.814336054411573"><ele>310.0</ele><time>2026-04-25T08:52:12Z</time></trkpt><trkpt lat="43.616769268514226" lon="11.814257090651363"><ele>310.0</ele><time>2026-04-25T08:52:13Z</time></trkpt><trkpt lat="43.61687371409217" lon="11.814171912319653"><ele>310.0</ele><time>2026-04-25T08:52:14Z</time></trkpt><trkpt lat="43.61698053380045" lon="11.814093715173183"><ele>310.0</ele><time>2026-04-25T08:52:15Z</time></trkpt><trkpt lat="43.6170854035644" lon="11.814019283143406"><ele>310.0</ele><time>2026-04-25T08:52:16Z</time></trkpt><trkpt lat="43.61719054808148" lon="11.813944849612858"><ele>310.0</ele><time>2026-04-25T08:52:17Z</time></trkpt><trkpt lat="43.617294160354604" lon="11.813873083546168"><ele>310.0</ele><time>2026-04-25T08:52:18Z</time></trkpt><trkpt lat="43.61739825429991" lon="11.813800668334942"><ele>310.0</ele><time>2026-04-25T08:52:19Z</time></trkpt><trkpt lat="43.61748706413299" lon="11.813730905696778"><ele>310.0</ele><time>2026-04-25T08:52:20Z</time></trkpt><trkpt lat="43.617566833837465" lon="11.81366817921613"><ele>310.0</ele><time>2026-04-25T08:52:21Z</time></trkpt><trkpt lat="43.61764484813664" lon="11.813608502357337"><ele>310.0</ele><time>2026-04-25T08:52:22Z</time></trkpt><trkpt lat="43.61772612772133" lon="11.813553751994933"><ele>310.0</ele><time>2026-04-25T08:52:23Z</time></trkpt><trkpt lat="43.617805589165904" lon="11.81349471962675"><ele>310.0</ele><time>2026-04-25T08:52:24Z</time></trkpt><trkpt lat="43.617883039990275" lon="11.813445917268202"><ele>310.0</ele><time>2026-04-25T08:52:25Z</time></trkpt><trkpt lat="43.61795210763734" lon="11.813390723964064"><ele>312.0</ele><time>2026-04-25T08:52:26Z</time></trkpt><trkpt lat="43.61807209419473" lon="11.81330490089698"><ele>314.0</ele><time>2026-04-25T08:52:28Z</time></trkpt><trkpt lat="43.618115635672616" lon="11.813230481908812"><ele>316.0</ele><time>2026-04-25T08:52:30Z</time></trkpt><trkpt lat="43.61819349108505" lon="11.813179693141688"><ele>318.0</ele><time>2026-04-25T08:52:31Z</time></trkpt><trkpt lat="43.6183137049088" lon="11.81332553828535"><ele>318.0</ele><time>2026-04-25T08:54:16Z</time></trkpt><trkpt lat="43.61836628637942" lon="11.813409313928148"><ele>318.0</ele><time>2026-04-25T08:54:17Z</time></trkpt><trkpt lat="43.61842642089699" lon="11.813485493991838"><ele>318.0</ele><time>2026-04-25T08:54:18Z</time></trkpt><trkpt lat="43.61846643929921" lon="11.813575494092504"><ele>318.0</ele><time>2026-04-25T08:54:19Z</time></trkpt><trkpt lat="43.61852824987492" lon="11.813625008829975"><ele>318.0</ele><time>2026-04-25T08:54:20Z</time></trkpt><trkpt lat="43.61857686931062" lon="11.813718355969858"><ele>318.0</ele><time>2026-04-25T08:54:21Z</time></trkpt><trkpt lat="43.6186462347427" lon="11.813780124209382"><ele>317.8</ele><time>2026-04-25T08:54:22Z</time></trkpt><trkpt lat="43.61869868495669" lon="11.81386213379095"><ele>317.6</ele><time>2026-04-25T08:54:23Z</time></trkpt><trkpt lat="43.61875310822016" lon="11.813921728339043"><ele>317.4</ele><time>2026-04-25T08:54:24Z</time></trkpt><trkpt lat="43.618819038680435" lon="11.814014737262882"><ele>317.2</ele><time>2026-04-25T08:54:26Z</time></trkpt><trkpt lat="43.61890502219253" lon="11.814120897346521"><ele>317.0</ele><time>2026-04-25T08:54:28Z</time></trkpt><trkpt lat="43.618977005378646" lon="11.814204146228551"><ele>317.0</ele><time>2026-04-25T08:54:30Z</time></trkpt><trkpt lat="43.61902752113257" lon="11.814279183795833"><ele>317.0</ele><time>2026-04-25T08:54:32Z</time></trkpt><trkpt lat="43.61906604351523" lon="11.814355677756128"><ele>317.0</ele><time>2026-04-25T08:55:22.999Z</time></trkpt><trkpt lat="43.61908488079918" lon="11.814443204689077"><ele>317.0</ele><time>2026-04-25T08:55:29.999Z</time></trkpt><trkpt lat="43.619023570714845" lon="11.814413638693889"><ele>317.0</ele><time>2026-04-25T08:55:34.999Z</time></trkpt><trkpt lat="43.61897557281399" lon="11.814356837759563"><ele>317.0</ele><time>2026-04-25T08:55:39.999Z</time></trkpt><trkpt lat="43.61891730293093" lon="11.814391004884275"><ele>317.0</ele><time>2026-04-25T08:55:45.999Z</time></trkpt><trkpt lat="43.61889252664319" lon="11.814478978957172"><ele>317.0</ele><time>2026-04-25T08:56:18Z</time></trkpt><trkpt lat="43.61891951546792" lon="11.8143917477568"><ele>317.0</ele><time>2026-04-25T08:57:09.999Z</time></trkpt><trkpt lat="43.6189725257741" lon="11.81433558703885"><ele>317.0</ele><time>2026-04-25T08:57:47.999Z</time></trkpt><trkpt lat="43.61905841853582" lon="11.814404664681929"><ele>317.0</ele><time>2026-04-25T09:13:15Z</time></trkpt><trkpt lat="43.61906648438661" lon="11.814306965925411"><ele>317.0</ele><time>2026-04-25T09:13:23Z</time></trkpt><trkpt lat="43.61902446999909" lon="11.814187166165878"><ele>317.0</ele><time>2026-04-25T09:14:32.999Z</time></trkpt><trkpt lat="43.61895344692422" lon="11.814118315870441"><ele>317.0</ele><time>2026-04-25T09:14:33.999Z</time></trkpt><trkpt lat="43.618886858695475" lon="11.814041347666048"><ele>317.0</ele><time>2026-04-25T09:14:34.999Z</time></trkpt><trkpt lat="43.61882278921243" lon="11.813957570392905"><ele>317.0</ele><time>2026-04-25T09:14:35.999Z</time></trkpt><trkpt lat="43.618747594947415" lon="11.81386411357211"><ele>317.0</ele><time>2026-04-25T09:14:36.998Z</time></trkpt><trkpt lat="43.6186717495682" lon="11.813768523393804"><ele>317.0</ele><time>2026-04-25T09:14:37.998Z</time></trkpt><trkpt lat="43.61858950635811" lon="11.81366667794129"><ele>317.2</ele><time>2026-04-25T09:14:38.998Z</time></trkpt><trkpt lat="43.6185073197058" lon="11.813568473167885"><ele>317.4</ele><time>2026-04-25T09:14:39.998Z</time></trkpt><trkpt lat="43.61842813195457" lon="11.813473905298855"><ele>317.6</ele><time>2026-04-25T09:14:40.998Z</time></trkpt><trkpt lat="43.61835121211669" lon="11.813374150191839"><ele>317.8</ele><time>2026-04-25T09:14:41.998Z</time></trkpt><trkpt lat="43.6182715443197" lon="11.813279456833197"><ele>318.0</ele><time>2026-04-25T09:14:42.998Z</time></trkpt><trkpt lat="43.61820199256882" lon="11.813169056315237"><ele>318.0</ele><time>2026-04-25T09:14:43.998Z</time></trkpt><trkpt lat="43.61811721582828" lon="11.813079482926637"><ele>318.0</ele><time>2026-04-25T09:14:44.998Z</time></trkpt><trkpt lat="43.618051208472785" lon="11.812962175460992"><ele>318.0</ele><time>2026-04-25T09:14:45.998Z</time></trkpt><trkpt lat="43.617994955424514" lon="11.812829897976146"><ele>318.0</ele><time>2026-04-25T09:14:46.998Z</time></trkpt><trkpt lat="43.61795653782255" lon="11.812686697225677"><ele>318.0</ele><time>2026-04-25T09:14:47.998Z</time></trkpt><trkpt lat="43.61792105612092" lon="11.812545275717108"><ele>317.2</ele><time>2026-04-25T09:14:49Z</time></trkpt><trkpt lat="43.61788742554812" lon="11.812402375309386"><ele>316.4</ele><time>2026-04-25T09:14:50Z</time></trkpt><trkpt lat="43.617855308434955" lon="11.81226321956106"><ele>315.59999999999997</ele><time>2026-04-25T09:14:51Z</time></trkpt><trkpt lat="43.617812919931374" lon="11.812124052146377"><ele>314.8</ele><time>2026-04-25T09:14:52Z</time></trkpt><trkpt lat="43.61775261995874" lon="11.811994704167937"><ele>314.0</ele><time>2026-04-25T09:14:53Z</time></trkpt><trkpt lat="43.617685902063016" lon="11.811873017514069"><ele>314.59999999999997</ele><time>2026-04-25T09:14:54Z</time></trkpt><trkpt lat="43.61760754254591" lon="11.811764107588424"><ele>315.2</ele><time>2026-04-25T09:14:55Z</time></trkpt><trkpt lat="43.61752403730774" lon="11.811661256479177"><ele>315.79999999999995</ele><time>2026-04-25T09:14:56Z</time></trkpt><trkpt lat="43.617440125841476" lon="11.811559469484502"><ele>316.4</ele><time>2026-04-25T09:14:57Z</time></trkpt><trkpt lat="43.6173545858307" lon="11.811458010080505"><ele>317.0</ele><time>2026-04-25T09:14:58Z</time></trkpt><trkpt lat="43.61726587255696" lon="11.811361277720595"><ele>317.0</ele><time>2026-04-25T09:14:59Z</time></trkpt><trkpt lat="43.61718092150439" lon="11.811267751900273"><ele>317.0</ele><time>2026-04-25T09:15:00Z</time></trkpt><trkpt lat="43.617094250992196" lon="11.811181840087482"><ele>317.0</ele><time>2026-04-25T09:15:01Z</time></trkpt><trkpt lat="43.616998609845986" lon="11.811115238203266"><ele>317.0</ele><time>2026-04-25T09:15:02Z</time></trkpt><trkpt lat="43.61689036937057" lon="11.811074791183112"><ele>317.0</ele><time>2026-04-25T09:15:03Z</time></trkpt><trkpt lat="43.61677604955034" lon="11.81105308668146"><ele>316.0</ele><time>2026-04-25T09:15:04Z</time></trkpt><trkpt lat="43.61666028487798" lon="11.811028655917296"><ele>315.0</ele><time>2026-04-25T09:15:05Z</time></trkpt><trkpt lat="43.61654104346758" lon="11.810995380214765"><ele>314.0</ele><time>2026-04-25T09:15:06Z</time></trkpt><trkpt lat="43.61641956909819" lon="11.810952822866625"><ele>313.0</ele><time>2026-04-25T09:15:07Z</time></trkpt><trkpt lat="43.61630149976589" lon="11.810896612946898"><ele>313.25</ele><time>2026-04-25T09:15:08Z</time></trkpt><trkpt lat="43.61618507240844" lon="11.810814614720144"><ele>313.5</ele><time>2026-04-25T09:15:09Z</time></trkpt><trkpt lat="43.61607647889539" lon="11.810709783919586"><ele>313.75</ele><time>2026-04-25T09:15:10Z</time></trkpt><trkpt lat="43.615974075114366" lon="11.810587731515632"><ele>314.0</ele><time>2026-04-25T09:15:11Z</time></trkpt><trkpt lat="43.61588999756502" lon="11.81044469843761"><ele>314.0</ele><time>2026-04-25T09:15:12Z</time></trkpt><trkpt lat="43.61582344356589" lon="11.810288287044026"><ele>314.0</ele><time>2026-04-25T09:15:13Z</time></trkpt><trkpt lat="43.61578424845818" lon="11.810112733632337"><ele>314.0</ele><time>2026-04-25T09:15:14Z</time></trkpt><trkpt lat="43.61572131818956" lon="11.809954559383852"><ele>314.0</ele><time>2026-04-25T09:15:15Z</time></trkpt><trkpt lat="43.61566882934812" lon="11.809792866212852"><ele>315.0</ele><time>2026-04-25T09:15:16Z</time></trkpt><trkpt lat="43.61562336096881" lon="11.809655095402046"><ele>316.0</ele><time>2026-04-25T09:15:17Z</time></trkpt><trkpt lat="43.615583004209974" lon="11.80953861050825"><ele>317.0</ele><time>2026-04-25T09:15:18Z</time></trkpt><trkpt lat="43.61554051070202" lon="11.809412902513536"><ele>318.0</ele><time>2026-04-25T09:15:19Z</time></trkpt><trkpt lat="43.615493688387645" lon="11.809282772808436"><ele>319.0</ele><time>2026-04-25T09:15:20Z</time></trkpt><trkpt lat="43.615463112175085" lon="11.809143694884117"><ele>320.75</ele><time>2026-04-25T09:15:21Z</time></trkpt><trkpt lat="43.615427624545724" lon="11.808988597502115"><ele>322.5</ele><time>2026-04-25T09:15:22Z</time></trkpt><trkpt lat="43.61539312185604" lon="11.808815635966496"><ele>324.25</ele><time>2026-04-25T09:15:23Z</time></trkpt><trkpt lat="43.61536802251136" lon="11.808635846749368"><ele>326.0</ele><time>2026-04-25T09:15:24Z</time></trkpt><trkpt lat="43.61534652817059" lon="11.808457344877041"><ele>327.75</ele><time>2026-04-25T09:15:25Z</time></trkpt><trkpt lat="43.61533168850141" lon="11.808281887933052"><ele>329.5</ele><time>2026-04-25T09:15:26Z</time></trkpt><trkpt lat="43.615302541820185" lon="11.808106589574958"><ele>331.25</ele><time>2026-04-25T09:15:27Z</time></trkpt><trkpt lat="43.61528434950651" lon="11.8079281749852"><ele>333.0</ele><time>2026-04-25T09:15:28Z</time></trkpt><trkpt lat="43.6152539929548" lon="11.807749830427268"><ele>329.0</ele><time>2026-04-25T09:15:28.999Z</time></trkpt><trkpt lat="43.61522801510721" lon="11.807582763893283"><ele>325.0</ele><time>2026-04-25T09:15:29.999Z</time></trkpt><trkpt lat="43.61520067453992" lon="11.807409866869067"><ele>321.0</ele><time>2026-04-25T09:15:30.999Z</time></trkpt><trkpt lat="43.61517776794583" lon="11.8072685353944"><ele>317.0</ele><time>2026-04-25T09:15:31.999Z</time></trkpt><trkpt lat="43.615158154617774" lon="11.80713769908684"><ele>317.0</ele><time>2026-04-25T09:15:32.999Z</time></trkpt><trkpt lat="43.61513649338481" lon="11.807024437210838"><ele>317.0</ele><time>2026-04-25T09:15:33.999Z</time></trkpt><trkpt lat="43.61512337097021" lon="11.806932779514284"><ele>317.0</ele><time>2026-04-25T09:15:34.999Z</time></trkpt><trkpt lat="43.61512685429967" lon="11.806821777085863"><ele>317.0</ele><time>2026-04-25T09:15:36.999Z</time></trkpt><trkpt lat="43.615271305198" lon="11.80680534564732"><ele>317.0</ele><time>2026-04-25T09:15:42.999Z</time></trkpt><trkpt lat="43.61534786905564" lon="11.806854767620313"><ele>320.8</ele><time>2026-04-25T09:15:44.999Z</time></trkpt><trkpt lat="43.615322400492055" lon="11.807046948160394"><ele>324.6</ele><time>2026-04-25T09:15:46.999Z</time></trkpt><trkpt lat="43.6153321718281" lon="11.807148803647825"><ele>328.40000000000003</ele><time>2026-04-25T09:15:47.999Z</time></trkpt><trkpt lat="43.615344648244616" lon="11.807259130328388"><ele>332.2</ele><time>2026-04-25T09:15:48.999Z</time></trkpt><trkpt lat="43.61536624618262" lon="11.807383401805538"><ele>336.0</ele><time>2026-04-25T09:15:49.999Z</time></trkpt><trkpt lat="43.61538657021983" lon="11.807489521230975"><ele>336.0</ele><time>2026-04-25T09:15:50.999Z</time></trkpt><trkpt lat="43.615402833933885" lon="11.807584721749508"><ele>336.0</ele><time>2026-04-25T09:15:51.999Z</time></trkpt><trkpt lat="43.61542888075837" lon="11.807693863929822"><ele>336.0</ele><time>2026-04-25T09:15:52.999Z</time></trkpt><trkpt lat="43.615456002894796" lon="11.807804033329816"><ele>336.0</ele><time>2026-04-25T09:15:53.999Z</time></trkpt><trkpt lat="43.61548484378252" lon="11.807905715794837"><ele>336.0</ele><time>2026-04-25T09:15:54.999Z</time></trkpt><trkpt lat="43.61553539967047" lon="11.808014560606198"><ele>336.0</ele><time>2026-04-25T09:15:55.999Z</time></trkpt><trkpt lat="43.61559120128692" lon="11.808120124400684"><ele>335.5</ele><time>2026-04-25T09:15:56.999Z</time></trkpt><trkpt lat="43.61563152015061" lon="11.808234157401372"><ele>335.0</ele><time>2026-04-25T09:15:57.999Z</time></trkpt><trkpt lat="43.61567159966105" lon="11.808343603967366"><ele>334.5</ele><time>2026-04-25T09:15:58.999Z</time></trkpt><trkpt lat="43.6157317780002" lon="11.808437934398668"><ele>334.0</ele><time>2026-04-25T09:15:59.999Z</time></trkpt><trkpt lat="43.61580129325211" lon="11.808512174840915"><ele>333.5</ele><time>2026-04-25T09:16:00.999Z</time></trkpt><trkpt lat="43.61587205103065" lon="11.808568418660458"><ele>333.0</ele><time>2026-04-25T09:16:01.999Z</time></trkpt><trkpt lat="43.61595205340605" lon="11.808576937494783"><ele>331.8333333333333</ele><time>2026-04-25T09:16:02.999Z</time></trkpt><trkpt lat="43.616038056394906" lon="11.808545050533203"><ele>330.6666666666667</ele><time>2026-04-25T09:16:04.999Z</time></trkpt><trkpt lat="43.61610741260832" lon="11.808503324615874"><ele>329.5</ele><time>2026-04-25T09:16:06.999Z</time></trkpt><trkpt lat="43.616179967252805" lon="11.808458469978987"><ele>328.33333333333337</ele><time>2026-04-25T09:16:08.999Z</time></trkpt><trkpt lat="43.616251193471406" lon="11.808391950719697"><ele>327.1666666666667</ele><time>2026-04-25T09:16:10.999Z</time></trkpt><trkpt lat="43.616342333842674" lon="11.808311330656947"><ele>326.0</ele><time>2026-04-25T09:16:12.999Z</time></trkpt><trkpt lat="43.61643319272922" lon="11.808217740451436"><ele>331.20000000000005</ele><time>2026-04-25T09:16:14.999Z</time></trkpt><trkpt lat="43.616539597853304" lon="11.808172513748051"><ele>336.40000000000003</ele><time>2026-04-25T09:16:16.999Z</time></trkpt><trkpt lat="43.61662981279601" lon="11.808204785582442"><ele>341.6</ele><time>2026-04-25T09:16:18.999Z</time></trkpt><trkpt lat="43.616729171438266" lon="11.808271350887441"><ele>346.8</ele><time>2026-04-25T09:16:20.999Z</time></trkpt><trkpt lat="43.61679139416024" lon="11.808301267391757"><ele>352.0</ele><time>2026-04-25T09:16:21.999Z</time></trkpt><trkpt lat="43.61686277652268" lon="11.80831797697602"><ele>352.0</ele><time>2026-04-25T09:16:22.999Z</time></trkpt><trkpt lat="43.616956004411456" lon="11.808280909189707"><ele>352.0</ele><time>2026-04-25T09:16:24.999Z</time></trkpt><trkpt lat="43.61692197429136" lon="11.808081508216478"><ele>352.0</ele><time>2026-04-25T09:16:26.998Z</time></trkpt><trkpt lat="43.61688922762094" lon="11.807999777726703"><ele>352.0</ele><time>2026-04-25T09:16:27.998Z</time></trkpt><trkpt lat="43.61686193300006" lon="11.80785337451273"><ele>352.0</ele><time>2026-04-25T09:16:29.998Z</time></trkpt><trkpt lat="43.61692442001323" lon="11.8077304479324"><ele>352.0</ele><time>2026-04-25T09:16:31.998Z</time></trkpt><trkpt lat="43.6169801798499" lon="11.80766835870394"><ele>352.0</ele><time>2026-04-25T09:16:33.998Z</time></trkpt><trkpt lat="43.61708125657602" lon="11.807703289105735"><ele>352.0</ele><time>2026-04-25T09:16:34.998Z</time></trkpt><trkpt lat="43.617179111645804" lon="11.80774264998527"><ele>352.0</ele><time>2026-04-25T09:16:36.998Z</time></trkpt><trkpt lat="43.617281036456305" lon="11.80783031725019"><ele>352.0</ele><time>2026-04-25T09:16:38.998Z</time></trkpt><trkpt lat="43.61733969575054" lon="11.80787450171042"><ele>354.0</ele><time>2026-04-25T09:16:39.998Z</time></trkpt><trkpt lat="43.61740596090269" lon="11.807913151468947"><ele>356.0</ele><time>2026-04-25T09:16:40.998Z</time></trkpt><trkpt lat="43.61747696923321" lon="11.80786193175411"><ele>358.0</ele><time>2026-04-25T09:16:41.998Z</time></trkpt><trkpt lat="43.617540932491835" lon="11.807803107408477"><ele>360.0</ele><time>2026-04-25T09:16:42.998Z</time></trkpt><trkpt lat="43.61761942477132" lon="11.807760295748436"><ele>362.0</ele><time>2026-04-25T09:16:43.998Z</time></trkpt><trkpt lat="43.617684115854786" lon="11.807699646599465"><ele>364.0</ele><time>2026-04-25T09:16:44.998Z</time></trkpt><trkpt lat="43.61775989492758" lon="11.807627576656941"><ele>366.66666666666663</ele><time>2026-04-25T09:16:45.998Z</time></trkpt><trkpt lat="43.61782696081754" lon="11.807531540500468"><ele>369.3333333333333</ele><time>2026-04-25T09:16:46.998Z</time></trkpt><trkpt lat="43.617905198278365" lon="11.807467146605498"><ele>372.0</ele><time>2026-04-25T09:16:47.998Z</time></trkpt><trkpt lat="43.61797655870141" lon="11.80740312518821"><ele>374.6666666666667</ele><time>2026-04-25T09:16:48.998Z</time></trkpt><trkpt lat="43.61804689415298" lon="11.807341209326763"><ele>377.33333333333337</ele><time>2026-04-25T09:16:49.998Z</time></trkpt><trkpt lat="43.61811411354969" lon="11.807274695420183"><ele>380.0</ele><time>2026-04-25T09:16:50.998Z</time></trkpt><trkpt lat="43.61817447048132" lon="11.807192624860615"><ele>380.0</ele><time>2026-04-25T09:16:51.998Z</time></trkpt><trkpt lat="43.618252201792934" lon="11.807132204810541"><ele>380.0</ele><time>2026-04-25T09:16:52.998Z</time></trkpt><trkpt lat="43.61832755758026" lon="11.807065405262335"><ele>380.0</ele><time>2026-04-25T09:16:53.998Z</time></trkpt><trkpt lat="43.618406244553576" lon="11.806995652778602"><ele>380.0</ele><time>2026-04-25T09:16:54.999Z</time></trkpt><trkpt lat="43.61846589832298" lon="11.806926819060005"><ele>380.0</ele><time>2026-04-25T09:16:55.999Z</time></trkpt><trkpt lat="43.61854141841668" lon="11.806896959597173"><ele>380.0</ele><time>2026-04-25T09:16:56.999Z</time></trkpt><trkpt lat="43.618609597384314" lon="11.806847660979457"><ele>380.33333333333337</ele><time>2026-04-25T09:16:57.999Z</time></trkpt><trkpt lat="43.61867954789579" lon="11.806910371874643"><ele>380.6666666666667</ele><time>2026-04-25T09:16:58.999Z</time></trkpt><trkpt lat="43.61876136018438" lon="11.806920277321556"><ele>381.0</ele><time>2026-04-25T09:16:59.999Z</time></trkpt><trkpt lat="43.61884084825551" lon="11.806869567410093"><ele>381.3333333333333</ele><time>2026-04-25T09:17:00.999Z</time></trkpt><trkpt lat="43.61891058687882" lon="11.806796940951585"><ele>381.66666666666663</ele><time>2026-04-25T09:17:01.999Z</time></trkpt><trkpt lat="43.61896130022831" lon="11.806727381979337"><ele>382.0</ele><time>2026-04-25T09:17:02.999Z</time></trkpt><trkpt lat="43.61898940178336" lon="11.806580043957606"><ele>384.20000000000005</ele><time>2026-04-25T09:17:04.999Z</time></trkpt><trkpt lat="43.61893123085959" lon="11.80647949346302"><ele>386.4</ele><time>2026-04-25T09:17:05.999Z</time></trkpt><trkpt lat="43.618876355809185" lon="11.806360028517972"><ele>388.6</ele><time>2026-04-25T09:17:06.999Z</time></trkpt><trkpt lat="43.61881659107533" lon="11.806222938879344"><ele>390.79999999999995</ele><time>2026-04-25T09:17:07.999Z</time></trkpt><trkpt lat="43.6187588067275" lon="11.80607853684483"><ele>393.0</ele><time>2026-04-25T09:17:08.999Z</time></trkpt><trkpt lat="43.61869792749737" lon="11.805929759909022"><ele>393.0</ele><time>2026-04-25T09:17:09.999Z</time></trkpt><trkpt lat="43.61864065372952" lon="11.805779660320525"><ele>393.0</ele><time>2026-04-25T09:17:10.999Z</time></trkpt><trkpt lat="43.61857861863602" lon="11.805653563559147"><ele>393.0</ele><time>2026-04-25T09:17:11.999Z</time></trkpt><trkpt lat="43.61853538263138" lon="11.805541202406282"><ele>393.0</ele><time>2026-04-25T09:17:12.999Z</time></trkpt><trkpt lat="43.618503007707226" lon="11.805437304980169"><ele>393.0</ele><time>2026-04-25T09:17:13.999Z</time></trkpt><trkpt lat="43.61846459542017" lon="11.80532125069511"><ele>393.0</ele><time>2026-04-25T09:17:14.999Z</time></trkpt><trkpt lat="43.61843709594355" lon="11.805218180088179"><ele>393.0</ele><time>2026-04-25T09:17:15.999Z</time></trkpt><trkpt lat="43.618447380445055" lon="11.80507470252341"><ele>393.0</ele><time>2026-04-25T09:17:17.999Z</time></trkpt><trkpt lat="43.618505757648876" lon="11.805024042656688"><ele>393.0</ele><time>2026-04-25T09:17:18.999Z</time></trkpt><trkpt lat="43.618597938872824" lon="11.805040460158375"><ele>393.0</ele><time>2026-04-25T09:17:19.999Z</time></trkpt><trkpt lat="43.618694186757146" lon="11.805004729879249"><ele>393.0</ele><time>2026-04-25T09:17:20.999Z</time></trkpt><trkpt lat="43.61878954558324" lon="11.804937314684878"><ele>396.4</ele><time>2026-04-25T09:17:21.999Z</time></trkpt><trkpt lat="43.618900839738615" lon="11.804907204914116"><ele>399.79999999999995</ele><time>2026-04-25T09:17:22.999Z</time></trkpt><trkpt lat="43.61900459359093" lon="11.804860318538987"><ele>403.2</ele><time>2026-04-25T09:17:23.999Z</time></trkpt><trkpt lat="43.61910707084256" lon="11.804814015162844"><ele>406.6</ele><time>2026-04-25T09:17:24.999Z</time></trkpt><trkpt lat="43.61921394189547" lon="11.804763944913791"><ele>410.0</ele><time>2026-04-25T09:17:25.999Z</time></trkpt><trkpt lat="43.61931415302336" lon="11.8047075154516"><ele>410.0</ele><time>2026-04-25T09:17:26.999Z</time></trkpt><trkpt lat="43.61941011533119" lon="11.804648204470483"><ele>410.0</ele><time>2026-04-25T09:17:27.999Z</time></trkpt><trkpt lat="43.61950329794432" lon="11.804599150559472"><ele>410.0</ele><time>2026-04-25T09:17:28.999Z</time></trkpt><trkpt lat="43.61960730086325" lon="11.804549763408946"><ele>410.0</ele><time>2026-04-25T09:17:29.999Z</time></trkpt><trkpt lat="43.61967857691827" lon="11.804485438603715"><ele>410.0</ele><time>2026-04-25T09:17:30.999Z</time></trkpt><trkpt lat="43.61971689971675" lon="11.804338215666187"><ele>411.6</ele><time>2026-04-25T09:17:32.999Z</time></trkpt><trkpt lat="43.61967470963071" lon="11.804243004590694"><ele>413.2</ele><time>2026-04-25T09:17:33.999Z</time></trkpt><trkpt lat="43.6196126583361" lon="11.804133185183142"><ele>414.79999999999995</ele><time>2026-04-25T09:17:34.999Z</time></trkpt><trkpt lat="43.61954025379419" lon="11.804024042484182"><ele>416.4</ele><time>2026-04-25T09:17:35.999Z</time></trkpt><trkpt lat="43.61948713915869" lon="11.80390157567592"><ele>418.0</ele><time>2026-04-25T09:17:36.999Z</time></trkpt><trkpt lat="43.61947076736599" lon="11.803752002100998"><ele>418.0</ele><time>2026-04-25T09:17:37.999Z</time></trkpt><trkpt lat="43.619418471556806" lon="11.803642817229653"><ele>418.0</ele><time>2026-04-25T09:17:38.999Z</time></trkpt><trkpt lat="43.619349613144905" lon="11.803566382563952"><ele>418.0</ele><time>2026-04-25T09:17:39.999Z</time></trkpt><trkpt lat="43.61925853096061" lon="11.803543170987378"><ele>418.0</ele><time>2026-04-25T09:17:40.999Z</time></trkpt><trkpt lat="43.619145613296446" lon="11.803488335118818"><ele>418.0</ele><time>2026-04-25T09:17:41.999Z</time></trkpt><trkpt lat="43.61903880450352" lon="11.803426999477258"><ele>420.4</ele><time>2026-04-25T09:17:42.999Z</time></trkpt><trkpt lat="43.618947768128145" lon="11.803344655912325"><ele>422.79999999999995</ele><time>2026-04-25T09:17:43.999Z</time></trkpt><trkpt lat="43.61885260345575" lon="11.803272281870498"><ele>425.2</ele><time>2026-04-25T09:17:44.999Z</time></trkpt><trkpt lat="43.61875166822107" lon="11.803226152897851"><ele>427.6</ele><time>2026-04-25T09:17:45.999Z</time></trkpt><trkpt lat="43.61865287238627" lon="11.803169637716003"><ele>430.0</ele><time>2026-04-25T09:17:46.999Z</time></trkpt><trkpt lat="43.61855633946882" lon="11.803107574768642"><ele>430.00000000000006</ele><time>2026-04-25T09:17:47.999Z</time></trkpt><trkpt lat="43.61849018283505" lon="11.80304396621383"><ele>430.0</ele><time>2026-04-25T09:17:48.999Z</time></trkpt><trkpt lat="43.6184564531193" lon="11.802966651479203"><ele>430.0</ele><time>2026-04-25T09:17:49.999Z</time></trkpt><trkpt lat="43.618469260543606" lon="11.80286369044571"><ele>430.0</ele><time>2026-04-25T09:17:50.999Z</time></trkpt><trkpt lat="43.61847545528536" lon="11.802701784273015"><ele>430.00000000000006</ele><time>2026-04-25T09:17:52.999Z</time></trkpt><trkpt lat="43.61846812684848" lon="11.802585453647854"><ele>430.0</ele><time>2026-04-25T09:17:53.999Z</time></trkpt><trkpt lat="43.61843014694243" lon="11.802462675113883"><ele>430.0</ele><time>2026-04-25T09:17:54.999Z</time></trkpt><trkpt lat="43.61838278906839" lon="11.802396621839236"><ele>430.0</ele><time>2026-04-25T09:17:55.999Z</time></trkpt><trkpt lat="43.618304627245735" lon="11.802379407822617"><ele>430.0</ele><time>2026-04-25T09:17:57.999Z</time></trkpt><trkpt lat="43.61837627804383" lon="11.802441697699118"><ele>430.0</ele><time>2026-04-25T09:18:20.999Z</time></trkpt><trkpt lat="43.61846972289014" lon="11.80263408889721"><ele>430.0</ele><time>2026-04-25T09:18:22.998Z</time></trkpt><trkpt lat="43.618481608593335" lon="11.802752568495166"><ele>430.00000000000006</ele><time>2026-04-25T09:18:23.998Z</time></trkpt><trkpt lat="43.6184445890406" lon="11.802846544372152"><ele>430.0</ele><time>2026-04-25T09:18:24.998Z</time></trkpt><trkpt lat="43.61846034919554" lon="11.802942153213042"><ele>430.0</ele><time>2026-04-25T09:18:25.998Z</time></trkpt><trkpt lat="43.61845287344002" lon="11.803032496839778"><ele>430.0</ele><time>2026-04-25T09:18:26.998Z</time></trkpt><trkpt lat="43.61848948601634" lon="11.80312051641278"><ele>430.00000000000006</ele><time>2026-04-25T09:18:27.998Z</time></trkpt><trkpt lat="43.618597418011355" lon="11.80316612348569"><ele>430.0</ele><time>2026-04-25T09:18:28.998Z</time></trkpt><trkpt lat="43.618706288137396" lon="11.803257764032944"><ele>430.6</ele><time>2026-04-25T09:18:29.998Z</time></trkpt><trkpt lat="43.618822141649524" lon="11.803327301244199"><ele>431.2</ele><time>2026-04-25T09:18:30.998Z</time></trkpt><trkpt lat="43.61892492512166" lon="11.803388155621212"><ele>431.79999999999995</ele><time>2026-04-25T09:18:31.998Z</time></trkpt><trkpt lat="43.61902527049586" lon="11.803447566243253"><ele>432.4</ele><time>2026-04-25T09:18:32.998Z</time></trkpt><trkpt lat="43.6191181497812" lon="11.803500197753786"><ele>433.0</ele><time>2026-04-25T09:18:33.998Z</time></trkpt><trkpt lat="43.619218400925504" lon="11.803553783332292"><ele>432.83333333333337</ele><time>2026-04-25T09:18:34.998Z</time></trkpt><trkpt lat="43.619309918792965" lon="11.803604661783249"><ele>432.6666666666667</ele><time>2026-04-25T09:18:35.998Z</time></trkpt><trkpt lat="43.61937950179264" lon="11.803655393842535"><ele>432.5</ele><time>2026-04-25T09:18:36.998Z</time></trkpt><trkpt lat="43.61942404171054" lon="11.803732965567319"><ele>432.33333333333337</ele><time>2026-04-25T09:18:37.998Z</time></trkpt><trkpt lat="43.61948206464579" lon="11.803799842470635"><ele>432.1666666666667</ele><time>2026-04-25T09:18:38.998Z</time></trkpt><trkpt lat="43.61948083294873" lon="11.803945306958223"><ele>432.0</ele><time>2026-04-25T09:18:39.998Z</time></trkpt><trkpt lat="43.61953335827803" lon="11.804066228560009"><ele>432.0</ele><time>2026-04-25T09:18:40.998Z</time></trkpt><trkpt lat="43.619582740244574" lon="11.804168284850453"><ele>432.0</ele><time>2026-04-25T09:18:41.998Z</time></trkpt><trkpt lat="43.61963747483896" lon="11.804263583935704"><ele>432.0</ele><time>2026-04-25T09:18:42.998Z</time></trkpt><trkpt lat="43.61967810507266" lon="11.804338446594922"><ele>432.0</ele><time>2026-04-25T09:18:43.998Z</time></trkpt><trkpt lat="43.619684169914954" lon="11.804449969150102"><ele>432.0</ele><time>2026-04-25T09:18:45.998Z</time></trkpt><trkpt lat="43.61959428038534" lon="11.804517356893799"><ele>432.0</ele><time>2026-04-25T09:18:57.998Z</time></trkpt><trkpt lat="43.619508292110176" lon="11.804566723326253"><ele>429.0</ele><time>2026-04-25T09:18:58.998Z</time></trkpt><trkpt lat="43.61941740349818" lon="11.804631752791012"><ele>426.0</ele><time>2026-04-25T09:18:59.998Z</time></trkpt><trkpt lat="43.61933166603619" lon="11.804665843779594"><ele>423.0</ele><time>2026-04-25T09:19:00.999Z</time></trkpt><trkpt lat="43.619259620621776" lon="11.804693316000066"><ele>420.0</ele><time>2026-04-25T09:19:02.999Z</time></trkpt><trkpt lat="43.61971238807568" lon="11.8047396333052"><ele>420.0</ele><time>2026-04-25T09:19:07.999Z</time></trkpt><trkpt lat="43.61934396873204" lon="11.804678926969697"><ele>420.0</ele><time>2026-04-25T09:19:09.999Z</time></trkpt><trkpt lat="43.619494462783244" lon="11.805075371699706"><ele>420.0</ele><time>2026-04-25T09:19:18.999Z</time></trkpt><trkpt lat="43.619559218605694" lon="11.805152567622539"><ele>420.0</ele><time>2026-04-25T09:19:20.999Z</time></trkpt><trkpt lat="43.61957355717274" lon="11.80524073461831"><ele>420.0</ele><time>2026-04-25T09:19:22.999Z</time></trkpt><trkpt lat="43.61961231507948" lon="11.805320511703778"><ele>420.0</ele><time>2026-04-25T09:19:24.999Z</time></trkpt><trkpt lat="43.61966332839614" lon="11.805383186902459"><ele>420.0</ele><time>2026-04-25T09:19:26.999Z</time></trkpt><trkpt lat="43.6197498031356" lon="11.805369750325621"><ele>420.0</ele><time>2026-04-25T09:19:34.999Z</time></trkpt><trkpt lat="43.619816736740894" lon="11.805438049254786"><ele>419.0</ele><time>2026-04-25T09:19:38.999Z</time></trkpt><trkpt lat="43.61983058491792" lon="11.805525793904689"><ele>418.0</ele><time>2026-04-25T09:19:42.999Z</time></trkpt><trkpt lat="43.619831827661024" lon="11.80562273874973"><ele>417.0</ele><time>2026-04-25T09:19:46.999Z</time></trkpt><trkpt lat="43.61982661263677" lon="11.805716273865526"><ele>416.0</ele><time>2026-04-25T09:19:52.999Z</time></trkpt><trkpt lat="43.619923359823645" lon="11.805739399996321"><ele>415.0</ele><time>2026-04-25T09:19:59.999Z</time></trkpt><trkpt lat="43.6199846704641" lon="11.805716277509342"><ele>414.0</ele><time>2026-04-25T09:20:01.999Z</time></trkpt><trkpt lat="43.620052641926314" lon="11.805721407760908"><ele>413.0</ele><time>2026-04-25T09:20:04.999Z</time></trkpt><trkpt lat="43.620136729964926" lon="11.805668066797711"><ele>412.99999999999994</ele><time>2026-04-25T09:20:06.999Z</time></trkpt><trkpt lat="43.62021267944029" lon="11.805594312048317"><ele>413.0</ele><time>2026-04-25T09:20:13.999Z</time></trkpt><trkpt lat="43.62027939062199" lon="11.80557125739093"><ele>413.0</ele><time>2026-04-25T09:20:15.999Z</time></trkpt><trkpt lat="43.6203397874177" lon="11.805506662175889"><ele>413.0</ele><time>2026-04-25T09:20:17.999Z</time></trkpt><trkpt lat="43.62040838193794" lon="11.805448378028704"><ele>412.99999999999994</ele><time>2026-04-25T09:20:20.999Z</time></trkpt><trkpt lat="43.62047560347282" lon="11.805403635511778"><ele>413.0</ele><time>2026-04-25T09:20:22.999Z</time></trkpt><trkpt lat="43.62053714188591" lon="11.805352336535657"><ele>416.66666666666663</ele><time>2026-04-25T09:20:24.999Z</time></trkpt><trkpt lat="43.620607121273856" lon="11.805361567619283"><ele>420.3333333333333</ele><time>2026-04-25T09:20:26.999Z</time></trkpt><trkpt lat="43.62069045361892" lon="11.80536512581183"><ele>424.0</ele><time>2026-04-25T09:20:29.999Z</time></trkpt><trkpt lat="43.620714216881986" lon="11.80550036853027"><ele>427.66666666666663</ele><time>2026-04-25T09:20:31.999Z</time></trkpt><trkpt lat="43.62073431889122" lon="11.805597006855987"><ele>431.3333333333333</ele><time>2026-04-25T09:20:32.999Z</time></trkpt><trkpt lat="43.62076804002466" lon="11.805690302021834"><ele>435.0</ele><time>2026-04-25T09:20:34.999Z</time></trkpt><trkpt lat="43.620855814754215" lon="11.805696530093897"><ele>435.0</ele><time>2026-04-25T09:20:36.999Z</time></trkpt><trkpt lat="43.620941753199226" lon="11.805640119792631"><ele>435.0</ele><time>2026-04-25T09:20:38.999Z</time></trkpt><trkpt lat="43.62104460764302" lon="11.80565312562348"><ele>435.0</ele><time>2026-04-25T09:20:40.999Z</time></trkpt><trkpt lat="43.62112049192988" lon="11.80558980002624"><ele>435.0</ele><time>2026-04-25T09:20:42.998Z</time></trkpt><trkpt lat="43.62118441368433" lon="11.805476628460008"><ele>435.0</ele><time>2026-04-25T09:20:44.998Z</time></trkpt><trkpt lat="43.62125250894166" lon="11.805377524527684"><ele>437.6666666666667</ele><time>2026-04-25T09:20:46.998Z</time></trkpt><trkpt lat="43.62127271981337" lon="11.80527374203583"><ele>440.33333333333337</ele><time>2026-04-25T09:21:11.999Z</time></trkpt><trkpt lat="43.62129922399516" lon="11.805145974686436"><ele>443.0</ele><time>2026-04-25T09:21:13.999Z</time></trkpt><trkpt lat="43.62130268648465" lon="11.805058390055624"><ele>445.6666666666667</ele><time>2026-04-25T09:21:14.999Z</time></trkpt><trkpt lat="43.62133552990103" lon="11.804975409106598"><ele>448.33333333333337</ele><time>2026-04-25T09:21:15.999Z</time></trkpt><trkpt lat="43.621398927676644" lon="11.804911574921476"><ele>451.0</ele><time>2026-04-25T09:21:16.999Z</time></trkpt><trkpt lat="43.6214677088138" lon="11.804871079240206"><ele>453.33333333333337</ele><time>2026-04-25T09:21:17.999Z</time></trkpt><trkpt lat="43.621523221761684" lon="11.804823645225202"><ele>455.6666666666667</ele><time>2026-04-25T09:21:18.999Z</time></trkpt><trkpt lat="43.621508999048494" lon="11.80467418034031"><ele>458.0</ele><time>2026-04-25T09:21:21.999Z</time></trkpt><trkpt lat="43.62150014558025" lon="11.804581647046504"><ele>460.33333333333337</ele><time>2026-04-25T09:21:23.999Z</time></trkpt><trkpt lat="43.621582118848536" lon="11.80447921112537"><ele>462.6666666666667</ele><time>2026-04-25T09:21:25.999Z</time></trkpt><trkpt lat="43.62162775031558" lon="11.804368601531953"><ele>465.0</ele><time>2026-04-25T09:21:27.999Z</time></trkpt><trkpt lat="43.621695263699856" lon="11.804304918061854"><ele>466.75</ele><time>2026-04-25T09:21:31.999Z</time></trkpt><trkpt lat="43.62177970576702" lon="11.804319946285116"><ele>468.5</ele><time>2026-04-25T09:21:33.999Z</time></trkpt><trkpt lat="43.62192188626212" lon="11.804319024348583"><ele>470.25</ele><time>2026-04-25T09:22:26.999Z</time></trkpt><trkpt lat="43.62203060964747" lon="11.804319290893746"><ele>472.0</ele><time>2026-04-25T09:22:28.999Z</time></trkpt><trkpt lat="43.62217000945643" lon="11.804352264613236"><ele>473.0</ele><time>2026-04-25T09:22:30.999Z</time></trkpt><trkpt lat="43.622239165632976" lon="11.804360851695995"><ele>474.00000000000006</ele><time>2026-04-25T09:22:31.999Z</time></trkpt><trkpt lat="43.62234286287382" lon="11.804372093230446"><ele>475.00000000000006</ele><time>2026-04-25T09:22:33.999Z</time></trkpt><trkpt lat="43.62245212049875" lon="11.804347065583658"><ele>476.0</ele><time>2026-04-25T09:22:35.999Z</time></trkpt><trkpt lat="43.62256031694284" lon="11.804280920776645"><ele>477.0</ele><time>2026-04-25T09:22:37.999Z</time></trkpt><trkpt lat="43.62266526118945" lon="11.804204281074332"><ele>480.40000000000003</ele><time>2026-04-25T09:22:39.999Z</time></trkpt><trkpt lat="43.62271873804821" lon="11.804055114983752"><ele>483.80000000000007</ele><time>2026-04-25T09:22:41.999Z</time></trkpt><trkpt lat="43.62269748244658" lon="11.803913824837588"><ele>487.2</ele><time>2026-04-25T09:22:43.999Z</time></trkpt><trkpt lat="43.622709853091784" lon="11.803809827142171"><ele>490.6</ele><time>2026-04-25T09:22:45.999Z</time></trkpt><trkpt lat="43.622686436543106" lon="11.803693545818223"><ele>494.0</ele><time>2026-04-25T09:22:47.999Z</time></trkpt><trkpt lat="43.62267974923523" lon="11.80353012401562"><ele>496.3333333333333</ele><time>2026-04-25T09:22:49.999Z</time></trkpt><trkpt lat="43.62265357999447" lon="11.803387093198818"><ele>498.66666666666663</ele><time>2026-04-25T09:22:51.999Z</time></trkpt><trkpt lat="43.622622988908034" lon="11.803295254033554"><ele>501.0</ele><time>2026-04-25T09:22:52.999Z</time></trkpt><trkpt lat="43.62257080319773" lon="11.803208978903166"><ele>503.33333333333337</ele><time>2026-04-25T09:22:54.999Z</time></trkpt><trkpt lat="43.62253858186006" lon="11.803080876730826"><ele>505.6666666666667</ele><time>2026-04-25T09:22:56.999Z</time></trkpt><trkpt lat="43.622551782770934" lon="11.802978325681705"><ele>508.0</ele><time>2026-04-25T09:22:58.999Z</time></trkpt><trkpt lat="43.62259813265155" lon="11.8029168420634"><ele>508.0</ele><time>2026-04-25T09:22:59.999Z</time></trkpt><trkpt lat="43.62267765272431" lon="11.802841964896919"><ele>507.99999999999994</ele><time>2026-04-25T09:23:01.999Z</time></trkpt><trkpt lat="43.62273647836933" lon="11.802729958787978"><ele>507.99999999999994</ele><time>2026-04-25T09:23:03.998Z</time></trkpt><trkpt lat="43.62279032793877" lon="11.80259669467436"><ele>508.0</ele><time>2026-04-25T09:23:05.998Z</time></trkpt><trkpt lat="43.622843885793365" lon="11.802457963267573"><ele>508.0</ele><time>2026-04-25T09:23:07.998Z</time></trkpt><trkpt lat="43.62286120050229" lon="11.802321531287438"><ele>510.0</ele><time>2026-04-25T09:23:09.998Z</time></trkpt><trkpt lat="43.622867958050854" lon="11.80215168980047"><ele>511.99999999999994</ele><time>2026-04-25T09:23:11.998Z</time></trkpt><trkpt lat="43.62287339449437" lon="11.801991775342218"><ele>514.0</ele><time>2026-04-25T09:23:14Z</time></trkpt><trkpt lat="43.6228775245772" lon="11.801902572835246"><ele>516.0</ele><time>2026-04-25T09:23:15Z</time></trkpt><trkpt lat="43.62288353254703" lon="11.801762063569683"><ele>518.0</ele><time>2026-04-25T09:23:17Z</time></trkpt><trkpt lat="43.62292728856096" lon="11.801606203934375"><ele>520.8</ele><time>2026-04-25T09:23:19Z</time></trkpt><trkpt lat="43.62291378165986" lon="11.801446486529315"><ele>523.5999999999999</ele><time>2026-04-25T09:23:21Z</time></trkpt><trkpt lat="43.62287309590339" lon="11.80131753602193"><ele>526.4000000000001</ele><time>2026-04-25T09:23:23Z</time></trkpt><trkpt lat="43.62283630858305" lon="11.80121644516964"><ele>529.2</ele><time>2026-04-25T09:23:25Z</time></trkpt><trkpt lat="43.62281457765082" lon="11.801093499124157"><ele>532.0</ele><time>2026-04-25T09:23:27Z</time></trkpt><trkpt lat="43.62282053051544" lon="11.801005619776712"><ele>534.1666666666667</ele><time>2026-04-25T09:23:28Z</time></trkpt><trkpt lat="43.62283399956959" lon="11.80090382760092"><ele>536.3333333333334</ele><time>2026-04-25T09:23:31Z</time></trkpt><trkpt lat="43.62285669765025" lon="11.800721101949197"><ele>538.5</ele><time>2026-04-25T09:23:33Z</time></trkpt><trkpt lat="43.622890437923225" lon="11.800616693636053"><ele>540.6666666666666</ele><time>2026-04-25T09:23:34Z</time></trkpt><trkpt lat="43.622917840197935" lon="11.800518069970932"><ele>542.8333333333333</ele><time>2026-04-25T09:23:35Z</time></trkpt><trkpt lat="43.622959939244204" lon="11.8004347430849"><ele>545.0</ele><time>2026-04-25T09:23:36Z</time></trkpt><trkpt lat="43.62301412613504" lon="11.800381786287709"><ele>545.0</ele><time>2026-04-25T09:23:37Z</time></trkpt><trkpt lat="43.623110548714166" lon="11.800323297943496"><ele>545.0</ele><time>2026-04-25T09:23:39Z</time></trkpt><trkpt lat="43.62317450883793" lon="11.800294689268105"><ele>545.0</ele><time>2026-04-25T09:23:40Z</time></trkpt><trkpt lat="43.623231159116834" lon="11.800231836618657"><ele>545.0</ele><time>2026-04-25T09:23:41Z</time></trkpt><trkpt lat="43.62329592330417" lon="11.800167992818986"><ele>545.0</ele><time>2026-04-25T09:23:42Z</time></trkpt><trkpt lat="43.62340086710958" lon="11.800086468592662"><ele>545.0</ele><time>2026-04-25T09:23:44Z</time></trkpt><trkpt lat="43.62346473091921" lon="11.800063801164661"><ele>545.4</ele><time>2026-04-25T09:23:45Z</time></trkpt><trkpt lat="43.62358162031654" lon="11.79996553948414"><ele>545.8</ele><time>2026-04-25T09:23:47Z</time></trkpt><trkpt lat="43.623648005136126" lon="11.799905087224415"><ele>546.2</ele><time>2026-04-25T09:23:48Z</time></trkpt><trkpt lat="43.62370237809026" lon="11.799828456128008"><ele>546.6</ele><time>2026-04-25T09:23:49Z</time></trkpt><trkpt lat="43.62376010492156" lon="11.799664544270803"><ele>547.0</ele><time>2026-04-25T09:23:51Z</time></trkpt><trkpt lat="43.623790067046706" lon="11.799556922916313"><ele>547.0</ele><time>2026-04-25T09:23:52Z</time></trkpt><trkpt lat="43.62380739576241" lon="11.79943867517492"><ele>547.0</ele><time>2026-04-25T09:23:52.999Z</time></trkpt><trkpt lat="43.623815747715604" lon="11.799297697286725"><ele>547.0</ele><time>2026-04-25T09:23:53.999Z</time></trkpt><trkpt lat="43.623813354908165" lon="11.799183968688384"><ele>547.0</ele><time>2026-04-25T09:23:54.999Z</time></trkpt><trkpt lat="43.623769705426064" lon="11.799028011220107"><ele>547.0</ele><time>2026-04-25T09:23:56.999Z</time></trkpt><trkpt lat="43.62371990030845" lon="11.798901563884716"><ele>549.3333333333334</ele><time>2026-04-25T09:23:57.999Z</time></trkpt><trkpt lat="43.62366621629857" lon="11.798782199864172"><ele>551.6666666666667</ele><time>2026-04-25T09:23:58.999Z</time></trkpt><trkpt lat="43.62361594578602" lon="11.79865861238875"><ele>554.0</ele><time>2026-04-25T09:24:00.999Z</time></trkpt><trkpt lat="43.62360804209121" lon="11.798559515164753"><ele>556.3333333333334</ele><time>2026-04-25T09:24:01.999Z</time></trkpt><trkpt lat="43.62362803064642" lon="11.798418287795585"><ele>558.6666666666666</ele><time>2026-04-25T09:24:02.999Z</time></trkpt><trkpt lat="43.62362887683485" lon="11.798325623460157"><ele>561.0</ele><time>2026-04-25T09:24:03.999Z</time></trkpt><trkpt lat="43.62363371526229" lon="11.798215709621855"><ele>565.4</ele><time>2026-04-25T09:24:04.999Z</time></trkpt><trkpt lat="43.62363600034785" lon="11.798086371340434"><ele>569.8</ele><time>2026-04-25T09:24:05.999Z</time></trkpt><trkpt lat="43.62361969749188" lon="11.79797184192381"><ele>574.1999999999999</ele><time>2026-04-25T09:24:06.999Z</time></trkpt><trkpt lat="43.62358005588887" lon="11.797823458987688"><ele>578.6</ele><time>2026-04-25T09:24:07.999Z</time></trkpt><trkpt lat="43.623559327804564" lon="11.797704638268286"><ele>583.0</ele><time>2026-04-25T09:24:08.999Z</time></trkpt><trkpt lat="43.623632040657256" lon="11.797526790960015"><ele>584.0</ele><time>2026-04-25T09:24:10.999Z</time></trkpt><trkpt lat="43.623665519471274" lon="11.797379673951035"><ele>585.0</ele><time>2026-04-25T09:24:11.999Z</time></trkpt><trkpt lat="43.62370078971356" lon="11.797201787971279"><ele>586.0</ele><time>2026-04-25T09:24:12.999Z</time></trkpt><trkpt lat="43.62372277581668" lon="11.797054813663687"><ele>587.0</ele><time>2026-04-25T09:24:13.999Z</time></trkpt><trkpt lat="43.62376761429155" lon="11.796937403133303"><ele>589.2</ele><time>2026-04-25T09:24:14.999Z</time></trkpt><trkpt lat="43.62382202714871" lon="11.796821115885871"><ele>591.4000000000001</ele><time>2026-04-25T09:24:15.999Z</time></trkpt><trkpt lat="43.62384273228525" lon="11.796686820942261"><ele>593.5999999999999</ele><time>2026-04-25T09:24:16.999Z</time></trkpt><trkpt lat="43.623844449124256" lon="11.796550165775123"><ele>595.8</ele><time>2026-04-25T09:24:17.999Z</time></trkpt><trkpt lat="43.62381987473702" lon="11.796449537967709"><ele>598.0</ele><time>2026-04-25T09:24:18.999Z</time></trkpt><trkpt lat="43.6238114605196" lon="11.796333574031886"><ele>598.0</ele><time>2026-04-25T09:24:19.999Z</time></trkpt><trkpt lat="43.623821367686936" lon="11.79619473426328"><ele>598.0</ele><time>2026-04-25T09:24:20.999Z</time></trkpt><trkpt lat="43.623830257979705" lon="11.796069984852995"><ele>598.0</ele><time>2026-04-25T09:24:21.999Z</time></trkpt><trkpt lat="43.62385925503732" lon="11.795974034195384"><ele>598.0</ele><time>2026-04-25T09:24:22.999Z</time></trkpt><trkpt lat="43.623917131619" lon="11.795889204963222"><ele>598.0</ele><time>2026-04-25T09:24:23.999Z</time></trkpt><trkpt lat="43.62397536161492" lon="11.79576598989985"><ele>599.25</ele><time>2026-04-25T09:24:24.999Z</time></trkpt><trkpt lat="43.624045539238" lon="11.795689305223537"><ele>600.5</ele><time>2026-04-25T09:24:25.999Z</time></trkpt><trkpt lat="43.624149663131554" lon="11.795620959684557"><ele>601.75</ele><time>2026-04-25T09:24:26.999Z</time></trkpt><trkpt lat="43.624252017796124" lon="11.795532015366964"><ele>603.0</ele><time>2026-04-25T09:24:27.999Z</time></trkpt><trkpt lat="43.62433969256032" lon="11.79540346566828"><ele>603.0</ele><time>2026-04-25T09:24:28.999Z</time></trkpt><trkpt lat="43.6243833848526" lon="11.795304727760284"><ele>603.0</ele><time>2026-04-25T09:24:29.999Z</time></trkpt><trkpt lat="43.62441027334303" lon="11.79520047870624"><ele>603.0</ele><time>2026-04-25T09:24:30.999Z</time></trkpt><trkpt lat="43.624467624365906" lon="11.795099439403614"><ele>603.0</ele><time>2026-04-25T09:24:31.999Z</time></trkpt><trkpt lat="43.6245343719167" lon="11.795049895779593"><ele>603.0</ele><time>2026-04-25T09:24:32.999Z</time></trkpt><trkpt lat="43.62463765830711" lon="11.794950384811324"><ele>602.6</ele><time>2026-04-25T09:24:33.999Z</time></trkpt><trkpt lat="43.62470575963792" lon="11.79486073674824"><ele>602.1999999999999</ele><time>2026-04-25T09:24:34.999Z</time></trkpt><trkpt lat="43.62476889887868" lon="11.794822921362568"><ele>601.8</ele><time>2026-04-25T09:24:35.999Z</time></trkpt><trkpt lat="43.62486327237716" lon="11.794788009776946"><ele>601.4</ele><time>2026-04-25T09:24:36.999Z</time></trkpt><trkpt lat="43.62494871396371" lon="11.794732609158253"><ele>601.0</ele><time>2026-04-25T09:24:37.999Z</time></trkpt><trkpt lat="43.62503962260732" lon="11.79463569183737"><ele>601.0</ele><time>2026-04-25T09:24:38.999Z</time></trkpt><trkpt lat="43.62512773662498" lon="11.79451745923722"><ele>601.0</ele><time>2026-04-25T09:24:39.999Z</time></trkpt><trkpt lat="43.62520607072915" lon="11.794408610371669"><ele>601.0</ele><time>2026-04-25T09:24:40.999Z</time></trkpt><trkpt lat="43.625259971194886" lon="11.79428179211533"><ele>601.0</ele><time>2026-04-25T09:24:41.999Z</time></trkpt><trkpt lat="43.6252970510016" lon="11.794187263351107"><ele>601.0</ele><time>2026-04-25T09:24:42.999Z</time></trkpt><trkpt lat="43.625363683818364" lon="11.794138067847811"><ele>602.3333333333334</ele><time>2026-04-25T09:24:43.999Z</time></trkpt><trkpt lat="43.62542108223122" lon="11.794098854870148"><ele>603.6666666666667</ele><time>2026-04-25T09:24:44.999Z</time></trkpt><trkpt lat="43.62547420749259" lon="11.794034516019982"><ele>605.0</ele><time>2026-04-25T09:24:45.999Z</time></trkpt><trkpt lat="43.62553491043325" lon="11.793961346497483"><ele>606.3333333333334</ele><time>2026-04-25T09:24:46.999Z</time></trkpt><trkpt lat="43.62561226821279" lon="11.793884861462384"><ele>607.6666666666666</ele><time>2026-04-25T09:24:47.999Z</time></trkpt><trkpt lat="43.62569782669364" lon="11.793800732932112"><ele>609.0</ele><time>2026-04-25T09:24:49.999Z</time></trkpt><trkpt lat="43.625745837668546" lon="11.793710403874506"><ele>609.0</ele><time>2026-04-25T09:24:51.999Z</time></trkpt><trkpt lat="43.62577700737273" lon="11.793589769516833"><ele>609.0</ele><time>2026-04-25T09:26:57.999Z</time></trkpt><trkpt lat="43.62582279651471" lon="11.793518377296307"><ele>609.0</ele><time>2026-04-25T09:26:58.999Z</time></trkpt><trkpt lat="43.62588686146454" lon="11.793491935560885"><ele>609.0</ele><time>2026-04-25T09:26:59.999Z</time></trkpt><trkpt lat="43.62598628911603" lon="11.793467289852648"><ele>609.0</ele><time>2026-04-25T09:27:00.999Z</time></trkpt><trkpt lat="43.6260773006388" lon="11.793439633903626"><ele>609.0</ele><time>2026-04-25T09:27:01.999Z</time></trkpt><trkpt lat="43.62616202791619" lon="11.79344021174552"><ele>609.5</ele><time>2026-04-25T09:27:02.999Z</time></trkpt><trkpt lat="43.62622773952597" lon="11.793464937180786"><ele>610.0</ele><time>2026-04-25T09:27:03.999Z</time></trkpt><trkpt lat="43.626297559238644" lon="11.793516391254354"><ele>610.5</ele><time>2026-04-25T09:27:04.999Z</time></trkpt><trkpt lat="43.62637682683573" lon="11.79355212865691"><ele>611.0</ele><time>2026-04-25T09:27:05.999Z</time></trkpt><trkpt lat="43.626463072183476" lon="11.793596264538708"><ele>611.5</ele><time>2026-04-25T09:27:06.999Z</time></trkpt><trkpt lat="43.62656089012132" lon="11.79367352424708"><ele>612.0</ele><time>2026-04-25T09:27:07.999Z</time></trkpt><trkpt lat="43.62667186778129" lon="11.793746882631421"><ele>612.0</ele><time>2026-04-25T09:27:08.999Z</time></trkpt><trkpt lat="43.626799085401466" lon="11.793815347401912"><ele>612.0</ele><time>2026-04-25T09:27:09.999Z</time></trkpt><trkpt lat="43.62687959691119" lon="11.793864274661377"><ele>612.0</ele><time>2026-04-25T09:27:10.999Z</time></trkpt><trkpt lat="43.626954857197795" lon="11.793897346164686"><ele>612.0</ele><time>2026-04-25T09:27:11.999Z</time></trkpt><trkpt lat="43.627006411203176" lon="11.79397286550622"><ele>612.0</ele><time>2026-04-25T09:27:12.999Z</time></trkpt><trkpt lat="43.627078596682054" lon="11.79406276703214"><ele>613.5</ele><time>2026-04-25T09:27:13.999Z</time></trkpt><trkpt lat="43.627156205031206" lon="11.794060212197394"><ele>615.0</ele><time>2026-04-25T09:27:14.999Z</time></trkpt><trkpt lat="43.627220407871256" lon="11.79400830246044"><ele>616.5</ele><time>2026-04-25T09:27:15.999Z</time></trkpt><trkpt lat="43.62729948652706" lon="11.793980837469238"><ele>618.0</ele><time>2026-04-25T09:27:16.999Z</time></trkpt><trkpt lat="43.62737013642484" lon="11.794029439327103"><ele>619.5</ele><time>2026-04-25T09:27:17.999Z</time></trkpt><trkpt lat="43.62746521968262" lon="11.794090516264022"><ele>621.0</ele><time>2026-04-25T09:27:18.999Z</time></trkpt><trkpt lat="43.62754743425629" lon="11.794085441951134"><ele>621.0</ele><time>2026-04-25T09:27:19.999Z</time></trkpt><trkpt lat="43.62762383890202" lon="11.79402779145036"><ele>621.0</ele><time>2026-04-25T09:27:20.999Z</time></trkpt><trkpt lat="43.62770879705279" lon="11.79397916098242"><ele>621.0</ele><time>2026-04-25T09:27:21.999Z</time></trkpt><trkpt lat="43.62782634419824" lon="11.793922036314573"><ele>621.0</ele><time>2026-04-25T09:27:22.999Z</time></trkpt><trkpt lat="43.62793045323371" lon="11.793875027025932"><ele>621.0</ele><time>2026-04-25T09:27:23.999Z</time></trkpt><trkpt lat="43.627996192427894" lon="11.793847495169059"><ele>620.0</ele><time>2026-04-25T09:27:25Z</time></trkpt><trkpt lat="43.62808469692414" lon="11.793812872842524"><ele>619.0</ele><time>2026-04-25T09:27:26Z</time></trkpt><trkpt lat="43.628196261366206" lon="11.793799565504038"><ele>618.0</ele><time>2026-04-25T09:27:27Z</time></trkpt><trkpt lat="43.62829796370792" lon="11.793774565143893"><ele>617.0</ele><time>2026-04-25T09:27:28Z</time></trkpt><trkpt lat="43.62836658383943" lon="11.793715554312156"><ele>616.0</ele><time>2026-04-25T09:27:29Z</time></trkpt><trkpt lat="43.628464746733314" lon="11.793583145265552"><ele>616.8</ele><time>2026-04-25T09:27:31Z</time></trkpt><trkpt lat="43.62855353687908" lon="11.793496331984874"><ele>617.6</ele><time>2026-04-25T09:27:32Z</time></trkpt><trkpt lat="43.62864294768227" lon="11.793447653128498"><ele>618.4</ele><time>2026-04-25T09:27:33Z</time></trkpt><trkpt lat="43.62874294214642" lon="11.793471829777296"><ele>619.2</ele><time>2026-04-25T09:27:35Z</time></trkpt><trkpt lat="43.628817933675585" lon="11.793496735629619"><ele>620.0</ele><time>2026-04-25T09:27:36Z</time></trkpt><trkpt lat="43.62891596892939" lon="11.793543319480412"><ele>620.0</ele><time>2026-04-25T09:27:37Z</time></trkpt><trkpt lat="43.629021519252504" lon="11.79357190622178"><ele>620.0</ele><time>2026-04-25T09:27:38Z</time></trkpt><trkpt lat="43.629115718217456" lon="11.793574988781787"><ele>620.0</ele><time>2026-04-25T09:27:39Z</time></trkpt><trkpt lat="43.62923091504859" lon="11.793630579430408"><ele>620.0</ele><time>2026-04-25T09:27:41Z</time></trkpt><trkpt lat="43.62933435808153" lon="11.79361279905594"><ele>620.0</ele><time>2026-04-25T09:27:42Z</time></trkpt><trkpt lat="43.629427802452135" lon="11.793597836626516"><ele>622.8333333333333</ele><time>2026-04-25T09:27:43Z</time></trkpt><trkpt lat="43.629515392517" lon="11.793573008574642"><ele>625.6666666666666</ele><time>2026-04-25T09:27:44Z</time></trkpt><trkpt lat="43.62964499482145" lon="11.793593050469633"><ele>628.5</ele><time>2026-04-25T09:27:46Z</time></trkpt><trkpt lat="43.62971413628204" lon="11.793600392033285"><ele>631.3333333333334</ele><time>2026-04-25T09:27:47Z</time></trkpt><trkpt lat="43.629782006804575" lon="11.793606358557504"><ele>634.1666666666667</ele><time>2026-04-25T09:27:48Z</time></trkpt><trkpt lat="43.629832282361306" lon="11.793667636911676"><ele>637.0</ele><time>2026-04-25T09:27:49Z</time></trkpt><trkpt lat="43.62985667492463" lon="11.793757817269585"><ele>637.0</ele><time>2026-04-25T09:27:50Z</time></trkpt><trkpt lat="43.62986479668903" lon="11.793859707152997"><ele>637.0</ele><time>2026-04-25T09:27:51Z</time></trkpt><trkpt lat="43.62993996963415" lon="11.793946965987468"><ele>637.0</ele><time>2026-04-25T09:27:53Z</time></trkpt><trkpt lat="43.630021194596125" lon="11.79398965847914"><ele>637.0</ele><time>2026-04-25T09:27:54Z</time></trkpt><trkpt lat="43.63009142710734" lon="11.79409722387582"><ele>637.0</ele><time>2026-04-25T09:27:56Z</time></trkpt><trkpt lat="43.63007924242619" lon="11.793996748212942"><ele>637.0</ele><time>2026-04-25T09:28:05Z</time></trkpt><trkpt lat="43.63004239705137" lon="11.793917539080303"><ele>637.0</ele><time>2026-04-25T09:28:06Z</time></trkpt><trkpt lat="43.63005534383615" lon="11.793744877682643"><ele>637.0</ele><time>2026-04-25T09:28:08Z</time></trkpt><trkpt lat="43.63010076406169" lon="11.79365687931223"><ele>637.0</ele><time>2026-04-25T09:28:09Z</time></trkpt><trkpt lat="43.63017342329144" lon="11.793584729082594"><ele>637.0</ele><time>2026-04-25T09:28:10Z</time></trkpt><trkpt lat="43.630238605035224" lon="11.793541655316504"><ele>637.0</ele><time>2026-04-25T09:28:11Z</time></trkpt><trkpt lat="43.63023951297945" lon="11.793345652638703"><ele>639.8</ele><time>2026-04-25T09:28:13Z</time></trkpt><trkpt lat="43.630350073323385" lon="11.793272856361385"><ele>642.6</ele><time>2026-04-25T09:28:15Z</time></trkpt><trkpt lat="43.63045417615356" lon="11.793218254610853"><ele>645.4</ele><time>2026-04-25T09:28:16Z</time></trkpt><trkpt lat="43.63053208190489" lon="11.79311939632602"><ele>648.1999999999999</ele><time>2026-04-25T09:28:17Z</time></trkpt><trkpt lat="43.630571745546845" lon="11.792991147256908"><ele>651.0</ele><time>2026-04-25T09:28:18Z</time></trkpt><trkpt lat="43.63064731252837" lon="11.79297210446185"><ele>651.0</ele><time>2026-04-25T09:28:19.999Z</time></trkpt><trkpt lat="43.63072737665587" lon="11.792937745854033"><ele>651.0</ele><time>2026-04-25T09:28:20.999Z</time></trkpt><trkpt lat="43.63078989646493" lon="11.792854766202062"><ele>651.0</ele><time>2026-04-25T09:28:21.999Z</time></trkpt><trkpt lat="43.63080897216178" lon="11.792741352900928"><ele>651.0</ele><time>2026-04-25T09:28:22.999Z</time></trkpt><trkpt lat="43.630842891436" lon="11.792638483231684"><ele>651.0</ele><time>2026-04-25T09:28:23.999Z</time></trkpt><trkpt lat="43.630905917125794" lon="11.792588336978278"><ele>651.0</ele><time>2026-04-25T09:28:24.999Z</time></trkpt><trkpt lat="43.63098929434932" lon="11.792568992345371"><ele>654.4</ele><time>2026-04-25T09:28:25.999Z</time></trkpt><trkpt lat="43.6310790363676" lon="11.792507316431461"><ele>657.8</ele><time>2026-04-25T09:28:26.999Z</time></trkpt><trkpt lat="43.63117315138212" lon="11.792459014783308"><ele>661.1999999999999</ele><time>2026-04-25T09:28:27.999Z</time></trkpt><trkpt lat="43.63127007383877" lon="11.792348560022662"><ele>664.5999999999999</ele><time>2026-04-25T09:28:29.999Z</time></trkpt><trkpt lat="43.6313549632378" lon="11.792241197869492"><ele>668.0</ele><time>2026-04-25T09:28:31.999Z</time></trkpt><trkpt lat="43.63138146600141" lon="11.792139410437949"><ele>668.0</ele><time>2026-04-25T09:28:32.999Z</time></trkpt><trkpt lat="43.63142170137275" lon="11.792041330983427"><ele>668.0</ele><time>2026-04-25T09:28:33.999Z</time></trkpt><trkpt lat="43.63155470392592" lon="11.792025115179548"><ele>668.0</ele><time>2026-04-25T09:28:35.999Z</time></trkpt><trkpt lat="43.63161721527553" lon="11.791864518432476"><ele>668.0</ele><time>2026-04-25T09:28:37.999Z</time></trkpt><trkpt lat="43.631673568816524" lon="11.79172173598642"><ele>670.8</ele><time>2026-04-25T09:28:38.999Z</time></trkpt><trkpt lat="43.63174331218208" lon="11.791614742593358"><ele>673.5999999999999</ele><time>2026-04-25T09:28:39.999Z</time></trkpt><trkpt lat="43.63183227069912" lon="11.791548014459272"><ele>676.4000000000001</ele><time>2026-04-25T09:28:40.999Z</time></trkpt><trkpt lat="43.63191701559692" lon="11.791366123450539"><ele>679.2</ele><time>2026-04-25T09:28:42.999Z</time></trkpt><trkpt lat="43.63192747885561" lon="11.791271359450104"><ele>682.0</ele><time>2026-04-25T09:28:43.999Z</time></trkpt><trkpt lat="43.631917111079254" lon="11.79117598304192"><ele>682.1666666666667</ele><time>2026-04-25T09:28:47.999Z</time></trkpt><trkpt lat="43.63203521478389" lon="11.791163424369541"><ele>682.3333333333334</ele><time>2026-04-25T09:28:49.999Z</time></trkpt><trkpt lat="43.63210817410952" lon="11.791165417242375"><ele>682.5</ele><time>2026-04-25T09:28:50.999Z</time></trkpt><trkpt lat="43.63217460836098" lon="11.791164662050527"><ele>682.6666666666666</ele><time>2026-04-25T09:28:54.999Z</time></trkpt><trkpt lat="43.63223675605264" lon="11.791185504771068"><ele>682.8333333333333</ele><time>2026-04-25T09:29:00.999Z</time></trkpt><trkpt lat="43.632328713687755" lon="11.791166346882616"><ele>683.0</ele><time>2026-04-25T09:29:02.999Z</time></trkpt><trkpt lat="43.63239922384411" lon="11.79116940196468"><ele>683.0</ele><time>2026-04-25T09:29:03.999Z</time></trkpt><trkpt lat="43.632474271924664" lon="11.791170436284414"><ele>683.0</ele><time>2026-04-25T09:29:04.999Z</time></trkpt><trkpt lat="43.63254914959715" lon="11.79115746451176"><ele>683.0</ele><time>2026-04-25T09:29:05.999Z</time></trkpt><trkpt lat="43.63261162007303" lon="11.791186750039245"><ele>683.0</ele><time>2026-04-25T09:29:06.999Z</time></trkpt><trkpt lat="43.63269489898517" lon="11.791244427400557"><ele>683.0</ele><time>2026-04-25T09:29:07.999Z</time></trkpt><trkpt lat="43.63277479367773" lon="11.791201243329015"><ele>683.0</ele><time>2026-04-25T09:29:09.999Z</time></trkpt><trkpt lat="43.63283897201746" lon="11.791036974220825"><ele>683.5</ele><time>2026-04-25T09:29:11.999Z</time></trkpt><trkpt lat="43.632889845300284" lon="11.790920346125146"><ele>684.0</ele><time>2026-04-25T09:29:12.999Z</time></trkpt><trkpt lat="43.632942818591324" lon="11.790826193343811"><ele>684.5</ele><time>2026-04-25T09:29:13.999Z</time></trkpt><trkpt lat="43.63299884509865" lon="11.790775310412405"><ele>685.0</ele><time>2026-04-25T09:29:14.999Z</time></trkpt><trkpt lat="43.633062335022345" lon="11.790742736333536"><ele>685.5</ele><time>2026-04-25T09:29:16.999Z</time></trkpt><trkpt lat="43.633073284321604" lon="11.79084052532361"><ele>686.0</ele><time>2026-04-25T09:29:18.999Z</time></trkpt><trkpt lat="43.633146628543834" lon="11.790851543077686"><ele>686.0</ele><time>2026-04-25T09:29:25.999Z</time></trkpt><trkpt lat="43.633250982119954" lon="11.790894190519227"><ele>686.0</ele><time>2026-04-25T09:29:27.999Z</time></trkpt><trkpt lat="43.633338781424854" lon="11.790931126613701"><ele>686.0</ele><time>2026-04-25T09:29:28.999Z</time></trkpt><trkpt lat="43.63343120108933" lon="11.790978989796184"><ele>686.0</ele><time>2026-04-25T09:29:29.999Z</time></trkpt><trkpt lat="43.63351041477543" lon="11.79100589876025"><ele>686.0</ele><time>2026-04-25T09:29:31Z</time></trkpt><trkpt lat="43.6336014340315" lon="11.79108505870176"><ele>684.6666666666666</ele><time>2026-04-25T09:29:33Z</time></trkpt><trkpt lat="43.63364401814367" lon="11.791175757473196"><ele>683.3333333333333</ele><time>2026-04-25T09:29:34Z</time></trkpt><trkpt lat="43.6337183014617" lon="11.791193352892165"><ele>682.0</ele><time>2026-04-25T09:29:36Z</time></trkpt><trkpt lat="43.63378551517962" lon="11.791182438014857"><ele>680.6666666666666</ele><time>2026-04-25T09:29:37Z</time></trkpt><trkpt lat="43.6338437122657" lon="11.791220160944638"><ele>679.3333333333334</ele><time>2026-04-25T09:29:38Z</time></trkpt><trkpt lat="43.633889995166044" lon="11.791286308316648"><ele>678.0</ele><time>2026-04-25T09:29:39Z</time></trkpt><trkpt lat="43.63399224858168" lon="11.791281105922796"><ele>678.0</ele><time>2026-04-25T09:29:41Z</time></trkpt><trkpt lat="43.63409613794906" lon="11.791232419301071"><ele>678.0</ele><time>2026-04-25T09:29:42Z</time></trkpt><trkpt lat="43.63423053051984" lon="11.791173400285562"><ele>678.0</ele><time>2026-04-25T09:29:43Z</time></trkpt><trkpt lat="43.63431782843697" lon="11.791113417209495"><ele>678.0</ele><time>2026-04-25T09:29:44Z</time></trkpt><trkpt lat="43.63440954855428" lon="11.791073744815142"><ele>678.0</ele><time>2026-04-25T09:29:46Z</time></trkpt><trkpt lat="43.63452023046317" lon="11.791070174539108"><ele>677.5999999999999</ele><time>2026-04-25T09:29:50Z</time></trkpt><trkpt lat="43.63458550233158" lon="11.791044493563085"><ele>677.1999999999999</ele><time>2026-04-25T09:29:51Z</time></trkpt><trkpt lat="43.634662141814424" lon="11.79099203665218"><ele>676.8</ele><time>2026-04-25T09:29:52Z</time></trkpt><trkpt lat="43.63477464840475" lon="11.790935329560288"><ele>676.4</ele><time>2026-04-25T09:29:53Z</time></trkpt><trkpt lat="43.63483947545482" lon="11.79087390612274"><ele>676.0</ele><time>2026-04-25T09:29:54Z</time></trkpt><trkpt lat="43.634909608177935" lon="11.790762956578961"><ele>676.1666666666667</ele><time>2026-04-25T09:29:56Z</time></trkpt><trkpt lat="43.63494979257315" lon="11.790669124718384"><ele>676.3333333333334</ele><time>2026-04-25T09:30:02Z</time></trkpt><trkpt lat="43.635019843988246" lon="11.79057605426641"><ele>676.5</ele><time>2026-04-25T09:30:04Z</time></trkpt><trkpt lat="43.63506308923025" lon="11.790507841260638"><ele>676.6666666666666</ele><time>2026-04-25T09:30:05Z</time></trkpt><trkpt lat="43.63511738933716" lon="11.790423317147205"><ele>676.8333333333333</ele><time>2026-04-25T09:30:06Z</time></trkpt><trkpt lat="43.635182475433155" lon="11.790301042172151"><ele>677.0</ele><time>2026-04-25T09:30:07Z</time></trkpt><trkpt lat="43.63524062986984" lon="11.79017253816387"><ele>677.0</ele><time>2026-04-25T09:30:08Z</time></trkpt><trkpt lat="43.63530318372428" lon="11.790042362284943"><ele>677.0</ele><time>2026-04-25T09:30:09Z</time></trkpt><trkpt lat="43.63539024501417" lon="11.789910928649057"><ele>677.0</ele><time>2026-04-25T09:30:11Z</time></trkpt><trkpt lat="43.6354432224503" lon="11.789778984437262"><ele>677.0</ele><time>2026-04-25T09:30:12Z</time></trkpt><trkpt lat="43.635518589376794" lon="11.789660724926165"><ele>677.25</ele><time>2026-04-25T09:30:14Z</time></trkpt><trkpt lat="43.63560544470566" lon="11.789495752322198"><ele>677.5</ele><time>2026-04-25T09:30:16Z</time></trkpt><trkpt lat="43.635677053377435" lon="11.789358500685774"><ele>677.75</ele><time>2026-04-25T09:30:17Z</time></trkpt><trkpt lat="43.63575235258933" lon="11.789226035764129"><ele>678.0</ele><time>2026-04-25T09:30:18Z</time></trkpt><trkpt lat="43.63583513969406" lon="11.789137942164198"><ele>678.0</ele><time>2026-04-25T09:30:19Z</time></trkpt><trkpt lat="43.63591003402684" lon="11.789023188391479"><ele>678.0</ele><time>2026-04-25T09:30:20Z</time></trkpt><trkpt lat="43.63598838089958" lon="11.788852942468539"><ele>678.0</ele><time>2026-04-25T09:30:21Z</time></trkpt><trkpt lat="43.63604765387398" lon="11.788738242166682"><ele>678.0</ele><time>2026-04-25T09:30:22Z</time></trkpt><trkpt lat="43.63609689009403" lon="11.788618304409074"><ele>675.5</ele><time>2026-04-25T09:30:23Z</time></trkpt><trkpt lat="43.63625024592115" lon="11.788215084515171"><ele>673.0</ele><time>2026-04-25T09:30:26Z</time></trkpt><trkpt lat="43.636290003637136" lon="11.788057652663278"><ele>673.0</ele><time>2026-04-25T09:30:27Z</time></trkpt><trkpt lat="43.63634848189829" lon="11.787904630991873"><ele>673.0</ele><time>2026-04-25T09:30:28Z</time></trkpt><trkpt lat="43.636370823701526" lon="11.787722399498815"><ele>673.0</ele><time>2026-04-25T09:30:29Z</time></trkpt><trkpt lat="43.63642267275514" lon="11.787583452458048"><ele>673.0</ele><time>2026-04-25T09:30:30Z</time></trkpt><trkpt lat="43.63648015061434" lon="11.787477040185127"><ele>672.5</ele><time>2026-04-25T09:30:31Z</time></trkpt><trkpt lat="43.63654599009299" lon="11.787390994054721"><ele>672.0</ele><time>2026-04-25T09:30:32Z</time></trkpt><trkpt lat="43.63657748078792" lon="11.787252252727544"><ele>671.5</ele><time>2026-04-25T09:30:33Z</time></trkpt><trkpt lat="43.63658786277018" lon="11.787075234292683"><ele>671.0</ele><time>2026-04-25T09:30:34Z</time></trkpt><trkpt lat="43.636602040597445" lon="11.786897740803255"><ele>670.5</ele><time>2026-04-25T09:30:34.999Z</time></trkpt><trkpt lat="43.63663813161463" lon="11.78671335945651"><ele>670.0</ele><time>2026-04-25T09:30:35.999Z</time></trkpt><trkpt lat="43.636678644643304" lon="11.786517097789934"><ele>669.5</ele><time>2026-04-25T09:30:36.999Z</time></trkpt><trkpt lat="43.63672436121746" lon="11.786353834621991"><ele>669.0</ele><time>2026-04-25T09:30:37.999Z</time></trkpt><trkpt lat="43.636772369489016" lon="11.786182985887745"><ele>669.0</ele><time>2026-04-25T09:30:38.999Z</time></trkpt><trkpt lat="43.63680799139211" lon="11.786078068080482"><ele>669.0</ele><time>2026-04-25T09:30:39.999Z</time></trkpt><trkpt lat="43.636858765087084" lon="11.785941205703026"><ele>669.0</ele><time>2026-04-25T09:30:40.999Z</time></trkpt><trkpt lat="43.636917640524594" lon="11.78579720255939"><ele>669.0</ele><time>2026-04-25T09:30:41.999Z</time></trkpt><trkpt lat="43.63697010096657" lon="11.78570851417399"><ele>669.0</ele><time>2026-04-25T09:30:42.999Z</time></trkpt><trkpt lat="43.63704098247676" lon="11.785642625170201"><ele>668.0</ele><time>2026-04-25T09:30:43.999Z</time></trkpt><trkpt lat="43.63711468346403" lon="11.785571302871674"><ele>667.0</ele><time>2026-04-25T09:30:44.999Z</time></trkpt><trkpt lat="43.63718182523707" lon="11.785488849499119"><ele>666.0</ele><time>2026-04-25T09:30:45.999Z</time></trkpt><trkpt lat="43.63721313928677" lon="11.785394968853632"><ele>665.0</ele><time>2026-04-25T09:30:46.999Z</time></trkpt><trkpt lat="43.63723873356065" lon="11.78529989888019"><ele>664.0</ele><time>2026-04-25T09:30:47.999Z</time></trkpt><trkpt lat="43.637259705974884" lon="11.785178349222715"><ele>663.0</ele><time>2026-04-25T09:30:56.999Z</time></trkpt><trkpt lat="43.63728854008588" lon="11.785079002684277"><ele>660.8333333333334</ele><time>2026-04-25T09:30:58.999Z</time></trkpt><trkpt lat="43.637322462860766" lon="11.784971949512249"><ele>658.6666666666666</ele><time>2026-04-25T09:31:00.999Z</time></trkpt><trkpt lat="43.6372968180447" lon="11.784879862742942"><ele>656.5</ele><time>2026-04-25T09:31:03.999Z</time></trkpt><trkpt lat="43.63732175577463" lon="11.784790776744373"><ele>654.3333333333333</ele><time>2026-04-25T09:31:06.999Z</time></trkpt><trkpt lat="43.63737375634691" lon="11.784697471732743"><ele>652.1666666666666</ele><time>2026-04-25T09:31:09.999Z</time></trkpt><trkpt lat="43.63744593982942" lon="11.784622851699366"><ele>650.0</ele><time>2026-04-25T09:31:12.999Z</time></trkpt><trkpt lat="43.637506473768966" lon="11.784573292825902"><ele>650.0</ele><time>2026-04-25T09:31:14.999Z</time></trkpt><trkpt lat="43.6375752545942" lon="11.784531871807177"><ele>650.0</ele><time>2026-04-25T09:31:16.999Z</time></trkpt><trkpt lat="43.6376610514628" lon="11.784492735681653"><ele>650.0</ele><time>2026-04-25T09:31:18.999Z</time></trkpt><trkpt lat="43.63777294067239" lon="11.784441766901656"><ele>650.0</ele><time>2026-04-25T09:31:20.999Z</time></trkpt><trkpt lat="43.63784357982957" lon="11.7843978180698"><ele>650.0</ele><time>2026-04-25T09:31:21.999Z</time></trkpt><trkpt lat="43.63792454531432" lon="11.7843676832264"><ele>650.0</ele><time>2026-04-25T09:31:22.999Z</time></trkpt><trkpt lat="43.637982922697724" lon="11.784269342018073"><ele>647.8</ele><time>2026-04-25T09:31:23.999Z</time></trkpt><trkpt lat="43.63802516865452" lon="11.784133348740765"><ele>645.6</ele><time>2026-04-25T09:31:24.999Z</time></trkpt><trkpt lat="43.63808071044528" lon="11.7839952126628"><ele>643.4</ele><time>2026-04-25T09:31:25.999Z</time></trkpt><trkpt lat="43.638134716637914" lon="11.78386010528754"><ele>641.2</ele><time>2026-04-25T09:31:26.999Z</time></trkpt><trkpt lat="43.63819532016718" lon="11.783739292234953"><ele>639.0</ele><time>2026-04-25T09:31:27.999Z</time></trkpt><trkpt lat="43.63826749056293" lon="11.783651020910611"><ele>639.0</ele><time>2026-04-25T09:31:28.999Z</time></trkpt><trkpt lat="43.63833222188124" lon="11.783562408397325"><ele>639.0</ele><time>2026-04-25T09:31:29.999Z</time></trkpt><trkpt lat="43.63842200649142" lon="11.783500342891871"><ele>639.0</ele><time>2026-04-25T09:31:30.999Z</time></trkpt><trkpt lat="43.638530079176945" lon="11.783500158105737"><ele>639.0</ele><time>2026-04-25T09:31:31.999Z</time></trkpt><trkpt lat="43.63864991988866" lon="11.783452981336508"><ele>639.0</ele><time>2026-04-25T09:31:32.999Z</time></trkpt><trkpt lat="43.63878012174708" lon="11.783430152327641"><ele>640.25</ele><time>2026-04-25T09:31:33.999Z</time></trkpt><trkpt lat="43.638903031254934" lon="11.783400360107134"><ele>641.5</ele><time>2026-04-25T09:31:34.999Z</time></trkpt><trkpt lat="43.639024060353364" lon="11.783332451336166"><ele>642.75</ele><time>2026-04-25T09:31:35.999Z</time></trkpt><trkpt lat="43.639144514705194" lon="11.783266954324024"><ele>644.0</ele><time>2026-04-25T09:31:37Z</time></trkpt><trkpt lat="43.63925046342976" lon="11.783252972375319"><ele>644.0</ele><time>2026-04-25T09:31:38Z</time></trkpt><trkpt lat="43.63935715328805" lon="11.783224814820574"><ele>644.0</ele><time>2026-04-25T09:31:39Z</time></trkpt><trkpt lat="43.6394694677353" lon="11.78321560762886"><ele>644.0</ele><time>2026-04-25T09:31:40Z</time></trkpt><trkpt lat="43.63958297279302" lon="11.783131681494657"><ele>644.0</ele><time>2026-04-25T09:31:41Z</time></trkpt><trkpt lat="43.639702667345034" lon="11.783023194203553"><ele>643.5</ele><time>2026-04-25T09:31:42Z</time></trkpt><trkpt lat="43.63981875474948" lon="11.782947696923777"><ele>643.0</ele><time>2026-04-25T09:31:43Z</time></trkpt><trkpt lat="43.63993234518448" lon="11.782884852395197"><ele>642.5</ele><time>2026-04-25T09:31:44Z</time></trkpt><trkpt lat="43.64002623803927" lon="11.782811761288055"><ele>642.0</ele><time>2026-04-25T09:31:45Z</time></trkpt><trkpt lat="43.640071118414156" lon="11.782683617587606"><ele>643.2</ele><time>2026-04-25T09:31:46Z</time></trkpt><trkpt lat="43.64010502032501" lon="11.78257161669571"><ele>644.4000000000001</ele><time>2026-04-25T09:31:47Z</time></trkpt><trkpt lat="43.64016497729195" lon="11.782448659647867"><ele>645.5999999999999</ele><time>2026-04-25T09:31:48Z</time></trkpt><trkpt lat="43.64024727492079" lon="11.782346018174675"><ele>646.8</ele><time>2026-04-25T09:31:49Z</time></trkpt><trkpt lat="43.64034168411529" lon="11.782247593179273"><ele>648.0</ele><time>2026-04-25T09:31:50Z</time></trkpt><trkpt lat="43.64040574563615" lon="11.782119246812064"><ele>649.5</ele><time>2026-04-25T09:31:51Z</time></trkpt><trkpt lat="43.640483118876574" lon="11.781973324484241"><ele>651.0</ele><time>2026-04-25T09:31:52Z</time></trkpt><trkpt lat="43.640540800009816" lon="11.78181065056788"><ele>652.5</ele><time>2026-04-25T09:31:53Z</time></trkpt><trkpt lat="43.64061951388536" lon="11.781656446635163"><ele>654.0</ele><time>2026-04-25T09:31:54Z</time></trkpt><trkpt lat="43.64068647473452" lon="11.781487522682093"><ele>654.75</ele><time>2026-04-25T09:31:55Z</time></trkpt><trkpt lat="43.64073832358029" lon="11.781301210239015"><ele>655.5</ele><time>2026-04-25T09:31:56Z</time></trkpt><trkpt lat="43.64078645840511" lon="11.781148090303809"><ele>656.25</ele><time>2026-04-25T09:31:57Z</time></trkpt><trkpt lat="43.6408487392081" lon="11.780991345278128"><ele>657.0</ele><time>2026-04-25T09:31:58Z</time></trkpt><trkpt lat="43.64093256630998" lon="11.780851125198915"><ele>657.0</ele><time>2026-04-25T09:31:59Z</time></trkpt><trkpt lat="43.641024820030786" lon="11.780697640135562"><ele>657.0</ele><time>2026-04-25T09:32:00Z</time></trkpt><trkpt lat="43.641103677416275" lon="11.780536183531883"><ele>657.0</ele><time>2026-04-25T09:32:01Z</time></trkpt><trkpt lat="43.641169335033844" lon="11.78035049351719"><ele>657.0</ele><time>2026-04-25T09:32:02Z</time></trkpt><trkpt lat="43.64126147720586" lon="11.78019687429203"><ele>660.5</ele><time>2026-04-25T09:32:03Z</time></trkpt><trkpt lat="43.64134592994129" lon="11.780074602000111"><ele>664.0</ele><time>2026-04-25T09:32:04Z</time></trkpt><trkpt lat="43.641428248896695" lon="11.779983502287328"><ele>667.5</ele><time>2026-04-25T09:32:05Z</time></trkpt><trkpt lat="43.641529193924306" lon="11.779930654309489"><ele>671.0</ele><time>2026-04-25T09:32:06Z</time></trkpt><trkpt lat="43.641663405631526" lon="11.779910574068346"><ele>671.0</ele><time>2026-04-25T09:32:07Z</time></trkpt><trkpt lat="43.64180109644264" lon="11.779907876589348"><ele>671.0</ele><time>2026-04-25T09:32:08Z</time></trkpt><trkpt lat="43.64191468323931" lon="11.779888665399506"><ele>671.0</ele><time>2026-04-25T09:32:09Z</time></trkpt><trkpt lat="43.6420289943677" lon="11.779872261933605"><ele>671.0</ele><time>2026-04-25T09:32:10Z</time></trkpt><trkpt lat="43.642164863624735" lon="11.779891572897547"><ele>670.5999999999999</ele><time>2026-04-25T09:32:11Z</time></trkpt><trkpt lat="43.642274826855775" lon="11.779900087580382"><ele>670.2</ele><time>2026-04-25T09:32:12Z</time></trkpt><trkpt lat="43.642365758257874" lon="11.779882108586689"><ele>669.8</ele><time>2026-04-25T09:32:13Z</time></trkpt><trkpt lat="43.64243588352804" lon="11.779815820626304"><ele>669.4000000000001</ele><time>2026-04-25T09:32:14Z</time></trkpt><trkpt lat="43.64248102360295" lon="11.779712110099323"><ele>669.0</ele><time>2026-04-25T09:32:15Z</time></trkpt><trkpt lat="43.64249649864745" lon="11.779578101662276"><ele>669.0</ele><time>2026-04-25T09:32:16Z</time></trkpt><trkpt lat="43.642486343832104" lon="11.779434917682062"><ele>669.0</ele><time>2026-04-25T09:32:17Z</time></trkpt><trkpt lat="43.64247181675997" lon="11.779307900043891"><ele>669.0</ele><time>2026-04-25T09:32:18Z</time></trkpt><trkpt lat="43.64248911007862" lon="11.779221431586517"><ele>669.0</ele><time>2026-04-25T09:32:19Z</time></trkpt><trkpt lat="43.64255012392015" lon="11.779167036491877"><ele>669.0</ele><time>2026-04-25T09:32:21Z</time></trkpt><trkpt lat="43.64261260199658" lon="11.779148961601875"><ele>669.0</ele><time>2026-04-25T09:32:24Z</time></trkpt><trkpt lat="43.6426767520076" lon="11.779142858690086"><ele>668.6666666666666</ele><time>2026-04-25T09:32:25Z</time></trkpt><trkpt lat="43.642756016701874" lon="11.779138280833259"><ele>668.3333333333334</ele><time>2026-04-25T09:32:27Z</time></trkpt><trkpt lat="43.64282384650925" lon="11.779042613968011"><ele>668.0</ele><time>2026-04-25T09:32:29Z</time></trkpt><trkpt lat="43.64285717735134" lon="11.778963975329601"><ele>667.6666666666667</ele><time>2026-04-25T09:32:30Z</time></trkpt><trkpt lat="43.64290986713201" lon="11.77889416310807"><ele>667.3333333333334</ele><time>2026-04-25T09:32:32Z</time></trkpt><trkpt lat="43.642973326628066" lon="11.77890182393904"><ele>667.0</ele><time>2026-04-25T09:32:34Z</time></trkpt><trkpt lat="43.643014316956446" lon="11.778804814910307"><ele>667.0</ele><time>2026-04-25T09:32:37Z</time></trkpt><trkpt lat="43.64304280084315" lon="11.778720070144622"><ele>667.0</ele><time>2026-04-25T09:32:38Z</time></trkpt><trkpt lat="43.64309217950418" lon="11.778661208760225"><ele>667.0</ele><time>2026-04-25T09:32:39Z</time></trkpt><trkpt lat="43.6431500339482" lon="11.778588597539498"><ele>667.0</ele><time>2026-04-25T09:32:40Z</time></trkpt><trkpt lat="43.643215448321286" lon="11.77846988495434"><ele>667.0</ele><time>2026-04-25T09:32:42Z</time></trkpt><trkpt lat="43.6432551493193" lon="11.778364116445449"><ele>667.0</ele><time>2026-04-25T09:32:44Z</time></trkpt><trkpt lat="43.64329270221503" lon="11.778268008724128"><ele>667.8333333333334</ele><time>2026-04-25T09:32:45Z</time></trkpt><trkpt lat="43.64332598529335" lon="11.778193631279636"><ele>668.6666666666667</ele><time>2026-04-25T09:32:46Z</time></trkpt><trkpt lat="43.643393074474574" lon="11.778102019598283"><ele>669.5</ele><time>2026-04-25T09:32:48Z</time></trkpt><trkpt lat="43.64346123867748" lon="11.77806412303347"><ele>670.3333333333334</ele><time>2026-04-25T09:32:48.999Z</time></trkpt><trkpt lat="43.64355060190491" lon="11.778015434467655"><ele>671.1666666666666</ele><time>2026-04-25T09:32:49.999Z</time></trkpt><trkpt lat="43.643646063720844" lon="11.777941127533499"><ele>672.0</ele><time>2026-04-25T09:32:50.999Z</time></trkpt><trkpt lat="43.6437545253991" lon="11.777845190079972"><ele>672.4000000000001</ele><time>2026-04-25T09:32:51.999Z</time></trkpt><trkpt lat="43.64386809778403" lon="11.77775863599779"><ele>672.8000000000001</ele><time>2026-04-25T09:32:52.999Z</time></trkpt><trkpt lat="43.64396969921652" lon="11.777688140276426"><ele>673.2</ele><time>2026-04-25T09:32:53.999Z</time></trkpt><trkpt lat="43.64404283633447" lon="11.777609479735512"><ele>673.6</ele><time>2026-04-25T09:32:54.999Z</time></trkpt><trkpt lat="43.6441010236548" lon="11.77750108008966"><ele>674.0</ele><time>2026-04-25T09:32:55.999Z</time></trkpt><trkpt lat="43.64416480022433" lon="11.777358582670841"><ele>677.0</ele><time>2026-04-25T09:32:56.999Z</time></trkpt><trkpt lat="43.644221831458715" lon="11.77725243328022"><ele>680.0</ele><time>2026-04-25T09:32:57.999Z</time></trkpt><trkpt lat="43.644277353878664" lon="11.7771611525857"><ele>683.0</ele><time>2026-04-25T09:32:58.999Z</time></trkpt><trkpt lat="43.64430550615843" lon="11.777036037123668"><ele>686.0</ele><time>2026-04-25T09:32:59.999Z</time></trkpt><trkpt lat="43.64430329447235" lon="11.776914732026734"><ele>689.0</ele><time>2026-04-25T09:33:00.999Z</time></trkpt><trkpt lat="43.64432410761657" lon="11.776776726473047"><ele>690.8000000000001</ele><time>2026-04-25T09:33:01.999Z</time></trkpt><trkpt lat="43.64433374486657" lon="11.776644415006109"><ele>692.6</ele><time>2026-04-25T09:33:02.999Z</time></trkpt><trkpt lat="43.644345338245394" lon="11.776491478035028"><ele>694.4</ele><time>2026-04-25T09:33:03.999Z</time></trkpt><trkpt lat="43.64438442245562" lon="11.776356748935111"><ele>696.2</ele><time>2026-04-25T09:33:04.999Z</time></trkpt><trkpt lat="43.644452765001276" lon="11.776258529377179"><ele>698.0</ele><time>2026-04-25T09:33:05.999Z</time></trkpt><trkpt lat="43.644543839902006" lon="11.776129547605507"><ele>703.25</ele><time>2026-04-25T09:33:06.999Z</time></trkpt><trkpt lat="43.64460498681635" lon="11.775972271553872"><ele>708.5</ele><time>2026-04-25T09:33:07.999Z</time></trkpt><trkpt lat="43.644671074389535" lon="11.77586676173251"><ele>713.75</ele><time>2026-04-25T09:33:08.999Z</time></trkpt><trkpt lat="43.64476528819248" lon="11.775758521227194"><ele>719.0</ele><time>2026-04-25T09:33:09.999Z</time></trkpt><trkpt lat="43.644880840223465" lon="11.775670318211882"><ele>719.0</ele><time>2026-04-25T09:33:10.999Z</time></trkpt><trkpt lat="43.645006828879566" lon="11.775606056459624"><ele>719.0</ele><time>2026-04-25T09:33:11.999Z</time></trkpt><trkpt lat="43.64514468987889" lon="11.77556540041156"><ele>719.0</ele><time>2026-04-25T09:33:12.999Z</time></trkpt><trkpt lat="43.645239806081754" lon="11.775496224788029"><ele>719.0</ele><time>2026-04-25T09:33:13.999Z</time></trkpt><trkpt lat="43.645300229223594" lon="11.775382675110246"><ele>720.0</ele><time>2026-04-25T09:33:14.999Z</time></trkpt><trkpt lat="43.645313694904246" lon="11.775247715486511"><ele>721.0</ele><time>2026-04-25T09:33:15.999Z</time></trkpt><trkpt lat="43.645363131547576" lon="11.775097868200929"><ele>722.0</ele><time>2026-04-25T09:33:16.999Z</time></trkpt><trkpt lat="43.64539474348387" lon="11.774916950279366"><ele>723.0</ele><time>2026-04-25T09:33:17.999Z</time></trkpt><trkpt lat="43.64543242302326" lon="11.77475119218169"><ele>724.8333333333334</ele><time>2026-04-25T09:33:18.999Z</time></trkpt><trkpt lat="43.64545601156923" lon="11.774628986049061"><ele>726.6666666666666</ele><time>2026-04-25T09:33:19.999Z</time></trkpt><trkpt lat="43.64546790432505" lon="11.774529041043795"><ele>728.5</ele><time>2026-04-25T09:33:20.999Z</time></trkpt><trkpt lat="43.64544304674049" lon="11.774407125131079"><ele>730.3333333333333</ele><time>2026-04-25T09:33:23.999Z</time></trkpt><trkpt lat="43.645450999075706" lon="11.774283046809288"><ele>732.1666666666666</ele><time>2026-04-25T09:33:24.999Z</time></trkpt><trkpt lat="43.64546248808706" lon="11.77414469472892"><ele>734.0</ele><time>2026-04-25T09:33:25.999Z</time></trkpt><trkpt lat="43.64548383948776" lon="11.774016653106601"><ele>734.4000000000001</ele><time>2026-04-25T09:33:26.999Z</time></trkpt><trkpt lat="43.645496345103936" lon="11.77388078095418"><ele>734.8</ele><time>2026-04-25T09:33:27.999Z</time></trkpt><trkpt lat="43.64551625517332" lon="11.773703644728604"><ele>735.2</ele><time>2026-04-25T09:33:28.999Z</time></trkpt><trkpt lat="43.64552831392458" lon="11.773574178194709"><ele>735.5999999999999</ele><time>2026-04-25T09:33:29.999Z</time></trkpt><trkpt lat="43.64553563994168" lon="11.773440948866634"><ele>736.0</ele><time>2026-04-25T09:33:30.999Z</time></trkpt><trkpt lat="43.64556025636998" lon="11.77331220506788"><ele>736.0</ele><time>2026-04-25T09:33:31.999Z</time></trkpt><trkpt lat="43.645559791815906" lon="11.77316768817205"><ele>736.0</ele><time>2026-04-25T09:33:32.999Z</time></trkpt><trkpt lat="43.64554057357808" lon="11.772999522154574"><ele>736.0</ele><time>2026-04-25T09:33:33.999Z</time></trkpt><trkpt lat="43.64553070428994" lon="11.772887746134908"><ele>736.0</ele><time>2026-04-25T09:33:34.999Z</time></trkpt><trkpt lat="43.64551732193101" lon="11.772749184688118"><ele>736.0</ele><time>2026-04-25T09:33:36.999Z</time></trkpt><trkpt lat="43.645472195463675" lon="11.772658536290999"><ele>736.4</ele><time>2026-04-25T09:33:37.999Z</time></trkpt><trkpt lat="43.645453417031675" lon="11.772570869638932"><ele>736.8</ele><time>2026-04-25T09:33:38.999Z</time></trkpt><trkpt lat="43.64548309498008" lon="11.772449474925818"><ele>737.1999999999999</ele><time>2026-04-25T09:33:39.999Z</time></trkpt><trkpt lat="43.6455314851585" lon="11.772306348506497"><ele>737.5999999999999</ele><time>2026-04-25T09:33:40.999Z</time></trkpt><trkpt lat="43.64558151795566" lon="11.772170947519589"><ele>738.0</ele><time>2026-04-25T09:33:41.999Z</time></trkpt><trkpt lat="43.64566303344125" lon="11.772008392192552"><ele>738.0</ele><time>2026-04-25T09:33:43Z</time></trkpt><trkpt lat="43.64570726360435" lon="11.771875525305619"><ele>738.0</ele><time>2026-04-25T09:33:44Z</time></trkpt><trkpt lat="43.645733995273595" lon="11.771703070619346"><ele>738.0</ele><time>2026-04-25T09:33:45Z</time></trkpt><trkpt lat="43.64575964385514" lon="11.771522623754933"><ele>738.0</ele><time>2026-04-25T09:33:46Z</time></trkpt><trkpt lat="43.645808307997314" lon="11.771354754982728"><ele>739.3333333333334</ele><time>2026-04-25T09:33:47Z</time></trkpt><trkpt lat="43.64584220884486" lon="11.771208092666742"><ele>740.6666666666666</ele><time>2026-04-25T09:33:48Z</time></trkpt><trkpt lat="43.645866892804776" lon="11.771104340249403"><ele>742.0</ele><time>2026-04-25T09:33:49Z</time></trkpt><trkpt lat="43.64580654285416" lon="11.77097859040115"><ele>743.3333333333333</ele><time>2026-04-25T09:33:51Z</time></trkpt><trkpt lat="43.64578508323383" lon="11.770894319527821"><ele>744.6666666666666</ele><time>2026-04-25T09:33:52Z</time></trkpt><trkpt lat="43.6457784513209" lon="11.77080142259733"><ele>746.0</ele><time>2026-04-25T09:33:53Z</time></trkpt><trkpt lat="43.64577763305509" lon="11.77068471592791"><ele>748.1999999999999</ele><time>2026-04-25T09:33:54Z</time></trkpt><trkpt lat="43.64580502210214" lon="11.770566756434873"><ele>750.4</ele><time>2026-04-25T09:33:55Z</time></trkpt><trkpt lat="43.64582781769024" lon="11.770465962462858"><ele>752.6</ele><time>2026-04-25T09:33:56Z</time></trkpt><trkpt lat="43.64582662359394" lon="11.770313771077397"><ele>754.8</ele><time>2026-04-25T09:33:58Z</time></trkpt><trkpt lat="43.64588153036615" lon="11.77023076577369"><ele>757.0</ele><time>2026-04-25T09:33:59Z</time></trkpt><trkpt lat="43.6459583158464" lon="11.77013008487377"><ele>756.8</ele><time>2026-04-25T09:34:00Z</time></trkpt><trkpt lat="43.64602565777255" lon="11.770031756579682"><ele>756.6</ele><time>2026-04-25T09:34:01Z</time></trkpt><trkpt lat="43.64608762704811" lon="11.769936767305719"><ele>756.4</ele><time>2026-04-25T09:34:02Z</time></trkpt><trkpt lat="43.64616297940806" lon="11.769879827912991"><ele>756.1999999999999</ele><time>2026-04-25T09:34:03Z</time></trkpt><trkpt lat="43.64622439871038" lon="11.769770854058931"><ele>756.0</ele><time>2026-04-25T09:34:05Z</time></trkpt><trkpt lat="43.646225399101894" lon="11.769644586622825"><ele>756.0</ele><time>2026-04-25T09:34:06Z</time></trkpt><trkpt lat="43.64619660823634" lon="11.76950840587425"><ele>756.0</ele><time>2026-04-25T09:34:07Z</time></trkpt><trkpt lat="43.64617163654147" lon="11.769397426071116"><ele>756.0</ele><time>2026-04-25T09:34:08Z</time></trkpt><trkpt lat="43.64614256931077" lon="11.76930428525711"><ele>756.0</ele><time>2026-04-25T09:34:09Z</time></trkpt><trkpt lat="43.6461242940726" lon="11.769201695183753"><ele>756.0</ele><time>2026-04-25T09:34:10Z</time></trkpt><trkpt lat="43.646139405792276" lon="11.769113694742844"><ele>756.0</ele><time>2026-04-25T09:34:11Z</time></trkpt><trkpt lat="43.646166910283696" lon="11.769018977734405"><ele>756.0</ele><time>2026-04-25T09:34:14Z</time></trkpt><trkpt lat="43.64619928979276" lon="11.768917531685895"><ele>756.0</ele><time>2026-04-25T09:34:16Z</time></trkpt><trkpt lat="43.646230920378784" lon="11.768811979806411"><ele>756.0</ele><time>2026-04-25T09:34:18Z</time></trkpt><trkpt lat="43.646215181486625" lon="11.768620386902624"><ele>756.0</ele><time>2026-04-25T09:34:20Z</time></trkpt><trkpt lat="43.646181479725584" lon="11.768473354252604"><ele>756.0</ele><time>2026-04-25T09:34:21Z</time></trkpt><trkpt lat="43.646148481529984" lon="11.768339721039574"><ele>755.1666666666666</ele><time>2026-04-25T09:34:22Z</time></trkpt><trkpt lat="43.64612818386585" lon="11.768215740176785"><ele>754.3333333333334</ele><time>2026-04-25T09:34:23Z</time></trkpt><trkpt lat="43.64614084783803" lon="11.768103193238176"><ele>753.5</ele><time>2026-04-25T09:34:24Z</time></trkpt><trkpt lat="43.64616139316217" lon="11.768002084624705"><ele>752.6666666666667</ele><time>2026-04-25T09:34:25Z</time></trkpt><trkpt lat="43.64616869876172" lon="11.767906862349216"><ele>751.8333333333334</ele><time>2026-04-25T09:34:26Z</time></trkpt><trkpt lat="43.646192385415205" lon="11.767788964998914"><ele>751.0</ele><time>2026-04-25T09:34:27Z</time></trkpt><trkpt lat="43.64622717953597" lon="11.76766053191575"><ele>753.6666666666667</ele><time>2026-04-25T09:34:28Z</time></trkpt><trkpt lat="43.64627723017416" lon="11.767545379881536"><ele>756.3333333333334</ele><time>2026-04-25T09:34:29Z</time></trkpt><trkpt lat="43.64631943204056" lon="11.767432849119917"><ele>759.0</ele><time>2026-04-25T09:34:30Z</time></trkpt><trkpt lat="43.646346981316015" lon="11.767334676789142"><ele>761.6666666666666</ele><time>2026-04-25T09:34:32Z</time></trkpt><trkpt lat="43.64635610169383" lon="11.767243769959183"><ele>764.3333333333333</ele><time>2026-04-25T09:34:33Z</time></trkpt><trkpt lat="43.6463825949959" lon="11.767151332011347"><ele>767.0</ele><time>2026-04-25T09:34:34Z</time></trkpt><trkpt lat="43.646428025523285" lon="11.76707277919557"><ele>767.0</ele><time>2026-04-25T09:34:35Z</time></trkpt><trkpt lat="43.64647873505877" lon="11.76700452274799"><ele>767.0</ele><time>2026-04-25T09:34:36Z</time></trkpt><trkpt lat="43.64650668105032" lon="11.766877535218748"><ele>767.0</ele><time>2026-04-25T09:34:38Z</time></trkpt><trkpt lat="43.64652648839945" lon="11.766783481250762"><ele>767.0</ele><time>2026-04-25T09:34:39Z</time></trkpt><trkpt lat="43.64656156396353" lon="11.766693281068594"><ele>767.0</ele><time>2026-04-25T09:34:45Z</time></trkpt><trkpt lat="43.64657678425601" lon="11.766577310287202"><ele>767.0</ele><time>2026-04-25T09:34:48Z</time></trkpt><trkpt lat="43.646598047320325" lon="11.766495274270552"><ele>767.5</ele><time>2026-04-25T09:34:49Z</time></trkpt><trkpt lat="43.646628719214945" lon="11.766402747628367"><ele>768.0</ele><time>2026-04-25T09:34:50Z</time></trkpt><trkpt lat="43.646674487836634" lon="11.76630174711311"><ele>768.5</ele><time>2026-04-25T09:34:51Z</time></trkpt><trkpt lat="43.646720094498406" lon="11.766174340872327"><ele>769.0</ele><time>2026-04-25T09:34:52Z</time></trkpt><trkpt lat="43.6467652577454" lon="11.766064937074745"><ele>769.5000000000001</ele><time>2026-04-25T09:34:53Z</time></trkpt><trkpt lat="43.646812650886744" lon="11.765962001841144"><ele>770.0</ele><time>2026-04-25T09:34:54Z</time></trkpt><trkpt lat="43.64686184621926" lon="11.765870879543181"><ele>772.8</ele><time>2026-04-25T09:34:55Z</time></trkpt><trkpt lat="43.64696365083147" lon="11.765899807127049"><ele>775.6</ele><time>2026-04-25T09:34:57Z</time></trkpt><trkpt lat="43.647051540057504" lon="11.765917404796092"><ele>778.4000000000001</ele><time>2026-04-25T09:34:58Z</time></trkpt><trkpt lat="43.647128712740404" lon="11.76586275221764"><ele>781.2</ele><time>2026-04-25T09:34:59Z</time></trkpt><trkpt lat="43.647227339852535" lon="11.76575622513545"><ele>784.0</ele><time>2026-04-25T09:34:59.999Z</time></trkpt><trkpt lat="43.647320708464086" lon="11.765674599880708"><ele>784.0</ele><time>2026-04-25T09:35:00.999Z</time></trkpt><trkpt lat="43.64743202682301" lon="11.765654798554232"><ele>784.0</ele><time>2026-04-25T09:35:01.999Z</time></trkpt><trkpt lat="43.647557167307326" lon="11.765643097554598"><ele>784.0</ele><time>2026-04-25T09:35:02.999Z</time></trkpt><trkpt lat="43.64767634560605" lon="11.76563592512125"><ele>784.0</ele><time>2026-04-25T09:35:03.999Z</time></trkpt><trkpt lat="43.647775027485174" lon="11.765611310845806"><ele>786.2</ele><time>2026-04-25T09:35:04.999Z</time></trkpt><trkpt lat="43.64787556685388" lon="11.765622393147602"><ele>788.4000000000001</ele><time>2026-04-25T09:35:05.999Z</time></trkpt><trkpt lat="43.647968014867544" lon="11.765628273437784"><ele>790.6</ele><time>2026-04-25T09:35:06.999Z</time></trkpt><trkpt lat="43.64803904321323" lon="11.765567425487696"><ele>792.8</ele><time>2026-04-25T09:35:07.999Z</time></trkpt><trkpt lat="43.64813108373777" lon="11.765522763738165"><ele>795.0</ele><time>2026-04-25T09:35:08.999Z</time></trkpt><trkpt lat="43.64822602461117" lon="11.765525241815052"><ele>795.0</ele><time>2026-04-25T09:35:09.999Z</time></trkpt><trkpt lat="43.648320470657616" lon="11.765552150731125"><ele>795.0</ele><time>2026-04-25T09:35:10.999Z</time></trkpt><trkpt lat="43.64840125679661" lon="11.76553812913843"><ele>795.0</ele><time>2026-04-25T09:35:11.999Z</time></trkpt><trkpt lat="43.64845103513752" lon="11.765480312813686"><ele>795.0</ele><time>2026-04-25T09:35:12.999Z</time></trkpt><trkpt lat="43.648455988499464" lon="11.76536734346532"><ele>795.0</ele><time>2026-04-25T09:35:13.999Z</time></trkpt><trkpt lat="43.64846805565287" lon="11.765213449003278"><ele>795.0</ele><time>2026-04-25T09:35:14.999Z</time></trkpt><trkpt lat="43.64848022984698" lon="11.765099692773031"><ele>797.2</ele><time>2026-04-25T09:35:15.999Z</time></trkpt><trkpt lat="43.648500744002796" lon="11.765004517915887"><ele>799.4</ele><time>2026-04-25T09:35:17.999Z</time></trkpt><trkpt lat="43.64848192633653" lon="11.764836892381316"><ele>801.5999999999999</ele><time>2026-04-25T09:35:19.999Z</time></trkpt><trkpt lat="43.648517483853766" lon="11.764725853370345"><ele>803.8</ele><time>2026-04-25T09:35:20.999Z</time></trkpt><trkpt lat="43.64855724563047" lon="11.764575688303701"><ele>806.0</ele><time>2026-04-25T09:35:21.999Z</time></trkpt><trkpt lat="43.64860078106802" lon="11.764446632285194"><ele>808.1999999999999</ele><time>2026-04-25T09:35:22.999Z</time></trkpt><trkpt lat="43.6486180205458" lon="11.764324553052813"><ele>810.4</ele><time>2026-04-25T09:35:23.999Z</time></trkpt><trkpt lat="43.64862297367195" lon="11.764199622130649"><ele>812.6</ele><time>2026-04-25T09:35:24.999Z</time></trkpt><trkpt lat="43.64864503825808" lon="11.764026515178335"><ele>814.8</ele><time>2026-04-25T09:35:26.999Z</time></trkpt><trkpt lat="43.64869489443898" lon="11.763912634796856"><ele>817.0</ele><time>2026-04-25T09:35:27.999Z</time></trkpt><trkpt lat="43.64875206262219" lon="11.76378733080446"><ele>817.0</ele><time>2026-04-25T09:35:28.999Z</time></trkpt><trkpt lat="43.64879346566418" lon="11.763665829405262"><ele>817.0</ele><time>2026-04-25T09:35:29.999Z</time></trkpt><trkpt lat="43.64881014419723" lon="11.76354768506892"><ele>817.0</ele><time>2026-04-25T09:35:30.999Z</time></trkpt><trkpt lat="43.6488476774633" lon="11.763443555857405"><ele>817.0</ele><time>2026-04-25T09:35:31.999Z</time></trkpt><trkpt lat="43.648906153447584" lon="11.763360825005941"><ele>817.0</ele><time>2026-04-25T09:35:32.999Z</time></trkpt><trkpt lat="43.64899377854424" lon="11.763226418085553"><ele>819.8</ele><time>2026-04-25T09:35:33.999Z</time></trkpt><trkpt lat="43.649058802638294" lon="11.763084604075027"><ele>822.6</ele><time>2026-04-25T09:35:34.999Z</time></trkpt><trkpt lat="43.64909492744313" lon="11.762957751542917"><ele>825.4</ele><time>2026-04-25T09:35:35.999Z</time></trkpt><trkpt lat="43.64915751643777" lon="11.762830203111855"><ele>828.1999999999999</ele><time>2026-04-25T09:35:36.999Z</time></trkpt><trkpt lat="43.64922046553165" lon="11.76270514629168"><ele>831.0</ele><time>2026-04-25T09:35:37.999Z</time></trkpt><trkpt lat="43.64926289185073" lon="11.762586472211993"><ele>831.0</ele><time>2026-04-25T09:35:38.999Z</time></trkpt><trkpt lat="43.64930543377586" lon="11.762482558759052"><ele>831.0</ele><time>2026-04-25T09:35:39.999Z</time></trkpt><trkpt lat="43.64937296116865" lon="11.762336884059524"><ele>831.0</ele><time>2026-04-25T09:35:41.999Z</time></trkpt><trkpt lat="43.64944513586295" lon="11.762230476691988"><ele>831.0</ele><time>2026-04-25T09:35:42.999Z</time></trkpt><trkpt lat="43.649535727417884" lon="11.762070987257571"><ele>831.0</ele><time>2026-04-25T09:35:43.999Z</time></trkpt><trkpt lat="43.649631854618114" lon="11.761905509669226"><ele>831.0</ele><time>2026-04-25T09:35:44.999Z</time></trkpt><trkpt lat="43.64967011470483" lon="11.761802505912623"><ele>831.0</ele><time>2026-04-25T09:35:45.999Z</time></trkpt><trkpt lat="43.649699936442495" lon="11.761694791014206"><ele>831.0</ele><time>2026-04-25T09:35:46.999Z</time></trkpt><trkpt lat="43.649753744339286" lon="11.761584097552014"><ele>831.0</ele><time>2026-04-25T09:35:47.999Z</time></trkpt><trkpt lat="43.649788841614054" lon="11.761490846970602"><ele>834.0</ele><time>2026-04-25T09:35:49Z</time></trkpt><trkpt lat="43.649852793438946" lon="11.761282525081434"><ele>837.0</ele><time>2026-04-25T09:35:51Z</time></trkpt><trkpt lat="43.64991922586564" lon="11.761143558792934"><ele>840.0</ele><time>2026-04-25T09:35:52Z</time></trkpt><trkpt lat="43.64998948924438" lon="11.761014890079128"><ele>843.0</ele><time>2026-04-25T09:35:53Z</time></trkpt><trkpt lat="43.65006089956764" lon="11.760911966152527"><ele>843.4</ele><time>2026-04-25T09:35:54Z</time></trkpt><trkpt lat="43.65012806481493" lon="11.760828122899106"><ele>843.8</ele><time>2026-04-25T09:35:55Z</time></trkpt><trkpt lat="43.650177063181" lon="11.760712721759635"><ele>844.2</ele><time>2026-04-25T09:35:56Z</time></trkpt><trkpt lat="43.65022354347023" lon="11.760547603290382"><ele>844.6</ele><time>2026-04-25T09:35:57Z</time></trkpt><trkpt lat="43.650269749063334" lon="11.760405290957669"><ele>845.0</ele><time>2026-04-25T09:35:58Z</time></trkpt><trkpt lat="43.65031513109396" lon="11.760252319039633"><ele>849.0</ele><time>2026-04-25T09:35:59Z</time></trkpt><trkpt lat="43.650372590754834" lon="11.760078253226945"><ele>853.0</ele><time>2026-04-25T09:36:00Z</time></trkpt><trkpt lat="43.65042667802035" lon="11.759900511840518"><ele>857.0</ele><time>2026-04-25T09:36:01Z</time></trkpt><trkpt lat="43.65048358724688" lon="11.759757625477786"><ele>861.0</ele><time>2026-04-25T09:36:02Z</time></trkpt><trkpt lat="43.65053470400852" lon="11.759613731329358"><ele>861.0</ele><time>2026-04-25T09:36:03Z</time></trkpt><trkpt lat="43.65059601445493" lon="11.759463465921986"><ele>860.9999999999999</ele><time>2026-04-25T09:36:04Z</time></trkpt><trkpt lat="43.65065567801985" lon="11.759346099895609"><ele>860.9999999999999</ele><time>2026-04-25T09:36:05Z</time></trkpt><trkpt lat="43.650704125438196" lon="11.75922684323159"><ele>861.0</ele><time>2026-04-25T09:36:06Z</time></trkpt><trkpt lat="43.650727863367614" lon="11.759114096816878"><ele>861.0</ele><time>2026-04-25T09:36:07Z</time></trkpt><trkpt lat="43.65074917797882" lon="11.759008309500745"><ele>861.8</ele><time>2026-04-25T09:36:08Z</time></trkpt><trkpt lat="43.650771852326386" lon="11.758893122071212"><ele>862.5999999999999</ele><time>2026-04-25T09:36:09Z</time></trkpt><trkpt lat="43.650754775784904" lon="11.758728829961413"><ele>863.4</ele><time>2026-04-25T09:36:10Z</time></trkpt><trkpt lat="43.650718846520576" lon="11.758569041640241"><ele>864.2</ele><time>2026-04-25T09:36:11Z</time></trkpt><trkpt lat="43.650730968341726" lon="11.75844153272523"><ele>865.0</ele><time>2026-04-25T09:36:12Z</time></trkpt><trkpt lat="43.65074689622296" lon="11.758304473965293"><ele>865.2</ele><time>2026-04-25T09:36:13Z</time></trkpt><trkpt lat="43.65077957369058" lon="11.758143420793921"><ele>865.4</ele><time>2026-04-25T09:36:14Z</time></trkpt><trkpt lat="43.65079676500234" lon="11.757967387163136"><ele>865.5999999999999</ele><time>2026-04-25T09:36:15Z</time></trkpt><trkpt lat="43.65084502503425" lon="11.757824353618194"><ele>865.8</ele><time>2026-04-25T09:36:16Z</time></trkpt><trkpt lat="43.65088377082278" lon="11.757719132188125"><ele>866.0</ele><time>2026-04-25T09:36:17Z</time></trkpt><trkpt lat="43.650899216112" lon="11.75760813876419"><ele>866.1999999999999</ele><time>2026-04-25T09:36:18Z</time></trkpt><trkpt lat="43.650893016386995" lon="11.757457670930552"><ele>866.3999999999999</ele><time>2026-04-25T09:36:19Z</time></trkpt><trkpt lat="43.65088018165764" lon="11.757309862424638"><ele>866.6</ele><time>2026-04-25T09:36:20Z</time></trkpt><trkpt lat="43.65086643461491" lon="11.757193384200747"><ele>866.8</ele><time>2026-04-25T09:36:21Z</time></trkpt><trkpt lat="43.65082786420497" lon="11.757108772747166"><ele>867.0</ele><time>2026-04-25T09:36:22Z</time></trkpt><trkpt lat="43.650764793782194" lon="11.757003271313241"><ele>869.75</ele><time>2026-04-25T09:36:23Z</time></trkpt><trkpt lat="43.650695329981964" lon="11.756828243032764"><ele>872.5</ele><time>2026-04-25T09:36:24Z</time></trkpt><trkpt lat="43.65062970082254" lon="11.756665740065623"><ele>875.25</ele><time>2026-04-25T09:36:25Z</time></trkpt><trkpt lat="43.65058511801204" lon="11.756550905110446"><ele>878.0</ele><time>2026-04-25T09:36:26Z</time></trkpt><trkpt lat="43.65053485304338" lon="11.75644452836484"><ele>878.0000000000001</ele><time>2026-04-25T09:36:27Z</time></trkpt><trkpt lat="43.65051086195726" lon="11.756327888691368"><ele>878.0</ele><time>2026-04-25T09:36:28Z</time></trkpt><trkpt lat="43.65049595371419" lon="11.756236150692459"><ele>878.0</ele><time>2026-04-25T09:36:29Z</time></trkpt><trkpt lat="43.65049881627798" lon="11.75613867165089"><ele>878.0</ele><time>2026-04-25T09:36:30Z</time></trkpt><trkpt lat="43.650461429221146" lon="11.75602197829828"><ele>878.0000000000001</ele><time>2026-04-25T09:36:32Z</time></trkpt><trkpt lat="43.650410210941565" lon="11.755945606016077"><ele>878.0</ele><time>2026-04-25T09:36:33Z</time></trkpt><trkpt lat="43.65042410148257" lon="11.755810129281592"><ele>880.0000000000001</ele><time>2026-04-25T09:36:35Z</time></trkpt><trkpt lat="43.65043727294685" lon="11.755711211401106"><ele>882.0</ele><time>2026-04-25T09:36:36Z</time></trkpt><trkpt lat="43.65045034617384" lon="11.755562695132744"><ele>884.0</ele><time>2026-04-25T09:36:38Z</time></trkpt><trkpt lat="43.650501948921395" lon="11.755623910222871"><ele>886.0</ele><time>2026-04-25T09:37:01.999Z</time></trkpt><trkpt lat="43.65051080459701" lon="11.755501874159876"><ele>888.0000000000001</ele><time>2026-04-25T09:37:04.999Z</time></trkpt><trkpt lat="43.65046991255417" lon="11.755434237135375"><ele>890.0</ele><time>2026-04-25T09:37:08.999Z</time></trkpt><trkpt lat="43.65048987450701" lon="11.755289148855486"><ele>890.2</ele><time>2026-04-25T09:37:10.999Z</time></trkpt><trkpt lat="43.65049654594241" lon="11.75518016794325"><ele>890.4</ele><time>2026-04-25T09:37:11.999Z</time></trkpt><trkpt lat="43.65053504367935" lon="11.755067415547126"><ele>890.5999999999999</ele><time>2026-04-25T09:37:12.999Z</time></trkpt><trkpt lat="43.65060628319931" lon="11.754982214344178"><ele>890.8</ele><time>2026-04-25T09:37:13.999Z</time></trkpt><trkpt lat="43.65067114960177" lon="11.754933088912898"><ele>891.0</ele><time>2026-04-25T09:37:14.999Z</time></trkpt><trkpt lat="43.65078406071658" lon="11.754949639096145"><ele>891.0</ele><time>2026-04-25T09:37:16.999Z</time></trkpt><trkpt lat="43.650879644711914" lon="11.754902906234962"><ele>890.9999999999999</ele><time>2026-04-25T09:37:18.999Z</time></trkpt><trkpt lat="43.65093873440769" lon="11.754850131909997"><ele>890.9999999999999</ele><time>2026-04-25T09:37:19.999Z</time></trkpt><trkpt lat="43.65102007421626" lon="11.75483523818695"><ele>891.0</ele><time>2026-04-25T09:37:20.999Z</time></trkpt><trkpt lat="43.65110749924747" lon="11.754834529617323"><ele>891.0</ele><time>2026-04-25T09:37:22.999Z</time></trkpt><trkpt lat="43.65120689146715" lon="11.7547451982035"><ele>892.3333333333334</ele><time>2026-04-25T09:37:27.999Z</time></trkpt><trkpt lat="43.65127216739676" lon="11.754675105385354"><ele>893.6666666666667</ele><time>2026-04-25T09:37:28.999Z</time></trkpt><trkpt lat="43.65135464476242" lon="11.754590619958527"><ele>895.0</ele><time>2026-04-25T09:37:29.999Z</time></trkpt><trkpt lat="43.65141466917562" lon="11.75454802448627"><ele>896.3333333333334</ele><time>2026-04-25T09:37:30.999Z</time></trkpt><trkpt lat="43.651462459977324" lon="11.754489608885956"><ele>897.6666666666667</ele><time>2026-04-25T09:37:36.999Z</time></trkpt><trkpt lat="43.651460896004096" lon="11.754384423944874"><ele>899.0</ele><time>2026-04-25T09:37:42.999Z</time></trkpt><trkpt lat="43.65152699721144" lon="11.754409862381994"><ele>899.0000000000001</ele><time>2026-04-25T09:37:47.999Z</time></trkpt><trkpt lat="43.65159284797458" lon="11.754386030888515"><ele>899.0</ele><time>2026-04-25T09:37:51.999Z</time></trkpt><trkpt lat="43.65166176325692" lon="11.754348265330147"><ele>899.0</ele><time>2026-04-25T09:37:56Z</time></trkpt><trkpt lat="43.65169039715227" lon="11.754237848762072"><ele>899.0</ele><time>2026-04-25T09:38:00Z</time></trkpt><trkpt lat="43.651720252276895" lon="11.754142565477173"><ele>899.0000000000001</ele><time>2026-04-25T09:38:04Z</time></trkpt><trkpt lat="43.65174243377636" lon="11.754027763320119"><ele>899.0</ele><time>2026-04-25T09:44:17Z</time></trkpt><trkpt lat="43.651822898744726" lon="11.753893286282246"><ele>896.0000000000001</ele><time>2026-04-25T09:44:19Z</time></trkpt><trkpt lat="43.65185986530673" lon="11.75373561989138"><ele>893.0</ele><time>2026-04-25T09:44:21Z</time></trkpt><trkpt lat="43.6518767498044" lon="11.753647908979552"><ele>890.0</ele><time>2026-04-25T09:44:22Z</time></trkpt><trkpt lat="43.65193340564289" lon="11.753503443229082"><ele>887.0</ele><time>2026-04-25T09:44:24Z</time></trkpt><trkpt lat="43.65195305679958" lon="11.75341554124869"><ele>884.0000000000001</ele><time>2026-04-25T09:44:25Z</time></trkpt><trkpt lat="43.65198371900433" lon="11.753330711025738"><ele>881.0</ele><time>2026-04-25T09:44:26Z</time></trkpt><trkpt lat="43.652033930390346" lon="11.753259432702695"><ele>879.5000000000001</ele><time>2026-04-25T09:44:27Z</time></trkpt><trkpt lat="43.652100045370354" lon="11.753198532412293"><ele>878.0</ele><time>2026-04-25T09:44:28Z</time></trkpt><trkpt lat="43.65213004635118" lon="11.75312015394505"><ele>876.5</ele><time>2026-04-25T09:44:29Z</time></trkpt><trkpt lat="43.65217107226777" lon="11.752993473242995"><ele>875.0</ele><time>2026-04-25T09:44:30Z</time></trkpt><trkpt lat="43.65222457070523" lon="11.752901668940329"><ele>873.5000000000001</ele><time>2026-04-25T09:44:31Z</time></trkpt><trkpt lat="43.652288712662624" lon="11.752795473805753"><ele>872.0</ele><time>2026-04-25T09:44:32Z</time></trkpt><trkpt lat="43.652335996715344" lon="11.75269849373325"><ele>870.8333333333334</ele><time>2026-04-25T09:44:33Z</time></trkpt><trkpt lat="43.65237421133692" lon="11.752628276007371"><ele>869.6666666666667</ele><time>2026-04-25T09:44:34Z</time></trkpt><trkpt lat="43.65241381161849" lon="11.752497897754361"><ele>868.5</ele><time>2026-04-25T09:44:36Z</time></trkpt><trkpt lat="43.652502845322914" lon="11.752403522745137"><ele>867.3333333333333</ele><time>2026-04-25T09:44:38Z</time></trkpt><trkpt lat="43.652567611225564" lon="11.752372419748509"><ele>866.1666666666666</ele><time>2026-04-25T09:44:39Z</time></trkpt><trkpt lat="43.65264028992411" lon="11.752304665659421"><ele>865.0</ele><time>2026-04-25T09:44:41Z</time></trkpt><trkpt lat="43.65271338938177" lon="11.752291825949639"><ele>864.9999999999999</ele><time>2026-04-25T09:44:42Z</time></trkpt><trkpt lat="43.652770463960515" lon="11.752232278888224"><ele>865.0</ele><time>2026-04-25T09:44:43Z</time></trkpt><trkpt lat="43.652818471909164" lon="11.752171064759645"><ele>865.0</ele><time>2026-04-25T09:44:45Z</time></trkpt><trkpt lat="43.65279937936529" lon="11.752292513748941"><ele>865.0</ele><time>2026-04-25T09:45:02Z</time></trkpt><trkpt lat="43.65280356826608" lon="11.752411840818244"><ele>864.9999999999999</ele><time>2026-04-25T09:45:03Z</time></trkpt><trkpt lat="43.6528101275255" lon="11.75251122213233"><ele>865.0</ele><time>2026-04-25T09:45:04Z</time></trkpt><trkpt lat="43.652814655198306" lon="11.752616771320271"><ele>866.1666666666666</ele><time>2026-04-25T09:45:05Z</time></trkpt><trkpt lat="43.652812023474084" lon="11.752738151260417"><ele>867.3333333333333</ele><time>2026-04-25T09:45:06Z</time></trkpt><trkpt lat="43.6528131798707" lon="11.752850830521114"><ele>868.5</ele><time>2026-04-25T09:45:07Z</time></trkpt><trkpt lat="43.65282113271332" lon="11.752954982346537"><ele>869.6666666666667</ele><time>2026-04-25T09:45:08Z</time></trkpt><trkpt lat="43.65281802133336" lon="11.753054735580978"><ele>870.8333333333334</ele><time>2026-04-25T09:45:09Z</time></trkpt><trkpt lat="43.652799309753235" lon="11.753168776354968"><ele>872.0</ele><time>2026-04-25T09:45:10Z</time></trkpt><trkpt lat="43.652768428295964" lon="11.75329812975068"><ele>872.0</ele><time>2026-04-25T09:45:11Z</time></trkpt><trkpt lat="43.652733820932404" lon="11.75340337210514"><ele>872.0</ele><time>2026-04-25T09:45:12Z</time></trkpt><trkpt lat="43.65269155414273" lon="11.753544325488239"><ele>872.0</ele><time>2026-04-25T09:45:13Z</time></trkpt><trkpt lat="43.652658844954765" lon="11.753693936642781"><ele>872.0</ele><time>2026-04-25T09:45:14Z</time></trkpt><trkpt lat="43.65266987758648" lon="11.753798825868694"><ele>872.0</ele><time>2026-04-25T09:45:15Z</time></trkpt><trkpt lat="43.65266653459601" lon="11.753963324288156"><ele>871.5000000000001</ele><time>2026-04-25T09:45:16Z</time></trkpt><trkpt lat="43.65265166484633" lon="11.754094977099358"><ele>871.0</ele><time>2026-04-25T09:45:17Z</time></trkpt><trkpt lat="43.65270682192474" lon="11.754200958346248"><ele>870.5</ele><time>2026-04-25T09:45:19Z</time></trkpt><trkpt lat="43.65275905608469" lon="11.754266802409408"><ele>870.0</ele><time>2026-04-25T09:45:20Z</time></trkpt><trkpt lat="43.65283533160169" lon="11.754284812049228"><ele>869.5000000000001</ele><time>2026-04-25T09:45:21Z</time></trkpt><trkpt lat="43.65290312057206" lon="11.754320138172067"><ele>869.0</ele><time>2026-04-25T09:45:22Z</time></trkpt><trkpt lat="43.65295921444571" lon="11.754501254341797"><ele>869.0</ele><time>2026-04-25T09:45:24Z</time></trkpt><trkpt lat="43.653000380573765" lon="11.754642495153226"><ele>869.0000000000001</ele><time>2026-04-25T09:45:25Z</time></trkpt><trkpt lat="43.653045516996855" lon="11.754771664607375"><ele>869.0000000000001</ele><time>2026-04-25T09:45:26Z</time></trkpt><trkpt lat="43.65303947503272" lon="11.754882379896157"><ele>869.0</ele><time>2026-04-25T09:45:27Z</time></trkpt><trkpt lat="43.65307073340977" lon="11.755060861935686"><ele>869.0</ele><time>2026-04-25T09:45:29Z</time></trkpt><trkpt lat="43.65310743677621" lon="11.755216959842032"><ele>869.8000000000001</ele><time>2026-04-25T09:45:30Z</time></trkpt><trkpt lat="43.65314796862842" lon="11.755343272196518"><ele>870.6000000000001</ele><time>2026-04-25T09:45:31Z</time></trkpt><trkpt lat="43.65320833032877" lon="11.755491702476059"><ele>871.4</ele><time>2026-04-25T09:45:32Z</time></trkpt><trkpt lat="43.65323435597184" lon="11.755586290151538"><ele>872.2</ele><time>2026-04-25T09:45:33Z</time></trkpt><trkpt lat="43.65318788226517" lon="11.75572048145852"><ele>873.0</ele><time>2026-04-25T09:45:35Z</time></trkpt><trkpt lat="43.653188492549724" lon="11.755833441566756"><ele>873.0</ele><time>2026-04-25T09:45:36Z</time></trkpt><trkpt lat="43.653178106071095" lon="11.755948871768904"><ele>873.0</ele><time>2026-04-25T09:45:37Z</time></trkpt><trkpt lat="43.653145116878285" lon="11.756056573007056"><ele>873.0</ele><time>2026-04-25T09:45:38Z</time></trkpt><trkpt lat="43.65310674407377" lon="11.756156123117767"><ele>873.0</ele><time>2026-04-25T09:45:39Z</time></trkpt><trkpt lat="43.65305815707325" lon="11.756268965955401"><ele>873.0</ele><time>2026-04-25T09:45:40Z</time></trkpt><trkpt lat="43.65302625763193" lon="11.756413218916075"><ele>871.4</ele><time>2026-04-25T09:45:41Z</time></trkpt><trkpt lat="43.65304740286401" lon="11.756504145162596"><ele>869.8</ele><time>2026-04-25T09:45:42Z</time></trkpt><trkpt lat="43.65308224734075" lon="11.756580088461842"><ele>868.2</ele><time>2026-04-25T09:45:43Z</time></trkpt><trkpt lat="43.65318867730807" lon="11.756730313915913"><ele>866.6</ele><time>2026-04-25T09:45:45Z</time></trkpt><trkpt lat="43.65323072522771" lon="11.756825553396872"><ele>865.0</ele><time>2026-04-25T09:45:46Z</time></trkpt><trkpt lat="43.653242746866596" lon="11.75694681529332"><ele>864.2</ele><time>2026-04-25T09:45:47Z</time></trkpt><trkpt lat="43.65327134876319" lon="11.757118777215663"><ele>863.4</ele><time>2026-04-25T09:45:48Z</time></trkpt><trkpt lat="43.65332237042976" lon="11.757271821800941"><ele>862.5999999999999</ele><time>2026-04-25T09:45:49Z</time></trkpt><trkpt lat="43.653384069274836" lon="11.757363484037633"><ele>861.8</ele><time>2026-04-25T09:45:50Z</time></trkpt><trkpt lat="43.65346817952983" lon="11.757419076823963"><ele>861.0</ele><time>2026-04-25T09:45:51Z</time></trkpt><trkpt lat="43.65351361229709" lon="11.757491294224709"><ele>861.0</ele><time>2026-04-25T09:45:52Z</time></trkpt><trkpt lat="43.65348282135022" lon="11.757608771426765"><ele>860.9999999999999</ele><time>2026-04-25T09:45:53Z</time></trkpt><trkpt lat="43.653466968962924" lon="11.7577277333174"><ele>860.9999999999999</ele><time>2026-04-25T09:45:54Z</time></trkpt><trkpt lat="43.65348456679206" lon="11.757877578481914"><ele>861.0</ele><time>2026-04-25T09:45:55Z</time></trkpt><trkpt lat="43.653514848269715" lon="11.758029382460519"><ele>861.0</ele><time>2026-04-25T09:45:56Z</time></trkpt><trkpt lat="43.653571049183796" lon="11.758109515549672"><ele>855.8</ele><time>2026-04-25T09:45:57Z</time></trkpt><trkpt lat="43.65364488655195" lon="11.75825221151017"><ele>850.5999999999999</ele><time>2026-04-25T09:45:58Z</time></trkpt><trkpt lat="43.653700069189526" lon="11.758382759038533"><ele>845.4</ele><time>2026-04-25T09:45:58.999Z</time></trkpt><trkpt lat="43.653792340832624" lon="11.758477917640267"><ele>840.2</ele><time>2026-04-25T09:45:59.999Z</time></trkpt><trkpt lat="43.65383932720089" lon="11.758588809298537"><ele>835.0</ele><time>2026-04-25T09:46:00.999Z</time></trkpt><trkpt lat="43.65381952223133" lon="11.758688838004128"><ele>834.6666666666666</ele><time>2026-04-25T09:46:01.999Z</time></trkpt><trkpt lat="43.653771832664766" lon="11.758815040048372"><ele>834.3333333333333</ele><time>2026-04-25T09:46:02.999Z</time></trkpt><trkpt lat="43.65378058270892" lon="11.758942484359771"><ele>834.0</ele><time>2026-04-25T09:46:03.999Z</time></trkpt><trkpt lat="43.65383837741603" lon="11.759039471341701"><ele>833.6666666666667</ele><time>2026-04-25T09:46:04.999Z</time></trkpt><trkpt lat="43.65384901365294" lon="11.759148430996595"><ele>833.3333333333334</ele><time>2026-04-25T09:46:05.999Z</time></trkpt><trkpt lat="43.65381084989563" lon="11.75924966019426"><ele>833.0</ele><time>2026-04-25T09:46:06.999Z</time></trkpt><trkpt lat="43.65379143745381" lon="11.759359487929487"><ele>830.4</ele><time>2026-04-25T09:46:07.999Z</time></trkpt><trkpt lat="43.6538045035574" lon="11.759475642432728"><ele>827.8</ele><time>2026-04-25T09:46:08.999Z</time></trkpt><trkpt lat="43.65382447736045" lon="11.759618481524603"><ele>825.2</ele><time>2026-04-25T09:46:09.999Z</time></trkpt><trkpt lat="43.65381369873" lon="11.759753679861687"><ele>822.6</ele><time>2026-04-25T09:46:10.999Z</time></trkpt><trkpt lat="43.65382849552116" lon="11.759861570956819"><ele>820.0</ele><time>2026-04-25T09:46:11.999Z</time></trkpt><trkpt lat="43.65388562704522" lon="11.759971002260135"><ele>820.0</ele><time>2026-04-25T09:46:12.999Z</time></trkpt><trkpt lat="43.65394933708183" lon="11.760096926470874"><ele>820.0</ele><time>2026-04-25T09:46:13.999Z</time></trkpt><trkpt lat="43.65400545516795" lon="11.760230144628762"><ele>820.0</ele><time>2026-04-25T09:46:14.999Z</time></trkpt><trkpt lat="43.65405977665811" lon="11.760368189677136"><ele>820.0</ele><time>2026-04-25T09:46:15.999Z</time></trkpt><trkpt lat="43.65411189048013" lon="11.760465507431414"><ele>820.0</ele><time>2026-04-25T09:46:16.999Z</time></trkpt><trkpt lat="43.654171898224995" lon="11.76056181540083"><ele>818.4999999999999</ele><time>2026-04-25T09:46:17.999Z</time></trkpt><trkpt lat="43.65422662705715" lon="11.760633276924553"><ele>817.0</ele><time>2026-04-25T09:46:19Z</time></trkpt><trkpt lat="43.65427832655851" lon="11.760733883683315"><ele>815.5</ele><time>2026-04-25T09:46:20Z</time></trkpt><trkpt lat="43.65431753486876" lon="11.760850227402479"><ele>814.0</ele><time>2026-04-25T09:46:21Z</time></trkpt><trkpt lat="43.65435333911774" lon="11.760931939614206"><ele>812.4999999999999</ele><time>2026-04-25T09:46:22Z</time></trkpt><trkpt lat="43.65440026059761" lon="11.7610064728565"><ele>811.0</ele><time>2026-04-25T09:46:23Z</time></trkpt><trkpt lat="43.6544790724832" lon="11.761158302542222"><ele>807.0</ele><time>2026-04-25T09:46:25Z</time></trkpt><trkpt lat="43.65450074510979" lon="11.761248354083248"><ele>803.0</ele><time>2026-04-25T09:46:26Z</time></trkpt><trkpt lat="43.65451330602616" lon="11.761341191629448"><ele>799.0</ele><time>2026-04-25T09:46:27Z</time></trkpt><trkpt lat="43.654549861370924" lon="11.761441755768347"><ele>795.0</ele><time>2026-04-25T09:46:28Z</time></trkpt><trkpt lat="43.65457483250954" lon="11.761541127405126"><ele>791.0</ele><time>2026-04-25T09:46:29Z</time></trkpt><trkpt lat="43.65460454258003" lon="11.761625361909667"><ele>787.0</ele><time>2026-04-25T09:46:30Z</time></trkpt><trkpt lat="43.654628736141134" lon="11.761712941064978"><ele>783.0</ele><time>2026-04-25T09:46:31Z</time></trkpt><trkpt lat="43.65465554494401" lon="11.761805692484987"><ele>781.2</ele><time>2026-04-25T09:46:32Z</time></trkpt><trkpt lat="43.65466672559667" lon="11.761902783493676"><ele>779.4</ele><time>2026-04-25T09:46:33Z</time></trkpt><trkpt lat="43.65468128959887" lon="11.761990284926794"><ele>777.6</ele><time>2026-04-25T09:46:34Z</time></trkpt><trkpt lat="43.65471328195815" lon="11.76207633663116"><ele>775.8000000000001</ele><time>2026-04-25T09:46:35Z</time></trkpt><trkpt lat="43.65480657353956" lon="11.762174714217737"><ele>774.0</ele><time>2026-04-25T09:46:37Z</time></trkpt><trkpt lat="43.65492254894754" lon="11.762272388083865"><ele>774.0</ele><time>2026-04-25T09:46:39Z</time></trkpt><trkpt lat="43.65494371778101" lon="11.762384145072902"><ele>774.0</ele><time>2026-04-25T09:46:40Z</time></trkpt><trkpt lat="43.65499668151691" lon="11.762562090395633"><ele>774.0</ele><time>2026-04-25T09:46:42Z</time></trkpt><trkpt lat="43.65506106718979" lon="11.762656689902446"><ele>774.0</ele><time>2026-04-25T09:46:43Z</time></trkpt><trkpt lat="43.65512756439228" lon="11.7627131918062"><ele>774.0</ele><time>2026-04-25T09:46:44Z</time></trkpt><trkpt lat="43.65519241747879" lon="11.762808433244686"><ele>771.8000000000001</ele><time>2026-04-25T09:46:45Z</time></trkpt><trkpt lat="43.655248286778985" lon="11.762884083952708"><ele>769.6</ele><time>2026-04-25T09:46:46Z</time></trkpt><trkpt lat="43.65529575545369" lon="11.762952668957487"><ele>767.4</ele><time>2026-04-25T09:46:47Z</time></trkpt><trkpt lat="43.655380386630554" lon="11.763080937333509"><ele>765.2</ele><time>2026-04-25T09:46:49Z</time></trkpt><trkpt lat="43.65544838113129" lon="11.76321873066916"><ele>763.0</ele><time>2026-04-25T09:46:51Z</time></trkpt><trkpt lat="43.65551601169501" lon="11.763322095666073"><ele>762.1666666666667</ele><time>2026-04-25T09:46:53Z</time></trkpt><trkpt lat="43.65555847702295" lon="11.763389264789701"><ele>761.3333333333334</ele><time>2026-04-25T09:46:54Z</time></trkpt><trkpt lat="43.65562176505243" lon="11.763476305119777"><ele>760.5</ele><time>2026-04-25T09:46:56Z</time></trkpt><trkpt lat="43.655697411668854" lon="11.763575944981673"><ele>759.6666666666666</ele><time>2026-04-25T09:46:58Z</time></trkpt><trkpt lat="43.6557692966468" lon="11.763650012054491"><ele>758.8333333333333</ele><time>2026-04-25T09:47:00Z</time></trkpt><trkpt lat="43.655856866483745" lon="11.763667214228864"><ele>758.0</ele><time>2026-04-25T09:47:02Z</time></trkpt><trkpt lat="43.655947786631565" lon="11.763695829114225"><ele>757.4</ele><time>2026-04-25T09:47:04Z</time></trkpt><trkpt lat="43.65602886319431" lon="11.763792688496276"><ele>756.8</ele><time>2026-04-25T09:47:06Z</time></trkpt><trkpt lat="43.65610497627404" lon="11.763898375670275"><ele>756.2</ele><time>2026-04-25T09:47:08Z</time></trkpt><trkpt lat="43.65619462700974" lon="11.764039809455756"><ele>755.6</ele><time>2026-04-25T09:47:10Z</time></trkpt><trkpt lat="43.65621759850145" lon="11.764131447083601"><ele>755.0</ele><time>2026-04-25T09:47:11Z</time></trkpt><trkpt lat="43.65621892905856" lon="11.764235941234997"><ele>751.8571428571428</ele><time>2026-04-25T09:47:12Z</time></trkpt><trkpt lat="43.65621065558542" lon="11.764346117015483"><ele>748.7142857142858</ele><time>2026-04-25T09:47:13Z</time></trkpt><trkpt lat="43.6562187995892" lon="11.764437530073286"><ele>745.5714285714286</ele><time>2026-04-25T09:47:13.999Z</time></trkpt><trkpt lat="43.65621178316441" lon="11.76453883649499"><ele>742.4285714285713</ele><time>2026-04-25T09:47:14.999Z</time></trkpt><trkpt lat="43.65621022901319" lon="11.764634856957935"><ele>739.2857142857142</ele><time>2026-04-25T09:47:15.999Z</time></trkpt><trkpt lat="43.656199195633555" lon="11.764737764435349"><ele>736.1428571428571</ele><time>2026-04-25T09:47:16.999Z</time></trkpt><trkpt lat="43.656198427107455" lon="11.76483011430856"><ele>733.0</ele><time>2026-04-25T09:47:17.999Z</time></trkpt><trkpt lat="43.656170500711724" lon="11.764947924650363"><ele>733.3333333333334</ele><time>2026-04-25T09:47:18.999Z</time></trkpt><trkpt lat="43.65615220165371" lon="11.76504333214916"><ele>733.6666666666667</ele><time>2026-04-25T09:47:19.999Z</time></trkpt><trkpt lat="43.65613003768" lon="11.765141319090079"><ele>734.0</ele><time>2026-04-25T09:47:20.999Z</time></trkpt><trkpt lat="43.65608036857495" lon="11.765224236188228"><ele>734.3333333333334</ele><time>2026-04-25T09:47:22.999Z</time></trkpt><trkpt lat="43.65601464809604" lon="11.765348646235784"><ele>734.6666666666666</ele><time>2026-04-25T09:47:40.999Z</time></trkpt><trkpt lat="43.65596376775567" lon="11.765441226426493"><ele>735.0</ele><time>2026-04-25T09:47:42.999Z</time></trkpt><trkpt lat="43.655940176451814" lon="11.765526273393363"><ele>735.0</ele><time>2026-04-25T09:47:43.999Z</time></trkpt><trkpt lat="43.655884623649406" lon="11.765647310906989"><ele>735.0</ele><time>2026-04-25T09:47:44.999Z</time></trkpt><trkpt lat="43.655843506468834" lon="11.765726687458582"><ele>735.0</ele><time>2026-04-25T09:47:45.999Z</time></trkpt><trkpt lat="43.6558210756493" lon="11.765833328700117"><ele>735.0</ele><time>2026-04-25T09:47:46.999Z</time></trkpt><trkpt lat="43.655834181712926" lon="11.765919341749465"><ele>735.0</ele><time>2026-04-25T09:47:47.999Z</time></trkpt><trkpt lat="43.65588389794608" lon="11.766000804077992"><ele>735.0</ele><time>2026-04-25T09:47:48.999Z</time></trkpt><trkpt lat="43.655931792444854" lon="11.766108242774727"><ele>731.4</ele><time>2026-04-25T09:47:49.999Z</time></trkpt><trkpt lat="43.655927048649446" lon="11.766224911059187"><ele>727.8</ele><time>2026-04-25T09:47:50.999Z</time></trkpt><trkpt lat="43.65594325189926" lon="11.766357085081522"><ele>724.2</ele><time>2026-04-25T09:47:51.999Z</time></trkpt><trkpt lat="43.65596742735019" lon="11.766514755630936"><ele>720.6</ele><time>2026-04-25T09:47:52.999Z</time></trkpt><trkpt lat="43.655959424208966" lon="11.766614607571963"><ele>717.0</ele><time>2026-04-25T09:47:53.999Z</time></trkpt><trkpt lat="43.65597813985378" lon="11.76672404954249"><ele>714.2</ele><time>2026-04-25T09:47:54.999Z</time></trkpt><trkpt lat="43.655996347589785" lon="11.766881388287825"><ele>711.4000000000001</ele><time>2026-04-25T09:47:56.999Z</time></trkpt><trkpt lat="43.65605891887894" lon="11.766896007288922"><ele>708.5999999999999</ele><time>2026-04-25T09:47:59.999Z</time></trkpt><trkpt lat="43.65614677804284" lon="11.766821300753536"><ele>705.8</ele><time>2026-04-25T09:48:01.999Z</time></trkpt><trkpt lat="43.656233540415954" lon="11.766791932216044"><ele>703.0</ele><time>2026-04-25T09:48:02.999Z</time></trkpt><trkpt lat="43.65629607390088" lon="11.7667056741224"><ele>703.0</ele><time>2026-04-25T09:48:03.999Z</time></trkpt><trkpt lat="43.65636214925291" lon="11.766614362785347"><ele>703.0</ele><time>2026-04-25T09:48:04.999Z</time></trkpt><trkpt lat="43.65647521489963" lon="11.766505339859025"><ele>703.0</ele><time>2026-04-25T09:48:06.999Z</time></trkpt><trkpt lat="43.65655606188859" lon="11.766379624984221"><ele>703.0</ele><time>2026-04-25T09:48:08.999Z</time></trkpt><trkpt lat="43.65660409183392" lon="11.766307581112958"><ele>703.0</ele><time>2026-04-25T09:48:09.999Z</time></trkpt><trkpt lat="43.656652214338465" lon="11.76622483192125"><ele>703.0</ele><time>2026-04-25T09:48:10.999Z</time></trkpt><trkpt lat="43.656720074993935" lon="11.766168252302768"><ele>703.0</ele><time>2026-04-25T09:48:11.999Z</time></trkpt><trkpt lat="43.65680220131872" lon="11.766143940250084"><ele>703.0</ele><time>2026-04-25T09:48:12.999Z</time></trkpt><trkpt lat="43.656885617047024" lon="11.766120701459279"><ele>703.0</ele><time>2026-04-25T09:48:13.999Z</time></trkpt><trkpt lat="43.656963886398785" lon="11.766074394055122"><ele>703.0</ele><time>2026-04-25T09:48:14.999Z</time></trkpt><trkpt lat="43.65703359228413" lon="11.766001089403487"><ele>703.0</ele><time>2026-04-25T09:48:15.999Z</time></trkpt><trkpt lat="43.65710304449645" lon="11.76592211410923"><ele>701.8</ele><time>2026-04-25T09:48:16.999Z</time></trkpt><trkpt lat="43.65719095725059" lon="11.765864842123595"><ele>700.5999999999999</ele><time>2026-04-25T09:48:17.999Z</time></trkpt><trkpt lat="43.65728601651638" lon="11.76583149207527"><ele>699.4000000000001</ele><time>2026-04-25T09:48:18.999Z</time></trkpt><trkpt lat="43.657378662695336" lon="11.765787397268689"><ele>698.2</ele><time>2026-04-25T09:48:19.999Z</time></trkpt><trkpt lat="43.657464681573494" lon="11.76572816744481"><ele>697.0</ele><time>2026-04-25T09:48:20.999Z</time></trkpt><trkpt lat="43.657547441587305" lon="11.765670062452145"><ele>697.0</ele><time>2026-04-25T09:48:21.999Z</time></trkpt><trkpt lat="43.65761550537533" lon="11.765632123443108"><ele>697.0</ele><time>2026-04-25T09:48:22.999Z</time></trkpt><trkpt lat="43.657685352871724" lon="11.76560731357171"><ele>697.0</ele><time>2026-04-25T09:48:23.999Z</time></trkpt><trkpt lat="43.657796914113334" lon="11.765585450125823"><ele>697.0</ele><time>2026-04-25T09:48:25.999Z</time></trkpt><trkpt lat="43.65789046449887" lon="11.765602971918629"><ele>697.0</ele><time>2026-04-25T09:48:28.999Z</time></trkpt><trkpt lat="43.657929626373914" lon="11.76567594100389"><ele>697.0</ele><time>2026-04-25T09:48:29.999Z</time></trkpt><trkpt lat="43.65797609471352" lon="11.76578393865323"><ele>695.8333333333334</ele><time>2026-04-25T09:48:30.999Z</time></trkpt><trkpt lat="43.6580359833079" lon="11.765892705581216"><ele>694.6666666666667</ele><time>2026-04-25T09:48:31.999Z</time></trkpt><trkpt lat="43.65808174002099" lon="11.765987055706185"><ele>693.5</ele><time>2026-04-25T09:48:32.999Z</time></trkpt><trkpt lat="43.65811242578481" lon="11.766064079454688"><ele>692.3333333333334</ele><time>2026-04-25T09:48:33.999Z</time></trkpt><trkpt lat="43.65814758953052" lon="11.766164143041234"><ele>691.1666666666666</ele><time>2026-04-25T09:48:35.999Z</time></trkpt><trkpt lat="43.65817199584549" lon="11.766265928452139"><ele>690.0</ele><time>2026-04-25T09:48:39Z</time></trkpt><trkpt lat="43.65821439377816" lon="11.766349612784369"><ele>690.0</ele><time>2026-04-25T09:48:40Z</time></trkpt><trkpt lat="43.658272470338915" lon="11.7664262738251"><ele>690.0</ele><time>2026-04-25T09:48:41Z</time></trkpt><trkpt lat="43.6583512158977" lon="11.76650273585053"><ele>690.0</ele><time>2026-04-25T09:48:42Z</time></trkpt><trkpt lat="43.65844584312753" lon="11.76654769396291"><ele>690.0</ele><time>2026-04-25T09:48:43Z</time></trkpt><trkpt lat="43.65855899393025" lon="11.7666018859938"><ele>690.0</ele><time>2026-04-25T09:48:44Z</time></trkpt><trkpt lat="43.65866583708425" lon="11.766657170503242"><ele>690.8</ele><time>2026-04-25T09:48:45Z</time></trkpt><trkpt lat="43.65878398144344" lon="11.766700410569864"><ele>691.6</ele><time>2026-04-25T09:48:46Z</time></trkpt><trkpt lat="43.65891262432762" lon="11.766740554294579"><ele>692.4000000000001</ele><time>2026-04-25T09:48:47Z</time></trkpt><trkpt lat="43.65901809736535" lon="11.766765200106617"><ele>693.2</ele><time>2026-04-25T09:48:48Z</time></trkpt><trkpt lat="43.659102120763166" lon="11.766772541678819"><ele>694.0</ele><time>2026-04-25T09:48:49Z</time></trkpt><trkpt lat="43.65917901752208" lon="11.766781345622585"><ele>694.0</ele><time>2026-04-25T09:48:50Z</time></trkpt><trkpt lat="43.65930192725893" lon="11.766818477334574"><ele>694.0</ele><time>2026-04-25T09:48:52Z</time></trkpt><trkpt lat="43.659372049012745" lon="11.76685093824411"><ele>694.0</ele><time>2026-04-25T09:48:53Z</time></trkpt><trkpt lat="43.659450458106065" lon="11.766908476394399"><ele>694.0</ele><time>2026-04-25T09:48:54Z</time></trkpt><trkpt lat="43.659546802050166" lon="11.766974561225476"><ele>694.0</ele><time>2026-04-25T09:48:55Z</time></trkpt><trkpt lat="43.659625410435225" lon="11.767053888873852"><ele>695.1428571428572</ele><time>2026-04-25T09:48:56Z</time></trkpt><trkpt lat="43.65967065558307" lon="11.767118780462294"><ele>696.2857142857142</ele><time>2026-04-25T09:48:57Z</time></trkpt><trkpt lat="43.65974679525984" lon="11.767144103708373"><ele>697.4285714285714</ele><time>2026-04-25T09:48:58Z</time></trkpt><trkpt lat="43.65981772393015" lon="11.767131759842556"><ele>698.5714285714287</ele><time>2026-04-25T09:49:00Z</time></trkpt><trkpt lat="43.65987870768312" lon="11.767209894744802"><ele>699.7142857142858</ele><time>2026-04-25T09:49:07Z</time></trkpt><trkpt lat="43.65981937627515" lon="11.767143934971571"><ele>700.8571428571429</ele><time>2026-04-25T09:49:14Z</time></trkpt><trkpt lat="43.65975836094889" lon="11.767118383567736"><ele>702.0</ele><time>2026-04-25T09:49:16Z</time></trkpt><trkpt lat="43.65972828388609" lon="11.767201452978009"><ele>702.0</ele><time>2026-04-25T09:49:21Z</time></trkpt><trkpt lat="43.659749869070694" lon="11.767289627805278"><ele>702.0</ele><time>2026-04-25T09:49:23Z</time></trkpt><trkpt lat="43.65978239954256" lon="11.767388066964326"><ele>702.0</ele><time>2026-04-25T09:49:25Z</time></trkpt><trkpt lat="43.65976469820231" lon="11.767495911998518"><ele>702.0</ele><time>2026-04-25T09:49:28Z</time></trkpt><trkpt lat="43.65970593362836" lon="11.767557084961336"><ele>702.0</ele><time>2026-04-25T09:49:30Z</time></trkpt><trkpt lat="43.65972775300487" lon="11.767658387903108"><ele>702.0</ele><time>2026-04-25T09:49:35Z</time></trkpt><trkpt lat="43.65982853768772" lon="11.767757505047035"><ele>701.2</ele><time>2026-04-25T09:49:36.999Z</time></trkpt><trkpt lat="43.659898962893855" lon="11.767801103374632"><ele>700.4000000000001</ele><time>2026-04-25T09:49:37.999Z</time></trkpt><trkpt lat="43.65994565932362" lon="11.767873182831087"><ele>699.5999999999999</ele><time>2026-04-25T09:49:38.999Z</time></trkpt><trkpt lat="43.660010302678515" lon="11.768022267365554"><ele>698.8</ele><time>2026-04-25T09:49:40.999Z</time></trkpt><trkpt lat="43.66006721808527" lon="11.768107212612453"><ele>698.0</ele><time>2026-04-25T09:49:41.999Z</time></trkpt><trkpt lat="43.66013403888852" lon="11.76819948809287"><ele>698.0</ele><time>2026-04-25T09:49:42.999Z</time></trkpt><trkpt lat="43.66019037590331" lon="11.768292079234826"><ele>698.0</ele><time>2026-04-25T09:49:43.999Z</time></trkpt><trkpt lat="43.660255555718635" lon="11.768357769731582"><ele>698.0</ele><time>2026-04-25T09:49:44.999Z</time></trkpt><trkpt lat="43.660336113671356" lon="11.768411953420392"><ele>698.0</ele><time>2026-04-25T09:49:45.999Z</time></trkpt><trkpt lat="43.66042349856993" lon="11.768483931981"><ele>698.0</ele><time>2026-04-25T09:49:46.999Z</time></trkpt><trkpt lat="43.66052313778537" lon="11.768539388116674"><ele>699.1666666666666</ele><time>2026-04-25T09:49:47.999Z</time></trkpt><trkpt lat="43.66060138850336" lon="11.768606471494454"><ele>700.3333333333333</ele><time>2026-04-25T09:49:48.999Z</time></trkpt><trkpt lat="43.66067424350085" lon="11.768657522344142"><ele>701.5</ele><time>2026-04-25T09:49:49.999Z</time></trkpt><trkpt lat="43.66075229587833" lon="11.768689257587628"><ele>702.6666666666666</ele><time>2026-04-25T09:49:50.999Z</time></trkpt><trkpt lat="43.66082137673552" lon="11.768720958813205"><ele>703.8333333333334</ele><time>2026-04-25T09:49:51.999Z</time></trkpt><trkpt lat="43.66090338779282" lon="11.768762920840592"><ele>705.0</ele><time>2026-04-25T09:49:52.999Z</time></trkpt><trkpt lat="43.66100391690548" lon="11.768801872297095"><ele>705.0</ele><time>2026-04-25T09:49:53.999Z</time></trkpt><trkpt lat="43.66109258287559" lon="11.768826348857676"><ele>705.0</ele><time>2026-04-25T09:49:54.999Z</time></trkpt><trkpt lat="43.66118368068457" lon="11.768835781945775"><ele>705.0</ele><time>2026-04-25T09:49:55.999Z</time></trkpt><trkpt lat="43.661280523738476" lon="11.76880167627668"><ele>705.0</ele><time>2026-04-25T09:49:56.999Z</time></trkpt><trkpt lat="43.661356754858396" lon="11.768751498093717"><ele>705.0</ele><time>2026-04-25T09:49:57.999Z</time></trkpt><trkpt lat="43.66147350460484" lon="11.768764413417808"><ele>705.25</ele><time>2026-04-25T09:49:58.999Z</time></trkpt><trkpt lat="43.66157459617415" lon="11.768819249586866"><ele>705.5</ele><time>2026-04-25T09:49:59.999Z</time></trkpt><trkpt lat="43.66168626538851" lon="11.768891838597005"><ele>705.75</ele><time>2026-04-25T09:50:00.999Z</time></trkpt><trkpt lat="43.66180173272478" lon="11.768946898039015"><ele>706.0</ele><time>2026-04-25T09:50:01.999Z</time></trkpt><trkpt lat="43.661918700030874" lon="11.769012273889999"><ele>707.8333333333334</ele><time>2026-04-25T09:50:02.999Z</time></trkpt><trkpt lat="43.6619944280736" lon="11.769096556585447"><ele>709.6666666666667</ele><time>2026-04-25T09:50:03.999Z</time></trkpt><trkpt lat="43.66203075351915" lon="11.769200596945733"><ele>711.5</ele><time>2026-04-25T09:50:04.999Z</time></trkpt><trkpt lat="43.662024514406404" lon="11.769307844458325"><ele>713.3333333333334</ele><time>2026-04-25T09:50:05.999Z</time></trkpt><trkpt lat="43.661996339271184" lon="11.769422905394556"><ele>715.1666666666666</ele><time>2026-04-25T09:50:06.999Z</time></trkpt><trkpt lat="43.66197027435868" lon="11.76954157910439"><ele>717.0</ele><time>2026-04-25T09:50:07.999Z</time></trkpt><trkpt lat="43.66200707319935" lon="11.769653996205427"><ele>717.0</ele><time>2026-04-25T09:50:08.999Z</time></trkpt><trkpt lat="43.66207504424145" lon="11.769747923266081"><ele>717.0</ele><time>2026-04-25T09:50:09.999Z</time></trkpt><trkpt lat="43.66212748253302" lon="11.769856478058054"><ele>717.0</ele><time>2026-04-25T09:50:10.999Z</time></trkpt><trkpt lat="43.66220629508423" lon="11.769967827848424"><ele>717.0</ele><time>2026-04-25T09:50:11.999Z</time></trkpt><trkpt lat="43.66231386211961" lon="11.77008980449801"><ele>717.0</ele><time>2026-04-25T09:50:12.999Z</time></trkpt><trkpt lat="43.662390389939254" lon="11.770206978988103"><ele>715.4000000000001</ele><time>2026-04-25T09:50:13.999Z</time></trkpt><trkpt lat="43.66247052117667" lon="11.770269676756648"><ele>713.8000000000001</ele><time>2026-04-25T09:50:14.999Z</time></trkpt><trkpt lat="43.662553550243885" lon="11.770324588705476"><ele>712.2</ele><time>2026-04-25T09:50:15.999Z</time></trkpt><trkpt lat="43.66263080497987" lon="11.770374951426282"><ele>710.6</ele><time>2026-04-25T09:50:16.999Z</time></trkpt><trkpt lat="43.66257255193411" lon="11.770535092063579"><ele>709.0</ele><time>2026-04-25T09:50:18.999Z</time></trkpt><trkpt lat="43.66251962154265" lon="11.770638235656664"><ele>709.0</ele><time>2026-04-25T09:50:19.999Z</time></trkpt><trkpt lat="43.66253298011162" lon="11.770743872429348"><ele>709.0</ele><time>2026-04-25T09:50:20.999Z</time></trkpt><trkpt lat="43.66258223223781" lon="11.770869948065735"><ele>709.0</ele><time>2026-04-25T09:50:21.999Z</time></trkpt><trkpt lat="43.662635496921276" lon="11.771014895942864"><ele>709.0</ele><time>2026-04-25T09:50:22.999Z</time></trkpt><trkpt lat="43.66266333197819" lon="11.77115708212971"><ele>709.0</ele><time>2026-04-25T09:50:23.999Z</time></trkpt><trkpt lat="43.66271836578817" lon="11.77132261881134"><ele>708.25</ele><time>2026-04-25T09:50:24.999Z</time></trkpt><trkpt lat="43.66275003670248" lon="11.771472366326057"><ele>707.5</ele><time>2026-04-25T09:50:25.999Z</time></trkpt><trkpt lat="43.662765091927945" lon="11.771623735917514"><ele>706.75</ele><time>2026-04-25T09:50:26.999Z</time></trkpt><trkpt lat="43.662775780330755" lon="11.771778825051134"><ele>706.0</ele><time>2026-04-25T09:50:27.999Z</time></trkpt><trkpt lat="43.66279158330628" lon="11.771937101715492"><ele>713.0</ele><time>2026-04-25T09:50:28.999Z</time></trkpt><trkpt lat="43.66282343169497" lon="11.77211475030851"><ele>720.0</ele><time>2026-04-25T09:50:29.999Z</time></trkpt><trkpt lat="43.66285267018621" lon="11.77228488086708"><ele>727.0</ele><time>2026-04-25T09:50:30.999Z</time></trkpt><trkpt lat="43.66287414709803" lon="11.772460759757843"><ele>734.0</ele><time>2026-04-25T09:50:31.999Z</time></trkpt><trkpt lat="43.6628906872676" lon="11.772603674479369"><ele>732.8000000000001</ele><time>2026-04-25T09:50:32.999Z</time></trkpt><trkpt lat="43.662937308509555" lon="11.772746862263691"><ele>731.6</ele><time>2026-04-25T09:50:33.999Z</time></trkpt><trkpt lat="43.662981868613" lon="11.77288245519494"><ele>730.4</ele><time>2026-04-25T09:50:34.999Z</time></trkpt><trkpt lat="43.6630466933201" lon="11.77300312515933"><ele>729.2</ele><time>2026-04-25T09:50:35.999Z</time></trkpt><trkpt lat="43.66311947814617" lon="11.773120029660255"><ele>728.0</ele><time>2026-04-25T09:50:36.999Z</time></trkpt><trkpt lat="43.66317680273684" lon="11.773241196193979"><ele>728.0</ele><time>2026-04-25T09:50:37.999Z</time></trkpt><trkpt lat="43.66321732972692" lon="11.773386503152498"><ele>728.0</ele><time>2026-04-25T09:50:38.999Z</time></trkpt><trkpt lat="43.66325724799162" lon="11.773509132064918"><ele>728.0</ele><time>2026-04-25T09:50:39.999Z</time></trkpt><trkpt lat="43.66328167182541" lon="11.773662126531521"><ele>728.0</ele><time>2026-04-25T09:50:40.999Z</time></trkpt><trkpt lat="43.66332286218094" lon="11.773830061997671"><ele>726.0</ele><time>2026-04-25T09:50:41.999Z</time></trkpt><trkpt lat="43.66337821954524" lon="11.773980258325528"><ele>724.0</ele><time>2026-04-25T09:50:42.999Z</time></trkpt><trkpt lat="43.663420184445904" lon="11.774121433714726"><ele>722.0</ele><time>2026-04-25T09:50:43.999Z</time></trkpt><trkpt lat="43.66345578969898" lon="11.774231704612372"><ele>720.0</ele><time>2026-04-25T09:50:44.999Z</time></trkpt><trkpt lat="43.663483567065974" lon="11.774333579176965"><ele>718.0</ele><time>2026-04-25T09:50:45.999Z</time></trkpt><trkpt lat="43.66353778474103" lon="11.77441084446645"><ele>719.5</ele><time>2026-04-25T09:50:47Z</time></trkpt><trkpt lat="43.66363036549159" lon="11.774519885916636"><ele>721.0</ele><time>2026-04-25T09:50:48Z</time></trkpt><trkpt lat="43.663726931500534" lon="11.774607369593426"><ele>722.5</ele><time>2026-04-25T09:50:49Z</time></trkpt><trkpt lat="43.66383502737595" lon="11.774694005149874"><ele>724.0</ele><time>2026-04-25T09:50:50Z</time></trkpt><trkpt lat="43.66394568639613" lon="11.774780362602282"><ele>724.0</ele><time>2026-04-25T09:50:51Z</time></trkpt><trkpt lat="43.66406146519107" lon="11.774867629094171"><ele>724.0</ele><time>2026-04-25T09:50:52Z</time></trkpt><trkpt lat="43.66417400098264" lon="11.774956138111806"><ele>724.0</ele><time>2026-04-25T09:50:53Z</time></trkpt><trkpt lat="43.66425530869484" lon="11.775059680762883"><ele>724.0</ele><time>2026-04-25T09:50:54Z</time></trkpt><trkpt lat="43.66430132301746" lon="11.775170422300844"><ele>723.1666666666667</ele><time>2026-04-25T09:50:55Z</time></trkpt><trkpt lat="43.664309651384706" lon="11.775273517816183"><ele>722.3333333333334</ele><time>2026-04-25T09:50:56Z</time></trkpt><trkpt lat="43.66430605356945" lon="11.77538243962176"><ele>721.5</ele><time>2026-04-25T09:50:57Z</time></trkpt><trkpt lat="43.66432063392824" lon="11.77548613607075"><ele>720.6666666666666</ele><time>2026-04-25T09:50:58Z</time></trkpt><trkpt lat="43.664364861318674" lon="11.775572360266496"><ele>719.8333333333333</ele><time>2026-04-25T09:50:59Z</time></trkpt><trkpt lat="43.66443515837841" lon="11.775626519962264"><ele>719.0</ele><time>2026-04-25T09:51:00Z</time></trkpt><trkpt lat="43.66449922926961" lon="11.775602449551307"><ele>718.4000000000001</ele><time>2026-04-25T09:51:01Z</time></trkpt><trkpt lat="43.66460070963575" lon="11.775551024717565"><ele>717.8</ele><time>2026-04-25T09:51:02Z</time></trkpt><trkpt lat="43.664718474601074" lon="11.775530470079575"><ele>717.2</ele><time>2026-04-25T09:51:03Z</time></trkpt><trkpt lat="43.66481149759197" lon="11.775535887331909"><ele>716.5999999999999</ele><time>2026-04-25T09:51:04Z</time></trkpt><trkpt lat="43.6648885661126" lon="11.77555431310542"><ele>716.0</ele><time>2026-04-25T09:51:05Z</time></trkpt><trkpt lat="43.664971968652075" lon="11.77558573794213"><ele>716.0</ele><time>2026-04-25T09:51:06Z</time></trkpt><trkpt lat="43.66505276879686" lon="11.775661646024659"><ele>716.0</ele><time>2026-04-25T09:51:07Z</time></trkpt><trkpt lat="43.66515091841406" lon="11.77576068088677"><ele>716.0</ele><time>2026-04-25T09:51:08Z</time></trkpt><trkpt lat="43.665257818813224" lon="11.77579300877653"><ele>716.0</ele><time>2026-04-25T09:51:09Z</time></trkpt><trkpt lat="43.665336019053875" lon="11.775823292135634"><ele>716.0</ele><time>2026-04-25T09:51:10Z</time></trkpt><trkpt lat="43.66541052800677" lon="11.775847703306395"><ele>716.0</ele><time>2026-04-25T09:51:11Z</time></trkpt><trkpt lat="43.66550508211186" lon="11.77585935051696"><ele>716.0</ele><time>2026-04-25T09:51:12Z</time></trkpt><trkpt lat="43.665555809117066" lon="11.77593558725691"><ele>716.0</ele><time>2026-04-25T09:51:13Z</time></trkpt><trkpt lat="43.66558370027092" lon="11.776033121301126"><ele>716.0</ele><time>2026-04-25T09:51:14Z</time></trkpt><trkpt lat="43.665613116795996" lon="11.77618342487512"><ele>716.0</ele><time>2026-04-25T09:51:16Z</time></trkpt><trkpt lat="43.66563795368705" lon="11.776281064300996"><ele>716.0</ele><time>2026-04-25T09:51:17Z</time></trkpt><trkpt lat="43.66566392959197" lon="11.776383390458893"><ele>714.0</ele><time>2026-04-25T09:51:18Z</time></trkpt><trkpt lat="43.66570958684264" lon="11.776512103381906"><ele>712.0</ele><time>2026-04-25T09:51:19Z</time></trkpt><trkpt lat="43.66577522766521" lon="11.776635442647105"><ele>710.0</ele><time>2026-04-25T09:51:20Z</time></trkpt><trkpt lat="43.665844895881435" lon="11.77675805604562"><ele>708.0</ele><time>2026-04-25T09:51:21Z</time></trkpt><trkpt lat="43.66590746555751" lon="11.776845508710602"><ele>706.0</ele><time>2026-04-25T09:51:22Z</time></trkpt><trkpt lat="43.66599959026478" lon="11.776968568537475"><ele>705.4</ele><time>2026-04-25T09:51:23Z</time></trkpt><trkpt lat="43.6660776433565" lon="11.777074034318451"><ele>704.8</ele><time>2026-04-25T09:51:24Z</time></trkpt><trkpt lat="43.66611414867286" lon="11.777180547764104"><ele>704.1999999999999</ele><time>2026-04-25T09:51:25Z</time></trkpt><trkpt lat="43.666177242168374" lon="11.77729690470027"><ele>703.5999999999999</ele><time>2026-04-25T09:51:26Z</time></trkpt><trkpt lat="43.666266495824196" lon="11.77739292331666"><ele>703.0</ele><time>2026-04-25T09:51:27Z</time></trkpt><trkpt lat="43.6663430110321" lon="11.777454776382045"><ele>703.0</ele><time>2026-04-25T09:51:28Z</time></trkpt><trkpt lat="43.66640058378323" lon="11.777522178708972"><ele>703.0</ele><time>2026-04-25T09:51:29Z</time></trkpt><trkpt lat="43.666457752729656" lon="11.777624091914861"><ele>703.0</ele><time>2026-04-25T09:51:30Z</time></trkpt><trkpt lat="43.66653625477767" lon="11.777729780893019"><ele>703.0</ele><time>2026-04-25T09:51:31Z</time></trkpt><trkpt lat="43.66659315638911" lon="11.777804346052129"><ele>703.0</ele><time>2026-04-25T09:51:32Z</time></trkpt><trkpt lat="43.66663642288741" lon="11.77786770277068"><ele>703.0</ele><time>2026-04-25T09:51:33Z</time></trkpt><trkpt lat="43.66670666177605" lon="11.777918111179515"><ele>700.1666666666667</ele><time>2026-04-25T09:51:34Z</time></trkpt><trkpt lat="43.66678300256078" lon="11.777960079178769"><ele>697.3333333333334</ele><time>2026-04-25T09:51:35Z</time></trkpt><trkpt lat="43.6668692545579" lon="11.777970344381066"><ele>694.5</ele><time>2026-04-25T09:51:36Z</time></trkpt><trkpt lat="43.66696547976093" lon="11.778023974756413"><ele>691.6666666666666</ele><time>2026-04-25T09:51:37Z</time></trkpt><trkpt lat="43.66703336617797" lon="11.778054488761859"><ele>688.8333333333333</ele><time>2026-04-25T09:51:38Z</time></trkpt><trkpt lat="43.66710412395922" lon="11.77810363060885"><ele>686.0</ele><time>2026-04-25T09:51:39Z</time></trkpt><trkpt lat="43.66715676466821" lon="11.778173693981472"><ele>686.0</ele><time>2026-04-25T09:51:40Z</time></trkpt><trkpt lat="43.66723338013595" lon="11.778191767033109"><ele>686.0</ele><time>2026-04-25T09:51:41Z</time></trkpt><trkpt lat="43.66734281146155" lon="11.778190548502371"><ele>686.0</ele><time>2026-04-25T09:51:42Z</time></trkpt><trkpt lat="43.66744565192925" lon="11.778226413200601"><ele>686.0</ele><time>2026-04-25T09:51:43Z</time></trkpt><trkpt lat="43.667511365745185" lon="11.778281353951167"><ele>686.0</ele><time>2026-04-25T09:51:44Z</time></trkpt><trkpt lat="43.66754734792355" lon="11.778362860373328"><ele>686.0</ele><time>2026-04-25T09:51:45Z</time></trkpt><trkpt lat="43.667587665492675" lon="11.77849824060746"><ele>684.0</ele><time>2026-04-25T09:51:46Z</time></trkpt><trkpt lat="43.66761720028149" lon="11.778639539071893"><ele>682.0</ele><time>2026-04-25T09:51:47Z</time></trkpt><trkpt lat="43.66766411669513" lon="11.778789475938696"><ele>680.0</ele><time>2026-04-25T09:51:48Z</time></trkpt><trkpt lat="43.66771001692944" lon="11.778934652772916"><ele>678.0</ele><time>2026-04-25T09:51:49Z</time></trkpt><trkpt lat="43.66774599472018" lon="11.77904818380155"><ele>676.0</ele><time>2026-04-25T09:51:51Z</time></trkpt><trkpt lat="43.66782549794587" lon="11.779086742920851"><ele>676.0</ele><time>2026-04-25T09:51:56Z</time></trkpt><trkpt lat="43.667882525696996" lon="11.779136272932162"><ele>676.0</ele><time>2026-04-25T09:51:59Z</time></trkpt><trkpt lat="43.667801648374784" lon="11.77904964146976"><ele>676.0</ele><time>2026-04-25T09:55:21Z</time></trkpt><trkpt lat="43.667740517087964" lon="11.779017208271114"><ele>676.0</ele><time>2026-04-25T09:55:23Z</time></trkpt><trkpt lat="43.66774976458705" lon="11.779106114701264"><ele>676.0</ele><time>2026-04-25T09:55:27Z</time></trkpt><trkpt lat="43.66777356086638" lon="11.779253686670764"><ele>676.0</ele><time>2026-04-25T09:55:30Z</time></trkpt><trkpt lat="43.66778705247996" lon="11.779356878426244"><ele>676.5999999999999</ele><time>2026-04-25T09:55:31Z</time></trkpt><trkpt lat="43.667817175289116" lon="11.779451228989549"><ele>677.2</ele><time>2026-04-25T09:55:33Z</time></trkpt><trkpt lat="43.66791163007898" lon="11.779567432721336"><ele>677.8</ele><time>2026-04-25T09:55:35Z</time></trkpt><trkpt lat="43.66795923492632" lon="11.779661579892704"><ele>678.4000000000001</ele><time>2026-04-25T09:55:37Z</time></trkpt><trkpt lat="43.6679943735566" lon="11.779807971937968"><ele>679.0</ele><time>2026-04-25T09:55:39Z</time></trkpt><trkpt lat="43.668012136576735" lon="11.779957197255579"><ele>679.0</ele><time>2026-04-25T09:55:41Z</time></trkpt><trkpt lat="43.668064728599916" lon="11.780078805624642"><ele>679.0</ele><time>2026-04-25T09:55:42Z</time></trkpt><trkpt lat="43.66808465435269" lon="11.780161712285361"><ele>679.0</ele><time>2026-04-25T09:55:43Z</time></trkpt><trkpt lat="43.668092140383834" lon="11.780284405026752"><ele>679.0</ele><time>2026-04-25T09:55:46Z</time></trkpt><trkpt lat="43.66809665723943" lon="11.780392170023559"><ele>679.0</ele><time>2026-04-25T09:55:49Z</time></trkpt><trkpt lat="43.66809774372248" lon="11.780518160161627"><ele>679.0</ele><time>2026-04-25T09:55:51Z</time></trkpt><trkpt lat="43.66812954420534" lon="11.780621608051291"><ele>679.6</ele><time>2026-04-25T09:55:53Z</time></trkpt><trkpt lat="43.66811997684791" lon="11.780779988619303"><ele>680.2</ele><time>2026-04-25T09:55:55Z</time></trkpt><trkpt lat="43.6681249515523" lon="11.780903006268947"><ele>680.8000000000001</ele><time>2026-04-25T09:55:57Z</time></trkpt><trkpt lat="43.66812879101519" lon="11.781022497568342"><ele>681.4000000000001</ele><time>2026-04-25T09:55:59Z</time></trkpt><trkpt lat="43.668142604957495" lon="11.781144681431229"><ele>682.0</ele><time>2026-04-25T09:56:01Z</time></trkpt><trkpt lat="43.66810747903798" lon="11.781231089325573"><ele>680.8</ele><time>2026-04-25T09:56:03Z</time></trkpt><trkpt lat="43.66811537108714" lon="11.78139374229691"><ele>679.6</ele><time>2026-04-25T09:56:05Z</time></trkpt><trkpt lat="43.66811478932442" lon="11.781507282137358"><ele>678.4</ele><time>2026-04-25T09:56:06Z</time></trkpt><trkpt lat="43.66809500714219" lon="11.781654316097129"><ele>677.1999999999999</ele><time>2026-04-25T09:56:07Z</time></trkpt><trkpt lat="43.66809242545467" lon="11.78176362800153"><ele>676.0</ele><time>2026-04-25T09:56:08Z</time></trkpt><trkpt lat="43.66811534220742" lon="11.781847013977396"><ele>674.6666666666667</ele><time>2026-04-25T09:56:09Z</time></trkpt><trkpt lat="43.66814315752587" lon="11.781933097900543"><ele>673.3333333333334</ele><time>2026-04-25T09:56:10Z</time></trkpt><trkpt lat="43.668163618018774" lon="11.782036592272433"><ele>672.0</ele><time>2026-04-25T09:56:11Z</time></trkpt><trkpt lat="43.66814337380238" lon="11.782134614947008"><ele>670.6666666666666</ele><time>2026-04-25T09:56:12Z</time></trkpt><trkpt lat="43.66812621739748" lon="11.782238557773447"><ele>669.3333333333333</ele><time>2026-04-25T09:56:13Z</time></trkpt><trkpt lat="43.66814413156138" lon="11.782346903096528"><ele>668.0</ele><time>2026-04-25T09:56:14Z</time></trkpt><trkpt lat="43.66814164685861" lon="11.782473374947667"><ele>668.0</ele><time>2026-04-25T09:56:15Z</time></trkpt><trkpt lat="43.66811216179383" lon="11.782573532628692"><ele>668.0</ele><time>2026-04-25T09:56:16Z</time></trkpt><trkpt lat="43.668081934478934" lon="11.782676029588712"><ele>668.0</ele><time>2026-04-25T09:56:17Z</time></trkpt><trkpt lat="43.66806693092243" lon="11.78277757766974"><ele>668.0</ele><time>2026-04-25T09:56:18Z</time></trkpt><trkpt lat="43.66809629933608" lon="11.782944176156041"><ele>668.0</ele><time>2026-04-25T09:56:20Z</time></trkpt><trkpt lat="43.668101420565016" lon="11.783041951739625"><ele>668.0</ele><time>2026-04-25T09:56:21Z</time></trkpt><trkpt lat="43.668120554605956" lon="11.783176155481963"><ele>667.1666666666666</ele><time>2026-04-25T09:56:23Z</time></trkpt><trkpt lat="43.6681672728266" lon="11.783249871036354"><ele>666.3333333333333</ele><time>2026-04-25T09:56:24Z</time></trkpt><trkpt lat="43.66817777304995" lon="11.783341341751592"><ele>665.5</ele><time>2026-04-25T09:56:25Z</time></trkpt><trkpt lat="43.66817800528614" lon="11.78343511405702"><ele>664.6666666666666</ele><time>2026-04-25T09:56:26Z</time></trkpt><trkpt lat="43.66819785470903" lon="11.78352791380516"><ele>663.8333333333334</ele><time>2026-04-25T09:56:27Z</time></trkpt><trkpt lat="43.66821174874949" lon="11.783672585519259"><ele>663.0</ele><time>2026-04-25T09:56:29Z</time></trkpt><trkpt lat="43.66819098993157" lon="11.783796406073701"><ele>662.5999999999999</ele><time>2026-04-25T09:56:31Z</time></trkpt><trkpt lat="43.66816397393817" lon="11.783897555466648"><ele>662.1999999999999</ele><time>2026-04-25T09:56:33Z</time></trkpt><trkpt lat="43.66807961669395" lon="11.783998257900162"><ele>661.8</ele><time>2026-04-25T09:56:55Z</time></trkpt><trkpt lat="43.66801082627682" lon="11.784067822735357"><ele>661.4</ele><time>2026-04-25T09:56:57Z</time></trkpt><trkpt lat="43.667954675640516" lon="11.784199476521835"><ele>661.0</ele><time>2026-04-25T09:56:59Z</time></trkpt><trkpt lat="43.66790789315504" lon="11.784315805544459"><ele>661.8</ele><time>2026-04-25T09:57:00Z</time></trkpt><trkpt lat="43.66785374604492" lon="11.784476239737472"><ele>662.5999999999999</ele><time>2026-04-25T09:57:01Z</time></trkpt><trkpt lat="43.66779713381725" lon="11.784606097693404"><ele>663.4</ele><time>2026-04-25T09:57:02Z</time></trkpt><trkpt lat="43.66775532780098" lon="11.78470774344719"><ele>664.2</ele><time>2026-04-25T09:57:03Z</time></trkpt><trkpt lat="43.66773051428247" lon="11.784819130821951"><ele>665.0</ele><time>2026-04-25T09:57:04Z</time></trkpt><trkpt lat="43.66771749791561" lon="11.78493396075902"><ele>665.3333333333333</ele><time>2026-04-25T09:57:05Z</time></trkpt><trkpt lat="43.6677416065337" lon="11.785057527189327"><ele>665.6666666666666</ele><time>2026-04-25T09:57:06Z</time></trkpt><trkpt lat="43.66776083578464" lon="11.785168439521962"><ele>666.0</ele><time>2026-04-25T09:57:07Z</time></trkpt><trkpt lat="43.66779903462495" lon="11.785266319017662"><ele>666.3333333333334</ele><time>2026-04-25T09:57:08Z</time></trkpt><trkpt lat="43.66782278277982" lon="11.785365002714027"><ele>666.6666666666667</ele><time>2026-04-25T09:57:09Z</time></trkpt><trkpt lat="43.66783457095549" lon="11.785493406699773"><ele>667.0</ele><time>2026-04-25T09:57:10Z</time></trkpt><trkpt lat="43.66783707585103" lon="11.785614640293891"><ele>667.0</ele><time>2026-04-25T09:57:11Z</time></trkpt><trkpt lat="43.66782326701499" lon="11.78571794630041"><ele>667.0</ele><time>2026-04-25T09:57:12Z</time></trkpt><trkpt lat="43.66777978455378" lon="11.785797020958556"><ele>667.0</ele><time>2026-04-25T09:57:13Z</time></trkpt><trkpt lat="43.667730772333314" lon="11.785904813285917"><ele>667.0</ele><time>2026-04-25T09:57:14Z</time></trkpt><trkpt lat="43.66768931344727" lon="11.78601016533495"><ele>667.0</ele><time>2026-04-25T09:57:15Z</time></trkpt><trkpt lat="43.66765388466088" lon="11.786132283836743"><ele>667.0</ele><time>2026-04-25T09:57:16Z</time></trkpt><trkpt lat="43.66763271984914" lon="11.78627424873528"><ele>662.0</ele><time>2026-04-25T09:57:17Z</time></trkpt><trkpt lat="43.66761981414623" lon="11.786412647894759"><ele>657.0</ele><time>2026-04-25T09:57:18Z</time></trkpt><trkpt lat="43.66760198173238" lon="11.78654998962784"><ele>652.0</ele><time>2026-04-25T09:57:19Z</time></trkpt><trkpt lat="43.66758958206365" lon="11.786669509386059"><ele>647.0</ele><time>2026-04-25T09:57:20Z</time></trkpt><trkpt lat="43.66758021735391" lon="11.78682240059812"><ele>642.0</ele><time>2026-04-25T09:57:21Z</time></trkpt><trkpt lat="43.667563481417" lon="11.78693504281967"><ele>642.0</ele><time>2026-04-25T09:57:22Z</time></trkpt><trkpt lat="43.66752968271572" lon="11.78701758787234"><ele>642.0</ele><time>2026-04-25T09:57:23Z</time></trkpt><trkpt lat="43.667482800900096" lon="11.787097332888642"><ele>642.0</ele><time>2026-04-25T09:57:24Z</time></trkpt><trkpt lat="43.66740861826599" lon="11.7871883715424"><ele>642.0</ele><time>2026-04-25T09:57:25Z</time></trkpt><trkpt lat="43.66733850831012" lon="11.787271532434685"><ele>642.0</ele><time>2026-04-25T09:57:26Z</time></trkpt><trkpt lat="43.667267763561725" lon="11.787360068293514"><ele>642.0</ele><time>2026-04-25T09:57:27Z</time></trkpt><trkpt lat="43.6671848628163" lon="11.78743276662005"><ele>642.0</ele><time>2026-04-25T09:57:28Z</time></trkpt><trkpt lat="43.66710582459672" lon="11.78750516156663"><ele>642.0</ele><time>2026-04-25T09:57:29Z</time></trkpt><trkpt lat="43.66701744737552" lon="11.787613043974819"><ele>642.0</ele><time>2026-04-25T09:57:30Z</time></trkpt><trkpt lat="43.66695544227831" lon="11.787734590781223"><ele>642.0</ele><time>2026-04-25T09:57:31Z</time></trkpt><trkpt lat="43.66690164762658" lon="11.787861718612316"><ele>642.0</ele><time>2026-04-25T09:57:32Z</time></trkpt><trkpt lat="43.66682745494097" lon="11.787936000690676"><ele>637.4</ele><time>2026-04-25T09:57:33Z</time></trkpt><trkpt lat="43.666735328797216" lon="11.787971767336511"><ele>632.8000000000001</ele><time>2026-04-25T09:57:34Z</time></trkpt><trkpt lat="43.66664815397236" lon="11.78801086319056"><ele>628.2</ele><time>2026-04-25T09:57:35Z</time></trkpt><trkpt lat="43.666582177256586" lon="11.788052184341646"><ele>623.6</ele><time>2026-04-25T09:57:36Z</time></trkpt><trkpt lat="43.66645247715883" lon="11.787989506953746"><ele>619.0</ele><time>2026-04-25T09:57:38Z</time></trkpt><trkpt lat="43.66641248977886" lon="11.78789040372983"><ele>619.0</ele><time>2026-04-25T09:57:39Z</time></trkpt><trkpt lat="43.66637146569516" lon="11.787751369869754"><ele>619.0</ele><time>2026-04-25T09:57:40Z</time></trkpt><trkpt lat="43.666306895053076" lon="11.787613526196155"><ele>619.0</ele><time>2026-04-25T09:57:41Z</time></trkpt><trkpt lat="43.6662602994872" lon="11.787478204418255"><ele>619.0</ele><time>2026-04-25T09:57:42Z</time></trkpt><trkpt lat="43.666227701340794" lon="11.787341789949963"><ele>619.0</ele><time>2026-04-25T09:57:43Z</time></trkpt><trkpt lat="43.66616691852504" lon="11.787206594174174"><ele>613.2</ele><time>2026-04-25T09:57:44Z</time></trkpt><trkpt lat="43.66609443030908" lon="11.787104923936038"><ele>607.4</ele><time>2026-04-25T09:57:45Z</time></trkpt><trkpt lat="43.666026916010864" lon="11.7870318588692"><ele>601.6</ele><time>2026-04-25T09:57:46Z</time></trkpt><trkpt lat="43.66594144272127" lon="11.787013764085847"><ele>595.8</ele><time>2026-04-25T09:57:47Z</time></trkpt><trkpt lat="43.66583870157758" lon="11.787002498690411"><ele>590.0</ele><time>2026-04-25T09:57:48Z</time></trkpt><trkpt lat="43.66574898118145" lon="11.786961882404965"><ele>590.0</ele><time>2026-04-25T09:57:49Z</time></trkpt><trkpt lat="43.665675062560425" lon="11.786862909005386"><ele>590.0</ele><time>2026-04-25T09:57:50Z</time></trkpt><trkpt lat="43.66559158733412" lon="11.786766056266224"><ele>590.0</ele><time>2026-04-25T09:57:51Z</time></trkpt><trkpt lat="43.6655156189244" lon="11.786645958377871"><ele>590.0</ele><time>2026-04-25T09:57:52Z</time></trkpt><trkpt lat="43.66545459590767" lon="11.786527878643321"><ele>590.0</ele><time>2026-04-25T09:57:53Z</time></trkpt><trkpt lat="43.6654109619007" lon="11.786432614549764"><ele>589.8</ele><time>2026-04-25T09:57:54Z</time></trkpt><trkpt lat="43.665377423252686" lon="11.786331654444977"><ele>589.6</ele><time>2026-04-25T09:57:55Z</time></trkpt><trkpt lat="43.66533434999708" lon="11.786205932082357"><ele>589.4</ele><time>2026-04-25T09:57:56Z</time></trkpt><trkpt lat="43.66526303854029" lon="11.78606293062062"><ele>589.2</ele><time>2026-04-25T09:57:57Z</time></trkpt><trkpt lat="43.66516212713435" lon="11.785945337927622"><ele>589.0</ele><time>2026-04-25T09:57:58Z</time></trkpt><trkpt lat="43.665076099351054" lon="11.785869086390775"><ele>589.0</ele><time>2026-04-25T09:57:59Z</time></trkpt><trkpt lat="43.66501344590808" lon="11.785829052228395"><ele>589.0</ele><time>2026-04-25T09:58:00Z</time></trkpt><trkpt lat="43.66494159625822" lon="11.785846854341985"><ele>589.0</ele><time>2026-04-25T09:58:01Z</time></trkpt><trkpt lat="43.6648778722055" lon="11.785915430982124"><ele>589.0</ele><time>2026-04-25T09:58:02Z</time></trkpt><trkpt lat="43.66480731872228" lon="11.786028117778706"><ele>589.0</ele><time>2026-04-25T09:58:03Z</time></trkpt><trkpt lat="43.66473897546605" lon="11.7861621626409"><ele>589.0</ele><time>2026-04-25T09:58:04Z</time></trkpt><trkpt lat="43.66467014006572" lon="11.786282753101299"><ele>587.2</ele><time>2026-04-25T09:58:05Z</time></trkpt><trkpt lat="43.66463055043079" lon="11.786394950207473"><ele>585.4</ele><time>2026-04-25T09:58:06Z</time></trkpt><trkpt lat="43.66461892595323" lon="11.786512201611027"><ele>583.6</ele><time>2026-04-25T09:58:07Z</time></trkpt><trkpt lat="43.66464682284434" lon="11.78662954722541"><ele>581.8</ele><time>2026-04-25T09:58:08Z</time></trkpt><trkpt lat="43.664691923340705" lon="11.7867409536251"><ele>580.0</ele><time>2026-04-25T09:58:09Z</time></trkpt><trkpt lat="43.664739501036166" lon="11.786875872146869"><ele>578.0</ele><time>2026-04-25T09:58:10Z</time></trkpt><trkpt lat="43.664782551002716" lon="11.78704675207158"><ele>576.0</ele><time>2026-04-25T09:58:11Z</time></trkpt><trkpt lat="43.66484290693557" lon="11.78719508998948"><ele>574.0</ele><time>2026-04-25T09:58:12Z</time></trkpt><trkpt lat="43.66486045728822" lon="11.787346165704014"><ele>572.0</ele><time>2026-04-25T09:58:13Z</time></trkpt><trkpt lat="43.6648714143987" lon="11.787488318990466"><ele>572.0</ele><time>2026-04-25T09:58:14Z</time></trkpt><trkpt lat="43.664855634271355" lon="11.787602552686893"><ele>572.0</ele><time>2026-04-25T09:58:15Z</time></trkpt><trkpt lat="43.664809222072776" lon="11.78771095429057"><ele>572.0</ele><time>2026-04-25T09:58:16Z</time></trkpt><trkpt lat="43.66474470690594" lon="11.787813015089634"><ele>572.0</ele><time>2026-04-25T09:58:17Z</time></trkpt><trkpt lat="43.66466010080654" lon="11.787915635066643"><ele>572.0</ele><time>2026-04-25T09:58:18Z</time></trkpt><trkpt lat="43.66457656042977" lon="11.787989852857574"><ele>571.8000000000001</ele><time>2026-04-25T09:58:19Z</time></trkpt><trkpt lat="43.664506018507076" lon="11.78802653763663"><ele>571.6</ele><time>2026-04-25T09:58:20Z</time></trkpt><trkpt lat="43.66443760476843" lon="11.787976583380557"><ele>571.4000000000001</ele><time>2026-04-25T09:58:21Z</time></trkpt><trkpt lat="43.66432886100574" lon="11.787951928216549"><ele>571.2</ele><time>2026-04-25T09:58:22Z</time></trkpt><trkpt lat="43.66420150174987" lon="11.787964865609903"><ele>571.0</ele><time>2026-04-25T09:58:23Z</time></trkpt><trkpt lat="43.664116713193955" lon="11.787960326021805"><ele>568.75</ele><time>2026-04-25T09:58:24Z</time></trkpt><trkpt lat="43.66403577454981" lon="11.78801336889303"><ele>566.5</ele><time>2026-04-25T09:58:25Z</time></trkpt><trkpt lat="43.663938989972685" lon="11.788115887506779"><ele>564.25</ele><time>2026-04-25T09:58:26Z</time></trkpt><trkpt lat="43.663838700133205" lon="11.788218394839529"><ele>562.0</ele><time>2026-04-25T09:58:27Z</time></trkpt><trkpt lat="43.663732249831334" lon="11.788281835194072"><ele>562.0</ele><time>2026-04-25T09:58:28Z</time></trkpt><trkpt lat="43.663628195262255" lon="11.788282634693477"><ele>562.0</ele><time>2026-04-25T09:58:29Z</time></trkpt><trkpt lat="43.66351718690569" lon="11.788266360071923"><ele>562.0</ele><time>2026-04-25T09:58:30Z</time></trkpt><trkpt lat="43.66339998012478" lon="11.788241238556244"><ele>562.0</ele><time>2026-04-25T09:58:31Z</time></trkpt><trkpt lat="43.663299191913865" lon="11.788250581227421"><ele>562.0</ele><time>2026-04-25T09:58:32Z</time></trkpt><trkpt lat="43.66320046577512" lon="11.78828453730641"><ele>559.5</ele><time>2026-04-25T09:58:33Z</time></trkpt><trkpt lat="43.6630884535855" lon="11.788304628165335"><ele>557.0</ele><time>2026-04-25T09:58:34Z</time></trkpt><trkpt lat="43.66296216950509" lon="11.788309574884298"><ele>554.5</ele><time>2026-04-25T09:58:35Z</time></trkpt><trkpt lat="43.66283968462428" lon="11.788297633798448"><ele>552.0</ele><time>2026-04-25T09:58:36Z</time></trkpt><trkpt lat="43.66273021847503" lon="11.788294852523942"><ele>550.6666666666666</ele><time>2026-04-25T09:58:37Z</time></trkpt><trkpt lat="43.66263761428298" lon="11.788285941323794"><ele>549.3333333333334</ele><time>2026-04-25T09:58:38Z</time></trkpt><trkpt lat="43.66255178596017" lon="11.78827122774264"><ele>548.0</ele><time>2026-04-25T09:58:39Z</time></trkpt><trkpt lat="43.662473375099175" lon="11.788272242877648"><ele>546.6666666666667</ele><time>2026-04-25T09:58:40Z</time></trkpt><trkpt lat="43.66238457317021" lon="11.788286987182701"><ele>545.3333333333334</ele><time>2026-04-25T09:58:41Z</time></trkpt><trkpt lat="43.66231289607488" lon="11.788290815808455"><ele>544.0</ele><time>2026-04-25T09:58:42Z</time></trkpt><trkpt lat="43.66224335968935" lon="11.788221892551228"><ele>544.0</ele><time>2026-04-25T09:58:44Z</time></trkpt><trkpt lat="43.66233221842306" lon="11.78804185903217"><ele>544.0</ele><time>2026-04-25T09:58:50Z</time></trkpt><trkpt lat="43.66235623052507" lon="11.787958294345408"><ele>544.0</ele><time>2026-04-25T09:58:51Z</time></trkpt><trkpt lat="43.66238334232518" lon="11.787874171786772"><ele>544.0</ele><time>2026-04-25T09:58:52Z</time></trkpt><trkpt lat="43.66239687520015" lon="11.787782549934576"><ele>544.0</ele><time>2026-04-25T09:58:54Z</time></trkpt><trkpt lat="43.66241290635566" lon="11.787687699264266"><ele>544.0</ele><time>2026-04-25T09:59:05Z</time></trkpt><trkpt lat="43.662426519894126" lon="11.7875735008197"><ele>542.8333333333334</ele><time>2026-04-25T09:59:06Z</time></trkpt><trkpt lat="43.66244283776613" lon="11.78744822724098"><ele>541.6666666666667</ele><time>2026-04-25T09:59:07Z</time></trkpt><trkpt lat="43.66245926261645" lon="11.787325144004408"><ele>540.5</ele><time>2026-04-25T09:59:08Z</time></trkpt><trkpt lat="43.66247950529824" lon="11.787223327045"><ele>539.3333333333334</ele><time>2026-04-25T09:59:09Z</time></trkpt><trkpt lat="43.66247680699787" lon="11.787125406630432"><ele>538.1666666666666</ele><time>2026-04-25T09:59:10Z</time></trkpt><trkpt lat="43.662441251894236" lon="11.787047070204288"><ele>537.0</ele><time>2026-04-25T09:59:11Z</time></trkpt><trkpt lat="43.662358623609805" lon="11.786978982734272"><ele>537.0</ele><time>2026-04-25T09:59:12Z</time></trkpt><trkpt lat="43.662252987835046" lon="11.786964428197972"><ele>537.0</ele><time>2026-04-25T09:59:13Z</time></trkpt><trkpt lat="43.66214768322687" lon="11.786970670055"><ele>537.0</ele><time>2026-04-25T09:59:14Z</time></trkpt><trkpt lat="43.66201393016311" lon="11.787012209685468"><ele>537.0</ele><time>2026-04-25T09:59:15Z</time></trkpt><trkpt lat="43.661890067507" lon="11.78705407594253"><ele>533.5</ele><time>2026-04-25T09:59:16Z</time></trkpt><trkpt lat="43.661778335433894" lon="11.787080178193525"><ele>530.0</ele><time>2026-04-25T09:59:17Z</time></trkpt><trkpt lat="43.661667314308595" lon="11.78711256246238"><ele>526.5</ele><time>2026-04-25T09:59:18Z</time></trkpt><trkpt lat="43.66155661884108" lon="11.787157270970342"><ele>523.0</ele><time>2026-04-25T09:59:19Z</time></trkpt><trkpt lat="43.661442265664846" lon="11.787174885497054"><ele>523.0</ele><time>2026-04-25T09:59:20Z</time></trkpt><trkpt lat="43.66133842227274" lon="11.787210501024672"><ele>523.0</ele><time>2026-04-25T09:59:21Z</time></trkpt><trkpt lat="43.661244447763764" lon="11.787242731807813"><ele>523.0</ele><time>2026-04-25T09:59:22Z</time></trkpt><trkpt lat="43.66114174378025" lon="11.787296327463826"><ele>523.0</ele><time>2026-04-25T09:59:23Z</time></trkpt><trkpt lat="43.66104304254457" lon="11.787330330538635"><ele>523.0</ele><time>2026-04-25T09:59:24Z</time></trkpt><trkpt lat="43.66095747586243" lon="11.78734589300829"><ele>519.5</ele><time>2026-04-25T09:59:25Z</time></trkpt><trkpt lat="43.660889876214576" lon="11.787370614651007"><ele>516.0</ele><time>2026-04-25T09:59:26Z</time></trkpt><trkpt lat="43.66088593177509" lon="11.787595723491581"><ele>512.5</ele><time>2026-04-25T09:59:27Z</time></trkpt><trkpt lat="43.6608730507128" lon="11.787772786504567"><ele>509.0</ele><time>2026-04-25T09:59:28Z</time></trkpt><trkpt lat="43.660822050330914" lon="11.787945361918093"><ele>509.0</ele><time>2026-04-25T09:59:29Z</time></trkpt><trkpt lat="43.660784262810935" lon="11.788102947025909"><ele>509.0</ele><time>2026-04-25T09:59:30Z</time></trkpt><trkpt lat="43.660740002433165" lon="11.788213630377456"><ele>509.0</ele><time>2026-04-25T09:59:31Z</time></trkpt><trkpt lat="43.66067769766729" lon="11.788291001445792"><ele>509.0</ele><time>2026-04-25T09:59:32Z</time></trkpt><trkpt lat="43.66060538774252" lon="11.788314972014355"><ele>509.0</ele><time>2026-04-25T09:59:33Z</time></trkpt><trkpt lat="43.66049069647318" lon="11.788284395209855"><ele>509.0</ele><time>2026-04-25T09:59:35Z</time></trkpt><trkpt lat="43.660442758112595" lon="11.788178072108732"><ele>509.0</ele><time>2026-04-25T09:59:36Z</time></trkpt><trkpt lat="43.66038915881775" lon="11.788045927121486"><ele>509.0</ele><time>2026-04-25T09:59:37Z</time></trkpt><trkpt lat="43.6603167563865" lon="11.787893787944206"><ele>509.0</ele><time>2026-04-25T09:59:38Z</time></trkpt><trkpt lat="43.660239284349935" lon="11.787763651694995"><ele>505.49999999999994</ele><time>2026-04-25T09:59:39Z</time></trkpt><trkpt lat="43.66017557294561" lon="11.787678989469587"><ele>502.0</ele><time>2026-04-25T09:59:40Z</time></trkpt><trkpt lat="43.66011508752618" lon="11.787644790502238"><ele>498.5</ele><time>2026-04-25T09:59:41Z</time></trkpt><trkpt lat="43.66004191818395" lon="11.787633302254374"><ele>495.0</ele><time>2026-04-25T09:59:42Z</time></trkpt><trkpt lat="43.65996038182439" lon="11.787707465074924"><ele>491.49999999999994</ele><time>2026-04-25T09:59:43Z</time></trkpt><trkpt lat="43.659919122166244" lon="11.787826208399096"><ele>488.0</ele><time>2026-04-25T09:59:44Z</time></trkpt><trkpt lat="43.659945283016405" lon="11.787979313989004"><ele>487.59999999999997</ele><time>2026-04-25T09:59:45Z</time></trkpt><trkpt lat="43.659974478524504" lon="11.788160289978116"><ele>487.19999999999993</ele><time>2026-04-25T09:59:46Z</time></trkpt><trkpt lat="43.659983320694124" lon="11.788304174819386"><ele>486.8</ele><time>2026-04-25T09:59:47Z</time></trkpt><trkpt lat="43.65995456703341" lon="11.78841372394313"><ele>486.4</ele><time>2026-04-25T09:59:48Z</time></trkpt><trkpt lat="43.65989331758993" lon="11.788507180984162"><ele>486.0</ele><time>2026-04-25T09:59:49Z</time></trkpt><trkpt lat="43.65982175727553" lon="11.78861718666895"><ele>487.4</ele><time>2026-04-25T09:59:50Z</time></trkpt><trkpt lat="43.65974864524579" lon="11.788723004958928"><ele>488.8</ele><time>2026-04-25T09:59:51Z</time></trkpt><trkpt lat="43.6596794078717" lon="11.788823058426912"><ele>490.19999999999993</ele><time>2026-04-25T09:59:52Z</time></trkpt><trkpt lat="43.6596153206701" lon="11.788896490455354"><ele>491.59999999999997</ele><time>2026-04-25T09:59:53Z</time></trkpt><trkpt lat="43.65953638491647" lon="11.788947937190557"><ele>493.0</ele><time>2026-04-25T09:59:54Z</time></trkpt><trkpt lat="43.6594548523153" lon="11.788945102285101"><ele>489.0</ele><time>2026-04-25T09:59:55Z</time></trkpt><trkpt lat="43.65935740418727" lon="11.788940647203415"><ele>484.99999999999994</ele><time>2026-04-25T09:59:56Z</time></trkpt><trkpt lat="43.65924954311302" lon="11.788921059390708"><ele>480.99999999999994</ele><time>2026-04-25T09:59:57Z</time></trkpt><trkpt lat="43.65915809568549" lon="11.788901303711986"><ele>477.0</ele><time>2026-04-25T09:59:58Z</time></trkpt><trkpt lat="43.659069996202" lon="11.788881976221063"><ele>473.0</ele><time>2026-04-25T09:59:59Z</time></trkpt><trkpt lat="43.65898006379878" lon="11.788862246615672"><ele>472.99999999999994</ele><time>2026-04-25T10:00:00Z</time></trkpt><trkpt lat="43.65889444147914" lon="11.78884346256558"><ele>473.0</ele><time>2026-04-25T10:00:01Z</time></trkpt><trkpt lat="43.65880843780849" lon="11.788824594865892"><ele>473.0</ele><time>2026-04-25T10:00:02Z</time></trkpt><trkpt lat="43.65873244694179" lon="11.788807923792685"><ele>473.0</ele><time>2026-04-25T10:00:03Z</time></trkpt><trkpt lat="43.65865020085635" lon="11.7887906798845"><ele>472.99999999999994</ele><time>2026-04-25T10:00:04Z</time></trkpt><trkpt lat="43.658569521602566" lon="11.788774249423902"><ele>473.0</ele><time>2026-04-25T10:00:05Z</time></trkpt><trkpt lat="43.65848462172391" lon="11.788756961222248"><ele>470.8333333333333</ele><time>2026-04-25T10:00:06Z</time></trkpt><trkpt lat="43.65841017828517" lon="11.788741800655549"><ele>468.66666666666663</ele><time>2026-04-25T10:00:07Z</time></trkpt><trkpt lat="43.658334206483055" lon="11.788743997415118"><ele>466.5</ele><time>2026-04-25T10:00:08Z</time></trkpt><trkpt lat="43.658259295847635" lon="11.788729322411701"><ele>464.33333333333337</ele><time>2026-04-25T10:00:09Z</time></trkpt><trkpt lat="43.65818711068272" lon="11.788698714524598"><ele>462.1666666666667</ele><time>2026-04-25T10:00:10Z</time></trkpt><trkpt lat="43.65812559893932" lon="11.788733754563465"><ele>460.0</ele><time>2026-04-25T10:00:11Z</time></trkpt><trkpt lat="43.65807654347618" lon="11.788862775274845"><ele>460.0</ele><time>2026-04-25T10:00:13Z</time></trkpt><trkpt lat="43.65805696921117" lon="11.788990548471467"><ele>460.0</ele><time>2026-04-25T10:00:15Z</time></trkpt><trkpt lat="43.65804106791609" lon="11.789126115687745"><ele>460.0</ele><time>2026-04-25T10:00:17Z</time></trkpt><trkpt lat="43.65802737451226" lon="11.789251008131496"><ele>460.0</ele><time>2026-04-25T10:00:19Z</time></trkpt><trkpt lat="43.65801137527109" lon="11.78939693126862"><ele>460.0</ele><time>2026-04-25T10:00:21Z</time></trkpt><trkpt lat="43.658008954142154" lon="11.789495717648842"><ele>461.50000000000006</ele><time>2026-04-25T10:00:22Z</time></trkpt><trkpt lat="43.657988799303396" lon="11.789599259255"><ele>463.0</ele><time>2026-04-25T10:00:23Z</time></trkpt><trkpt lat="43.65797142075319" lon="11.789724192133495"><ele>464.5</ele><time>2026-04-25T10:00:24Z</time></trkpt><trkpt lat="43.657953458227325" lon="11.78983067376608"><ele>466.0</ele><time>2026-04-25T10:00:25Z</time></trkpt><trkpt lat="43.657929163585024" lon="11.789961333125339"><ele>467.50000000000006</ele><time>2026-04-25T10:00:26Z</time></trkpt><trkpt lat="43.657898800260185" lon="11.790097586730674"><ele>469.0</ele><time>2026-04-25T10:00:27Z</time></trkpt><trkpt lat="43.657871822289955" lon="11.7902067951804"><ele>467.0</ele><time>2026-04-25T10:00:28Z</time></trkpt><trkpt lat="43.6578535847951" lon="11.790331225456155"><ele>465.0</ele><time>2026-04-25T10:00:29Z</time></trkpt><trkpt lat="43.65781094811433" lon="11.790413863119104"><ele>463.0</ele><time>2026-04-25T10:00:30Z</time></trkpt><trkpt lat="43.657691027508704" lon="11.79048204243266"><ele>461.0</ele><time>2026-04-25T10:00:32Z</time></trkpt><trkpt lat="43.65759942787142" lon="11.790465990999065"><ele>459.0</ele><time>2026-04-25T10:00:33Z</time></trkpt><trkpt lat="43.65750577001051" lon="11.790417795183288"><ele>459.0</ele><time>2026-04-25T10:00:34Z</time></trkpt><trkpt lat="43.65741795693454" lon="11.790374753662627"><ele>459.0</ele><time>2026-04-25T10:00:35Z</time></trkpt><trkpt lat="43.65734522314837" lon="11.790325805413769"><ele>459.0</ele><time>2026-04-25T10:00:36Z</time></trkpt><trkpt lat="43.6572992555808" lon="11.790213880755086"><ele>459.0</ele><time>2026-04-25T10:00:37Z</time></trkpt><trkpt lat="43.65725393399188" lon="11.790112440873335"><ele>459.0</ele><time>2026-04-25T10:00:38Z</time></trkpt><trkpt lat="43.657219251514235" lon="11.790019080855656"><ele>459.0</ele><time>2026-04-25T10:00:39Z</time></trkpt><trkpt lat="43.65716993615561" lon="11.789942503817466"><ele>456.79999999999995</ele><time>2026-04-25T10:00:40Z</time></trkpt><trkpt lat="43.6570871414004" lon="11.789834699681036"><ele>454.59999999999997</ele><time>2026-04-25T10:00:42Z</time></trkpt><trkpt lat="43.65697249246307" lon="11.78975170322479"><ele>452.4</ele><time>2026-04-25T10:00:44Z</time></trkpt><trkpt lat="43.65689485203913" lon="11.78975609788702"><ele>450.2</ele><time>2026-04-25T10:00:45Z</time></trkpt><trkpt lat="43.656809392608444" lon="11.789773257169779"><ele>448.0</ele><time>2026-04-25T10:00:46Z</time></trkpt><trkpt lat="43.6567571776842" lon="11.789866582385352"><ele>445.79999999999995</ele><time>2026-04-25T10:00:47Z</time></trkpt><trkpt lat="43.656703113097095" lon="11.789946261571572"><ele>443.59999999999997</ele><time>2026-04-25T10:00:48Z</time></trkpt><trkpt lat="43.65663879454976" lon="11.790038770054554"><ele>441.40000000000003</ele><time>2026-04-25T10:00:49Z</time></trkpt><trkpt lat="43.656578121547305" lon="11.790125867670135"><ele>439.20000000000005</ele><time>2026-04-25T10:00:50Z</time></trkpt><trkpt lat="43.65650447943806" lon="11.790223323591832"><ele>437.0</ele><time>2026-04-25T10:00:51Z</time></trkpt><trkpt lat="43.656444967399295" lon="11.790315178035723"><ele>437.0</ele><time>2026-04-25T10:00:52Z</time></trkpt><trkpt lat="43.65637868620581" lon="11.790398800936991"><ele>437.00000000000006</ele><time>2026-04-25T10:00:53Z</time></trkpt><trkpt lat="43.6563171947227" lon="11.790491706140987"><ele>437.00000000000006</ele><time>2026-04-25T10:00:54Z</time></trkpt><trkpt lat="43.65625011766559" lon="11.79058397269781"><ele>437.0</ele><time>2026-04-25T10:00:55Z</time></trkpt><trkpt lat="43.65617254630906" lon="11.790688196678278"><ele>437.0</ele><time>2026-04-25T10:00:56Z</time></trkpt><trkpt lat="43.656101679389096" lon="11.790798059545708"><ele>432.20000000000005</ele><time>2026-04-25T10:00:57Z</time></trkpt><trkpt lat="43.65603234580999" lon="11.790907662255512"><ele>427.40000000000003</ele><time>2026-04-25T10:00:58Z</time></trkpt><trkpt lat="43.65596767956702" lon="11.791003588040816"><ele>422.6</ele><time>2026-04-25T10:00:59Z</time></trkpt><trkpt lat="43.65589399797752" lon="11.79109937517259"><ele>417.79999999999995</ele><time>2026-04-25T10:01:00Z</time></trkpt><trkpt lat="43.65581385884459" lon="11.791146447244211"><ele>413.0</ele><time>2026-04-25T10:01:01Z</time></trkpt><trkpt lat="43.65575339280612" lon="11.791176085864858"><ele>413.0</ele><time>2026-04-25T10:01:02Z</time></trkpt><trkpt lat="43.65567739876455" lon="11.791170612724711"><ele>413.0</ele><time>2026-04-25T10:01:03Z</time></trkpt><trkpt lat="43.65558505982967" lon="11.791141388211143"><ele>413.0</ele><time>2026-04-25T10:01:04Z</time></trkpt><trkpt lat="43.655499295623606" lon="11.791099279629938"><ele>413.0</ele><time>2026-04-25T10:01:05Z</time></trkpt><trkpt lat="43.65545551903935" lon="11.790982683924208"><ele>413.0</ele><time>2026-04-25T10:01:06Z</time></trkpt><trkpt lat="43.65539883331351" lon="11.790867854066176"><ele>412.99999999999994</ele><time>2026-04-25T10:01:07Z</time></trkpt><trkpt lat="43.65535742368695" lon="11.79073949484956"><ele>413.0</ele><time>2026-04-25T10:01:08Z</time></trkpt><trkpt lat="43.65531459838703" lon="11.790610236733048"><ele>413.0</ele><time>2026-04-25T10:01:09Z</time></trkpt><trkpt lat="43.65527345085451" lon="11.79050347794872"><ele>413.0</ele><time>2026-04-25T10:01:10Z</time></trkpt><trkpt lat="43.65523462677557" lon="11.790433367776618"><ele>412.99999999999994</ele><time>2026-04-25T10:01:11Z</time></trkpt><trkpt lat="43.655189759364276" lon="11.790365646563929"><ele>413.0</ele><time>2026-04-25T10:01:12Z</time></trkpt><trkpt lat="43.65514137199797" lon="11.790299607027011"><ele>411.79999999999995</ele><time>2026-04-25T10:01:13Z</time></trkpt><trkpt lat="43.65509201617668" lon="11.79023479367349"><ele>410.6</ele><time>2026-04-25T10:01:14Z</time></trkpt><trkpt lat="43.65499992259439" lon="11.790128448624511"><ele>409.4</ele><time>2026-04-25T10:01:16Z</time></trkpt><trkpt lat="43.65487200045977" lon="11.790165220347745"><ele>408.20000000000005</ele><time>2026-04-25T10:01:18Z</time></trkpt><trkpt lat="43.6547869493183" lon="11.790219862745738"><ele>407.0</ele><time>2026-04-25T10:01:19Z</time></trkpt><trkpt lat="43.65468916533514" lon="11.790265629938657"><ele>406.20000000000005</ele><time>2026-04-25T10:01:20Z</time></trkpt><trkpt lat="43.65461984616707" lon="11.790293682609216"><ele>405.4</ele><time>2026-04-25T10:01:21Z</time></trkpt><trkpt lat="43.65450983677664" lon="11.790403966389265"><ele>404.6</ele><time>2026-04-25T10:01:23Z</time></trkpt><trkpt lat="43.65445243701901" lon="11.79048298577808"><ele>403.79999999999995</ele><time>2026-04-25T10:01:24Z</time></trkpt><trkpt lat="43.654400845879806" lon="11.790570107581482"><ele>403.0</ele><time>2026-04-25T10:01:25Z</time></trkpt><trkpt lat="43.65435829132424" lon="11.790665352965549"><ele>404.79999999999995</ele><time>2026-04-25T10:01:26Z</time></trkpt><trkpt lat="43.6543036471553" lon="11.79077222836031"><ele>406.6</ele><time>2026-04-25T10:01:27Z</time></trkpt><trkpt lat="43.65424138373927" lon="11.790871706245502"><ele>408.4</ele><time>2026-04-25T10:01:28Z</time></trkpt><trkpt lat="43.654178173164304" lon="11.790969424199789"><ele>410.20000000000005</ele><time>2026-04-25T10:01:29Z</time></trkpt><trkpt lat="43.65411533099598" lon="11.791091994339649"><ele>412.0</ele><time>2026-04-25T10:01:30Z</time></trkpt><trkpt lat="43.65404997807364" lon="11.791214567995738"><ele>412.0</ele><time>2026-04-25T10:01:31Z</time></trkpt><trkpt lat="43.65397861181446" lon="11.791329947989164"><ele>412.0</ele><time>2026-04-25T10:01:32Z</time></trkpt><trkpt lat="43.6539011518184" lon="11.791442063749493"><ele>412.0</ele><time>2026-04-25T10:01:33Z</time></trkpt><trkpt lat="43.6538244459676" lon="11.791561035492476"><ele>412.0</ele><time>2026-04-25T10:01:34Z</time></trkpt><trkpt lat="43.653743803210084" lon="11.79167475647222"><ele>412.0</ele><time>2026-04-25T10:01:35Z</time></trkpt><trkpt lat="43.6536668954244" lon="11.791788951807801"><ele>412.0</ele><time>2026-04-25T10:01:36Z</time></trkpt><trkpt lat="43.653592970090976" lon="11.791908057698782"><ele>412.0</ele><time>2026-04-25T10:01:37Z</time></trkpt><trkpt lat="43.6535281315075" lon="11.792039224977323"><ele>412.0</ele><time>2026-04-25T10:01:38Z</time></trkpt><trkpt lat="43.65346550768244" lon="11.792162640596871"><ele>413.83333333333337</ele><time>2026-04-25T10:01:39Z</time></trkpt><trkpt lat="43.65339880326553" lon="11.792283912152806"><ele>415.6666666666667</ele><time>2026-04-25T10:01:40Z</time></trkpt><trkpt lat="43.653344937587434" lon="11.792383847927852"><ele>417.5</ele><time>2026-04-25T10:01:41Z</time></trkpt><trkpt lat="43.65331113321579" lon="11.792482550247636"><ele>419.33333333333337</ele><time>2026-04-25T10:01:43Z</time></trkpt><trkpt lat="43.653234270180306" lon="11.792466527324803"><ele>421.1666666666667</ele><time>2026-04-25T10:01:46Z</time></trkpt><trkpt lat="43.65316695623174" lon="11.792414735349633"><ele>423.0</ele><time>2026-04-25T10:01:47Z</time></trkpt><trkpt lat="43.65308769936987" lon="11.792321791953086"><ele>423.0</ele><time>2026-04-25T10:01:48Z</time></trkpt><trkpt lat="43.65303408583219" lon="11.79218389700074"><ele>423.0</ele><time>2026-04-25T10:01:49Z</time></trkpt><trkpt lat="43.65298493783954" lon="11.792035004021358"><ele>423.0</ele><time>2026-04-25T10:01:50Z</time></trkpt><trkpt lat="43.65292426990747" lon="11.791894369473406"><ele>423.0</ele><time>2026-04-25T10:01:51Z</time></trkpt><trkpt lat="43.65286939691216" lon="11.791760114508936"><ele>423.3333333333333</ele><time>2026-04-25T10:01:52Z</time></trkpt><trkpt lat="43.652827180744396" lon="11.791646297239822"><ele>423.66666666666663</ele><time>2026-04-25T10:01:53Z</time></trkpt><trkpt lat="43.65280478114389" lon="11.791552072467844"><ele>424.0</ele><time>2026-04-25T10:01:54Z</time></trkpt><trkpt lat="43.65280211876467" lon="11.79143492614588"><ele>424.3333333333333</ele><time>2026-04-25T10:01:55Z</time></trkpt><trkpt lat="43.65282711580337" lon="11.791307483737613"><ele>424.66666666666663</ele><time>2026-04-25T10:01:56Z</time></trkpt><trkpt lat="43.65286219653365" lon="11.791182526665661"><ele>425.0</ele><time>2026-04-25T10:01:57Z</time></trkpt><trkpt lat="43.65289865860105" lon="11.79108614277957"><ele>426.0</ele><time>2026-04-25T10:01:58Z</time></trkpt><trkpt lat="43.65291934718172" lon="11.79096740163422"><ele>427.0</ele><time>2026-04-25T10:02:00Z</time></trkpt><trkpt lat="43.65284817821166" lon="11.790947814380496"><ele>428.0</ele><time>2026-04-25T10:02:04Z</time></trkpt><trkpt lat="43.6527847484513" lon="11.791126125569589"><ele>429.0</ele><time>2026-04-25T10:02:06Z</time></trkpt><trkpt lat="43.6527482629646" lon="11.791256936149983"><ele>430.0</ele><time>2026-04-25T10:02:07Z</time></trkpt><trkpt lat="43.652708195228605" lon="11.791413318487892"><ele>430.25</ele><time>2026-04-25T10:02:08Z</time></trkpt><trkpt lat="43.65264946388266" lon="11.791577296426487"><ele>430.5</ele><time>2026-04-25T10:02:09Z</time></trkpt><trkpt lat="43.652588366702695" lon="11.791748798043837"><ele>430.75</ele><time>2026-04-25T10:02:10Z</time></trkpt><trkpt lat="43.652525659205864" lon="11.791930124723404"><ele>431.0</ele><time>2026-04-25T10:02:11Z</time></trkpt><trkpt lat="43.65245235370263" lon="11.792111167459645"><ele>431.0</ele><time>2026-04-25T10:02:12Z</time></trkpt><trkpt lat="43.652370106074464" lon="11.79230669625507"><ele>431.0</ele><time>2026-04-25T10:02:13Z</time></trkpt><trkpt lat="43.65229139812951" lon="11.792497418761977"><ele>431.0</ele><time>2026-04-25T10:02:14Z</time></trkpt><trkpt lat="43.6522183235937" lon="11.792699305215843"><ele>430.3333333333333</ele><time>2026-04-25T10:02:15Z</time></trkpt><trkpt lat="43.65215816335816" lon="11.792909584577705"><ele>429.66666666666663</ele><time>2026-04-25T10:02:16Z</time></trkpt><trkpt lat="43.65211696967878" lon="11.793120437395759"><ele>429.0</ele><time>2026-04-25T10:02:17Z</time></trkpt><trkpt lat="43.652062013780274" lon="11.7933199118567"><ele>427.75</ele><time>2026-04-25T10:02:18Z</time></trkpt><trkpt lat="43.6520489204592" lon="11.793512548469112"><ele>426.5</ele><time>2026-04-25T10:02:19Z</time></trkpt><trkpt lat="43.65204092835206" lon="11.7937086770948"><ele>425.25</ele><time>2026-04-25T10:02:20Z</time></trkpt><trkpt lat="43.652075259148724" lon="11.793911355952709"><ele>424.0</ele><time>2026-04-25T10:02:21Z</time></trkpt><trkpt lat="43.65212234040519" lon="11.794118067008219"><ele>424.0</ele><time>2026-04-25T10:02:22Z</time></trkpt><trkpt lat="43.65216459234985" lon="11.79432361842641"><ele>424.0</ele><time>2026-04-25T10:02:23Z</time></trkpt><trkpt lat="43.65220218594295" lon="11.79450907006876"><ele>424.0</ele><time>2026-04-25T10:02:24Z</time></trkpt><trkpt lat="43.65226081594266" lon="11.794689129636538"><ele>424.0</ele><time>2026-04-25T10:02:25Z</time></trkpt><trkpt lat="43.65232083109722" lon="11.794851846559181"><ele>422.75</ele><time>2026-04-25T10:02:26Z</time></trkpt><trkpt lat="43.65237684317554" lon="11.795014586431902"><ele>421.5</ele><time>2026-04-25T10:02:27Z</time></trkpt><trkpt lat="43.652411312872985" lon="11.795186232208518"><ele>420.25</ele><time>2026-04-25T10:02:28Z</time></trkpt><trkpt lat="43.652390191128504" lon="11.795355297298823"><ele>419.0</ele><time>2026-04-25T10:02:29Z</time></trkpt><trkpt lat="43.652349976661" lon="11.795519837778262"><ele>417.25</ele><time>2026-04-25T10:02:30Z</time></trkpt><trkpt lat="43.652265442827606" lon="11.795663311558206"><ele>415.5</ele><time>2026-04-25T10:02:31Z</time></trkpt><trkpt lat="43.652163945985045" lon="11.795804015459774"><ele>413.75</ele><time>2026-04-25T10:02:32Z</time></trkpt><trkpt lat="43.65204259640858" lon="11.79592658866622"><ele>412.0</ele><time>2026-04-25T10:02:33Z</time></trkpt><trkpt lat="43.6519274984193" lon="11.796064979077498"><ele>411.5</ele><time>2026-04-25T10:02:34Z</time></trkpt><trkpt lat="43.65181773101152" lon="11.79618979776139"><ele>411.0</ele><time>2026-04-25T10:02:35Z</time></trkpt><trkpt lat="43.65173042587694" lon="11.796332275303339"><ele>410.5</ele><time>2026-04-25T10:02:36Z</time></trkpt><trkpt lat="43.651653606585896" lon="11.796495842292572"><ele>410.0</ele><time>2026-04-25T10:02:37Z</time></trkpt><trkpt lat="43.651592788520745" lon="11.796686899469046"><ele>406.75</ele><time>2026-04-25T10:02:38Z</time></trkpt><trkpt lat="43.65156689707743" lon="11.79688832956279"><ele>403.5</ele><time>2026-04-25T10:02:39Z</time></trkpt><trkpt lat="43.65156460200319" lon="11.797080177692662"><ele>400.25</ele><time>2026-04-25T10:02:40Z</time></trkpt><trkpt lat="43.65156434257945" lon="11.797260540363137"><ele>397.0</ele><time>2026-04-25T10:02:41Z</time></trkpt><trkpt lat="43.65153673181286" lon="11.797412361604492"><ele>397.0</ele><time>2026-04-25T10:02:42Z</time></trkpt><trkpt lat="43.65150952548934" lon="11.797540840406576"><ele>397.0</ele><time>2026-04-25T10:02:43Z</time></trkpt><trkpt lat="43.65140302183358" lon="11.797630353085646"><ele>397.0</ele><time>2026-04-25T10:02:44Z</time></trkpt><trkpt lat="43.651286568055944" lon="11.797717108669387"><ele>397.0</ele><time>2026-04-25T10:02:45Z</time></trkpt><trkpt lat="43.651153823253225" lon="11.797833832904164"><ele>395.6666666666667</ele><time>2026-04-25T10:02:46Z</time></trkpt><trkpt lat="43.6510151708434" lon="11.797936184097862"><ele>394.33333333333337</ele><time>2026-04-25T10:02:47Z</time></trkpt><trkpt lat="43.650875498657975" lon="11.798040213622343"><ele>393.0</ele><time>2026-04-25T10:02:48Z</time></trkpt><trkpt lat="43.650734716483164" lon="11.798145379460525"><ele>393.0</ele><time>2026-04-25T10:02:49Z</time></trkpt><trkpt lat="43.65059296468929" lon="11.798251685035412"><ele>393.0</ele><time>2026-04-25T10:02:50Z</time></trkpt><trkpt lat="43.650455298274565" lon="11.798343800367668"><ele>393.0</ele><time>2026-04-25T10:02:51Z</time></trkpt><trkpt lat="43.65032675589287" lon="11.79842634598864"><ele>391.5</ele><time>2026-04-25T10:02:52Z</time></trkpt><trkpt lat="43.650201751183275" lon="11.798513326759117"><ele>390.0</ele><time>2026-04-25T10:02:53Z</time></trkpt><trkpt lat="43.65008014311102" lon="11.798580589522519"><ele>388.5</ele><time>2026-04-25T10:02:54Z</time></trkpt><trkpt lat="43.64996249387091" lon="11.798640032005567"><ele>387.0</ele><time>2026-04-25T10:02:55Z</time></trkpt><trkpt lat="43.64984400290511" lon="11.798625650461542"><ele>387.0</ele><time>2026-04-25T10:02:56Z</time></trkpt><trkpt lat="43.64971034581549" lon="11.798634568076519"><ele>387.0</ele><time>2026-04-25T10:02:57Z</time></trkpt><trkpt lat="43.6495638202214" lon="11.798630365323188"><ele>387.0</ele><time>2026-04-25T10:02:58Z</time></trkpt><trkpt lat="43.64942302847845" lon="11.798690921833662"><ele>387.0</ele><time>2026-04-25T10:02:59Z</time></trkpt><trkpt lat="43.649297248178904" lon="11.798799993475868"><ele>387.5</ele><time>2026-04-25T10:03:00Z</time></trkpt><trkpt lat="43.649202453890496" lon="11.798903588663594"><ele>388.0</ele><time>2026-04-25T10:03:01Z</time></trkpt><trkpt lat="43.649175762870186" lon="11.799080092794265"><ele>388.5</ele><time>2026-04-25T10:03:02Z</time></trkpt><trkpt lat="43.649175316104575" lon="11.799258840621208"><ele>389.0</ele><time>2026-04-25T10:03:03Z</time></trkpt><trkpt lat="43.64919695984843" lon="11.79943930396176"><ele>387.25</ele><time>2026-04-25T10:03:04Z</time></trkpt><trkpt lat="43.649173558805934" lon="11.799614948045715"><ele>385.5</ele><time>2026-04-25T10:03:05Z</time></trkpt><trkpt lat="43.64913827544129" lon="11.799793742049514"><ele>383.75</ele><time>2026-04-25T10:03:06Z</time></trkpt><trkpt lat="43.64908307306072" lon="11.7999691968008"><ele>382.0</ele><time>2026-04-25T10:03:07Z</time></trkpt><trkpt lat="43.6490116369804" lon="11.800132492056973"><ele>380.0</ele><time>2026-04-25T10:03:08Z</time></trkpt><trkpt lat="43.648932219477885" lon="11.800302721232365"><ele>378.0</ele><time>2026-04-25T10:03:09Z</time></trkpt><trkpt lat="43.64886756552012" lon="11.80048830226293"><ele>376.0</ele><time>2026-04-25T10:03:10Z</time></trkpt><trkpt lat="43.64880232730966" lon="11.800672176345005"><ele>374.0</ele><time>2026-04-25T10:03:11Z</time></trkpt><trkpt lat="43.64874875019442" lon="11.800851431114804"><ele>374.0</ele><time>2026-04-25T10:03:12Z</time></trkpt><trkpt lat="43.64870509425188" lon="11.801048563567914"><ele>374.0</ele><time>2026-04-25T10:03:13Z</time></trkpt><trkpt lat="43.64864460619225" lon="11.801237494210053"><ele>374.0</ele><time>2026-04-25T10:03:14Z</time></trkpt><trkpt lat="43.648582553753066" lon="11.801418571009991"><ele>374.0</ele><time>2026-04-25T10:03:15Z</time></trkpt><trkpt lat="43.64849287513933" lon="11.801569412629869"><ele>374.0</ele><time>2026-04-25T10:03:16Z</time></trkpt><trkpt lat="43.648405596281286" lon="11.801714709240104"><ele>374.0</ele><time>2026-04-25T10:03:17Z</time></trkpt><trkpt lat="43.648304297363275" lon="11.801842718831995"><ele>374.0</ele><time>2026-04-25T10:03:18Z</time></trkpt><trkpt lat="43.64818564762069" lon="11.801952403488622"><ele>374.0</ele><time>2026-04-25T10:03:19Z</time></trkpt><trkpt lat="43.6480671221875" lon="11.802078185570066"><ele>372.0</ele><time>2026-04-25T10:03:20Z</time></trkpt><trkpt lat="43.64794281718447" lon="11.802181961328218"><ele>370.0</ele><time>2026-04-25T10:03:21Z</time></trkpt><trkpt lat="43.64783039826573" lon="11.802271447876413"><ele>368.0</ele><time>2026-04-25T10:03:22Z</time></trkpt><trkpt lat="43.64774663590243" lon="11.802393795301382"><ele>366.0</ele><time>2026-04-25T10:03:23Z</time></trkpt><trkpt lat="43.647705197595165" lon="11.802534962736182"><ele>364.20000000000005</ele><time>2026-04-25T10:03:24Z</time></trkpt><trkpt lat="43.64765461740383" lon="11.802665634327028"><ele>362.40000000000003</ele><time>2026-04-25T10:03:25Z</time></trkpt><trkpt lat="43.64758996846449" lon="11.802754605599015"><ele>360.6</ele><time>2026-04-25T10:03:26Z</time></trkpt><trkpt lat="43.64748627613052" lon="11.802804981074793"><ele>358.8</ele><time>2026-04-25T10:03:27Z</time></trkpt><trkpt lat="43.64736219497806" lon="11.802782554088362"><ele>357.0</ele><time>2026-04-25T10:03:28Z</time></trkpt><trkpt lat="43.647267261804075" lon="11.802803970788746"><ele>357.0</ele><time>2026-04-25T10:03:29Z</time></trkpt><trkpt lat="43.647198176706034" lon="11.802829331490159"><ele>357.0</ele><time>2026-04-25T10:03:30Z</time></trkpt><trkpt lat="43.647154763105746" lon="11.802917123347159"><ele>357.0</ele><time>2026-04-25T10:03:31Z</time></trkpt><trkpt lat="43.64715616347866" lon="11.80303465560219"><ele>357.0</ele><time>2026-04-25T10:03:32Z</time></trkpt><trkpt lat="43.64721413175126" lon="11.80315059889553"><ele>357.0</ele><time>2026-04-25T10:03:33Z</time></trkpt><trkpt lat="43.647309348100045" lon="11.803220989608128"><ele>357.0</ele><time>2026-04-25T10:03:34Z</time></trkpt><trkpt lat="43.647422245527125" lon="11.803246034182724"><ele>357.0</ele><time>2026-04-25T10:03:35Z</time></trkpt><trkpt lat="43.647535708797335" lon="11.803253691284821"><ele>357.0</ele><time>2026-04-25T10:03:36Z</time></trkpt><trkpt lat="43.64763993475762" lon="11.80328447478493"><ele>357.0</ele><time>2026-04-25T10:03:37Z</time></trkpt><trkpt lat="43.647721941670966" lon="11.803364795304217"><ele>357.0</ele><time>2026-04-25T10:03:38Z</time></trkpt><trkpt lat="43.647768008484256" lon="11.803477826261124"><ele>357.0</ele><time>2026-04-25T10:03:39Z</time></trkpt><trkpt lat="43.64776281868851" lon="11.803596664478826"><ele>355.20000000000005</ele><time>2026-04-25T10:03:40Z</time></trkpt><trkpt lat="43.64770683645775" lon="11.803709990544347"><ele>353.4</ele><time>2026-04-25T10:03:41Z</time></trkpt><trkpt lat="43.64760069327462" lon="11.803730557533079"><ele>351.6</ele><time>2026-04-25T10:03:42Z</time></trkpt><trkpt lat="43.64750046377801" lon="11.803779871507988"><ele>349.79999999999995</ele><time>2026-04-25T10:03:43Z</time></trkpt><trkpt lat="43.64740168480207" lon="11.80384849654528"><ele>348.0</ele><time>2026-04-25T10:03:44Z</time></trkpt><trkpt lat="43.647341714625526" lon="11.80398951159261"><ele>348.0</ele><time>2026-04-25T10:03:45Z</time></trkpt><trkpt lat="43.64732625954565" lon="11.804172843463395"><ele>348.0</ele><time>2026-04-25T10:03:46Z</time></trkpt><trkpt lat="43.64733172295474" lon="11.804358468117792"><ele>348.0</ele><time>2026-04-25T10:03:47Z</time></trkpt><trkpt lat="43.64730954828976" lon="11.804557744058807"><ele>348.0</ele><time>2026-04-25T10:03:48Z</time></trkpt><trkpt lat="43.64732141766095" lon="11.80475476273655"><ele>347.5</ele><time>2026-04-25T10:03:49Z</time></trkpt><trkpt lat="43.647342778801026" lon="11.80495022235134"><ele>347.0</ele><time>2026-04-25T10:03:50Z</time></trkpt><trkpt lat="43.64739792997711" lon="11.80513909249768"><ele>346.5</ele><time>2026-04-25T10:03:51Z</time></trkpt><trkpt lat="43.647471983162916" lon="11.805310861651433"><ele>346.0</ele><time>2026-04-25T10:03:52Z</time></trkpt><trkpt lat="43.64752828747059" lon="11.805459976856847"><ele>345.75</ele><time>2026-04-25T10:03:53Z</time></trkpt><trkpt lat="43.64754395291554" lon="11.805623236767675"><ele>345.5</ele><time>2026-04-25T10:03:54Z</time></trkpt><trkpt lat="43.647541050151816" lon="11.805797197810023"><ele>345.25</ele><time>2026-04-25T10:03:55Z</time></trkpt><trkpt lat="43.64753795664318" lon="11.805992030448312"><ele>345.0</ele><time>2026-04-25T10:03:56Z</time></trkpt><trkpt lat="43.64755321910088" lon="11.806186222623177"><ele>343.5</ele><time>2026-04-25T10:03:57Z</time></trkpt><trkpt lat="43.64753557511511" lon="11.80637537381645"><ele>342.0</ele><time>2026-04-25T10:03:58Z</time></trkpt><trkpt lat="43.64753401879301" lon="11.806574710554559"><ele>340.5</ele><time>2026-04-25T10:03:59Z</time></trkpt><trkpt lat="43.64751833795394" lon="11.806769280944101"><ele>339.0</ele><time>2026-04-25T10:04:00Z</time></trkpt><trkpt lat="43.647493092562286" lon="11.806962871609548"><ele>338.3333333333333</ele><time>2026-04-25T10:04:01Z</time></trkpt><trkpt lat="43.64747705648783" lon="11.80717341162698"><ele>337.66666666666663</ele><time>2026-04-25T10:04:02Z</time></trkpt><trkpt lat="43.647440183389314" lon="11.80737861979177"><ele>337.0</ele><time>2026-04-25T10:04:03Z</time></trkpt><trkpt lat="43.6474057069375" lon="11.807592028069477"><ele>335.66666666666663</ele><time>2026-04-25T10:04:04Z</time></trkpt><trkpt lat="43.647384848277916" lon="11.807803550295233"><ele>334.3333333333333</ele><time>2026-04-25T10:04:05Z</time></trkpt><trkpt lat="43.64736813509765" lon="11.808019610981814"><ele>333.0</ele><time>2026-04-25T10:04:06Z</time></trkpt><trkpt lat="43.647358869609675" lon="11.808244855789454"><ele>333.0</ele><time>2026-04-25T10:04:07Z</time></trkpt><trkpt lat="43.64734387359417" lon="11.808460733107195"><ele>333.0</ele><time>2026-04-25T10:04:08Z</time></trkpt><trkpt lat="43.64732896447884" lon="11.808675070204682"><ele>333.0</ele><time>2026-04-25T10:04:09Z</time></trkpt><trkpt lat="43.6473188622626" lon="11.808890483611988"><ele>333.3333333333333</ele><time>2026-04-25T10:04:10Z</time></trkpt><trkpt lat="43.64731174092703" lon="11.809112775427543"><ele>333.66666666666663</ele><time>2026-04-25T10:04:11Z</time></trkpt><trkpt lat="43.647298091544194" lon="11.809324481399855"><ele>334.0</ele><time>2026-04-25T10:04:12Z</time></trkpt><trkpt lat="43.64728959065064" lon="11.809539039412734"><ele>336.3333333333333</ele><time>2026-04-25T10:04:13Z</time></trkpt><trkpt lat="43.64727251611973" lon="11.809754432110772"><ele>338.6666666666667</ele><time>2026-04-25T10:04:14Z</time></trkpt><trkpt lat="43.64726267149345" lon="11.809968099926243"><ele>341.0</ele><time>2026-04-25T10:04:15Z</time></trkpt><trkpt lat="43.647248078475315" lon="11.810176454992003"><ele>341.33333333333337</ele><time>2026-04-25T10:04:16Z</time></trkpt><trkpt lat="43.64722003261551" lon="11.810392369064559"><ele>341.6666666666667</ele><time>2026-04-25T10:04:17Z</time></trkpt><trkpt lat="43.64718039052906" lon="11.810594236712838"><ele>342.0</ele><time>2026-04-25T10:04:18Z</time></trkpt><trkpt lat="43.64711851406878" lon="11.810796732013273"><ele>342.0</ele><time>2026-04-25T10:04:19Z</time></trkpt><trkpt lat="43.64705404311809" lon="11.810984084049366"><ele>342.0</ele><time>2026-04-25T10:04:20Z</time></trkpt><trkpt lat="43.64697584497097" lon="11.81117200026474"><ele>342.0</ele><time>2026-04-25T10:04:21Z</time></trkpt><trkpt lat="43.64688639883307" lon="11.81134573087881"><ele>338.75</ele><time>2026-04-25T10:04:22Z</time></trkpt><trkpt lat="43.646796956510485" lon="11.811517819975613"><ele>335.5</ele><time>2026-04-25T10:04:23Z</time></trkpt><trkpt lat="43.646713041874065" lon="11.811676569664328"><ele>332.25</ele><time>2026-04-25T10:04:24Z</time></trkpt><trkpt lat="43.64664186124644" lon="11.811820761074141"><ele>329.0</ele><time>2026-04-25T10:04:25Z</time></trkpt><trkpt lat="43.646578620479936" lon="11.81196230049882"><ele>328.5</ele><time>2026-04-25T10:04:26Z</time></trkpt><trkpt lat="43.64652706792027" lon="11.812107592615096"><ele>328.0</ele><time>2026-04-25T10:04:27Z</time></trkpt><trkpt lat="43.64649057742705" lon="11.81224066367666"><ele>327.5</ele><time>2026-04-25T10:04:28Z</time></trkpt><trkpt lat="43.64647224589777" lon="11.812400091697391"><ele>327.0</ele><time>2026-04-25T10:04:29Z</time></trkpt><trkpt lat="43.64647723669829" lon="11.812582561491139"><ele>326.25</ele><time>2026-04-25T10:04:30Z</time></trkpt><trkpt lat="43.64651349060511" lon="11.812775583250914"><ele>325.5</ele><time>2026-04-25T10:04:31Z</time></trkpt><trkpt lat="43.64656092942481" lon="11.812954568531822"><ele>324.75</ele><time>2026-04-25T10:04:32Z</time></trkpt><trkpt lat="43.646621700439546" lon="11.81310160047803"><ele>324.0</ele><time>2026-04-25T10:04:33Z</time></trkpt><trkpt lat="43.64668098221829" lon="11.813257120058342"><ele>324.0</ele><time>2026-04-25T10:04:34Z</time></trkpt><trkpt lat="43.646748101455" lon="11.813429858650075"><ele>324.0</ele><time>2026-04-25T10:04:35Z</time></trkpt><trkpt lat="43.64681927170369" lon="11.81361182275397"><ele>324.0</ele><time>2026-04-25T10:04:36Z</time></trkpt><trkpt lat="43.646905503912926" lon="11.813794246906083"><ele>324.0</ele><time>2026-04-25T10:04:37Z</time></trkpt><trkpt lat="43.64696298986098" lon="11.81399789820184"><ele>322.6666666666667</ele><time>2026-04-25T10:04:38Z</time></trkpt><trkpt lat="43.64696928687455" lon="11.814213709299123"><ele>321.33333333333337</ele><time>2026-04-25T10:04:39Z</time></trkpt><trkpt lat="43.64695781279981" lon="11.814421826451216"><ele>320.0</ele><time>2026-04-25T10:04:40Z</time></trkpt><trkpt lat="43.64692156568627" lon="11.814640203046228"><ele>320.0</ele><time>2026-04-25T10:04:41Z</time></trkpt><trkpt lat="43.64689724938596" lon="11.814849506035808"><ele>320.0</ele><time>2026-04-25T10:04:42Z</time></trkpt><trkpt lat="43.646856446716455" lon="11.815066346205153"><ele>320.0</ele><time>2026-04-25T10:04:43Z</time></trkpt><trkpt lat="43.64681745965303" lon="11.815277765733768"><ele>320.33333333333337</ele><time>2026-04-25T10:04:44Z</time></trkpt><trkpt lat="43.64678668994848" lon="11.815489392647907"><ele>320.6666666666667</ele><time>2026-04-25T10:04:45Z</time></trkpt><trkpt lat="43.64674979963253" lon="11.81569768083438"><ele>321.0</ele><time>2026-04-25T10:04:46Z</time></trkpt><trkpt lat="43.64670698453762" lon="11.815905229614682"><ele>320.6666666666667</ele><time>2026-04-25T10:04:47Z</time></trkpt><trkpt lat="43.646654802520665" lon="11.816113632179679"><ele>320.33333333333337</ele><time>2026-04-25T10:04:48Z</time></trkpt><trkpt lat="43.646594155690536" lon="11.81631283631074"><ele>320.0</ele><time>2026-04-25T10:04:49Z</time></trkpt><trkpt lat="43.6465236721942" lon="11.816511485863794"><ele>320.0</ele><time>2026-04-25T10:04:50Z</time></trkpt><trkpt lat="43.64645147295999" lon="11.81671597626633"><ele>320.0</ele><time>2026-04-25T10:04:51Z</time></trkpt><trkpt lat="43.64638525396028" lon="11.816911676934774"><ele>320.0</ele><time>2026-04-25T10:04:52Z</time></trkpt><trkpt lat="43.6463120523958" lon="11.817113947099568"><ele>319.6666666666667</ele><time>2026-04-25T10:04:53Z</time></trkpt><trkpt lat="43.64623839016166" lon="11.817309419508279"><ele>319.3333333333333</ele><time>2026-04-25T10:04:54Z</time></trkpt><trkpt lat="43.6461670802241" lon="11.817497427538514"><ele>319.0</ele><time>2026-04-25T10:04:55Z</time></trkpt><trkpt lat="43.64609164947394" lon="11.817695113993619"><ele>317.5</ele><time>2026-04-25T10:04:56Z</time></trkpt><trkpt lat="43.64601884248391" lon="11.817896554116265"><ele>316.0</ele><time>2026-04-25T10:04:57Z</time></trkpt><trkpt lat="43.64595799719386" lon="11.818073209149684"><ele>314.5</ele><time>2026-04-25T10:04:58Z</time></trkpt><trkpt lat="43.64589491484537" lon="11.818245564562506"><ele>313.0</ele><time>2026-04-25T10:04:59Z</time></trkpt><trkpt lat="43.64583656116486" lon="11.818403378210927"><ele>312.8</ele><time>2026-04-25T10:05:00Z</time></trkpt><trkpt lat="43.64578463471554" lon="11.818550600250816"><ele>312.6</ele><time>2026-04-25T10:05:01Z</time></trkpt><trkpt lat="43.64573252375596" lon="11.818690124364984"><ele>312.4</ele><time>2026-04-25T10:05:02Z</time></trkpt><trkpt lat="43.6456831455478" lon="11.81881478413809"><ele>312.2</ele><time>2026-04-25T10:05:03Z</time></trkpt><trkpt lat="43.645635500268796" lon="11.81892764494992"><ele>312.0</ele><time>2026-04-25T10:05:04Z</time></trkpt><trkpt lat="43.64559901606508" lon="11.819008489167443"><ele>312.0</ele><time>2026-04-25T10:05:05Z</time></trkpt><trkpt lat="43.64553392661324" lon="11.819207727876767"><ele>312.0</ele><time>2026-04-25T10:05:07Z</time></trkpt><trkpt lat="43.64547752077744" lon="11.819359472524534"><ele>312.0</ele><time>2026-04-25T10:05:08Z</time></trkpt><trkpt lat="43.64541364437061" lon="11.819537823864744"><ele>312.0</ele><time>2026-04-25T10:05:09Z</time></trkpt><trkpt lat="43.64534893277219" lon="11.819731087301436"><ele>311.6666666666667</ele><time>2026-04-25T10:05:10Z</time></trkpt><trkpt lat="43.64529603131476" lon="11.819938483731713"><ele>311.33333333333337</ele><time>2026-04-25T10:05:11Z</time></trkpt><trkpt lat="43.64525387867973" lon="11.820157388861373"><ele>311.0</ele><time>2026-04-25T10:05:12Z</time></trkpt><trkpt lat="43.64521769283831" lon="11.820378450750765"><ele>311.0</ele><time>2026-04-25T10:05:13Z</time></trkpt><trkpt lat="43.64518322964327" lon="11.820597072457634"><ele>311.0</ele><time>2026-04-25T10:05:14Z</time></trkpt><trkpt lat="43.64514733127104" lon="11.820820263158028"><ele>311.0</ele><time>2026-04-25T10:05:15Z</time></trkpt><trkpt lat="43.645111673769826" lon="11.821038756015263"><ele>311.33333333333337</ele><time>2026-04-25T10:05:16Z</time></trkpt><trkpt lat="43.64507210962972" lon="11.821263710716526"><ele>311.6666666666667</ele><time>2026-04-25T10:05:17Z</time></trkpt><trkpt lat="43.64503688649207" lon="11.821490900952606"><ele>312.0</ele><time>2026-04-25T10:05:18Z</time></trkpt><trkpt lat="43.64500502930717" lon="11.821713332423037"><ele>311.6666666666667</ele><time>2026-04-25T10:05:19Z</time></trkpt><trkpt lat="43.64496827440667" lon="11.821935891043342"><ele>311.33333333333337</ele><time>2026-04-25T10:05:20Z</time></trkpt><trkpt lat="43.644916684781734" lon="11.822137691454891"><ele>311.0</ele><time>2026-04-25T10:05:21Z</time></trkpt><trkpt lat="43.644885636104064" lon="11.82231865658424"><ele>311.0</ele><time>2026-04-25T10:05:22Z</time></trkpt><trkpt lat="43.644869705428846" lon="11.822501245205643"><ele>311.0</ele><time>2026-04-25T10:05:23Z</time></trkpt><trkpt lat="43.64483984597491" lon="11.822676865978531"><ele>311.0</ele><time>2026-04-25T10:05:24Z</time></trkpt><trkpt lat="43.64481699406236" lon="11.822834938117838"><ele>311.0</ele><time>2026-04-25T10:05:25Z</time></trkpt><trkpt lat="43.644792376981066" lon="11.822976362325024"><ele>310.6</ele><time>2026-04-25T10:05:26Z</time></trkpt><trkpt lat="43.64477628019114" lon="11.823085293676549"><ele>310.20000000000005</ele><time>2026-04-25T10:05:27Z</time></trkpt><trkpt lat="43.644735933195875" lon="11.823242255435849"><ele>309.79999999999995</ele><time>2026-04-25T10:05:29Z</time></trkpt><trkpt lat="43.644721031328295" lon="11.823333783488268"><ele>309.4</ele><time>2026-04-25T10:05:31Z</time></trkpt><trkpt lat="43.64484711225527" lon="11.823378496256636"><ele>309.0</ele><time>2026-04-25T10:05:34Z</time></trkpt><trkpt lat="43.64492535147334" lon="11.823368328630329"><ele>309.0</ele><time>2026-04-25T10:08:10Z</time></trkpt><trkpt lat="43.645003710399635" lon="11.823381017587932"><ele>309.0</ele><time>2026-04-25T10:08:11Z</time></trkpt><trkpt lat="43.64509734090673" lon="11.823413932089311"><ele>309.0</ele><time>2026-04-25T10:08:12Z</time></trkpt><trkpt lat="43.6451884935511" lon="11.823448889812305"><ele>309.0</ele><time>2026-04-25T10:08:13Z</time></trkpt><trkpt lat="43.64527996515726" lon="11.823482363684377"><ele>309.0</ele><time>2026-04-25T10:08:14Z</time></trkpt><trkpt lat="43.64536678330233" lon="11.82351536852998"><ele>308.2</ele><time>2026-04-25T10:08:15Z</time></trkpt><trkpt lat="43.64545713333587" lon="11.823542758878174"><ele>307.4</ele><time>2026-04-25T10:08:16Z</time></trkpt><trkpt lat="43.645548964889485" lon="11.823565068490307"><ele>306.6</ele><time>2026-04-25T10:08:17Z</time></trkpt><trkpt lat="43.645646005749036" lon="11.82358327872642"><ele>305.8</ele><time>2026-04-25T10:08:18Z</time></trkpt><trkpt lat="43.645743325057246" lon="11.82359451949275"><ele>305.0</ele><time>2026-04-25T10:08:19Z</time></trkpt><trkpt lat="43.645846355011265" lon="11.823591565819932"><ele>305.0</ele><time>2026-04-25T10:08:20Z</time></trkpt><trkpt lat="43.64594727101265" lon="11.823576483717611"><ele>305.0</ele><time>2026-04-25T10:08:21Z</time></trkpt><trkpt lat="43.646049636252265" lon="11.823553842744625"><ele>305.0</ele><time>2026-04-25T10:08:22Z</time></trkpt><trkpt lat="43.64616064463449" lon="11.823520408277801"><ele>305.0</ele><time>2026-04-25T10:08:23Z</time></trkpt><trkpt lat="43.64626597060026" lon="11.823489139108748"><ele>305.0</ele><time>2026-04-25T10:08:24Z</time></trkpt><trkpt lat="43.64635723140877" lon="11.823469275114336"><ele>305.8</ele><time>2026-04-25T10:08:25Z</time></trkpt><trkpt lat="43.64644524051948" lon="11.823464068387665"><ele>306.6</ele><time>2026-04-25T10:08:26Z</time></trkpt><trkpt lat="43.646525788528166" lon="11.82348253115401"><ele>307.4</ele><time>2026-04-25T10:08:27Z</time></trkpt><trkpt lat="43.64659448299316" lon="11.82352752937192"><ele>308.2</ele><time>2026-04-25T10:08:28Z</time></trkpt><trkpt lat="43.646668762204435" lon="11.823667701066414"><ele>309.0</ele><time>2026-04-25T10:08:30Z</time></trkpt><trkpt lat="43.64667678312382" lon="11.82378595591791"><ele>309.0</ele><time>2026-04-25T10:08:31Z</time></trkpt><trkpt lat="43.64669376359995" lon="11.823910597251317"><ele>309.0</ele><time>2026-04-25T10:08:32Z</time></trkpt><trkpt lat="43.64671635773597" lon="11.82405440910149"><ele>309.0</ele><time>2026-04-25T10:08:33Z</time></trkpt><trkpt lat="43.64674012558628" lon="11.824202239328072"><ele>309.0</ele><time>2026-04-25T10:08:34Z</time></trkpt><trkpt lat="43.64676157592952" lon="11.824354868624333"><ele>309.0</ele><time>2026-04-25T10:08:35Z</time></trkpt><trkpt lat="43.646781731624856" lon="11.824501371755732"><ele>308.5</ele><time>2026-04-25T10:08:36Z</time></trkpt><trkpt lat="43.64679870569811" lon="11.824660545840258"><ele>308.0</ele><time>2026-04-25T10:08:37Z</time></trkpt><trkpt lat="43.64680579250981" lon="11.824819398539061"><ele>307.5</ele><time>2026-04-25T10:08:38Z</time></trkpt><trkpt lat="43.646809207835815" lon="11.824979362600036"><ele>307.0</ele><time>2026-04-25T10:08:39Z</time></trkpt><trkpt lat="43.64681260979356" lon="11.825128872676565"><ele>307.2</ele><time>2026-04-25T10:08:40Z</time></trkpt><trkpt lat="43.646815013264195" lon="11.825270500795982"><ele>307.4</ele><time>2026-04-25T10:08:41Z</time></trkpt><trkpt lat="43.64681565949215" lon="11.825408465443214"><ele>307.6</ele><time>2026-04-25T10:08:42Z</time></trkpt><trkpt lat="43.64681054914748" lon="11.825548142290685"><ele>307.8</ele><time>2026-04-25T10:08:43Z</time></trkpt><trkpt lat="43.64678852639857" lon="11.825680783248629"><ele>308.0</ele><time>2026-04-25T10:08:44Z</time></trkpt><trkpt lat="43.646763913336045" lon="11.825804992112637"><ele>308.0</ele><time>2026-04-25T10:08:45Z</time></trkpt><trkpt lat="43.64673169494605" lon="11.825914348470716"><ele>308.0</ele><time>2026-04-25T10:08:46Z</time></trkpt><trkpt lat="43.64670785194834" lon="11.826006297563238"><ele>308.0</ele><time>2026-04-25T10:08:47Z</time></trkpt><trkpt lat="43.64669741385043" lon="11.826092963003967"><ele>308.0</ele><time>2026-04-25T10:08:48Z</time></trkpt><trkpt lat="43.6466766533016" lon="11.826177251877608"><ele>308.0</ele><time>2026-04-25T10:08:49Z</time></trkpt><trkpt lat="43.64667590119668" lon="11.826281475535941"><ele>308.0</ele><time>2026-04-25T10:08:50Z</time></trkpt><trkpt lat="43.646682093670925" lon="11.826386411538575"><ele>308.0</ele><time>2026-04-25T10:08:51Z</time></trkpt><trkpt lat="43.64668260572252" lon="11.826487300491388"><ele>307.8</ele><time>2026-04-25T10:08:52Z</time></trkpt><trkpt lat="43.64668171981189" lon="11.826593653832518"><ele>307.6</ele><time>2026-04-25T10:08:53Z</time></trkpt><trkpt lat="43.64668345961108" lon="11.826709065632778"><ele>307.4</ele><time>2026-04-25T10:08:54Z</time></trkpt><trkpt lat="43.64669318152193" lon="11.826831371975397"><ele>307.2</ele><time>2026-04-25T10:08:55Z</time></trkpt><trkpt lat="43.64670324878864" lon="11.82697165588563"><ele>307.0</ele><time>2026-04-25T10:08:56Z</time></trkpt><trkpt lat="43.64670651035266" lon="11.82712131381477"><ele>305.75</ele><time>2026-04-25T10:08:57Z</time></trkpt><trkpt lat="43.64670974184437" lon="11.827276623620195"><ele>304.5</ele><time>2026-04-25T10:08:58Z</time></trkpt><trkpt lat="43.646715363071465" lon="11.827439090145075"><ele>303.25</ele><time>2026-04-25T10:08:59Z</time></trkpt><trkpt lat="43.646720342072875" lon="11.827601816694933"><ele>302.0</ele><time>2026-04-25T10:09:00Z</time></trkpt><trkpt lat="43.64672356354561" lon="11.827762244521228"><ele>302.0</ele><time>2026-04-25T10:09:01Z</time></trkpt><trkpt lat="43.64674107796029" lon="11.827919065442378"><ele>302.0</ele><time>2026-04-25T10:09:02Z</time></trkpt><trkpt lat="43.64674091802197" lon="11.828074948508577"><ele>302.0</ele><time>2026-04-25T10:09:03Z</time></trkpt><trkpt lat="43.6467434639866" lon="11.828236561506674"><ele>302.0</ele><time>2026-04-25T10:09:04Z</time></trkpt><trkpt lat="43.6467486844146" lon="11.828394280502913"><ele>301.25</ele><time>2026-04-25T10:09:05Z</time></trkpt><trkpt lat="43.646762087099134" lon="11.828559437746462"><ele>300.5</ele><time>2026-04-25T10:09:06Z</time></trkpt><trkpt lat="43.646786458807426" lon="11.828731198025439"><ele>299.75</ele><time>2026-04-25T10:09:07Z</time></trkpt><trkpt lat="43.646819467844466" lon="11.828904667891296"><ele>299.0</ele><time>2026-04-25T10:09:08Z</time></trkpt><trkpt lat="43.64685000729306" lon="11.829082787734922"><ele>299.0</ele><time>2026-04-25T10:09:09Z</time></trkpt><trkpt lat="43.64688226809797" lon="11.829266567978385"><ele>299.0</ele><time>2026-04-25T10:09:10Z</time></trkpt><trkpt lat="43.64691324527877" lon="11.82944702930214"><ele>299.0</ele><time>2026-04-25T10:09:11Z</time></trkpt><trkpt lat="43.64694472265704" lon="11.82962192138553"><ele>299.0</ele><time>2026-04-25T10:09:12Z</time></trkpt><trkpt lat="43.646965981278086" lon="11.829800151420118"><ele>299.5</ele><time>2026-04-25T10:09:13Z</time></trkpt><trkpt lat="43.646976541166396" lon="11.82998096543576"><ele>300.0</ele><time>2026-04-25T10:09:14Z</time></trkpt><trkpt lat="43.64697761522983" lon="11.830156663983509"><ele>300.5</ele><time>2026-04-25T10:09:15Z</time></trkpt><trkpt lat="43.64697319461906" lon="11.830307964685398"><ele>301.0</ele><time>2026-04-25T10:09:16Z</time></trkpt><trkpt lat="43.64697430671618" lon="11.830449565810335"><ele>301.0</ele><time>2026-04-25T10:09:17Z</time></trkpt><trkpt lat="43.64697183447655" lon="11.830571940529166"><ele>301.0</ele><time>2026-04-25T10:09:18Z</time></trkpt><trkpt lat="43.64696516661222" lon="11.830662597611719"><ele>301.0</ele><time>2026-04-25T10:09:19Z</time></trkpt><trkpt lat="43.646957306024404" lon="11.83075254405658"><ele>301.0</ele><time>2026-04-25T10:09:21Z</time></trkpt><trkpt lat="43.647060259249855" lon="11.830860265042721"><ele>301.0</ele><time>2026-04-25T10:09:27Z</time></trkpt><trkpt lat="43.647168465012875" lon="11.830866913476884"><ele>301.0</ele><time>2026-04-25T10:09:28Z</time></trkpt><trkpt lat="43.647297630628046" lon="11.83089154549655"><ele>301.0</ele><time>2026-04-25T10:09:29Z</time></trkpt><trkpt lat="43.64742867198785" lon="11.830921015157754"><ele>301.0</ele><time>2026-04-25T10:09:30Z</time></trkpt><trkpt lat="43.64757143645815" lon="11.830949262260086"><ele>301.0</ele><time>2026-04-25T10:09:31Z</time></trkpt><trkpt lat="43.64771154350084" lon="11.830979878625216"><ele>300.75</ele><time>2026-04-25T10:09:32Z</time></trkpt><trkpt lat="43.64785702628528" lon="11.831005833518239"><ele>300.5</ele><time>2026-04-25T10:09:33Z</time></trkpt><trkpt lat="43.64800114583048" lon="11.831032276629877"><ele>300.25</ele><time>2026-04-25T10:09:34Z</time></trkpt><trkpt lat="43.64814279616649" lon="11.83105818174148"><ele>300.0</ele><time>2026-04-25T10:09:35Z</time></trkpt><trkpt lat="43.64828712031183" lon="11.83108929587643"><ele>300.0</ele><time>2026-04-25T10:09:36Z</time></trkpt><trkpt lat="43.64842542739044" lon="11.83113075153211"><ele>300.0</ele><time>2026-04-25T10:09:37Z</time></trkpt><trkpt lat="43.64856390011371" lon="11.831192096891696"><ele>300.0</ele><time>2026-04-25T10:09:38Z</time></trkpt><trkpt lat="43.6486989532324" lon="11.831274137601257"><ele>300.0</ele><time>2026-04-25T10:09:39Z</time></trkpt><trkpt lat="43.64882682993508" lon="11.831359520121568"><ele>300.75</ele><time>2026-04-25T10:09:40Z</time></trkpt><trkpt lat="43.64896294606432" lon="11.831437979615398"><ele>301.5</ele><time>2026-04-25T10:09:41Z</time></trkpt><trkpt lat="43.64909833347362" lon="11.83151137213166"><ele>302.25</ele><time>2026-04-25T10:09:42Z</time></trkpt><trkpt lat="43.64923107413767" lon="11.831588792657064"><ele>303.0</ele><time>2026-04-25T10:09:43Z</time></trkpt><trkpt lat="43.6493646816568" lon="11.831669665937191"><ele>302.0</ele><time>2026-04-25T10:09:44Z</time></trkpt><trkpt lat="43.64949026169361" lon="11.8317377533035"><ele>301.0</ele><time>2026-04-25T10:09:45Z</time></trkpt><trkpt lat="43.649626123341655" lon="11.83177840024088"><ele>300.0</ele><time>2026-04-25T10:09:46Z</time></trkpt><trkpt lat="43.649760313203096" lon="11.831800001601811"><ele>299.0</ele><time>2026-04-25T10:09:47Z</time></trkpt><trkpt lat="43.64989491795789" lon="11.831811062723826"><ele>299.0</ele><time>2026-04-25T10:09:48Z</time></trkpt><trkpt lat="43.65003373569999" lon="11.831823391493318"><ele>299.0</ele><time>2026-04-25T10:09:49Z</time></trkpt><trkpt lat="43.65017183541364" lon="11.831847850627105"><ele>299.0</ele><time>2026-04-25T10:09:50Z</time></trkpt><trkpt lat="43.65031320246742" lon="11.8318724323532"><ele>299.0</ele><time>2026-04-25T10:09:51Z</time></trkpt><trkpt lat="43.65045013653617" lon="11.831901656487238"><ele>299.5</ele><time>2026-04-25T10:09:52Z</time></trkpt><trkpt lat="43.650582731993346" lon="11.831932710901816"><ele>300.0</ele><time>2026-04-25T10:09:53Z</time></trkpt><trkpt lat="43.650714807956696" lon="11.83195905570451"><ele>300.5</ele><time>2026-04-25T10:09:54Z</time></trkpt><trkpt lat="43.65083942493076" lon="11.831982786905836"><ele>301.0</ele><time>2026-04-25T10:09:55Z</time></trkpt><trkpt lat="43.65095433780756" lon="11.832009321909576"><ele>301.0</ele><time>2026-04-25T10:09:56Z</time></trkpt><trkpt lat="43.65105873088823" lon="11.832033664256814"><ele>301.0</ele><time>2026-04-25T10:09:57Z</time></trkpt><trkpt lat="43.65115360009306" lon="11.832064600258668"><ele>301.0</ele><time>2026-04-25T10:09:58Z</time></trkpt><trkpt lat="43.651238722905525" lon="11.832106512357"><ele>301.0</ele><time>2026-04-25T10:09:59Z</time></trkpt><trkpt lat="43.65130277684212" lon="11.832191515731232"><ele>301.0</ele><time>2026-04-25T10:10:00Z</time></trkpt><trkpt lat="43.65131822576354" lon="11.832297518247763"><ele>300.5</ele><time>2026-04-25T10:10:01Z</time></trkpt><trkpt lat="43.651292742150474" lon="11.832414285899828"><ele>300.0</ele><time>2026-04-25T10:10:02Z</time></trkpt><trkpt lat="43.651260654549084" lon="11.83252781027974"><ele>299.5</ele><time>2026-04-25T10:10:03Z</time></trkpt><trkpt lat="43.65123675742693" lon="11.83264476897189"><ele>299.0</ele><time>2026-04-25T10:10:04Z</time></trkpt><trkpt lat="43.651216426565384" lon="11.832762694972672"><ele>298.5</ele><time>2026-04-25T10:10:05Z</time></trkpt><trkpt lat="43.65120064856345" lon="11.832882190046899"><ele>298.0</ele><time>2026-04-25T10:10:06Z</time></trkpt><trkpt lat="43.651183977255926" lon="11.833003688208443"><ele>298.0</ele><time>2026-04-25T10:10:07Z</time></trkpt><trkpt lat="43.65116799731915" lon="11.833122286691282"><ele>298.0</ele><time>2026-04-25T10:10:08Z</time></trkpt><trkpt lat="43.651151084908484" lon="11.833239382702967"><ele>298.0</ele><time>2026-04-25T10:10:09Z</time></trkpt><trkpt lat="43.651129878445424" lon="11.833368761983708"><ele>298.0</ele><time>2026-04-25T10:10:10Z</time></trkpt><trkpt lat="43.65110576012466" lon="11.833501586628373"><ele>298.0</ele><time>2026-04-25T10:10:11Z</time></trkpt><trkpt lat="43.651084273117775" lon="11.833624679960366"><ele>299.0</ele><time>2026-04-25T10:10:12Z</time></trkpt><trkpt lat="43.6510680722376" lon="11.833752032602778"><ele>300.0</ele><time>2026-04-25T10:10:13Z</time></trkpt><trkpt lat="43.651054523678575" lon="11.83388124717235"><ele>301.0</ele><time>2026-04-25T10:10:14Z</time></trkpt><trkpt lat="43.651042116655006" lon="11.834028567773302"><ele>302.0</ele><time>2026-04-25T10:10:15Z</time></trkpt><trkpt lat="43.65102483603473" lon="11.834172895759089"><ele>303.0</ele><time>2026-04-25T10:10:16Z</time></trkpt><trkpt lat="43.651009379471006" lon="11.83431624382974"><ele>303.0</ele><time>2026-04-25T10:10:17Z</time></trkpt><trkpt lat="43.650997923306846" lon="11.834443318248457"><ele>303.0</ele><time>2026-04-25T10:10:18Z</time></trkpt><trkpt lat="43.65098538124114" lon="11.83457436093472"><ele>303.0</ele><time>2026-04-25T10:10:19Z</time></trkpt><trkpt lat="43.6509705522607" lon="11.834686689053656"><ele>303.0</ele><time>2026-04-25T10:10:20Z</time></trkpt><trkpt lat="43.650963335721315" lon="11.83478770177648"><ele>303.0</ele><time>2026-04-25T10:10:21Z</time></trkpt><trkpt lat="43.650950426012194" lon="11.83491696494617"><ele>303.0</ele><time>2026-04-25T10:10:23Z</time></trkpt><trkpt lat="43.65088647509152" lon="11.834976954734922"><ele>303.0</ele><time>2026-04-25T10:10:26Z</time></trkpt><trkpt lat="43.650734984330626" lon="11.834941333637603"><ele>303.0</ele><time>2026-04-25T10:10:28Z</time></trkpt><trkpt lat="43.65064709615683" lon="11.834899291552343"><ele>303.0</ele><time>2026-04-25T10:10:29Z</time></trkpt><trkpt lat="43.65054312822984" lon="11.834855249396716"><ele>303.0</ele><time>2026-04-25T10:10:30Z</time></trkpt><trkpt lat="43.650434147528784" lon="11.834806058022917"><ele>303.0</ele><time>2026-04-25T10:10:31Z</time></trkpt><trkpt lat="43.65032364417999" lon="11.834760979768877"><ele>303.0</ele><time>2026-04-25T10:10:32Z</time></trkpt><trkpt lat="43.650206096467834" lon="11.834717588741174"><ele>303.0</ele><time>2026-04-25T10:10:33Z</time></trkpt><trkpt lat="43.65009162161909" lon="11.834679161961244"><ele>303.0</ele><time>2026-04-25T10:10:34Z</time></trkpt><trkpt lat="43.64997637133763" lon="11.834649318355972"><ele>303.25</ele><time>2026-04-25T10:10:35Z</time></trkpt><trkpt lat="43.64985382395305" lon="11.8346373181765"><ele>303.5</ele><time>2026-04-25T10:10:36Z</time></trkpt><trkpt lat="43.64972482413303" lon="11.834640273940744"><ele>303.75</ele><time>2026-04-25T10:10:37Z</time></trkpt><trkpt lat="43.6495943356304" lon="11.834648482177128"><ele>304.0</ele><time>2026-04-25T10:10:38Z</time></trkpt><trkpt lat="43.649461982619066" lon="11.834658084963008"><ele>304.0</ele><time>2026-04-25T10:10:39Z</time></trkpt><trkpt lat="43.649330597302644" lon="11.834675600424937"><ele>304.0</ele><time>2026-04-25T10:10:40Z</time></trkpt><trkpt lat="43.6492002121992" lon="11.834687187327347"><ele>304.0</ele><time>2026-04-25T10:10:41Z</time></trkpt><trkpt lat="43.6490756671984" lon="11.83469595624911"><ele>304.0</ele><time>2026-04-25T10:10:42Z</time></trkpt><trkpt lat="43.64894888401665" lon="11.83471121611656"><ele>304.0</ele><time>2026-04-25T10:10:43Z</time></trkpt><trkpt lat="43.64882239362324" lon="11.8347271542447"><ele>304.0</ele><time>2026-04-25T10:10:44Z</time></trkpt><trkpt lat="43.64869283809627" lon="11.83474342710169"><ele>304.0</ele><time>2026-04-25T10:10:45Z</time></trkpt><trkpt lat="43.64855897240973" lon="11.834758682260997"><ele>304.0</ele><time>2026-04-25T10:10:46Z</time></trkpt><trkpt lat="43.6484213919348" lon="11.834774136340492"><ele>304.0</ele><time>2026-04-25T10:10:47Z</time></trkpt><trkpt lat="43.6482828280354" lon="11.834789640032524"><ele>304.0</ele><time>2026-04-25T10:10:48Z</time></trkpt><trkpt lat="43.648140773763345" lon="11.83480083381437"><ele>304.0</ele><time>2026-04-25T10:10:49Z</time></trkpt><trkpt lat="43.647999597379616" lon="11.834815288715701"><ele>304.0</ele><time>2026-04-25T10:10:50Z</time></trkpt><trkpt lat="43.64785438791656" lon="11.834830774741478"><ele>303.5</ele><time>2026-04-25T10:10:51Z</time></trkpt><trkpt lat="43.64770953825408" lon="11.834843234776347"><ele>303.0</ele><time>2026-04-25T10:10:52Z</time></trkpt><trkpt lat="43.64756472742234" lon="11.83485885566316"><ele>302.5</ele><time>2026-04-25T10:10:53Z</time></trkpt><trkpt lat="43.64741610137108" lon="11.83487145075443"><ele>302.0</ele><time>2026-04-25T10:10:54Z</time></trkpt><trkpt lat="43.64726900827061" lon="11.834887662221584"><ele>302.0</ele><time>2026-04-25T10:10:55Z</time></trkpt><trkpt lat="43.647125042642365" lon="11.834905062594396"><ele>302.0</ele><time>2026-04-25T10:10:56Z</time></trkpt><trkpt lat="43.646979920862194" lon="11.834922745837805"><ele>302.0</ele><time>2026-04-25T10:10:57Z</time></trkpt><trkpt lat="43.646836746143634" lon="11.83494169680148"><ele>302.0</ele><time>2026-04-25T10:10:58Z</time></trkpt><trkpt lat="43.64668861367331" lon="11.834957033429912"><ele>301.5</ele><time>2026-04-25T10:10:59Z</time></trkpt><trkpt lat="43.64654074510435" lon="11.83496910648733"><ele>301.0</ele><time>2026-04-25T10:11:00Z</time></trkpt><trkpt lat="43.64639607208487" lon="11.834983797132935"><ele>300.5</ele><time>2026-04-25T10:11:01Z</time></trkpt><trkpt lat="43.64624694694947" lon="11.835000493404719"><ele>300.0</ele><time>2026-04-25T10:11:02Z</time></trkpt><trkpt lat="43.64609731134751" lon="11.835010967620704"><ele>300.8</ele><time>2026-04-25T10:11:03Z</time></trkpt><trkpt lat="43.645959927359854" lon="11.835024881658471"><ele>301.6</ele><time>2026-04-25T10:11:04Z</time></trkpt><trkpt lat="43.64584639779869" lon="11.83504471911745"><ele>302.4</ele><time>2026-04-25T10:11:05Z</time></trkpt><trkpt lat="43.64574662713461" lon="11.835031897440864"><ele>303.2</ele><time>2026-04-25T10:11:06Z</time></trkpt><trkpt lat="43.645673030535555" lon="11.835038139276065"><ele>304.0</ele><time>2026-04-25T10:11:07Z</time></trkpt><trkpt lat="43.64574234241589" lon="11.835246220458007"><ele>304.8</ele><time>2026-04-25T10:11:11Z</time></trkpt><trkpt lat="43.645841186473945" lon="11.835249888516902"><ele>305.59999999999997</ele><time>2026-04-25T10:11:12Z</time></trkpt><trkpt lat="43.64593513306344" lon="11.83524604139184"><ele>306.4</ele><time>2026-04-25T10:11:13Z</time></trkpt><trkpt lat="43.645996858045415" lon="11.8352682611194"><ele>307.2</ele><time>2026-04-25T10:11:14Z</time></trkpt><trkpt lat="43.646066348453544" lon="11.835462547879855"><ele>308.0</ele><time>2026-04-25T10:11:16Z</time></trkpt><trkpt lat="43.646079351612066" lon="11.835605637401706"><ele>308.0</ele><time>2026-04-25T10:11:17Z</time></trkpt><trkpt lat="43.646091730552975" lon="11.835753505914965"><ele>308.0</ele><time>2026-04-25T10:11:18Z</time></trkpt><trkpt lat="43.646107569219694" lon="11.835902360850389"><ele>308.0</ele><time>2026-04-25T10:11:19Z</time></trkpt><trkpt lat="43.646102882213384" lon="11.836052800439175"><ele>308.0</ele><time>2026-04-25T10:11:20Z</time></trkpt><trkpt lat="43.646117221382546" lon="11.83619772107501"><ele>308.0</ele><time>2026-04-25T10:11:21Z</time></trkpt><trkpt lat="43.646130496719174" lon="11.836323740051737"><ele>308.8</ele><time>2026-04-25T10:11:22Z</time></trkpt><trkpt lat="43.646173368458065" lon="11.836431163124226"><ele>309.6</ele><time>2026-04-25T10:11:23Z</time></trkpt><trkpt lat="43.64622354781129" lon="11.836526711425078"><ele>310.4</ele><time>2026-04-25T10:11:24Z</time></trkpt><trkpt lat="43.646307114751984" lon="11.836572136532805"><ele>311.2</ele><time>2026-04-25T10:11:25Z</time></trkpt><trkpt lat="43.64641495090506" lon="11.836585965313962"><ele>312.0</ele><time>2026-04-25T10:11:26Z</time></trkpt><trkpt lat="43.6465421996654" lon="11.836591093032881"><ele>312.0</ele><time>2026-04-25T10:11:27Z</time></trkpt><trkpt lat="43.64667321229473" lon="11.836613824292028"><ele>312.0</ele><time>2026-04-25T10:11:28Z</time></trkpt><trkpt lat="43.64680227073712" lon="11.836646709143302"><ele>312.0</ele><time>2026-04-25T10:11:29Z</time></trkpt><trkpt lat="43.64693133133075" lon="11.836681299238315"><ele>312.0</ele><time>2026-04-25T10:11:30Z</time></trkpt><trkpt lat="43.647058821462714" lon="11.836725660265655"><ele>312.25</ele><time>2026-04-25T10:11:31Z</time></trkpt><trkpt lat="43.64718505769335" lon="11.83677603888084"><ele>312.5</ele><time>2026-04-25T10:11:32Z</time></trkpt><trkpt lat="43.64731275132741" lon="11.836832391682451"><ele>312.75</ele><time>2026-04-25T10:11:33Z</time></trkpt><trkpt lat="43.64743434078032" lon="11.836890812245349"><ele>313.0</ele><time>2026-04-25T10:11:34Z</time></trkpt><trkpt lat="43.64755998892949" lon="11.836948583164263"><ele>315.75</ele><time>2026-04-25T10:11:35Z</time></trkpt><trkpt lat="43.647678646700754" lon="11.837016914080648"><ele>318.5</ele><time>2026-04-25T10:11:36Z</time></trkpt><trkpt lat="43.64779162194152" lon="11.837088673586601"><ele>321.25</ele><time>2026-04-25T10:11:37Z</time></trkpt><trkpt lat="43.64790207855838" lon="11.837192302872321"><ele>324.0</ele><time>2026-04-25T10:11:38Z</time></trkpt><trkpt lat="43.64800220037826" lon="11.83731627385292"><ele>324.0</ele><time>2026-04-25T10:11:39Z</time></trkpt><trkpt lat="43.648103573621995" lon="11.83742973133467"><ele>324.0</ele><time>2026-04-25T10:11:40Z</time></trkpt><trkpt lat="43.64821547246734" lon="11.837527006282011"><ele>324.0</ele><time>2026-04-25T10:11:41Z</time></trkpt><trkpt lat="43.64833385664639" lon="11.837596510840557"><ele>324.0</ele><time>2026-04-25T10:11:42Z</time></trkpt><trkpt lat="43.64846704416838" lon="11.837619634919928"><ele>324.0</ele><time>2026-04-25T10:11:43Z</time></trkpt><trkpt lat="43.64859949052889" lon="11.83760071094791"><ele>324.0</ele><time>2026-04-25T10:11:44Z</time></trkpt><trkpt lat="43.64873229423027" lon="11.837580573115526"><ele>324.0</ele><time>2026-04-25T10:11:45Z</time></trkpt><trkpt lat="43.64886727013112" lon="11.837568231506712"><ele>324.0</ele><time>2026-04-25T10:11:46Z</time></trkpt><trkpt lat="43.64900357558045" lon="11.837558549799766"><ele>324.5</ele><time>2026-04-25T10:11:47Z</time></trkpt><trkpt lat="43.64913816113787" lon="11.837553243595936"><ele>325.0</ele><time>2026-04-25T10:11:48Z</time></trkpt><trkpt lat="43.64926898531001" lon="11.8375447039199"><ele>325.5</ele><time>2026-04-25T10:11:49Z</time></trkpt><trkpt lat="43.64940210550929" lon="11.837533259301946"><ele>326.0</ele><time>2026-04-25T10:11:50Z</time></trkpt><trkpt lat="43.64953471707808" lon="11.837534019924652"><ele>326.5</ele><time>2026-04-25T10:11:51Z</time></trkpt><trkpt lat="43.64967224769293" lon="11.837530244416133"><ele>327.0</ele><time>2026-04-25T10:11:52Z</time></trkpt><trkpt lat="43.649792341743265" lon="11.83756818348718"><ele>327.5</ele><time>2026-04-25T10:11:53Z</time></trkpt><trkpt lat="43.6498913487558" lon="11.837595355137259"><ele>328.0</ele><time>2026-04-25T10:11:54Z</time></trkpt><trkpt lat="43.650006119653355" lon="11.837634308791145"><ele>329.75</ele><time>2026-04-25T10:11:55Z</time></trkpt><trkpt lat="43.65012004298655" lon="11.837670166975595"><ele>331.5</ele><time>2026-04-25T10:11:56Z</time></trkpt><trkpt lat="43.65023314451437" lon="11.837735428919423"><ele>333.25</ele><time>2026-04-25T10:11:57Z</time></trkpt><trkpt lat="43.650336603480376" lon="11.837820001286598"><ele>335.0</ele><time>2026-04-25T10:11:58Z</time></trkpt><trkpt lat="43.650398562199676" lon="11.837925308288952"><ele>335.0</ele><time>2026-04-25T10:11:59Z</time></trkpt><trkpt lat="43.65039141122659" lon="11.838069791045118"><ele>335.0</ele><time>2026-04-25T10:12:00Z</time></trkpt><trkpt lat="43.65040496775557" lon="11.838226518067382"><ele>335.0</ele><time>2026-04-25T10:12:01Z</time></trkpt><trkpt lat="43.650416400335104" lon="11.838404038346086"><ele>335.0</ele><time>2026-04-25T10:12:02Z</time></trkpt><trkpt lat="43.65043469659203" lon="11.838598234468321"><ele>337.0</ele><time>2026-04-25T10:12:03Z</time></trkpt><trkpt lat="43.65045016086368" lon="11.838788718234731"><ele>339.0</ele><time>2026-04-25T10:12:04Z</time></trkpt><trkpt lat="43.65046471392973" lon="11.838970895395159"><ele>341.0</ele><time>2026-04-25T10:12:05Z</time></trkpt><trkpt lat="43.65049083075187" lon="11.839111943668822"><ele>343.0</ele><time>2026-04-25T10:12:06Z</time></trkpt><trkpt lat="43.650555151825046" lon="11.839215048287004"><ele>343.0</ele><time>2026-04-25T10:12:07Z</time></trkpt><trkpt lat="43.65065666203319" lon="11.839289817013086"><ele>343.0</ele><time>2026-04-25T10:12:08Z</time></trkpt><trkpt lat="43.65077928806117" lon="11.839334578795315"><ele>343.0</ele><time>2026-04-25T10:12:09Z</time></trkpt><trkpt lat="43.65091038845191" lon="11.83935688334651"><ele>343.0</ele><time>2026-04-25T10:12:10Z</time></trkpt><trkpt lat="43.651035966592225" lon="11.839407890520503"><ele>341.59999999999997</ele><time>2026-04-25T10:12:11Z</time></trkpt><trkpt lat="43.65113974880888" lon="11.839470405990443"><ele>340.2</ele><time>2026-04-25T10:12:12Z</time></trkpt><trkpt lat="43.65121172883934" lon="11.839542608967824"><ele>338.8</ele><time>2026-04-25T10:12:13Z</time></trkpt><trkpt lat="43.651243239345085" lon="11.839633437940595"><ele>337.4</ele><time>2026-04-25T10:12:14Z</time></trkpt><trkpt lat="43.65121735005814" lon="11.839745526755378"><ele>336.0</ele><time>2026-04-25T10:12:15Z</time></trkpt><trkpt lat="43.651176120672936" lon="11.839855510894978"><ele>339.8</ele><time>2026-04-25T10:12:16Z</time></trkpt><trkpt lat="43.651087496064655" lon="11.839910068978904"><ele>343.6</ele><time>2026-04-25T10:12:17Z</time></trkpt><trkpt lat="43.65098236283443" lon="11.839903145014853"><ele>347.4</ele><time>2026-04-25T10:12:18Z</time></trkpt><trkpt lat="43.65087233081106" lon="11.839841571043126"><ele>351.2</ele><time>2026-04-25T10:12:19Z</time></trkpt><trkpt lat="43.65075256622343" lon="11.839837705781207"><ele>355.0</ele><time>2026-04-25T10:12:20Z</time></trkpt><trkpt lat="43.650651660767316" lon="11.839819006523205"><ele>355.0</ele><time>2026-04-25T10:12:21Z</time></trkpt><trkpt lat="43.65055339416917" lon="11.839863207364484"><ele>355.0</ele><time>2026-04-25T10:12:22Z</time></trkpt><trkpt lat="43.65045139765108" lon="11.839948328862148"><ele>355.0</ele><time>2026-04-25T10:12:23Z</time></trkpt><trkpt lat="43.65033289163615" lon="11.840024284710786"><ele>355.0</ele><time>2026-04-25T10:12:24Z</time></trkpt><trkpt lat="43.65022041125062" lon="11.840108187401512"><ele>359.0</ele><time>2026-04-25T10:12:25Z</time></trkpt><trkpt lat="43.65010427951677" lon="11.840189979893486"><ele>363.0</ele><time>2026-04-25T10:12:26Z</time></trkpt><trkpt lat="43.64998613000102" lon="11.84027286578098"><ele>367.0</ele><time>2026-04-25T10:12:27Z</time></trkpt><trkpt lat="43.64987081426379" lon="11.84035647189504"><ele>371.0</ele><time>2026-04-25T10:12:28Z</time></trkpt><trkpt lat="43.64975429741648" lon="11.84044179458003"><ele>371.0</ele><time>2026-04-25T10:12:29Z</time></trkpt><trkpt lat="43.64964601211656" lon="11.840543099169656"><ele>371.0</ele><time>2026-04-25T10:12:30Z</time></trkpt><trkpt lat="43.64952692433997" lon="11.840617440992052"><ele>371.0</ele><time>2026-04-25T10:12:31Z</time></trkpt><trkpt lat="43.64940794714562" lon="11.840703318248137"><ele>371.0</ele><time>2026-04-25T10:12:32Z</time></trkpt><trkpt lat="43.649282657880036" lon="11.840767636944198"><ele>371.0</ele><time>2026-04-25T10:12:33Z</time></trkpt><trkpt lat="43.64916331024667" lon="11.840843613117464"><ele>371.0</ele><time>2026-04-25T10:12:34Z</time></trkpt><trkpt lat="43.64904730818446" lon="11.840913608232096"><ele>371.0</ele><time>2026-04-25T10:12:35Z</time></trkpt><trkpt lat="43.64892511074116" lon="11.840979039149433"><ele>371.0</ele><time>2026-04-25T10:12:36Z</time></trkpt><trkpt lat="43.6488092476574" lon="11.841060715203472"><ele>373.0</ele><time>2026-04-25T10:12:37Z</time></trkpt><trkpt lat="43.64867959487377" lon="11.841103480583932"><ele>375.0</ele><time>2026-04-25T10:12:38Z</time></trkpt><trkpt lat="43.64855547287151" lon="11.841166053890918"><ele>377.0</ele><time>2026-04-25T10:12:39Z</time></trkpt><trkpt lat="43.64842883739337" lon="11.841235369044314"><ele>379.0</ele><time>2026-04-25T10:12:40Z</time></trkpt><trkpt lat="43.6483046452824" lon="11.841324608944081"><ele>380.75</ele><time>2026-04-25T10:12:41Z</time></trkpt><trkpt lat="43.6481743376503" lon="11.841390361678803"><ele>382.5</ele><time>2026-04-25T10:12:42Z</time></trkpt><trkpt lat="43.648041923004676" lon="11.84145679417951"><ele>384.25</ele><time>2026-04-25T10:12:43Z</time></trkpt><trkpt lat="43.6479109543901" lon="11.841516896806459"><ele>386.0</ele><time>2026-04-25T10:12:44Z</time></trkpt><trkpt lat="43.64778345543817" lon="11.841572571590463"><ele>387.0</ele><time>2026-04-25T10:12:45Z</time></trkpt><trkpt lat="43.64766077882824" lon="11.84158770167915"><ele>388.0</ele><time>2026-04-25T10:12:46Z</time></trkpt><trkpt lat="43.64755295219372" lon="11.841577995514891"><ele>389.0</ele><time>2026-04-25T10:12:47Z</time></trkpt><trkpt lat="43.64744981461182" lon="11.841513812466163"><ele>390.0</ele><time>2026-04-25T10:12:48Z</time></trkpt><trkpt lat="43.6473380810023" lon="11.841433158729547"><ele>390.0</ele><time>2026-04-25T10:12:49Z</time></trkpt><trkpt lat="43.6472157136444" lon="11.841363863942595"><ele>390.0</ele><time>2026-04-25T10:12:50Z</time></trkpt><trkpt lat="43.64710877308714" lon="11.841278468455673"><ele>390.0</ele><time>2026-04-25T10:12:51Z</time></trkpt><trkpt lat="43.6470194993432" lon="11.841232866508454"><ele>390.0</ele><time>2026-04-25T10:12:52Z</time></trkpt><trkpt lat="43.64692429858886" lon="11.84124576008303"><ele>390.0</ele><time>2026-04-25T10:12:53Z</time></trkpt><trkpt lat="43.64683612037188" lon="11.841312885153465"><ele>391.25</ele><time>2026-04-25T10:12:54Z</time></trkpt><trkpt lat="43.646764985013625" lon="11.841430315271953"><ele>392.5</ele><time>2026-04-25T10:12:55Z</time></trkpt><trkpt lat="43.64669715736096" lon="11.841585788389803"><ele>393.75</ele><time>2026-04-25T10:12:56Z</time></trkpt><trkpt lat="43.646600030015655" lon="11.84172685034806"><ele>395.0</ele><time>2026-04-25T10:12:57Z</time></trkpt><trkpt lat="43.64650904841655" lon="11.841880854191672"><ele>397.25</ele><time>2026-04-25T10:12:58Z</time></trkpt><trkpt lat="43.6464240946763" lon="11.84202465465952"><ele>399.5</ele><time>2026-04-25T10:12:59Z</time></trkpt><trkpt lat="43.64634204810109" lon="11.842162401932852"><ele>401.75</ele><time>2026-04-25T10:13:00Z</time></trkpt><trkpt lat="43.646277152315776" lon="11.842311196047994"><ele>404.0</ele><time>2026-04-25T10:13:01Z</time></trkpt><trkpt lat="43.64622906903613" lon="11.84243736430822"><ele>404.0</ele><time>2026-04-25T10:13:02Z</time></trkpt><trkpt lat="43.646213301659664" lon="11.84257209336144"><ele>404.0</ele><time>2026-04-25T10:13:03Z</time></trkpt><trkpt lat="43.64624748166633" lon="11.842697268007313"><ele>404.0</ele><time>2026-04-25T10:13:04Z</time></trkpt><trkpt lat="43.646324097039965" lon="11.842803215685667"><ele>404.0</ele><time>2026-04-25T10:13:05Z</time></trkpt><trkpt lat="43.64642829737499" lon="11.842886699626808"><ele>404.0</ele><time>2026-04-25T10:13:06Z</time></trkpt><trkpt lat="43.646546781055285" lon="11.842975852136137"><ele>407.25</ele><time>2026-04-25T10:13:07Z</time></trkpt><trkpt lat="43.64665819154173" lon="11.843077148607925"><ele>410.5</ele><time>2026-04-25T10:13:08Z</time></trkpt><trkpt lat="43.64676551455907" lon="11.84318676349501"><ele>413.75</ele><time>2026-04-25T10:13:09Z</time></trkpt><trkpt lat="43.64687069301246" lon="11.843287959035692"><ele>417.0</ele><time>2026-04-25T10:13:10Z</time></trkpt><trkpt lat="43.64695869388482" lon="11.84337621594078"><ele>416.3333333333333</ele><time>2026-04-25T10:13:11Z</time></trkpt><trkpt lat="43.647031244865566" lon="11.843447509346502"><ele>415.66666666666663</ele><time>2026-04-25T10:13:12Z</time></trkpt><trkpt lat="43.64707943141667" lon="11.843520299336321"><ele>415.0</ele><time>2026-04-25T10:13:13Z</time></trkpt><trkpt lat="43.64705215185062" lon="11.843599909409"><ele>414.3333333333333</ele><time>2026-04-25T10:13:14Z</time></trkpt><trkpt lat="43.646951943291214" lon="11.843593395081195"><ele>413.66666666666663</ele><time>2026-04-25T10:13:16Z</time></trkpt><trkpt lat="43.646883074873024" lon="11.84361364092707"><ele>413.0</ele><time>2026-04-25T10:13:17Z</time></trkpt><trkpt lat="43.64681753445811" lon="11.8436450199565"><ele>415.42857142857144</ele><time>2026-04-25T10:13:18Z</time></trkpt><trkpt lat="43.64676930239547" lon="11.843711453625218"><ele>417.8571428571429</ele><time>2026-04-25T10:13:19Z</time></trkpt><trkpt lat="43.64670655179641" lon="11.84373879216118"><ele>420.2857142857143</ele><time>2026-04-25T10:13:20Z</time></trkpt><trkpt lat="43.64665810529066" lon="11.843800676428422"><ele>422.7142857142857</ele><time>2026-04-25T10:13:21Z</time></trkpt><trkpt lat="43.64660402483221" lon="11.843849926739438"><ele>425.14285714285717</ele><time>2026-04-25T10:13:22Z</time></trkpt><trkpt lat="43.646545530289586" lon="11.843895657542902"><ele>427.57142857142856</ele><time>2026-04-25T10:13:23Z</time></trkpt><trkpt lat="43.64648209573451" lon="11.84392547198957"><ele>430.0</ele><time>2026-04-25T10:13:24Z</time></trkpt><trkpt lat="43.64642469403151" lon="11.843972831417865"><ele>430.0</ele><time>2026-04-25T10:13:25Z</time></trkpt><trkpt lat="43.646368166253886" lon="11.84401690078811"><ele>430.0</ele><time>2026-04-25T10:13:26Z</time></trkpt><trkpt lat="43.646273175460855" lon="11.844088331703428"><ele>430.0</ele><time>2026-04-25T10:13:28Z</time></trkpt><trkpt lat="43.646187074474454" lon="11.844172587338768"><ele>430.0</ele><time>2026-04-25T10:13:30Z</time></trkpt><trkpt lat="43.64609711126191" lon="11.844254915371279"><ele>430.0</ele><time>2026-04-25T10:13:32Z</time></trkpt><trkpt lat="43.64599671461742" lon="11.844316113317708"><ele>431.4</ele><time>2026-04-25T10:13:34Z</time></trkpt><trkpt lat="43.645898029650205" lon="11.844379485985554"><ele>432.8</ele><time>2026-04-25T10:13:36Z</time></trkpt><trkpt lat="43.64581429296214" lon="11.844456712955324"><ele>434.20000000000005</ele><time>2026-04-25T10:13:38Z</time></trkpt><trkpt lat="43.64578737656609" lon="11.844606612785718"><ele>435.6</ele><time>2026-04-25T10:13:40Z</time></trkpt><trkpt lat="43.64584135073769" lon="11.844762294499033"><ele>437.0</ele><time>2026-04-25T10:13:42Z</time></trkpt><trkpt lat="43.64584010280334" lon="11.844873866370815"><ele>437.0</ele><time>2026-04-25T10:13:43Z</time></trkpt><trkpt lat="43.645851346602235" lon="11.844967461168597"><ele>437.0</ele><time>2026-04-25T10:13:44Z</time></trkpt><trkpt lat="43.64587601223392" lon="11.845083376385407"><ele>437.0</ele><time>2026-04-25T10:13:45Z</time></trkpt><trkpt lat="43.64589454841857" lon="11.845173606497633"><ele>437.0</ele><time>2026-04-25T10:13:46Z</time></trkpt><trkpt lat="43.6458963578293" lon="11.845276427496627"><ele>437.0</ele><time>2026-04-25T10:13:47Z</time></trkpt><trkpt lat="43.645927878664544" lon="11.845368594282219"><ele>437.0</ele><time>2026-04-25T10:13:48Z</time></trkpt><trkpt lat="43.645931865558815" lon="11.8454706563521"><ele>437.0</ele><time>2026-04-25T10:13:49Z</time></trkpt><trkpt lat="43.64596679281698" lon="11.84556868942164"><ele>438.16666666666663</ele><time>2026-04-25T10:13:50Z</time></trkpt><trkpt lat="43.645971467602266" lon="11.845682556535806"><ele>439.3333333333333</ele><time>2026-04-25T10:13:51Z</time></trkpt><trkpt lat="43.64598979367997" lon="11.845793165049814"><ele>440.5</ele><time>2026-04-25T10:13:52Z</time></trkpt><trkpt lat="43.64602279574048" lon="11.845900666949076"><ele>441.66666666666663</ele><time>2026-04-25T10:13:53Z</time></trkpt><trkpt lat="43.64603588669602" lon="11.846030770716188"><ele>442.8333333333333</ele><time>2026-04-25T10:13:54Z</time></trkpt><trkpt lat="43.64605358972835" lon="11.846126537912557"><ele>444.0</ele><time>2026-04-25T10:13:55Z</time></trkpt><trkpt lat="43.64605804645226" lon="11.846227196247629"><ele>444.8333333333333</ele><time>2026-04-25T10:13:56Z</time></trkpt><trkpt lat="43.64607336122593" lon="11.84632639288342"><ele>445.66666666666663</ele><time>2026-04-25T10:13:57Z</time></trkpt><trkpt lat="43.64604187857255" lon="11.846417003736986"><ele>446.5</ele><time>2026-04-25T10:13:59Z</time></trkpt><trkpt lat="43.64598545131876" lon="11.846520328239897"><ele>447.3333333333333</ele><time>2026-04-25T10:14:18Z</time></trkpt><trkpt lat="43.64592860600037" lon="11.846594490729759"><ele>448.16666666666663</ele><time>2026-04-25T10:14:19Z</time></trkpt><trkpt lat="43.64585339958324" lon="11.846664977421451"><ele>449.0</ele><time>2026-04-25T10:14:20Z</time></trkpt><trkpt lat="43.64574531454873" lon="11.846690736430615"><ele>449.0</ele><time>2026-04-25T10:14:21Z</time></trkpt><trkpt lat="43.645667553009176" lon="11.846788652883822"><ele>449.0</ele><time>2026-04-25T10:14:22Z</time></trkpt><trkpt lat="43.645598958827044" lon="11.846891736424109"><ele>449.0</ele><time>2026-04-25T10:14:23Z</time></trkpt><trkpt lat="43.64553542822693" lon="11.846988648131976"><ele>449.0</ele><time>2026-04-25T10:14:24Z</time></trkpt><trkpt lat="43.645493508749794" lon="11.847124444028026"><ele>449.0</ele><time>2026-04-25T10:14:25Z</time></trkpt><trkpt lat="43.64543596723277" lon="11.847224614308793"><ele>448.8333333333333</ele><time>2026-04-25T10:14:26Z</time></trkpt><trkpt lat="43.645392876147845" lon="11.847309928283364"><ele>448.66666666666663</ele><time>2026-04-25T10:14:27Z</time></trkpt><trkpt lat="43.64533730980017" lon="11.847362887260877"><ele>448.5</ele><time>2026-04-25T10:14:29Z</time></trkpt><trkpt lat="43.6452760714502" lon="11.847459534658066"><ele>448.33333333333337</ele><time>2026-04-25T10:14:32Z</time></trkpt><trkpt lat="43.64521786894218" lon="11.847553369641568"><ele>448.1666666666667</ele><time>2026-04-25T10:14:33Z</time></trkpt><trkpt lat="43.645134430661976" lon="11.847655298441381"><ele>448.0</ele><time>2026-04-25T10:14:34Z</time></trkpt><trkpt lat="43.64504781890157" lon="11.847765764367056"><ele>449.59999999999997</ele><time>2026-04-25T10:14:35Z</time></trkpt><trkpt lat="43.64497675011183" lon="11.847849478725026"><ele>451.19999999999993</ele><time>2026-04-25T10:14:36Z</time></trkpt><trkpt lat="43.64489980792307" lon="11.84794023593642"><ele>452.8</ele><time>2026-04-25T10:14:37Z</time></trkpt><trkpt lat="43.644844750544614" lon="11.848044765401529"><ele>454.4</ele><time>2026-04-25T10:14:38Z</time></trkpt><trkpt lat="43.6447534712351" lon="11.848121730240186"><ele>456.0</ele><time>2026-04-25T10:14:39Z</time></trkpt><trkpt lat="43.64466482607608" lon="11.848176261728417"><ele>456.0</ele><time>2026-04-25T10:14:40Z</time></trkpt><trkpt lat="43.6445761509688" lon="11.848224001221237"><ele>456.0</ele><time>2026-04-25T10:14:41Z</time></trkpt><trkpt lat="43.64448553657689" lon="11.848310299019298"><ele>456.0</ele><time>2026-04-25T10:14:42Z</time></trkpt><trkpt lat="43.64441824374488" lon="11.848400911571893"><ele>456.0</ele><time>2026-04-25T10:14:43Z</time></trkpt><trkpt lat="43.64435155726408" lon="11.848453900525932"><ele>456.0</ele><time>2026-04-25T10:14:44Z</time></trkpt><trkpt lat="43.64424118370507" lon="11.848536190620349"><ele>457.8</ele><time>2026-04-25T10:14:45Z</time></trkpt><trkpt lat="43.644150156424224" lon="11.848609314045065"><ele>459.6</ele><time>2026-04-25T10:14:46Z</time></trkpt><trkpt lat="43.644072636913734" lon="11.848638430257532"><ele>461.4</ele><time>2026-04-25T10:14:47Z</time></trkpt><trkpt lat="43.644003216982334" lon="11.848694236644917"><ele>463.2</ele><time>2026-04-25T10:14:48Z</time></trkpt><trkpt lat="43.643945895056625" lon="11.848818391461926"><ele>465.0</ele><time>2026-04-25T10:14:49Z</time></trkpt><trkpt lat="43.643844890755936" lon="11.848926862629263"><ele>465.0</ele><time>2026-04-25T10:14:50Z</time></trkpt><trkpt lat="43.64374755311433" lon="11.849006927010109"><ele>465.0</ele><time>2026-04-25T10:14:51Z</time></trkpt><trkpt lat="43.64364264242119" lon="11.849066411552348"><ele>465.0</ele><time>2026-04-25T10:14:52Z</time></trkpt><trkpt lat="43.643543484904164" lon="11.849054749553648"><ele>465.0</ele><time>2026-04-25T10:14:53Z</time></trkpt><trkpt lat="43.643453281152766" lon="11.849064776032046"><ele>465.0</ele><time>2026-04-25T10:14:54Z</time></trkpt><trkpt lat="43.64339537663434" lon="11.849119363682107"><ele>465.8</ele><time>2026-04-25T10:14:55Z</time></trkpt><trkpt lat="43.64333486749882" lon="11.84919899275639"><ele>466.6</ele><time>2026-04-25T10:14:57Z</time></trkpt><trkpt lat="43.643282749086666" lon="11.8493112900321"><ele>467.4</ele><time>2026-04-25T10:14:58Z</time></trkpt><trkpt lat="43.64321908076536" lon="11.849416926820288"><ele>468.2</ele><time>2026-04-25T10:14:59Z</time></trkpt><trkpt lat="43.64311584049831" lon="11.849529511582675"><ele>469.0</ele><time>2026-04-25T10:15:00Z</time></trkpt><trkpt lat="43.64303317376889" lon="11.849615950165381"><ele>469.0</ele><time>2026-04-25T10:15:01Z</time></trkpt><trkpt lat="43.642938091603206" lon="11.849666092606652"><ele>469.0</ele><time>2026-04-25T10:15:02Z</time></trkpt><trkpt lat="43.64282694905352" lon="11.849732442448591"><ele>469.0</ele><time>2026-04-25T10:15:04Z</time></trkpt><trkpt lat="43.642731784515924" lon="11.849757962319197"><ele>469.0</ele><time>2026-04-25T10:15:06Z</time></trkpt><trkpt lat="43.64267764468938" lon="11.849807835138304"><ele>469.0</ele><time>2026-04-25T10:15:07Z</time></trkpt><trkpt lat="43.64260756806646" lon="11.849902401818673"><ele>471.2</ele><time>2026-04-25T10:15:08Z</time></trkpt><trkpt lat="43.642534122768744" lon="11.849983594993343"><ele>473.4</ele><time>2026-04-25T10:15:09Z</time></trkpt><trkpt lat="43.64246367490945" lon="11.850041013085287"><ele>475.6</ele><time>2026-04-25T10:15:10Z</time></trkpt><trkpt lat="43.64241616034664" lon="11.85009905857702"><ele>477.8</ele><time>2026-04-25T10:15:11Z</time></trkpt><trkpt lat="43.642436921261535" lon="11.850225688050461"><ele>480.0</ele><time>2026-04-25T10:15:13Z</time></trkpt><trkpt lat="43.64233764071542" lon="11.850309583871967"><ele>480.3333333333333</ele><time>2026-04-25T10:15:16Z</time></trkpt><trkpt lat="43.64229653304641" lon="11.850376770677094"><ele>480.66666666666663</ele><time>2026-04-25T10:15:17Z</time></trkpt><trkpt lat="43.642207162913415" lon="11.850393529316358"><ele>481.0</ele><time>2026-04-25T10:15:23Z</time></trkpt><trkpt lat="43.64210759469244" lon="11.850491582759041"><ele>481.3333333333333</ele><time>2026-04-25T10:15:25Z</time></trkpt><trkpt lat="43.642056858804686" lon="11.850606630580975"><ele>481.66666666666663</ele><time>2026-04-25T10:15:26Z</time></trkpt><trkpt lat="43.64203112348486" lon="11.85069715668374"><ele>482.0</ele><time>2026-04-25T10:15:27Z</time></trkpt><trkpt lat="43.64202420432138" lon="11.850802912404644"><ele>481.99999999999994</ele><time>2026-04-25T10:15:28Z</time></trkpt><trkpt lat="43.64202731356505" lon="11.850909130879167"><ele>482.0</ele><time>2026-04-25T10:15:29Z</time></trkpt><trkpt lat="43.64204076488615" lon="11.851031978291484"><ele>482.0</ele><time>2026-04-25T10:15:30Z</time></trkpt><trkpt lat="43.64206551077857" lon="11.851121982967399"><ele>482.0</ele><time>2026-04-25T10:15:31Z</time></trkpt><trkpt lat="43.64211586930556" lon="11.851197236072077"><ele>481.99999999999994</ele><time>2026-04-25T10:15:33Z</time></trkpt><trkpt lat="43.64206535754215" lon="11.851266548679602"><ele>482.0</ele><time>2026-04-25T10:15:38Z</time></trkpt><trkpt lat="43.64205285215482" lon="11.85139580353447"><ele>482.49999999999994</ele><time>2026-04-25T10:15:40Z</time></trkpt><trkpt lat="43.64209436729102" lon="11.851474991702341"><ele>483.0</ele><time>2026-04-25T10:15:46Z</time></trkpt><trkpt lat="43.6420904537607" lon="11.85158854328104"><ele>483.5</ele><time>2026-04-25T10:15:48Z</time></trkpt><trkpt lat="43.64215113202081" lon="11.851689595465114"><ele>484.0</ele><time>2026-04-25T10:15:51Z</time></trkpt><trkpt lat="43.64217651882176" lon="11.851798011908976"><ele>484.49999999999994</ele><time>2026-04-25T10:15:53Z</time></trkpt><trkpt lat="43.642184744368514" lon="11.851905620839181"><ele>485.0</ele><time>2026-04-25T10:15:55Z</time></trkpt><trkpt lat="43.64221001900272" lon="11.852076712630387"><ele>485.99999999999994</ele><time>2026-04-25T10:15:57Z</time></trkpt><trkpt lat="43.642238784547686" lon="11.852230879348756"><ele>487.0</ele><time>2026-04-25T10:15:59Z</time></trkpt><trkpt lat="43.64227686244441" lon="11.852340093519935"><ele>488.0</ele><time>2026-04-25T10:16:01Z</time></trkpt><trkpt lat="43.64230910368429" lon="11.852418675470567"><ele>489.0</ele><time>2026-04-25T10:16:04Z</time></trkpt><trkpt lat="43.64232898137116" lon="11.852568963512025"><ele>489.99999999999994</ele><time>2026-04-25T10:16:06Z</time></trkpt><trkpt lat="43.642308040764924" lon="11.852653420325266"><ele>491.0</ele><time>2026-04-25T10:16:07Z</time></trkpt><trkpt lat="43.64230135602437" lon="11.852786535459117"><ele>491.4</ele><time>2026-04-25T10:16:09Z</time></trkpt><trkpt lat="43.64233057607826" lon="11.852898871907604"><ele>491.8</ele><time>2026-04-25T10:16:10Z</time></trkpt><trkpt lat="43.642292135738096" lon="11.853072144442718"><ele>492.19999999999993</ele><time>2026-04-25T10:16:12Z</time></trkpt><trkpt lat="43.64227240160922" lon="11.853186041718173"><ele>492.59999999999997</ele><time>2026-04-25T10:16:13Z</time></trkpt><trkpt lat="43.64223774600854" lon="11.8532879831831"><ele>493.0</ele><time>2026-04-25T10:16:14Z</time></trkpt><trkpt lat="43.642195731089295" lon="11.853432595738226"><ele>492.4</ele><time>2026-04-25T10:16:15Z</time></trkpt><trkpt lat="43.64214419485429" lon="11.853576500547764"><ele>491.79999999999995</ele><time>2026-04-25T10:16:16Z</time></trkpt><trkpt lat="43.64209576503516" lon="11.853723379140936"><ele>491.2</ele><time>2026-04-25T10:16:17Z</time></trkpt><trkpt lat="43.642067154727876" lon="11.85385658144382"><ele>490.6</ele><time>2026-04-25T10:16:18Z</time></trkpt><trkpt lat="43.64206343075012" lon="11.853983049965954"><ele>490.0</ele><time>2026-04-25T10:16:19Z</time></trkpt><trkpt lat="43.64203679864379" lon="11.854180196045174"><ele>489.83333333333337</ele><time>2026-04-25T10:16:21Z</time></trkpt><trkpt lat="43.64202871578386" lon="11.854315389467478"><ele>489.6666666666667</ele><time>2026-04-25T10:16:28Z</time></trkpt><trkpt lat="43.64202112166923" lon="11.854403727405856"><ele>489.5</ele><time>2026-04-25T10:16:30Z</time></trkpt><trkpt lat="43.64200828898375" lon="11.854492006909373"><ele>489.33333333333337</ele><time>2026-04-25T10:16:32Z</time></trkpt><trkpt lat="43.64198353286841" lon="11.854607599126062"><ele>489.1666666666667</ele><time>2026-04-25T10:16:34Z</time></trkpt><trkpt lat="43.641971538584905" lon="11.854699497745683"><ele>489.0</ele><time>2026-04-25T10:16:35Z</time></trkpt><trkpt lat="43.64195726266782" lon="11.854821301436282"><ele>489.0</ele><time>2026-04-25T10:16:36Z</time></trkpt><trkpt lat="43.64192636972603" lon="11.854946080986352"><ele>489.0</ele><time>2026-04-25T10:16:37Z</time></trkpt><trkpt lat="43.64188062432295" lon="11.855086587891366"><ele>489.0</ele><time>2026-04-25T10:16:38Z</time></trkpt><trkpt lat="43.641838844999484" lon="11.855212517579579"><ele>489.0</ele><time>2026-04-25T10:16:39Z</time></trkpt><trkpt lat="43.64182033313703" lon="11.855325656693488"><ele>489.0</ele><time>2026-04-25T10:16:40Z</time></trkpt><trkpt lat="43.641821789339794" lon="11.855465521683977"><ele>487.4</ele><time>2026-04-25T10:16:41Z</time></trkpt><trkpt lat="43.64182940541174" lon="11.85557550573488"><ele>485.79999999999995</ele><time>2026-04-25T10:16:42Z</time></trkpt><trkpt lat="43.64181062666445" lon="11.855701663458126"><ele>484.20000000000005</ele><time>2026-04-25T10:16:43Z</time></trkpt><trkpt lat="43.641794854612435" lon="11.855837109269645"><ele>482.6</ele><time>2026-04-25T10:16:44Z</time></trkpt><trkpt lat="43.641788951327214" lon="11.85598351096741"><ele>481.0</ele><time>2026-04-25T10:16:45Z</time></trkpt><trkpt lat="43.64178816422772" lon="11.85613712337882"><ele>480.0</ele><time>2026-04-25T10:16:46Z</time></trkpt><trkpt lat="43.64178127342638" lon="11.856273549897583"><ele>479.0</ele><time>2026-04-25T10:16:47Z</time></trkpt><trkpt lat="43.64175891350079" lon="11.856407891782299"><ele>478.0</ele><time>2026-04-25T10:16:48Z</time></trkpt><trkpt lat="43.64174801513601" lon="11.856550978164629"><ele>477.0</ele><time>2026-04-25T10:16:49Z</time></trkpt><trkpt lat="43.6417195234439" lon="11.856665894880903"><ele>476.0</ele><time>2026-04-25T10:16:50Z</time></trkpt><trkpt lat="43.64167500344943" lon="11.85678035455535"><ele>475.4</ele><time>2026-04-25T10:16:51Z</time></trkpt><trkpt lat="43.64163514748793" lon="11.856860676562095"><ele>474.8</ele><time>2026-04-25T10:16:52Z</time></trkpt><trkpt lat="43.64160744817121" lon="11.856972336096876"><ele>474.19999999999993</ele><time>2026-04-25T10:16:53Z</time></trkpt><trkpt lat="43.641588797263175" lon="11.857131871477748"><ele>473.59999999999997</ele><time>2026-04-25T10:16:54Z</time></trkpt><trkpt lat="43.64156444618719" lon="11.857296641591958"><ele>473.0</ele><time>2026-04-25T10:16:55Z</time></trkpt><trkpt lat="43.6415728074836" lon="11.85745104681602"><ele>472.99999999999994</ele><time>2026-04-25T10:16:56Z</time></trkpt><trkpt lat="43.64158938286814" lon="11.857611453155917"><ele>473.0</ele><time>2026-04-25T10:16:57Z</time></trkpt><trkpt lat="43.641606294479836" lon="11.857752455952587"><ele>473.0</ele><time>2026-04-25T10:16:58Z</time></trkpt><trkpt lat="43.64160975662568" lon="11.85784637515142"><ele>473.0</ele><time>2026-04-25T10:16:59Z</time></trkpt><trkpt lat="43.64160159283562" lon="11.857943420230344"><ele>472.99999999999994</ele><time>2026-04-25T10:17:01Z</time></trkpt><trkpt lat="43.641601665890754" lon="11.85804741558972"><ele>473.0</ele><time>2026-04-25T10:17:09Z</time></trkpt><trkpt lat="43.64161636206041" lon="11.858156110447785"><ele>472.66666666666663</ele><time>2026-04-25T10:17:18Z</time></trkpt><trkpt lat="43.641608342304494" lon="11.858256878519999"><ele>472.3333333333333</ele><time>2026-04-25T10:17:20Z</time></trkpt><trkpt lat="43.641604747274954" lon="11.858346114143641"><ele>472.0</ele><time>2026-04-25T10:17:23Z</time></trkpt><trkpt lat="43.64160979603693" lon="11.858468231136973"><ele>471.66666666666663</ele><time>2026-04-25T10:17:25Z</time></trkpt><trkpt lat="43.641623528406484" lon="11.858585830278825"><ele>471.3333333333333</ele><time>2026-04-25T10:17:27Z</time></trkpt><trkpt lat="43.64162799871617" lon="11.8587278350305"><ele>471.0</ele><time>2026-04-25T10:17:29Z</time></trkpt><trkpt lat="43.641636555585016" lon="11.858817987616296"><ele>472.20000000000005</ele><time>2026-04-25T10:17:30Z</time></trkpt><trkpt lat="43.64164743824384" lon="11.858921151596721"><ele>473.40000000000003</ele><time>2026-04-25T10:17:31Z</time></trkpt><trkpt lat="43.64165719289385" lon="11.85905706213502"><ele>474.6</ele><time>2026-04-25T10:17:32Z</time></trkpt><trkpt lat="43.6416755908826" lon="11.85921752320988"><ele>475.8</ele><time>2026-04-25T10:17:33Z</time></trkpt><trkpt lat="43.64170485313231" lon="11.859366416291152"><ele>477.0</ele><time>2026-04-25T10:17:34Z</time></trkpt><trkpt lat="43.64170417381689" lon="11.859479181823678"><ele>478.40000000000003</ele><time>2026-04-25T10:17:35Z</time></trkpt><trkpt lat="43.641702601074435" lon="11.85960841436184"><ele>479.80000000000007</ele><time>2026-04-25T10:17:36Z</time></trkpt><trkpt lat="43.64170599293499" lon="11.859744025133974"><ele>481.2</ele><time>2026-04-25T10:17:37Z</time></trkpt><trkpt lat="43.64173237779957" lon="11.859879275852377"><ele>482.6</ele><time>2026-04-25T10:17:38Z</time></trkpt><trkpt lat="43.641732826368916" lon="11.860010831013327"><ele>484.0</ele><time>2026-04-25T10:17:39Z</time></trkpt><trkpt lat="43.641698713352966" lon="11.86010458227465"><ele>484.1666666666667</ele><time>2026-04-25T10:17:40Z</time></trkpt><trkpt lat="43.64167247873494" lon="11.860204805222168"><ele>484.33333333333337</ele><time>2026-04-25T10:17:41Z</time></trkpt><trkpt lat="43.641636716535714" lon="11.86031821170246"><ele>484.5</ele><time>2026-04-25T10:17:42Z</time></trkpt><trkpt lat="43.641612991395014" lon="11.860426210404775"><ele>484.66666666666663</ele><time>2026-04-25T10:17:43Z</time></trkpt><trkpt lat="43.64161133806487" lon="11.860533159791652"><ele>484.8333333333333</ele><time>2026-04-25T10:17:44Z</time></trkpt><trkpt lat="43.64164431794324" lon="11.860656721986876"><ele>485.0</ele><time>2026-04-25T10:17:45Z</time></trkpt><trkpt lat="43.64168875439532" lon="11.860794682421485"><ele>485.25</ele><time>2026-04-25T10:17:46Z</time></trkpt><trkpt lat="43.641739885588485" lon="11.860954983366577"><ele>485.5</ele><time>2026-04-25T10:17:47Z</time></trkpt><trkpt lat="43.64177759783503" lon="11.861112375714761"><ele>485.75</ele><time>2026-04-25T10:17:48Z</time></trkpt><trkpt lat="43.64180208204165" lon="11.861268756091668"><ele>486.0</ele><time>2026-04-25T10:17:49Z</time></trkpt><trkpt lat="43.641827122737546" lon="11.861433446250455"><ele>486.0</ele><time>2026-04-25T10:17:50Z</time></trkpt><trkpt lat="43.641856430254755" lon="11.861572769820802"><ele>486.0</ele><time>2026-04-25T10:17:51Z</time></trkpt><trkpt lat="43.64190097050882" lon="11.861740447637278"><ele>486.0</ele><time>2026-04-25T10:17:52Z</time></trkpt><trkpt lat="43.64194451435652" lon="11.861912094478532"><ele>486.0</ele><time>2026-04-25T10:17:53Z</time></trkpt><trkpt lat="43.641955821798284" lon="11.862082428337924"><ele>488.4</ele><time>2026-04-25T10:17:54Z</time></trkpt><trkpt lat="43.641970948274846" lon="11.86221627380229"><ele>490.8</ele><time>2026-04-25T10:17:55Z</time></trkpt><trkpt lat="43.64198498123084" lon="11.862325065438805"><ele>493.19999999999993</ele><time>2026-04-25T10:17:56Z</time></trkpt><trkpt lat="43.64199143544954" lon="11.86245744858969"><ele>495.59999999999997</ele><time>2026-04-25T10:17:57Z</time></trkpt><trkpt lat="43.64198503159239" lon="11.862595531642697"><ele>498.0</ele><time>2026-04-25T10:17:58Z</time></trkpt><trkpt lat="43.64196445147158" lon="11.862710993657844"><ele>498.0</ele><time>2026-04-25T10:17:59Z</time></trkpt><trkpt lat="43.641946059699514" lon="11.862837718836971"><ele>497.99999999999994</ele><time>2026-04-25T10:18:00Z</time></trkpt><trkpt lat="43.6419263723583" lon="11.863008675877811"><ele>497.99999999999994</ele><time>2026-04-25T10:18:01Z</time></trkpt><trkpt lat="43.641884643926794" lon="11.863124497599074"><ele>498.0</ele><time>2026-04-25T10:18:02Z</time></trkpt><trkpt lat="43.64183449967795" lon="11.86325619271246"><ele>498.0</ele><time>2026-04-25T10:18:03Z</time></trkpt><trkpt lat="43.64177836084047" lon="11.86338602958459"><ele>499.4</ele><time>2026-04-25T10:18:04Z</time></trkpt><trkpt lat="43.64174228428684" lon="11.86352752853901"><ele>500.79999999999995</ele><time>2026-04-25T10:18:05Z</time></trkpt><trkpt lat="43.641691622814015" lon="11.863662631746045"><ele>502.2</ele><time>2026-04-25T10:18:06Z</time></trkpt><trkpt lat="43.641631309590416" lon="11.863802274872201"><ele>503.6</ele><time>2026-04-25T10:18:07Z</time></trkpt><trkpt lat="43.64160935011236" lon="11.86388442824889"><ele>505.0</ele><time>2026-04-25T10:18:08Z</time></trkpt><trkpt lat="43.6415505420235" lon="11.86394437786574"><ele>505.0</ele><time>2026-04-25T10:18:11Z</time></trkpt><trkpt lat="43.64148741157967" lon="11.864048307515942"><ele>505.0</ele><time>2026-04-25T10:18:14Z</time></trkpt><trkpt lat="43.64146319576859" lon="11.864190235808353"><ele>505.0</ele><time>2026-04-25T10:18:16Z</time></trkpt><trkpt lat="43.641408471705645" lon="11.864288120203485"><ele>505.0</ele><time>2026-04-25T10:18:17Z</time></trkpt><trkpt lat="43.64135960822658" lon="11.864376951771645"><ele>505.0</ele><time>2026-04-25T10:18:18Z</time></trkpt><trkpt lat="43.64130950226282" lon="11.864472560078665"><ele>506.6</ele><time>2026-04-25T10:18:20Z</time></trkpt><trkpt lat="43.64124996124519" lon="11.864556145519979"><ele>508.2</ele><time>2026-04-25T10:20:46Z</time></trkpt><trkpt lat="43.64117333362026" lon="11.864724539352311"><ele>509.79999999999995</ele><time>2026-04-25T10:20:48Z</time></trkpt><trkpt lat="43.64113925736435" lon="11.864848106626864"><ele>511.4</ele><time>2026-04-25T10:20:49Z</time></trkpt><trkpt lat="43.6411026453571" lon="11.864940380353973"><ele>513.0</ele><time>2026-04-25T10:20:50Z</time></trkpt><trkpt lat="43.64104690433589" lon="11.865053252824449"><ele>510.0</ele><time>2026-04-25T10:20:51Z</time></trkpt><trkpt lat="43.64099882536127" lon="11.865207647558442"><ele>507.0</ele><time>2026-04-25T10:20:52Z</time></trkpt><trkpt lat="43.640964664965416" lon="11.86536984831518"><ele>504.0</ele><time>2026-04-25T10:20:53Z</time></trkpt><trkpt lat="43.64092702637251" lon="11.865535327619561"><ele>501.0</ele><time>2026-04-25T10:20:54Z</time></trkpt><trkpt lat="43.64087889143501" lon="11.865693417120124"><ele>501.0</ele><time>2026-04-25T10:20:55Z</time></trkpt><trkpt lat="43.64083175433474" lon="11.865850147852427"><ele>501.0</ele><time>2026-04-25T10:20:56Z</time></trkpt><trkpt lat="43.64079041384113" lon="11.86600265392889"><ele>501.0</ele><time>2026-04-25T10:20:57Z</time></trkpt><trkpt lat="43.64076574463935" lon="11.866137776292538"><ele>501.0</ele><time>2026-04-25T10:20:58Z</time></trkpt><trkpt lat="43.64075564624268" lon="11.86623023247941"><ele>501.0</ele><time>2026-04-25T10:20:59Z</time></trkpt><trkpt lat="43.640741445138325" lon="11.866325382583918"><ele>501.1666666666667</ele><time>2026-04-25T10:21:01Z</time></trkpt><trkpt lat="43.640671533224655" lon="11.866383777531558"><ele>501.33333333333337</ele><time>2026-04-25T10:21:04Z</time></trkpt><trkpt lat="43.64062784964229" lon="11.866472187575063"><ele>501.5</ele><time>2026-04-25T10:21:06Z</time></trkpt><trkpt lat="43.64063240807965" lon="11.866579069317918"><ele>501.6666666666667</ele><time>2026-04-25T10:21:08Z</time></trkpt><trkpt lat="43.64063845827641" lon="11.866691640290183"><ele>501.83333333333337</ele><time>2026-04-25T10:21:10Z</time></trkpt><trkpt lat="43.64064126217879" lon="11.866803182423782"><ele>502.0</ele><time>2026-04-25T10:21:12Z</time></trkpt><trkpt lat="43.64063721645893" lon="11.866906561422775"><ele>502.00000000000006</ele><time>2026-04-25T10:21:14Z</time></trkpt><trkpt lat="43.64065572005132" lon="11.867017346456413"><ele>502.0</ele><time>2026-04-25T10:21:16Z</time></trkpt><trkpt lat="43.640684884215" lon="11.867106898191231"><ele>502.0</ele><time>2026-04-25T10:21:18Z</time></trkpt><trkpt lat="43.64071785544548" lon="11.86720908540871"><ele>502.0</ele><time>2026-04-25T10:21:25Z</time></trkpt><trkpt lat="43.64074816933183" lon="11.86738945756957"><ele>502.00000000000006</ele><time>2026-04-25T10:21:27Z</time></trkpt><trkpt lat="43.64076521029225" lon="11.867492802373597"><ele>502.0</ele><time>2026-04-25T10:21:28Z</time></trkpt><trkpt lat="43.640783787707285" lon="11.867612193976592"><ele>501.20000000000005</ele><time>2026-04-25T10:21:29Z</time></trkpt><trkpt lat="43.64079506690638" lon="11.867704726435287"><ele>500.40000000000003</ele><time>2026-04-25T10:21:30Z</time></trkpt><trkpt lat="43.64079008744421" lon="11.867869438484846"><ele>499.59999999999997</ele><time>2026-04-25T10:21:32Z</time></trkpt><trkpt lat="43.640748813498234" lon="11.867997380787358"><ele>498.79999999999995</ele><time>2026-04-25T10:21:34Z</time></trkpt><trkpt lat="43.64071266032508" lon="11.868121884813926"><ele>498.0</ele><time>2026-04-25T10:21:36Z</time></trkpt><trkpt lat="43.640682035553866" lon="11.86819943787663"><ele>498.0</ele><time>2026-04-25T10:21:37Z</time></trkpt><trkpt lat="43.640643599590234" lon="11.868280503203117"><ele>498.0</ele><time>2026-04-25T10:21:38Z</time></trkpt><trkpt lat="43.64061379808741" lon="11.868368638446997"><ele>498.0</ele><time>2026-04-25T10:21:39Z</time></trkpt><trkpt lat="43.64058686257008" lon="11.868474130602241"><ele>498.0</ele><time>2026-04-25T10:21:40Z</time></trkpt><trkpt lat="43.640563656485384" lon="11.868568644704071"><ele>498.0</ele><time>2026-04-25T10:21:42Z</time></trkpt><trkpt lat="43.64052583645227" lon="11.868714185064507"><ele>498.0</ele><time>2026-04-25T10:21:45Z</time></trkpt><trkpt lat="43.64047990599739" lon="11.868810533003497"><ele>498.2</ele><time>2026-04-25T10:21:48Z</time></trkpt><trkpt lat="43.64044633692456" lon="11.868928121155122"><ele>498.4</ele><time>2026-04-25T10:21:50Z</time></trkpt><trkpt lat="43.64041464882281" lon="11.869025802403398"><ele>498.59999999999997</ele><time>2026-04-25T10:21:52Z</time></trkpt><trkpt lat="43.64038338340729" lon="11.869131744802853"><ele>498.79999999999995</ele><time>2026-04-25T10:21:54Z</time></trkpt><trkpt lat="43.640345444840825" lon="11.869240426227917"><ele>499.0</ele><time>2026-04-25T10:21:56Z</time></trkpt><trkpt lat="43.640303228316306" lon="11.869384759577212"><ele>499.2</ele><time>2026-04-25T10:21:58Z</time></trkpt><trkpt lat="43.64028022301371" lon="11.869467821805436"><ele>499.4</ele><time>2026-04-25T10:22:00Z</time></trkpt><trkpt lat="43.64024669498082" lon="11.869613082098537"><ele>499.6</ele><time>2026-04-25T10:22:03Z</time></trkpt><trkpt lat="43.640205664754255" lon="11.869749600467935"><ele>499.8</ele><time>2026-04-25T10:22:05Z</time></trkpt><trkpt lat="43.64017138170933" lon="11.869896664968817"><ele>500.0</ele><time>2026-04-25T10:22:16Z</time></trkpt><trkpt lat="43.64011046765118" lon="11.87006971133053"><ele>500.4</ele><time>2026-04-25T10:22:18Z</time></trkpt><trkpt lat="43.640074023090094" lon="11.87018206047004"><ele>500.8</ele><time>2026-04-25T10:22:19Z</time></trkpt><trkpt lat="43.64005412955648" lon="11.870282261390164"><ele>501.20000000000005</ele><time>2026-04-25T10:22:20Z</time></trkpt><trkpt lat="43.64008300322273" lon="11.870361363152337"><ele>501.6</ele><time>2026-04-25T10:22:22Z</time></trkpt><trkpt lat="43.64021965271931" lon="11.870434583340101"><ele>502.0</ele><time>2026-04-25T10:22:24Z</time></trkpt><trkpt lat="43.64030086944034" lon="11.870529453738968"><ele>503.1666666666667</ele><time>2026-04-25T10:22:25Z</time></trkpt><trkpt lat="43.64037149981811" lon="11.870613321040064"><ele>504.33333333333337</ele><time>2026-04-25T10:22:26Z</time></trkpt><trkpt lat="43.64042871896852" lon="11.870690799737675"><ele>505.5</ele><time>2026-04-25T10:22:27Z</time></trkpt><trkpt lat="43.64046102742188" lon="11.870843022414894"><ele>506.66666666666663</ele><time>2026-04-25T10:22:29Z</time></trkpt><trkpt lat="43.64048190090146" lon="11.870941217756473"><ele>507.8333333333333</ele><time>2026-04-25T10:22:31Z</time></trkpt><trkpt lat="43.64053439760381" lon="11.871003907924578"><ele>509.0</ele><time>2026-04-25T10:22:33Z</time></trkpt><trkpt lat="43.64062754077282" lon="11.871083705958345"><ele>508.99999999999994</ele><time>2026-04-25T10:22:35Z</time></trkpt><trkpt lat="43.64067233258536" lon="11.871145031296633"><ele>509.0</ele><time>2026-04-25T10:22:36Z</time></trkpt><trkpt lat="43.64071319699588" lon="11.871221563517786"><ele>508.99999999999994</ele><time>2026-04-25T10:22:37Z</time></trkpt><trkpt lat="43.64076243470942" lon="11.871294132655608"><ele>508.99999999999994</ele><time>2026-04-25T10:22:38Z</time></trkpt><trkpt lat="43.64081249609275" lon="11.871354288060477"><ele>509.0</ele><time>2026-04-25T10:22:39Z</time></trkpt><trkpt lat="43.64088656097104" lon="11.871425144577888"><ele>508.99999999999994</ele><time>2026-04-25T10:22:40Z</time></trkpt><trkpt lat="43.64094087927473" lon="11.87148681290979"><ele>508.99999999999994</ele><time>2026-04-25T10:22:41Z</time></trkpt><trkpt lat="43.640979444037065" lon="11.871567642000583"><ele>509.0</ele><time>2026-04-25T10:22:42Z</time></trkpt><trkpt lat="43.64101732717535" lon="11.871687541618366"><ele>509.0</ele><time>2026-04-25T10:22:44Z</time></trkpt><trkpt lat="43.64107948810409" lon="11.87180084765022"><ele>509.0</ele><time>2026-04-25T10:22:46Z</time></trkpt><trkpt lat="43.64116151198532" lon="11.871923735282026"><ele>509.0</ele><time>2026-04-25T10:22:48Z</time></trkpt><trkpt lat="43.64124508743904" lon="11.8720295660646"><ele>509.0</ele><time>2026-04-25T10:22:50Z</time></trkpt><trkpt lat="43.64129102002959" lon="11.872091843431262"><ele>510.49999999999994</ele><time>2026-04-25T10:22:51Z</time></trkpt><trkpt lat="43.64136088225794" lon="11.872179288652921"><ele>512.0</ele><time>2026-04-25T10:22:53Z</time></trkpt><trkpt lat="43.6414048892003" lon="11.872251486855985"><ele>513.5</ele><time>2026-04-25T10:22:55Z</time></trkpt><trkpt lat="43.641455631884924" lon="11.872333831828165"><ele>515.0</ele><time>2026-04-25T10:22:57Z</time></trkpt><trkpt lat="43.64149596264179" lon="11.872406965821188"><ele>516.5</ele><time>2026-04-25T10:22:59Z</time></trkpt><trkpt lat="43.641556871533574" lon="11.872491624991492"><ele>518.0</ele><time>2026-04-25T10:23:01Z</time></trkpt><trkpt lat="43.641606951110845" lon="11.872568980879866"><ele>517.3333333333333</ele><time>2026-04-25T10:23:03Z</time></trkpt><trkpt lat="43.64168232630201" lon="11.872668110292002"><ele>516.6666666666666</ele><time>2026-04-25T10:23:05Z</time></trkpt><trkpt lat="43.64174651458684" lon="11.872727831802447"><ele>516.0</ele><time>2026-04-25T10:23:07Z</time></trkpt><trkpt lat="43.64183934293729" lon="11.872808076438265"><ele>515.3333333333334</ele><time>2026-04-25T10:23:09Z</time></trkpt><trkpt lat="43.64188609872673" lon="11.872871924087175"><ele>514.6666666666667</ele><time>2026-04-25T10:23:12Z</time></trkpt><trkpt lat="43.64194549202753" lon="11.872927694308"><ele>514.0</ele><time>2026-04-25T10:23:29Z</time></trkpt><trkpt lat="43.64195771364135" lon="11.873041387040745"><ele>515.2</ele><time>2026-04-25T10:23:38Z</time></trkpt><trkpt lat="43.64204174862923" lon="11.873137830421728"><ele>516.4</ele><time>2026-04-25T10:23:40Z</time></trkpt><trkpt lat="43.64209156178689" lon="11.873196703002721"><ele>517.6</ele><time>2026-04-25T10:23:41Z</time></trkpt><trkpt lat="43.642136969104264" lon="11.873264975906174"><ele>518.8</ele><time>2026-04-25T10:23:42Z</time></trkpt><trkpt lat="43.64221669471222" lon="11.873377337692045"><ele>520.0</ele><time>2026-04-25T10:23:44Z</time></trkpt><trkpt lat="43.642313588365504" lon="11.873390840443879"><ele>519.5</ele><time>2026-04-25T10:23:46Z</time></trkpt><trkpt lat="43.64235680939418" lon="11.873463757555747"><ele>519.0</ele><time>2026-04-25T10:23:50Z</time></trkpt><trkpt lat="43.642297141407376" lon="11.873538520067411"><ele>518.5</ele><time>2026-04-25T10:23:52Z</time></trkpt><trkpt lat="43.64224657073768" lon="11.873647800118784"><ele>518.0</ele><time>2026-04-25T10:23:54Z</time></trkpt><trkpt lat="43.642177460641356" lon="11.873756390140036"><ele>517.5</ele><time>2026-04-25T10:23:56Z</time></trkpt><trkpt lat="43.64212763982942" lon="11.873821381183928"><ele>517.0</ele><time>2026-04-25T10:23:58Z</time></trkpt><trkpt lat="43.642043290780386" lon="11.873859992797845"><ele>517.0</ele><time>2026-04-25T10:24:01Z</time></trkpt><trkpt lat="43.64196733497338" lon="11.873904350812202"><ele>517.0</ele><time>2026-04-25T10:24:02Z</time></trkpt><trkpt lat="43.64188303995608" lon="11.873932340853424"><ele>517.0</ele><time>2026-04-25T10:24:03Z</time></trkpt><trkpt lat="43.64178966879606" lon="11.873969833241821"><ele>517.0</ele><time>2026-04-25T10:24:04Z</time></trkpt><trkpt lat="43.64169336101166" lon="11.874020320841824"><ele>517.0</ele><time>2026-04-25T10:24:05Z</time></trkpt><trkpt lat="43.64158905037153" lon="11.87407908587972"><ele>518.4</ele><time>2026-04-25T10:24:06Z</time></trkpt><trkpt lat="43.641486576376565" lon="11.874143410552284"><ele>519.8000000000001</ele><time>2026-04-25T10:24:07Z</time></trkpt><trkpt lat="43.641400387358004" lon="11.874202739582145"><ele>521.2</ele><time>2026-04-25T10:24:08Z</time></trkpt><trkpt lat="43.64133551267743" lon="11.874266388557158"><ele>522.6</ele><time>2026-04-25T10:24:09Z</time></trkpt><trkpt lat="43.64127731503734" lon="11.874347000885548"><ele>524.0</ele><time>2026-04-25T10:24:10Z</time></trkpt><trkpt lat="43.64122213538614" lon="11.874463564889414"><ele>524.0</ele><time>2026-04-25T10:24:11Z</time></trkpt><trkpt lat="43.64116708438634" lon="11.874598363050357"><ele>524.0</ele><time>2026-04-25T10:24:12Z</time></trkpt><trkpt lat="43.641109155875455" lon="11.874752980109836"><ele>524.0</ele><time>2026-04-25T10:24:13Z</time></trkpt><trkpt lat="43.64102845153852" lon="11.874894349321716"><ele>524.0</ele><time>2026-04-25T10:24:14Z</time></trkpt><trkpt lat="43.64095275674422" lon="11.875025817975434"><ele>526.25</ele><time>2026-04-25T10:24:15Z</time></trkpt><trkpt lat="43.64086947909149" lon="11.875153216191283"><ele>528.5</ele><time>2026-04-25T10:24:16Z</time></trkpt><trkpt lat="43.64078694048852" lon="11.875258556642777"><ele>530.75</ele><time>2026-04-25T10:24:17Z</time></trkpt><trkpt lat="43.64068012521075" lon="11.87534461802119"><ele>533.0</ele><time>2026-04-25T10:24:18Z</time></trkpt><trkpt lat="43.64056490113086" lon="11.87539864100016"><ele>533.0</ele><time>2026-04-25T10:24:19Z</time></trkpt><trkpt lat="43.64045250057328" lon="11.875442801019542"><ele>533.0</ele><time>2026-04-25T10:24:20Z</time></trkpt><trkpt lat="43.64033755510693" lon="11.875520877349851"><ele>533.0</ele><time>2026-04-25T10:24:21Z</time></trkpt><trkpt lat="43.640228767747196" lon="11.875584984856696"><ele>533.0</ele><time>2026-04-25T10:24:22Z</time></trkpt><trkpt lat="43.640118709501664" lon="11.875649956957846"><ele>533.75</ele><time>2026-04-25T10:24:23Z</time></trkpt><trkpt lat="43.64000205813025" lon="11.87567531161197"><ele>534.5</ele><time>2026-04-25T10:24:24Z</time></trkpt><trkpt lat="43.63989213592957" lon="11.875618499138804"><ele>535.25</ele><time>2026-04-25T10:24:25Z</time></trkpt><trkpt lat="43.639777044405356" lon="11.875601416288635"><ele>536.0</ele><time>2026-04-25T10:24:26Z</time></trkpt><trkpt lat="43.63966367517177" lon="11.8756037829405"><ele>536.0</ele><time>2026-04-25T10:24:27Z</time></trkpt><trkpt lat="43.63954910058331" lon="11.875634599699962"><ele>536.0</ele><time>2026-04-25T10:24:28Z</time></trkpt><trkpt lat="43.63945653970869" lon="11.875677564907933"><ele>536.0</ele><time>2026-04-25T10:24:29Z</time></trkpt><trkpt lat="43.63938159864944" lon="11.875719333494931"><ele>536.0</ele><time>2026-04-25T10:24:30Z</time></trkpt><trkpt lat="43.63931030029385" lon="11.87575450807156"><ele>536.0</ele><time>2026-04-25T10:24:31Z</time></trkpt><trkpt lat="43.639232897466464" lon="11.875802002350813"><ele>535.4</ele><time>2026-04-25T10:24:32Z</time></trkpt><trkpt lat="43.63917005655219" lon="11.875881494784723"><ele>534.8</ele><time>2026-04-25T10:24:33Z</time></trkpt><trkpt lat="43.639131131250146" lon="11.87599989594319"><ele>534.1999999999999</ele><time>2026-04-25T10:24:34Z</time></trkpt><trkpt lat="43.63908791584513" lon="11.876115418439365"><ele>533.6</ele><time>2026-04-25T10:24:35Z</time></trkpt><trkpt lat="43.639012813963156" lon="11.876190105619434"><ele>533.0</ele><time>2026-04-25T10:24:36Z</time></trkpt><trkpt lat="43.63890599672166" lon="11.876205853100883"><ele>532.25</ele><time>2026-04-25T10:24:37Z</time></trkpt><trkpt lat="43.63877858584208" lon="11.876178912335279"><ele>531.5</ele><time>2026-04-25T10:24:38Z</time></trkpt><trkpt lat="43.638647006296814" lon="11.876129469591955"><ele>530.75</ele><time>2026-04-25T10:24:39Z</time></trkpt><trkpt lat="43.638524196705156" lon="11.876078748809283"><ele>530.0</ele><time>2026-04-25T10:24:40Z</time></trkpt><trkpt lat="43.638415574689624" lon="11.876027922128772"><ele>530.0</ele><time>2026-04-25T10:24:41Z</time></trkpt><trkpt lat="43.6383248578762" lon="11.87600504540025"><ele>530.0</ele><time>2026-04-25T10:24:42Z</time></trkpt><trkpt lat="43.63822844854006" lon="11.876029853595925"><ele>530.0</ele><time>2026-04-25T10:24:43Z</time></trkpt><trkpt lat="43.63811490119012" lon="11.876082586004685"><ele>530.0</ele><time>2026-04-25T10:24:44Z</time></trkpt><trkpt lat="43.638001251698654" lon="11.876171063157429"><ele>530.0</ele><time>2026-04-25T10:24:45Z</time></trkpt><trkpt lat="43.63788265287833" lon="11.876256250879806"><ele>529.8</ele><time>2026-04-25T10:24:46Z</time></trkpt><trkpt lat="43.63776866151931" lon="11.876316493799308"><ele>529.6</ele><time>2026-04-25T10:24:47Z</time></trkpt><trkpt lat="43.63765190113973" lon="11.876348327944552"><ele>529.4</ele><time>2026-04-25T10:24:48Z</time></trkpt><trkpt lat="43.63755133335776" lon="11.87635768832164"><ele>529.2</ele><time>2026-04-25T10:24:49Z</time></trkpt><trkpt lat="43.63745536110308" lon="11.876349926080794"><ele>529.0</ele><time>2026-04-25T10:24:50Z</time></trkpt><trkpt lat="43.63734775197318" lon="11.876337582093251"><ele>529.0</ele><time>2026-04-25T10:24:51Z</time></trkpt><trkpt lat="43.63722281999994" lon="11.876314978371907"><ele>529.0</ele><time>2026-04-25T10:24:52Z</time></trkpt><trkpt lat="43.63708865256236" lon="11.876300631668464"><ele>529.0</ele><time>2026-04-25T10:24:53Z</time></trkpt><trkpt lat="43.6369521295653" lon="11.876274621479245"><ele>529.0</ele><time>2026-04-25T10:24:54Z</time></trkpt><trkpt lat="43.636808632625524" lon="11.876258238660984"><ele>528.25</ele><time>2026-04-25T10:24:55Z</time></trkpt><trkpt lat="43.63667617539208" lon="11.876233445570195"><ele>527.5</ele><time>2026-04-25T10:24:56Z</time></trkpt><trkpt lat="43.63655490996432" lon="11.87621362274174"><ele>526.75</ele><time>2026-04-25T10:24:57Z</time></trkpt><trkpt lat="43.63644784612486" lon="11.876195039738956"><ele>526.0</ele><time>2026-04-25T10:24:58Z</time></trkpt><trkpt lat="43.63635687726084" lon="11.876186029473942"><ele>526.0</ele><time>2026-04-25T10:24:59Z</time></trkpt><trkpt lat="43.63624905401255" lon="11.876174786590418"><ele>526.0</ele><time>2026-04-25T10:25:00Z</time></trkpt></trkseg><trkseg><trkpt lat="43.62929773654839" lon="11.88175004772542"><ele>529.0</ele><time>2026-04-25T10:31:20Z</time></trkpt><trkpt lat="43.62928040828876" lon="11.881622251156722"><ele>529.0</ele><time>2026-04-25T10:31:21Z</time></trkpt><trkpt lat="43.629239163891334" lon="11.881509422744633"><ele>529.0</ele><time>2026-04-25T10:31:22Z</time></trkpt><trkpt lat="43.62919751189211" lon="11.881414438250964"><ele>529.0</ele><time>2026-04-25T10:31:23Z</time></trkpt><trkpt lat="43.62914271092545" lon="11.881355616843152"><ele>529.0</ele><time>2026-04-25T10:31:24Z</time></trkpt><trkpt lat="43.62906878042729" lon="11.88130212631819"><ele>529.0</ele><time>2026-04-25T10:31:25Z</time></trkpt><trkpt lat="43.6289905163875" lon="11.881281284856637"><ele>529.0</ele><time>2026-04-25T10:31:26Z</time></trkpt><trkpt lat="43.62891094862402" lon="11.881273366034394"><ele>529.0</ele><time>2026-04-25T10:31:27Z</time></trkpt><trkpt lat="43.62881893349251" lon="11.881270691622037"><ele>529.0</ele><time>2026-04-25T10:31:28Z</time></trkpt><trkpt lat="43.628723154265664" lon="11.881259105557776"><ele>529.0</ele><time>2026-04-25T10:31:29Z</time></trkpt><trkpt lat="43.62861955406991" lon="11.88123508204487"><ele>529.0</ele><time>2026-04-25T10:31:30Z</time></trkpt><trkpt lat="43.62850790305945" lon="11.881211212983422"><ele>530.2</ele><time>2026-04-25T10:31:31Z</time></trkpt><trkpt lat="43.628389286892556" lon="11.881204438774443"><ele>531.4</ele><time>2026-04-25T10:31:32Z</time></trkpt><trkpt lat="43.62827616522347" lon="11.881183708617185"><ele>532.6</ele><time>2026-04-25T10:31:33Z</time></trkpt><trkpt lat="43.628184893883265" lon="11.881159149996082"><ele>533.8</ele><time>2026-04-25T10:31:34Z</time></trkpt><trkpt lat="43.62810205674342" lon="11.881152924902832"><ele>535.0</ele><time>2026-04-25T10:31:35Z</time></trkpt><trkpt lat="43.62803065534143" lon="11.881140996759164"><ele>535.0</ele><time>2026-04-25T10:31:36Z</time></trkpt><trkpt lat="43.62796232335662" lon="11.881127836502015"><ele>535.0</ele><time>2026-04-25T10:31:37Z</time></trkpt><trkpt lat="43.62789693173917" lon="11.881111392566217"><ele>535.0</ele><time>2026-04-25T10:31:38Z</time></trkpt><trkpt lat="43.62777446456808" lon="11.881124191699048"><ele>535.0</ele><time>2026-04-25T10:31:40Z</time></trkpt><trkpt lat="43.627687574878934" lon="11.881130544842874"><ele>535.0</ele><time>2026-04-25T10:31:41Z</time></trkpt><trkpt lat="43.627585060549755" lon="11.881134992338149"><ele>535.0</ele><time>2026-04-25T10:31:42Z</time></trkpt><trkpt lat="43.627456593262764" lon="11.88111284047304"><ele>534.0</ele><time>2026-04-25T10:31:43Z</time></trkpt><trkpt lat="43.6273132216019" lon="11.881107643709166"><ele>533.0</ele><time>2026-04-25T10:31:44Z</time></trkpt><trkpt lat="43.62717443564434" lon="11.881106081758617"><ele>532.0</ele><time>2026-04-25T10:31:45Z</time></trkpt><trkpt lat="43.627040604994924" lon="11.88110465918882"><ele>531.0</ele><time>2026-04-25T10:31:46Z</time></trkpt><trkpt lat="43.62690426900268" lon="11.881107608043862"><ele>531.0</ele><time>2026-04-25T10:31:47Z</time></trkpt><trkpt lat="43.62678099848388" lon="11.881131127762728"><ele>531.0</ele><time>2026-04-25T10:31:48Z</time></trkpt><trkpt lat="43.626664743753324" lon="11.881118303351347"><ele>531.0</ele><time>2026-04-25T10:31:49Z</time></trkpt><trkpt lat="43.626551246866725" lon="11.881085798373897"><ele>531.0</ele><time>2026-04-25T10:31:50Z</time></trkpt><trkpt lat="43.626422071624454" lon="11.8810615263052"><ele>531.0</ele><time>2026-04-25T10:31:51Z</time></trkpt><trkpt lat="43.62629455067265" lon="11.881037154603375"><ele>531.0</ele><time>2026-04-25T10:31:52Z</time></trkpt><trkpt lat="43.62617365123948" lon="11.88098975728372"><ele>531.0</ele><time>2026-04-25T10:31:53Z</time></trkpt><trkpt lat="43.62607053093019" lon="11.880949446853293"><ele>531.0</ele><time>2026-04-25T10:31:54Z</time></trkpt><trkpt lat="43.62598445050946" lon="11.88091995987396"><ele>525.0</ele><time>2026-04-25T10:31:55Z</time></trkpt><trkpt lat="43.62591040917013" lon="11.88083342137738"><ele>519.0</ele><time>2026-04-25T10:31:56Z</time></trkpt><trkpt lat="43.625828695052775" lon="11.880764007545624"><ele>513.0</ele><time>2026-04-25T10:31:57Z</time></trkpt><trkpt lat="43.62576653417403" lon="11.880663289645424"><ele>507.0</ele><time>2026-04-25T10:31:58Z</time></trkpt><trkpt lat="43.62570867369816" lon="11.880565499593029"><ele>501.0</ele><time>2026-04-25T10:31:59Z</time></trkpt><trkpt lat="43.62566609012541" lon="11.880468636767539"><ele>501.0</ele><time>2026-04-25T10:32:00Z</time></trkpt><trkpt lat="43.625631606036045" lon="11.880376428264823"><ele>501.0</ele><time>2026-04-25T10:32:01Z</time></trkpt><trkpt lat="43.62562185211679" lon="11.880281231370452"><ele>501.0</ele><time>2026-04-25T10:32:02Z</time></trkpt><trkpt lat="43.62548584509069" lon="11.880406390783492"><ele>501.0</ele><time>2026-04-25T10:32:07Z</time></trkpt><trkpt lat="43.625440408006554" lon="11.880519770085535"><ele>501.0</ele><time>2026-04-25T10:32:08Z</time></trkpt><trkpt lat="43.625368379835756" lon="11.880585295098927"><ele>503.0</ele><time>2026-04-25T10:32:09Z</time></trkpt><trkpt lat="43.62528027796816" lon="11.880657485054886"><ele>505.0</ele><time>2026-04-25T10:32:10Z</time></trkpt><trkpt lat="43.625216303315895" lon="11.880763751154067"><ele>507.0</ele><time>2026-04-25T10:32:11Z</time></trkpt><trkpt lat="43.62515195061173" lon="11.88091756517133"><ele>509.0</ele><time>2026-04-25T10:32:12Z</time></trkpt><trkpt lat="43.625087937885525" lon="11.881078695381165"><ele>509.0</ele><time>2026-04-25T10:32:13Z</time></trkpt><trkpt lat="43.62502216545351" lon="11.881193226318219"><ele>509.0</ele><time>2026-04-25T10:32:14Z</time></trkpt><trkpt lat="43.624975258321314" lon="11.881280094238715"><ele>509.0</ele><time>2026-04-25T10:32:15Z</time></trkpt><trkpt lat="43.62494011202212" lon="11.881368209689176"><ele>509.0</ele><time>2026-04-25T10:32:16Z</time></trkpt><trkpt lat="43.624849927420605" lon="11.881461795722066"><ele>509.0</ele><time>2026-04-25T10:32:17Z</time></trkpt><trkpt lat="43.62472429723264" lon="11.881570504473467"><ele>509.0</ele><time>2026-04-25T10:32:18Z</time></trkpt><trkpt lat="43.62462224661272" lon="11.881647448792272"><ele>509.0</ele><time>2026-04-25T10:32:19Z</time></trkpt><trkpt lat="43.624510953147" lon="11.881743617041913"><ele>509.0</ele><time>2026-04-25T10:32:20Z</time></trkpt><trkpt lat="43.62439834038379" lon="11.881833195086422"><ele>509.0</ele><time>2026-04-25T10:32:21Z</time></trkpt><trkpt lat="43.624296495880365" lon="11.881935026162"><ele>510.5</ele><time>2026-04-25T10:32:22Z</time></trkpt><trkpt lat="43.62417618324389" lon="11.882041718715907"><ele>512.0</ele><time>2026-04-25T10:32:23Z</time></trkpt><trkpt lat="43.62405605029439" lon="11.8821441381491"><ele>513.5</ele><time>2026-04-25T10:32:24Z</time></trkpt><trkpt lat="43.623936403172515" lon="11.882236912493147"><ele>515.0</ele><time>2026-04-25T10:32:25Z</time></trkpt><trkpt lat="43.62383117417184" lon="11.88231720595671"><ele>515.0</ele><time>2026-04-25T10:32:26Z</time></trkpt><trkpt lat="43.6237352947136" lon="11.88240010314489"><ele>515.0</ele><time>2026-04-25T10:32:27Z</time></trkpt><trkpt lat="43.623651699290185" lon="11.882441421495013"><ele>515.0</ele><time>2026-04-25T10:32:28Z</time></trkpt><trkpt lat="43.62354464893542" lon="11.882434752670386"><ele>515.0</ele><time>2026-04-25T10:32:29Z</time></trkpt><trkpt lat="43.62341138801961" lon="11.882421302011373"><ele>515.0</ele><time>2026-04-25T10:32:30Z</time></trkpt><trkpt lat="43.62327010220223" lon="11.8824118892152"><ele>511.75</ele><time>2026-04-25T10:32:31Z</time></trkpt><trkpt lat="43.62314698545266" lon="11.882412012201375"><ele>508.5</ele><time>2026-04-25T10:32:32Z</time></trkpt><trkpt lat="43.62303314117784" lon="11.882406598838594"><ele>505.25</ele><time>2026-04-25T10:32:33Z</time></trkpt><trkpt lat="43.622931503367774" lon="11.882391086615852"><ele>502.0</ele><time>2026-04-25T10:32:34Z</time></trkpt><trkpt lat="43.62282206507058" lon="11.882339309352055"><ele>500.6</ele><time>2026-04-25T10:32:35Z</time></trkpt><trkpt lat="43.6227385433099" lon="11.882251175700292"><ele>499.20000000000005</ele><time>2026-04-25T10:32:36Z</time></trkpt><trkpt lat="43.622673450982894" lon="11.882165260848723"><ele>497.8</ele><time>2026-04-25T10:32:37Z</time></trkpt><trkpt lat="43.62258540780509" lon="11.882184066457922"><ele>496.4</ele><time>2026-04-25T10:32:40Z</time></trkpt><trkpt lat="43.6225150916915" lon="11.882286758623797"><ele>495.0</ele><time>2026-04-25T10:32:41Z</time></trkpt><trkpt lat="43.62242381425309" lon="11.882372594007943"><ele>495.0</ele><time>2026-04-25T10:32:42Z</time></trkpt><trkpt lat="43.62230053141299" lon="11.88245683299985"><ele>495.0</ele><time>2026-04-25T10:32:43Z</time></trkpt><trkpt lat="43.62218049398684" lon="11.8825420050055"><ele>495.0</ele><time>2026-04-25T10:32:44Z</time></trkpt><trkpt lat="43.62209495084715" lon="11.882616828926917"><ele>495.0</ele><time>2026-04-25T10:32:45Z</time></trkpt><trkpt lat="43.62202917911994" lon="11.88270674458614"><ele>496.25</ele><time>2026-04-25T10:32:46Z</time></trkpt><trkpt lat="43.621987507963475" lon="11.882841815975409"><ele>497.5</ele><time>2026-04-25T10:32:47Z</time></trkpt><trkpt lat="43.62193477244094" lon="11.882994907231993"><ele>498.75</ele><time>2026-04-25T10:32:48Z</time></trkpt><trkpt lat="43.62185720296324" lon="11.88314671383683"><ele>500.0</ele><time>2026-04-25T10:32:49Z</time></trkpt><trkpt lat="43.62179296983002" lon="11.883298607884065"><ele>503.2</ele><time>2026-04-25T10:32:50Z</time></trkpt><trkpt lat="43.621742931009436" lon="11.883433660620577"><ele>506.4</ele><time>2026-04-25T10:32:51Z</time></trkpt><trkpt lat="43.621685323820465" lon="11.883527637513428"><ele>509.6</ele><time>2026-04-25T10:32:52Z</time></trkpt><trkpt lat="43.62159475325291" lon="11.88358373706611"><ele>512.8</ele><time>2026-04-25T10:32:53Z</time></trkpt><trkpt lat="43.62150942837584" lon="11.883610174917878"><ele>516.0</ele><time>2026-04-25T10:32:55Z</time></trkpt><trkpt lat="43.621475812038774" lon="11.88353380810007"><ele>516.0</ele><time>2026-04-25T10:32:56Z</time></trkpt><trkpt lat="43.62145494256725" lon="11.883436919776967"><ele>516.0</ele><time>2026-04-25T10:32:57Z</time></trkpt><trkpt lat="43.62145858027527" lon="11.883277852185392"><ele>516.0</ele><time>2026-04-25T10:32:58Z</time></trkpt><trkpt lat="43.621467267579625" lon="11.883108041055415"><ele>516.0</ele><time>2026-04-25T10:32:59Z</time></trkpt><trkpt lat="43.621463766513855" lon="11.88292621009525"><ele>516.0</ele><time>2026-04-25T10:33:00Z</time></trkpt><trkpt lat="43.621461263591065" lon="11.882725527726329"><ele>510.6</ele><time>2026-04-25T10:33:01Z</time></trkpt><trkpt lat="43.621462067111715" lon="11.882551380920901"><ele>505.20000000000005</ele><time>2026-04-25T10:33:02Z</time></trkpt><trkpt lat="43.62146784419214" lon="11.882453448979863"><ele>499.79999999999995</ele><time>2026-04-25T10:33:03Z</time></trkpt><trkpt lat="43.62142255728446" lon="11.882382242642027"><ele>494.4</ele><time>2026-04-25T10:33:04Z</time></trkpt><trkpt lat="43.62135873582485" lon="11.882246970939883"><ele>489.0</ele><time>2026-04-25T10:33:05Z</time></trkpt><trkpt lat="43.62124787875537" lon="11.88209100765425"><ele>489.0</ele><time>2026-04-25T10:33:06Z</time></trkpt><trkpt lat="43.62117216817592" lon="11.881931131683153"><ele>489.0</ele><time>2026-04-25T10:33:07Z</time></trkpt><trkpt lat="43.621148937973835" lon="11.881779316677953"><ele>489.0</ele><time>2026-04-25T10:33:08Z</time></trkpt><trkpt lat="43.62109435776663" lon="11.881664474642424"><ele>489.0</ele><time>2026-04-25T10:33:09Z</time></trkpt><trkpt lat="43.621005832860945" lon="11.881567615408601"><ele>493.25</ele><time>2026-04-25T10:33:10Z</time></trkpt><trkpt lat="43.62089992036739" lon="11.881433636027044"><ele>497.5</ele><time>2026-04-25T10:33:11Z</time></trkpt><trkpt lat="43.62079770070729" lon="11.881313138984613"><ele>501.75</ele><time>2026-04-25T10:33:12Z</time></trkpt><trkpt lat="43.62072432706413" lon="11.88122121291096"><ele>506.0</ele><time>2026-04-25T10:33:13Z</time></trkpt><trkpt lat="43.6206816755756" lon="11.881071254727011"><ele>504.20000000000005</ele><time>2026-04-25T10:33:14Z</time></trkpt><trkpt lat="43.620645787756594" lon="11.880909900303735"><ele>502.40000000000003</ele><time>2026-04-25T10:33:15Z</time></trkpt><trkpt lat="43.62059210576067" lon="11.880775219859535"><ele>500.6</ele><time>2026-04-25T10:33:16Z</time></trkpt><trkpt lat="43.62055928093164" lon="11.880648256245822"><ele>498.8</ele><time>2026-04-25T10:33:17Z</time></trkpt><trkpt lat="43.62056732515763" lon="11.880492138535377"><ele>497.0</ele><time>2026-04-25T10:33:18Z</time></trkpt><trkpt lat="43.62057090265117" lon="11.880294762699885"><ele>495.25</ele><time>2026-04-25T10:33:19Z</time></trkpt><trkpt lat="43.62057021692364" lon="11.88008807835979"><ele>493.5</ele><time>2026-04-25T10:33:20Z</time></trkpt><trkpt lat="43.620561685648546" lon="11.879910687106124"><ele>491.75</ele><time>2026-04-25T10:33:21Z</time></trkpt><trkpt lat="43.62057185684082" lon="11.879770218911162"><ele>490.0</ele><time>2026-04-25T10:33:22Z</time></trkpt><trkpt lat="43.620548315214435" lon="11.87965544162211"><ele>490.0</ele><time>2026-04-25T10:33:23Z</time></trkpt><trkpt lat="43.620475901257784" lon="11.87954680976658"><ele>490.0</ele><time>2026-04-25T10:33:24Z</time></trkpt><trkpt lat="43.62038167655782" lon="11.879419928787994"><ele>490.0</ele><time>2026-04-25T10:33:25Z</time></trkpt><trkpt lat="43.62029783172718" lon="11.87925513193673"><ele>490.0</ele><time>2026-04-25T10:33:26Z</time></trkpt><trkpt lat="43.62023893471317" lon="11.879138382512002"><ele>493.0</ele><time>2026-04-25T10:33:27Z</time></trkpt><trkpt lat="43.620162225785855" lon="11.8790726199792"><ele>496.0</ele><time>2026-04-25T10:33:28Z</time></trkpt><trkpt lat="43.62005733228845" lon="11.87903087191214"><ele>499.0</ele><time>2026-04-25T10:33:29Z</time></trkpt><trkpt lat="43.61996595775302" lon="11.87905809995328"><ele>502.0</ele><time>2026-04-25T10:33:30Z</time></trkpt><trkpt lat="43.61986032466303" lon="11.87911033719179"><ele>505.0</ele><time>2026-04-25T10:33:31Z</time></trkpt><trkpt lat="43.6197313243001" lon="11.8791596136369"><ele>505.0</ele><time>2026-04-25T10:33:32Z</time></trkpt><trkpt lat="43.619625214234865" lon="11.879122806815825"><ele>505.0</ele><time>2026-04-25T10:33:33Z</time></trkpt><trkpt lat="43.619534269945234" lon="11.879027411478846"><ele>505.0</ele><time>2026-04-25T10:33:34Z</time></trkpt><trkpt lat="43.6194382411444" lon="11.878913984642507"><ele>505.0</ele><time>2026-04-25T10:33:35Z</time></trkpt><trkpt lat="43.61934260820393" lon="11.878812085344116"><ele>503.4</ele><time>2026-04-25T10:33:36Z</time></trkpt><trkpt lat="43.61926409670677" lon="11.8787335017019"><ele>501.8</ele><time>2026-04-25T10:33:37Z</time></trkpt><trkpt lat="43.61921826790808" lon="11.878622459230124"><ele>500.20000000000005</ele><time>2026-04-25T10:33:38Z</time></trkpt><trkpt lat="43.61916507411044" lon="11.878467708916205"><ele>498.6</ele><time>2026-04-25T10:33:39Z</time></trkpt><trkpt lat="43.61911211131982" lon="11.878310842623046"><ele>497.0</ele><time>2026-04-25T10:33:40Z</time></trkpt><trkpt lat="43.61908140383301" lon="11.878173992553714"><ele>496.99999999999994</ele><time>2026-04-25T10:33:41Z</time></trkpt><trkpt lat="43.61903542107635" lon="11.878092753678164"><ele>497.0</ele><time>2026-04-25T10:33:42Z</time></trkpt><trkpt lat="43.61898345701074" lon="11.878018603817633"><ele>497.0</ele><time>2026-04-25T10:33:45Z</time></trkpt><trkpt lat="43.6189463597606" lon="11.87794096435264"><ele>497.0</ele><time>2026-04-25T10:33:47Z</time></trkpt><trkpt lat="43.61892627497695" lon="11.877844705709036"><ele>496.99999999999994</ele><time>2026-04-25T10:33:50Z</time></trkpt><trkpt lat="43.61886583371077" lon="11.877702783417242"><ele>497.0</ele><time>2026-04-25T10:33:52Z</time></trkpt><trkpt lat="43.6188029789684" lon="11.877593642754475"><ele>494.20000000000005</ele><time>2026-04-25T10:33:53Z</time></trkpt><trkpt lat="43.61872248878346" lon="11.877473538979945"><ele>491.40000000000003</ele><time>2026-04-25T10:33:54Z</time></trkpt><trkpt lat="43.618630038475004" lon="11.87737840052195"><ele>488.59999999999997</ele><time>2026-04-25T10:33:55Z</time></trkpt><trkpt lat="43.61854945811107" lon="11.877317480860098"><ele>485.79999999999995</ele><time>2026-04-25T10:33:56Z</time></trkpt><trkpt lat="43.61846249183699" lon="11.877272697196151"><ele>483.0</ele><time>2026-04-25T10:33:57Z</time></trkpt><trkpt lat="43.61839660375228" lon="11.877290532373502"><ele>483.0</ele><time>2026-04-25T10:33:58Z</time></trkpt><trkpt lat="43.6183162292038" lon="11.877310035442715"><ele>483.0</ele><time>2026-04-25T10:33:59Z</time></trkpt><trkpt lat="43.61823219010358" lon="11.877344059720054"><ele>483.0</ele><time>2026-04-25T10:34:00Z</time></trkpt><trkpt lat="43.61816431596282" lon="11.877310329356707"><ele>483.0</ele><time>2026-04-25T10:34:01Z</time></trkpt><trkpt lat="43.61811048266094" lon="11.877230111000701"><ele>483.0</ele><time>2026-04-25T10:34:02Z</time></trkpt><trkpt lat="43.61805977833145" lon="11.877154889441815"><ele>483.0</ele><time>2026-04-25T10:34:03Z</time></trkpt><trkpt lat="43.617988771817515" lon="11.877094710586157"><ele>483.0</ele><time>2026-04-25T10:34:04Z</time></trkpt><trkpt lat="43.61790279637415" lon="11.877022677963192"><ele>483.0</ele><time>2026-04-25T10:34:05Z</time></trkpt><trkpt lat="43.61781707236607" lon="11.876976315910664"><ele>483.0</ele><time>2026-04-25T10:34:06Z</time></trkpt><trkpt lat="43.61773804575931" lon="11.876939379413924"><ele>483.0</ele><time>2026-04-25T10:34:07Z</time></trkpt><trkpt lat="43.617642451662036" lon="11.876913016731194"><ele>483.0</ele><time>2026-04-25T10:34:08Z</time></trkpt><trkpt lat="43.61757431274557" lon="11.876893219830302"><ele>483.0</ele><time>2026-04-25T10:34:09Z</time></trkpt><trkpt lat="43.617491715876646" lon="11.876863671889058"><ele>482.5</ele><time>2026-04-25T10:34:10Z</time></trkpt><trkpt lat="43.617407191295335" lon="11.876844376715352"><ele>482.0</ele><time>2026-04-25T10:34:11Z</time></trkpt><trkpt lat="43.61731006224535" lon="11.876842239905924"><ele>481.5</ele><time>2026-04-25T10:34:12Z</time></trkpt><trkpt lat="43.61722474827315" lon="11.876867868790644"><ele>481.0</ele><time>2026-04-25T10:34:13Z</time></trkpt><trkpt lat="43.61715169500886" lon="11.876898830446345"><ele>480.5</ele><time>2026-04-25T10:34:14Z</time></trkpt><trkpt lat="43.61707389360561" lon="11.876962819170917"><ele>480.0</ele><time>2026-04-25T10:34:15Z</time></trkpt><trkpt lat="43.617011116625164" lon="11.877010814578377"><ele>478.5</ele><time>2026-04-25T10:34:16Z</time></trkpt><trkpt lat="43.616923999577295" lon="11.877018902174457"><ele>477.0</ele><time>2026-04-25T10:34:17Z</time></trkpt><trkpt lat="43.61683706149454" lon="11.876999069691548"><ele>475.5</ele><time>2026-04-25T10:34:18Z</time></trkpt><trkpt lat="43.61676010581271" lon="11.876973426014066"><ele>474.0</ele><time>2026-04-25T10:34:19Z</time></trkpt><trkpt lat="43.61669489016797" lon="11.876955868126569"><ele>472.5</ele><time>2026-04-25T10:34:21Z</time></trkpt><trkpt lat="43.61673028385079" lon="11.877081523079474"><ele>471.0</ele><time>2026-04-25T10:34:26Z</time></trkpt><trkpt lat="43.61673991335545" lon="11.877214009906396"><ele>471.0</ele><time>2026-04-25T10:34:28Z</time></trkpt><trkpt lat="43.61669034722781" lon="11.877282903570242"><ele>471.0</ele><time>2026-04-25T10:34:29Z</time></trkpt><trkpt lat="43.6166345875948" lon="11.87734664046746"><ele>471.0</ele><time>2026-04-25T10:34:30Z</time></trkpt><trkpt lat="43.61660366852192" lon="11.877490489666924"><ele>471.0</ele><time>2026-04-25T10:34:32Z</time></trkpt><trkpt lat="43.616652350483164" lon="11.877572741129784"><ele>471.0</ele><time>2026-04-25T10:34:33Z</time></trkpt><trkpt lat="43.616724132835394" lon="11.877633850775979"><ele>471.0</ele><time>2026-04-25T10:34:34Z</time></trkpt><trkpt lat="43.61679526519043" lon="11.877649657208494"><ele>474.4</ele><time>2026-04-25T10:34:35Z</time></trkpt><trkpt lat="43.61686113402234" lon="11.877675686609082"><ele>477.8</ele><time>2026-04-25T10:34:36Z</time></trkpt><trkpt lat="43.61685710832125" lon="11.877791724292344"><ele>481.19999999999993</ele><time>2026-04-25T10:34:38.001Z</time></trkpt><trkpt lat="43.61674558377563" lon="11.877891608672883"><ele>484.59999999999997</ele><time>2026-04-25T10:34:40.001Z</time></trkpt><trkpt lat="43.616657484469954" lon="11.877957645243391"><ele>488.0</ele><time>2026-04-25T10:34:41.001Z</time></trkpt><trkpt lat="43.616560228996576" lon="11.878046157349866"><ele>487.99999999999994</ele><time>2026-04-25T10:34:42.001Z</time></trkpt><trkpt lat="43.6164681590306" lon="11.878130477438088"><ele>488.0</ele><time>2026-04-25T10:34:43.001Z</time></trkpt><trkpt lat="43.616391195160055" lon="11.87822018970736"><ele>488.0</ele><time>2026-04-25T10:34:44.001Z</time></trkpt><trkpt lat="43.61636568805152" lon="11.878317698562773"><ele>488.0</ele><time>2026-04-25T10:34:46.001Z</time></trkpt><trkpt lat="43.61642685882663" lon="11.878383217980957"><ele>487.99999999999994</ele><time>2026-04-25T10:34:49Z</time></trkpt><trkpt lat="43.616473962679265" lon="11.87846586700995"><ele>488.0</ele><time>2026-04-25T10:34:50Z</time></trkpt><trkpt lat="43.616504735118966" lon="11.878574863010149"><ele>489.79999999999995</ele><time>2026-04-25T10:34:51Z</time></trkpt><trkpt lat="43.616556022000815" lon="11.878695949312656"><ele>491.59999999999997</ele><time>2026-04-25T10:34:52Z</time></trkpt><trkpt lat="43.61661137085039" lon="11.878823355457323"><ele>493.40000000000003</ele><time>2026-04-25T10:34:53Z</time></trkpt><trkpt lat="43.61665785579305" lon="11.878943082510887"><ele>495.20000000000005</ele><time>2026-04-25T10:34:54Z</time></trkpt><trkpt lat="43.61669561500431" lon="11.879041879738908"><ele>497.0</ele><time>2026-04-25T10:34:55Z</time></trkpt><trkpt lat="43.6167603993515" lon="11.879116673688138"><ele>497.0</ele><time>2026-04-25T10:34:56Z</time></trkpt><trkpt lat="43.61679315692898" lon="11.879206347142578"><ele>497.00000000000006</ele><time>2026-04-25T10:34:57Z</time></trkpt><trkpt lat="43.616787984061055" lon="11.87933819648072"><ele>497.00000000000006</ele><time>2026-04-25T10:34:58Z</time></trkpt><trkpt lat="43.6167821233078" lon="11.879492911944139"><ele>497.0</ele><time>2026-04-25T10:34:59Z</time></trkpt><trkpt lat="43.616748379727355" lon="11.879634262274703"><ele>497.0</ele><time>2026-04-25T10:35:00Z</time></trkpt><trkpt lat="43.61669811309226" lon="11.879769796557307"><ele>498.20000000000005</ele><time>2026-04-25T10:35:01Z</time></trkpt><trkpt lat="43.61663418962824" lon="11.879911323236069"><ele>499.40000000000003</ele><time>2026-04-25T10:35:02Z</time></trkpt><trkpt lat="43.61655621609608" lon="11.880029685816321"><ele>500.59999999999997</ele><time>2026-04-25T10:35:03Z</time></trkpt><trkpt lat="43.61649072234672" lon="11.880164290867967"><ele>501.79999999999995</ele><time>2026-04-25T10:35:04Z</time></trkpt><trkpt lat="43.61646243256659" lon="11.880281902028628"><ele>503.0</ele><time>2026-04-25T10:35:05Z</time></trkpt><trkpt lat="43.616545487073225" lon="11.88044462690028"><ele>503.8333333333333</ele><time>2026-04-25T10:35:07Z</time></trkpt><trkpt lat="43.61660153373206" lon="11.880527151580825"><ele>504.66666666666663</ele><time>2026-04-25T10:35:08Z</time></trkpt><trkpt lat="43.616669834104215" lon="11.880563073079363"><ele>505.5</ele><time>2026-04-25T10:35:10Z</time></trkpt><trkpt lat="43.61673519317271" lon="11.880561815103976"><ele>506.33333333333337</ele><time>2026-04-25T10:35:11Z</time></trkpt><trkpt lat="43.61684399891264" lon="11.880599693541134"><ele>507.1666666666667</ele><time>2026-04-25T10:35:13Z</time></trkpt><trkpt lat="43.61689451176614" lon="11.88066060655484"><ele>508.0</ele><time>2026-04-25T10:35:14Z</time></trkpt><trkpt lat="43.616955151989856" lon="11.88070917389665"><ele>511.33333333333337</ele><time>2026-04-25T10:35:15Z</time></trkpt><trkpt lat="43.61702694549875" lon="11.880755422575682"><ele>514.6666666666667</ele><time>2026-04-25T10:35:16Z</time></trkpt><trkpt lat="43.617087237391075" lon="11.880805301324322"><ele>518.0</ele><time>2026-04-25T10:35:17Z</time></trkpt><trkpt lat="43.61710885428595" lon="11.880955182890238"><ele>521.3333333333334</ele><time>2026-04-25T10:35:19Z</time></trkpt><trkpt lat="43.617106123638195" lon="11.881063338503344"><ele>524.6666666666666</ele><time>2026-04-25T10:35:20Z</time></trkpt><trkpt lat="43.61714119301949" lon="11.881166654438754"><ele>528.0</ele><time>2026-04-25T10:35:21Z</time></trkpt><trkpt lat="43.617186205811045" lon="11.881260578106978"><ele>529.3333333333334</ele><time>2026-04-25T10:35:22Z</time></trkpt><trkpt lat="43.61723500383305" lon="11.881337093706852"><ele>530.6666666666666</ele><time>2026-04-25T10:35:23Z</time></trkpt><trkpt lat="43.61728703320035" lon="11.881417411878077"><ele>532.0</ele><time>2026-04-25T10:35:24Z</time></trkpt><trkpt lat="43.61733372230173" lon="11.881490341829586"><ele>533.3333333333333</ele><time>2026-04-25T10:35:25Z</time></trkpt><trkpt lat="43.6174160903019" lon="11.88159546904661"><ele>534.6666666666666</ele><time>2026-04-25T10:35:27Z</time></trkpt><trkpt lat="43.61747745597007" lon="11.88164440448756"><ele>536.0</ele><time>2026-04-25T10:35:28Z</time></trkpt><trkpt lat="43.617541174463014" lon="11.881680039578509"><ele>536.0</ele><time>2026-04-25T10:35:29Z</time></trkpt><trkpt lat="43.617611472387175" lon="11.881722601311282"><ele>536.0</ele><time>2026-04-25T10:35:30Z</time></trkpt><trkpt lat="43.617688469927224" lon="11.881759316342032"><ele>536.0</ele><time>2026-04-25T10:35:31Z</time></trkpt><trkpt lat="43.61776581151934" lon="11.881766077370406"><ele>536.0</ele><time>2026-04-25T10:35:32Z</time></trkpt><trkpt lat="43.617836067615904" lon="11.881748836863814"><ele>536.0</ele><time>2026-04-25T10:35:33Z</time></trkpt><trkpt lat="43.61795223053891" lon="11.88173329178549"><ele>536.0</ele><time>2026-04-25T10:35:35Z</time></trkpt><trkpt lat="43.61806482796255" lon="11.88165418573623"><ele>539.6</ele><time>2026-04-25T10:35:37Z</time></trkpt><trkpt lat="43.61813421283338" lon="11.881662995059804"><ele>543.2</ele><time>2026-04-25T10:35:38Z</time></trkpt><trkpt lat="43.618206347904156" lon="11.881756440303317"><ele>546.8</ele><time>2026-04-25T10:35:40Z</time></trkpt><trkpt lat="43.6181363884711" lon="11.88189395306215"><ele>550.4</ele><time>2026-04-25T10:35:42Z</time></trkpt><trkpt lat="43.61805109412049" lon="11.88198319805695"><ele>554.0</ele><time>2026-04-25T10:35:43Z</time></trkpt><trkpt lat="43.61797984490035" lon="11.882089454959385"><ele>555.8</ele><time>2026-04-25T10:35:44Z</time></trkpt><trkpt lat="43.61794047015957" lon="11.882187790218884"><ele>557.5999999999999</ele><time>2026-04-25T10:35:45Z</time></trkpt><trkpt lat="43.61789540698765" lon="11.882336897497556"><ele>559.4</ele><time>2026-04-25T10:35:46Z</time></trkpt><trkpt lat="43.61784429311435" lon="11.882508888584434"><ele>561.1999999999999</ele><time>2026-04-25T10:35:47Z</time></trkpt><trkpt lat="43.617823064439825" lon="11.88265473589037"><ele>563.0</ele><time>2026-04-25T10:35:48Z</time></trkpt><trkpt lat="43.617820495992305" lon="11.882804939176394"><ele>562.4</ele><time>2026-04-25T10:35:49Z</time></trkpt><trkpt lat="43.6178156073929" lon="11.882989124828276"><ele>561.8</ele><time>2026-04-25T10:35:50Z</time></trkpt><trkpt lat="43.61781535229815" lon="11.883118487070274"><ele>561.2</ele><time>2026-04-25T10:35:51Z</time></trkpt><trkpt lat="43.61780194801868" lon="11.88323210086644"><ele>560.6</ele><time>2026-04-25T10:35:52Z</time></trkpt><trkpt lat="43.61775128282881" lon="11.88331193227002"><ele>560.0</ele><time>2026-04-25T10:35:53Z</time></trkpt><trkpt lat="43.61766889292044" lon="11.883343735841287"><ele>560.0</ele><time>2026-04-25T10:35:55Z</time></trkpt><trkpt lat="43.617613677124794" lon="11.883388731923239"><ele>560.0</ele><time>2026-04-25T10:35:58Z</time></trkpt><trkpt lat="43.617554866531364" lon="11.883456168824665"><ele>560.0</ele><time>2026-04-25T10:36:01Z</time></trkpt><trkpt lat="43.61751313473409" lon="11.883525584686604"><ele>560.0</ele><time>2026-04-25T10:36:05Z</time></trkpt><trkpt lat="43.6174455819968" lon="11.883618487407379"><ele>560.0</ele><time>2026-04-25T10:36:19Z</time></trkpt><trkpt lat="43.617392757665606" lon="11.883696953345416"><ele>560.0</ele><time>2026-04-25T10:36:20Z</time></trkpt><trkpt lat="43.61732666253605" lon="11.883765886923504"><ele>558.3333333333333</ele><time>2026-04-25T10:36:21Z</time></trkpt><trkpt lat="43.61724648639927" lon="11.883780789185836"><ele>556.6666666666666</ele><time>2026-04-25T10:36:22Z</time></trkpt><trkpt lat="43.617154670410414" lon="11.883808884996892"><ele>555.0</ele><time>2026-04-25T10:36:23Z</time></trkpt><trkpt lat="43.61707852004886" lon="11.883877655050144"><ele>553.3333333333334</ele><time>2026-04-25T10:36:24Z</time></trkpt><trkpt lat="43.61702316857999" lon="11.883957749452549"><ele>551.6666666666667</ele><time>2026-04-25T10:36:25Z</time></trkpt><trkpt lat="43.616986506820254" lon="11.88406759750673"><ele>550.0</ele><time>2026-04-25T10:36:26Z</time></trkpt><trkpt lat="43.61696431693197" lon="11.884180703387772"><ele>550.2</ele><time>2026-04-25T10:36:27Z</time></trkpt><trkpt lat="43.61693948152359" lon="11.884299904089964"><ele>550.4</ele><time>2026-04-25T10:36:28Z</time></trkpt><trkpt lat="43.61692705964431" lon="11.884437041578668"><ele>550.6</ele><time>2026-04-25T10:36:29Z</time></trkpt><trkpt lat="43.61693472901031" lon="11.884572198356343"><ele>550.8</ele><time>2026-04-25T10:36:30Z</time></trkpt><trkpt lat="43.61691097377808" lon="11.884725906295706"><ele>551.0</ele><time>2026-04-25T10:36:31Z</time></trkpt><trkpt lat="43.616884862835136" lon="11.88486092102782"><ele>551.0</ele><time>2026-04-25T10:36:32Z</time></trkpt><trkpt lat="43.61687670811046" lon="11.884981651353298"><ele>551.0</ele><time>2026-04-25T10:36:33Z</time></trkpt><trkpt lat="43.616860904036464" lon="11.885076904844523"><ele>551.0</ele><time>2026-04-25T10:36:34Z</time></trkpt><trkpt lat="43.61681585188456" lon="11.885178215260312"><ele>551.0</ele><time>2026-04-25T10:36:35Z</time></trkpt><trkpt lat="43.61674665165444" lon="11.885257861506666"><ele>551.0</ele><time>2026-04-25T10:36:36Z</time></trkpt><trkpt lat="43.61665464776236" lon="11.885321866087741"><ele>551.0</ele><time>2026-04-25T10:36:37Z</time></trkpt><trkpt lat="43.616547645649405" lon="11.885354879000076"><ele>551.4</ele><time>2026-04-25T10:36:38Z</time></trkpt><trkpt lat="43.61648225564772" lon="11.885470583774069"><ele>551.8</ele><time>2026-04-25T10:36:40Z</time></trkpt><trkpt lat="43.61650558638144" lon="11.885575857716685"><ele>552.1999999999999</ele><time>2026-04-25T10:36:41Z</time></trkpt><trkpt lat="43.61652976063004" lon="11.885708827320585"><ele>552.6</ele><time>2026-04-25T10:36:42Z</time></trkpt><trkpt lat="43.616521961257895" lon="11.885837557963592"><ele>553.0</ele><time>2026-04-25T10:36:43.001Z</time></trkpt><trkpt lat="43.616454016117416" lon="11.885924402168026"><ele>553.6</ele><time>2026-04-25T10:36:44.001Z</time></trkpt><trkpt lat="43.61639999475279" lon="11.886034529947592"><ele>554.1999999999999</ele><time>2026-04-25T10:36:45.001Z</time></trkpt><trkpt lat="43.61639602315583" lon="11.886162948981791"><ele>554.8</ele><time>2026-04-25T10:36:46.001Z</time></trkpt><trkpt lat="43.616426253703196" lon="11.886292146555496"><ele>555.4</ele><time>2026-04-25T10:36:47.001Z</time></trkpt><trkpt lat="43.6164662018202" lon="11.88642445119508"><ele>556.0</ele><time>2026-04-25T10:36:48.001Z</time></trkpt><trkpt lat="43.616464325356795" lon="11.886550465432492"><ele>556.0</ele><time>2026-04-25T10:36:49.001Z</time></trkpt><trkpt lat="43.61642455929238" lon="11.88667013051018"><ele>556.0</ele><time>2026-04-25T10:36:50.001Z</time></trkpt><trkpt lat="43.616345585320865" lon="11.886818441935997"><ele>556.0</ele><time>2026-04-25T10:36:51.001Z</time></trkpt><trkpt lat="43.61625760130205" lon="11.886916357970259"><ele>556.0</ele><time>2026-04-25T10:36:52.001Z</time></trkpt><trkpt lat="43.61620016037676" lon="11.887015834692635"><ele>556.0</ele><time>2026-04-25T10:36:54.001Z</time></trkpt><trkpt lat="43.616093686486565" lon="11.88699988723879"><ele>560.0</ele><time>2026-04-25T10:36:56.001Z</time></trkpt><trkpt lat="43.615990069456" lon="11.886976549439506"><ele>564.0</ele><time>2026-04-25T10:36:57Z</time></trkpt><trkpt lat="43.61586087109755" lon="11.88701361894146"><ele>568.0</ele><time>2026-04-25T10:36:58Z</time></trkpt><trkpt lat="43.615729040902885" lon="11.887062586609632"><ele>572.0</ele><time>2026-04-25T10:36:59Z</time></trkpt><trkpt lat="43.61563314562545" lon="11.887098980812462"><ele>572.0</ele><time>2026-04-25T10:37:00Z</time></trkpt><trkpt lat="43.615550499981886" lon="11.88712703822176"><ele>572.0</ele><time>2026-04-25T10:37:01Z</time></trkpt><trkpt lat="43.61545310895989" lon="11.88707576444276"><ele>572.0</ele><time>2026-04-25T10:37:02Z</time></trkpt><trkpt lat="43.61537393699999" lon="11.887073854034762"><ele>572.0</ele><time>2026-04-25T10:37:03Z</time></trkpt><trkpt lat="43.61529411124036" lon="11.88714545336324"><ele>572.0</ele><time>2026-04-25T10:37:04Z</time></trkpt><trkpt lat="43.61521827438331" lon="11.887160089076085"><ele>572.0</ele><time>2026-04-25T10:37:05Z</time></trkpt><trkpt lat="43.61511143533496" lon="11.887106712723279"><ele>572.8000000000001</ele><time>2026-04-25T10:37:06Z</time></trkpt><trkpt lat="43.61498967822134" lon="11.88705605111641"><ele>573.6</ele><time>2026-04-25T10:37:07Z</time></trkpt><trkpt lat="43.6148782638676" lon="11.887088763381643"><ele>574.4000000000001</ele><time>2026-04-25T10:37:08Z</time></trkpt><trkpt lat="43.61479777276395" lon="11.887167029501379"><ele>575.2</ele><time>2026-04-25T10:37:09Z</time></trkpt><trkpt lat="43.61471119025417" lon="11.887184477208294"><ele>576.0</ele><time>2026-04-25T10:37:10Z</time></trkpt><trkpt lat="43.61466526235667" lon="11.887075478236373"><ele>576.0</ele><time>2026-04-25T10:37:12Z</time></trkpt><trkpt lat="43.614635610878025" lon="11.886949026639362"><ele>576.0</ele><time>2026-04-25T10:37:13Z</time></trkpt><trkpt lat="43.61459151611641" lon="11.886833447055185"><ele>576.0</ele><time>2026-04-25T10:37:14Z</time></trkpt><trkpt lat="43.61451174211975" lon="11.886742617701346"><ele>576.0</ele><time>2026-04-25T10:37:15Z</time></trkpt><trkpt lat="43.61446200520651" lon="11.886686414501296"><ele>576.0</ele><time>2026-04-25T10:37:17Z</time></trkpt><trkpt lat="43.6144022348772" lon="11.886610545887795"><ele>576.0</ele><time>2026-04-25T10:37:20Z</time></trkpt><trkpt lat="43.614328823215395" lon="11.88655955326902"><ele>575.1666666666666</ele><time>2026-04-25T10:37:22Z</time></trkpt><trkpt lat="43.614243800724516" lon="11.88657050407839"><ele>574.3333333333334</ele><time>2026-04-25T10:37:24Z</time></trkpt><trkpt lat="43.614156501281954" lon="11.886706262346936"><ele>573.5</ele><time>2026-04-25T10:37:26Z</time></trkpt><trkpt lat="43.614099396564754" lon="11.886748787070792"><ele>572.6666666666667</ele><time>2026-04-25T10:37:27Z</time></trkpt><trkpt lat="43.614033825529624" lon="11.886783730542021"><ele>571.8333333333334</ele><time>2026-04-25T10:37:28Z</time></trkpt><trkpt lat="43.613964995276596" lon="11.886801019530598"><ele>571.0</ele><time>2026-04-25T10:37:29Z</time></trkpt><trkpt lat="43.613895224576645" lon="11.886814075059887"><ele>571.0</ele><time>2026-04-25T10:37:30Z</time></trkpt><trkpt lat="43.61383112912584" lon="11.886840052787782"><ele>571.0</ele><time>2026-04-25T10:37:31Z</time></trkpt><trkpt lat="43.61377912153242" lon="11.886898668573162"><ele>571.0</ele><time>2026-04-25T10:37:32Z</time></trkpt><trkpt lat="43.613731907277604" lon="11.886959806247912"><ele>571.0</ele><time>2026-04-25T10:37:33Z</time></trkpt><trkpt lat="43.6136551621598" lon="11.887082510327572"><ele>571.0</ele><time>2026-04-25T10:37:35Z</time></trkpt><trkpt lat="43.613567479305566" lon="11.887174828996278"><ele>571.0</ele><time>2026-04-25T10:37:37Z</time></trkpt><trkpt lat="43.61351185937529" lon="11.887216997409125"><ele>570.5</ele><time>2026-04-25T10:37:38Z</time></trkpt><trkpt lat="43.61338947515717" lon="11.887264559454561"><ele>570.0</ele><time>2026-04-25T10:37:40Z</time></trkpt><trkpt lat="43.61328261149484" lon="11.887357133343107"><ele>569.5</ele><time>2026-04-25T10:37:42Z</time></trkpt><trkpt lat="43.61316772259794" lon="11.887412973191289"><ele>569.0</ele><time>2026-04-25T10:37:44Z</time></trkpt><trkpt lat="43.61304807696886" lon="11.887460682080686"><ele>569.0</ele><time>2026-04-25T10:37:46Z</time></trkpt><trkpt lat="43.61294919463188" lon="11.887519267096772"><ele>569.0</ele><time>2026-04-25T10:37:48Z</time></trkpt><trkpt lat="43.61284224811047" lon="11.887581303067508"><ele>569.0</ele><time>2026-04-25T10:37:50Z</time></trkpt><trkpt lat="43.61272976162165" lon="11.887636203897316"><ele>569.0</ele><time>2026-04-25T10:37:52Z</time></trkpt><trkpt lat="43.61266196109263" lon="11.887677540829037"><ele>569.0</ele><time>2026-04-25T10:37:53Z</time></trkpt><trkpt lat="43.612596745046076" lon="11.887688220412917"><ele>569.8333333333333</ele><time>2026-04-25T10:37:54Z</time></trkpt><trkpt lat="43.612530517639364" lon="11.887719284478557"><ele>570.6666666666666</ele><time>2026-04-25T10:37:55Z</time></trkpt><trkpt lat="43.61240793015772" lon="11.887762789360487"><ele>571.5</ele><time>2026-04-25T10:37:57Z</time></trkpt><trkpt lat="43.61234974466889" lon="11.887802037154136"><ele>572.3333333333334</ele><time>2026-04-25T10:37:58Z</time></trkpt><trkpt lat="43.612287356348794" lon="11.887853853791515"><ele>573.1666666666667</ele><time>2026-04-25T10:37:59Z</time></trkpt><trkpt lat="43.612247282662246" lon="11.88795132314811"><ele>574.0</ele><time>2026-04-25T10:38:00Z</time></trkpt><trkpt lat="43.61220066859012" lon="11.888056246279284"><ele>574.0</ele><time>2026-04-25T10:38:02Z</time></trkpt><trkpt lat="43.612032650912475" lon="11.888079244565947"><ele>574.0</ele><time>2026-04-25T10:38:04Z</time></trkpt><trkpt lat="43.61191916532615" lon="11.888098026250224"><ele>574.0</ele><time>2026-04-25T10:38:05Z</time></trkpt><trkpt lat="43.61180233869842" lon="11.888132909364497"><ele>574.0</ele><time>2026-04-25T10:38:06Z</time></trkpt><trkpt lat="43.61168069310557" lon="11.888174993859273"><ele>571.6</ele><time>2026-04-25T10:38:07Z</time></trkpt><trkpt lat="43.61156537527741" lon="11.888204710477417"><ele>569.2</ele><time>2026-04-25T10:38:08Z</time></trkpt><trkpt lat="43.61145716744941" lon="11.888243824004778"><ele>566.8000000000001</ele><time>2026-04-25T10:38:09Z</time></trkpt><trkpt lat="43.61135556253647" lon="11.888272370602154"><ele>564.4</ele><time>2026-04-25T10:38:10Z</time></trkpt><trkpt lat="43.61125918268431" lon="11.888295285069677"><ele>562.0</ele><time>2026-04-25T10:38:11Z</time></trkpt><trkpt lat="43.61116703808036" lon="11.888311336041053"><ele>560.1666666666667</ele><time>2026-04-25T10:38:12Z</time></trkpt><trkpt lat="43.61108984501565" lon="11.888332555140446"><ele>558.3333333333334</ele><time>2026-04-25T10:38:13Z</time></trkpt><trkpt lat="43.61102250895415" lon="11.888347709026624"><ele>556.5</ele><time>2026-04-25T10:38:14Z</time></trkpt><trkpt lat="43.61091483611167" lon="11.888447825100286"><ele>554.6666666666666</ele><time>2026-04-25T10:38:16Z</time></trkpt><trkpt lat="43.61088307984597" lon="11.888548646724292"><ele>552.8333333333333</ele><time>2026-04-25T10:38:17Z</time></trkpt><trkpt lat="43.61088033413541" lon="11.888670548479585"><ele>551.0</ele><time>2026-04-25T10:38:18Z</time></trkpt><trkpt lat="43.61086473274489" lon="11.888790678804673"><ele>551.0</ele><time>2026-04-25T10:38:19Z</time></trkpt><trkpt lat="43.610839804282676" lon="11.888887992050966"><ele>551.0</ele><time>2026-04-25T10:38:20Z</time></trkpt><trkpt lat="43.61079503576481" lon="11.888965924178075"><ele>551.0</ele><time>2026-04-25T10:38:21Z</time></trkpt><trkpt lat="43.61073953048481" lon="11.88901167803134"><ele>551.0</ele><time>2026-04-25T10:38:22Z</time></trkpt><trkpt lat="43.61061161284349" lon="11.888969035918915"><ele>551.0</ele><time>2026-04-25T10:38:24Z</time></trkpt><trkpt lat="43.61056962610893" lon="11.888885352431792"><ele>551.0</ele><time>2026-04-25T10:38:25Z</time></trkpt><trkpt lat="43.61053746951033" lon="11.888797251636733"><ele>551.0</ele><time>2026-04-25T10:38:26Z</time></trkpt><trkpt lat="43.61052386789804" lon="11.888685203470112"><ele>551.0</ele><time>2026-04-25T10:38:27Z</time></trkpt><trkpt lat="43.61051803818163" lon="11.888559708250195"><ele>551.0</ele><time>2026-04-25T10:38:28Z</time></trkpt><trkpt lat="43.610529737067324" lon="11.888436516886012"><ele>551.0</ele><time>2026-04-25T10:38:29Z</time></trkpt><trkpt lat="43.610543494108335" lon="11.888321610669381"><ele>551.0</ele><time>2026-04-25T10:38:30Z</time></trkpt><trkpt lat="43.61059029719487" lon="11.888226748490302"><ele>551.0</ele><time>2026-04-25T10:38:31Z</time></trkpt><trkpt lat="43.61061540214305" lon="11.888095511032208"><ele>550.25</ele><time>2026-04-25T10:38:32Z</time></trkpt><trkpt lat="43.610658398858064" lon="11.887911759723139"><ele>549.5</ele><time>2026-04-25T10:38:33Z</time></trkpt><trkpt lat="43.61070419560374" lon="11.887750288959412"><ele>548.75</ele><time>2026-04-25T10:38:34Z</time></trkpt><trkpt lat="43.61074511231582" lon="11.88758951581904"><ele>548.0</ele><time>2026-04-25T10:38:35Z</time></trkpt><trkpt lat="43.61077977352952" lon="11.887431465952476"><ele>546.0</ele><time>2026-04-25T10:38:36Z</time></trkpt><trkpt lat="43.61082170318185" lon="11.887287287715012"><ele>544.0</ele><time>2026-04-25T10:38:37Z</time></trkpt><trkpt lat="43.6108750456126" lon="11.887156416254824"><ele>542.0</ele><time>2026-04-25T10:38:38Z</time></trkpt><trkpt lat="43.610928698033845" lon="11.887045594594959"><ele>540.0</ele><time>2026-04-25T10:38:39Z</time></trkpt><trkpt lat="43.610984747355914" lon="11.886936673608634"><ele>538.0</ele><time>2026-04-25T10:38:40Z</time></trkpt><trkpt lat="43.6110088980128" lon="11.886840934131643"><ele>538.0</ele><time>2026-04-25T10:38:41Z</time></trkpt><trkpt lat="43.6109973141692" lon="11.886751940900469"><ele>538.0</ele><time>2026-04-25T10:38:42Z</time></trkpt><trkpt lat="43.610931872356254" lon="11.88668153001966"><ele>538.0</ele><time>2026-04-25T10:38:43Z</time></trkpt><trkpt lat="43.61084416312098" lon="11.886669586314126"><ele>538.0</ele><time>2026-04-25T10:38:44Z</time></trkpt><trkpt lat="43.610749605913135" lon="11.886722585118637"><ele>538.0</ele><time>2026-04-25T10:38:45Z</time></trkpt><trkpt lat="43.610643675238286" lon="11.88676845950839"><ele>538.0</ele><time>2026-04-25T10:38:46Z</time></trkpt><trkpt lat="43.6105388726611" lon="11.886827847626193"><ele>538.0</ele><time>2026-04-25T10:38:47Z</time></trkpt><trkpt lat="43.61043187011689" lon="11.88688848238062"><ele>538.0</ele><time>2026-04-25T10:38:48Z</time></trkpt><trkpt lat="43.61033824346626" lon="11.886965093387511"><ele>538.0</ele><time>2026-04-25T10:38:49Z</time></trkpt><trkpt lat="43.610247707699315" lon="11.886986607584435"><ele>538.0</ele><time>2026-04-25T10:38:50Z</time></trkpt><trkpt lat="43.610177383655646" lon="11.8870091885253"><ele>535.6666666666667</ele><time>2026-04-25T10:38:51Z</time></trkpt><trkpt lat="43.61006399474447" lon="11.886977354398873"><ele>533.3333333333334</ele><time>2026-04-25T10:38:53Z</time></trkpt><trkpt lat="43.61001161255237" lon="11.88692819882736"><ele>531.0</ele><time>2026-04-25T10:38:54Z</time></trkpt><trkpt lat="43.60999307261236" lon="11.886823658096848"><ele>528.6666666666666</ele><time>2026-04-25T10:38:55Z</time></trkpt><trkpt lat="43.6099817382972" lon="11.88672206591638"><ele>526.3333333333333</ele><time>2026-04-25T10:38:56Z</time></trkpt><trkpt lat="43.609997551317306" lon="11.88662266937225"><ele>524.0</ele><time>2026-04-25T10:38:57Z</time></trkpt><trkpt lat="43.610053040038785" lon="11.886541733515939"><ele>524.2857142857143</ele><time>2026-04-25T10:38:58Z</time></trkpt><trkpt lat="43.61010077940558" lon="11.886472939186143"><ele>524.5714285714287</ele><time>2026-04-25T10:38:59Z</time></trkpt><trkpt lat="43.610150524072" lon="11.886412261778595"><ele>524.8571428571429</ele><time>2026-04-25T10:39:00Z</time></trkpt><trkpt lat="43.61020560441486" lon="11.88635445899796"><ele>525.1428571428571</ele><time>2026-04-25T10:39:01Z</time></trkpt><trkpt lat="43.61026074592457" lon="11.886304084117612"><ele>525.4285714285713</ele><time>2026-04-25T10:39:02Z</time></trkpt><trkpt lat="43.610311268286154" lon="11.886249901371128"><ele>525.7142857142857</ele><time>2026-04-25T10:39:03Z</time></trkpt><trkpt lat="43.61036898455991" lon="11.886202406884694"><ele>526.0</ele><time>2026-04-25T10:39:04Z</time></trkpt><trkpt lat="43.61042954487213" lon="11.886128365748398"><ele>526.0</ele><time>2026-04-25T10:39:05Z</time></trkpt><trkpt lat="43.610500881065384" lon="11.88604972427237"><ele>526.0</ele><time>2026-04-25T10:39:06Z</time></trkpt><trkpt lat="43.610593465905815" lon="11.885970204226737"><ele>526.0</ele><time>2026-04-25T10:39:07Z</time></trkpt><trkpt lat="43.61069720840746" lon="11.885881979797997"><ele>526.0</ele><time>2026-04-25T10:39:08Z</time></trkpt><trkpt lat="43.61079641781348" lon="11.885775901293552"><ele>526.0</ele><time>2026-04-25T10:39:09Z</time></trkpt><trkpt lat="43.61088318450557" lon="11.885674639999367"><ele>523.4</ele><time>2026-04-25T10:39:10Z</time></trkpt><trkpt lat="43.61096198874072" lon="11.885565161826031"><ele>520.8</ele><time>2026-04-25T10:39:11Z</time></trkpt><trkpt lat="43.611028290382336" lon="11.885430582080817"><ele>518.1999999999999</ele><time>2026-04-25T10:39:12Z</time></trkpt><trkpt lat="43.611082533111826" lon="11.885310652604435"><ele>515.6</ele><time>2026-04-25T10:39:13Z</time></trkpt><trkpt lat="43.611130209364745" lon="11.885203734392707"><ele>513.0</ele><time>2026-04-25T10:39:14Z</time></trkpt><trkpt lat="43.61115519376925" lon="11.885116418502454"><ele>509.75</ele><time>2026-04-25T10:39:15Z</time></trkpt><trkpt lat="43.6111496143017" lon="11.884979410000536"><ele>506.5</ele><time>2026-04-25T10:39:17Z</time></trkpt><trkpt lat="43.610974652677854" lon="11.884942552556284"><ele>503.25</ele><time>2026-04-25T10:39:18Z</time></trkpt><trkpt lat="43.61085701717088" lon="11.88491448177263"><ele>500.0</ele><time>2026-04-25T10:39:19Z</time></trkpt><trkpt lat="43.61072714900729" lon="11.884880924565437"><ele>500.0</ele><time>2026-04-25T10:39:20Z</time></trkpt><trkpt lat="43.610604062893046" lon="11.884836407134863"><ele>500.0</ele><time>2026-04-25T10:39:21Z</time></trkpt><trkpt lat="43.610488295704464" lon="11.884803216067882"><ele>500.0</ele><time>2026-04-25T10:39:22Z</time></trkpt><trkpt lat="43.61038264829617" lon="11.884775456207056"><ele>500.0</ele><time>2026-04-25T10:39:23Z</time></trkpt><trkpt lat="43.61027045956541" lon="11.884740533160555"><ele>498.6</ele><time>2026-04-25T10:39:24Z</time></trkpt><trkpt lat="43.61016226415942" lon="11.884708230821694"><ele>497.2</ele><time>2026-04-25T10:39:25Z</time></trkpt><trkpt lat="43.61006093753608" lon="11.884675441188863"><ele>495.79999999999995</ele><time>2026-04-25T10:39:26Z</time></trkpt><trkpt lat="43.60999351506654" lon="11.884615893636786"><ele>494.4</ele><time>2026-04-25T10:39:27Z</time></trkpt><trkpt lat="43.60992816197697" lon="11.88453246607943"><ele>493.0</ele><time>2026-04-25T10:39:29Z</time></trkpt><trkpt lat="43.60996151151183" lon="11.884445545486642"><ele>493.0</ele><time>2026-04-25T10:39:30Z</time></trkpt><trkpt lat="43.61004755760628" lon="11.884379302464389"><ele>492.99999999999994</ele><time>2026-04-25T10:39:31Z</time></trkpt><trkpt lat="43.61011244465674" lon="11.884265192453947"><ele>492.99999999999994</ele><time>2026-04-25T10:39:32Z</time></trkpt><trkpt lat="43.61018906378105" lon="11.884145085980245"><ele>493.0</ele><time>2026-04-25T10:39:33Z</time></trkpt><trkpt lat="43.610234495245166" lon="11.88402221770256"><ele>493.0</ele><time>2026-04-25T10:39:34Z</time></trkpt><trkpt lat="43.61029090059885" lon="11.88393411266382"><ele>491.2</ele><time>2026-04-25T10:39:35Z</time></trkpt><trkpt lat="43.610343505103" lon="11.883821970406247"><ele>489.4</ele><time>2026-04-25T10:39:36Z</time></trkpt><trkpt lat="43.610378677743824" lon="11.883693816936"><ele>487.59999999999997</ele><time>2026-04-25T10:39:37Z</time></trkpt><trkpt lat="43.61035009142934" lon="11.8835678532573"><ele>485.79999999999995</ele><time>2026-04-25T10:39:38Z</time></trkpt><trkpt lat="43.610293280686946" lon="11.883476321632633"><ele>484.0</ele><time>2026-04-25T10:39:39Z</time></trkpt><trkpt lat="43.610213496194675" lon="11.88341863050036"><ele>484.0</ele><time>2026-04-25T10:39:40Z</time></trkpt><trkpt lat="43.61009913535933" lon="11.88342703261982"><ele>484.0</ele><time>2026-04-25T10:39:41Z</time></trkpt><trkpt lat="43.60997333019495" lon="11.883449757876065"><ele>484.0</ele><time>2026-04-25T10:39:42Z</time></trkpt><trkpt lat="43.60984927716859" lon="11.883476572313903"><ele>484.0</ele><time>2026-04-25T10:39:43Z</time></trkpt><trkpt lat="43.60971879411827" lon="11.883544868375685"><ele>484.0</ele><time>2026-04-25T10:39:44Z</time></trkpt><trkpt lat="43.60957920980962" lon="11.88362286947432"><ele>484.0</ele><time>2026-04-25T10:39:45Z</time></trkpt><trkpt lat="43.60942150290817" lon="11.88367387491806"><ele>484.0</ele><time>2026-04-25T10:39:46Z</time></trkpt><trkpt lat="43.609301109379096" lon="11.883721430533134"><ele>484.0</ele><time>2026-04-25T10:39:47Z</time></trkpt><trkpt lat="43.60918213103913" lon="11.883778470552466"><ele>482.25</ele><time>2026-04-25T10:39:48Z</time></trkpt><trkpt lat="43.60906161091629" lon="11.883824050438406"><ele>480.5</ele><time>2026-04-25T10:39:49Z</time></trkpt><trkpt lat="43.608955022277556" lon="11.883862967326891"><ele>478.75</ele><time>2026-04-25T10:39:50Z</time></trkpt><trkpt lat="43.60885673037044" lon="11.883928166933664"><ele>477.0</ele><time>2026-04-25T10:39:51Z</time></trkpt><trkpt lat="43.60875643120526" lon="11.88402536397453"><ele>477.0</ele><time>2026-04-25T10:39:52Z</time></trkpt><trkpt lat="43.60865999546833" lon="11.884138360368864"><ele>477.00000000000006</ele><time>2026-04-25T10:39:53Z</time></trkpt><trkpt lat="43.60855974503766" lon="11.88420864612163"><ele>477.00000000000006</ele><time>2026-04-25T10:39:54Z</time></trkpt><trkpt lat="43.60849758889561" lon="11.884250264931378"><ele>477.0</ele><time>2026-04-25T10:39:55Z</time></trkpt><trkpt lat="43.608437184961204" lon="11.884167022260986"><ele>477.0</ele><time>2026-04-25T10:39:57Z</time></trkpt><trkpt lat="43.60846185131901" lon="11.884053157527283"><ele>477.0</ele><time>2026-04-25T10:39:58Z</time></trkpt><trkpt lat="43.608500003643655" lon="11.88391951472756"><ele>477.0</ele><time>2026-04-25T10:39:59Z</time></trkpt><trkpt lat="43.60854584708317" lon="11.883778164731208"><ele>477.0</ele><time>2026-04-25T10:40:00Z</time></trkpt><trkpt lat="43.60860224821465" lon="11.88362111149307"><ele>477.0</ele><time>2026-04-25T10:40:01Z</time></trkpt><trkpt lat="43.60868004668718" lon="11.883471515188942"><ele>475.0</ele><time>2026-04-25T10:40:02Z</time></trkpt><trkpt lat="43.608758354223205" lon="11.883349721350356"><ele>473.00000000000006</ele><time>2026-04-25T10:40:03Z</time></trkpt><trkpt lat="43.60881074371943" lon="11.883247330801153"><ele>471.00000000000006</ele><time>2026-04-25T10:40:04Z</time></trkpt><trkpt lat="43.60882457833881" lon="11.883136759069867"><ele>469.0</ele><time>2026-04-25T10:40:05Z</time></trkpt><trkpt lat="43.6087803893488" lon="11.883003282963596"><ele>467.0</ele><time>2026-04-25T10:40:06Z</time></trkpt><trkpt lat="43.60869358417423" lon="11.882899855349377"><ele>464.6</ele><time>2026-04-25T10:40:07Z</time></trkpt><trkpt lat="43.608594237446326" lon="11.882866677354842"><ele>462.20000000000005</ele><time>2026-04-25T10:40:08Z</time></trkpt><trkpt lat="43.60849670251488" lon="11.88291809943152"><ele>459.8</ele><time>2026-04-25T10:40:09Z</time></trkpt><trkpt lat="43.608422133528265" lon="11.883021407097988"><ele>457.4</ele><time>2026-04-25T10:40:10Z</time></trkpt><trkpt lat="43.60836349273102" lon="11.883165597177756"><ele>455.0</ele><time>2026-04-25T10:40:11Z</time></trkpt><trkpt lat="43.608303401716945" lon="11.883316271554675"><ele>455.0</ele><time>2026-04-25T10:40:12Z</time></trkpt><trkpt lat="43.60825614504368" lon="11.88345536897763"><ele>455.0</ele><time>2026-04-25T10:40:13Z</time></trkpt><trkpt lat="43.60821261015363" lon="11.883566446570113"><ele>455.0</ele><time>2026-04-25T10:40:14Z</time></trkpt><trkpt lat="43.6081621858503" lon="11.88363262285877"><ele>455.0</ele><time>2026-04-25T10:40:15Z</time></trkpt><trkpt lat="43.60809072528112" lon="11.883620494489172"><ele>455.0</ele><time>2026-04-25T10:40:17Z</time></trkpt><trkpt lat="43.608072291268535" lon="11.883385913484453"><ele>455.0</ele><time>2026-04-25T10:40:18Z</time></trkpt><trkpt lat="43.60810668284643" lon="11.883247724529749"><ele>455.0</ele><time>2026-04-25T10:40:19Z</time></trkpt><trkpt lat="43.608132223849516" lon="11.883116281597117"><ele>455.0</ele><time>2026-04-25T10:40:20Z</time></trkpt><trkpt lat="43.6081505520941" lon="11.88299608346603"><ele>455.0</ele><time>2026-04-25T10:40:21Z</time></trkpt><trkpt lat="43.60816074574765" lon="11.882878205927442"><ele>455.0</ele><time>2026-04-25T10:40:22Z</time></trkpt><trkpt lat="43.608175363646964" lon="11.8827718551197"><ele>455.0</ele><time>2026-04-25T10:40:23Z</time></trkpt><trkpt lat="43.608191817595184" lon="11.882684803760297"><ele>455.0</ele><time>2026-04-25T10:40:24Z</time></trkpt><trkpt lat="43.60820227298098" lon="11.882595462967366"><ele>455.0</ele><time>2026-04-25T10:40:25Z</time></trkpt><trkpt lat="43.60821326302022" lon="11.882500686115149"><ele>455.0</ele><time>2026-04-25T10:40:26Z</time></trkpt><trkpt lat="43.60822214397498" lon="11.882407527939073"><ele>455.0</ele><time>2026-04-25T10:40:27Z</time></trkpt><trkpt lat="43.60822605857283" lon="11.882315842036276"><ele>455.0</ele><time>2026-04-25T10:40:28Z</time></trkpt><trkpt lat="43.608226003466555" lon="11.882224121805812"><ele>455.0</ele><time>2026-04-25T10:40:29Z</time></trkpt><trkpt lat="43.60822103763966" lon="11.88213493204223"><ele>453.2</ele><time>2026-04-25T10:40:30Z</time></trkpt><trkpt lat="43.60820405397753" lon="11.881979993279963"><ele>451.4</ele><time>2026-04-25T10:40:32Z</time></trkpt><trkpt lat="43.608165486671005" lon="11.881841514078074"><ele>449.6</ele><time>2026-04-25T10:40:34Z</time></trkpt><trkpt lat="43.60810610693689" lon="11.881733479932533"><ele>447.8</ele><time>2026-04-25T10:40:36Z</time></trkpt><trkpt lat="43.60799716860341" lon="11.881746814887185"><ele>446.0</ele><time>2026-04-25T10:40:38Z</time></trkpt><trkpt lat="43.60789931039289" lon="11.881834178374955"><ele>442.25</ele><time>2026-04-25T10:40:40Z</time></trkpt><trkpt lat="43.60780983026728" lon="11.881937356258613"><ele>438.5</ele><time>2026-04-25T10:40:42Z</time></trkpt><trkpt lat="43.60769747661365" lon="11.882065285262685"><ele>434.75</ele><time>2026-04-25T10:40:44Z</time></trkpt><trkpt lat="43.60763095089266" lon="11.882168784583701"><ele>431.0</ele><time>2026-04-25T10:40:45Z</time></trkpt><trkpt lat="43.607531638947684" lon="11.882267640279398"><ele>431.0</ele><time>2026-04-25T10:40:46Z</time></trkpt><trkpt lat="43.60741475278778" lon="11.8823687368855"><ele>431.0</ele><time>2026-04-25T10:40:47Z</time></trkpt><trkpt lat="43.60729052740248" lon="11.882481702963938"><ele>431.0</ele><time>2026-04-25T10:40:48Z</time></trkpt><trkpt lat="43.60719344659448" lon="11.882584594725198"><ele>431.0</ele><time>2026-04-25T10:40:49Z</time></trkpt><trkpt lat="43.60708832844758" lon="11.88266369553611"><ele>427.4</ele><time>2026-04-25T10:40:50Z</time></trkpt><trkpt lat="43.60699218385553" lon="11.882734995602146"><ele>423.8</ele><time>2026-04-25T10:40:51Z</time></trkpt><trkpt lat="43.60691139443681" lon="11.882834203662863"><ele>420.2</ele><time>2026-04-25T10:40:52Z</time></trkpt><trkpt lat="43.60685666712836" lon="11.882950734850457"><ele>416.59999999999997</ele><time>2026-04-25T10:40:53Z</time></trkpt><trkpt lat="43.60684493012195" lon="11.883114395650365"><ele>413.0</ele><time>2026-04-25T10:40:54Z</time></trkpt><trkpt lat="43.60683892558585" lon="11.883306990157632"><ele>413.25</ele><time>2026-04-25T10:40:54.999Z</time></trkpt><trkpt lat="43.606816183358674" lon="11.883491293134128"><ele>413.5</ele><time>2026-04-25T10:40:55.999Z</time></trkpt><trkpt lat="43.60678436064205" lon="11.88365832509726"><ele>413.75</ele><time>2026-04-25T10:40:57Z</time></trkpt><trkpt lat="43.606764633813256" lon="11.883822304365898"><ele>414.0</ele><time>2026-04-25T10:40:58Z</time></trkpt><trkpt lat="43.60677634333799" lon="11.883989312650304"><ele>414.0</ele><time>2026-04-25T10:40:59Z</time></trkpt><trkpt lat="43.60676499590264" lon="11.884173437876994"><ele>414.0</ele><time>2026-04-25T10:41:00Z</time></trkpt><trkpt lat="43.6067768996849" lon="11.884358636481517"><ele>414.0</ele><time>2026-04-25T10:41:01Z</time></trkpt><trkpt lat="43.606781646655016" lon="11.884517893821288"><ele>414.0</ele><time>2026-04-25T10:41:02Z</time></trkpt><trkpt lat="43.60676110250073" lon="11.884609955424926"><ele>414.0</ele><time>2026-04-25T10:41:03Z</time></trkpt><trkpt lat="43.60664727980375" lon="11.884582020136254"><ele>414.0</ele><time>2026-04-25T10:41:05Z</time></trkpt><trkpt lat="43.60662473527672" lon="11.884316736381573"><ele>414.0</ele><time>2026-04-25T10:41:07Z</time></trkpt><trkpt lat="43.60661681579165" lon="11.88414809003154"><ele>414.0</ele><time>2026-04-25T10:41:08Z</time></trkpt><trkpt lat="43.60659544513719" lon="11.88397002445277"><ele>414.0</ele><time>2026-04-25T10:41:09Z</time></trkpt><trkpt lat="43.60657407362295" lon="11.883782554474157"><ele>414.0</ele><time>2026-04-25T10:41:10Z</time></trkpt><trkpt lat="43.60655943349211" lon="11.883577488597135"><ele>414.0</ele><time>2026-04-25T10:41:11Z</time></trkpt><trkpt lat="43.60654204066417" lon="11.88340524857831"><ele>414.0</ele><time>2026-04-25T10:41:12Z</time></trkpt><trkpt lat="43.60651036040618" lon="11.883237390838921"><ele>413.75</ele><time>2026-04-25T10:41:13Z</time></trkpt><trkpt lat="43.60645989551264" lon="11.883061697859702"><ele>413.5</ele><time>2026-04-25T10:41:14Z</time></trkpt><trkpt lat="43.60638607586241" lon="11.882877562095356"><ele>413.25</ele><time>2026-04-25T10:41:15Z</time></trkpt><trkpt lat="43.60632609617187" lon="11.882709328485713"><ele>413.0</ele><time>2026-04-25T10:41:16Z</time></trkpt><trkpt lat="43.60631791773326" lon="11.882528518159416"><ele>413.5</ele><time>2026-04-25T10:41:17Z</time></trkpt><trkpt lat="43.606302999000924" lon="11.882358469934069"><ele>414.0</ele><time>2026-04-25T10:41:18Z</time></trkpt><trkpt lat="43.60632504651735" lon="11.882155511134576"><ele>414.5</ele><time>2026-04-25T10:41:19Z</time></trkpt><trkpt lat="43.60634274979965" lon="11.881948839427253"><ele>415.0</ele><time>2026-04-25T10:41:20Z</time></trkpt><trkpt lat="43.606353833841574" lon="11.881726121840632"><ele>413.5</ele><time>2026-04-25T10:41:21Z</time></trkpt><trkpt lat="43.60636065164611" lon="11.881510011129448"><ele>412.0</ele><time>2026-04-25T10:41:22Z</time></trkpt><trkpt lat="43.60636484572341" lon="11.881306613866826"><ele>410.5</ele><time>2026-04-25T10:41:23Z</time></trkpt><trkpt lat="43.60637062233256" lon="11.881108086227165"><ele>409.0</ele><time>2026-04-25T10:41:24Z</time></trkpt><trkpt lat="43.60638285277966" lon="11.880917448662313"><ele>407.25</ele><time>2026-04-25T10:41:25Z</time></trkpt><trkpt lat="43.60641210077593" lon="11.880732445087942"><ele>405.5</ele><time>2026-04-25T10:41:26Z</time></trkpt><trkpt lat="43.606474752660816" lon="11.880552087139229"><ele>403.75</ele><time>2026-04-25T10:41:27Z</time></trkpt><trkpt lat="43.60653912862162" lon="11.880377226695614"><ele>402.0</ele><time>2026-04-25T10:41:28Z</time></trkpt><trkpt lat="43.606600334015646" lon="11.880191864141834"><ele>398.75</ele><time>2026-04-25T10:41:29Z</time></trkpt><trkpt lat="43.606659708019514" lon="11.88000692041943"><ele>395.5</ele><time>2026-04-25T10:41:30Z</time></trkpt><trkpt lat="43.606719156494115" lon="11.879838763588985"><ele>392.25</ele><time>2026-04-25T10:41:31Z</time></trkpt><trkpt lat="43.60677821775554" lon="11.879672975171294"><ele>389.0</ele><time>2026-04-25T10:41:32Z</time></trkpt><trkpt lat="43.60685314347024" lon="11.879519561243805"><ele>389.0</ele><time>2026-04-25T10:41:33Z</time></trkpt><trkpt lat="43.60693133761544" lon="11.879402209013167"><ele>389.0</ele><time>2026-04-25T10:41:34Z</time></trkpt><trkpt lat="43.60698501337731" lon="11.8792698827148"><ele>389.0</ele><time>2026-04-25T10:41:35Z</time></trkpt><trkpt lat="43.60698325714388" lon="11.879096568128892"><ele>389.0</ele><time>2026-04-25T10:41:36Z</time></trkpt><trkpt lat="43.60694635078486" lon="11.878901957424878"><ele>385.75</ele><time>2026-04-25T10:41:37Z</time></trkpt><trkpt lat="43.606906539215046" lon="11.878701540237541"><ele>382.5</ele><time>2026-04-25T10:41:38Z</time></trkpt><trkpt lat="43.60687627582701" lon="11.878489134687005"><ele>379.25</ele><time>2026-04-25T10:41:39Z</time></trkpt><trkpt lat="43.60686529621017" lon="11.87833067073957"><ele>376.0</ele><time>2026-04-25T10:41:40Z</time></trkpt><trkpt lat="43.6068561993676" lon="11.878222169117166"><ele>374.20000000000005</ele><time>2026-04-25T10:41:41Z</time></trkpt><trkpt lat="43.60684785275214" lon="11.87812717689656"><ele>372.40000000000003</ele><time>2026-04-25T10:41:42Z</time></trkpt><trkpt lat="43.60683354783195" lon="11.877990894820458"><ele>370.6</ele><time>2026-04-25T10:41:44Z</time></trkpt><trkpt lat="43.60682329884558" lon="11.877897198623566"><ele>368.8</ele><time>2026-04-25T10:41:47Z</time></trkpt><trkpt lat="43.60683218792533" lon="11.878017607831428"><ele>367.0</ele><time>2026-04-25T10:41:52Z</time></trkpt><trkpt lat="43.606929998647445" lon="11.87827192600691"><ele>367.0</ele><time>2026-04-25T10:41:53Z</time></trkpt><trkpt lat="43.60686059484549" lon="11.878281678854437"><ele>367.0</ele><time>2026-04-25T10:41:54Z</time></trkpt><trkpt lat="43.6068779989103" lon="11.878406366461542"><ele>367.0</ele><time>2026-04-25T10:41:55Z</time></trkpt><trkpt lat="43.60688190876047" lon="11.878500232828465"><ele>367.0</ele><time>2026-04-25T10:41:56Z</time></trkpt><trkpt lat="43.60684426500889" lon="11.878588197035542"><ele>367.0</ele><time>2026-04-25T10:41:58Z</time></trkpt><trkpt lat="43.60677468228257" lon="11.87864265804698"><ele>367.0</ele><time>2026-04-25T10:42:00Z</time></trkpt><trkpt lat="43.606695333408965" lon="11.878714064424926"><ele>369.25</ele><time>2026-04-25T10:42:02Z</time></trkpt><trkpt lat="43.60660512087936" lon="11.878766508596424"><ele>371.5</ele><time>2026-04-25T10:42:04Z</time></trkpt><trkpt lat="43.60652460197978" lon="11.878886021199609"><ele>373.75</ele><time>2026-04-25T10:42:06Z</time></trkpt><trkpt lat="43.60647897030125" lon="11.878953754700202"><ele>376.0</ele><time>2026-04-25T10:42:07Z</time></trkpt><trkpt lat="43.60649303698686" lon="11.879194244849135"><ele>378.16666666666663</ele><time>2026-04-25T10:42:09Z</time></trkpt><trkpt lat="43.60646451299936" lon="11.879274837680821"><ele>380.3333333333333</ele><time>2026-04-25T10:42:10Z</time></trkpt><trkpt lat="43.60643316092895" lon="11.879366049494108"><ele>382.5</ele><time>2026-04-25T10:42:11Z</time></trkpt><trkpt lat="43.60639721261706" lon="11.879469559413375"><ele>384.66666666666663</ele><time>2026-04-25T10:42:12Z</time></trkpt><trkpt lat="43.60636414193605" lon="11.879578392167563"><ele>386.8333333333333</ele><time>2026-04-25T10:42:13Z</time></trkpt><trkpt lat="43.60633659124556" lon="11.87967102631747"><ele>389.0</ele><time>2026-04-25T10:42:14Z</time></trkpt><trkpt lat="43.606291144550845" lon="11.879785456037174"><ele>389.0</ele><time>2026-04-25T10:42:16Z</time></trkpt><trkpt lat="43.606227544371166" lon="11.879862612977005"><ele>389.0</ele><time>2026-04-25T10:42:18Z</time></trkpt><trkpt lat="43.60611674867046" lon="11.879822454104083"><ele>389.0</ele><time>2026-04-25T10:42:20Z</time></trkpt><trkpt lat="43.605994418735214" lon="11.879821409182377"><ele>389.0</ele><time>2026-04-25T10:42:22Z</time></trkpt><trkpt lat="43.60593100868012" lon="11.879851812695962"><ele>389.0</ele><time>2026-04-25T10:42:23Z</time></trkpt><trkpt lat="43.605815964433816" lon="11.879928243386217"><ele>387.4</ele><time>2026-04-25T10:42:25Z</time></trkpt><trkpt lat="43.60574658144713" lon="11.87997629836526"><ele>385.79999999999995</ele><time>2026-04-25T10:42:26Z</time></trkpt><trkpt lat="43.6057135615318" lon="11.8800790546416"><ele>384.20000000000005</ele><time>2026-04-25T10:42:27Z</time></trkpt><trkpt lat="43.60565518808767" lon="11.88018664443616"><ele>382.6</ele><time>2026-04-25T10:42:28Z</time></trkpt><trkpt lat="43.60559527628761" lon="11.88034425361628"><ele>381.0</ele><time>2026-04-25T10:42:29Z</time></trkpt><trkpt lat="43.605546968597054" lon="11.880502030039976"><ele>381.0</ele><time>2026-04-25T10:42:30Z</time></trkpt><trkpt lat="43.605535747125266" lon="11.880642503673508"><ele>381.0</ele><time>2026-04-25T10:42:31Z</time></trkpt><trkpt lat="43.605537275532136" lon="11.880773487169972"><ele>381.0</ele><time>2026-04-25T10:42:32Z</time></trkpt><trkpt lat="43.605544749984475" lon="11.88093300562845"><ele>381.0</ele><time>2026-04-25T10:42:33Z</time></trkpt><trkpt lat="43.60554003592663" lon="11.881092993456338"><ele>381.0</ele><time>2026-04-25T10:42:34Z</time></trkpt><trkpt lat="43.605540564192445" lon="11.881204823604287"><ele>382.20000000000005</ele><time>2026-04-25T10:42:35Z</time></trkpt><trkpt lat="43.605535890798414" lon="11.881297511753253"><ele>383.40000000000003</ele><time>2026-04-25T10:42:42Z</time></trkpt><trkpt lat="43.6053787191611" lon="11.881314318054018"><ele>384.6</ele><time>2026-04-25T10:42:43Z</time></trkpt><trkpt lat="43.60526211018024" lon="11.881218922626921"><ele>385.8</ele><time>2026-04-25T10:42:45Z</time></trkpt><trkpt lat="43.60519005263757" lon="11.881156218720164"><ele>387.0</ele><time>2026-04-25T10:42:48Z</time></trkpt><trkpt lat="43.605136792237104" lon="11.881086255188155"><ele>388.0</ele><time>2026-04-25T10:42:50Z</time></trkpt><trkpt lat="43.60507120354211" lon="11.881129258968326"><ele>389.0</ele><time>2026-04-25T10:42:52Z</time></trkpt><trkpt lat="43.605007588103156" lon="11.881224730582396"><ele>390.0</ele><time>2026-04-25T10:42:53Z</time></trkpt><trkpt lat="43.60493626324263" lon="11.881303425791685"><ele>391.0</ele><time>2026-04-25T10:42:54Z</time></trkpt><trkpt lat="43.60487258285901" lon="11.881304860319018"><ele>392.0</ele><time>2026-04-25T10:42:55Z</time></trkpt><trkpt lat="43.60480188027913" lon="11.881276911751856"><ele>393.0</ele><time>2026-04-25T10:42:56Z</time></trkpt><trkpt lat="43.60476982184914" lon="11.881111992984284"><ele>393.0</ele><time>2026-04-25T10:42:58Z</time></trkpt><trkpt lat="43.60478427970752" lon="11.880980349461229"><ele>393.0</ele><time>2026-04-25T10:42:59Z</time></trkpt><trkpt lat="43.60479573290852" lon="11.8808667147012"><ele>393.0</ele><time>2026-04-25T10:43:00Z</time></trkpt><trkpt lat="43.60473271795943" lon="11.880776509222336"><ele>393.0</ele><time>2026-04-25T10:43:01.999Z</time></trkpt><trkpt lat="43.604671890296586" lon="11.880699374794652"><ele>393.0</ele><time>2026-04-25T10:43:02.999Z</time></trkpt><trkpt lat="43.604601026815295" lon="11.880637808810537"><ele>393.0</ele><time>2026-04-25T10:43:03.999Z</time></trkpt><trkpt lat="43.60449892191087" lon="11.880550838075221"><ele>395.5</ele><time>2026-04-25T10:43:04.999Z</time></trkpt><trkpt lat="43.60442288863541" lon="11.880455093557318"><ele>398.0</ele><time>2026-04-25T10:43:05.999Z</time></trkpt><trkpt lat="43.60441017719118" lon="11.880354676594271"><ele>400.5</ele><time>2026-04-25T10:43:06.999Z</time></trkpt><trkpt lat="43.604397972432885" lon="11.880249377919249"><ele>403.0</ele><time>2026-04-25T10:43:07.999Z</time></trkpt><trkpt lat="43.60437147022727" lon="11.880101915499893"><ele>405.5</ele><time>2026-04-25T10:43:08.999Z</time></trkpt><trkpt lat="43.604333757191014" lon="11.880015458506616"><ele>408.0</ele><time>2026-04-25T10:43:09.999Z</time></trkpt><trkpt lat="43.60423494795668" lon="11.879962525713495"><ele>408.2</ele><time>2026-04-25T10:43:11.999Z</time></trkpt><trkpt lat="43.604211258933525" lon="11.880106286279826"><ele>408.4</ele><time>2026-04-25T10:43:13.999Z</time></trkpt><trkpt lat="43.60421108933023" lon="11.88023486594466"><ele>408.59999999999997</ele><time>2026-04-25T10:43:14.999Z</time></trkpt><trkpt lat="43.60411617989641" lon="11.880258172068126"><ele>408.79999999999995</ele><time>2026-04-25T10:43:16.999Z</time></trkpt><trkpt lat="43.60403354490817" lon="11.880207893780184"><ele>409.0</ele><time>2026-04-25T10:43:17.999Z</time></trkpt><trkpt lat="43.60391362651142" lon="11.88022645374695"><ele>409.0</ele><time>2026-04-25T10:43:18.999Z</time></trkpt><trkpt lat="43.603803809982125" lon="11.880248307884603"><ele>409.0</ele><time>2026-04-25T10:43:19.999Z</time></trkpt><trkpt lat="43.60369295075237" lon="11.880293598643355"><ele>409.0</ele><time>2026-04-25T10:43:20.999Z</time></trkpt><trkpt lat="43.603596662234175" lon="11.880341389147992"><ele>409.0</ele><time>2026-04-25T10:43:21.999Z</time></trkpt><trkpt lat="43.60351423405366" lon="11.880345706710711"><ele>409.0</ele><time>2026-04-25T10:43:23.999Z</time></trkpt><trkpt lat="43.6034475311782" lon="11.880320994814484"><ele>414.25</ele><time>2026-04-25T10:43:24.999Z</time></trkpt><trkpt lat="43.60335615478299" lon="11.880375584709926"><ele>419.5</ele><time>2026-04-25T10:43:25.999Z</time></trkpt><trkpt lat="43.603240106068654" lon="11.88044536313753"><ele>424.75</ele><time>2026-04-25T10:43:26.999Z</time></trkpt><trkpt lat="43.60312090658615" lon="11.880495600904162"><ele>430.0</ele><time>2026-04-25T10:43:27.999Z</time></trkpt><trkpt lat="43.602981331331165" lon="11.88051397329073"><ele>430.0</ele><time>2026-04-25T10:43:29Z</time></trkpt><trkpt lat="43.60285140221971" lon="11.880540198311357"><ele>430.0</ele><time>2026-04-25T10:43:30Z</time></trkpt><trkpt lat="43.602728427768035" lon="11.880562301235168"><ele>430.0</ele><time>2026-04-25T10:43:31Z</time></trkpt><trkpt lat="43.602632198239604" lon="11.880599488978586"><ele>430.0</ele><time>2026-04-25T10:43:32Z</time></trkpt><trkpt lat="43.60256224673493" lon="11.880634396919037"><ele>430.0</ele><time>2026-04-25T10:43:33Z</time></trkpt><trkpt lat="43.60253084226546" lon="11.880711021107278"><ele>432.0</ele><time>2026-04-25T10:43:41Z</time></trkpt><trkpt lat="43.602546930234325" lon="11.880907391842264"><ele>434.0</ele><time>2026-04-25T10:43:43Z</time></trkpt><trkpt lat="43.602549174599524" lon="11.881048036764481"><ele>436.0</ele><time>2026-04-25T10:43:44Z</time></trkpt><trkpt lat="43.60253975335751" lon="11.881186512790988"><ele>438.0</ele><time>2026-04-25T10:43:45Z</time></trkpt><trkpt lat="43.60251435796957" lon="11.881318540293476"><ele>440.0</ele><time>2026-04-25T10:43:46Z</time></trkpt><trkpt lat="43.602479632955024" lon="11.881419435478925"><ele>442.2</ele><time>2026-04-25T10:43:47Z</time></trkpt><trkpt lat="43.602422995401085" lon="11.881526927444536"><ele>444.4</ele><time>2026-04-25T10:43:48Z</time></trkpt><trkpt lat="43.60238954077987" lon="11.881647400018679"><ele>446.6</ele><time>2026-04-25T10:43:49Z</time></trkpt><trkpt lat="43.60237230080804" lon="11.881775860246623"><ele>448.8</ele><time>2026-04-25T10:43:50Z</time></trkpt><trkpt lat="43.60235639173393" lon="11.881896303188551"><ele>451.0</ele><time>2026-04-25T10:43:51Z</time></trkpt><trkpt lat="43.60231971788269" lon="11.882014358803863"><ele>453.0</ele><time>2026-04-25T10:43:52Z</time></trkpt><trkpt lat="43.60228340529196" lon="11.882110126024596"><ele>455.0</ele><time>2026-04-25T10:43:53Z</time></trkpt><trkpt lat="43.602282813422654" lon="11.88229372491854"><ele>457.0</ele><time>2026-04-25T10:43:55Z</time></trkpt><trkpt lat="43.6022926026546" lon="11.882404455771896"><ele>459.0</ele><time>2026-04-25T10:43:56Z</time></trkpt><trkpt lat="43.60230948229462" lon="11.882510090505491"><ele>461.0</ele><time>2026-04-25T10:43:57Z</time></trkpt><trkpt lat="43.60232707268842" lon="11.882619787601625"><ele>461.28571428571433</ele><time>2026-04-25T10:43:58Z</time></trkpt><trkpt lat="43.60233286220299" lon="11.882729903718715"><ele>461.5714285714286</ele><time>2026-04-25T10:43:59Z</time></trkpt><trkpt lat="43.60232479060547" lon="11.882830440726163"><ele>461.8571428571429</ele><time>2026-04-25T10:44:00Z</time></trkpt><trkpt lat="43.60231411226306" lon="11.882917234380232"><ele>462.1428571428571</ele><time>2026-04-25T10:44:01Z</time></trkpt><trkpt lat="43.60230005371774" lon="11.883017732717814"><ele>462.4285714285714</ele><time>2026-04-25T10:44:03Z</time></trkpt><trkpt lat="43.60228485288217" lon="11.883111079413151"><ele>462.71428571428567</ele><time>2026-04-25T10:44:14Z</time></trkpt><trkpt lat="43.602240789687144" lon="11.88318548386362"><ele>463.0</ele><time>2026-04-25T10:44:15Z</time></trkpt><trkpt lat="43.60216607380008" lon="11.88328135002795"><ele>463.0</ele><time>2026-04-25T10:44:16Z</time></trkpt><trkpt lat="43.60209154882376" lon="11.883408479898605"><ele>463.0</ele><time>2026-04-25T10:44:17Z</time></trkpt><trkpt lat="43.60200829847222" lon="11.883550811920497"><ele>463.0</ele><time>2026-04-25T10:44:18Z</time></trkpt><trkpt lat="43.601904722002985" lon="11.883678086278191"><ele>463.0</ele><time>2026-04-25T10:44:19Z</time></trkpt><trkpt lat="43.60182652143384" lon="11.883807848690042"><ele>462.59999999999997</ele><time>2026-04-25T10:44:20Z</time></trkpt><trkpt lat="43.60175727972914" lon="11.883920370693227"><ele>462.19999999999993</ele><time>2026-04-25T10:44:21Z</time></trkpt><trkpt lat="43.60169080947333" lon="11.88402007772689"><ele>461.8</ele><time>2026-04-25T10:44:22Z</time></trkpt><trkpt lat="43.60162463581279" lon="11.884105878398007"><ele>461.4</ele><time>2026-04-25T10:44:23Z</time></trkpt><trkpt lat="43.601523015711976" lon="11.884165908714609"><ele>461.0</ele><time>2026-04-25T10:44:24Z</time></trkpt><trkpt lat="43.601388952519095" lon="11.884101663415228"><ele>461.0</ele><time>2026-04-25T10:44:25Z</time></trkpt><trkpt lat="43.601255517743795" lon="11.88405488425283"><ele>461.0</ele><time>2026-04-25T10:44:26Z</time></trkpt><trkpt lat="43.60113163032591" lon="11.884034942815699"><ele>461.0</ele><time>2026-04-25T10:44:27Z</time></trkpt><trkpt lat="43.60101861681485" lon="11.884001994711692"><ele>461.0</ele><time>2026-04-25T10:44:28Z</time></trkpt><trkpt lat="43.600891903214155" lon="11.884002705095986"><ele>459.5</ele><time>2026-04-25T10:44:29Z</time></trkpt><trkpt lat="43.600755838573555" lon="11.884040121187319"><ele>458.0</ele><time>2026-04-25T10:44:30Z</time></trkpt><trkpt lat="43.60061567941418" lon="11.884101949558655"><ele>456.5</ele><time>2026-04-25T10:44:31Z</time></trkpt><trkpt lat="43.6004606635442" lon="11.884153505625045"><ele>455.0</ele><time>2026-04-25T10:44:32Z</time></trkpt><trkpt lat="43.60031361769962" lon="11.884197659630887"><ele>456.0</ele><time>2026-04-25T10:44:33Z</time></trkpt><trkpt lat="43.60016100479356" lon="11.884252990049971"><ele>457.0</ele><time>2026-04-25T10:44:34Z</time></trkpt><trkpt lat="43.60000834818904" lon="11.884335391538226"><ele>458.0</ele><time>2026-04-25T10:44:35Z</time></trkpt><trkpt lat="43.599851477198655" lon="11.884389533144391"><ele>458.0</ele><time>2026-04-25T10:44:36Z</time></trkpt><trkpt lat="43.599696180190016" lon="11.88447335114346"><ele>458.0</ele><time>2026-04-25T10:44:37Z</time></trkpt><trkpt lat="43.5995554142661" lon="11.884559069239703"><ele>458.0</ele><time>2026-04-25T10:44:38Z</time></trkpt><trkpt lat="43.59947376285279" lon="11.884613124621966"><ele>458.0</ele><time>2026-04-25T10:44:39Z</time></trkpt><trkpt lat="43.5993596116338" lon="11.88468869563834"><ele>457.0</ele><time>2026-04-25T10:44:41Z</time></trkpt><trkpt lat="43.59928622719718" lon="11.884756421833737"><ele>456.0</ele><time>2026-04-25T10:44:42Z</time></trkpt><trkpt lat="43.5991786312952" lon="11.884805655584943"><ele>455.0</ele><time>2026-04-25T10:44:43Z</time></trkpt><trkpt lat="43.59905812172916" lon="11.884885377247409"><ele>454.0</ele><time>2026-04-25T10:44:44Z</time></trkpt><trkpt lat="43.59893665492083" lon="11.884971359335223"><ele>454.0</ele><time>2026-04-25T10:44:45Z</time></trkpt><trkpt lat="43.59882737444578" lon="11.885077489651538"><ele>454.0</ele><time>2026-04-25T10:44:46Z</time></trkpt><trkpt lat="43.59873345877378" lon="11.885215146474192"><ele>454.0</ele><time>2026-04-25T10:44:47Z</time></trkpt><trkpt lat="43.5986572807733" lon="11.885382914598269"><ele>454.0</ele><time>2026-04-25T10:44:48Z</time></trkpt><trkpt lat="43.5985642724192" lon="11.885535095297255"><ele>452.6666666666667</ele><time>2026-04-25T10:44:49Z</time></trkpt><trkpt lat="43.59847420268323" lon="11.885703643453414"><ele>451.33333333333337</ele><time>2026-04-25T10:44:50Z</time></trkpt><trkpt lat="43.59838597999956" lon="11.885874838077621"><ele>450.0</ele><time>2026-04-25T10:44:51Z</time></trkpt><trkpt lat="43.59831092266795" lon="11.886051146627505"><ele>452.25</ele><time>2026-04-25T10:44:52Z</time></trkpt><trkpt lat="43.598215798489875" lon="11.886195342634773"><ele>454.5</ele><time>2026-04-25T10:44:53Z</time></trkpt><trkpt lat="43.59813482745691" lon="11.886346909090042"><ele>456.75</ele><time>2026-04-25T10:44:54Z</time></trkpt><trkpt lat="43.59805901273797" lon="11.886487578469115"><ele>459.0</ele><time>2026-04-25T10:44:55Z</time></trkpt><trkpt lat="43.59797889988967" lon="11.886615132624241"><ele>459.0</ele><time>2026-04-25T10:44:56Z</time></trkpt><trkpt lat="43.59789574054728" lon="11.886703933523101"><ele>459.0</ele><time>2026-04-25T10:44:57Z</time></trkpt><trkpt lat="43.59779184686128" lon="11.886734741319065"><ele>459.0</ele><time>2026-04-25T10:44:58Z</time></trkpt><trkpt lat="43.597685932680974" lon="11.886779228763626"><ele>459.0</ele><time>2026-04-25T10:44:59Z</time></trkpt><trkpt lat="43.597562927834524" lon="11.886796808405295"><ele>459.0</ele><time>2026-04-25T10:45:00Z</time></trkpt><trkpt lat="43.59743742860711" lon="11.886815474122171"><ele>459.5</ele><time>2026-04-25T10:45:01Z</time></trkpt><trkpt lat="43.59731255727873" lon="11.88684575126779"><ele>460.0</ele><time>2026-04-25T10:45:02Z</time></trkpt><trkpt lat="43.59717656391482" lon="11.886882345165533"><ele>460.5</ele><time>2026-04-25T10:45:03Z</time></trkpt><trkpt lat="43.5970369477232" lon="11.8869187289849"><ele>461.0</ele><time>2026-04-25T10:45:04Z</time></trkpt><trkpt lat="43.596905671915216" lon="11.88694188981132"><ele>459.5</ele><time>2026-04-25T10:45:05Z</time></trkpt><trkpt lat="43.596784379409314" lon="11.88693880387158"><ele>458.0</ele><time>2026-04-25T10:45:06Z</time></trkpt><trkpt lat="43.596665945841586" lon="11.886944810801792"><ele>456.5</ele><time>2026-04-25T10:45:06.999Z</time></trkpt><trkpt lat="43.59654229240449" lon="11.886950651315669"><ele>455.0</ele><time>2026-04-25T10:45:07.999Z</time></trkpt><trkpt lat="43.59641271836752" lon="11.886962015315644"><ele>455.0</ele><time>2026-04-25T10:45:08.999Z</time></trkpt><trkpt lat="43.596275105678956" lon="11.886969507647883"><ele>455.0</ele><time>2026-04-25T10:45:09.999Z</time></trkpt><trkpt lat="43.59615507154098" lon="11.886982537326835"><ele>455.0</ele><time>2026-04-25T10:45:10.999Z</time></trkpt><trkpt lat="43.5960489213289" lon="11.887031389700851"><ele>455.0</ele><time>2026-04-25T10:45:11.999Z</time></trkpt><trkpt lat="43.595982391034774" lon="11.887089834181339"><ele>455.0</ele><time>2026-04-25T10:45:12.999Z</time></trkpt><trkpt lat="43.596034551794396" lon="11.887157799854716"><ele>452.49999999999994</ele><time>2026-04-25T10:45:19.999Z</time></trkpt><trkpt lat="43.59606585273263" lon="11.887239367930675"><ele>450.0</ele><time>2026-04-25T10:45:22Z</time></trkpt><trkpt lat="43.59600931850439" lon="11.887308131442175"><ele>447.5</ele><time>2026-04-25T10:45:23Z</time></trkpt><trkpt lat="43.59598681047503" lon="11.887393439749298"><ele>445.0</ele><time>2026-04-25T10:45:24Z</time></trkpt><trkpt lat="43.59601029907474" lon="11.887505706473886"><ele>442.49999999999994</ele><time>2026-04-25T10:45:26Z</time></trkpt><trkpt lat="43.59610305120439" lon="11.887495779596803"><ele>440.0</ele><time>2026-04-25T10:45:27Z</time></trkpt><trkpt lat="43.59616625231602" lon="11.887465351338452"><ele>442.49999999999994</ele><time>2026-04-25T10:45:28Z</time></trkpt><trkpt lat="43.59626337202381" lon="11.887437429747562"><ele>445.0</ele><time>2026-04-25T10:45:30Z</time></trkpt><trkpt lat="43.59632872796362" lon="11.887428510321206"><ele>447.5</ele><time>2026-04-25T10:45:31Z</time></trkpt><trkpt lat="43.596400328364254" lon="11.88741912458309"><ele>450.0</ele><time>2026-04-25T10:45:32Z</time></trkpt><trkpt lat="43.5964720270286" lon="11.887411354656791"><ele>452.49999999999994</ele><time>2026-04-25T10:45:33Z</time></trkpt><trkpt lat="43.59654430689181" lon="11.88740309225416"><ele>455.0</ele><time>2026-04-25T10:45:34Z</time></trkpt><trkpt lat="43.5966223422727" lon="11.887403286631384"><ele>454.99999999999994</ele><time>2026-04-25T10:45:35Z</time></trkpt><trkpt lat="43.59670306674923" lon="11.887401987865058"><ele>455.0</ele><time>2026-04-25T10:45:36Z</time></trkpt><trkpt lat="43.59678063919142" lon="11.887398816800495"><ele>455.0</ele><time>2026-04-25T10:45:37Z</time></trkpt><trkpt lat="43.59685952934534" lon="11.887385377059207"><ele>455.0</ele><time>2026-04-25T10:45:38Z</time></trkpt><trkpt lat="43.59693619327213" lon="11.88736956490998"><ele>454.99999999999994</ele><time>2026-04-25T10:45:39Z</time></trkpt><trkpt lat="43.5969993346713" lon="11.887364427684998"><ele>455.0</ele><time>2026-04-25T10:45:40Z</time></trkpt><trkpt lat="43.597103830002034" lon="11.887398603331143"><ele>455.99999999999994</ele><time>2026-04-25T10:45:42Z</time></trkpt><trkpt lat="43.59710611562148" lon="11.887524295527985"><ele>457.0</ele><time>2026-04-25T10:45:44Z</time></trkpt><trkpt lat="43.597043763263414" lon="11.887652651673507"><ele>458.0</ele><time>2026-04-25T10:45:46Z</time></trkpt><trkpt lat="43.59701611038514" lon="11.887753364267564"><ele>459.0</ele><time>2026-04-25T10:45:47Z</time></trkpt><trkpt lat="43.597019375920965" lon="11.887861037826767"><ele>459.99999999999994</ele><time>2026-04-25T10:45:48Z</time></trkpt><trkpt lat="43.59705032754993" lon="11.88795520515839"><ele>461.0</ele><time>2026-04-25T10:45:50Z</time></trkpt><trkpt lat="43.59706322861708" lon="11.888074307626885"><ele>461.99999999999994</ele><time>2026-04-25T10:45:52Z</time></trkpt><trkpt lat="43.597045231069814" lon="11.888188619384671"><ele>463.0</ele><time>2026-04-25T10:45:53Z</time></trkpt><trkpt lat="43.59701125674804" lon="11.888286168670655"><ele>464.0</ele><time>2026-04-25T10:45:54Z</time></trkpt><trkpt lat="43.59696151878572" lon="11.888371553723394"><ele>465.0</ele><time>2026-04-25T10:45:55Z</time></trkpt><trkpt lat="43.596908935450195" lon="11.888445899187099"><ele>465.99999999999994</ele><time>2026-04-25T10:45:56Z</time></trkpt><trkpt lat="43.5968224578493" lon="11.888560234627928"><ele>467.0</ele><time>2026-04-25T10:45:58Z</time></trkpt><trkpt lat="43.596803995000506" lon="11.888659569245528"><ele>469.3333333333333</ele><time>2026-04-25T10:45:59Z</time></trkpt><trkpt lat="43.596750912723216" lon="11.888714920713479"><ele>471.66666666666663</ele><time>2026-04-25T10:46:00Z</time></trkpt><trkpt lat="43.59670161623082" lon="11.888783840009518"><ele>474.0</ele><time>2026-04-25T10:46:01Z</time></trkpt><trkpt lat="43.59663356554893" lon="11.888832247779396"><ele>476.33333333333337</ele><time>2026-04-25T10:46:02Z</time></trkpt><trkpt lat="43.59655929187688" lon="11.888874573813862"><ele>478.6666666666667</ele><time>2026-04-25T10:46:03Z</time></trkpt><trkpt lat="43.59648155006646" lon="11.88893798478989"><ele>481.0</ele><time>2026-04-25T10:46:04Z</time></trkpt><trkpt lat="43.596421047013166" lon="11.889001057191829"><ele>481.0</ele><time>2026-04-25T10:46:05Z</time></trkpt><trkpt lat="43.59635416898123" lon="11.889114537695157"><ele>481.0</ele><time>2026-04-25T10:46:07Z</time></trkpt><trkpt lat="43.59625582134915" lon="11.889215844428797"><ele>481.0</ele><time>2026-04-25T10:46:09Z</time></trkpt><trkpt lat="43.59619010066181" lon="11.889355358523016"><ele>481.0</ele><time>2026-04-25T10:46:11Z</time></trkpt><trkpt lat="43.596150276237715" lon="11.889489073123357"><ele>480.6666666666667</ele><time>2026-04-25T10:46:13Z</time></trkpt><trkpt lat="43.59608693490975" lon="11.889612317341177"><ele>480.33333333333337</ele><time>2026-04-25T10:46:15Z</time></trkpt><trkpt lat="43.5960346197896" lon="11.8897436862648"><ele>480.0</ele><time>2026-04-25T10:46:17Z</time></trkpt><trkpt lat="43.5960042782482" lon="11.889819877153585"><ele>479.66666666666663</ele><time>2026-04-25T10:46:18Z</time></trkpt><trkpt lat="43.5960250458048" lon="11.889946172581062"><ele>479.3333333333333</ele><time>2026-04-25T10:46:19Z</time></trkpt><trkpt lat="43.595991922767766" lon="11.89003394791444"><ele>479.0</ele><time>2026-04-25T10:46:20Z</time></trkpt><trkpt lat="43.59597439997385" lon="11.89012506171371"><ele>479.0</ele><time>2026-04-25T10:46:21Z</time></trkpt><trkpt lat="43.59598520106232" lon="11.890235080820299"><ele>479.0</ele><time>2026-04-25T10:46:22Z</time></trkpt><trkpt lat="43.59598333900077" lon="11.890356640148202"><ele>479.0</ele><time>2026-04-25T10:46:23Z</time></trkpt><trkpt lat="43.59596985338051" lon="11.890502123521847"><ele>479.0</ele><time>2026-04-25T10:46:24Z</time></trkpt><trkpt lat="43.59596593599012" lon="11.890631166121457"><ele>479.0</ele><time>2026-04-25T10:46:25Z</time></trkpt><trkpt lat="43.59599704897216" lon="11.890766770911851"><ele>478.99999999999994</ele><time>2026-04-25T10:46:26Z</time></trkpt><trkpt lat="43.596013182065455" lon="11.890885761439712"><ele>479.0</ele><time>2026-04-25T10:46:27Z</time></trkpt><trkpt lat="43.596025437981886" lon="11.890987897707866"><ele>479.0</ele><time>2026-04-25T10:46:28Z</time></trkpt><trkpt lat="43.59606554480157" lon="11.891072938845975"><ele>479.0</ele><time>2026-04-25T10:46:29Z</time></trkpt><trkpt lat="43.596089634178156" lon="11.891190419318344"><ele>478.99999999999994</ele><time>2026-04-25T10:46:30Z</time></trkpt><trkpt lat="43.59613101678711" lon="11.891310341252321"><ele>479.0</ele><time>2026-04-25T10:46:31Z</time></trkpt><trkpt lat="43.59618933708605" lon="11.89143350676848"><ele>480.79999999999995</ele><time>2026-04-25T10:46:32Z</time></trkpt><trkpt lat="43.59622809896551" lon="11.891562065482683"><ele>482.59999999999997</ele><time>2026-04-25T10:46:33Z</time></trkpt><trkpt lat="43.596260707616516" lon="11.891699919667216"><ele>484.4</ele><time>2026-04-25T10:46:34Z</time></trkpt><trkpt lat="43.59625734032069" lon="11.891794834647989"><ele>486.2</ele><time>2026-04-25T10:46:35Z</time></trkpt><trkpt lat="43.59614698921876" lon="11.891926748101186"><ele>488.0</ele><time>2026-04-25T10:46:37Z</time></trkpt><trkpt lat="43.596057525517104" lon="11.891975965020585"><ele>488.0</ele><time>2026-04-25T10:46:38Z</time></trkpt><trkpt lat="43.59598296957712" lon="11.892053696064183"><ele>487.99999999999994</ele><time>2026-04-25T10:46:39Z</time></trkpt><trkpt lat="43.59591511177237" lon="11.892147851221269"><ele>487.99999999999994</ele><time>2026-04-25T10:46:40Z</time></trkpt><trkpt lat="43.5958669699269" lon="11.892253623775334"><ele>488.0</ele><time>2026-04-25T10:46:41Z</time></trkpt><trkpt lat="43.595830354795055" lon="11.89237041172743"><ele>488.0</ele><time>2026-04-25T10:46:42Z</time></trkpt><trkpt lat="43.595800426085866" lon="11.892487059617586"><ele>486.66666666666663</ele><time>2026-04-25T10:46:43Z</time></trkpt><trkpt lat="43.59579247798287" lon="11.89259498287078"><ele>485.3333333333333</ele><time>2026-04-25T10:46:44Z</time></trkpt><trkpt lat="43.59579609028196" lon="11.89272442739741"><ele>484.0</ele><time>2026-04-25T10:46:45Z</time></trkpt><trkpt lat="43.59581249905929" lon="11.892855669225012"><ele>482.66666666666663</ele><time>2026-04-25T10:46:46Z</time></trkpt><trkpt lat="43.59579852636992" lon="11.893006453389063"><ele>481.3333333333333</ele><time>2026-04-25T10:46:47Z</time></trkpt><trkpt lat="43.595799840720304" lon="11.893097428647843"><ele>480.0</ele><time>2026-04-25T10:46:48Z</time></trkpt><trkpt lat="43.59584858410911" lon="11.893186698935503"><ele>480.0</ele><time>2026-04-25T10:46:50Z</time></trkpt><trkpt lat="43.59595646664561" lon="11.89333129683791"><ele>480.0</ele><time>2026-04-25T10:46:52Z</time></trkpt><trkpt lat="43.59604413081899" lon="11.893432987470732"><ele>480.0</ele><time>2026-04-25T10:46:53Z</time></trkpt><trkpt lat="43.59610143266383" lon="11.893518154951547"><ele>480.0</ele><time>2026-04-25T10:46:54Z</time></trkpt><trkpt lat="43.59607802238837" lon="11.893674486238819"><ele>477.8</ele><time>2026-04-25T10:46:56Z</time></trkpt><trkpt lat="43.596050373904845" lon="11.893790185633195"><ele>475.6</ele><time>2026-04-25T10:46:57Z</time></trkpt><trkpt lat="43.59604649208351" lon="11.893929817482704"><ele>473.4</ele><time>2026-04-25T10:46:58Z</time></trkpt><trkpt lat="43.596081091942736" lon="11.894052416492286"><ele>471.2</ele><time>2026-04-25T10:46:59Z</time></trkpt><trkpt lat="43.596128909245024" lon="11.894127223821815"><ele>469.0</ele><time>2026-04-25T10:47:00Z</time></trkpt><trkpt lat="43.59616928726043" lon="11.894249962926605"><ele>476.2</ele><time>2026-04-25T10:47:02Z</time></trkpt><trkpt lat="43.596210259609876" lon="11.894351719232304"><ele>483.4</ele><time>2026-04-25T10:47:03Z</time></trkpt><trkpt lat="43.596251187088406" lon="11.894450567676703"><ele>490.6</ele><time>2026-04-25T10:47:04Z</time></trkpt><trkpt lat="43.59628066318981" lon="11.894558597490336"><ele>497.8</ele><time>2026-04-25T10:47:05Z</time></trkpt><trkpt lat="43.59631421009434" lon="11.894693149527479"><ele>505.0</ele><time>2026-04-25T10:47:06Z</time></trkpt><trkpt lat="43.59634878861156" lon="11.894819423162518"><ele>505.0</ele><time>2026-04-25T10:47:07Z</time></trkpt><trkpt lat="43.59629082212586" lon="11.89492804904371"><ele>505.0</ele><time>2026-04-25T10:47:09Z</time></trkpt><trkpt lat="43.59621984113654" lon="11.894991760908471"><ele>505.0</ele><time>2026-04-25T10:47:10Z</time></trkpt><trkpt lat="43.59613688893887" lon="11.895096421165487"><ele>505.0</ele><time>2026-04-25T10:47:11Z</time></trkpt><trkpt lat="43.59605358988316" lon="11.8951604179347"><ele>505.0</ele><time>2026-04-25T10:47:12Z</time></trkpt><trkpt lat="43.595954583740706" lon="11.895209027790225"><ele>500.50000000000006</ele><time>2026-04-25T10:47:13Z</time></trkpt><trkpt lat="43.595878486199936" lon="11.895215292052725"><ele>496.0</ele><time>2026-04-25T10:47:14Z</time></trkpt><trkpt lat="43.59586720854276" lon="11.895367360921345"><ele>491.5</ele><time>2026-04-25T10:47:16Z</time></trkpt><trkpt lat="43.59586525809557" lon="11.895479067346722"><ele>487.0</ele><time>2026-04-25T10:47:17Z</time></trkpt><trkpt lat="43.595869150891154" lon="11.895590832329855"><ele>482.50000000000006</ele><time>2026-04-25T10:47:18Z</time></trkpt><trkpt lat="43.59591485664652" lon="11.895696491391725"><ele>478.0</ele><time>2026-04-25T10:47:19Z</time></trkpt><trkpt lat="43.59593262991843" lon="11.895795989077568"><ele>477.79999999999995</ele><time>2026-04-25T10:47:20Z</time></trkpt><trkpt lat="43.595920895383905" lon="11.89593488373905"><ele>477.59999999999997</ele><time>2026-04-25T10:47:21Z</time></trkpt><trkpt lat="43.59592643265285" lon="11.896074040082791"><ele>477.40000000000003</ele><time>2026-04-25T10:47:22Z</time></trkpt><trkpt lat="43.59590076274726" lon="11.89619417825176"><ele>477.20000000000005</ele><time>2026-04-25T10:47:23Z</time></trkpt><trkpt lat="43.59583265821861" lon="11.8963016559253"><ele>477.0</ele><time>2026-04-25T10:47:24Z</time></trkpt><trkpt lat="43.5957518260056" lon="11.896430458689444"><ele>477.0</ele><time>2026-04-25T10:47:25Z</time></trkpt><trkpt lat="43.59569448271264" lon="11.896559511211306"><ele>477.00000000000006</ele><time>2026-04-25T10:47:26Z</time></trkpt><trkpt lat="43.595658741399085" lon="11.89666656179225"><ele>477.00000000000006</ele><time>2026-04-25T10:47:27Z</time></trkpt><trkpt lat="43.5956233459646" lon="11.89680427760254"><ele>477.0</ele><time>2026-04-25T10:47:28Z</time></trkpt><trkpt lat="43.595583659497386" lon="11.896947416482636"><ele>477.0</ele><time>2026-04-25T10:47:29Z</time></trkpt><trkpt lat="43.595544679589835" lon="11.897093653201782"><ele>477.3333333333333</ele><time>2026-04-25T10:47:30Z</time></trkpt><trkpt lat="43.595485964330315" lon="11.89723639560676"><ele>477.66666666666663</ele><time>2026-04-25T10:47:31Z</time></trkpt><trkpt lat="43.5954144711817" lon="11.897316180447419"><ele>478.0</ele><time>2026-04-25T10:47:32Z</time></trkpt><trkpt lat="43.59536502441361" lon="11.897388254832139"><ele>478.3333333333333</ele><time>2026-04-25T10:47:33Z</time></trkpt><trkpt lat="43.595352718491895" lon="11.897487693685047"><ele>478.66666666666663</ele><time>2026-04-25T10:47:34Z</time></trkpt><trkpt lat="43.59536725109923" lon="11.897615096530656"><ele>479.0</ele><time>2026-04-25T10:47:35Z</time></trkpt><trkpt lat="43.59539106948584" lon="11.897761590690529"><ele>479.2</ele><time>2026-04-25T10:47:36Z</time></trkpt><trkpt lat="43.59536715366132" lon="11.897868618454549"><ele>479.4</ele><time>2026-04-25T10:47:37Z</time></trkpt><trkpt lat="43.595331282337" lon="11.898003002307064"><ele>479.6</ele><time>2026-04-25T10:47:38Z</time></trkpt><trkpt lat="43.59531102258415" lon="11.898115043212046"><ele>479.8</ele><time>2026-04-25T10:47:39Z</time></trkpt><trkpt lat="43.59519999655313" lon="11.898175151945445"><ele>480.0</ele><time>2026-04-25T10:47:51Z</time></trkpt><trkpt lat="43.59513180648749" lon="11.89812766279807"><ele>476.6666666666667</ele><time>2026-04-25T10:47:53Z</time></trkpt><trkpt lat="43.595066323717354" lon="11.898012262401245"><ele>473.33333333333337</ele><time>2026-04-25T10:47:55Z</time></trkpt><trkpt lat="43.595013567855624" lon="11.897944726719237"><ele>470.0</ele><time>2026-04-25T10:47:57Z</time></trkpt><trkpt lat="43.59491434723527" lon="11.897858387754464"><ele>466.6666666666667</ele><time>2026-04-25T10:47:59Z</time></trkpt><trkpt lat="43.594843192143074" lon="11.897854473706548"><ele>463.33333333333337</ele><time>2026-04-25T10:48:00Z</time></trkpt><trkpt lat="43.594767112542826" lon="11.897877585465622"><ele>460.0</ele><time>2026-04-25T10:48:01Z</time></trkpt><trkpt lat="43.59468067114193" lon="11.897907512099245"><ele>460.00000000000006</ele><time>2026-04-25T10:48:02Z</time></trkpt><trkpt lat="43.594603387784574" lon="11.897955728579987"><ele>460.0</ele><time>2026-04-25T10:48:03Z</time></trkpt><trkpt lat="43.59453870741678" lon="11.898016904729994"><ele>460.0</ele><time>2026-04-25T10:48:04Z</time></trkpt><trkpt lat="43.59445049968481" lon="11.898056507303824"><ele>460.0</ele><time>2026-04-25T10:48:06Z</time></trkpt><trkpt lat="43.59441583247677" lon="11.897980991947767"><ele>460.00000000000006</ele><time>2026-04-25T10:48:07Z</time></trkpt><trkpt lat="43.59440564260435" lon="11.897886522172048"><ele>460.0</ele><time>2026-04-25T10:48:08Z</time></trkpt><trkpt lat="43.59437656835465" lon="11.897753954266923"><ele>460.2</ele><time>2026-04-25T10:48:10Z</time></trkpt><trkpt lat="43.59431003423111" lon="11.897712127681181"><ele>460.4</ele><time>2026-04-25T10:48:11Z</time></trkpt><trkpt lat="43.59422855707008" lon="11.89763795456773"><ele>460.6</ele><time>2026-04-25T10:48:12Z</time></trkpt><trkpt lat="43.59414691137911" lon="11.897545337687303"><ele>460.8</ele><time>2026-04-25T10:48:13Z</time></trkpt><trkpt lat="43.59405605727927" lon="11.897442567894199"><ele>461.0</ele><time>2026-04-25T10:48:14Z</time></trkpt><trkpt lat="43.59397290893957" lon="11.897374171756478"><ele>460.49999999999994</ele><time>2026-04-25T10:48:15Z</time></trkpt><trkpt lat="43.593896290957424" lon="11.897323344091925"><ele>460.0</ele><time>2026-04-25T10:48:16Z</time></trkpt><trkpt lat="43.59382034799032" lon="11.897271432986209"><ele>459.5</ele><time>2026-04-25T10:48:17Z</time></trkpt><trkpt lat="43.593750861799776" lon="11.89723855422306"><ele>459.0</ele><time>2026-04-25T10:48:18Z</time></trkpt><trkpt lat="43.59368454389232" lon="11.897222937895906"><ele>458.49999999999994</ele><time>2026-04-25T10:48:19Z</time></trkpt><trkpt lat="43.5936156191375" lon="11.897222337376292"><ele>458.0</ele><time>2026-04-25T10:48:20Z</time></trkpt><trkpt lat="43.59353349494259" lon="11.897220307946968"><ele>457.99999999999994</ele><time>2026-04-25T10:48:21Z</time></trkpt><trkpt lat="43.593452402457814" lon="11.89721808205882"><ele>458.0</ele><time>2026-04-25T10:48:22Z</time></trkpt><trkpt lat="43.59337600156808" lon="11.897225481406645"><ele>458.0</ele><time>2026-04-25T10:48:23Z</time></trkpt><trkpt lat="43.59330687258425" lon="11.897238954410911"><ele>458.0</ele><time>2026-04-25T10:48:24Z</time></trkpt><trkpt lat="43.59324346517926" lon="11.89723781231877"><ele>457.99999999999994</ele><time>2026-04-25T10:48:25Z</time></trkpt><trkpt lat="43.593167016582356" lon="11.897192847421387"><ele>458.0</ele><time>2026-04-25T10:48:26Z</time></trkpt><trkpt lat="43.59306735165737" lon="11.897134511472373"><ele>457.99999999999994</ele><time>2026-04-25T10:48:27Z</time></trkpt><trkpt lat="43.592984793397946" lon="11.897083262158597"><ele>458.0</ele><time>2026-04-25T10:48:28Z</time></trkpt><trkpt lat="43.59291713886892" lon="11.897050914480413"><ele>458.0</ele><time>2026-04-25T10:48:29Z</time></trkpt><trkpt lat="43.59285250863394" lon="11.897022174778717"><ele>458.0</ele><time>2026-04-25T10:48:31Z</time></trkpt><trkpt lat="43.59284826797855" lon="11.897109066052503"><ele>457.99999999999994</ele><time>2026-04-25T10:48:35Z</time></trkpt><trkpt lat="43.59289276218555" lon="11.89728532938359"><ele>458.0</ele><time>2026-04-25T10:48:37Z</time></trkpt><trkpt lat="43.592888803220795" lon="11.897392180029914"><ele>457.99999999999994</ele><time>2026-04-25T10:48:38Z</time></trkpt><trkpt lat="43.59289050491961" lon="11.897516122481676"><ele>458.0</ele><time>2026-04-25T10:48:39Z</time></trkpt><trkpt lat="43.592903870523536" lon="11.89763452836627"><ele>458.0</ele><time>2026-04-25T10:48:40Z</time></trkpt><trkpt lat="43.59291848717036" lon="11.897752406344583"><ele>458.0</ele><time>2026-04-25T10:48:41Z</time></trkpt><trkpt lat="43.592937018752956" lon="11.897874577374878"><ele>457.99999999999994</ele><time>2026-04-25T10:48:42Z</time></trkpt><trkpt lat="43.592946773566375" lon="11.897970442896694"><ele>458.0</ele><time>2026-04-25T10:48:43Z</time></trkpt><trkpt lat="43.59296418778521" lon="11.898061972189746"><ele>459.79999999999995</ele><time>2026-04-25T10:48:45Z</time></trkpt><trkpt lat="43.59307051437024" lon="11.89811520930308"><ele>461.59999999999997</ele><time>2026-04-25T10:48:47Z</time></trkpt><trkpt lat="43.59316808132468" lon="11.898121250627954"><ele>463.40000000000003</ele><time>2026-04-25T10:48:48Z</time></trkpt><trkpt lat="43.59327909663582" lon="11.89814517866427"><ele>465.20000000000005</ele><time>2026-04-25T10:48:49Z</time></trkpt><trkpt lat="43.593384537604926" lon="11.898215147769065"><ele>467.0</ele><time>2026-04-25T10:48:50Z</time></trkpt><trkpt lat="43.593480590736554" lon="11.898302312625972"><ele>467.0</ele><time>2026-04-25T10:48:51Z</time></trkpt><trkpt lat="43.59353612837259" lon="11.898404889201405"><ele>467.00000000000006</ele><time>2026-04-25T10:48:52Z</time></trkpt><trkpt lat="43.593542320080935" lon="11.898526464802844"><ele>467.00000000000006</ele><time>2026-04-25T10:48:53Z</time></trkpt><trkpt lat="43.59349625773906" lon="11.89864637678522"><ele>467.0</ele><time>2026-04-25T10:48:54Z</time></trkpt><trkpt lat="43.59341799298874" lon="11.898726588840939"><ele>467.0</ele><time>2026-04-25T10:48:55Z</time></trkpt><trkpt lat="43.593310147048896" lon="11.89879808935576"><ele>472.0</ele><time>2026-04-25T10:48:56Z</time></trkpt><trkpt lat="43.59318084127963" lon="11.898883359516619"><ele>477.0</ele><time>2026-04-25T10:48:57Z</time></trkpt><trkpt lat="43.59303836110386" lon="11.89899442515095"><ele>482.0</ele><time>2026-04-25T10:48:58Z</time></trkpt><trkpt lat="43.59289395828129" lon="11.899112220037544"><ele>481.3333333333333</ele><time>2026-04-25T10:48:59Z</time></trkpt><trkpt lat="43.59273476068553" lon="11.899239617329425"><ele>480.66666666666663</ele><time>2026-04-25T10:49:00Z</time></trkpt><trkpt lat="43.592595159041316" lon="11.899358131598516"><ele>480.0</ele><time>2026-04-25T10:49:01Z</time></trkpt><trkpt lat="43.59245440888423" lon="11.899456477481701"><ele>484.75</ele><time>2026-04-25T10:49:02Z</time></trkpt><trkpt lat="43.592311923391655" lon="11.899476615768235"><ele>489.5</ele><time>2026-04-25T10:49:03Z</time></trkpt><trkpt lat="43.592165365852395" lon="11.89945843241832"><ele>494.25</ele><time>2026-04-25T10:49:04Z</time></trkpt><trkpt lat="43.59204495451539" lon="11.89942451370982"><ele>499.0</ele><time>2026-04-25T10:49:05Z</time></trkpt><trkpt lat="43.591940640624856" lon="11.899447281042077"><ele>499.25</ele><time>2026-04-25T10:49:06Z</time></trkpt><trkpt lat="43.59183954487953" lon="11.899560495938092"><ele>499.5</ele><time>2026-04-25T10:49:07Z</time></trkpt><trkpt lat="43.59172092493916" lon="11.899682684574156"><ele>499.75</ele><time>2026-04-25T10:49:08Z</time></trkpt><trkpt lat="43.59158273994965" lon="11.899764344169148"><ele>500.0</ele><time>2026-04-25T10:49:09Z</time></trkpt><trkpt lat="43.591429132805864" lon="11.899791440773694"><ele>500.0</ele><time>2026-04-25T10:49:10Z</time></trkpt><trkpt lat="43.59127673744344" lon="11.899811351637272"><ele>500.0</ele><time>2026-04-25T10:49:11Z</time></trkpt><trkpt lat="43.59112635894252" lon="11.89982122203548"><ele>500.0</ele><time>2026-04-25T10:49:12Z</time></trkpt><trkpt lat="43.59097042709915" lon="11.899848411262193"><ele>499.3333333333333</ele><time>2026-04-25T10:49:13Z</time></trkpt><trkpt lat="43.59082156840755" lon="11.89991474190756"><ele>498.66666666666663</ele><time>2026-04-25T10:49:14Z</time></trkpt><trkpt lat="43.59067349148673" lon="11.900013578053134"><ele>498.0</ele><time>2026-04-25T10:49:15Z</time></trkpt><trkpt lat="43.590535317570456" lon="11.900134173306514"><ele>501.0</ele><time>2026-04-25T10:49:16Z</time></trkpt><trkpt lat="43.59040325171571" lon="11.900265751474358"><ele>504.0</ele><time>2026-04-25T10:49:17Z</time></trkpt><trkpt lat="43.59027889348421" lon="11.900415525572749"><ele>507.0</ele><time>2026-04-25T10:49:18Z</time></trkpt><trkpt lat="43.590184079618076" lon="11.900553631855356"><ele>507.0</ele><time>2026-04-25T10:49:19Z</time></trkpt><trkpt lat="43.59010938456725" lon="11.900681279207031"><ele>507.00000000000006</ele><time>2026-04-25T10:49:20Z</time></trkpt><trkpt lat="43.59004432326879" lon="11.900799754208913"><ele>507.00000000000006</ele><time>2026-04-25T10:49:21Z</time></trkpt><trkpt lat="43.5899855115412" lon="11.900910381343197"><ele>507.0</ele><time>2026-04-25T10:49:22Z</time></trkpt><trkpt lat="43.589937558410156" lon="11.901004149559833"><ele>507.0</ele><time>2026-04-25T10:49:23Z</time></trkpt><trkpt lat="43.58989379230274" lon="11.90109501401103"><ele>508.6</ele><time>2026-04-25T10:49:24Z</time></trkpt><trkpt lat="43.58984456750758" lon="11.901171394174206"><ele>510.20000000000005</ele><time>2026-04-25T10:49:25Z</time></trkpt><trkpt lat="43.589825607398666" lon="11.901286061734513"><ele>511.8</ele><time>2026-04-25T10:49:26Z</time></trkpt><trkpt lat="43.58984960200102" lon="11.901419006824392"><ele>513.4</ele><time>2026-04-25T10:49:27Z</time></trkpt><trkpt lat="43.58983196972833" lon="11.901552121276916"><ele>515.0</ele><time>2026-04-25T10:49:28Z</time></trkpt><trkpt lat="43.58981970986374" lon="11.901693230024755"><ele>517.5</ele><time>2026-04-25T10:49:29Z</time></trkpt><trkpt lat="43.58979678844256" lon="11.901842435943175"><ele>520.0</ele><time>2026-04-25T10:49:30Z</time></trkpt><trkpt lat="43.589763274442674" lon="11.901999361131413"><ele>522.5</ele><time>2026-04-25T10:49:31Z</time></trkpt><trkpt lat="43.58972308939262" lon="11.902147821239668"><ele>525.0</ele><time>2026-04-25T10:49:32Z</time></trkpt><trkpt lat="43.58967898536315" lon="11.902294847719668"><ele>525.0</ele><time>2026-04-25T10:49:33Z</time></trkpt><trkpt lat="43.589634158143355" lon="11.902435553321839"><ele>525.0</ele><time>2026-04-25T10:49:34Z</time></trkpt><trkpt lat="43.58958810462579" lon="11.902574396977226"><ele>525.0</ele><time>2026-04-25T10:49:35Z</time></trkpt><trkpt lat="43.58953622208995" lon="11.902716167534917"><ele>525.0</ele><time>2026-04-25T10:49:36Z</time></trkpt><trkpt lat="43.58947393949855" lon="11.902851303297414"><ele>524.75</ele><time>2026-04-25T10:49:37Z</time></trkpt><trkpt lat="43.589406631826755" lon="11.902997438900524"><ele>524.5</ele><time>2026-04-25T10:49:38Z</time></trkpt><trkpt lat="43.58931758239234" lon="11.903118816516109"><ele>524.25</ele><time>2026-04-25T10:49:39Z</time></trkpt><trkpt lat="43.5892214302259" lon="11.903224831468107"><ele>524.0</ele><time>2026-04-25T10:49:40Z</time></trkpt><trkpt lat="43.58911434019074" lon="11.903287908607146"><ele>524.0</ele><time>2026-04-25T10:49:41Z</time></trkpt><trkpt lat="43.58900113889385" lon="11.903271759820612"><ele>524.0</ele><time>2026-04-25T10:49:42Z</time></trkpt><trkpt lat="43.5889043186591" lon="11.90320631916213"><ele>524.0</ele><time>2026-04-25T10:49:43Z</time></trkpt><trkpt lat="43.5888015325465" lon="11.903140367968506"><ele>524.0</ele><time>2026-04-25T10:49:44Z</time></trkpt><trkpt lat="43.58870235743238" lon="11.903070950912285"><ele>524.0</ele><time>2026-04-25T10:49:45Z</time></trkpt><trkpt lat="43.58862406186152" lon="11.903030263293589"><ele>524.0</ele><time>2026-04-25T10:49:46Z</time></trkpt><trkpt lat="43.58853561578011" lon="11.903057105881011"><ele>524.0</ele><time>2026-04-25T10:49:47Z</time></trkpt><trkpt lat="43.588449493668385" lon="11.903143803071641"><ele>524.0</ele><time>2026-04-25T10:49:48Z</time></trkpt><trkpt lat="43.58839623805907" lon="11.903269430624439"><ele>524.0</ele><time>2026-04-25T10:49:49Z</time></trkpt><trkpt lat="43.58837961663969" lon="11.903435652625705"><ele>524.0</ele><time>2026-04-25T10:49:50Z</time></trkpt><trkpt lat="43.58838019168548" lon="11.903610037687375"><ele>526.25</ele><time>2026-04-25T10:49:51Z</time></trkpt><trkpt lat="43.58837029606244" lon="11.903782332894767"><ele>528.5</ele><time>2026-04-25T10:49:52Z</time></trkpt><trkpt lat="43.58832884842138" lon="11.903943140340786"><ele>530.75</ele><time>2026-04-25T10:49:53Z</time></trkpt><trkpt lat="43.58829121309319" lon="11.904095770265123"><ele>533.0</ele><time>2026-04-25T10:49:54Z</time></trkpt><trkpt lat="43.58825770606796" lon="11.904251216688277"><ele>535.75</ele><time>2026-04-25T10:49:55Z</time></trkpt><trkpt lat="43.58818884130397" lon="11.904389412448442"><ele>538.5</ele><time>2026-04-25T10:49:56Z</time></trkpt><trkpt lat="43.58814940498186" lon="11.904545372034464"><ele>541.25</ele><time>2026-04-25T10:49:57Z</time></trkpt><trkpt lat="43.58808845953177" lon="11.904677818885391"><ele>544.0</ele><time>2026-04-25T10:49:58Z</time></trkpt><trkpt lat="43.588095183446086" lon="11.904818805290997"><ele>544.0</ele><time>2026-04-25T10:49:59Z</time></trkpt><trkpt lat="43.58812573437383" lon="11.904922453535603"><ele>544.0</ele><time>2026-04-25T10:50:00Z</time></trkpt><trkpt lat="43.58823147106054" lon="11.904969075307534"><ele>544.0</ele><time>2026-04-25T10:50:01Z</time></trkpt><trkpt lat="43.58835707154125" lon="11.904984564721593"><ele>544.0</ele><time>2026-04-25T10:50:02Z</time></trkpt><trkpt lat="43.58845966811491" lon="11.904967935367235"><ele>544.0</ele><time>2026-04-25T10:50:03Z</time></trkpt><trkpt lat="43.58852000800644" lon="11.905002095425864"><ele>544.0</ele><time>2026-04-25T10:50:04Z</time></trkpt><trkpt lat="43.58856191757801" lon="11.905095039065342"><ele>544.0</ele><time>2026-04-25T10:50:06Z</time></trkpt><trkpt lat="43.58843413271271" lon="11.905032067659233"><ele>544.0</ele><time>2026-04-25T10:50:09Z</time></trkpt><trkpt lat="43.588340696685066" lon="11.905002860517842"><ele>544.0</ele><time>2026-04-25T10:50:11Z</time></trkpt><trkpt lat="43.5882472648021" lon="11.904977753588003"><ele>544.0</ele><time>2026-04-25T10:50:13Z</time></trkpt><trkpt lat="43.588166085222" lon="11.904956498156247"><ele>544.0</ele><time>2026-04-25T10:50:15Z</time></trkpt><trkpt lat="43.58808892459657" lon="11.904936295005859"><ele>544.0</ele><time>2026-04-25T10:50:17Z</time></trkpt><trkpt lat="43.588020941324324" lon="11.904920450966067"><ele>544.0</ele><time>2026-04-25T10:50:19Z</time></trkpt><trkpt lat="43.58793250732465" lon="11.904900966501993"><ele>544.0</ele><time>2026-04-25T10:50:22Z</time></trkpt><trkpt lat="43.58785910836382" lon="11.904889950860808"><ele>544.0</ele><time>2026-04-25T10:50:24Z</time></trkpt><trkpt lat="43.58778232182365" lon="11.904887031686648"><ele>544.0</ele><time>2026-04-25T10:50:26Z</time></trkpt><trkpt lat="43.587679032971096" lon="11.904892149749163"><ele>545.2</ele><time>2026-04-25T10:50:28Z</time></trkpt><trkpt lat="43.587599986745005" lon="11.904863576200638"><ele>546.4</ele><time>2026-04-25T10:50:29Z</time></trkpt><trkpt lat="43.58752220042249" lon="11.904771650624621"><ele>547.6</ele><time>2026-04-25T10:50:30Z</time></trkpt><trkpt lat="43.587456037165154" lon="11.904662164897088"><ele>548.8</ele><time>2026-04-25T10:50:31Z</time></trkpt><trkpt lat="43.58736438954213" lon="11.904572731437383"><ele>550.0</ele><time>2026-04-25T10:50:32Z</time></trkpt><trkpt lat="43.58724949967218" lon="11.90451266014552"><ele>550.0</ele><time>2026-04-25T10:50:33Z</time></trkpt><trkpt lat="43.58711171083256" lon="11.904499133887056"><ele>550.0</ele><time>2026-04-25T10:50:34Z</time></trkpt><trkpt lat="43.58698871022792" lon="11.904520750899803"><ele>550.0</ele><time>2026-04-25T10:50:35Z</time></trkpt><trkpt lat="43.58687296540667" lon="11.90452767521013"><ele>550.0</ele><time>2026-04-25T10:50:36Z</time></trkpt><trkpt lat="43.586749845635296" lon="11.904549340161756"><ele>551.5</ele><time>2026-04-25T10:50:37Z</time></trkpt><trkpt lat="43.586620663762716" lon="11.904582131305435"><ele>553.0</ele><time>2026-04-25T10:50:38Z</time></trkpt><trkpt lat="43.586495968489544" lon="11.904623202542718"><ele>554.5</ele><time>2026-04-25T10:50:39Z</time></trkpt><trkpt lat="43.58639115356734" lon="11.904635960136874"><ele>556.0</ele><time>2026-04-25T10:50:40Z</time></trkpt><trkpt lat="43.58629231217519" lon="11.904632984676116"><ele>556.0</ele><time>2026-04-25T10:50:41Z</time></trkpt><trkpt lat="43.586195243073035" lon="11.90464710289192"><ele>556.0</ele><time>2026-04-25T10:50:42Z</time></trkpt><trkpt lat="43.58609791779397" lon="11.904627862492273"><ele>556.0</ele><time>2026-04-25T10:50:43Z</time></trkpt><trkpt lat="43.586012361730205" lon="11.904606076300418"><ele>556.0</ele><time>2026-04-25T10:50:44Z</time></trkpt><trkpt lat="43.5859481903542" lon="11.904576393673441"><ele>556.0</ele><time>2026-04-25T10:50:45Z</time></trkpt><trkpt lat="43.58588621653637" lon="11.904529096679164"><ele>556.0</ele><time>2026-04-25T10:50:46Z</time></trkpt><trkpt lat="43.58582974559024" lon="11.904442715708127"><ele>555.6</ele><time>2026-04-25T10:50:47Z</time></trkpt><trkpt lat="43.585791317709926" lon="11.904314342637836"><ele>555.2</ele><time>2026-04-25T10:50:48Z</time></trkpt><trkpt lat="43.585785162946806" lon="11.904174038543767"><ele>554.8</ele><time>2026-04-25T10:50:49Z</time></trkpt><trkpt lat="43.58580003999585" lon="11.90403067582873"><ele>554.4</ele><time>2026-04-25T10:50:50Z</time></trkpt><trkpt lat="43.585761036472924" lon="11.903913112869388"><ele>554.0</ele><time>2026-04-25T10:50:51Z</time></trkpt><trkpt lat="43.585684193335666" lon="11.903803246500885"><ele>554.0</ele><time>2026-04-25T10:50:52Z</time></trkpt><trkpt lat="43.585578435390396" lon="11.903691987659261"><ele>554.0</ele><time>2026-04-25T10:50:53Z</time></trkpt><trkpt lat="43.585457636394715" lon="11.903579411549796"><ele>554.0</ele><time>2026-04-25T10:50:54Z</time></trkpt><trkpt lat="43.58535644809387" lon="11.903479052004185"><ele>554.0</ele><time>2026-04-25T10:50:55Z</time></trkpt><trkpt lat="43.58523139810434" lon="11.903362091907884"><ele>555.75</ele><time>2026-04-25T10:50:56Z</time></trkpt><trkpt lat="43.58509923336346" lon="11.903246462626164"><ele>557.5</ele><time>2026-04-25T10:50:57Z</time></trkpt><trkpt lat="43.5849646835778" lon="11.903125146231075"><ele>559.25</ele><time>2026-04-25T10:50:58Z</time></trkpt><trkpt lat="43.58486003174451" lon="11.903016819426806"><ele>561.0</ele><time>2026-04-25T10:50:59Z</time></trkpt><trkpt lat="43.584757331843726" lon="11.902953931469222"><ele>561.0</ele><time>2026-04-25T10:51:00Z</time></trkpt><trkpt lat="43.58464432801133" lon="11.902945908619412"><ele>561.0</ele><time>2026-04-25T10:51:01Z</time></trkpt><trkpt lat="43.584535587358026" lon="11.903010554254402"><ele>561.0</ele><time>2026-04-25T10:51:02Z</time></trkpt><trkpt lat="43.58441934502895" lon="11.903070228911508"><ele>561.0</ele><time>2026-04-25T10:51:03Z</time></trkpt><trkpt lat="43.584299799785434" lon="11.903143763025646"><ele>563.75</ele><time>2026-04-25T10:51:04Z</time></trkpt><trkpt lat="43.58417183777646" lon="11.903205308656865"><ele>566.5</ele><time>2026-04-25T10:51:05Z</time></trkpt><trkpt lat="43.58403869741378" lon="11.903260833230116"><ele>569.25</ele><time>2026-04-25T10:51:06Z</time></trkpt><trkpt lat="43.583903233956875" lon="11.903316253630766"><ele>572.0</ele><time>2026-04-25T10:51:07Z</time></trkpt><trkpt lat="43.58375910389927" lon="11.90337298892022"><ele>577.3333333333333</ele><time>2026-04-25T10:51:08Z</time></trkpt><trkpt lat="43.583613604978645" lon="11.903420394408998"><ele>582.6666666666666</ele><time>2026-04-25T10:51:09Z</time></trkpt><trkpt lat="43.58345321992506" lon="11.903475612288318"><ele>588.0</ele><time>2026-04-25T10:51:10Z</time></trkpt><trkpt lat="43.58328989408512" lon="11.903541439375555"><ele>588.0</ele><time>2026-04-25T10:51:11Z</time></trkpt><trkpt lat="43.583137511860286" lon="11.903609763121098"><ele>588.0</ele><time>2026-04-25T10:51:12Z</time></trkpt><trkpt lat="43.58299377169187" lon="11.90368986408037"><ele>588.0</ele><time>2026-04-25T10:51:13Z</time></trkpt><trkpt lat="43.58285679282069" lon="11.903798503428499"><ele>586.5</ele><time>2026-04-25T10:51:14Z</time></trkpt><trkpt lat="43.58272327502338" lon="11.903914237302168"><ele>585.0</ele><time>2026-04-25T10:51:15Z</time></trkpt><trkpt lat="43.582601781834015" lon="11.904018047506035"><ele>583.5</ele><time>2026-04-25T10:51:16Z</time></trkpt><trkpt lat="43.58247595705793" lon="11.90411714705455"><ele>582.0</ele><time>2026-04-25T10:51:17Z</time></trkpt><trkpt lat="43.582344961172105" lon="11.904210482746706"><ele>582.5</ele><time>2026-04-25T10:51:18Z</time></trkpt><trkpt lat="43.58220104699173" lon="11.904270562216304"><ele>583.0</ele><time>2026-04-25T10:51:19Z</time></trkpt><trkpt lat="43.58206894640177" lon="11.904303729161708"><ele>583.5</ele><time>2026-04-25T10:51:20Z</time></trkpt><trkpt lat="43.58194396322301" lon="11.904273110002439"><ele>584.0</ele><time>2026-04-25T10:51:21Z</time></trkpt><trkpt lat="43.58182890334757" lon="11.904178929684418"><ele>582.75</ele><time>2026-04-25T10:51:22Z</time></trkpt><trkpt lat="43.58170965523562" lon="11.904101000506886"><ele>581.5</ele><time>2026-04-25T10:51:23Z</time></trkpt><trkpt lat="43.58159748234969" lon="11.90405755426752"><ele>580.25</ele><time>2026-04-25T10:51:24Z</time></trkpt><trkpt lat="43.58148445403417" lon="11.904031360828409"><ele>579.0</ele><time>2026-04-25T10:51:25Z</time></trkpt><trkpt lat="43.58137791295925" lon="11.904028992609108"><ele>579.0</ele><time>2026-04-25T10:51:26Z</time></trkpt><trkpt lat="43.581271109157186" lon="11.904041328957556"><ele>579.0</ele><time>2026-04-25T10:51:27Z</time></trkpt><trkpt lat="43.58117880570054" lon="11.904055142329328"><ele>579.0</ele><time>2026-04-25T10:51:28Z</time></trkpt><trkpt lat="43.58110409282352" lon="11.904067526402635"><ele>579.0</ele><time>2026-04-25T10:51:29Z</time></trkpt><trkpt lat="43.580918868283256" lon="11.904083415599594"><ele>580.0</ele><time>2026-04-25T10:51:31Z</time></trkpt><trkpt lat="43.5808067017498" lon="11.904045543511874"><ele>581.0</ele><time>2026-04-25T10:51:32Z</time></trkpt><trkpt lat="43.58079439742136" lon="11.903270981707356"><ele>581.0</ele><time>2026-04-25T10:51:33Z</time></trkpt><trkpt lat="43.580712347905745" lon="11.903159350079928"><ele>581.0</ele><time>2026-04-25T10:51:34Z</time></trkpt><trkpt lat="43.58063694059347" lon="11.903084786474732"><ele>581.0</ele><time>2026-04-25T10:51:35Z</time></trkpt><trkpt lat="43.580550294546256" lon="11.903047763510646"><ele>581.0</ele><time>2026-04-25T10:51:36Z</time></trkpt><trkpt lat="43.580434408385656" lon="11.90302469634117"><ele>581.0</ele><time>2026-04-25T10:51:37Z</time></trkpt><trkpt lat="43.580306913985424" lon="11.903012810109647"><ele>581.6666666666666</ele><time>2026-04-25T10:51:38Z</time></trkpt><trkpt lat="43.58022224661316" lon="11.902999492360067"><ele>582.3333333333333</ele><time>2026-04-25T10:51:39Z</time></trkpt><trkpt lat="43.58015428917712" lon="11.903001174162917"><ele>583.0</ele><time>2026-04-25T10:51:40Z</time></trkpt><trkpt lat="43.58007664168234" lon="11.90301594749082"><ele>583.6666666666666</ele><time>2026-04-25T10:51:41Z</time></trkpt><trkpt lat="43.57997906462918" lon="11.903011953322622"><ele>584.3333333333334</ele><time>2026-04-25T10:51:42Z</time></trkpt><trkpt lat="43.57989504874003" lon="11.90298787223921"><ele>585.0</ele><time>2026-04-25T10:51:43Z</time></trkpt><trkpt lat="43.57982409238242" lon="11.902988263942815"><ele>585.0</ele><time>2026-04-25T10:51:44Z</time></trkpt><trkpt lat="43.579748891291864" lon="11.903008620669146"><ele>585.0</ele><time>2026-04-25T10:51:46Z</time></trkpt><trkpt lat="43.579609326539455" lon="11.902991475474595"><ele>585.0</ele><time>2026-04-25T10:52:13Z</time></trkpt><trkpt lat="43.57951123642661" lon="11.902975741382035"><ele>585.0</ele><time>2026-04-25T10:52:14Z</time></trkpt><trkpt lat="43.57940280234734" lon="11.902934720071462"><ele>585.0</ele><time>2026-04-25T10:52:15Z</time></trkpt><trkpt lat="43.57929029029564" lon="11.902873002403634"><ele>583.25</ele><time>2026-04-25T10:52:16Z</time></trkpt><trkpt lat="43.5791716544233" lon="11.902784489911696"><ele>581.5</ele><time>2026-04-25T10:52:17Z</time></trkpt><trkpt lat="43.57906460699767" lon="11.902686046511404"><ele>579.75</ele><time>2026-04-25T10:52:18Z</time></trkpt><trkpt lat="43.57898103119611" lon="11.902605057220546"><ele>578.0</ele><time>2026-04-25T10:52:19Z</time></trkpt><trkpt lat="43.57892103859937" lon="11.902517008619034"><ele>578.1999999999999</ele><time>2026-04-25T10:52:20Z</time></trkpt><trkpt lat="43.578850299576736" lon="11.902403390438517"><ele>578.4</ele><time>2026-04-25T10:52:21Z</time></trkpt><trkpt lat="43.57874398613923" lon="11.902283268624702"><ele>578.5999999999999</ele><time>2026-04-25T10:52:22Z</time></trkpt><trkpt lat="43.57864521693904" lon="11.902206132466937"><ele>578.8</ele><time>2026-04-25T10:52:23Z</time></trkpt><trkpt lat="43.578571408037995" lon="11.902155010430352"><ele>579.0</ele><time>2026-04-25T10:52:24Z</time></trkpt><trkpt lat="43.57846046718739" lon="11.902158477692765"><ele>579.0</ele><time>2026-04-25T10:52:25Z</time></trkpt><trkpt lat="43.57835631234731" lon="11.902124891525386"><ele>579.0</ele><time>2026-04-25T10:52:26Z</time></trkpt><trkpt lat="43.578305914457886" lon="11.90204260261358"><ele>579.0</ele><time>2026-04-25T10:52:27Z</time></trkpt><trkpt lat="43.578218759691715" lon="11.901940690745402"><ele>579.0</ele><time>2026-04-25T10:52:28Z</time></trkpt><trkpt lat="43.57811796233387" lon="11.901869586090124"><ele>579.0</ele><time>2026-04-25T10:52:29Z</time></trkpt><trkpt lat="43.57805408219022" lon="11.901748829303918"><ele>580.25</ele><time>2026-04-25T10:52:30Z</time></trkpt><trkpt lat="43.57799076979607" lon="11.901585969737496"><ele>581.5</ele><time>2026-04-25T10:52:31Z</time></trkpt><trkpt lat="43.57791120855481" lon="11.901412459025245"><ele>582.75</ele><time>2026-04-25T10:52:32Z</time></trkpt><trkpt lat="43.577843949217026" lon="11.90125492431684"><ele>584.0</ele><time>2026-04-25T10:52:33Z</time></trkpt><trkpt lat="43.57779086135059" lon="11.901103633564814"><ele>584.0</ele><time>2026-04-25T10:52:34Z</time></trkpt><trkpt lat="43.577730382807395" lon="11.900962644049713"><ele>584.0</ele><time>2026-04-25T10:52:35Z</time></trkpt><trkpt lat="43.5776564561278" lon="11.900819970740287"><ele>584.0</ele><time>2026-04-25T10:52:36Z</time></trkpt><trkpt lat="43.57759013725703" lon="11.900695147106926"><ele>584.0</ele><time>2026-04-25T10:52:37Z</time></trkpt><trkpt lat="43.57752239979292" lon="11.900625444733155"><ele>584.0</ele><time>2026-04-25T10:52:38Z</time></trkpt><trkpt lat="43.57740892583861" lon="11.900594871249124"><ele>587.2</ele><time>2026-04-25T10:52:39Z</time></trkpt><trkpt lat="43.57729105291153" lon="11.900542371657249"><ele>590.4</ele><time>2026-04-25T10:52:40Z</time></trkpt><trkpt lat="43.57721244840835" lon="11.900466104225144"><ele>593.6</ele><time>2026-04-25T10:52:41Z</time></trkpt><trkpt lat="43.57713221337957" lon="11.900376620025387"><ele>596.8</ele><time>2026-04-25T10:52:42Z</time></trkpt><trkpt lat="43.57704196730065" lon="11.90027267539041"><ele>600.0</ele><time>2026-04-25T10:52:43Z</time></trkpt><trkpt lat="43.576956139868905" lon="11.90019787221242"><ele>600.4</ele><time>2026-04-25T10:52:44Z</time></trkpt><trkpt lat="43.57686688712488" lon="11.900124191337229"><ele>600.8</ele><time>2026-04-25T10:52:45Z</time></trkpt><trkpt lat="43.576786290160406" lon="11.90003144267622"><ele>601.2</ele><time>2026-04-25T10:52:46Z</time></trkpt><trkpt lat="43.57673086995157" lon="11.899973226686452"><ele>601.6</ele><time>2026-04-25T10:52:47Z</time></trkpt><trkpt lat="43.576611027107504" lon="11.899879885283596"><ele>602.0</ele><time>2026-04-25T10:52:49Z</time></trkpt><trkpt lat="43.57651849037523" lon="11.899811113710951"><ele>602.0</ele><time>2026-04-25T10:52:50Z</time></trkpt><trkpt lat="43.57639530183851" lon="11.899738156490336"><ele>602.0</ele><time>2026-04-25T10:52:51Z</time></trkpt><trkpt lat="43.57625986196731" lon="11.899655010389502"><ele>602.0</ele><time>2026-04-25T10:52:52Z</time></trkpt><trkpt lat="43.5761535600721" lon="11.899572475489064"><ele>602.0</ele><time>2026-04-25T10:52:53Z</time></trkpt><trkpt lat="43.57608176141794" lon="11.899522979894398"><ele>603.5</ele><time>2026-04-25T10:52:54Z</time></trkpt><trkpt lat="43.575989495339975" lon="11.899490562775247"><ele>605.0</ele><time>2026-04-25T10:52:55Z</time></trkpt><trkpt lat="43.57587193498684" lon="11.89948303876858"><ele>606.5</ele><time>2026-04-25T10:52:56Z</time></trkpt><trkpt lat="43.57573756102478" lon="11.899449102217414"><ele>608.0</ele><time>2026-04-25T10:52:57Z</time></trkpt><trkpt lat="43.575601567894246" lon="11.899417131139893"><ele>608.0</ele><time>2026-04-25T10:52:58Z</time></trkpt><trkpt lat="43.575503215069666" lon="11.899395878280158"><ele>608.0</ele><time>2026-04-25T10:52:59Z</time></trkpt><trkpt lat="43.57539579850497" lon="11.899365544191106"><ele>608.0</ele><time>2026-04-25T10:53:00Z</time></trkpt><trkpt lat="43.57528603779161" lon="11.89933952834094"><ele>608.0</ele><time>2026-04-25T10:53:01Z</time></trkpt><trkpt lat="43.57516031943774" lon="11.899334816854266"><ele>608.0</ele><time>2026-04-25T10:53:02Z</time></trkpt><trkpt lat="43.5750363216541" lon="11.899337845650015"><ele>607.8</ele><time>2026-04-25T10:53:03Z</time></trkpt><trkpt lat="43.57491498061657" lon="11.899360694297085"><ele>607.5999999999999</ele><time>2026-04-25T10:53:04Z</time></trkpt><trkpt lat="43.574799438202035" lon="11.899396378411327"><ele>607.4000000000001</ele><time>2026-04-25T10:53:05Z</time></trkpt><trkpt lat="43.57472142571925" lon="11.899414924118783"><ele>607.2</ele><time>2026-04-25T10:53:06Z</time></trkpt><trkpt lat="43.574623081417414" lon="11.899448350565121"><ele>607.0</ele><time>2026-04-25T10:53:12Z</time></trkpt><trkpt lat="43.5745460765421" lon="11.89946002868293"><ele>606.6</ele><time>2026-04-25T10:53:13Z</time></trkpt><trkpt lat="43.57447917216503" lon="11.899492149763171"><ele>606.2</ele><time>2026-04-25T10:53:14Z</time></trkpt><trkpt lat="43.574381826973635" lon="11.899537457409759"><ele>605.8</ele><time>2026-04-25T10:53:16Z</time></trkpt><trkpt lat="43.57429641865137" lon="11.899546259578672"><ele>605.4</ele><time>2026-04-25T10:53:17Z</time></trkpt><trkpt lat="43.57420191317047" lon="11.899519913938233"><ele>605.0</ele><time>2026-04-25T10:53:18Z</time></trkpt><trkpt lat="43.57410046877034" lon="11.899477336525468"><ele>605.0</ele><time>2026-04-25T10:53:19Z</time></trkpt><trkpt lat="43.57401717889692" lon="11.899467520246283"><ele>605.0</ele><time>2026-04-25T10:53:20Z</time></trkpt><trkpt lat="43.57391808248317" lon="11.899469982938825"><ele>605.0</ele><time>2026-04-25T10:53:21Z</time></trkpt><trkpt lat="43.573813033252506" lon="11.899480831142371"><ele>605.0</ele><time>2026-04-25T10:53:22Z</time></trkpt><trkpt lat="43.5736938928396" lon="11.89951381429237"><ele>605.0</ele><time>2026-04-25T10:53:23Z</time></trkpt><trkpt lat="43.573583470708634" lon="11.899528575982277"><ele>605.3333333333333</ele><time>2026-04-25T10:53:24Z</time></trkpt><trkpt lat="43.573516828085324" lon="11.899507594528313"><ele>605.6666666666666</ele><time>2026-04-25T10:53:25Z</time></trkpt><trkpt lat="43.57344190929522" lon="11.899442144560904"><ele>606.0</ele><time>2026-04-25T10:53:26Z</time></trkpt><trkpt lat="43.573364463096574" lon="11.899361662593986"><ele>606.3333333333334</ele><time>2026-04-25T10:53:27Z</time></trkpt><trkpt lat="43.57332164365832" lon="11.8992839143313"><ele>606.6666666666667</ele><time>2026-04-25T10:53:28Z</time></trkpt><trkpt lat="43.573283270830984" lon="11.899185405375249"><ele>607.0</ele><time>2026-04-25T10:53:29Z</time></trkpt><trkpt lat="43.5732260584711" lon="11.899071966568293"><ele>607.0</ele><time>2026-04-25T10:53:30Z</time></trkpt><trkpt lat="43.57314636193175" lon="11.898985725722227"><ele>607.0</ele><time>2026-04-25T10:53:31Z</time></trkpt><trkpt lat="43.57306971986251" lon="11.89892233777222"><ele>607.0</ele><time>2026-04-25T10:53:32Z</time></trkpt><trkpt lat="43.57301086677254" lon="11.898879737700364"><ele>607.0</ele><time>2026-04-25T10:53:33Z</time></trkpt><trkpt lat="43.57294037786899" lon="11.898894498684774"><ele>607.0</ele><time>2026-04-25T10:53:38Z</time></trkpt><trkpt lat="43.572863190157584" lon="11.898864007179618"><ele>607.0</ele><time>2026-04-25T10:53:40Z</time></trkpt><trkpt lat="43.57274431946011" lon="11.898796803597595"><ele>608.0</ele><time>2026-04-25T10:53:42Z</time></trkpt><trkpt lat="43.57267629705165" lon="11.898753172108991"><ele>609.0</ele><time>2026-04-25T10:53:43Z</time></trkpt><trkpt lat="43.57260154706239" lon="11.898718320607154"><ele>610.0</ele><time>2026-04-25T10:53:44Z</time></trkpt><trkpt lat="43.57252442350239" lon="11.898686620768848"><ele>611.0</ele><time>2026-04-25T10:53:45Z</time></trkpt><trkpt lat="43.5724341738407" lon="11.898671158017503"><ele>612.0</ele><time>2026-04-25T10:53:46Z</time></trkpt><trkpt lat="43.57234848968627" lon="11.898673721689125"><ele>613.0</ele><time>2026-04-25T10:53:47Z</time></trkpt><trkpt lat="43.572232391735525" lon="11.898756790559267"><ele>613.0</ele><time>2026-04-25T10:53:49Z</time></trkpt><trkpt lat="43.57214469925295" lon="11.898794265525517"><ele>613.0</ele><time>2026-04-25T10:53:50Z</time></trkpt><trkpt lat="43.572063168464425" lon="11.898799108100476"><ele>613.0</ele><time>2026-04-25T10:53:51Z</time></trkpt><trkpt lat="43.57192764106873" lon="11.89875383480712"><ele>613.0</ele><time>2026-04-25T10:53:53Z</time></trkpt><trkpt lat="43.57186501750643" lon="11.89870415415603"><ele>613.0</ele><time>2026-04-25T10:53:54Z</time></trkpt><trkpt lat="43.57175038815917" lon="11.89865534164286"><ele>614.75</ele><time>2026-04-25T10:53:56Z</time></trkpt><trkpt lat="43.57165790952331" lon="11.89865575509007"><ele>616.5</ele><time>2026-04-25T10:53:57Z</time></trkpt><trkpt lat="43.57156206531338" lon="11.898647856148708"><ele>618.25</ele><time>2026-04-25T10:53:58Z</time></trkpt><trkpt lat="43.57143584116361" lon="11.898657157144118"><ele>620.0</ele><time>2026-04-25T10:54:00Z</time></trkpt><trkpt lat="43.571293792959516" lon="11.89858280011642"><ele>620.0</ele><time>2026-04-25T10:54:02Z</time></trkpt><trkpt lat="43.57122505747263" lon="11.89849897922025"><ele>620.0</ele><time>2026-04-25T10:54:03Z</time></trkpt><trkpt lat="43.57114467737474" lon="11.898430346452987"><ele>620.0</ele><time>2026-04-25T10:54:04Z</time></trkpt><trkpt lat="43.57105686817741" lon="11.898380967476756"><ele>620.0</ele><time>2026-04-25T10:54:05Z</time></trkpt><trkpt lat="43.57099322265761" lon="11.898355155667948"><ele>620.0</ele><time>2026-04-25T10:54:06Z</time></trkpt><trkpt lat="43.57090294845019" lon="11.898336275392523"><ele>620.0</ele><time>2026-04-25T10:54:08Z</time></trkpt><trkpt lat="43.57086098742549" lon="11.898440066648554"><ele>618.6</ele><time>2026-04-25T10:54:22Z</time></trkpt><trkpt lat="43.57081574136968" lon="11.898553701586069"><ele>617.2</ele><time>2026-04-25T10:54:23Z</time></trkpt><trkpt lat="43.57077111905189" lon="11.898695993848634"><ele>615.8</ele><time>2026-04-25T10:54:24Z</time></trkpt><trkpt lat="43.570738374531544" lon="11.898819663857504"><ele>614.4</ele><time>2026-04-25T10:54:25Z</time></trkpt><trkpt lat="43.57074110684334" lon="11.898925411413277"><ele>613.0</ele><time>2026-04-25T10:54:26Z</time></trkpt><trkpt lat="43.57076250387603" lon="11.899077311974462"><ele>613.0</ele><time>2026-04-25T10:54:27Z</time></trkpt><trkpt lat="43.57079040502692" lon="11.89924411504546"><ele>613.0</ele><time>2026-04-25T10:54:28Z</time></trkpt><trkpt lat="43.57077007314823" lon="11.899374334436425"><ele>613.0</ele><time>2026-04-25T10:54:29Z</time></trkpt><trkpt lat="43.57073570253236" lon="11.899452637662451"><ele>613.0</ele><time>2026-04-25T10:54:30Z</time></trkpt><trkpt lat="43.57066590816312" lon="11.899531001647173"><ele>613.0</ele><time>2026-04-25T10:54:31Z</time></trkpt><trkpt lat="43.570569835225086" lon="11.899598627800446"><ele>613.0</ele><time>2026-04-25T10:54:32Z</time></trkpt><trkpt lat="43.57048911236364" lon="11.899622937768704"><ele>613.0</ele><time>2026-04-25T10:54:33Z</time></trkpt><trkpt lat="43.570402076494794" lon="11.899657658396839"><ele>613.0</ele><time>2026-04-25T10:54:34Z</time></trkpt><trkpt lat="43.57030834430308" lon="11.899673554077946"><ele>613.0</ele><time>2026-04-25T10:54:35Z</time></trkpt><trkpt lat="43.57022973656796" lon="11.89970040641526"><ele>613.0</ele><time>2026-04-25T10:54:36Z</time></trkpt><trkpt lat="43.570156532637455" lon="11.899723070879201"><ele>613.0</ele><time>2026-04-25T10:54:37Z</time></trkpt><trkpt lat="43.570075507821215" lon="11.899659534267625"><ele>607.4</ele><time>2026-04-25T10:54:39Z</time></trkpt><trkpt lat="43.57011928191736" lon="11.899583109128365"><ele>601.8</ele><time>2026-04-25T10:54:41Z</time></trkpt><trkpt lat="43.57017403939387" lon="11.899455032901262"><ele>596.2</ele><time>2026-04-25T10:54:44Z</time></trkpt><trkpt lat="43.57020260555702" lon="11.899322158143503"><ele>590.6</ele><time>2026-04-25T10:54:45Z</time></trkpt><trkpt lat="43.57021937752214" lon="11.899159299168836"><ele>585.0</ele><time>2026-04-25T10:54:46Z</time></trkpt><trkpt lat="43.570222714755396" lon="11.899018848200567"><ele>585.0</ele><time>2026-04-25T10:54:47Z</time></trkpt><trkpt lat="43.570215005966105" lon="11.898896286741547"><ele>585.0</ele><time>2026-04-25T10:54:48Z</time></trkpt><trkpt lat="43.570180920219194" lon="11.89881655483359"><ele>585.0</ele><time>2026-04-25T10:54:49Z</time></trkpt><trkpt lat="43.570110935167655" lon="11.898729256643765"><ele>585.0</ele><time>2026-04-25T10:54:50Z</time></trkpt><trkpt lat="43.57005216991676" lon="11.898680349965781"><ele>585.0</ele><time>2026-04-25T10:54:51Z</time></trkpt><trkpt lat="43.56997502815305" lon="11.898669924911143"><ele>585.0</ele><time>2026-04-25T10:54:52Z</time></trkpt><trkpt lat="43.56989003839861" lon="11.89866663559225"><ele>585.0</ele><time>2026-04-25T10:54:53Z</time></trkpt><trkpt lat="43.56978377781045" lon="11.898654097491276"><ele>585.0</ele><time>2026-04-25T10:54:54Z</time></trkpt><trkpt lat="43.56966289350691" lon="11.898658596340653"><ele>585.0</ele><time>2026-04-25T10:54:55Z</time></trkpt><trkpt lat="43.569562563915845" lon="11.898649656422831"><ele>585.0</ele><time>2026-04-25T10:54:56Z</time></trkpt><trkpt lat="43.569491050327784" lon="11.898634050477574"><ele>585.0</ele><time>2026-04-25T10:54:57Z</time></trkpt><trkpt lat="43.569430325552595" lon="11.898577416037272"><ele>581.6</ele><time>2026-04-25T10:55:00Z</time></trkpt><trkpt lat="43.569365160913364" lon="11.898545170710793"><ele>578.2</ele><time>2026-04-25T10:55:01Z</time></trkpt><trkpt lat="43.56927909016985" lon="11.898508639502973"><ele>574.8</ele><time>2026-04-25T10:55:02Z</time></trkpt><trkpt lat="43.56919490143272" lon="11.89850124422486"><ele>571.4</ele><time>2026-04-25T10:55:03Z</time></trkpt><trkpt lat="43.569093193248605" lon="11.898519531680934"><ele>568.0</ele><time>2026-04-25T10:55:04Z</time></trkpt><trkpt lat="43.568975277078735" lon="11.898552704282906"><ele>568.0</ele><time>2026-04-25T10:55:05Z</time></trkpt><trkpt lat="43.56883877690778" lon="11.898597754038777"><ele>568.0</ele><time>2026-04-25T10:55:06Z</time></trkpt><trkpt lat="43.56871022976705" lon="11.898631061740897"><ele>568.0</ele><time>2026-04-25T10:55:07Z</time></trkpt><trkpt lat="43.56858654787634" lon="11.8986742632822"><ele>568.0</ele><time>2026-04-25T10:55:08Z</time></trkpt><trkpt lat="43.568493059332624" lon="11.898692698681874"><ele>568.3333333333334</ele><time>2026-04-25T10:55:09Z</time></trkpt><trkpt lat="43.56841975730112" lon="11.898735202774233"><ele>568.6666666666667</ele><time>2026-04-25T10:55:10Z</time></trkpt><trkpt lat="43.56837892389406" lon="11.898812314991128"><ele>569.0</ele><time>2026-04-25T10:55:11Z</time></trkpt><trkpt lat="43.568440414717216" lon="11.898910209142063"><ele>569.3333333333334</ele><time>2026-04-25T10:55:21Z</time></trkpt><trkpt lat="43.56839256287945" lon="11.899058406335422"><ele>569.6666666666666</ele><time>2026-04-25T10:55:23Z</time></trkpt><trkpt lat="43.56837623681793" lon="11.899162387240997"><ele>570.0</ele><time>2026-04-25T10:55:24Z</time></trkpt><trkpt lat="43.568342759238504" lon="11.899246865437142"><ele>567.8</ele><time>2026-04-25T10:55:26Z</time></trkpt><trkpt lat="43.56830579194003" lon="11.89936827757946"><ele>565.6</ele><time>2026-04-25T10:55:34Z</time></trkpt><trkpt lat="43.568277685500526" lon="11.899448340007408"><ele>563.4</ele><time>2026-04-25T10:55:35Z</time></trkpt><trkpt lat="43.56824667018804" lon="11.899550462603846"><ele>561.2</ele><time>2026-04-25T10:55:36Z</time></trkpt><trkpt lat="43.56822353341273" lon="11.899696199341292"><ele>559.0</ele><time>2026-04-25T10:55:37Z</time></trkpt><trkpt lat="43.56823104990252" lon="11.899838267661643"><ele>559.0</ele><time>2026-04-25T10:55:38Z</time></trkpt><trkpt lat="43.568245753975184" lon="11.89992660301085"><ele>559.0</ele><time>2026-04-25T10:55:39Z</time></trkpt><trkpt lat="43.568158195543184" lon="11.90007181866094"><ele>559.0</ele><time>2026-04-25T10:55:41Z</time></trkpt><trkpt lat="43.568091508858544" lon="11.9001595733179"><ele>559.0</ele><time>2026-04-25T10:55:42Z</time></trkpt><trkpt lat="43.568004552418344" lon="11.900247451222231"><ele>559.0</ele><time>2026-04-25T10:55:43Z</time></trkpt><trkpt lat="43.56793153467845" lon="11.900290351723298"><ele>557.0</ele><time>2026-04-25T10:55:44Z</time></trkpt><trkpt lat="43.567813470359795" lon="11.900308288733084"><ele>555.0</ele><time>2026-04-25T10:55:46Z</time></trkpt><trkpt lat="43.567743533202865" lon="11.900329898353585"><ele>553.0</ele><time>2026-04-25T10:55:47Z</time></trkpt><trkpt lat="43.56766878745114" lon="11.900390989375866"><ele>551.0</ele><time>2026-04-25T10:55:48Z</time></trkpt><trkpt lat="43.56759535765826" lon="11.900471164272972"><ele>549.0</ele><time>2026-04-25T10:55:49Z</time></trkpt><trkpt lat="43.56752414915099" lon="11.900567010065119"><ele>549.0</ele><time>2026-04-25T10:55:50Z</time></trkpt><trkpt lat="43.567444539712014" lon="11.90067623505739"><ele>549.0</ele><time>2026-04-25T10:55:51Z</time></trkpt><trkpt lat="43.56735592339271" lon="11.900781809557209"><ele>549.0</ele><time>2026-04-25T10:55:52Z</time></trkpt><trkpt lat="43.5672786655771" lon="11.90082817862094"><ele>549.0</ele><time>2026-04-25T10:55:53Z</time></trkpt><trkpt lat="43.56718884830289" lon="11.900819706909541"><ele>549.0</ele><time>2026-04-25T10:55:54Z</time></trkpt><trkpt lat="43.56706959435183" lon="11.90078716561574"><ele>549.0</ele><time>2026-04-25T10:55:55Z</time></trkpt><trkpt lat="43.566953267236755" lon="11.900797206768063"><ele>549.0</ele><time>2026-04-25T10:55:56Z</time></trkpt><trkpt lat="43.56684842489138" lon="11.900814506416838"><ele>549.0</ele><time>2026-04-25T10:55:57Z</time></trkpt><trkpt lat="43.56673281273289" lon="11.90080496488988"><ele>549.0</ele><time>2026-04-25T10:55:58Z</time></trkpt><trkpt lat="43.56662139244603" lon="11.900781604714952"><ele>549.0</ele><time>2026-04-25T10:55:59Z</time></trkpt><trkpt lat="43.56653346411533" lon="11.90075382429278"><ele>549.0</ele><time>2026-04-25T10:56:00Z</time></trkpt><trkpt lat="43.56642779404832" lon="11.900670733523778"><ele>549.0</ele><time>2026-04-25T10:56:01Z</time></trkpt><trkpt lat="43.566347946133995" lon="11.900577197060707"><ele>549.0</ele><time>2026-04-25T10:56:02Z</time></trkpt><trkpt lat="43.5663047289547" lon="11.900513111901171"><ele>549.0</ele><time>2026-04-25T10:56:03Z</time></trkpt><trkpt lat="43.56625707582262" lon="11.900425235699005"><ele>549.0</ele><time>2026-04-25T10:56:04Z</time></trkpt><trkpt lat="43.56622136401201" lon="11.90034094798029"><ele>549.0</ele><time>2026-04-25T10:56:10Z</time></trkpt><trkpt lat="43.56618316817883" lon="11.900256649534073"><ele>549.0</ele><time>2026-04-25T10:56:11Z</time></trkpt><trkpt lat="43.56612076111524" lon="11.900143893403277"><ele>549.0</ele><time>2026-04-25T10:56:12Z</time></trkpt><trkpt lat="43.566071757959165" lon="11.900064298763654"><ele>549.0</ele><time>2026-04-25T10:56:13Z</time></trkpt><trkpt lat="43.56601573776416" lon="11.90001650570301"><ele>549.0</ele><time>2026-04-25T10:56:14Z</time></trkpt><trkpt lat="43.565920229773" lon="11.899973381542145"><ele>549.5</ele><time>2026-04-25T10:56:16Z</time></trkpt><trkpt lat="43.5658430255459" lon="11.899855095112668"><ele>550.0</ele><time>2026-04-25T10:56:20Z</time></trkpt><trkpt lat="43.56578980842433" lon="11.899786165415081"><ele>550.5</ele><time>2026-04-25T10:56:21Z</time></trkpt><trkpt lat="43.56572683322879" lon="11.89973551442286"><ele>551.0</ele><time>2026-04-25T10:56:23Z</time></trkpt><trkpt lat="43.56566692841219" lon="11.899771521197493"><ele>551.5</ele><time>2026-04-25T10:56:26Z</time></trkpt><trkpt lat="43.56562307061697" lon="11.89983561956958"><ele>552.0</ele><time>2026-04-25T10:56:27Z</time></trkpt><trkpt lat="43.56555797816987" lon="11.899935954685516"><ele>552.0</ele><time>2026-04-25T10:56:29Z</time></trkpt><trkpt lat="43.56550563288122" lon="11.90000124379701"><ele>552.0</ele><time>2026-04-25T10:56:30Z</time></trkpt><trkpt lat="43.565448117873395" lon="11.900064341305635"><ele>552.0</ele><time>2026-04-25T10:56:31Z</time></trkpt><trkpt lat="43.56537534867687" lon="11.900089000802035"><ele>552.0</ele><time>2026-04-25T10:56:32Z</time></trkpt><trkpt lat="43.565268917098194" lon="11.900099189061235"><ele>552.0</ele><time>2026-04-25T10:56:33Z</time></trkpt><trkpt lat="43.56516509914164" lon="11.90014454200469"><ele>552.0</ele><time>2026-04-25T10:56:34Z</time></trkpt><trkpt lat="43.56505411756569" lon="11.90021203496001"><ele>552.3333333333334</ele><time>2026-04-25T10:56:35Z</time></trkpt><trkpt lat="43.56498179913321" lon="11.900300738189463"><ele>552.6666666666666</ele><time>2026-04-25T10:56:36Z</time></trkpt><trkpt lat="43.56495107108884" lon="11.900427632859998"><ele>553.0</ele><time>2026-04-25T10:56:37Z</time></trkpt><trkpt lat="43.564909819696" lon="11.900542811784844"><ele>553.3333333333333</ele><time>2026-04-25T10:56:38Z</time></trkpt><trkpt lat="43.56484709178555" lon="11.900598906661557"><ele>553.6666666666666</ele><time>2026-04-25T10:56:39Z</time></trkpt><trkpt lat="43.56479633036934" lon="11.900666725946948"><ele>554.0</ele><time>2026-04-25T10:56:40Z</time></trkpt><trkpt lat="43.56479194157308" lon="11.900820183400072"><ele>554.0</ele><time>2026-04-25T10:56:42Z</time></trkpt><trkpt lat="43.56477729247457" lon="11.900905710465558"><ele>554.0</ele><time>2026-04-25T10:56:43Z</time></trkpt><trkpt lat="43.56478133256309" lon="11.901004342783072"><ele>554.0</ele><time>2026-04-25T10:56:44Z</time></trkpt><trkpt lat="43.56484429466204" lon="11.901099624754966"><ele>554.0</ele><time>2026-04-25T10:56:45Z</time></trkpt><trkpt lat="43.56490021428295" lon="11.901211199436897"><ele>554.0</ele><time>2026-04-25T10:56:46Z</time></trkpt><trkpt lat="43.564917034090556" lon="11.90131386069247"><ele>554.0</ele><time>2026-04-25T10:56:47Z</time></trkpt><trkpt lat="43.564918599789564" lon="11.901429125288992"><ele>554.2</ele><time>2026-04-25T10:56:48Z</time></trkpt><trkpt lat="43.564897206449594" lon="11.901538958884704"><ele>554.4</ele><time>2026-04-25T10:56:49Z</time></trkpt><trkpt lat="43.564850266293796" lon="11.901656161240282"><ele>554.6</ele><time>2026-04-25T10:56:50Z</time></trkpt><trkpt lat="43.5647043320719" lon="11.901725692158625"><ele>554.8</ele><time>2026-04-25T10:56:52Z</time></trkpt><trkpt lat="43.56460145771125" lon="11.90174467934657"><ele>555.0</ele><time>2026-04-25T10:56:53Z</time></trkpt><trkpt lat="43.564495708345206" lon="11.901751704156329"><ele>556.6</ele><time>2026-04-25T10:56:54Z</time></trkpt><trkpt lat="43.564407778894534" lon="11.901753328870583"><ele>558.2</ele><time>2026-04-25T10:56:55Z</time></trkpt><trkpt lat="43.56432455325995" lon="11.901761765106459"><ele>559.8</ele><time>2026-04-25T10:56:56Z</time></trkpt><trkpt lat="43.564209509551915" lon="11.90178398027007"><ele>561.4</ele><time>2026-04-25T10:56:57Z</time></trkpt><trkpt lat="43.564117068917014" lon="11.901811531108143"><ele>563.0</ele><time>2026-04-25T10:56:58Z</time></trkpt><trkpt lat="43.564055886530284" lon="11.901870893059714"><ele>563.0</ele><time>2026-04-25T10:57:11Z</time></trkpt><trkpt lat="43.564008036171046" lon="11.9019344022087"><ele>563.0</ele><time>2026-04-25T10:57:12Z</time></trkpt><trkpt lat="43.56394266703642" lon="11.902003556837698"><ele>563.0</ele><time>2026-04-25T10:57:13Z</time></trkpt><trkpt lat="43.56386956395811" lon="11.902061112445192"><ele>563.0</ele><time>2026-04-25T10:57:14Z</time></trkpt><trkpt lat="43.56379290951991" lon="11.902097241218964"><ele>563.0</ele><time>2026-04-25T10:57:15Z</time></trkpt><trkpt lat="43.56372432793081" lon="11.902140786900736"><ele>563.0</ele><time>2026-04-25T10:57:16Z</time></trkpt><trkpt lat="43.56357441799067" lon="11.902171440714978"><ele>563.4</ele><time>2026-04-25T10:57:18Z</time></trkpt><trkpt lat="43.563476986644844" lon="11.902262508958074"><ele>563.8</ele><time>2026-04-25T10:57:19Z</time></trkpt><trkpt lat="43.563394883840566" lon="11.902374610674222"><ele>564.2</ele><time>2026-04-25T10:57:20Z</time></trkpt><trkpt lat="43.56333575321278" lon="11.902451485526841"><ele>564.6</ele><time>2026-04-25T10:57:21Z</time></trkpt><trkpt lat="43.563265491434386" lon="11.902499323758406"><ele>565.0</ele><time>2026-04-25T10:57:22Z</time></trkpt><trkpt lat="43.56317434888075" lon="11.90253023589189"><ele>565.0</ele><time>2026-04-25T10:57:23Z</time></trkpt><trkpt lat="43.56310232197597" lon="11.902571809646243"><ele>565.0</ele><time>2026-04-25T10:57:24Z</time></trkpt><trkpt lat="43.56308027479648" lon="11.902655568628905"><ele>565.0</ele><time>2026-04-25T10:57:25Z</time></trkpt><trkpt lat="43.56303237331465" lon="11.902773269789517"><ele>565.0</ele><time>2026-04-25T10:57:27Z</time></trkpt><trkpt lat="43.56305623023117" lon="11.902959115268429"><ele>565.0</ele><time>2026-04-25T10:57:29Z</time></trkpt><trkpt lat="43.5631014094451" lon="11.903050072507002"><ele>564.5</ele><time>2026-04-25T10:57:30Z</time></trkpt><trkpt lat="43.56310032879547" lon="11.903161163284913"><ele>564.0</ele><time>2026-04-25T10:57:31Z</time></trkpt><trkpt lat="43.56305840896485" lon="11.903290993678945"><ele>563.5</ele><time>2026-04-25T10:57:32Z</time></trkpt><trkpt lat="43.56303124286787" lon="11.903439637594973"><ele>563.0</ele><time>2026-04-25T10:57:33Z</time></trkpt><trkpt lat="43.563032759209484" lon="11.903532883565491"><ele>562.5</ele><time>2026-04-25T10:57:34Z</time></trkpt><trkpt lat="43.5630000008501" lon="11.903630636946945"><ele>562.0</ele><time>2026-04-25T10:57:39Z</time></trkpt><trkpt lat="43.562851866027884" lon="11.903600937653316"><ele>562.0</ele><time>2026-04-25T10:57:41Z</time></trkpt><trkpt lat="43.56275220115291" lon="11.903563429825065"><ele>562.0</ele><time>2026-04-25T10:57:42Z</time></trkpt><trkpt lat="43.56264337261457" lon="11.903535598587807"><ele>562.0</ele><time>2026-04-25T10:57:43.001Z</time></trkpt><trkpt lat="43.56254655031861" lon="11.90351972558231"><ele>562.0</ele><time>2026-04-25T10:57:44.001Z</time></trkpt><trkpt lat="43.5624473906065" lon="11.903504853546433"><ele>562.0</ele><time>2026-04-25T10:57:45.001Z</time></trkpt><trkpt lat="43.5623427552249" lon="11.903497499149745"><ele>562.0</ele><time>2026-04-25T10:57:46.001Z</time></trkpt><trkpt lat="43.562258796872996" lon="11.90349438104626"><ele>562.0</ele><time>2026-04-25T10:57:47.001Z</time></trkpt><trkpt lat="43.56218789400077" lon="11.903487877955305"><ele>562.0</ele><time>2026-04-25T10:57:48.001Z</time></trkpt><trkpt lat="43.562093403042105" lon="11.903495887178204"><ele>562.0</ele><time>2026-04-25T10:57:50.001Z</time></trkpt><trkpt lat="43.56200864370658" lon="11.903500898168096"><ele>562.0</ele><time>2026-04-25T10:57:55.001Z</time></trkpt><trkpt lat="43.56184576914546" lon="11.903534982288486"><ele>558.4</ele><time>2026-04-25T10:57:57.001Z</time></trkpt><trkpt lat="43.56173127840104" lon="11.903548262900472"><ele>554.8000000000001</ele><time>2026-04-25T10:57:58.001Z</time></trkpt><trkpt lat="43.5616431425249" lon="11.903560099057607"><ele>551.2</ele><time>2026-04-25T10:57:59.001Z</time></trkpt><trkpt lat="43.56157377127575" lon="11.903618854805183"><ele>547.6</ele><time>2026-04-25T10:58:00.001Z</time></trkpt><trkpt lat="43.56153235871251" lon="11.903745766574918"><ele>544.0</ele><time>2026-04-25T10:58:01.001Z</time></trkpt><trkpt lat="43.56147951731869" lon="11.903885938627505"><ele>544.0</ele><time>2026-04-25T10:58:02.001Z</time></trkpt><trkpt lat="43.56145242943577" lon="11.904020943834594"><ele>544.0</ele><time>2026-04-25T10:58:03.001Z</time></trkpt><trkpt lat="43.56144277775615" lon="11.904126073111192"><ele>544.0</ele><time>2026-04-25T10:58:04.001Z</time></trkpt><trkpt lat="43.561420061410885" lon="11.904223345341327"><ele>544.0</ele><time>2026-04-25T10:58:05.001Z</time></trkpt><trkpt lat="43.56137374310382" lon="11.904303064995162"><ele>544.0</ele><time>2026-04-25T10:58:06.001Z</time></trkpt><trkpt lat="43.561297529898724" lon="11.90440278326666"><ele>544.0</ele><time>2026-04-25T10:58:07.001Z</time></trkpt><trkpt lat="43.56120824896029" lon="11.904507025985346"><ele>544.1666666666667</ele><time>2026-04-25T10:58:08.001Z</time></trkpt><trkpt lat="43.561152963016994" lon="11.904569487535676"><ele>544.3333333333334</ele><time>2026-04-25T10:58:09.001Z</time></trkpt><trkpt lat="43.561040133323054" lon="11.904551261075682"><ele>544.5</ele><time>2026-04-25T10:58:11.001Z</time></trkpt><trkpt lat="43.56097320880779" lon="11.90450237325666"><ele>544.6666666666666</ele><time>2026-04-25T10:58:12.001Z</time></trkpt><trkpt lat="43.560901824959856" lon="11.904508385071644"><ele>544.8333333333333</ele><time>2026-04-25T10:58:13.001Z</time></trkpt><trkpt lat="43.56084016405087" lon="11.904541696285323"><ele>545.0</ele><time>2026-04-25T10:58:14.001Z</time></trkpt><trkpt lat="43.560845330968924" lon="11.90464113885628"><ele>545.0</ele><time>2026-04-25T10:58:18.001Z</time></trkpt><trkpt lat="43.560978390713174" lon="11.90464534216444"><ele>545.0</ele><time>2026-04-25T10:58:20Z</time></trkpt><trkpt lat="43.561048244439476" lon="11.904678011966563"><ele>545.0</ele><time>2026-04-25T10:58:21Z</time></trkpt><trkpt lat="43.56107953198525" lon="11.9047614475622"><ele>545.0</ele><time>2026-04-25T10:58:29Z</time></trkpt><trkpt lat="43.56101305754494" lon="11.90485332910555"><ele>545.0</ele><time>2026-04-25T10:58:32Z</time></trkpt><trkpt lat="43.560938380014534" lon="11.90497215997543"><ele>545.0</ele><time>2026-04-25T10:58:34Z</time></trkpt><trkpt lat="43.56090173486232" lon="11.905055363964383"><ele>545.0</ele><time>2026-04-25T10:58:35Z</time></trkpt><trkpt lat="43.56085524901411" lon="11.905139823902527"><ele>545.0</ele><time>2026-04-25T10:58:36Z</time></trkpt><trkpt lat="43.560800838179695" lon="11.905220640545885"><ele>545.0</ele><time>2026-04-25T10:58:37Z</time></trkpt><trkpt lat="43.56073941133459" lon="11.905277450731429"><ele>545.0</ele><time>2026-04-25T10:58:38Z</time></trkpt><trkpt lat="43.56067754285904" lon="11.905311039962086"><ele>545.0</ele><time>2026-04-25T10:58:39Z</time></trkpt><trkpt lat="43.56060740593199" lon="11.905366616286406"><ele>545.0</ele><time>2026-04-25T10:58:40Z</time></trkpt><trkpt lat="43.56054362438568" lon="11.905430556918347"><ele>548.1666666666666</ele><time>2026-04-25T10:58:41Z</time></trkpt><trkpt lat="43.560484063176276" lon="11.905574235790288"><ele>551.3333333333333</ele><time>2026-04-25T10:58:43Z</time></trkpt><trkpt lat="43.56047422625737" lon="11.9056907751102"><ele>554.5</ele><time>2026-04-25T10:58:44Z</time></trkpt><trkpt lat="43.56046920128066" lon="11.905796462125888"><ele>557.6666666666666</ele><time>2026-04-25T10:58:45Z</time></trkpt><trkpt lat="43.56049196944353" lon="11.90587988131773"><ele>560.8333333333334</ele><time>2026-04-25T10:58:46Z</time></trkpt><trkpt lat="43.56055115007011" lon="11.905952342584069"><ele>564.0</ele><time>2026-04-25T10:58:47Z</time></trkpt><trkpt lat="43.56061530212059" lon="11.906030238272377"><ele>564.5</ele><time>2026-04-25T10:58:48Z</time></trkpt><trkpt lat="43.56068068144477" lon="11.906108951818112"><ele>565.0</ele><time>2026-04-25T10:58:49Z</time></trkpt><trkpt lat="43.56074263078658" lon="11.906190858629099"><ele>565.5</ele><time>2026-04-25T10:58:50Z</time></trkpt><trkpt lat="43.56079337690691" lon="11.906264419564272"><ele>566.0</ele><time>2026-04-25T10:58:51Z</time></trkpt><trkpt lat="43.560841402941044" lon="11.906375569233276"><ele>566.5</ele><time>2026-04-25T10:58:52Z</time></trkpt><trkpt lat="43.560878027906476" lon="11.906513125802931"><ele>567.0</ele><time>2026-04-25T10:58:53Z</time></trkpt><trkpt lat="43.560924025566585" lon="11.9066339900582"><ele>567.0</ele><time>2026-04-25T10:58:54Z</time></trkpt><trkpt lat="43.560978616501664" lon="11.906725684637756"><ele>567.0</ele><time>2026-04-25T10:58:55Z</time></trkpt><trkpt lat="43.56103176498895" lon="11.906837752914612"><ele>567.0</ele><time>2026-04-25T10:58:56Z</time></trkpt><trkpt lat="43.56104749810131" lon="11.906970912974323"><ele>567.0</ele><time>2026-04-25T10:58:57Z</time></trkpt><trkpt lat="43.56103640072084" lon="11.90712038849734"><ele>567.0</ele><time>2026-04-25T10:58:58Z</time></trkpt><trkpt lat="43.5610471226213" lon="11.907249918789917"><ele>567.0</ele><time>2026-04-25T10:58:59Z</time></trkpt><trkpt lat="43.56106782528242" lon="11.907346413557756"><ele>567.0</ele><time>2026-04-25T10:59:00Z</time></trkpt><trkpt lat="43.56109853907459" lon="11.907433670880243"><ele>567.0</ele><time>2026-04-25T10:59:01Z</time></trkpt><trkpt lat="43.56114977140942" lon="11.907551284414494"><ele>567.0</ele><time>2026-04-25T10:59:02Z</time></trkpt><trkpt lat="43.561228918516505" lon="11.907656101339303"><ele>567.0</ele><time>2026-04-25T10:59:03Z</time></trkpt><trkpt lat="43.561304625302796" lon="11.907785155570991"><ele>566.25</ele><time>2026-04-25T10:59:04Z</time></trkpt><trkpt lat="43.56135172075801" lon="11.907926374183813"><ele>565.5</ele><time>2026-04-25T10:59:05Z</time></trkpt><trkpt lat="43.561396221287076" lon="11.908081025106295"><ele>564.75</ele><time>2026-04-25T10:59:06Z</time></trkpt><trkpt lat="43.56145004108047" lon="11.908222674971643"><ele>564.0</ele><time>2026-04-25T10:59:07Z</time></trkpt><trkpt lat="43.56147291552777" lon="11.9083631503031"><ele>563.6</ele><time>2026-04-25T10:59:08Z</time></trkpt><trkpt lat="43.56150284228119" lon="11.908451330586853"><ele>563.2</ele><time>2026-04-25T10:59:09Z</time></trkpt><trkpt lat="43.561598091879176" lon="11.908480962875883"><ele>562.8000000000001</ele><time>2026-04-25T10:59:10Z</time></trkpt><trkpt lat="43.561709686796256" lon="11.908523174419448"><ele>562.4</ele><time>2026-04-25T10:59:11Z</time></trkpt><trkpt lat="43.56176154796071" lon="11.908630403720718"><ele>562.0</ele><time>2026-04-25T10:59:12Z</time></trkpt><trkpt lat="43.561775174034466" lon="11.90878838326742"><ele>562.0</ele><time>2026-04-25T10:59:13Z</time></trkpt><trkpt lat="43.56180150400599" lon="11.908952052930488"><ele>562.0</ele><time>2026-04-25T10:59:14Z</time></trkpt><trkpt lat="43.56186891921328" lon="11.909065331111108"><ele>562.0</ele><time>2026-04-25T10:59:15Z</time></trkpt><trkpt lat="43.561947348318384" lon="11.909196582770521"><ele>562.0</ele><time>2026-04-25T10:59:16Z</time></trkpt><trkpt lat="43.56201674070424" lon="11.909282315880265"><ele>562.0</ele><time>2026-04-25T10:59:17Z</time></trkpt><trkpt lat="43.5620864340092" lon="11.909325711968517"><ele>559.8000000000001</ele><time>2026-04-25T10:59:18Z</time></trkpt><trkpt lat="43.5620853883243" lon="11.909527530310628"><ele>557.6</ele><time>2026-04-25T10:59:20Z</time></trkpt><trkpt lat="43.5620560560806" lon="11.90970255305831"><ele>555.4000000000001</ele><time>2026-04-25T10:59:21Z</time></trkpt><trkpt lat="43.56208722579739" lon="11.909780177608035"><ele>553.2</ele><time>2026-04-25T10:59:22Z</time></trkpt><trkpt lat="43.562153677429954" lon="11.909863600222108"><ele>551.0</ele><time>2026-04-25T10:59:23Z</time></trkpt><trkpt lat="43.56224923604804" lon="11.909955362841144"><ele>551.0</ele><time>2026-04-25T10:59:24Z</time></trkpt><trkpt lat="43.562336316089734" lon="11.910049239205492"><ele>551.0</ele><time>2026-04-25T10:59:25Z</time></trkpt><trkpt lat="43.56236598306173" lon="11.910129622721387"><ele>551.0</ele><time>2026-04-25T10:59:26Z</time></trkpt><trkpt lat="43.56237054302667" lon="11.910225464153593"><ele>551.0</ele><time>2026-04-25T10:59:27Z</time></trkpt><trkpt lat="43.56234682390447" lon="11.910348458289944"><ele>551.0</ele><time>2026-04-25T10:59:28Z</time></trkpt><trkpt lat="43.56233330363596" lon="11.910471034667388"><ele>551.0</ele><time>2026-04-25T10:59:29Z</time></trkpt><trkpt lat="43.56236432236866" lon="11.910558143361252"><ele>552.5</ele><time>2026-04-25T10:59:30Z</time></trkpt><trkpt lat="43.56243108372027" lon="11.910672950522775"><ele>554.0</ele><time>2026-04-25T10:59:31Z</time></trkpt><trkpt lat="43.56253698121663" lon="11.910812670719798"><ele>555.5</ele><time>2026-04-25T10:59:32Z</time></trkpt><trkpt lat="43.562634771027234" lon="11.910908989717747"><ele>557.0</ele><time>2026-04-25T10:59:33Z</time></trkpt><trkpt lat="43.56271392879326" lon="11.910998136819943"><ele>560.5</ele><time>2026-04-25T10:59:34Z</time></trkpt><trkpt lat="43.56277932906591" lon="11.911115469298315"><ele>564.0</ele><time>2026-04-25T10:59:35Z</time></trkpt><trkpt lat="43.56283566571678" lon="11.911250257009122"><ele>567.5</ele><time>2026-04-25T10:59:36Z</time></trkpt><trkpt lat="43.56288016398373" lon="11.911388122360785"><ele>571.0</ele><time>2026-04-25T10:59:37Z</time></trkpt><trkpt lat="43.56293539391039" lon="11.911553208586927"><ele>564.0</ele><time>2026-04-25T10:59:38Z</time></trkpt><trkpt lat="43.56300304331695" lon="11.911708697652498"><ele>557.0</ele><time>2026-04-25T10:59:39Z</time></trkpt><trkpt lat="43.563070325589116" lon="11.911864816850384"><ele>550.0</ele><time>2026-04-25T10:59:40Z</time></trkpt><trkpt lat="43.56311743195293" lon="11.912015592235917"><ele>543.0</ele><time>2026-04-25T10:59:41Z</time></trkpt><trkpt lat="43.56314240627538" lon="11.91214978844721"><ele>543.0</ele><time>2026-04-25T10:59:42Z</time></trkpt><trkpt lat="43.56316826354166" lon="11.912282268327353"><ele>543.0</ele><time>2026-04-25T10:59:43Z</time></trkpt><trkpt lat="43.56319048097535" lon="11.912404324391197"><ele>543.0</ele><time>2026-04-25T10:59:44Z</time></trkpt><trkpt lat="43.563243671907564" lon="11.912557996108664"><ele>543.0</ele><time>2026-04-25T10:59:45Z</time></trkpt><trkpt lat="43.56326220647153" lon="11.912710376385544"><ele>543.0</ele><time>2026-04-25T10:59:46Z</time></trkpt><trkpt lat="43.56329339984956" lon="11.912824354042547"><ele>543.4</ele><time>2026-04-25T10:59:47Z</time></trkpt><trkpt lat="43.56334373235747" lon="11.912933332506109"><ele>543.8</ele><time>2026-04-25T10:59:48Z</time></trkpt><trkpt lat="43.56337430516802" lon="11.913027932055039"><ele>544.2</ele><time>2026-04-25T10:59:49.001Z</time></trkpt><trkpt lat="43.563395772474095" lon="11.913165467722859"><ele>544.6</ele><time>2026-04-25T10:59:50.001Z</time></trkpt><trkpt lat="43.56345053108698" lon="11.913304925925601"><ele>545.0</ele><time>2026-04-25T10:59:51.001Z</time></trkpt><trkpt lat="43.563487509353244" lon="11.913445979729115"><ele>545.0</ele><time>2026-04-25T10:59:52.001Z</time></trkpt><trkpt lat="43.563519269179096" lon="11.913549794994672"><ele>545.0</ele><time>2026-04-25T10:59:53.001Z</time></trkpt><trkpt lat="43.563509912580365" lon="11.913680416127425"><ele>545.0</ele><time>2026-04-25T10:59:55.001Z</time></trkpt><trkpt lat="43.56348404690672" lon="11.913787268532703"><ele>545.0</ele><time>2026-04-25T10:59:56.001Z</time></trkpt><trkpt lat="43.56345030182624" lon="11.913915238240836"><ele>545.0</ele><time>2026-04-25T10:59:57.001Z</time></trkpt><trkpt lat="43.56339062618737" lon="11.913975464015339"><ele>545.0</ele><time>2026-04-25T10:59:58.001Z</time></trkpt><trkpt lat="43.56331671080269" lon="11.914008590248512"><ele>575.0</ele><time>2026-04-25T10:59:59.001Z</time></trkpt><trkpt lat="43.580918868283256" lon="11.904083415599594"><ele>575.0</ele><time>2026-04-25T10:51:31Z</time></trkpt><trkpt lat="43.5808067017498" lon="11.904045543511874"><ele>575.0</ele><time>2026-04-25T10:51:32Z</time></trkpt><trkpt lat="43.58079439742136" lon="11.903270981707356"><ele>576.2</ele><time>2026-04-25T10:51:33Z</time></trkpt><trkpt lat="43.580712347905745" lon="11.903159350079928"><ele>577.4</ele><time>2026-04-25T10:51:34Z</time></trkpt><trkpt lat="43.58063694059347" lon="11.903084786474732"><ele>578.6</ele><time>2026-04-25T10:51:35Z</time></trkpt><trkpt lat="43.580550294546256" lon="11.903047763510646"><ele>579.8</ele><time>2026-04-25T10:51:36Z</time></trkpt><trkpt lat="43.580434408385656" lon="11.90302469634117"><ele>581.0</ele><time>2026-04-25T10:51:37Z</time></trkpt><trkpt lat="43.580306913985424" lon="11.903012810109647"><ele>581.6666666666666</ele><time>2026-04-25T10:51:38Z</time></trkpt><trkpt lat="43.58022224661316" lon="11.902999492360067"><ele>582.3333333333333</ele><time>2026-04-25T10:51:39Z</time></trkpt><trkpt lat="43.58015428917712" lon="11.903001174162917"><ele>583.0</ele><time>2026-04-25T10:51:40Z</time></trkpt><trkpt lat="43.58007664168234" lon="11.90301594749082"><ele>583.6666666666666</ele><time>2026-04-25T10:51:41Z</time></trkpt><trkpt lat="43.57997906462918" lon="11.903011953322622"><ele>584.3333333333334</ele><time>2026-04-25T10:51:42Z</time></trkpt><trkpt lat="43.57989504874003" lon="11.90298787223921"><ele>585.0</ele><time>2026-04-25T10:51:43Z</time></trkpt><trkpt lat="43.57982409238242" lon="11.902988263942815"><ele>585.0</ele><time>2026-04-25T10:51:44Z</time></trkpt><trkpt lat="43.579748891291864" lon="11.903008620669146"><ele>585.0</ele><time>2026-04-25T10:51:46Z</time></trkpt><trkpt lat="43.579609326539455" lon="11.902991475474595"><ele>585.0</ele><time>2026-04-25T10:52:13Z</time></trkpt><trkpt lat="43.57951123642661" lon="11.902975741382035"><ele>585.0</ele><time>2026-04-25T10:52:14Z</time></trkpt><trkpt lat="43.57940280234734" lon="11.902934720071462"><ele>585.0</ele><time>2026-04-25T10:52:15Z</time></trkpt><trkpt lat="43.57929029029564" lon="11.902873002403634"><ele>583.25</ele><time>2026-04-25T10:52:16Z</time></trkpt><trkpt lat="43.5791716544233" lon="11.902784489911696"><ele>581.5</ele><time>2026-04-25T10:52:17Z</time></trkpt><trkpt lat="43.57906460699767" lon="11.902686046511404"><ele>579.75</ele><time>2026-04-25T10:52:18Z</time></trkpt><trkpt lat="43.57898103119611" lon="11.902605057220546"><ele>578.0</ele><time>2026-04-25T10:52:19Z</time></trkpt><trkpt lat="43.57892103859937" lon="11.902517008619034"><ele>578.1999999999999</ele><time>2026-04-25T10:52:20Z</time></trkpt><trkpt lat="43.578850299576736" lon="11.902403390438517"><ele>578.4</ele><time>2026-04-25T10:52:21Z</time></trkpt><trkpt lat="43.57874398613923" lon="11.902283268624702"><ele>578.5999999999999</ele><time>2026-04-25T10:52:22Z</time></trkpt><trkpt lat="43.57864521693904" lon="11.902206132466937"><ele>578.8</ele><time>2026-04-25T10:52:23Z</time></trkpt><trkpt lat="43.578571408037995" lon="11.902155010430352"><ele>579.0</ele><time>2026-04-25T10:52:24Z</time></trkpt><trkpt lat="43.57846046718739" lon="11.902158477692765"><ele>579.0</ele><time>2026-04-25T10:52:25Z</time></trkpt><trkpt lat="43.57835631234731" lon="11.902124891525386"><ele>579.0</ele><time>2026-04-25T10:52:26Z</time></trkpt><trkpt lat="43.578305914457886" lon="11.90204260261358"><ele>579.0</ele><time>2026-04-25T10:52:27Z</time></trkpt><trkpt lat="43.578218759691715" lon="11.901940690745402"><ele>579.0</ele><time>2026-04-25T10:52:28Z</time></trkpt><trkpt lat="43.57811796233387" lon="11.901869586090124"><ele>579.0</ele><time>2026-04-25T10:52:29Z</time></trkpt><trkpt lat="43.57805408219022" lon="11.901748829303918"><ele>580.25</ele><time>2026-04-25T10:52:30Z</time></trkpt><trkpt lat="43.57799076979607" lon="11.901585969737496"><ele>581.5</ele><time>2026-04-25T10:52:31Z</time></trkpt><trkpt lat="43.57791120855481" lon="11.901412459025245"><ele>582.75</ele><time>2026-04-25T10:52:32Z</time></trkpt><trkpt lat="43.577843949217026" lon="11.90125492431684"><ele>584.0</ele><time>2026-04-25T10:52:33Z</time></trkpt><trkpt lat="43.57779086135059" lon="11.901103633564814"><ele>584.0</ele><time>2026-04-25T10:52:34Z</time></trkpt><trkpt lat="43.577730382807395" lon="11.900962644049713"><ele>584.0</ele><time>2026-04-25T10:52:35Z</time></trkpt><trkpt lat="43.5776564561278" lon="11.900819970740287"><ele>584.0</ele><time>2026-04-25T10:52:36Z</time></trkpt><trkpt lat="43.57759013725703" lon="11.900695147106926"><ele>584.0</ele><time>2026-04-25T10:52:37Z</time></trkpt><trkpt lat="43.57752239979292" lon="11.900625444733155"><ele>584.0</ele><time>2026-04-25T10:52:38Z</time></trkpt><trkpt lat="43.57740892583861" lon="11.900594871249124"><ele>587.2</ele><time>2026-04-25T10:52:39Z</time></trkpt><trkpt lat="43.57729105291153" lon="11.900542371657249"><ele>590.4</ele><time>2026-04-25T10:52:40Z</time></trkpt><trkpt lat="43.57721244840835" lon="11.900466104225144"><ele>593.6</ele><time>2026-04-25T10:52:41Z</time></trkpt><trkpt lat="43.57713221337957" lon="11.900376620025387"><ele>596.8</ele><time>2026-04-25T10:52:42Z</time></trkpt><trkpt lat="43.57704196730065" lon="11.90027267539041"><ele>600.0</ele><time>2026-04-25T10:52:43Z</time></trkpt><trkpt lat="43.576956139868905" lon="11.90019787221242"><ele>600.4</ele><time>2026-04-25T10:52:44Z</time></trkpt><trkpt lat="43.57686688712488" lon="11.900124191337229"><ele>600.8</ele><time>2026-04-25T10:52:45Z</time></trkpt><trkpt lat="43.576786290160406" lon="11.90003144267622"><ele>601.2</ele><time>2026-04-25T10:52:46Z</time></trkpt><trkpt lat="43.57673086995157" lon="11.899973226686452"><ele>601.6</ele><time>2026-04-25T10:52:47Z</time></trkpt><trkpt lat="43.576611027107504" lon="11.899879885283596"><ele>602.0</ele><time>2026-04-25T10:52:49Z</time></trkpt><trkpt lat="43.57651849037523" lon="11.899811113710951"><ele>602.0</ele><time>2026-04-25T10:52:50Z</time></trkpt><trkpt lat="43.57639530183851" lon="11.899738156490336"><ele>602.0</ele><time>2026-04-25T10:52:51Z</time></trkpt><trkpt lat="43.57625986196731" lon="11.899655010389502"><ele>602.0</ele><time>2026-04-25T10:52:52Z</time></trkpt><trkpt lat="43.5761535600721" lon="11.899572475489064"><ele>602.0</ele><time>2026-04-25T10:52:53Z</time></trkpt><trkpt lat="43.57608176141794" lon="11.899522979894398"><ele>603.5</ele><time>2026-04-25T10:52:54Z</time></trkpt><trkpt lat="43.575989495339975" lon="11.899490562775247"><ele>605.0</ele><time>2026-04-25T10:52:55Z</time></trkpt><trkpt lat="43.57587193498684" lon="11.89948303876858"><ele>606.5</ele><time>2026-04-25T10:52:56Z</time></trkpt><trkpt lat="43.57573756102478" lon="11.899449102217414"><ele>608.0</ele><time>2026-04-25T10:52:57Z</time></trkpt><trkpt lat="43.575601567894246" lon="11.899417131139893"><ele>608.0</ele><time>2026-04-25T10:52:58Z</time></trkpt><trkpt lat="43.575503215069666" lon="11.899395878280158"><ele>608.0</ele><time>2026-04-25T10:52:59Z</time></trkpt><trkpt lat="43.57539579850497" lon="11.899365544191106"><ele>608.0</ele><time>2026-04-25T10:53:00Z</time></trkpt><trkpt lat="43.57528603779161" lon="11.89933952834094"><ele>608.0</ele><time>2026-04-25T10:53:01Z</time></trkpt><trkpt lat="43.57516031943774" lon="11.899334816854266"><ele>608.0</ele><time>2026-04-25T10:53:02Z</time></trkpt><trkpt lat="43.5750363216541" lon="11.899337845650015"><ele>607.8</ele><time>2026-04-25T10:53:03Z</time></trkpt><trkpt lat="43.57491498061657" lon="11.899360694297085"><ele>607.5999999999999</ele><time>2026-04-25T10:53:04Z</time></trkpt><trkpt lat="43.574799438202035" lon="11.899396378411327"><ele>607.4000000000001</ele><time>2026-04-25T10:53:05Z</time></trkpt><trkpt lat="43.57472142571925" lon="11.899414924118783"><ele>607.2</ele><time>2026-04-25T10:53:06Z</time></trkpt><trkpt lat="43.574623081417414" lon="11.899448350565121"><ele>607.0</ele><time>2026-04-25T10:53:12Z</time></trkpt><trkpt lat="43.5745460765421" lon="11.89946002868293"><ele>606.6</ele><time>2026-04-25T10:53:13Z</time></trkpt><trkpt lat="43.57447917216503" lon="11.899492149763171"><ele>606.2</ele><time>2026-04-25T10:53:14Z</time></trkpt><trkpt lat="43.574381826973635" lon="11.899537457409759"><ele>605.8</ele><time>2026-04-25T10:53:16Z</time></trkpt><trkpt lat="43.57429641865137" lon="11.899546259578672"><ele>605.4</ele><time>2026-04-25T10:53:17Z</time></trkpt><trkpt lat="43.57420191317047" lon="11.899519913938233"><ele>605.0</ele><time>2026-04-25T10:53:18Z</time></trkpt><trkpt lat="43.57410046877034" lon="11.899477336525468"><ele>605.0</ele><time>2026-04-25T10:53:19Z</time></trkpt><trkpt lat="43.57401717889692" lon="11.899467520246283"><ele>605.0</ele><time>2026-04-25T10:53:20Z</time></trkpt><trkpt lat="43.57391808248317" lon="11.899469982938825"><ele>605.0</ele><time>2026-04-25T10:53:21Z</time></trkpt><trkpt lat="43.573813033252506" lon="11.899480831142371"><ele>605.0</ele><time>2026-04-25T10:53:22Z</time></trkpt><trkpt lat="43.5736938928396" lon="11.89951381429237"><ele>605.0</ele><time>2026-04-25T10:53:23Z</time></trkpt><trkpt lat="43.573583470708634" lon="11.899528575982277"><ele>605.3333333333333</ele><time>2026-04-25T10:53:24Z</time></trkpt><trkpt lat="43.573516828085324" lon="11.899507594528313"><ele>605.6666666666666</ele><time>2026-04-25T10:53:25Z</time></trkpt><trkpt lat="43.57344190929522" lon="11.899442144560904"><ele>606.0</ele><time>2026-04-25T10:53:26Z</time></trkpt><trkpt lat="43.573364463096574" lon="11.899361662593986"><ele>606.3333333333334</ele><time>2026-04-25T10:53:27Z</time></trkpt><trkpt lat="43.57332164365832" lon="11.8992839143313"><ele>606.6666666666667</ele><time>2026-04-25T10:53:28Z</time></trkpt><trkpt lat="43.573283270830984" lon="11.899185405375249"><ele>607.0</ele><time>2026-04-25T10:53:29Z</time></trkpt><trkpt lat="43.5732260584711" lon="11.899071966568293"><ele>607.0</ele><time>2026-04-25T10:53:30Z</time></trkpt><trkpt lat="43.57314636193175" lon="11.898985725722227"><ele>607.0</ele><time>2026-04-25T10:53:31Z</time></trkpt><trkpt lat="43.57306971986251" lon="11.89892233777222"><ele>607.0</ele><time>2026-04-25T10:53:32Z</time></trkpt><trkpt lat="43.57301086677254" lon="11.898879737700364"><ele>607.0</ele><time>2026-04-25T10:53:33Z</time></trkpt><trkpt lat="43.57294037786899" lon="11.898894498684774"><ele>607.0</ele><time>2026-04-25T10:53:38Z</time></trkpt><trkpt lat="43.572863190157584" lon="11.898864007179618"><ele>607.0</ele><time>2026-04-25T10:53:40Z</time></trkpt><trkpt lat="43.57274431946011" lon="11.898796803597595"><ele>608.0</ele><time>2026-04-25T10:53:42Z</time></trkpt><trkpt lat="43.57267629705165" lon="11.898753172108991"><ele>609.0</ele><time>2026-04-25T10:53:43Z</time></trkpt><trkpt lat="43.57260154706239" lon="11.898718320607154"><ele>610.0</ele><time>2026-04-25T10:53:44Z</time></trkpt><trkpt lat="43.57252442350239" lon="11.898686620768848"><ele>611.0</ele><time>2026-04-25T10:53:45Z</time></trkpt><trkpt lat="43.5724341738407" lon="11.898671158017503"><ele>612.0</ele><time>2026-04-25T10:53:46Z</time></trkpt><trkpt lat="43.57234848968627" lon="11.898673721689125"><ele>613.0</ele><time>2026-04-25T10:53:47Z</time></trkpt><trkpt lat="43.572232391735525" lon="11.898756790559267"><ele>613.0</ele><time>2026-04-25T10:53:49Z</time></trkpt><trkpt lat="43.57214469925295" lon="11.898794265525517"><ele>613.0</ele><time>2026-04-25T10:53:50Z</time></trkpt><trkpt lat="43.572063168464425" lon="11.898799108100476"><ele>613.0</ele><time>2026-04-25T10:53:51Z</time></trkpt><trkpt lat="43.57192764106873" lon="11.89875383480712"><ele>613.0</ele><time>2026-04-25T10:53:53Z</time></trkpt><trkpt lat="43.57186501750643" lon="11.89870415415603"><ele>613.0</ele><time>2026-04-25T10:53:54Z</time></trkpt><trkpt lat="43.57175038815917" lon="11.89865534164286"><ele>614.75</ele><time>2026-04-25T10:53:56Z</time></trkpt><trkpt lat="43.57165790952331" lon="11.89865575509007"><ele>616.5</ele><time>2026-04-25T10:53:57Z</time></trkpt><trkpt lat="43.57156206531338" lon="11.898647856148708"><ele>618.25</ele><time>2026-04-25T10:53:58Z</time></trkpt><trkpt lat="43.57143584116361" lon="11.898657157144118"><ele>620.0</ele><time>2026-04-25T10:54:00Z</time></trkpt><trkpt lat="43.571293792959516" lon="11.89858280011642"><ele>620.0</ele><time>2026-04-25T10:54:02Z</time></trkpt><trkpt lat="43.57122505747263" lon="11.89849897922025"><ele>620.0</ele><time>2026-04-25T10:54:03Z</time></trkpt><trkpt lat="43.57114467737474" lon="11.898430346452987"><ele>620.0</ele><time>2026-04-25T10:54:04Z</time></trkpt><trkpt lat="43.57105686817741" lon="11.898380967476756"><ele>620.0</ele><time>2026-04-25T10:54:05Z</time></trkpt><trkpt lat="43.57099322265761" lon="11.898355155667948"><ele>620.0</ele><time>2026-04-25T10:54:06Z</time></trkpt><trkpt lat="43.57090294845019" lon="11.898336275392523"><ele>620.0</ele><time>2026-04-25T10:54:08Z</time></trkpt><trkpt lat="43.57086098742549" lon="11.898440066648554"><ele>618.6</ele><time>2026-04-25T10:54:22Z</time></trkpt><trkpt lat="43.57081574136968" lon="11.898553701586069"><ele>617.2</ele><time>2026-04-25T10:54:23Z</time></trkpt><trkpt lat="43.57077111905189" lon="11.898695993848634"><ele>615.8</ele><time>2026-04-25T10:54:24Z</time></trkpt><trkpt lat="43.570738374531544" lon="11.898819663857504"><ele>614.4</ele><time>2026-04-25T10:54:25Z</time></trkpt><trkpt lat="43.57074110684334" lon="11.898925411413277"><ele>613.0</ele><time>2026-04-25T10:54:26Z</time></trkpt><trkpt lat="43.57076250387603" lon="11.899077311974462"><ele>613.0</ele><time>2026-04-25T10:54:27Z</time></trkpt><trkpt lat="43.57079040502692" lon="11.89924411504546"><ele>613.0</ele><time>2026-04-25T10:54:28Z</time></trkpt><trkpt lat="43.57077007314823" lon="11.899374334436425"><ele>613.0</ele><time>2026-04-25T10:54:29Z</time></trkpt><trkpt lat="43.57073570253236" lon="11.899452637662451"><ele>613.0</ele><time>2026-04-25T10:54:30Z</time></trkpt><trkpt lat="43.57066590816312" lon="11.899531001647173"><ele>613.0</ele><time>2026-04-25T10:54:31Z</time></trkpt><trkpt lat="43.570569835225086" lon="11.899598627800446"><ele>613.0</ele><time>2026-04-25T10:54:32Z</time></trkpt><trkpt lat="43.57048911236364" lon="11.899622937768704"><ele>613.0</ele><time>2026-04-25T10:54:33Z</time></trkpt><trkpt lat="43.570402076494794" lon="11.899657658396839"><ele>613.0</ele><time>2026-04-25T10:54:34Z</time></trkpt><trkpt lat="43.57030834430308" lon="11.899673554077946"><ele>613.0</ele><time>2026-04-25T10:54:35Z</time></trkpt><trkpt lat="43.57022973656796" lon="11.89970040641526"><ele>613.0</ele><time>2026-04-25T10:54:36Z</time></trkpt><trkpt lat="43.570156532637455" lon="11.899723070879201"><ele>613.0</ele><time>2026-04-25T10:54:37Z</time></trkpt><trkpt lat="43.570075507821215" lon="11.899659534267625"><ele>607.4</ele><time>2026-04-25T10:54:39Z</time></trkpt><trkpt lat="43.57011928191736" lon="11.899583109128365"><ele>601.8</ele><time>2026-04-25T10:54:41Z</time></trkpt><trkpt lat="43.57017403939387" lon="11.899455032901262"><ele>596.2</ele><time>2026-04-25T10:54:44Z</time></trkpt><trkpt lat="43.57020260555702" lon="11.899322158143503"><ele>590.6</ele><time>2026-04-25T10:54:45Z</time></trkpt><trkpt lat="43.57021937752214" lon="11.899159299168836"><ele>585.0</ele><time>2026-04-25T10:54:46Z</time></trkpt><trkpt lat="43.570222714755396" lon="11.899018848200567"><ele>585.0</ele><time>2026-04-25T10:54:47Z</time></trkpt><trkpt lat="43.570215005966105" lon="11.898896286741547"><ele>585.0</ele><time>2026-04-25T10:54:48Z</time></trkpt><trkpt lat="43.570180920219194" lon="11.89881655483359"><ele>585.0</ele><time>2026-04-25T10:54:49Z</time></trkpt><trkpt lat="43.570110935167655" lon="11.898729256643765"><ele>585.0</ele><time>2026-04-25T10:54:50Z</time></trkpt><trkpt lat="43.57005216991676" lon="11.898680349965781"><ele>585.0</ele><time>2026-04-25T10:54:51Z</time></trkpt><trkpt lat="43.56997502815305" lon="11.898669924911143"><ele>585.0</ele><time>2026-04-25T10:54:52Z</time></trkpt><trkpt lat="43.56989003839861" lon="11.89866663559225"><ele>585.0</ele><time>2026-04-25T10:54:53Z</time></trkpt><trkpt lat="43.56978377781045" lon="11.898654097491276"><ele>585.0</ele><time>2026-04-25T10:54:54Z</time></trkpt><trkpt lat="43.56966289350691" lon="11.898658596340653"><ele>585.0</ele><time>2026-04-25T10:54:55Z</time></trkpt><trkpt lat="43.569562563915845" lon="11.898649656422831"><ele>585.0</ele><time>2026-04-25T10:54:56Z</time></trkpt><trkpt lat="43.569491050327784" lon="11.898634050477574"><ele>585.0</ele><time>2026-04-25T10:54:57Z</time></trkpt><trkpt lat="43.569430325552595" lon="11.898577416037272"><ele>581.6</ele><time>2026-04-25T10:55:00Z</time></trkpt><trkpt lat="43.569365160913364" lon="11.898545170710793"><ele>578.2</ele><time>2026-04-25T10:55:01Z</time></trkpt><trkpt lat="43.56927909016985" lon="11.898508639502973"><ele>574.8</ele><time>2026-04-25T10:55:02Z</time></trkpt><trkpt lat="43.56919490143272" lon="11.89850124422486"><ele>571.4</ele><time>2026-04-25T10:55:03Z</time></trkpt><trkpt lat="43.569093193248605" lon="11.898519531680934"><ele>568.0</ele><time>2026-04-25T10:55:04Z</time></trkpt><trkpt lat="43.568975277078735" lon="11.898552704282906"><ele>568.0</ele><time>2026-04-25T10:55:05Z</time></trkpt><trkpt lat="43.56883877690778" lon="11.898597754038777"><ele>568.0</ele><time>2026-04-25T10:55:06Z</time></trkpt><trkpt lat="43.56871022976705" lon="11.898631061740897"><ele>568.0</ele><time>2026-04-25T10:55:07Z</time></trkpt><trkpt lat="43.56858654787634" lon="11.8986742632822"><ele>568.0</ele><time>2026-04-25T10:55:08Z</time></trkpt><trkpt lat="43.568493059332624" lon="11.898692698681874"><ele>568.3333333333334</ele><time>2026-04-25T10:55:09Z</time></trkpt><trkpt lat="43.56841975730112" lon="11.898735202774233"><ele>568.6666666666667</ele><time>2026-04-25T10:55:10Z</time></trkpt><trkpt lat="43.56837892389406" lon="11.898812314991128"><ele>569.0</ele><time>2026-04-25T10:55:11Z</time></trkpt><trkpt lat="43.568440414717216" lon="11.898910209142063"><ele>569.3333333333334</ele><time>2026-04-25T10:55:21Z</time></trkpt><trkpt lat="43.56839256287945" lon="11.899058406335422"><ele>569.6666666666666</ele><time>2026-04-25T10:55:23Z</time></trkpt><trkpt lat="43.56837623681793" lon="11.899162387240997"><ele>570.0</ele><time>2026-04-25T10:55:24Z</time></trkpt><trkpt lat="43.568342759238504" lon="11.899246865437142"><ele>567.8</ele><time>2026-04-25T10:55:26Z</time></trkpt><trkpt lat="43.56830579194003" lon="11.89936827757946"><ele>565.6</ele><time>2026-04-25T10:55:34Z</time></trkpt><trkpt lat="43.568277685500526" lon="11.899448340007408"><ele>563.4</ele><time>2026-04-25T10:55:35Z</time></trkpt><trkpt lat="43.56824667018804" lon="11.899550462603846"><ele>561.2</ele><time>2026-04-25T10:55:36Z</time></trkpt><trkpt lat="43.56822353341273" lon="11.899696199341292"><ele>559.0</ele><time>2026-04-25T10:55:37Z</time></trkpt><trkpt lat="43.56823104990252" lon="11.899838267661643"><ele>559.0</ele><time>2026-04-25T10:55:38Z</time></trkpt><trkpt lat="43.568245753975184" lon="11.89992660301085"><ele>559.0</ele><time>2026-04-25T10:55:39Z</time></trkpt><trkpt lat="43.568158195543184" lon="11.90007181866094"><ele>559.0</ele><time>2026-04-25T10:55:41Z</time></trkpt><trkpt lat="43.568091508858544" lon="11.9001595733179"><ele>559.0</ele><time>2026-04-25T10:55:42Z</time></trkpt><trkpt lat="43.568004552418344" lon="11.900247451222231"><ele>559.0</ele><time>2026-04-25T10:55:43Z</time></trkpt><trkpt lat="43.56793153467845" lon="11.900290351723298"><ele>557.0</ele><time>2026-04-25T10:55:44Z</time></trkpt><trkpt lat="43.567813470359795" lon="11.900308288733084"><ele>555.0</ele><time>2026-04-25T10:55:46Z</time></trkpt><trkpt lat="43.567743533202865" lon="11.900329898353585"><ele>553.0</ele><time>2026-04-25T10:55:47Z</time></trkpt><trkpt lat="43.56766878745114" lon="11.900390989375866"><ele>551.0</ele><time>2026-04-25T10:55:48Z</time></trkpt><trkpt lat="43.56759535765826" lon="11.900471164272972"><ele>549.0</ele><time>2026-04-25T10:55:49Z</time></trkpt><trkpt lat="43.56752414915099" lon="11.900567010065119"><ele>549.0</ele><time>2026-04-25T10:55:50Z</time></trkpt><trkpt lat="43.567444539712014" lon="11.90067623505739"><ele>549.0</ele><time>2026-04-25T10:55:51Z</time></trkpt><trkpt lat="43.56735592339271" lon="11.900781809557209"><ele>549.0</ele><time>2026-04-25T10:55:52Z</time></trkpt><trkpt lat="43.5672786655771" lon="11.90082817862094"><ele>549.0</ele><time>2026-04-25T10:55:53Z</time></trkpt><trkpt lat="43.56718884830289" lon="11.900819706909541"><ele>549.0</ele><time>2026-04-25T10:55:54Z</time></trkpt><trkpt lat="43.56706959435183" lon="11.90078716561574"><ele>549.0</ele><time>2026-04-25T10:55:55Z</time></trkpt><trkpt lat="43.566953267236755" lon="11.900797206768063"><ele>549.0</ele><time>2026-04-25T10:55:56Z</time></trkpt><trkpt lat="43.56684842489138" lon="11.900814506416838"><ele>549.0</ele><time>2026-04-25T10:55:57Z</time></trkpt><trkpt lat="43.56673281273289" lon="11.90080496488988"><ele>549.0</ele><time>2026-04-25T10:55:58Z</time></trkpt><trkpt lat="43.56662139244603" lon="11.900781604714952"><ele>549.0</ele><time>2026-04-25T10:55:59Z</time></trkpt><trkpt lat="43.56653346411533" lon="11.90075382429278"><ele>549.0</ele><time>2026-04-25T10:56:00Z</time></trkpt><trkpt lat="43.56642779404832" lon="11.900670733523778"><ele>549.0</ele><time>2026-04-25T10:56:01Z</time></trkpt><trkpt lat="43.566347946133995" lon="11.900577197060707"><ele>549.0</ele><time>2026-04-25T10:56:02Z</time></trkpt><trkpt lat="43.5663047289547" lon="11.900513111901171"><ele>549.0</ele><time>2026-04-25T10:56:03Z</time></trkpt><trkpt lat="43.56625707582262" lon="11.900425235699005"><ele>549.0</ele><time>2026-04-25T10:56:04Z</time></trkpt><trkpt lat="43.56622136401201" lon="11.90034094798029"><ele>549.0</ele><time>2026-04-25T10:56:10Z</time></trkpt><trkpt lat="43.56618316817883" lon="11.900256649534073"><ele>549.0</ele><time>2026-04-25T10:56:11Z</time></trkpt><trkpt lat="43.56612076111524" lon="11.900143893403277"><ele>549.0</ele><time>2026-04-25T10:56:12Z</time></trkpt><trkpt lat="43.566071757959165" lon="11.900064298763654"><ele>549.0</ele><time>2026-04-25T10:56:13Z</time></trkpt><trkpt lat="43.56601573776416" lon="11.90001650570301"><ele>549.0</ele><time>2026-04-25T10:56:14Z</time></trkpt><trkpt lat="43.565920229773" lon="11.899973381542145"><ele>549.5</ele><time>2026-04-25T10:56:16Z</time></trkpt><trkpt lat="43.5658430255459" lon="11.899855095112668"><ele>550.0</ele><time>2026-04-25T10:56:20Z</time></trkpt><trkpt lat="43.56578980842433" lon="11.899786165415081"><ele>550.5</ele><time>2026-04-25T10:56:21Z</time></trkpt><trkpt lat="43.56572683322879" lon="11.89973551442286"><ele>551.0</ele><time>2026-04-25T10:56:23Z</time></trkpt><trkpt lat="43.56566692841219" lon="11.899771521197493"><ele>551.5</ele><time>2026-04-25T10:56:26Z</time></trkpt><trkpt lat="43.56562307061697" lon="11.89983561956958"><ele>552.0</ele><time>2026-04-25T10:56:27Z</time></trkpt><trkpt lat="43.56555797816987" lon="11.899935954685516"><ele>552.0</ele><time>2026-04-25T10:56:29Z</time></trkpt><trkpt lat="43.56550563288122" lon="11.90000124379701"><ele>552.0</ele><time>2026-04-25T10:56:30Z</time></trkpt><trkpt lat="43.565448117873395" lon="11.900064341305635"><ele>552.0</ele><time>2026-04-25T10:56:31Z</time></trkpt><trkpt lat="43.56537534867687" lon="11.900089000802035"><ele>552.0</ele><time>2026-04-25T10:56:32Z</time></trkpt><trkpt lat="43.565268917098194" lon="11.900099189061235"><ele>552.0</ele><time>2026-04-25T10:56:33Z</time></trkpt><trkpt lat="43.56516509914164" lon="11.90014454200469"><ele>552.0</ele><time>2026-04-25T10:56:34Z</time></trkpt><trkpt lat="43.56505411756569" lon="11.90021203496001"><ele>552.3333333333334</ele><time>2026-04-25T10:56:35Z</time></trkpt><trkpt lat="43.56498179913321" lon="11.900300738189463"><ele>552.6666666666666</ele><time>2026-04-25T10:56:36Z</time></trkpt><trkpt lat="43.56495107108884" lon="11.900427632859998"><ele>553.0</ele><time>2026-04-25T10:56:37Z</time></trkpt><trkpt lat="43.564909819696" lon="11.900542811784844"><ele>553.3333333333333</ele><time>2026-04-25T10:56:38Z</time></trkpt><trkpt lat="43.56484709178555" lon="11.900598906661557"><ele>553.6666666666666</ele><time>2026-04-25T10:56:39Z</time></trkpt><trkpt lat="43.56479633036934" lon="11.900666725946948"><ele>554.0</ele><time>2026-04-25T10:56:40Z</time></trkpt><trkpt lat="43.56479194157308" lon="11.900820183400072"><ele>554.0</ele><time>2026-04-25T10:56:42Z</time></trkpt><trkpt lat="43.56477729247457" lon="11.900905710465558"><ele>554.0</ele><time>2026-04-25T10:56:43Z</time></trkpt><trkpt lat="43.56478133256309" lon="11.901004342783072"><ele>554.0</ele><time>2026-04-25T10:56:44Z</time></trkpt><trkpt lat="43.56484429466204" lon="11.901099624754966"><ele>554.0</ele><time>2026-04-25T10:56:45Z</time></trkpt><trkpt lat="43.56490021428295" lon="11.901211199436897"><ele>554.0</ele><time>2026-04-25T10:56:46Z</time></trkpt><trkpt lat="43.564917034090556" lon="11.90131386069247"><ele>554.0</ele><time>2026-04-25T10:56:47Z</time></trkpt><trkpt lat="43.564918599789564" lon="11.901429125288992"><ele>554.2</ele><time>2026-04-25T10:56:48Z</time></trkpt><trkpt lat="43.564897206449594" lon="11.901538958884704"><ele>554.4</ele><time>2026-04-25T10:56:49Z</time></trkpt><trkpt lat="43.564850266293796" lon="11.901656161240282"><ele>554.6</ele><time>2026-04-25T10:56:50Z</time></trkpt><trkpt lat="43.5647043320719" lon="11.901725692158625"><ele>554.8</ele><time>2026-04-25T10:56:52Z</time></trkpt><trkpt lat="43.56460145771125" lon="11.90174467934657"><ele>555.0</ele><time>2026-04-25T10:56:53Z</time></trkpt><trkpt lat="43.564495708345206" lon="11.901751704156329"><ele>556.6</ele><time>2026-04-25T10:56:54Z</time></trkpt><trkpt lat="43.564407778894534" lon="11.901753328870583"><ele>558.2</ele><time>2026-04-25T10:56:55Z</time></trkpt><trkpt lat="43.56432455325995" lon="11.901761765106459"><ele>559.8</ele><time>2026-04-25T10:56:56Z</time></trkpt><trkpt lat="43.564209509551915" lon="11.90178398027007"><ele>561.4</ele><time>2026-04-25T10:56:57Z</time></trkpt><trkpt lat="43.564117068917014" lon="11.901811531108143"><ele>563.0</ele><time>2026-04-25T10:56:58Z</time></trkpt><trkpt lat="43.564055886530284" lon="11.901870893059714"><ele>563.0</ele><time>2026-04-25T10:57:11Z</time></trkpt><trkpt lat="43.564008036171046" lon="11.9019344022087"><ele>563.0</ele><time>2026-04-25T10:57:12Z</time></trkpt><trkpt lat="43.56394266703642" lon="11.902003556837698"><ele>563.0</ele><time>2026-04-25T10:57:13Z</time></trkpt><trkpt lat="43.56386956395811" lon="11.902061112445192"><ele>563.0</ele><time>2026-04-25T10:57:14Z</time></trkpt><trkpt lat="43.56379290951991" lon="11.902097241218964"><ele>563.0</ele><time>2026-04-25T10:57:15Z</time></trkpt><trkpt lat="43.56372432793081" lon="11.902140786900736"><ele>563.0</ele><time>2026-04-25T10:57:16Z</time></trkpt><trkpt lat="43.56357441799067" lon="11.902171440714978"><ele>563.4</ele><time>2026-04-25T10:57:18Z</time></trkpt><trkpt lat="43.563476986644844" lon="11.902262508958074"><ele>563.8</ele><time>2026-04-25T10:57:19Z</time></trkpt><trkpt lat="43.563394883840566" lon="11.902374610674222"><ele>564.2</ele><time>2026-04-25T10:57:20Z</time></trkpt><trkpt lat="43.56333575321278" lon="11.902451485526841"><ele>564.6</ele><time>2026-04-25T10:57:21Z</time></trkpt><trkpt lat="43.563265491434386" lon="11.902499323758406"><ele>565.0</ele><time>2026-04-25T10:57:22Z</time></trkpt><trkpt lat="43.56317434888075" lon="11.90253023589189"><ele>565.0</ele><time>2026-04-25T10:57:23Z</time></trkpt><trkpt lat="43.56310232197597" lon="11.902571809646243"><ele>565.0</ele><time>2026-04-25T10:57:24Z</time></trkpt><trkpt lat="43.56308027479648" lon="11.902655568628905"><ele>565.0</ele><time>2026-04-25T10:57:25Z</time></trkpt><trkpt lat="43.56303237331465" lon="11.902773269789517"><ele>565.0</ele><time>2026-04-25T10:57:27Z</time></trkpt><trkpt lat="43.56305623023117" lon="11.902959115268429"><ele>565.0</ele><time>2026-04-25T10:57:29Z</time></trkpt><trkpt lat="43.5631014094451" lon="11.903050072507002"><ele>564.5</ele><time>2026-04-25T10:57:30Z</time></trkpt><trkpt lat="43.56310032879547" lon="11.903161163284913"><ele>564.0</ele><time>2026-04-25T10:57:31Z</time></trkpt><trkpt lat="43.56305840896485" lon="11.903290993678945"><ele>563.5</ele><time>2026-04-25T10:57:32Z</time></trkpt><trkpt lat="43.56303124286787" lon="11.903439637594973"><ele>563.0</ele><time>2026-04-25T10:57:33Z</time></trkpt><trkpt lat="43.563032759209484" lon="11.903532883565491"><ele>562.5</ele><time>2026-04-25T10:57:34Z</time></trkpt><trkpt lat="43.5630000008501" lon="11.903630636946945"><ele>562.0</ele><time>2026-04-25T10:57:39Z</time></trkpt><trkpt lat="43.562851866027884" lon="11.903600937653316"><ele>562.0</ele><time>2026-04-25T10:57:41Z</time></trkpt><trkpt lat="43.56275220115291" lon="11.903563429825065"><ele>562.0</ele><time>2026-04-25T10:57:42Z</time></trkpt><trkpt lat="43.56264337261457" lon="11.903535598587807"><ele>562.0</ele><time>2026-04-25T10:57:43.001Z</time></trkpt><trkpt lat="43.56254655031861" lon="11.90351972558231"><ele>562.0</ele><time>2026-04-25T10:57:44.001Z</time></trkpt><trkpt lat="43.5624473906065" lon="11.903504853546433"><ele>562.0</ele><time>2026-04-25T10:57:45.001Z</time></trkpt><trkpt lat="43.5623427552249" lon="11.903497499149745"><ele>562.0</ele><time>2026-04-25T10:57:46.001Z</time></trkpt><trkpt lat="43.562258796872996" lon="11.90349438104626"><ele>562.0</ele><time>2026-04-25T10:57:47.001Z</time></trkpt><trkpt lat="43.56218789400077" lon="11.903487877955305"><ele>562.0</ele><time>2026-04-25T10:57:48.001Z</time></trkpt><trkpt lat="43.562093403042105" lon="11.903495887178204"><ele>562.0</ele><time>2026-04-25T10:57:50.001Z</time></trkpt><trkpt lat="43.56200864370658" lon="11.903500898168096"><ele>562.0</ele><time>2026-04-25T10:57:55.001Z</time></trkpt><trkpt lat="43.56184576914546" lon="11.903534982288486"><ele>558.4</ele><time>2026-04-25T10:57:57.001Z</time></trkpt><trkpt lat="43.56173127840104" lon="11.903548262900472"><ele>554.8000000000001</ele><time>2026-04-25T10:57:58.001Z</time></trkpt><trkpt lat="43.5616431425249" lon="11.903560099057607"><ele>551.2</ele><time>2026-04-25T10:57:59.001Z</time></trkpt><trkpt lat="43.56157377127575" lon="11.903618854805183"><ele>547.6</ele><time>2026-04-25T10:58:00.001Z</time></trkpt><trkpt lat="43.56153235871251" lon="11.903745766574918"><ele>544.0</ele><time>2026-04-25T10:58:01.001Z</time></trkpt><trkpt lat="43.56147951731869" lon="11.903885938627505"><ele>544.0</ele><time>2026-04-25T10:58:02.001Z</time></trkpt><trkpt lat="43.56145242943577" lon="11.904020943834594"><ele>544.0</ele><time>2026-04-25T10:58:03.001Z</time></trkpt><trkpt lat="43.56144277775615" lon="11.904126073111192"><ele>544.0</ele><time>2026-04-25T10:58:04.001Z</time></trkpt><trkpt lat="43.561420061410885" lon="11.904223345341327"><ele>544.0</ele><time>2026-04-25T10:58:05.001Z</time></trkpt><trkpt lat="43.56137374310382" lon="11.904303064995162"><ele>544.0</ele><time>2026-04-25T10:58:06.001Z</time></trkpt><trkpt lat="43.561297529898724" lon="11.90440278326666"><ele>544.0</ele><time>2026-04-25T10:58:07.001Z</time></trkpt><trkpt lat="43.56120824896029" lon="11.904507025985346"><ele>544.1666666666667</ele><time>2026-04-25T10:58:08.001Z</time></trkpt><trkpt lat="43.561152963016994" lon="11.904569487535676"><ele>544.3333333333334</ele><time>2026-04-25T10:58:09.001Z</time></trkpt><trkpt lat="43.561040133323054" lon="11.904551261075682"><ele>544.5</ele><time>2026-04-25T10:58:11.001Z</time></trkpt><trkpt lat="43.56097320880779" lon="11.90450237325666"><ele>544.6666666666666</ele><time>2026-04-25T10:58:12.001Z</time></trkpt><trkpt lat="43.560901824959856" lon="11.904508385071644"><ele>544.8333333333333</ele><time>2026-04-25T10:58:13.001Z</time></trkpt><trkpt lat="43.56084016405087" lon="11.904541696285323"><ele>545.0</ele><time>2026-04-25T10:58:14.001Z</time></trkpt><trkpt lat="43.560845330968924" lon="11.90464113885628"><ele>545.0</ele><time>2026-04-25T10:58:18.001Z</time></trkpt><trkpt lat="43.560978390713174" lon="11.90464534216444"><ele>545.0</ele><time>2026-04-25T10:58:20Z</time></trkpt><trkpt lat="43.561048244439476" lon="11.904678011966563"><ele>545.0</ele><time>2026-04-25T10:58:21Z</time></trkpt><trkpt lat="43.56107953198525" lon="11.9047614475622"><ele>545.0</ele><time>2026-04-25T10:58:29Z</time></trkpt><trkpt lat="43.56101305754494" lon="11.90485332910555"><ele>545.0</ele><time>2026-04-25T10:58:32Z</time></trkpt><trkpt lat="43.560938380014534" lon="11.90497215997543"><ele>545.0</ele><time>2026-04-25T10:58:34Z</time></trkpt><trkpt lat="43.56090173486232" lon="11.905055363964383"><ele>545.0</ele><time>2026-04-25T10:58:35Z</time></trkpt><trkpt lat="43.56085524901411" lon="11.905139823902527"><ele>545.0</ele><time>2026-04-25T10:58:36Z</time></trkpt><trkpt lat="43.560800838179695" lon="11.905220640545885"><ele>545.0</ele><time>2026-04-25T10:58:37Z</time></trkpt><trkpt lat="43.56073941133459" lon="11.905277450731429"><ele>545.0</ele><time>2026-04-25T10:58:38Z</time></trkpt><trkpt lat="43.56067754285904" lon="11.905311039962086"><ele>545.0</ele><time>2026-04-25T10:58:39Z</time></trkpt><trkpt lat="43.56060740593199" lon="11.905366616286406"><ele>545.0</ele><time>2026-04-25T10:58:40Z</time></trkpt><trkpt lat="43.56054362438568" lon="11.905430556918347"><ele>548.1666666666666</ele><time>2026-04-25T10:58:41Z</time></trkpt><trkpt lat="43.560484063176276" lon="11.905574235790288"><ele>551.3333333333333</ele><time>2026-04-25T10:58:43Z</time></trkpt><trkpt lat="43.56047422625737" lon="11.9056907751102"><ele>554.5</ele><time>2026-04-25T10:58:44Z</time></trkpt><trkpt lat="43.56046920128066" lon="11.905796462125888"><ele>557.6666666666666</ele><time>2026-04-25T10:58:45Z</time></trkpt><trkpt lat="43.56049196944353" lon="11.90587988131773"><ele>560.8333333333334</ele><time>2026-04-25T10:58:46Z</time></trkpt><trkpt lat="43.56055115007011" lon="11.905952342584069"><ele>564.0</ele><time>2026-04-25T10:58:47Z</time></trkpt><trkpt lat="43.56061530212059" lon="11.906030238272377"><ele>564.5</ele><time>2026-04-25T10:58:48Z</time></trkpt><trkpt lat="43.56068068144477" lon="11.906108951818112"><ele>565.0</ele><time>2026-04-25T10:58:49Z</time></trkpt><trkpt lat="43.56074263078658" lon="11.906190858629099"><ele>565.5</ele><time>2026-04-25T10:58:50Z</time></trkpt><trkpt lat="43.56079337690691" lon="11.906264419564272"><ele>566.0</ele><time>2026-04-25T10:58:51Z</time></trkpt><trkpt lat="43.560841402941044" lon="11.906375569233276"><ele>566.5</ele><time>2026-04-25T10:58:52Z</time></trkpt><trkpt lat="43.560878027906476" lon="11.906513125802931"><ele>567.0</ele><time>2026-04-25T10:58:53Z</time></trkpt><trkpt lat="43.560924025566585" lon="11.9066339900582"><ele>567.0</ele><time>2026-04-25T10:58:54Z</time></trkpt><trkpt lat="43.560978616501664" lon="11.906725684637756"><ele>567.0</ele><time>2026-04-25T10:58:55Z</time></trkpt><trkpt lat="43.56103176498895" lon="11.906837752914612"><ele>567.0</ele><time>2026-04-25T10:58:56Z</time></trkpt><trkpt lat="43.56104749810131" lon="11.906970912974323"><ele>567.0</ele><time>2026-04-25T10:58:57Z</time></trkpt><trkpt lat="43.56103640072084" lon="11.90712038849734"><ele>567.0</ele><time>2026-04-25T10:58:58Z</time></trkpt><trkpt lat="43.5610471226213" lon="11.907249918789917"><ele>567.0</ele><time>2026-04-25T10:58:59Z</time></trkpt><trkpt lat="43.56106782528242" lon="11.907346413557756"><ele>567.0</ele><time>2026-04-25T10:59:00Z</time></trkpt><trkpt lat="43.56109853907459" lon="11.907433670880243"><ele>567.0</ele><time>2026-04-25T10:59:01Z</time></trkpt><trkpt lat="43.56114977140942" lon="11.907551284414494"><ele>567.0</ele><time>2026-04-25T10:59:02Z</time></trkpt><trkpt lat="43.561228918516505" lon="11.907656101339303"><ele>567.0</ele><time>2026-04-25T10:59:03Z</time></trkpt><trkpt lat="43.561304625302796" lon="11.907785155570991"><ele>566.25</ele><time>2026-04-25T10:59:04Z</time></trkpt><trkpt lat="43.56135172075801" lon="11.907926374183813"><ele>565.5</ele><time>2026-04-25T10:59:05Z</time></trkpt><trkpt lat="43.561396221287076" lon="11.908081025106295"><ele>564.75</ele><time>2026-04-25T10:59:06Z</time></trkpt><trkpt lat="43.56145004108047" lon="11.908222674971643"><ele>564.0</ele><time>2026-04-25T10:59:07Z</time></trkpt><trkpt lat="43.56147291552777" lon="11.9083631503031"><ele>563.6</ele><time>2026-04-25T10:59:08Z</time></trkpt><trkpt lat="43.56150284228119" lon="11.908451330586853"><ele>563.2</ele><time>2026-04-25T10:59:09Z</time></trkpt><trkpt lat="43.561598091879176" lon="11.908480962875883"><ele>562.8000000000001</ele><time>2026-04-25T10:59:10Z</time></trkpt><trkpt lat="43.561709686796256" lon="11.908523174419448"><ele>562.4</ele><time>2026-04-25T10:59:11Z</time></trkpt><trkpt lat="43.56176154796071" lon="11.908630403720718"><ele>562.0</ele><time>2026-04-25T10:59:12Z</time></trkpt><trkpt lat="43.561775174034466" lon="11.90878838326742"><ele>562.0</ele><time>2026-04-25T10:59:13Z</time></trkpt><trkpt lat="43.56180150400599" lon="11.908952052930488"><ele>562.0</ele><time>2026-04-25T10:59:14Z</time></trkpt><trkpt lat="43.56186891921328" lon="11.909065331111108"><ele>562.0</ele><time>2026-04-25T10:59:15Z</time></trkpt><trkpt lat="43.561947348318384" lon="11.909196582770521"><ele>562.0</ele><time>2026-04-25T10:59:16Z</time></trkpt><trkpt lat="43.56201674070424" lon="11.909282315880265"><ele>562.0</ele><time>2026-04-25T10:59:17Z</time></trkpt><trkpt lat="43.5620864340092" lon="11.909325711968517"><ele>559.8000000000001</ele><time>2026-04-25T10:59:18Z</time></trkpt><trkpt lat="43.5620853883243" lon="11.909527530310628"><ele>557.6</ele><time>2026-04-25T10:59:20Z</time></trkpt><trkpt lat="43.5620560560806" lon="11.90970255305831"><ele>555.4000000000001</ele><time>2026-04-25T10:59:21Z</time></trkpt><trkpt lat="43.56208722579739" lon="11.909780177608035"><ele>553.2</ele><time>2026-04-25T10:59:22Z</time></trkpt><trkpt lat="43.562153677429954" lon="11.909863600222108"><ele>551.0</ele><time>2026-04-25T10:59:23Z</time></trkpt><trkpt lat="43.56224923604804" lon="11.909955362841144"><ele>551.0</ele><time>2026-04-25T10:59:24Z</time></trkpt><trkpt lat="43.562336316089734" lon="11.910049239205492"><ele>551.0</ele><time>2026-04-25T10:59:25Z</time></trkpt><trkpt lat="43.56236598306173" lon="11.910129622721387"><ele>551.0</ele><time>2026-04-25T10:59:26Z</time></trkpt><trkpt lat="43.56237054302667" lon="11.910225464153593"><ele>551.0</ele><time>2026-04-25T10:59:27Z</time></trkpt><trkpt lat="43.56234682390447" lon="11.910348458289944"><ele>551.0</ele><time>2026-04-25T10:59:28Z</time></trkpt><trkpt lat="43.56233330363596" lon="11.910471034667388"><ele>551.0</ele><time>2026-04-25T10:59:29Z</time></trkpt><trkpt lat="43.56236432236866" lon="11.910558143361252"><ele>552.5</ele><time>2026-04-25T10:59:30Z</time></trkpt><trkpt lat="43.56243108372027" lon="11.910672950522775"><ele>554.0</ele><time>2026-04-25T10:59:31Z</time></trkpt><trkpt lat="43.56253698121663" lon="11.910812670719798"><ele>555.5</ele><time>2026-04-25T10:59:32Z</time></trkpt><trkpt lat="43.562634771027234" lon="11.910908989717747"><ele>557.0</ele><time>2026-04-25T10:59:33Z</time></trkpt><trkpt lat="43.56271392879326" lon="11.910998136819943"><ele>560.5</ele><time>2026-04-25T10:59:34Z</time></trkpt><trkpt lat="43.56277932906591" lon="11.911115469298315"><ele>564.0</ele><time>2026-04-25T10:59:35Z</time></trkpt><trkpt lat="43.56283566571678" lon="11.911250257009122"><ele>567.5</ele><time>2026-04-25T10:59:36Z</time></trkpt><trkpt lat="43.56288016398373" lon="11.911388122360785"><ele>571.0</ele><time>2026-04-25T10:59:37Z</time></trkpt><trkpt lat="43.56293539391039" lon="11.911553208586927"><ele>564.0</ele><time>2026-04-25T10:59:38Z</time></trkpt><trkpt lat="43.56300304331695" lon="11.911708697652498"><ele>557.0</ele><time>2026-04-25T10:59:39Z</time></trkpt><trkpt lat="43.563070325589116" lon="11.911864816850384"><ele>550.0</ele><time>2026-04-25T10:59:40Z</time></trkpt><trkpt lat="43.56311743195293" lon="11.912015592235917"><ele>543.0</ele><time>2026-04-25T10:59:41Z</time></trkpt><trkpt lat="43.56314240627538" lon="11.91214978844721"><ele>543.0</ele><time>2026-04-25T10:59:42Z</time></trkpt><trkpt lat="43.56316826354166" lon="11.912282268327353"><ele>543.0</ele><time>2026-04-25T10:59:43Z</time></trkpt><trkpt lat="43.56319048097535" lon="11.912404324391197"><ele>543.0</ele><time>2026-04-25T10:59:44Z</time></trkpt><trkpt lat="43.563243671907564" lon="11.912557996108664"><ele>543.0</ele><time>2026-04-25T10:59:45Z</time></trkpt><trkpt lat="43.56326220647153" lon="11.912710376385544"><ele>543.0</ele><time>2026-04-25T10:59:46Z</time></trkpt><trkpt lat="43.56329339984956" lon="11.912824354042547"><ele>543.4</ele><time>2026-04-25T10:59:47Z</time></trkpt><trkpt lat="43.56334373235747" lon="11.912933332506109"><ele>543.8</ele><time>2026-04-25T10:59:48Z</time></trkpt><trkpt lat="43.56337430516802" lon="11.913027932055039"><ele>544.2</ele><time>2026-04-25T10:59:49.001Z</time></trkpt><trkpt lat="43.563395772474095" lon="11.913165467722859"><ele>544.6</ele><time>2026-04-25T10:59:50.001Z</time></trkpt><trkpt lat="43.56345053108698" lon="11.913304925925601"><ele>545.0</ele><time>2026-04-25T10:59:51.001Z</time></trkpt><trkpt lat="43.563487509353244" lon="11.913445979729115"><ele>545.0</ele><time>2026-04-25T10:59:52.001Z</time></trkpt><trkpt lat="43.563519269179096" lon="11.913549794994672"><ele>545.0</ele><time>2026-04-25T10:59:53.001Z</time></trkpt><trkpt lat="43.563509912580365" lon="11.913680416127425"><ele>545.0</ele><time>2026-04-25T10:59:55.001Z</time></trkpt><trkpt lat="43.56348404690672" lon="11.913787268532703"><ele>545.0</ele><time>2026-04-25T10:59:56.001Z</time></trkpt><trkpt lat="43.56345030182624" lon="11.913915238240836"><ele>545.0</ele><time>2026-04-25T10:59:57.001Z</time></trkpt><trkpt lat="43.56339062618737" lon="11.913975464015339"><ele>545.0</ele><time>2026-04-25T10:59:58.001Z</time></trkpt><trkpt lat="43.56331671080269" lon="11.914008590248512"><ele>545.0</ele><time>2026-04-25T10:59:59.001Z</time></trkpt><trkpt lat="43.5631981721892" lon="11.914038457259517"><ele>545.0</ele><time>2026-04-25T11:00:01.001Z</time></trkpt><trkpt lat="43.56311516189607" lon="11.91407163834017"><ele>545.0</ele><time>2026-04-25T11:00:02.001Z</time></trkpt><trkpt lat="43.56300680189226" lon="11.914197121476167"><ele>545.0</ele><time>2026-04-25T11:00:04.001Z</time></trkpt><trkpt lat="43.5629552161099" lon="11.914274181984164"><ele>545.0</ele><time>2026-04-25T11:00:05.001Z</time></trkpt><trkpt lat="43.56286408001197" lon="11.914398286112434"><ele>545.0</ele><time>2026-04-25T11:00:07.001Z</time></trkpt><trkpt lat="43.562788388610784" lon="11.914473518362522"><ele>545.0</ele><time>2026-04-25T11:00:08.001Z</time></trkpt><trkpt lat="43.56269830430694" lon="11.91455458624796"><ele>545.0</ele><time>2026-04-25T11:00:09.001Z</time></trkpt><trkpt lat="43.562623153461985" lon="11.91458635317753"><ele>545.0</ele><time>2026-04-25T11:00:10.001Z</time></trkpt><trkpt lat="43.56256000495169" lon="11.91460234955251"><ele>545.0</ele><time>2026-04-25T11:00:11.001Z</time></trkpt><trkpt lat="43.56250258393336" lon="11.914670896523853"><ele>545.0</ele><time>2026-04-25T11:00:14.001Z</time></trkpt><trkpt lat="43.5625236665445" lon="11.914780500809435"><ele>545.0</ele><time>2026-04-25T11:00:25Z</time></trkpt><trkpt lat="43.562542280162376" lon="11.914866514047162"><ele>545.0</ele><time>2026-04-25T11:00:26Z</time></trkpt><trkpt lat="43.56259684995149" lon="11.914959501806365"><ele>545.0</ele><time>2026-04-25T11:00:28Z</time></trkpt><trkpt lat="43.56268397374057" lon="11.914961110621833"><ele>545.0</ele><time>2026-04-25T11:00:35Z</time></trkpt><trkpt lat="43.562759771912724" lon="11.914964211901879"><ele>545.0</ele><time>2026-04-25T11:00:36Z</time></trkpt><trkpt lat="43.562819707153906" lon="11.91500388137751"><ele>545.0</ele><time>2026-04-25T11:00:37Z</time></trkpt><trkpt lat="43.56289365216645" lon="11.915076383729525"><ele>545.0</ele><time>2026-04-25T11:00:38Z</time></trkpt><trkpt lat="43.562962879817604" lon="11.915165446889707"><ele>545.0</ele><time>2026-04-25T11:00:39Z</time></trkpt><trkpt lat="43.56302343474393" lon="11.915268813000043"><ele>545.0</ele><time>2026-04-25T11:00:40Z</time></trkpt><trkpt lat="43.56309674707769" lon="11.915367472954769"><ele>545.0</ele><time>2026-04-25T11:00:41Z</time></trkpt><trkpt lat="43.563137742773" lon="11.915443896312423"><ele>545.0</ele><time>2026-04-25T11:00:42Z</time></trkpt><trkpt lat="43.56325320935665" lon="11.915573853425272"><ele>545.0</ele><time>2026-04-25T11:00:44Z</time></trkpt><trkpt lat="43.5633493528549" lon="11.91565069325087"><ele>545.0</ele><time>2026-04-25T11:00:45Z</time></trkpt><trkpt lat="43.563476248361575" lon="11.915728668106468"><ele>545.0</ele><time>2026-04-25T11:00:46Z</time></trkpt><trkpt lat="43.563586279210206" lon="11.915827666248488"><ele>545.0</ele><time>2026-04-25T11:00:47Z</time></trkpt><trkpt lat="43.563667315658634" lon="11.915893831459691"><ele>544.6</ele><time>2026-04-25T11:00:48Z</time></trkpt><trkpt lat="43.56375450536989" lon="11.915973523383599"><ele>544.2</ele><time>2026-04-25T11:00:49Z</time></trkpt><trkpt lat="43.56384684216927" lon="11.916060355155643"><ele>543.8</ele><time>2026-04-25T11:00:50Z</time></trkpt><trkpt lat="43.56393217391866" lon="11.916112685271104"><ele>543.4</ele><time>2026-04-25T11:00:51Z</time></trkpt><trkpt lat="43.564005167621474" lon="11.916182790810486"><ele>543.0</ele><time>2026-04-25T11:00:52Z</time></trkpt><trkpt lat="43.564071598400304" lon="11.916276901365714"><ele>543.0</ele><time>2026-04-25T11:00:53Z</time></trkpt><trkpt lat="43.56413635940915" lon="11.916382236723805"><ele>543.0</ele><time>2026-04-25T11:00:54Z</time></trkpt><trkpt lat="43.56420960194352" lon="11.916481547721627"><ele>543.0</ele><time>2026-04-25T11:00:55Z</time></trkpt><trkpt lat="43.56428828148019" lon="11.916546949786891"><ele>543.0</ele><time>2026-04-25T11:00:56Z</time></trkpt><trkpt lat="43.56440744481509" lon="11.91662144477354"><ele>543.0</ele><time>2026-04-25T11:00:57Z</time></trkpt><trkpt lat="43.56449283304272" lon="11.916701674245967"><ele>542.0</ele><time>2026-04-25T11:00:58Z</time></trkpt><trkpt lat="43.564549979689886" lon="11.916789408542895"><ele>541.0</ele><time>2026-04-25T11:00:59Z</time></trkpt><trkpt lat="43.56455372706439" lon="11.916877407819939"><ele>540.0</ele><time>2026-04-25T11:01:00Z</time></trkpt><trkpt lat="43.56451903254713" lon="11.916971850436193"><ele>539.0</ele><time>2026-04-25T11:01:01Z</time></trkpt><trkpt lat="43.56445787302946" lon="11.917020727288016"><ele>538.0</ele><time>2026-04-25T11:01:02Z</time></trkpt><trkpt lat="43.56442959525777" lon="11.917116384667393"><ele>537.0</ele><time>2026-04-25T11:01:04Z</time></trkpt><trkpt lat="43.56439507738463" lon="11.917211996642184"><ele>536.0</ele><time>2026-04-25T11:01:05Z</time></trkpt><trkpt lat="43.56431579590097" lon="11.917257285376845"><ele>536.0</ele><time>2026-04-25T11:01:06Z</time></trkpt><trkpt lat="43.56424509913956" lon="11.917306528383735"><ele>536.0</ele><time>2026-04-25T11:01:07Z</time></trkpt><trkpt lat="43.56416913084524" lon="11.917367779170096"><ele>536.0</ele><time>2026-04-25T11:01:08Z</time></trkpt><trkpt lat="43.56408195870984" lon="11.917457869312743"><ele>536.0</ele><time>2026-04-25T11:01:09Z</time></trkpt><trkpt lat="43.56399098543619" lon="11.917592193659889"><ele>536.0</ele><time>2026-04-25T11:01:10Z</time></trkpt><trkpt lat="43.563914069688984" lon="11.917731594755585"><ele>538.4</ele><time>2026-04-25T11:01:11Z</time></trkpt><trkpt lat="43.56386060358514" lon="11.917868609566861"><ele>540.8</ele><time>2026-04-25T11:01:12Z</time></trkpt><trkpt lat="43.5638046106201" lon="11.917983378528792"><ele>543.1999999999999</ele><time>2026-04-25T11:01:13Z</time></trkpt><trkpt lat="43.56375104011053" lon="11.918086336354023"><ele>545.6</ele><time>2026-04-25T11:01:14Z</time></trkpt><trkpt lat="43.563700675448914" lon="11.918175168961394"><ele>548.0</ele><time>2026-04-25T11:01:15Z</time></trkpt><trkpt lat="43.563662266952015" lon="11.918264112187067"><ele>548.0</ele><time>2026-04-25T11:01:16Z</time></trkpt><trkpt lat="43.56363639821929" lon="11.91835167033268"><ele>548.0</ele><time>2026-04-25T11:01:17Z</time></trkpt><trkpt lat="43.563591970533295" lon="11.918467452420586"><ele>548.0</ele><time>2026-04-25T11:01:18Z</time></trkpt><trkpt lat="43.56355339373804" lon="11.918624522043793"><ele>548.0</ele><time>2026-04-25T11:01:19Z</time></trkpt><trkpt lat="43.56349789106147" lon="11.918784965797748"><ele>548.0</ele><time>2026-04-25T11:01:20Z</time></trkpt><trkpt lat="43.563416217339636" lon="11.91892821976963"><ele>542.75</ele><time>2026-04-25T11:01:21Z</time></trkpt><trkpt lat="43.56334695657992" lon="11.919074599699956"><ele>537.5</ele><time>2026-04-25T11:01:22Z</time></trkpt><trkpt lat="43.56330870695314" lon="11.91922776114759"><ele>532.25</ele><time>2026-04-25T11:01:23Z</time></trkpt><trkpt lat="43.56324271808577" lon="11.91938621904485"><ele>527.0</ele><time>2026-04-25T11:01:24Z</time></trkpt><trkpt lat="43.563151953706154" lon="11.919533229658102"><ele>524.6</ele><time>2026-04-25T11:01:25Z</time></trkpt><trkpt lat="43.563077794155575" lon="11.919673429334928"><ele>522.2</ele><time>2026-04-25T11:01:26Z</time></trkpt><trkpt lat="43.56302187960308" lon="11.919804258444872"><ele>519.8</ele><time>2026-04-25T11:01:27Z</time></trkpt><trkpt lat="43.56295596042334" lon="11.919858804898993"><ele>517.4</ele><time>2026-04-25T11:01:28Z</time></trkpt><trkpt lat="43.56288695837866" lon="11.919867296429453"><ele>515.0</ele><time>2026-04-25T11:01:29Z</time></trkpt><trkpt lat="43.56280789928785" lon="11.919868267484043"><ele>515.0</ele><time>2026-04-25T11:01:30Z</time></trkpt><trkpt lat="43.562716905564415" lon="11.919822397612512"><ele>515.0</ele><time>2026-04-25T11:01:31Z</time></trkpt><trkpt lat="43.56262799416809" lon="11.91977203901876"><ele>515.0</ele><time>2026-04-25T11:01:32Z</time></trkpt><trkpt lat="43.562558280834956" lon="11.919790945883777"><ele>515.0</ele><time>2026-04-25T11:01:33Z</time></trkpt><trkpt lat="43.562480713619834" lon="11.91982892201216"><ele>515.0</ele><time>2026-04-25T11:01:34Z</time></trkpt><trkpt lat="43.5624089758316" lon="11.919878414695622"><ele>515.0</ele><time>2026-04-25T11:01:35Z</time></trkpt><trkpt lat="43.56231993581629" lon="11.919879926713158"><ele>515.0</ele><time>2026-04-25T11:01:36Z</time></trkpt><trkpt lat="43.56221865200775" lon="11.91984591727307"><ele>515.0</ele><time>2026-04-25T11:01:37Z</time></trkpt><trkpt lat="43.56212525252784" lon="11.919815029366793"><ele>515.0</ele><time>2026-04-25T11:01:38Z</time></trkpt><trkpt lat="43.56203251855244" lon="11.919840630257875"><ele>515.0</ele><time>2026-04-25T11:01:39Z</time></trkpt><trkpt lat="43.561922407832675" lon="11.919928775752089"><ele>515.0</ele><time>2026-04-25T11:01:40Z</time></trkpt><trkpt lat="43.5617983102237" lon="11.920014617310452"><ele>507.75</ele><time>2026-04-25T11:01:41Z</time></trkpt><trkpt lat="43.56165799881338" lon="11.920107026904725"><ele>500.5</ele><time>2026-04-25T11:01:42Z</time></trkpt><trkpt lat="43.561569993063635" lon="11.920150825786358"><ele>493.25</ele><time>2026-04-25T11:01:43Z</time></trkpt><trkpt lat="43.561440801307704" lon="11.920212607931653"><ele>486.0</ele><time>2026-04-25T11:01:45Z</time></trkpt><trkpt lat="43.561339503187554" lon="11.920227791699569"><ele>486.0</ele><time>2026-04-25T11:01:46Z</time></trkpt><trkpt lat="43.56122673178277" lon="11.920220596240583"><ele>486.0</ele><time>2026-04-25T11:01:47Z</time></trkpt><trkpt lat="43.56114367018628" lon="11.920188886202554"><ele>486.0</ele><time>2026-04-25T11:01:48Z</time></trkpt><trkpt lat="43.561061058042874" lon="11.92010850100067"><ele>486.0</ele><time>2026-04-25T11:01:49Z</time></trkpt><trkpt lat="43.561005696489495" lon="11.920028732956844"><ele>486.0</ele><time>2026-04-25T11:01:50Z</time></trkpt><trkpt lat="43.56094011415767" lon="11.919966396904437"><ele>484.8</ele><time>2026-04-25T11:01:53Z</time></trkpt><trkpt lat="43.56084428510666" lon="11.919999545387848"><ele>483.6</ele><time>2026-04-25T11:02:03.001Z</time></trkpt><trkpt lat="43.56075186083031" lon="11.920017503297595"><ele>482.4</ele><time>2026-04-25T11:02:04.001Z</time></trkpt><trkpt lat="43.56066825473603" lon="11.920016193432952"><ele>481.2</ele><time>2026-04-25T11:02:05.001Z</time></trkpt><trkpt lat="43.56058275238662" lon="11.92004129581659"><ele>480.0</ele><time>2026-04-25T11:02:06.001Z</time></trkpt><trkpt lat="43.56068343697507" lon="11.920134703375357"><ele>480.0</ele><time>2026-04-25T11:02:17.001Z</time></trkpt><trkpt lat="43.560765081498594" lon="11.920184573740903"><ele>480.0</ele><time>2026-04-25T11:02:18.001Z</time></trkpt><trkpt lat="43.56086776696468" lon="11.920239979891301"><ele>480.0</ele><time>2026-04-25T11:02:19Z</time></trkpt><trkpt lat="43.560980681755495" lon="11.920320743987629"><ele>480.0</ele><time>2026-04-25T11:02:20Z</time></trkpt><trkpt lat="43.56105922363346" lon="11.920393102231062"><ele>480.0</ele><time>2026-04-25T11:02:21Z</time></trkpt><trkpt lat="43.56112333579428" lon="11.920440427702532"><ele>481.0</ele><time>2026-04-25T11:02:22Z</time></trkpt><trkpt lat="43.56121881839629" lon="11.920476432543754"><ele>482.0</ele><time>2026-04-25T11:02:24Z</time></trkpt><trkpt lat="43.56129956343829" lon="11.920500253447724"><ele>483.0</ele><time>2026-04-25T11:02:25Z</time></trkpt><trkpt lat="43.56138134834138" lon="11.920510317721066"><ele>484.0</ele><time>2026-04-25T11:02:26Z</time></trkpt><trkpt lat="43.561350084187836" lon="11.920646814020207"><ele>485.0</ele><time>2026-04-25T11:02:32Z</time></trkpt><trkpt lat="43.56129305828771" lon="11.920711115087906"><ele>486.0</ele><time>2026-04-25T11:02:33Z</time></trkpt><trkpt lat="43.56125080716364" lon="11.920778699000541"><ele>481.6</ele><time>2026-04-25T11:02:34Z</time></trkpt><trkpt lat="43.56123004959649" lon="11.92092559119976"><ele>477.20000000000005</ele><time>2026-04-25T11:02:36Z</time></trkpt><trkpt lat="43.56126791733056" lon="11.921094852152375"><ele>472.79999999999995</ele><time>2026-04-25T11:02:38Z</time></trkpt><trkpt lat="43.56129100300636" lon="11.921258507327485"><ele>468.4</ele><time>2026-04-25T11:02:40Z</time></trkpt><trkpt lat="43.561296072748384" lon="11.921355737040015"><ele>464.0</ele><time>2026-04-25T11:02:41Z</time></trkpt><trkpt lat="43.561215268372614" lon="11.9214797515096"><ele>463.66666666666663</ele><time>2026-04-25T11:02:43Z</time></trkpt><trkpt lat="43.561182964856776" lon="11.921558572817812"><ele>463.3333333333333</ele><time>2026-04-25T11:02:44Z</time></trkpt><trkpt lat="43.56118482251028" lon="11.921664202211723"><ele>463.0</ele><time>2026-04-25T11:02:45Z</time></trkpt><trkpt lat="43.56120967211143" lon="11.921762059875388"><ele>462.66666666666663</ele><time>2026-04-25T11:02:46Z</time></trkpt><trkpt lat="43.561186844313646" lon="11.921849065154174"><ele>462.3333333333333</ele><time>2026-04-25T11:02:47Z</time></trkpt><trkpt lat="43.5611226372265" lon="11.92190154955805"><ele>462.0</ele><time>2026-04-25T11:02:48Z</time></trkpt><trkpt lat="43.56102443545516" lon="11.921948419135378"><ele>459.0</ele><time>2026-04-25T11:02:49Z</time></trkpt><trkpt lat="43.560931307237695" lon="11.922026338560057"><ele>456.00000000000006</ele><time>2026-04-25T11:02:50Z</time></trkpt><trkpt lat="43.56084840369651" lon="11.922076759862556"><ele>453.00000000000006</ele><time>2026-04-25T11:02:51Z</time></trkpt><trkpt lat="43.56082152914396" lon="11.922199268890582"><ele>450.0</ele><time>2026-04-25T11:02:53Z</time></trkpt><trkpt lat="43.56088632534343" lon="11.92224358358303"><ele>447.0</ele><time>2026-04-25T11:02:54Z</time></trkpt><trkpt lat="43.560985472561654" lon="11.922258454257147"><ele>447.0</ele><time>2026-04-25T11:02:55Z</time></trkpt><trkpt lat="43.561087811111385" lon="11.922252914182724"><ele>447.0</ele><time>2026-04-25T11:02:56Z</time></trkpt><trkpt lat="43.56117148153258" lon="11.922268473914308"><ele>447.0</ele><time>2026-04-25T11:02:57Z</time></trkpt><trkpt lat="43.56113672749033" lon="11.922418264486335"><ele>447.0</ele><time>2026-04-25T11:02:59Z</time></trkpt><trkpt lat="43.56107100470317" lon="11.92245224307228"><ele>447.0</ele><time>2026-04-25T11:03:00Z</time></trkpt><trkpt lat="43.56100751983511" lon="11.922499690575878"><ele>447.0</ele><time>2026-04-25T11:03:01Z</time></trkpt><trkpt lat="43.56091767831292" lon="11.922633083868178"><ele>444.0</ele><time>2026-04-25T11:03:03Z</time></trkpt><trkpt lat="43.56088847421986" lon="11.922737877273615"><ele>441.0</ele><time>2026-04-25T11:03:04Z</time></trkpt><trkpt lat="43.56082544322471" lon="11.922847092164131"><ele>438.0</ele><time>2026-04-25T11:03:05Z</time></trkpt><trkpt lat="43.56075235718279" lon="11.922924943917836"><ele>435.0</ele><time>2026-04-25T11:03:06Z</time></trkpt><trkpt lat="43.56071027277052" lon="11.923011455838324"><ele>432.0</ele><time>2026-04-25T11:03:07Z</time></trkpt><trkpt lat="43.56066580260441" lon="11.923131409055616"><ele>429.0</ele><time>2026-04-25T11:03:08Z</time></trkpt><trkpt lat="43.56062665824061" lon="11.923238943257024"><ele>429.0</ele><time>2026-04-25T11:03:09Z</time></trkpt><trkpt lat="43.56059003400733" lon="11.923351456288394"><ele>429.0</ele><time>2026-04-25T11:03:10Z</time></trkpt><trkpt lat="43.56056280721172" lon="11.923455471564944"><ele>429.0</ele><time>2026-04-25T11:03:11Z</time></trkpt><trkpt lat="43.560567984115366" lon="11.923543717227286"><ele>429.0</ele><time>2026-04-25T11:03:12Z</time></trkpt><trkpt lat="43.56065921927865" lon="11.92365622644062"><ele>429.0</ele><time>2026-04-25T11:03:14Z</time></trkpt><trkpt lat="43.560731169565784" lon="11.923729089355994"><ele>429.0</ele><time>2026-04-25T11:03:15Z</time></trkpt><trkpt lat="43.560666953383674" lon="11.92387861020162"><ele>426.2</ele><time>2026-04-25T11:03:17Z</time></trkpt><trkpt lat="43.56057662972059" lon="11.923926377381273"><ele>423.4</ele><time>2026-04-25T11:03:18Z</time></trkpt><trkpt lat="43.56051046683337" lon="11.92397749470375"><ele>420.6</ele><time>2026-04-25T11:03:19Z</time></trkpt><trkpt lat="43.5604410920207" lon="11.924004539438622"><ele>417.8</ele><time>2026-04-25T11:03:20Z</time></trkpt><trkpt lat="43.560343166229096" lon="11.923925749966248"><ele>415.0</ele><time>2026-04-25T11:03:22Z</time></trkpt><trkpt lat="43.56026920175573" lon="11.923825614829608"><ele>414.00000000000006</ele><time>2026-04-25T11:03:23Z</time></trkpt><trkpt lat="43.56021006369014" lon="11.923741950977243"><ele>413.0</ele><time>2026-04-25T11:03:24Z</time></trkpt><trkpt lat="43.56012857158546" lon="11.923695594447333"><ele>412.0</ele><time>2026-04-25T11:03:25Z</time></trkpt><trkpt lat="43.56003269174601" lon="11.923636813423148"><ele>411.0</ele><time>2026-04-25T11:03:26Z</time></trkpt><trkpt lat="43.559962127752684" lon="11.92359628086848"><ele>410.00000000000006</ele><time>2026-04-25T11:03:27Z</time></trkpt><trkpt lat="43.55988699079451" lon="11.923580874953275"><ele>409.0</ele><time>2026-04-25T11:03:28Z</time></trkpt><trkpt lat="43.559797709868874" lon="11.923637130049622"><ele>409.0</ele><time>2026-04-25T11:03:29Z</time></trkpt><trkpt lat="43.559757646480506" lon="11.923754444277288"><ele>409.0</ele><time>2026-04-25T11:03:30Z</time></trkpt><trkpt lat="43.55971842351487" lon="11.923905928038927"><ele>409.0</ele><time>2026-04-25T11:03:31Z</time></trkpt><trkpt lat="43.55968003259682" lon="11.924022226187025"><ele>409.0</ele><time>2026-04-25T11:03:32Z</time></trkpt><trkpt lat="43.55960676963045" lon="11.924140924200767"><ele>409.0</ele><time>2026-04-25T11:03:33Z</time></trkpt><trkpt lat="43.55954854852591" lon="11.92422490822195"><ele>405.0</ele><time>2026-04-25T11:03:34Z</time></trkpt><trkpt lat="43.55950747324501" lon="11.924314774352144"><ele>401.0</ele><time>2026-04-25T11:03:35Z</time></trkpt><trkpt lat="43.55952306646533" lon="11.924504758352183"><ele>397.0</ele><time>2026-04-25T11:03:37Z</time></trkpt><trkpt lat="43.55954612126892" lon="11.924664836617596"><ele>393.0</ele><time>2026-04-25T11:03:38Z</time></trkpt><trkpt lat="43.55955208341353" lon="11.924768319016467"><ele>389.0</ele><time>2026-04-25T11:03:39Z</time></trkpt><trkpt lat="43.55956485249817" lon="11.924873150328677"><ele>388.99999999999994</ele><time>2026-04-25T11:03:40Z</time></trkpt><trkpt lat="43.55956508577473" lon="11.925010835660853"><ele>389.0</ele><time>2026-04-25T11:03:41Z</time></trkpt><trkpt lat="43.55956998978427" lon="11.925110892354525"><ele>389.0</ele><time>2026-04-25T11:03:42Z</time></trkpt><trkpt lat="43.559617727897354" lon="11.925195733071087"><ele>389.0</ele><time>2026-04-25T11:03:43Z</time></trkpt><trkpt lat="43.559677022248984" lon="11.92528003917756"><ele>388.99999999999994</ele><time>2026-04-25T11:03:44Z</time></trkpt><trkpt lat="43.55969726108083" lon="11.925369867960466"><ele>389.0</ele><time>2026-04-25T11:03:45Z</time></trkpt><trkpt lat="43.55961891464419" lon="11.925506687630284"><ele>384.8333333333333</ele><time>2026-04-25T11:03:47Z</time></trkpt><trkpt lat="43.55954101663172" lon="11.925555845611266"><ele>380.66666666666663</ele><time>2026-04-25T11:03:48Z</time></trkpt><trkpt lat="43.55947685262469" lon="11.92552320631679"><ele>376.5</ele><time>2026-04-25T11:03:49Z</time></trkpt><trkpt lat="43.559402360720284" lon="11.925455211238429"><ele>372.3333333333333</ele><time>2026-04-25T11:03:50Z</time></trkpt><trkpt lat="43.55930217002675" lon="11.925366613471185"><ele>368.16666666666663</ele><time>2026-04-25T11:03:51Z</time></trkpt><trkpt lat="43.559230292460846" lon="11.925298615167181"><ele>364.0</ele><time>2026-04-25T11:03:52Z</time></trkpt><trkpt lat="43.55917187083503" lon="11.925234784027328"><ele>364.0</ele><time>2026-04-25T11:03:53Z</time></trkpt><trkpt lat="43.55912957032455" lon="11.925167363564432"><ele>364.0</ele><time>2026-04-25T11:03:54Z</time></trkpt><trkpt lat="43.5590851547661" lon="11.925082506413421"><ele>364.0</ele><time>2026-04-25T11:03:55Z</time></trkpt><trkpt lat="43.559049253521984" lon="11.924978622587739"><ele>364.0</ele><time>2026-04-25T11:03:56Z</time></trkpt><trkpt lat="43.558994608957775" lon="11.924921206422667"><ele>364.0</ele><time>2026-04-25T11:03:57Z</time></trkpt><trkpt lat="43.55888922542877" lon="11.924899989646613"><ele>364.0</ele><time>2026-04-25T11:03:58Z</time></trkpt><trkpt lat="43.55880111774238" lon="11.924941699922572"><ele>364.0</ele><time>2026-04-25T11:03:59Z</time></trkpt><trkpt lat="43.558741507197816" lon="11.925030463635924"><ele>364.0</ele><time>2026-04-25T11:04:00Z</time></trkpt><trkpt lat="43.55871906110663" lon="11.92514063532037"><ele>364.0</ele><time>2026-04-25T11:04:01.001Z</time></trkpt><trkpt lat="43.55871918980099" lon="11.92525827327044"><ele>364.0</ele><time>2026-04-25T11:04:02.001Z</time></trkpt><trkpt lat="43.55873108006582" lon="11.92537561329133"><ele>364.0</ele><time>2026-04-25T11:04:03.001Z</time></trkpt><trkpt lat="43.55874181087157" lon="11.925512499539321"><ele>364.0</ele><time>2026-04-25T11:04:04.001Z</time></trkpt><trkpt lat="43.558765159307114" lon="11.925611045395803"><ele>364.0</ele><time>2026-04-25T11:04:05.001Z</time></trkpt><trkpt lat="43.558816607325255" lon="11.925670329235336"><ele>364.0</ele><time>2026-04-25T11:04:06.001Z</time></trkpt><trkpt lat="43.558916796104164" lon="11.92573994545336"><ele>364.0</ele><time>2026-04-25T11:04:07.001Z</time></trkpt><trkpt lat="43.559010305503705" lon="11.925808034315406"><ele>364.0</ele><time>2026-04-25T11:04:08.001Z</time></trkpt><trkpt lat="43.55909257280238" lon="11.925903365853383"><ele>364.0</ele><time>2026-04-25T11:04:09.001Z</time></trkpt><trkpt lat="43.55914147915943" lon="11.926009718222954"><ele>361.6</ele><time>2026-04-25T11:04:10.001Z</time></trkpt><trkpt lat="43.55918552732844" lon="11.926136078163005"><ele>359.2</ele><time>2026-04-25T11:04:11.001Z</time></trkpt><trkpt lat="43.559228317411275" lon="11.92625667367531"><ele>356.8</ele><time>2026-04-25T11:04:12.001Z</time></trkpt><trkpt lat="43.55925519490135" lon="11.926345975742896"><ele>354.40000000000003</ele><time>2026-04-25T11:04:13.001Z</time></trkpt><trkpt lat="43.55927956628089" lon="11.926480748462435"><ele>352.0</ele><time>2026-04-25T11:04:14.001Z</time></trkpt><trkpt lat="43.559294687028434" lon="11.926603258711575"><ele>352.0</ele><time>2026-04-25T11:04:15.001Z</time></trkpt><trkpt lat="43.55931284758642" lon="11.926699912689909"><ele>352.0</ele><time>2026-04-25T11:04:16.001Z</time></trkpt><trkpt lat="43.55932534764006" lon="11.92680157000403"><ele>352.0</ele><time>2026-04-25T11:04:17.001Z</time></trkpt><trkpt lat="43.559352807416836" lon="11.926910253152032"><ele>352.0</ele><time>2026-04-25T11:04:18.001Z</time></trkpt><trkpt lat="43.559357294550544" lon="11.927010960575798"><ele>352.0</ele><time>2026-04-25T11:04:19.001Z</time></trkpt><trkpt lat="43.55932762533586" lon="11.927089982268702"><ele>352.0</ele><time>2026-04-25T11:04:20.001Z</time></trkpt><trkpt lat="43.55927004584606" lon="11.92716858404998"><ele>352.0</ele><time>2026-04-25T11:04:22Z</time></trkpt><trkpt lat="43.559228661544395" lon="11.927239596095347"><ele>349.40000000000003</ele><time>2026-04-25T11:04:50Z</time></trkpt><trkpt lat="43.55917472228508" lon="11.927310661841588"><ele>346.8</ele><time>2026-04-25T11:04:51Z</time></trkpt><trkpt lat="43.55910249425209" lon="11.92739287096918"><ele>344.2</ele><time>2026-04-25T11:04:52Z</time></trkpt><trkpt lat="43.559024697356314" lon="11.927471730361255"><ele>341.6</ele><time>2026-04-25T11:04:53Z</time></trkpt><trkpt lat="43.558925231354806" lon="11.927540313817266"><ele>339.0</ele><time>2026-04-25T11:04:54Z</time></trkpt><trkpt lat="43.55880597120786" lon="11.927557627091602"><ele>337.5</ele><time>2026-04-25T11:04:55Z</time></trkpt><trkpt lat="43.5586769541741" lon="11.927612092623633"><ele>336.0</ele><time>2026-04-25T11:04:56Z</time></trkpt><trkpt lat="43.558545957973585" lon="11.927676005950234"><ele>334.5</ele><time>2026-04-25T11:04:57Z</time></trkpt><trkpt lat="43.55841572963122" lon="11.927748193688291"><ele>333.0</ele><time>2026-04-25T11:04:58Z</time></trkpt><trkpt lat="43.55827735424552" lon="11.927809455026468"><ele>333.0</ele><time>2026-04-25T11:04:59Z</time></trkpt><trkpt lat="43.55814371710115" lon="11.927877194075073"><ele>333.0</ele><time>2026-04-25T11:05:00Z</time></trkpt><trkpt lat="43.55800353867313" lon="11.927941673029853"><ele>333.0</ele><time>2026-04-25T11:05:01Z</time></trkpt><trkpt lat="43.55786423329393" lon="11.928005283759035"><ele>333.0</ele><time>2026-04-25T11:05:02Z</time></trkpt><trkpt lat="43.55772475154771" lon="11.92807436585056"><ele>332.75</ele><time>2026-04-25T11:05:03Z</time></trkpt><trkpt lat="43.55758464140367" lon="11.928143930071549"><ele>332.5</ele><time>2026-04-25T11:05:04Z</time></trkpt><trkpt lat="43.55744734873633" lon="11.92820821735297"><ele>332.25</ele><time>2026-04-25T11:05:05Z</time></trkpt><trkpt lat="43.557313463845695" lon="11.928292479549242"><ele>332.0</ele><time>2026-04-25T11:05:06Z</time></trkpt><trkpt lat="43.55718656493257" lon="11.928430027965527"><ele>332.0</ele><time>2026-04-25T11:05:07Z</time></trkpt><trkpt lat="43.557068535414686" lon="11.92854010238945"><ele>332.0</ele><time>2026-04-25T11:05:08Z</time></trkpt><trkpt lat="43.55695523095528" lon="11.928653921000977"><ele>332.0</ele><time>2026-04-25T11:05:09Z</time></trkpt><trkpt lat="43.556834291721586" lon="11.928759650460053"><ele>332.0</ele><time>2026-04-25T11:05:10Z</time></trkpt><trkpt lat="43.5567147122908" lon="11.928864528968827"><ele>330.75</ele><time>2026-04-25T11:05:11Z</time></trkpt><trkpt lat="43.55658536905837" lon="11.928949437249432"><ele>329.5</ele><time>2026-04-25T11:05:12Z</time></trkpt><trkpt lat="43.55644142819821" lon="11.928994267735265"><ele>328.25</ele><time>2026-04-25T11:05:13Z</time></trkpt><trkpt lat="43.55629395477766" lon="11.929026970610241"><ele>327.0</ele><time>2026-04-25T11:05:14Z</time></trkpt><trkpt lat="43.55614223248854" lon="11.929060795630111"><ele>326.3333333333333</ele><time>2026-04-25T11:05:15Z</time></trkpt><trkpt lat="43.5559948090753" lon="11.92909825146764"><ele>325.66666666666663</ele><time>2026-04-25T11:05:16Z</time></trkpt><trkpt lat="43.555846369349695" lon="11.929144274199157"><ele>325.0</ele><time>2026-04-25T11:05:17Z</time></trkpt><trkpt lat="43.5556954956556" lon="11.929198747413432"><ele>325.0</ele><time>2026-04-25T11:05:18Z</time></trkpt><trkpt lat="43.555552250955635" lon="11.929261785878358"><ele>325.0</ele><time>2026-04-25T11:05:19Z</time></trkpt><trkpt lat="43.55540195638066" lon="11.92932756512407"><ele>325.0</ele><time>2026-04-25T11:05:20Z</time></trkpt><trkpt lat="43.555255708793304" lon="11.929405319791027"><ele>324.75</ele><time>2026-04-25T11:05:21Z</time></trkpt><trkpt lat="43.55512078422247" lon="11.929485694263702"><ele>324.5</ele><time>2026-04-25T11:05:22Z</time></trkpt><trkpt lat="43.55499219054707" lon="11.929553025510408"><ele>324.25</ele><time>2026-04-25T11:05:23Z</time></trkpt><trkpt lat="43.55484611270065" lon="11.929604954825548"><ele>324.0</ele><time>2026-04-25T11:05:24Z</time></trkpt><trkpt lat="43.55469856775127" lon="11.929567022760525"><ele>324.0</ele><time>2026-04-25T11:05:25Z</time></trkpt><trkpt lat="43.554549850508444" lon="11.929560710693204"><ele>324.0</ele><time>2026-04-25T11:05:26Z</time></trkpt><trkpt lat="43.55440100687876" lon="11.929513444392706"><ele>324.0</ele><time>2026-04-25T11:05:27Z</time></trkpt><trkpt lat="43.554252201651856" lon="11.929474645289277"><ele>323.5</ele><time>2026-04-25T11:05:28Z</time></trkpt><trkpt lat="43.554104560547074" lon="11.929446196003818"><ele>323.0</ele><time>2026-04-25T11:05:29Z</time></trkpt><trkpt lat="43.55395291270716" lon="11.929440755729345"><ele>322.5</ele><time>2026-04-25T11:05:30Z</time></trkpt><trkpt lat="43.55380657089308" lon="11.929455852213065"><ele>322.0</ele><time>2026-04-25T11:05:31Z</time></trkpt><trkpt lat="43.553661761499264" lon="11.929466404375717"><ele>321.75</ele><time>2026-04-25T11:05:32Z</time></trkpt><trkpt lat="43.553526783817844" lon="11.929471931806091"><ele>321.5</ele><time>2026-04-25T11:05:33Z</time></trkpt><trkpt lat="43.55341186325736" lon="11.929477286516857"><ele>321.25</ele><time>2026-04-25T11:05:34Z</time></trkpt><trkpt lat="43.553306551565505" lon="11.929475632332837"><ele>321.0</ele><time>2026-04-25T11:05:35Z</time></trkpt><trkpt lat="43.55319062547387" lon="11.929472580917052"><ele>321.0</ele><time>2026-04-25T11:05:36Z</time></trkpt><trkpt lat="43.55306218908336" lon="11.929486085742498"><ele>321.0</ele><time>2026-04-25T11:05:37Z</time></trkpt><trkpt lat="43.55291847455392" lon="11.929491432961926"><ele>321.0</ele><time>2026-04-25T11:05:38Z</time></trkpt><trkpt lat="43.55277560335132" lon="11.929475843016926"><ele>321.0</ele><time>2026-04-25T11:05:39Z</time></trkpt><trkpt lat="43.55263178077996" lon="11.929443249730285"><ele>320.0</ele><time>2026-04-25T11:05:40Z</time></trkpt><trkpt lat="43.55247965602406" lon="11.929427754385582"><ele>319.0</ele><time>2026-04-25T11:05:41Z</time></trkpt><trkpt lat="43.55232883856121" lon="11.929420154464493"><ele>318.0</ele><time>2026-04-25T11:05:42Z</time></trkpt><trkpt lat="43.55218185968955" lon="11.92940879573237"><ele>317.0</ele><time>2026-04-25T11:05:43Z</time></trkpt><trkpt lat="43.55203259511383" lon="11.92939357990765"><ele>316.0</ele><time>2026-04-25T11:05:44Z</time></trkpt><trkpt lat="43.551891032032884" lon="11.929376746998871"><ele>315.0</ele><time>2026-04-25T11:05:45Z</time></trkpt><trkpt lat="43.55175635643323" lon="11.929349833693534"><ele>314.0</ele><time>2026-04-25T11:05:46Z</time></trkpt><trkpt lat="43.55163948664544" lon="11.929304649833512"><ele>314.0</ele><time>2026-04-25T11:05:46.999Z</time></trkpt><trkpt lat="43.55153446751364" lon="11.929252317026203"><ele>314.0</ele><time>2026-04-25T11:05:47.999Z</time></trkpt><trkpt lat="43.55143555795284" lon="11.929210214878285"><ele>314.0</ele><time>2026-04-25T11:05:48.999Z</time></trkpt><trkpt lat="43.55134193996046" lon="11.929166665630781"><ele>314.0</ele><time>2026-04-25T11:05:49.999Z</time></trkpt><trkpt lat="43.55125354762261" lon="11.929130855685584"><ele>314.0</ele><time>2026-04-25T11:05:50.999Z</time></trkpt><trkpt lat="43.5511474160782" lon="11.92908869462427"><ele>315.75</ele><time>2026-04-25T11:05:51.999Z</time></trkpt><trkpt lat="43.551027949743606" lon="11.929047927529188"><ele>317.5</ele><time>2026-04-25T11:05:52.999Z</time></trkpt><trkpt lat="43.5508951967945" lon="11.929013585966473"><ele>319.25</ele><time>2026-04-25T11:05:53.999Z</time></trkpt><trkpt lat="43.55075282242444" lon="11.928988100667954"><ele>321.0</ele><time>2026-04-25T11:05:54.999Z</time></trkpt><trkpt lat="43.55060995613826" lon="11.928964043827824"><ele>321.0</ele><time>2026-04-25T11:05:55.999Z</time></trkpt><trkpt lat="43.55048510156294" lon="11.928947584922579"><ele>321.0</ele><time>2026-04-25T11:05:56.999Z</time></trkpt><trkpt lat="43.550366241112386" lon="11.928919112848599"><ele>321.0</ele><time>2026-04-25T11:05:57.999Z</time></trkpt><trkpt lat="43.550247736447616" lon="11.928890117187594"><ele>321.0</ele><time>2026-04-25T11:05:58.999Z</time></trkpt><trkpt lat="43.55014046503878" lon="11.928864642609359"><ele>319.3333333333333</ele><time>2026-04-25T11:05:59.999Z</time></trkpt><trkpt lat="43.550037037618324" lon="11.928847533050352"><ele>317.6666666666667</ele><time>2026-04-25T11:06:00.999Z</time></trkpt><trkpt lat="43.54994822816885" lon="11.928837355103786"><ele>316.0</ele><time>2026-04-25T11:06:01.999Z</time></trkpt><trkpt lat="43.549880941704046" lon="11.92882305913065"><ele>314.33333333333337</ele><time>2026-04-25T11:06:02.999Z</time></trkpt><trkpt lat="43.549784766327306" lon="11.928786573825793"><ele>312.6666666666667</ele><time>2026-04-25T11:06:04.999Z</time></trkpt><trkpt lat="43.54972443031541" lon="11.92875363004686"><ele>311.0</ele><time>2026-04-25T11:06:07.001Z</time></trkpt><trkpt lat="43.54961186525214" lon="11.9287664627303"><ele>310.0</ele><time>2026-04-25T11:06:33Z</time></trkpt><trkpt lat="43.54951934519878" lon="11.92873696988961"><ele>309.0</ele><time>2026-04-25T11:06:34Z</time></trkpt><trkpt lat="43.54941881598132" lon="11.92869561888623"><ele>308.0</ele><time>2026-04-25T11:06:35Z</time></trkpt><trkpt lat="43.54931545247307" lon="11.928634003106161"><ele>307.0</ele><time>2026-04-25T11:06:36Z</time></trkpt><trkpt lat="43.549201370834844" lon="11.928559039190398"><ele>306.0</ele><time>2026-04-25T11:06:37Z</time></trkpt><trkpt lat="43.549084703490024" lon="11.928475109078866"><ele>306.0</ele><time>2026-04-25T11:06:38Z</time></trkpt><trkpt lat="43.548961293346935" lon="11.92838311984866"><ele>306.0</ele><time>2026-04-25T11:06:39Z</time></trkpt><trkpt lat="43.548832502757776" lon="11.928288723240726"><ele>306.0</ele><time>2026-04-25T11:06:40Z</time></trkpt><trkpt lat="43.54869749813354" lon="11.92819615278039"><ele>306.0</ele><time>2026-04-25T11:06:41Z</time></trkpt><trkpt lat="43.54856177940934" lon="11.928101700837438"><ele>306.0</ele><time>2026-04-25T11:06:42Z</time></trkpt><trkpt lat="43.54842918196975" lon="11.927991195340926"><ele>306.0</ele><time>2026-04-25T11:06:43Z</time></trkpt><trkpt lat="43.548311531053855" lon="11.927854466603266"><ele>306.0</ele><time>2026-04-25T11:06:44Z</time></trkpt><trkpt lat="43.54820660045299" lon="11.927690341362643"><ele>307.0</ele><time>2026-04-25T11:06:45Z</time></trkpt><trkpt lat="43.54813020981401" lon="11.927502183396138"><ele>308.0</ele><time>2026-04-25T11:06:46Z</time></trkpt><trkpt lat="43.548077556801054" lon="11.927300752339258"><ele>309.0</ele><time>2026-04-25T11:06:47Z</time></trkpt><trkpt lat="43.548036900113125" lon="11.927079973901803"><ele>309.0</ele><time>2026-04-25T11:06:48Z</time></trkpt><trkpt lat="43.54800131339236" lon="11.926841952293739"><ele>309.0</ele><time>2026-04-25T11:06:49Z</time></trkpt><trkpt lat="43.547956922244914" lon="11.926596729563245"><ele>309.0</ele><time>2026-04-25T11:06:50Z</time></trkpt><trkpt lat="43.54790980256022" lon="11.926341408767087"><ele>306.6666666666667</ele><time>2026-04-25T11:06:51Z</time></trkpt><trkpt lat="43.54786974497316" lon="11.92608259447966"><ele>304.33333333333337</ele><time>2026-04-25T11:06:52Z</time></trkpt><trkpt lat="43.54782922460878" lon="11.925833602427996"><ele>302.0</ele><time>2026-04-25T11:06:53Z</time></trkpt><trkpt lat="43.54779053816978" lon="11.925585320409693"><ele>302.0</ele><time>2026-04-25T11:06:54Z</time></trkpt><trkpt lat="43.54774974518645" lon="11.925332659172769"><ele>302.0</ele><time>2026-04-25T11:06:55Z</time></trkpt><trkpt lat="43.547707563485" lon="11.925084664333081"><ele>302.0</ele><time>2026-04-25T11:06:56Z</time></trkpt><trkpt lat="43.54766552602972" lon="11.924841469076952"><ele>302.33333333333337</ele><time>2026-04-25T11:06:57Z</time></trkpt><trkpt lat="43.54762637602975" lon="11.924596528580881"><ele>302.6666666666667</ele><time>2026-04-25T11:06:58Z</time></trkpt><trkpt lat="43.547589805030015" lon="11.924358828766293"><ele>303.0</ele><time>2026-04-25T11:06:59Z</time></trkpt><trkpt lat="43.547550922915214" lon="11.92412111695301"><ele>303.3333333333333</ele><time>2026-04-25T11:07:00Z</time></trkpt><trkpt lat="43.547509133932486" lon="11.923887033887988"><ele>303.66666666666663</ele><time>2026-04-25T11:07:01Z</time></trkpt><trkpt lat="43.54746265447768" lon="11.923658043012374"><ele>304.0</ele><time>2026-04-25T11:07:02Z</time></trkpt><trkpt lat="43.547408992977" lon="11.923427096370464"><ele>306.3333333333333</ele><time>2026-04-25T11:07:03Z</time></trkpt><trkpt lat="43.54732607660645" lon="11.923219906998106"><ele>308.6666666666667</ele><time>2026-04-25T11:07:04Z</time></trkpt><trkpt lat="43.547212577654165" lon="11.92303762562433"><ele>311.0</ele><time>2026-04-25T11:07:05Z</time></trkpt><trkpt lat="43.54708175780371" lon="11.922861909116468"><ele>310.33333333333337</ele><time>2026-04-25T11:07:06Z</time></trkpt><trkpt lat="43.54695144686228" lon="11.922708909246708"><ele>309.6666666666667</ele><time>2026-04-25T11:07:07Z</time></trkpt><trkpt lat="43.54680999293043" lon="11.92257181212668"><ele>309.0</ele><time>2026-04-25T11:07:08Z</time></trkpt><trkpt lat="43.54666900238879" lon="11.922452115453904"><ele>309.0</ele><time>2026-04-25T11:07:09Z</time></trkpt><trkpt lat="43.54653795605073" lon="11.922343327621265"><ele>309.0</ele><time>2026-04-25T11:07:10Z</time></trkpt><trkpt lat="43.546419956252144" lon="11.922214701226208"><ele>309.0</ele><time>2026-04-25T11:07:11Z</time></trkpt><trkpt lat="43.54632357949863" lon="11.922032222262997"><ele>309.0</ele><time>2026-04-25T11:07:12Z</time></trkpt><trkpt lat="43.54625530561096" lon="11.92180595836"><ele>309.0</ele><time>2026-04-25T11:07:13Z</time></trkpt><trkpt lat="43.5461989234307" lon="11.921575794739184"><ele>309.0</ele><time>2026-04-25T11:07:14Z</time></trkpt><trkpt lat="43.54614592849038" lon="11.92133251123853"><ele>307.3333333333333</ele><time>2026-04-25T11:07:15Z</time></trkpt><trkpt lat="43.54609305000118" lon="11.92109457400587"><ele>305.66666666666663</ele><time>2026-04-25T11:07:16Z</time></trkpt><trkpt lat="43.546038800075095" lon="11.920850019334761"><ele>304.0</ele><time>2026-04-25T11:07:17Z</time></trkpt><trkpt lat="43.545990243206354" lon="11.920615417267413"><ele>304.0</ele><time>2026-04-25T11:07:18Z</time></trkpt><trkpt lat="43.54594224861511" lon="11.920385092428536"><ele>304.0</ele><time>2026-04-25T11:07:19Z</time></trkpt><trkpt lat="43.54589730938591" lon="11.920147995258487"><ele>304.0</ele><time>2026-04-25T11:07:20Z</time></trkpt><trkpt lat="43.54585209132739" lon="11.9199212788932"><ele>305.66666666666663</ele><time>2026-04-25T11:07:21Z</time></trkpt><trkpt lat="43.545794472911254" lon="11.919682844488356"><ele>307.3333333333333</ele><time>2026-04-25T11:07:22Z</time></trkpt><trkpt lat="43.54571379978596" lon="11.91945398719607"><ele>309.0</ele><time>2026-04-25T11:07:23Z</time></trkpt><trkpt lat="43.54562537360387" lon="11.919229900612152"><ele>310.6666666666667</ele><time>2026-04-25T11:07:24Z</time></trkpt><trkpt lat="43.54553038394009" lon="11.919016481314596"><ele>312.33333333333337</ele><time>2026-04-25T11:07:25Z</time></trkpt><trkpt lat="43.54543511065101" lon="11.918798293300652"><ele>314.0</ele><time>2026-04-25T11:07:26Z</time></trkpt><trkpt lat="43.54534176180758" lon="11.918587918014996"><ele>309.33333333333337</ele><time>2026-04-25T11:07:27Z</time></trkpt><trkpt lat="43.54524638059657" lon="11.918374609010062"><ele>304.6666666666667</ele><time>2026-04-25T11:07:28Z</time></trkpt><trkpt lat="43.545155338638125" lon="11.918166362890156"><ele>300.0</ele><time>2026-04-25T11:07:28.999Z</time></trkpt><trkpt lat="43.54505937535344" lon="11.917949574728468"><ele>300.0</ele><time>2026-04-25T11:07:29.999Z</time></trkpt><trkpt lat="43.54496087207288" lon="11.917745493995481"><ele>300.0</ele><time>2026-04-25T11:07:30.999Z</time></trkpt><trkpt lat="43.54486517008188" lon="11.91752940174224"><ele>300.0</ele><time>2026-04-25T11:07:31.999Z</time></trkpt><trkpt lat="43.54477749441748" lon="11.917310924815933"><ele>301.0</ele><time>2026-04-25T11:07:32.999Z</time></trkpt><trkpt lat="43.54469272541315" lon="11.917094843656859"><ele>302.0</ele><time>2026-04-25T11:07:33.999Z</time></trkpt><trkpt lat="43.54459748708872" lon="11.916877654950106"><ele>303.0</ele><time>2026-04-25T11:07:34.999Z</time></trkpt><trkpt lat="43.54446124584573" lon="11.916718092293943"><ele>303.0</ele><time>2026-04-25T11:07:35.999Z</time></trkpt><trkpt lat="43.544307950113264" lon="11.916571254737246"><ele>303.0</ele><time>2026-04-25T11:07:36.999Z</time></trkpt><trkpt lat="43.544140163262284" lon="11.916463272000811"><ele>303.0</ele><time>2026-04-25T11:07:37.999Z</time></trkpt><trkpt lat="43.543970718347325" lon="11.916357092054167"><ele>303.0</ele><time>2026-04-25T11:07:38.999Z</time></trkpt><trkpt lat="43.54380004577716" lon="11.91627430880236"><ele>303.0</ele><time>2026-04-25T11:07:39.999Z</time></trkpt><trkpt lat="43.54363704972335" lon="11.916177946109947"><ele>303.0</ele><time>2026-04-25T11:07:40.999Z</time></trkpt><trkpt lat="43.54347711383091" lon="11.916066288217479"><ele>300.6666666666667</ele><time>2026-04-25T11:07:41.999Z</time></trkpt><trkpt lat="43.54333809540398" lon="11.91592743083249"><ele>298.33333333333337</ele><time>2026-04-25T11:07:42.999Z</time></trkpt><trkpt lat="43.54322729887304" lon="11.915754648209"><ele>296.0</ele><time>2026-04-25T11:07:43.999Z</time></trkpt><trkpt lat="43.543132374587614" lon="11.91554504130683"><ele>296.0</ele><time>2026-04-25T11:07:44.999Z</time></trkpt><trkpt lat="43.54304968814779" lon="11.915318929719541"><ele>296.0</ele><time>2026-04-25T11:07:45.999Z</time></trkpt><trkpt lat="43.54296713954258" lon="11.915090509108257"><ele>296.0</ele><time>2026-04-25T11:07:46.999Z</time></trkpt><trkpt lat="43.54288295253441" lon="11.914862348788061"><ele>294.0</ele><time>2026-04-25T11:07:47.999Z</time></trkpt><trkpt lat="43.54279592192077" lon="11.914638136654958"><ele>292.0</ele><time>2026-04-25T11:07:48.999Z</time></trkpt><trkpt lat="43.542709188565354" lon="11.914414149107197"><ele>290.0</ele><time>2026-04-25T11:07:49.999Z</time></trkpt><trkpt lat="43.54262243953091" lon="11.914189306644564"><ele>290.0</ele><time>2026-04-25T11:07:50.999Z</time></trkpt><trkpt lat="43.542535603404026" lon="11.91396880539447"><ele>290.0</ele><time>2026-04-25T11:07:51.999Z</time></trkpt><trkpt lat="43.54244892063675" lon="11.91374236762511"><ele>290.0</ele><time>2026-04-25T11:07:52.999Z</time></trkpt><trkpt lat="43.54236520927033" lon="11.913520520294846"><ele>290.0</ele><time>2026-04-25T11:07:53.999Z</time></trkpt><trkpt lat="43.542284053132406" lon="11.913290489224297"><ele>290.0</ele><time>2026-04-25T11:07:54.999Z</time></trkpt><trkpt lat="43.54221133309512" lon="11.913061731650197"><ele>290.0</ele><time>2026-04-25T11:07:55.999Z</time></trkpt><trkpt lat="43.54214811306611" lon="11.912822051652968"><ele>290.0</ele><time>2026-04-25T11:07:56.999Z</time></trkpt><trkpt lat="43.54209548927355" lon="11.912575618039263"><ele>290.0</ele><time>2026-04-25T11:07:57.999Z</time></trkpt><trkpt lat="43.5420419359333" lon="11.912336368177328"><ele>290.0</ele><time>2026-04-25T11:07:58.999Z</time></trkpt><trkpt lat="43.54198620136452" lon="11.912086816796805"><ele>288.6666666666667</ele><time>2026-04-25T11:07:59.999Z</time></trkpt><trkpt lat="43.5419287696964" lon="11.911842494061279"><ele>287.3333333333333</ele><time>2026-04-25T11:08:00.999Z</time></trkpt><trkpt lat="43.54187109556383" lon="11.911597903259006"><ele>286.0</ele><time>2026-04-25T11:08:01.999Z</time></trkpt><trkpt lat="43.5418147329956" lon="11.911352114368812"><ele>286.0</ele><time>2026-04-25T11:08:02.999Z</time></trkpt><trkpt lat="43.54176088160754" lon="11.911108525563156"><ele>286.0</ele><time>2026-04-25T11:08:03.999Z</time></trkpt><trkpt lat="43.54170910504189" lon="11.910868618334645"><ele>286.0</ele><time>2026-04-25T11:08:04.999Z</time></trkpt><trkpt lat="43.54165121883452" lon="11.910620603020206"><ele>286.0</ele><time>2026-04-25T11:08:05.999Z</time></trkpt><trkpt lat="43.5415942133666" lon="11.910381311497149"><ele>286.0</ele><time>2026-04-25T11:08:06.999Z</time></trkpt><trkpt lat="43.54153877187841" lon="11.910138728439577"><ele>286.0</ele><time>2026-04-25T11:08:07.999Z</time></trkpt><trkpt lat="43.54148261126658" lon="11.909897179987825"><ele>286.3333333333333</ele><time>2026-04-25T11:08:08.999Z</time></trkpt><trkpt lat="43.541426803286484" lon="11.909660681858163"><ele>286.6666666666667</ele><time>2026-04-25T11:08:09.999Z</time></trkpt><trkpt lat="43.5413628205181" lon="11.909418417082655"><ele>287.0</ele><time>2026-04-25T11:08:10.999Z</time></trkpt><trkpt lat="43.54129826087923" lon="11.909188059602178"><ele>287.0</ele><time>2026-04-25T11:08:11.999Z</time></trkpt><trkpt lat="43.54122349418388" lon="11.908951458371924"><ele>287.0</ele><time>2026-04-25T11:08:13Z</time></trkpt><trkpt lat="43.54115265260237" lon="11.908720479802167"><ele>287.0</ele><time>2026-04-25T11:08:14Z</time></trkpt><trkpt lat="43.54108299145955" lon="11.908480459330237"><ele>286.6666666666667</ele><time>2026-04-25T11:08:15Z</time></trkpt><trkpt lat="43.541007625540026" lon="11.908243208712966"><ele>286.3333333333333</ele><time>2026-04-25T11:08:16Z</time></trkpt><trkpt lat="43.54093356035137" lon="11.908005441497064"><ele>286.0</ele><time>2026-04-25T11:08:17Z</time></trkpt><trkpt lat="43.54085823129647" lon="11.907765120449989"><ele>284.0</ele><time>2026-04-25T11:08:18Z</time></trkpt><trkpt lat="43.54078776438522" lon="11.907524336393166"><ele>282.0</ele><time>2026-04-25T11:08:19Z</time></trkpt><trkpt lat="43.540713998648016" lon="11.907279691446346"><ele>280.0</ele><time>2026-04-25T11:08:20Z</time></trkpt><trkpt lat="43.54064119904168" lon="11.907045161081834"><ele>280.0</ele><time>2026-04-25T11:08:21Z</time></trkpt><trkpt lat="43.54056181549217" lon="11.906813652160224"><ele>280.0</ele><time>2026-04-25T11:08:22Z</time></trkpt><trkpt lat="43.5404716630373" lon="11.906586531750047"><ele>280.0</ele><time>2026-04-25T11:08:23Z</time></trkpt><trkpt lat="43.54037749233055" lon="11.906367602863979"><ele>280.3333333333333</ele><time>2026-04-25T11:08:24Z</time></trkpt><trkpt lat="43.540276152245745" lon="11.906154024941321"><ele>280.6666666666667</ele><time>2026-04-25T11:08:25Z</time></trkpt><trkpt lat="43.54017192210924" lon="11.905939961940001"><ele>281.0</ele><time>2026-04-25T11:08:26Z</time></trkpt><trkpt lat="43.54007173623007" lon="11.905732551637245"><ele>279.6666666666667</ele><time>2026-04-25T11:08:27Z</time></trkpt><trkpt lat="43.53996888460446" lon="11.905523932934841"><ele>278.3333333333333</ele><time>2026-04-25T11:08:28Z</time></trkpt><trkpt lat="43.53986205239406" lon="11.905304816363332"><ele>277.0</ele><time>2026-04-25T11:08:29Z</time></trkpt><trkpt lat="43.539757450172374" lon="11.905083254904627"><ele>276.66666666666663</ele><time>2026-04-25T11:08:30Z</time></trkpt><trkpt lat="43.539647441134605" lon="11.904855508508811"><ele>276.3333333333333</ele><time>2026-04-25T11:08:31Z</time></trkpt><trkpt lat="43.53954313444056" lon="11.904627191316628"><ele>276.0</ele><time>2026-04-25T11:08:32Z</time></trkpt><trkpt lat="43.53943531490254" lon="11.904401813793461"><ele>276.3333333333333</ele><time>2026-04-25T11:08:33Z</time></trkpt><trkpt lat="43.53932954236132" lon="11.904176844867235"><ele>276.66666666666663</ele><time>2026-04-25T11:08:34Z</time></trkpt><trkpt lat="43.539221527542615" lon="11.903952387421795"><ele>277.0</ele><time>2026-04-25T11:08:35Z</time></trkpt><trkpt lat="43.53911285494968" lon="11.90373093348744"><ele>277.0</ele><time>2026-04-25T11:08:36Z</time></trkpt><trkpt lat="43.53900567533535" lon="11.903509410549606"><ele>277.0</ele><time>2026-04-25T11:08:37Z</time></trkpt><trkpt lat="43.53889326622455" lon="11.90328154122308"><ele>277.0</ele><time>2026-04-25T11:08:38Z</time></trkpt><trkpt lat="43.53877780335528" lon="11.90306069842493"><ele>277.3333333333333</ele><time>2026-04-25T11:08:39Z</time></trkpt><trkpt lat="43.53864842563591" lon="11.902849335974576"><ele>277.6666666666667</ele><time>2026-04-25T11:08:40Z</time></trkpt><trkpt lat="43.53851965184493" lon="11.902648941809856"><ele>278.0</ele><time>2026-04-25T11:08:41Z</time></trkpt><trkpt lat="43.53839941721372" lon="11.902445218038011"><ele>277.33333333333337</ele><time>2026-04-25T11:08:42Z</time></trkpt><trkpt lat="43.538275400564956" lon="11.902239175440037"><ele>276.6666666666667</ele><time>2026-04-25T11:08:43Z</time></trkpt><trkpt lat="43.538155750826874" lon="11.902041746867843"><ele>276.0</ele><time>2026-04-25T11:08:44Z</time></trkpt><trkpt lat="43.538032158285894" lon="11.901858995309244"><ele>276.3333333333333</ele><time>2026-04-25T11:08:45Z</time></trkpt><trkpt lat="43.53789605176006" lon="11.901683675769949"><ele>276.66666666666663</ele><time>2026-04-25T11:08:46Z</time></trkpt><trkpt lat="43.53774547621028" lon="11.901521736835901"><ele>277.0</ele><time>2026-04-25T11:08:47Z</time></trkpt><trkpt lat="43.537588800523714" lon="11.90137167252887"><ele>277.0</ele><time>2026-04-25T11:08:48Z</time></trkpt><trkpt lat="43.53742533730809" lon="11.901226802351701"><ele>277.0</ele><time>2026-04-25T11:08:49Z</time></trkpt><trkpt lat="43.53727128918958" lon="11.901076930032588"><ele>277.0</ele><time>2026-04-25T11:08:50Z</time></trkpt><trkpt lat="43.53711343646846" lon="11.900928218350698"><ele>275.66666666666663</ele><time>2026-04-25T11:08:51Z</time></trkpt><trkpt lat="43.53695064742192" lon="11.900778537036127"><ele>274.3333333333333</ele><time>2026-04-25T11:08:52Z</time></trkpt><trkpt lat="43.53679154464472" lon="11.90062973733379"><ele>273.0</ele><time>2026-04-25T11:08:53Z</time></trkpt><trkpt lat="43.536636329709864" lon="11.900475123970185"><ele>273.0</ele><time>2026-04-25T11:08:54Z</time></trkpt><trkpt lat="43.53648231970173" lon="11.900312690660307"><ele>273.0</ele><time>2026-04-25T11:08:55Z</time></trkpt><trkpt lat="43.53634832838802" lon="11.900118662527449"><ele>273.0</ele><time>2026-04-25T11:08:56Z</time></trkpt><trkpt lat="43.53622414222434" lon="11.899908729978572"><ele>274.0</ele><time>2026-04-25T11:08:57Z</time></trkpt><trkpt lat="43.53610488472498" lon="11.89969625539341"><ele>275.0</ele><time>2026-04-25T11:08:58Z</time></trkpt><trkpt lat="43.535986225091065" lon="11.899486196793786"><ele>276.0</ele><time>2026-04-25T11:08:59Z</time></trkpt><trkpt lat="43.53586415944642" lon="11.899279968006125"><ele>275.0</ele><time>2026-04-25T11:09:00Z</time></trkpt><trkpt lat="43.53574355789479" lon="11.899070882930967"><ele>274.0</ele><time>2026-04-25T11:09:01Z</time></trkpt><trkpt lat="43.535618240457794" lon="11.898867381363672"><ele>273.0</ele><time>2026-04-25T11:09:02Z</time></trkpt><trkpt lat="43.53549488508243" lon="11.898661473554506"><ele>273.0</ele><time>2026-04-25T11:09:03Z</time></trkpt><trkpt lat="43.53536914541623" lon="11.89846009664128"><ele>273.0</ele><time>2026-04-25T11:09:04Z</time></trkpt><trkpt lat="43.53526207937608" lon="11.898272643505456"><ele>273.0</ele><time>2026-04-25T11:09:05Z</time></trkpt><trkpt lat="43.535157525950176" lon="11.898100347388382"><ele>272.6666666666667</ele><time>2026-04-25T11:09:06Z</time></trkpt><trkpt lat="43.53505364214467" lon="11.897920654121197"><ele>272.33333333333337</ele><time>2026-04-25T11:09:07Z</time></trkpt><trkpt lat="43.534950476382306" lon="11.897737829789623"><ele>272.0</ele><time>2026-04-25T11:09:08Z</time></trkpt><trkpt lat="43.534827209757424" lon="11.897562092402346"><ele>271.75</ele><time>2026-04-25T11:09:09Z</time></trkpt><trkpt lat="43.534695926799955" lon="11.8974261419364"><ele>271.5</ele><time>2026-04-25T11:09:10Z</time></trkpt><trkpt lat="43.53457169020828" lon="11.897317347652818"><ele>271.25</ele><time>2026-04-25T11:09:11Z</time></trkpt><trkpt lat="43.534457463531325" lon="11.897225732179303"><ele>271.0</ele><time>2026-04-25T11:09:12Z</time></trkpt><trkpt lat="43.534352651115945" lon="11.897131457724722"><ele>271.0</ele><time>2026-04-25T11:09:13Z</time></trkpt><trkpt lat="43.534254554796576" lon="11.897045763661271"><ele>271.0</ele><time>2026-04-25T11:09:14Z</time></trkpt><trkpt lat="43.53417064606371" lon="11.896957674068332"><ele>271.0</ele><time>2026-04-25T11:09:15Z</time></trkpt><trkpt lat="43.53409324795335" lon="11.896897513037624"><ele>271.0</ele><time>2026-04-25T11:09:16Z</time></trkpt><trkpt lat="43.53403819907499" lon="11.896854518527123"><ele>271.0</ele><time>2026-04-25T11:09:17Z</time></trkpt><trkpt lat="43.53396691168709" lon="11.896779199587733"><ele>271.0</ele><time>2026-04-25T11:09:19Z</time></trkpt><trkpt lat="43.53390260409971" lon="11.896721137245445"><ele>271.0</ele><time>2026-04-25T11:09:23Z</time></trkpt></trkseg></trk></gpx>